UPASserial,0013
UPASfirmware,CEAMS_UPASv2_2_AODv1_0-rev94-L152RE_20171101_mbed116.bin compiledNov  4 2017_22:29:27UTC
UPASlogFilename,/sd/AD0013_LOG_2017-11-11T14_13_13UTC_013~_______________037.txt


SETUP SUMMARY

PARAMETER,VALUE,UNITS/NOTES
StartOnNextPowerUp,0,(0=no 1=yes)
StartDateTime,2017-11-11T14:13:13UTC,(YYYY-MM-DDTHH:MM:SSUTC)
GPSUTCOffset,0.00,(hour)
ProgrammedStartDelay,0,(s)
ProgrammedRuntime,173700,(s)
VolumetricFlowRate,2.000000,(L*min^-1)
DutyCycle,100,(%)
DutyCycleWindow,30,(s)
GPSEnabled,1,(0=no 1=yes)
LogFileMode,0,(0=normal 1=debug)
LogInterval,30,(s)
AppVersion,N/A,(i=iOS A=Android)
Latitude,40.59,(decimalDegree)
Longitude,-105.18,(decimalDegree)
SAMPLE SUMMARY

PARAMETER,VALUE,UNITS/NOTES
ShutdownMode,3,(0=unknown error 1=user pushbutton stop 2=depleted battery 3=completed preset sample duration 4=thermal protection shutdown)
SampledVolume, 2218.1,(L)
SampledRuntime,173680,(s)
AverageVolumetricFlow,0.77,(L*min^-1)


SAMPLE LOG

(HH:MM:SS),(s),(YYY-MM-DDTHH:MM:SS),(L*min^-1),(L),(C),(C),(C),(hPa),(hPa),(Pa),(%),(g*L^-1),(integer),(integer),(g*min^-1),(V),(integer),(M),(degree),(degree),(AU),(degrees),(degrees),(degrees),(degrees),(degrees),(V),(V),(V),(V),(-),(-),(-),(-),(ug*m^-3),(ug*m^-3),(ug*m^-3),(ug*m^-3),(ug*m^-3),(ug*m^-3),(integer),(integer),(integer),(integer),(integer),(integer)
SampleTime,UnixTime,UTCDateTime,VolFlow,SampledVolume,PumpT,PCBT,FdpT,PumpP,PCBP,FdpP,PumpRH,AtmoRho,PumpPow,PumpV,MassFlow,BFGvolt,BFGenergy,AirMassFactor,Zenith,Azimuth,Earth2SunDistance,quad_x,quad_y,pitch,roll,heading,v870,v680,v520,v440,AOD870,AOD680,AOD520,AOD440,PM1_0RAW,PM2_5RAW,PM10RAW,PM1_0ADJ,PM2_5ADJ,PM10_0ADJ,CNT0_3,CNT0_5,CNT1_0,CNT2_5,CNT5_0,CNT10
0:00:00,1510409596,2017-11-11T14:13:16,0.000,0.0,18.98,18.51,0.00,829.010,2083.720,0.000000,34.21,2.4815,0,7350,0.00000,4.12,52619,10.909705,85.500792,117.649891,0.989958,1.555374,0.546389,-3.264724,-3.894819,-53.823837,0.816756,0.769725,0.261669,0.075381,0.022618,0.025894,0.040934,0.036948,99999,99999,99999,99999,99999,99999,99999,99999,99999,99999,99999,99999
0:00:10,1510409610,2017-11-11T14:13:35,0.808,0.2,19.22,18.55,19.70,827.780,2084.540,119.133331,22.85,2.4815,355,24049,2.00598,4.09,52616,,,,,,,,,,,,,,,,,,99999,99999,99999,99999,99999,99999,99999,99999,99999,99999,99999,99999
0:00:40,1510409640,2017-11-11T14:14:05,0.813,0.6,19.89,18.67,20.59,827.700,2086.920,121.483330,21.25,2.4787,355,24048,2.01434,4.09,52612,,,,,,,,,,,,,,,,,,99999,99999,99999,99999,99999,99999,99999,99999,99999,99999,99999,99999
0:01:10,1510409670,2017-11-11T14:14:35,0.816,1.0,20.36,18.74,21.22,827.750,2088.610,121.933334,20.52,2.4768,355,24051,2.02023,4.09,52607,,,,,,,,,,,,,,,,,,99999,99999,99999,99999,99999,99999,99999,99999,99999,99999,99999,99999
0:01:40,1510409700,2017-11-11T14:15:05,0.814,1.4,20.69,18.80,21.72,827.810,2089.720,121.516670,19.75,2.4753,355,24040,2.01372,4.09,52602,,,,,,,,,,,,,,,,,,99999,99999,99999,99999,99999,99999,99999,99999,99999,99999,99999,99999
0:02:10,1510409730,2017-11-11T14:15:35,0.814,1.8,20.95,18.82,22.02,827.750,2090.630,121.650002,18.78,2.4743,355,24056,2.01341,4.09,52597,,,,,,,,,,,,,,,,,,99999,99999,99999,99999,99999,99999,99999,99999,99999,99999,99999,99999
0:02:40,1510409760,2017-11-11T14:16:05,0.817,2.2,21.09,18.83,22.32,827.820,2091.100,122.916664,18.65,2.4737,355,24057,2.02116,4.09,52592,,,,,,,,,,,,,,,,,,99999,99999,99999,99999,99999,99999,99999,99999,99999,99999,99999,99999
0:03:10,1510409790,2017-11-11T14:16:35,0.817,2.6,21.21,18.81,22.50,827.720,2091.510,123.983330,18.24,2.4732,355,24057,2.02147,4.09,52588,,,,,,,,,,,,,,,,,,99999,99999,99999,99999,99999,99999,99999,99999,99999,99999,99999,99999
0:03:40,1510409820,2017-11-11T14:17:05,0.817,3.0,21.25,18.76,22.62,827.710,2091.640,123.716667,18.17,2.4730,355,24055,2.01930,4.09,52583,,,,,,,,,,,,,,,,,,99999,99999,99999,99999,99999,99999,99999,99999,99999,99999,99999,99999
0:04:10,1510409850,2017-11-11T14:17:35,0.814,3.4,21.27,18.69,22.74,827.780,2091.740,120.566666,18.15,2.4730,355,24054,2.01217,4.09,52578,,,,,,,,,,,,,,,,,,99999,99999,99999,99999,99999,99999,99999,99999,99999,99999,99999,99999
0:04:40,1510409880,2017-11-11T14:18:05,0.812,3.9,21.25,18.61,22.80,827.790,2091.640,121.099998,18.60,2.4730,355,24051,2.00876,4.09,52573,,,,,,,,,,,,,,,,,,99999,99999,99999,99999,99999,99999,99999,99999,99999,99999,99999,99999
0:05:10,1510409910,2017-11-11T14:18:35,0.812,4.3,21.19,18.47,22.80,827.780,2091.450,121.650002,18.52,2.4733,355,24046,2.00783,4.08,52568,,,,,,,,,,,,,,,,,,99999,99999,99999,99999,99999,99999,99999,99999,99999,99999,99999,99999
0:05:40,1510409940,2017-11-11T14:19:05,0.815,4.7,21.11,18.35,22.78,827.870,2091.160,122.833336,18.60,2.4736,355,24046,2.01589,4.08,52563,,,,,,,,,,,,,,,,,,99999,99999,99999,99999,99999,99999,99999,99999,99999,99999,99999,99999
0:06:10,1510409970,2017-11-11T14:19:35,0.810,5.1,20.99,18.19,22.72,827.930,2090.820,120.833336,18.86,2.4742,355,24040,2.00381,4.08,52559,,,,,,,,,,,,,,,,,,99999,99999,99999,99999,99999,99999,99999,99999,99999,99999,99999,99999
0:06:40,1510410000,2017-11-11T14:20:05,0.812,5.5,20.86,18.01,22.65,827.880,2090.340,121.933334,18.94,2.4747,355,24035,2.00845,4.08,52554,,,,,,,,,,,,,,,,,,99999,99999,99999,99999,99999,99999,99999,99999,99999,99999,99999,99999
0:07:10,1510410030,2017-11-11T14:20:35,0.812,5.9,20.70,17.85,22.56,827.910,2089.760,121.016670,19.05,2.4754,355,24028,2.01062,4.08,52549,,,,,,,,,,,,,,,,,,99999,99999,99999,99999,99999,99999,99999,99999,99999,99999,99999,99999
0:07:40,1510410060,2017-11-11T14:21:05,0.807,6.3,20.55,17.63,22.42,827.920,2089.230,120.666664,19.19,2.4760,355,24024,1.99732,4.08,52544,,,,,,,,,,,,,,,,,,99999,99999,99999,99999,99999,99999,99999,99999,99999,99999,99999,99999
0:08:10,1510410090,2017-11-11T14:21:35,0.809,6.7,20.38,17.46,22.32,827.910,2088.610,120.683334,19.38,2.4767,355,24025,2.00257,4.08,52539,,,,,,,,,,,,,,,,,,99999,99999,99999,99999,99999,99999,99999,99999,99999,99999,99999,99999
0:08:40,1510410120,2017-11-11T14:22:05,0.804,7.1,20.21,17.29,22.18,827.950,2088.030,119.000000,19.37,2.4775,355,24015,1.99239,4.08,52534,,,,,,,,,,,,,,,,,,99999,99999,99999,99999,99999,99999,99999,99999,99999,99999,99999,99999
0:09:10,1510410150,2017-11-11T14:22:35,0.807,7.5,20.03,17.10,22.04,827.970,2087.380,120.833336,19.48,2.4783,355,24007,2.00010,4.08,52530,,,,,,,,,,,,,,,,,,99999,99999,99999,99999,99999,99999,99999,99999,99999,99999,99999,99999
0:09:40,1510410180,2017-11-11T14:23:05,0.803,7.9,19.86,16.95,21.91,827.980,2086.810,118.316666,19.95,2.4790,355,24004,1.99023,4.08,52525,,,,,,,,,,,,,,,,,,99999,99999,99999,99999,99999,99999,99999,99999,99999,99999,99999,99999
0:10:10,1510410210,2017-11-11T14:23:35,0.804,8.3,19.71,16.79,21.78,828.070,2086.270,117.866669,20.23,2.4796,355,23997,1.99393,4.08,52520,,,,,,,,,,,,,,,,,,99999,99999,99999,99999,99999,99999,99999,99999,99999,99999,99999,99999
0:10:40,1510410240,2017-11-11T14:24:05,0.805,8.7,19.57,16.65,21.66,828.040,2085.810,118.666664,20.13,2.4803,355,23993,1.99732,4.08,52515,,,,,,,,,,,,,,,,,,99999,99999,99999,99999,99999,99999,99999,99999,99999,99999,99999,99999
0:11:10,1510410270,2017-11-11T14:24:35,0.801,9.1,19.42,16.53,21.54,828.080,2085.290,117.000000,20.21,2.4809,355,23989,1.98838,4.08,52511,,,,,,,,,,,,,,,,,,99999,99999,99999,99999,99999,99999,99999,99999,99999,99999,99999,99999
0:11:40,1510410300,2017-11-11T14:25:05,0.800,9.5,19.29,16.42,21.43,828.080,2084.890,116.683334,20.35,2.4816,355,23996,1.98530,4.14,52511,,,,,,,,,,,,,,,,,,99999,99999,99999,99999,99999,99999,99999,99999,99999,99999,99999,99999
0:12:10,1510410330,2017-11-11T14:25:35,0.801,9.9,19.18,16.36,21.34,828.130,2084.470,117.400002,20.33,2.4820,355,23993,1.98869,4.14,52511,,,,,,,,,,,,,,,,,,99999,99999,99999,99999,99999,99999,99999,99999,99999,99999,99999,99999
0:12:40,1510410360,2017-11-11T14:26:05,0.798,10.3,19.08,16.33,21.25,828.160,2084.140,116.616669,20.50,2.4825,355,23993,1.98192,4.14,52513,,,,,,,,,,,,,,,,,,99999,99999,99999,99999,99999,99999,99999,99999,99999,99999,99999,99999
0:13:10,1510410390,2017-11-11T14:26:35,0.797,10.7,18.98,16.29,21.17,828.180,2083.720,116.733330,20.67,2.4828,355,23992,1.97915,4.14,52515,,,,,,,,,,,,,,,,,,99999,99999,99999,99999,99999,99999,99999,99999,99999,99999,99999,99999
0:13:40,1510410420,2017-11-11T14:27:05,0.800,11.1,18.89,16.25,21.09,828.150,2083.500,117.583336,21.18,2.4833,355,23993,1.98561,4.14,52517,,,,,,,,,,,,,,,,,,99999,99999,99999,99999,99999,99999,99999,99999,99999,99999,99999,99999
0:14:10,1510410450,2017-11-11T14:27:35,0.801,11.5,18.81,16.21,21.01,828.220,2083.160,118.183334,20.83,2.4836,355,23988,1.98992,4.15,52519,,,,,,,,,,,,,,,,,,99999,99999,99999,99999,99999,99999,99999,99999,99999,99999,99999,99999
0:14:40,1510410480,2017-11-11T14:28:05,0.796,11.9,18.72,16.15,20.94,828.210,2082.800,115.566666,21.29,2.4839,355,23989,1.97731,4.15,52521,,,,,,,,,,,,,,,,,,99999,99999,99999,99999,99999,99999,99999,99999,99999,99999,99999,99999
0:15:10,1510410510,2017-11-11T14:28:35,0.800,12.3,18.64,16.10,20.90,828.310,2082.580,117.800003,21.47,2.4843,355,23986,1.98715,4.15,52523,,,,,,,,,,,,,,,,,,99999,99999,99999,99999,99999,99999,99999,99999,99999,99999,99999,99999
0:15:40,1510410540,2017-11-11T14:29:05,0.799,12.7,18.55,16.02,20.80,828.170,2082.220,116.483330,21.13,2.4847,355,23985,1.98438,4.15,52525,,,,,,,,,,,,,,,,,,99999,99999,99999,99999,99999,99999,99999,99999,99999,99999,99999,99999
0:16:10,1510410570,2017-11-11T14:29:35,0.796,13.1,18.47,15.94,20.74,828.240,2081.990,116.133331,21.33,2.4851,355,23984,1.97884,4.15,52528,,,,,,,,,,,,,,,,,,99999,99999,99999,99999,99999,99999,99999,99999,99999,99999,99999,99999
0:16:40,1510410600,2017-11-11T14:30:05,0.798,13.5,18.40,15.86,20.68,828.320,2081.760,118.183334,21.74,2.4854,355,23981,1.98345,4.15,52530,,,,,,,,,,,,,,,,,,99999,99999,99999,99999,99999,99999,99999,99999,99999,99999,99999,99999
0:17:10,1510410630,2017-11-11T14:30:35,0.795,13.9,18.32,15.78,20.60,828.170,2081.530,117.133331,21.30,2.4858,355,23979,1.97547,4.15,52532,,,,,,,,,,,,,,,,,,99999,99999,99999,99999,99999,99999,99999,99999,99999,99999,99999,99999
0:17:40,1510410660,2017-11-11T14:31:05,0.798,14.3,18.28,15.71,20.52,828.260,2081.300,117.016670,21.61,2.4859,355,23976,1.98438,4.15,52535,,,,,,,,,,,,,,,,,,99999,99999,99999,99999,99999,99999,99999,99999,99999,99999,99999,99999
0:18:10,1510410690,2017-11-11T14:31:35,0.796,14.7,18.22,15.70,20.52,828.280,2081.130,113.783333,21.55,2.4862,355,23975,1.97792,4.15,52537,,,,,,,,,,,,,,,,,,99999,99999,99999,99999,99999,99999,99999,99999,99999,99999,99999,99999
0:18:40,1510410720,2017-11-11T14:32:05,0.798,15.1,18.17,15.60,20.46,828.240,2080.970,114.216667,21.65,2.4864,355,23975,1.98500,4.15,52540,,,,,,,,,,,,,,,,,,99999,99999,99999,99999,99999,99999,99999,99999,99999,99999,99999,99999
0:19:10,1510410750,2017-11-11T14:32:35,0.797,15.5,18.10,15.56,20.42,828.280,2080.740,116.583336,21.70,2.4868,355,23973,1.98223,4.15,52542,,,,,,,,,,,,,,,,,,99999,99999,99999,99999,99999,99999,99999,99999,99999,99999,99999,99999
0:19:40,1510410780,2017-11-11T14:33:05,0.796,15.9,18.06,15.52,20.40,828.260,2080.610,117.333336,22.01,2.4869,355,23973,1.98069,4.15,52545,,,,,,,,,,,,,,,,,,99999,99999,99999,99999,99999,99999,99999,99999,99999,99999,99999,99999
0:20:10,1510410810,2017-11-11T14:33:35,0.795,16.3,18.02,15.48,20.35,828.380,2080.450,114.916664,22.24,2.4871,355,23970,1.97823,4.15,52548,,,,,,,,,,,,,,,,,,99999,99999,99999,99999,99999,99999,99999,99999,99999,99999,99999,99999
0:20:40,1510410840,2017-11-11T14:34:05,0.796,16.7,17.98,15.43,20.32,828.440,2080.320,116.683334,22.34,2.4872,355,23970,1.97915,4.15,52550,,,,,,,,,,,,,,,,,,99999,99999,99999,99999,99999,99999,99999,99999,99999,99999,99999,99999
0:21:10,1510410870,2017-11-11T14:34:35,0.796,17.1,17.93,15.40,20.24,828.370,2080.160,117.133331,22.42,2.4875,355,23968,1.98007,4.15,52553,,,,,,,,,,,,,,,,,,99999,99999,99999,99999,99999,99999,99999,99999,99999,99999,99999,99999
0:21:40,1510410900,2017-11-11T14:35:05,0.793,17.5,17.90,15.35,20.22,828.430,2079.990,114.983330,22.88,2.4875,355,23969,1.97178,4.15,52556,,,,,,,,,,,,,,,,,,99999,99999,99999,99999,99999,99999,99999,99999,99999,99999,99999,99999
0:22:10,1510410930,2017-11-11T14:35:35,0.792,17.9,17.88,15.33,20.20,828.360,2079.920,115.050003,22.98,2.4876,355,23967,1.96964,4.15,52559,,,,,,,,,,,,,,,,,,99999,99999,99999,99999,99999,99999,99999,99999,99999,99999,99999,99999
0:22:40,1510410960,2017-11-11T14:36:05,0.796,18.3,17.86,15.32,20.20,828.390,2079.860,116.750000,23.37,2.4876,355,23966,1.98100,4.15,52562,,,,,,,,,,,,,,,,,,99999,99999,99999,99999,99999,99999,99999,99999,99999,99999,99999,99999
0:23:10,1510410990,2017-11-11T14:36:35,0.792,18.7,17.86,15.29,20.16,828.390,2079.860,115.449997,22.53,2.4877,355,23967,1.96933,4.15,52564,,,,,,,,,,,,,,,,,,99999,99999,99999,99999,99999,99999,99999,99999,99999,99999,99999,99999
0:23:40,1510411020,2017-11-11T14:37:05,0.795,19.1,17.85,15.28,20.20,828.420,2079.860,116.783333,22.97,2.4878,355,23967,1.97761,4.16,52567,,,,,,,,,,,,,,,,,,99999,99999,99999,99999,99999,99999,99999,99999,99999,99999,99999,99999
0:24:10,1510411050,2017-11-11T14:37:35,0.794,19.5,17.85,15.26,20.18,828.360,2079.860,115.849998,23.23,2.4877,355,23965,1.97608,4.16,52570,,,,,,,,,,,,,,,,,,99999,99999,99999,99999,99999,99999,99999,99999,99999,99999,99999,99999
0:24:40,1510411080,2017-11-11T14:38:05,0.792,19.9,17.87,15.25,20.17,828.440,2079.920,114.983330,23.17,2.4876,355,23966,1.97056,4.16,52573,,,,,,,,,,,,,,,,,,99999,99999,99999,99999,99999,99999,99999,99999,99999,99999,99999,99999
0:25:10,1510411110,2017-11-11T14:38:35,0.795,20.3,17.89,15.23,20.17,828.460,2079.990,115.916664,22.55,2.4876,355,23966,1.97731,4.16,52576,,,,,,,,,,,,,,,,,,99999,99999,99999,99999,99999,99999,99999,99999,99999,99999,99999,99999
0:25:40,1510411140,2017-11-11T14:39:05,0.792,20.7,17.90,15.23,20.24,828.510,2079.990,115.416664,23.36,2.4874,355,23965,1.97087,4.16,52579,,,,,,,,,,,,,,,,,,99999,99999,99999,99999,99999,99999,99999,99999,99999,99999,99999,99999
0:26:10,1510411170,2017-11-11T14:39:35,0.795,21.1,17.93,15.23,20.25,828.480,2080.160,115.466667,22.66,2.4875,355,23965,1.97761,4.16,52583,,,,,,,,,,,,,,,,,,99999,99999,99999,99999,99999,99999,99999,99999,99999,99999,99999,99999
0:26:40,1510411200,2017-11-11T14:40:05,0.796,21.5,17.95,15.24,20.30,828.550,2080.210,115.383331,22.84,2.4873,355,23966,1.98007,4.16,52586,,,,,,,,,,,,,,,,,,99999,99999,99999,99999,99999,99999,99999,99999,99999,99999,99999,99999
0:27:10,1510411230,2017-11-11T14:40:35,0.793,21.9,17.96,15.24,20.28,828.470,2080.210,115.250000,23.08,2.4872,355,23964,1.97148,4.16,52589,,,,,,,,,,,,,,,,,,99999,99999,99999,99999,99999,99999,99999,99999,99999,99999,99999,99999
0:27:40,1510411260,2017-11-11T14:41:05,0.797,22.2,17.99,15.25,20.35,828.490,2080.320,116.833336,22.63,2.4871,355,23965,1.98161,4.16,52592,,,,,,,,,,,,,,,,,,99999,99999,99999,99999,99999,99999,99999,99999,99999,99999,99999,99999
0:28:10,1510411290,2017-11-11T14:41:35,0.795,22.6,18.02,15.25,20.36,828.510,2080.450,115.716667,21.87,2.4871,355,23967,1.97792,4.16,52595,,,,,,,,,,,,,,,,,,99999,99999,99999,99999,99999,99999,99999,99999,99999,99999,99999,99999
0:28:40,1510411320,2017-11-11T14:42:05,0.793,23.0,18.05,15.24,20.38,828.530,2080.510,114.866669,22.29,2.4869,355,23966,1.97270,4.16,52599,,,,,,,,,,,,,,,,,,99999,99999,99999,99999,99999,99999,99999,99999,99999,99999,99999,99999
0:29:10,1510411350,2017-11-11T14:42:35,0.794,23.4,18.06,15.21,20.46,828.470,2080.610,116.116669,21.68,2.4870,355,23965,1.97547,4.16,52602,,,,,,,,,,,,,,,,,,99999,99999,99999,99999,99999,99999,99999,99999,99999,99999,99999,99999
0:29:40,1510411380,2017-11-11T14:43:05,0.797,23.8,18.07,15.22,20.44,828.550,2080.610,117.016670,21.51,2.4869,355,23966,1.98161,4.16,52605,,,,,,,,,,,,,,,,,,99999,99999,99999,99999,99999,99999,99999,99999,99999,99999,99999,99999
0:30:10,1510411410,2017-11-11T14:43:35,0.793,24.2,18.08,15.20,20.48,828.550,2080.680,114.400002,22.01,2.4868,355,23965,1.97301,4.16,52609,,,,,,,,,,,,,,,,,,99999,99999,99999,99999,99999,99999,99999,99999,99999,99999,99999,99999
0:30:40,1510411440,2017-11-11T14:44:05,0.796,24.6,18.08,15.17,20.48,828.520,2080.680,115.616669,22.02,2.4868,355,23964,1.97854,4.16,52612,,,,,,,,,,,,,,,,,,99999,99999,99999,99999,99999,99999,99999,99999,99999,99999,99999,99999
0:31:10,1510411470,2017-11-11T14:44:35,0.797,25.0,18.07,15.13,20.48,828.520,2080.610,116.583336,22.17,2.4868,355,23964,1.98161,4.16,52615,,,,,,,,,,,,,,,,,,99999,99999,99999,99999,99999,99999,99999,99999,99999,99999,99999,99999
0:31:40,1510411500,2017-11-11T14:45:05,0.795,25.4,18.07,15.09,20.48,828.470,2080.610,115.516670,22.37,2.4868,355,23962,1.97792,4.16,52619,,,,,,,,,,,,,,,,,,99999,99999,99999,99999,99999,99999,99999,99999,99999,99999,99999,99999
0:32:10,1510411530,2017-11-11T14:45:35,0.794,25.8,18.07,15.07,20.46,828.680,2080.610,115.033333,23.13,2.4867,355,23961,1.97393,4.16,52622,,,,,,,,,,,,,,,,,,99999,99999,99999,99999,99999,99999,99999,99999,99999,99999,99999,99999
0:32:40,1510411560,2017-11-11T14:46:05,0.796,26.2,18.06,15.05,20.46,828.530,2080.610,115.883331,22.94,2.4868,355,23962,1.98007,4.16,52626,,,,,,,,,,,,,,,,,,99999,99999,99999,99999,99999,99999,99999,99999,99999,99999,99999,99999
0:33:10,1510411590,2017-11-11T14:46:35,0.795,26.6,18.06,15.02,20.46,828.530,2080.610,116.800003,23.18,2.4868,355,23960,1.97823,4.16,52629,,,,,,,,,,,,,,,,,,99999,99999,99999,99999,99999,99999,99999,99999,99999,99999,99999,99999
0:33:40,1510411620,2017-11-11T14:47:05,0.798,27.0,18.06,15.01,20.50,828.610,2080.610,116.833336,23.39,2.4868,355,23959,1.98345,4.16,52633,,,,,,,,,,,,,,,,,,99999,99999,99999,99999,99999,99999,99999,99999,99999,99999,99999,99999
0:34:10,1510411650,2017-11-11T14:47:35,0.793,27.4,18.06,15.00,20.46,828.530,2080.610,115.800003,23.51,2.4868,355,23957,1.97301,4.16,52636,,,,,,,,,,,,,,,,,,99999,99999,99999,99999,99999,99999,99999,99999,99999,99999,99999,99999
0:34:40,1510411680,2017-11-11T14:48:05,0.793,27.8,18.07,14.99,20.46,828.660,2080.610,115.416664,22.97,2.4867,355,23959,1.97270,4.16,52640,,,,,,,,,,,,,,,,,,99999,99999,99999,99999,99999,99999,99999,99999,99999,99999,99999,99999
0:35:10,1510411710,2017-11-11T14:48:35,0.794,28.2,18.08,14.95,20.48,828.600,2080.680,116.533333,23.24,2.4867,355,23960,1.97424,4.16,52644,,,,,,,,,,,,,,,,,,99999,99999,99999,99999,99999,99999,99999,99999,99999,99999,99999,99999
0:35:40,1510411740,2017-11-11T14:49:05,0.796,28.6,18.09,14.99,20.50,828.680,2080.680,116.416664,23.73,2.4866,355,23957,1.97884,4.16,52647,,,,,,,,,,,,,,,,,,99999,99999,99999,99999,99999,99999,99999,99999,99999,99999,99999,99999
0:36:10,1510411770,2017-11-11T14:49:35,0.795,29.0,18.12,14.96,20.54,828.650,2080.780,115.849998,23.53,2.4865,355,23957,1.97608,4.16,52651,,,,,,,,,,,,,,,,,,99999,99999,99999,99999,99999,99999,99999,99999,99999,99999,99999,99999
0:36:40,1510411800,2017-11-11T14:50:05,0.794,29.4,18.14,14.95,20.56,828.670,2080.840,115.333336,23.15,2.4864,355,23960,1.97393,4.16,52655,,,,,,,,,,,,,,,,,,99999,99999,99999,99999,99999,99999,99999,99999,99999,99999,99999,99999
0:37:10,1510411830,2017-11-11T14:50:35,0.795,29.8,18.16,14.93,20.54,828.740,2080.910,116.366669,22.44,2.4864,355,23958,1.97578,4.17,52659,,,,,,,,,,,,,,,,,,99999,99999,99999,99999,99999,99999,99999,99999,99999,99999,99999,99999
0:37:40,1510411860,2017-11-11T14:51:05,0.797,30.2,18.16,14.91,20.58,828.660,2080.910,116.016670,23.72,2.4863,355,23957,1.98069,4.17,52662,,,,,,,,,,,,,,,,,,99999,99999,99999,99999,99999,99999,99999,99999,99999,99999,99999,99999
0:38:10,1510411890,2017-11-11T14:51:35,0.793,30.6,18.17,14.88,20.60,828.720,2080.970,116.150002,22.86,2.4863,355,23955,1.97270,4.17,52666,,,,,,,,,,,,,,,,,,99999,99999,99999,99999,99999,99999,99999,99999,99999,99999,99999,99999
0:38:40,1510411920,2017-11-11T14:52:05,0.795,31.0,18.15,14.85,20.58,828.670,2080.910,114.983330,22.26,2.4865,355,23955,1.97638,4.17,52670,,,,,,,,,,,,,,,,,,99999,99999,99999,99999,99999,99999,99999,99999,99999,99999,99999,99999
0:39:10,1510411950,2017-11-11T14:52:35,0.794,31.4,18.13,14.82,20.56,828.750,2080.780,116.066666,22.21,2.4865,355,23956,1.97455,4.17,52674,,,,,,,,,,,,,,,,,,99999,99999,99999,99999,99999,99999,99999,99999,99999,99999,99999,99999
0:39:40,1510411980,2017-11-11T14:53:05,0.797,31.8,18.10,14.76,20.54,828.680,2080.740,116.099998,22.17,2.4867,355,23954,1.98100,4.17,52678,,,,,,,,,,,,,,,,,,99999,99999,99999,99999,99999,99999,99999,99999,99999,99999,99999,99999
0:40:10,1510412010,2017-11-11T14:53:35,0.793,32.2,18.08,14.75,20.51,828.760,2080.680,116.000000,22.43,2.4868,355,23952,1.97087,4.17,52682,,,,,,,,,,,,,,,,,,99999,99999,99999,99999,99999,99999,99999,99999,99999,99999,99999,99999
0:40:40,1510412040,2017-11-11T14:54:05,0.795,32.6,18.04,14.72,20.46,828.690,2080.510,117.166664,22.34,2.4869,355,23949,1.97638,4.17,52685,,,,,,,,,,,,,,,,,,99999,99999,99999,99999,99999,99999,99999,99999,99999,99999,99999,99999
0:41:10,1510412070,2017-11-11T14:54:35,0.795,33.0,18.02,14.68,20.46,828.700,2080.450,116.833336,22.21,2.4871,355,23952,1.97823,4.17,52689,,,,,,,,,,,,,,,,,,99999,99999,99999,99999,99999,99999,99999,99999,99999,99999,99999,99999
0:41:40,1510412100,2017-11-11T14:55:05,0.797,33.4,17.99,14.66,20.44,828.760,2080.320,115.983330,22.43,2.4871,355,23951,1.98192,4.17,52693,,,,,,,,,,,,,,,,,,99999,99999,99999,99999,99999,99999,99999,99999,99999,99999,99999,99999
0:42:10,1510412130,2017-11-11T14:55:35,0.796,33.8,17.97,14.66,20.42,828.680,2080.260,115.650002,22.92,2.4872,355,23949,1.97884,4.17,52697,,,,,,,,,,,,,,,,,,99999,99999,99999,99999,99999,99999,99999,99999,99999,99999,99999,99999
0:42:40,1510412160,2017-11-11T14:56:05,0.796,34.2,17.94,14.63,20.43,828.740,2080.160,116.349998,22.54,2.4874,355,23952,1.97915,4.17,52701,,,,,,,,,,,,,,,,,,99999,99999,99999,99999,99999,99999,99999,99999,99999,99999,99999,99999
0:43:10,1510412190,2017-11-11T14:56:35,0.792,34.6,17.93,14.61,20.40,828.660,2080.160,114.516670,22.72,2.4874,355,23951,1.97117,4.17,52705,,,,,,,,,,,,,,,,,,99999,99999,99999,99999,99999,99999,99999,99999,99999,99999,99999,99999
0:43:40,1510412220,2017-11-11T14:57:05,0.795,35.0,17.90,14.63,20.35,828.690,2079.990,115.783333,22.29,2.4875,355,23951,1.97638,4.17,52709,,,,,,,,,,,,,,,,,,99999,99999,99999,99999,99999,99999,99999,99999,99999,99999,99999,99999
0:44:10,1510412250,2017-11-11T14:57:35,0.795,35.4,17.87,14.59,20.35,828.630,2079.920,115.566666,22.49,2.4877,355,23949,1.97854,4.17,52714,,,,,,,,,,,,,,,,,,99999,99999,99999,99999,99999,99999,99999,99999,99999,99999,99999,99999
0:44:40,1510412280,2017-11-11T14:58:05,0.794,35.8,17.87,14.58,20.30,828.650,2079.920,116.733330,22.75,2.4877,355,23946,1.97424,4.17,52718,,,,,,,,,,,,,,,,,,99999,99999,99999,99999,99999,99999,99999,99999,99999,99999,99999,99999
0:45:10,1510412310,2017-11-11T14:58:35,0.790,36.1,17.85,14.57,20.32,828.680,2079.860,115.866669,22.83,2.4878,355,23947,1.96535,4.17,52722,,,,,,,,,,,,,,,,,,99999,99999,99999,99999,99999,99999,99999,99999,99999,99999,99999,99999
0:45:40,1510412340,2017-11-11T14:59:05,0.795,36.5,17.83,14.56,20.33,828.690,2079.800,116.400002,23.45,2.4878,355,23947,1.97731,4.17,52726,,,,,,,,,,,,,,,,,,99999,99999,99999,99999,99999,99999,99999,99999,99999,99999,99999,99999
0:46:10,1510412370,2017-11-11T14:59:35,0.793,36.9,17.82,14.54,20.30,828.800,2079.760,116.400002,23.30,2.4879,355,23948,1.97270,4.17,52730,,,,,,,,,,,,,,,,,,99999,99999,99999,99999,99999,99999,99999,99999,99999,99999,99999,99999
0:46:40,1510412400,2017-11-11T15:00:05,0.790,37.3,17.79,14.54,20.30,828.750,2079.690,114.566666,23.72,2.4880,355,23947,1.96657,4.17,52734,,,,,,,,,,,,,,,,,,99999,99999,99999,99999,99999,99999,99999,99999,99999,99999,99999,99999
0:47:10,1510412430,2017-11-11T15:00:35,0.793,37.7,17.79,14.52,20.27,828.880,2079.690,114.416664,23.41,2.4880,355,23944,1.97209,4.17,52738,,,,,,,,,,,,,,,,,,99999,99999,99999,99999,99999,99999,99999,99999,99999,99999,99999,99999
0:47:40,1510412460,2017-11-11T15:01:05,0.792,38.1,17.77,14.52,20.25,828.780,2079.570,115.283333,23.10,2.4881,355,23947,1.97087,4.17,52743,,,,,,,,,,,,,,,,,,99999,99999,99999,99999,99999,99999,99999,99999,99999,99999,99999,99999
0:48:10,1510412490,2017-11-11T15:01:35,0.791,38.5,17.77,14.50,20.25,828.890,2079.570,113.650002,22.70,2.4881,355,23947,1.96872,4.17,52747,,,,,,,,,,,,,,,,,,99999,99999,99999,99999,99999,99999,99999,99999,99999,99999,99999,99999
0:48:40,1510412520,2017-11-11T15:02:05,0.795,38.9,17.76,14.54,20.25,828.890,2079.530,114.266670,22.49,2.4882,355,23945,1.97792,4.17,52751,,,,,,,,,,,,,,,,,,99999,99999,99999,99999,99999,99999,99999,99999,99999,99999,99999,99999
0:49:10,1510412550,2017-11-11T15:02:35,0.795,39.3,17.74,14.53,20.25,828.820,2079.460,114.783333,22.89,2.4882,355,23947,1.97792,4.17,52756,,,,,,,,,,,,,,,,,,99999,99999,99999,99999,99999,99999,99999,99999,99999,99999,99999,99999
0:49:40,1510412580,2017-11-11T15:03:05,0.794,39.7,17.73,14.51,20.22,828.840,2079.400,114.916664,23.00,2.4882,355,23948,1.97485,4.17,52760,,,,,,,,,,,,,,,,,,99999,99999,99999,99999,99999,99999,99999,99999,99999,99999,99999,99999
0:50:10,1510412610,2017-11-11T15:03:35,0.794,40.1,17.73,14.54,20.22,828.870,2079.400,116.250000,22.78,2.4883,355,23947,1.97669,4.17,52764,,,,,,,,,,,,,,,,,,99999,99999,99999,99999,99999,99999,99999,99999,99999,99999,99999,99999
0:50:40,1510412640,2017-11-11T15:04:05,0.794,40.5,17.72,14.56,20.20,828.690,2079.340,116.116669,22.69,2.4883,355,23949,1.97578,4.18,52769,,,,,,,,,,,,,,,,,,99999,99999,99999,99999,99999,99999,99999,99999,99999,99999,99999,99999
0:51:10,1510412670,2017-11-11T15:04:35,0.790,40.9,17.72,14.56,20.22,828.850,2079.340,114.866669,23.09,2.4883,355,23949,1.96627,4.18,52773,,,,,,,,,,,,,,,,,,99999,99999,99999,99999,99999,99999,99999,99999,99999,99999,99999,99999
0:51:40,1510412700,2017-11-11T15:05:05,0.795,41.3,17.73,14.57,20.20,828.870,2079.400,116.833336,23.01,2.4882,355,23948,1.97700,4.18,52777,,,,,,,,,,,,,,,,,,99999,99999,99999,99999,99999,99999,99999,99999,99999,99999,99999,99999
0:52:10,1510412730,2017-11-11T15:05:35,0.791,41.7,17.73,14.58,20.18,828.790,2079.400,116.083336,23.33,2.4882,355,23949,1.96841,4.18,52782,,,,,,,,,,,,,,,,,,99999,99999,99999,99999,99999,99999,99999,99999,99999,99999,99999,99999
0:52:40,1510412760,2017-11-11T15:06:05,0.791,42.1,17.75,14.61,20.20,828.840,2079.460,115.416664,23.08,2.4881,355,23950,1.96841,4.18,52786,,,,,,,,,,,,,,,,,,99999,99999,99999,99999,99999,99999,99999,99999,99999,99999,99999,99999
0:53:10,1510412790,2017-11-11T15:06:35,0.790,42.5,17.76,14.62,20.24,828.810,2079.530,114.516670,23.33,2.4881,355,23949,1.96535,4.18,52791,,,,,,,,,,,,,,,,,,99999,99999,99999,99999,99999,99999,99999,99999,99999,99999,99999,99999
0:53:40,1510412820,2017-11-11T15:07:05,0.795,42.9,17.77,14.63,20.25,828.860,2079.570,116.466667,24.11,2.4880,355,23950,1.97884,4.18,52795,,,,,,,,,,,,,,,,,,99999,99999,99999,99999,99999,99999,99999,99999,99999,99999,99999,99999
0:54:10,1510412850,2017-11-11T15:07:35,0.795,43.3,17.79,14.63,20.28,828.860,2079.690,117.683334,23.78,2.4880,355,23950,1.97792,4.18,52800,,,,,,,,,,,,,,,,,,99999,99999,99999,99999,99999,99999,99999,99999,99999,99999,99999,99999
0:54:40,1510412880,2017-11-11T15:08:05,0.794,43.7,17.79,14.68,20.25,828.830,2079.690,116.816666,24.69,2.4879,355,23951,1.97547,4.18,52804,,,,,,,,,,,,,,,,,,99999,99999,99999,99999,99999,99999,99999,99999,99999,99999,99999,99999
0:55:10,1510412910,2017-11-11T15:08:35,0.794,44.1,17.82,14.66,20.28,828.820,2079.760,118.066666,24.08,2.4878,355,23950,1.97578,4.18,52809,,,,,,,,,,,,,,,,,,99999,99999,99999,99999,99999,99999,99999,99999,99999,99999,99999,99999
0:55:40,1510412940,2017-11-11T15:09:05,0.796,44.5,17.83,14.67,20.35,828.820,2079.800,116.283333,24.51,2.4877,355,23950,1.97915,4.18,52813,,,,,,,,,,,,,,,,,,99999,99999,99999,99999,99999,99999,99999,99999,99999,99999,99999,99999
0:56:10,1510412970,2017-11-11T15:09:35,0.791,44.9,17.87,14.70,20.33,828.730,2079.920,114.533333,24.66,2.4875,355,23949,1.96780,4.18,52818,,,,,,,,,,,,,,,,,,99999,99999,99999,99999,99999,99999,99999,99999,99999,99999,99999,99999
0:56:40,1510413000,2017-11-11T15:10:05,0.790,45.3,17.88,14.72,20.35,828.870,2079.920,116.033333,25.21,2.4874,355,23951,1.96474,4.18,52822,,,,,,,,,,,,,,,,,,99999,99999,99999,99999,99999,99999,99999,99999,99999,99999,99999,99999
0:57:10,1510413030,2017-11-11T15:10:35,0.795,45.7,17.92,14.73,20.40,828.820,2080.030,117.666664,24.65,2.4872,355,23951,1.97638,4.18,52827,,,,,,,,,,,,,,,,,,99999,99999,99999,99999,99999,99999,99999,99999,99999,99999,99999,99999
0:57:40,1510413060,2017-11-11T15:11:05,0.795,46.1,17.94,14.72,20.40,828.820,2080.160,116.033333,23.37,2.4873,355,23953,1.97638,4.18,52832,,,,,,,,,,,,,,,,,,99999,99999,99999,99999,99999,99999,99999,99999,99999,99999,99999,99999
0:58:10,1510413090,2017-11-11T15:11:35,0.793,46.5,17.95,14.72,20.43,828.790,2080.210,115.750000,23.82,2.4872,355,23953,1.97270,4.18,52836,,,,,,,,,,,,,,,,,,99999,99999,99999,99999,99999,99999,99999,99999,99999,99999,99999,99999
0:58:40,1510413120,2017-11-11T15:12:05,0.796,46.9,17.97,14.73,20.44,828.740,2080.260,116.183334,23.27,2.4872,355,23954,1.97884,4.18,52841,,,,,,,,,,,,,,,,,,99999,99999,99999,99999,99999,99999,99999,99999,99999,99999,99999,99999
0:59:10,1510413150,2017-11-11T15:12:35,0.791,47.3,17.99,14.75,20.48,828.760,2080.320,115.599998,22.83,2.4871,355,23952,1.96688,4.18,52845,,,,,,,,,,,,,,,,,,99999,99999,99999,99999,99999,99999,99999,99999,99999,99999,99999,99999
0:59:40,1510413180,2017-11-11T15:13:05,0.795,47.6,18.01,14.75,20.50,828.860,2080.380,116.916664,23.33,2.4870,355,23949,1.97823,4.18,52850,,,,,,,,,,,,,,,,,,99999,99999,99999,99999,99999,99999,99999,99999,99999,99999,99999,99999
1:00:10,1510413210,2017-11-11T15:13:35,0.794,48.0,18.02,14.76,20.51,828.750,2080.450,115.300003,23.60,2.4869,355,23953,1.97393,4.18,52855,,,,,,,,,,,,,,,,,,99999,99999,99999,99999,99999,99999,99999,99999,99999,99999,99999,99999
1:00:40,1510413240,2017-11-11T15:14:05,0.796,48.4,18.03,14.77,20.52,828.820,2080.450,117.033333,22.81,2.4869,355,23953,1.97977,4.18,52859,,,,,,,,,,,,,,,,,,99999,99999,99999,99999,99999,99999,99999,99999,99999,99999,99999,99999
1:01:10,1510413270,2017-11-11T15:14:35,0.793,48.8,18.05,14.79,20.58,828.770,2080.510,115.166664,23.13,2.4868,355,23959,1.97209,4.18,52864,,,,,,,,,,,,,,,,,,99999,99999,99999,99999,99999,99999,99999,99999,99999,99999,99999,99999
1:01:40,1510413300,2017-11-11T15:15:05,0.796,49.2,18.05,14.79,20.56,828.800,2080.510,117.300003,23.02,2.4868,355,23956,1.97915,4.18,52869,,,,,,,,,,,,,,,,,,99999,99999,99999,99999,99999,99999,99999,99999,99999,99999,99999,99999
1:02:10,1510413330,2017-11-11T15:15:35,0.794,49.6,18.06,14.80,20.58,828.790,2080.610,114.849998,23.42,2.4868,355,23957,1.97547,4.18,52873,,,,,,,,,,,,,,,,,,99999,99999,99999,99999,99999,99999,99999,99999,99999,99999,99999,99999
1:02:40,1510413360,2017-11-11T15:16:05,0.796,50.0,18.08,14.84,20.56,828.870,2080.680,117.050003,23.90,2.4867,355,23956,1.98007,4.18,52878,,,,,,,,,,,,,,,,,,99999,99999,99999,99999,99999,99999,99999,99999,99999,99999,99999,99999
1:03:10,1510413390,2017-11-11T15:16:35,0.793,50.4,18.10,14.88,20.60,828.870,2080.740,116.416664,23.64,2.4866,355,23958,1.97301,4.18,52883,,,,,,,,,,,,,,,,,,99999,99999,99999,99999,99999,99999,99999,99999,99999,99999,99999,99999
1:03:40,1510413420,2017-11-11T15:17:05,0.794,50.8,18.13,14.90,20.64,828.810,2080.780,115.666664,23.92,2.4863,355,23960,1.97301,4.18,52888,,,,,,,,,,,,,,,,,,99999,99999,99999,99999,99999,99999,99999,99999,99999,99999,99999,99999
1:04:10,1510413450,2017-11-11T15:17:35,0.794,51.2,18.18,14.95,20.64,828.870,2080.970,116.800003,23.64,2.4862,355,23961,1.97485,4.18,52892,,,,,,,,,,,,,,,,,,99999,99999,99999,99999,99999,99999,99999,99999,99999,99999,99999,99999
1:04:40,1510413480,2017-11-11T15:18:05,0.796,51.6,18.21,15.01,20.74,828.730,2081.070,117.766670,23.56,2.4860,355,23962,1.97946,4.18,52897,,,,,,,,,,,,,,,,,,99999,99999,99999,99999,99999,99999,99999,99999,99999,99999,99999,99999
1:05:10,1510413510,2017-11-11T15:18:35,0.797,52.0,18.27,15.07,20.74,828.720,2081.300,115.983330,22.94,2.4858,355,23962,1.98069,4.18,52902,,,,,,,,,,,,,,,,,,99999,99999,99999,99999,99999,99999,99999,99999,99999,99999,99999,99999
1:05:40,1510413540,2017-11-11T15:19:05,0.798,52.4,18.33,15.10,20.78,828.780,2081.530,117.416664,23.73,2.4855,355,23965,1.98223,4.18,52907,,,,,,,,,,,,,,,,,,99999,99999,99999,99999,99999,99999,99999,99999,99999,99999,99999,99999
1:06:10,1510413570,2017-11-11T15:19:35,0.799,52.8,18.39,15.14,20.86,828.720,2081.720,118.033333,23.48,2.4853,355,23966,1.98561,4.19,52912,,,,,,,,,,,,,,,,,,99999,99999,99999,99999,99999,99999,99999,99999,99999,99999,99999,99999
1:06:40,1510413600,2017-11-11T15:20:05,0.798,53.2,18.46,15.20,20.93,828.730,2081.880,118.416664,22.93,2.4849,355,23969,1.98192,4.19,52917,,,,,,,,,,,,,,,,,,99999,99999,99999,99999,99999,99999,99999,99999,99999,99999,99999,99999
1:07:10,1510413630,2017-11-11T15:20:35,0.799,53.6,18.52,15.25,20.96,828.760,2082.180,118.333336,22.54,2.4848,355,23971,1.98622,4.19,52921,,,,,,,,,,,,,,,,,,99999,99999,99999,99999,99999,99999,99999,99999,99999,99999,99999,99999
1:07:40,1510413660,2017-11-11T15:21:05,0.799,54.0,18.60,15.31,21.06,828.780,2082.470,118.800003,22.61,2.4844,355,23972,1.98469,4.19,52926,,,,,,,,,,,,,,,,,,99999,99999,99999,99999,99999,99999,99999,99999,99999,99999,99999,99999
1:08:10,1510413690,2017-11-11T15:21:35,0.796,54.4,18.66,15.36,21.10,828.760,2082.640,117.083336,22.74,2.4841,355,23970,1.97854,4.19,52931,,,,,,,,,,,,,,,,,,99999,99999,99999,99999,99999,99999,99999,99999,99999,99999,99999,99999
1:08:40,1510413720,2017-11-11T15:22:05,0.797,54.8,18.72,15.42,21.18,828.750,2082.800,116.766670,23.44,2.4837,355,23975,1.98007,4.19,52936,,,,,,,,,,,,,,,,,,99999,99999,99999,99999,99999,99999,99999,99999,99999,99999,99999,99999
1:09:10,1510413750,2017-11-11T15:22:35,0.801,55.2,18.77,15.47,21.25,828.840,2083.030,118.183334,23.18,2.4836,355,23976,1.98869,4.19,52941,,,,,,,,,,,,,,,,,,99999,99999,99999,99999,99999,99999,99999,99999,99999,99999,99999,99999
1:09:40,1510413780,2017-11-11T15:23:05,0.800,55.6,18.83,15.52,21.30,828.770,2083.200,118.983330,24.41,2.4831,355,23976,1.98684,4.19,52946,,,,,,,,,,,,,,,,,,99999,99999,99999,99999,99999,99999,99999,99999,99999,99999,99999,99999
1:10:10,1510413810,2017-11-11T15:23:35,0.797,56.0,18.90,15.55,21.40,828.810,2083.500,118.599998,23.46,2.4830,355,23978,1.97915,4.19,52951,,,,,,,,,,,,,,,,,,99999,99999,99999,99999,99999,99999,99999,99999,99999,99999,99999,99999
1:10:40,1510413840,2017-11-11T15:24:05,0.800,56.4,18.95,15.58,21.43,828.800,2083.680,119.266670,23.57,2.4827,355,23982,1.98653,4.19,52956,,,,,,,,,,,,,,,,,,99999,99999,99999,99999,99999,99999,99999,99999,99999,99999,99999,99999
1:11:10,1510413870,2017-11-11T15:24:35,0.800,56.8,19.00,15.60,21.49,828.790,2083.850,117.433334,23.22,2.4825,355,23981,1.98500,4.19,52960,,,,,,,,,,,,,,,,,,99999,99999,99999,99999,99999,99999,99999,99999,99999,99999,99999,99999
1:11:40,1510413900,2017-11-11T15:25:05,0.798,57.2,19.06,15.65,21.49,828.830,2084.020,117.266670,23.69,2.4822,355,23983,1.98100,4.19,52965,,,,,,,,,,,,,,,,,,99999,99999,99999,99999,99999,99999,99999,99999,99999,99999,99999,99999
1:12:10,1510413930,2017-11-11T15:25:35,0.802,57.6,19.08,15.67,21.59,828.820,2084.140,119.599998,22.93,2.4822,355,23984,1.99084,4.19,52970,,,,,,,,,,,,,,,,,,99999,99999,99999,99999,99999,99999,99999,99999,99999,99999,99999,99999
1:12:40,1510413960,2017-11-11T15:26:05,0.803,58.0,19.13,15.71,21.60,828.760,2084.310,119.733330,23.27,2.4820,355,23984,1.99239,4.19,52975,,,,,,,,,,,,,,,,,,99999,99999,99999,99999,99999,99999,99999,99999,99999,99999,99999,99999
1:13:10,1510413990,2017-11-11T15:26:35,0.798,58.4,19.18,15.74,21.67,828.900,2084.470,117.266670,22.50,2.4818,355,23985,1.98007,4.19,52980,,,,,,,,,,,,,,,,,,99999,99999,99999,99999,99999,99999,99999,99999,99999,99999,99999,99999
1:13:40,1510414020,2017-11-11T15:27:05,0.801,58.8,19.21,15.73,21.66,828.870,2084.540,118.983330,22.77,2.4816,355,23988,1.98869,4.19,52985,,,,,,,,,,,,,,,,,,99999,99999,99999,99999,99999,99999,99999,99999,99999,99999,99999,99999
1:14:10,1510414050,2017-11-11T15:27:35,0.802,59.2,19.26,15.78,21.72,828.890,2084.770,119.750000,22.43,2.4815,355,23986,1.99054,4.19,52990,,,,,,,,,,,,,,,,,,99999,99999,99999,99999,99999,99999,99999,99999,99999,99999,99999,99999
1:14:40,1510414080,2017-11-11T15:28:05,0.801,59.6,19.29,15.82,21.74,828.720,2084.890,117.833336,22.57,2.4813,355,23987,1.98807,4.19,52995,,,,,,,,,,,,,,,,,,99999,99999,99999,99999,99999,99999,99999,99999,99999,99999,99999,99999
1:15:10,1510414110,2017-11-11T15:28:35,0.800,60.0,19.34,15.85,21.82,828.840,2085.000,117.966667,23.27,2.4810,355,23986,1.98376,4.19,53000,,,,,,,,,,,,,,,,,,99999,99999,99999,99999,99999,99999,99999,99999,99999,99999,99999,99999
1:15:40,1510414140,2017-11-11T15:29:05,0.803,60.4,19.39,15.87,21.83,828.780,2085.230,119.466667,22.80,2.4809,355,23991,1.99331,4.19,53005,,,,,,,,,,,,,,,,,,99999,99999,99999,99999,99999,99999,99999,99999,99999,99999,99999,99999
1:16:10,1510414170,2017-11-11T15:29:35,0.804,60.8,19.43,15.89,21.86,828.800,2085.350,118.849998,23.53,2.4806,355,23992,1.99331,4.19,53010,,,,,,,,,,,,,,,,,,99999,99999,99999,99999,99999,99999,99999,99999,99999,99999,99999,99999
1:16:40,1510414200,2017-11-11T15:30:05,0.801,61.2,19.48,15.93,21.91,828.730,2085.520,118.199997,22.54,2.4805,355,23993,1.98622,4.19,53015,,,,,,,,,,,,,,,,,,99999,99999,99999,99999,99999,99999,99999,99999,99999,99999,99999,99999
1:17:10,1510414230,2017-11-11T15:30:35,0.803,61.6,19.54,15.96,21.96,828.850,2085.750,119.833336,22.56,2.4802,355,23992,1.99146,4.19,53020,,,,,,,,,,,,,,,,,,99999,99999,99999,99999,99999,99999,99999,99999,99999,99999,99999,99999
1:17:40,1510414260,2017-11-11T15:31:05,0.804,62.0,19.60,16.02,22.04,828.760,2085.940,119.816666,21.00,2.4801,355,23992,1.99454,4.19,53025,,,,,,,,,,,,,,,,,,99999,99999,99999,99999,99999,99999,99999,99999,99999,99999,99999,99999
1:18:10,1510414290,2017-11-11T15:31:35,0.801,62.4,19.66,16.06,22.07,828.800,2086.170,118.066666,21.64,2.4798,355,23998,1.98561,4.19,53030,,,,,,,,,,,,,,,,,,99999,99999,99999,99999,99999,99999,99999,99999,99999,99999,99999,99999
1:18:40,1510414320,2017-11-11T15:32:05,0.805,62.8,19.73,16.10,22.12,828.780,2086.390,119.483330,21.11,2.4795,355,23999,1.99578,4.19,53035,,,,,,,,,,,,,,,,,,99999,99999,99999,99999,99999,99999,99999,99999,99999,99999,99999,99999
1:19:10,1510414350,2017-11-11T15:32:35,0.802,63.2,19.81,16.16,22.20,828.790,2086.690,119.349998,21.45,2.4791,355,23999,1.98746,4.19,53040,,,,,,,,,,,,,,,,,,99999,99999,99999,99999,99999,99999,99999,99999,99999,99999,99999,99999
1:19:40,1510414380,2017-11-11T15:33:05,0.806,63.6,19.87,16.22,22.30,828.780,2086.860,119.000000,21.77,2.4788,355,24003,1.99763,4.19,53045,,,,,,,,,,,,,,,,,,99999,99999,99999,99999,99999,99999,99999,99999,99999,99999,99999,99999
1:20:10,1510414410,2017-11-11T15:33:35,0.807,64.0,19.97,16.28,22.36,828.830,2087.210,120.000000,21.63,2.4783,355,24002,1.99917,4.19,53050,,,,,,,,,,,,,,,,,,99999,99999,99999,99999,99999,99999,99999,99999,99999,99999,99999,99999
1:20:40,1510414440,2017-11-11T15:34:05,0.803,64.4,20.04,16.34,22.44,828.840,2087.440,118.816666,21.50,2.4780,355,24005,1.99054,4.19,53055,,,,,,,,,,,,,,,,,,99999,99999,99999,99999,99999,99999,99999,99999,99999,99999,99999,99999
1:21:10,1510414470,2017-11-11T15:34:35,0.804,64.8,20.11,16.40,22.54,828.850,2087.730,118.566666,21.70,2.4777,355,24006,1.99270,4.19,53060,,,,,,,,,,,,,,,,,,99999,99999,99999,99999,99999,99999,99999,99999,99999,99999,99999,99999
1:21:40,1510414500,2017-11-11T15:35:05,0.805,65.2,20.18,16.45,22.57,828.840,2087.900,120.666664,22.30,2.4773,355,24008,1.99300,4.19,53065,,,,,,,,,,,,,,,,,,99999,99999,99999,99999,99999,99999,99999,99999,99999,99999,99999,99999
1:22:10,1510414530,2017-11-11T15:35:35,0.806,65.6,20.25,16.52,22.65,828.820,2088.190,120.050003,23.23,2.4769,355,24009,1.99732,4.19,53070,,,,,,,,,,,,,,,,,,99999,99999,99999,99999,99999,99999,99999,99999,99999,99999,99999,99999
1:22:40,1510414560,2017-11-11T15:36:05,0.807,66.0,20.32,16.57,22.75,828.780,2088.480,121.266670,22.61,2.4767,355,24008,1.99763,4.19,53075,,,,,,,,,,,,,,,,,,99999,99999,99999,99999,99999,99999,99999,99999,99999,99999,99999,99999
1:23:10,1510414590,2017-11-11T15:36:35,0.806,66.4,20.38,16.65,22.84,828.690,2088.610,119.599998,21.95,2.4764,355,24013,1.99516,4.19,53080,,,,,,,,,,,,,,,,,,99999,99999,99999,99999,99999,99999,99999,99999,99999,99999,99999,99999
1:23:40,1510414620,2017-11-11T15:37:05,0.808,66.8,20.45,16.70,22.90,828.730,2088.840,121.699997,21.97,2.4761,355,24014,2.00164,4.19,53085,,,,,,,,,,,,,,,,,,99999,99999,99999,99999,99999,99999,99999,99999,99999,99999,99999,99999
1:24:10,1510414650,2017-11-11T15:37:35,0.809,67.2,20.52,16.75,22.98,828.760,2089.130,122.233330,22.20,2.4758,355,24017,2.00350,4.19,53090,,,,,,,,,,,,,,,,,,99999,99999,99999,99999,99999,99999,99999,99999,99999,99999,99999,99999
1:24:40,1510414680,2017-11-11T15:38:05,0.810,67.6,20.57,16.81,23.02,828.690,2089.300,121.400002,21.53,2.4757,355,24017,2.00598,4.19,53096,,,,,,,,,,,,,,,,,,99999,99999,99999,99999,99999,99999,99999,99999,99999,99999,99999,99999
1:25:10,1510414710,2017-11-11T15:38:35,0.809,68.0,20.63,16.85,23.10,828.700,2089.530,122.250000,20.56,2.4755,355,24019,2.00319,4.19,53101,,,,,,,,,,,,,,,,,,99999,99999,99999,99999,99999,99999,99999,99999,99999,99999,99999,99999
1:25:40,1510414740,2017-11-11T15:39:05,0.807,68.5,20.68,16.91,23.14,828.640,2089.650,120.533333,21.17,2.4752,355,24021,1.99640,4.19,53106,,,,,,,,,,,,,,,,,,99999,99999,99999,99999,99999,99999,99999,99999,99999,99999,99999,99999
1:26:10,1510414770,2017-11-11T15:39:35,0.810,68.9,20.73,16.92,23.20,828.710,2089.880,120.166664,20.83,2.4751,355,24021,2.00505,4.19,53111,,,,,,,,,,,,,,,,,,99999,99999,99999,99999,99999,99999,99999,99999,99999,99999,99999,99999
1:26:40,1510414800,2017-11-11T15:40:05,0.811,69.3,20.78,16.97,23.25,828.750,2090.050,122.116669,20.04,2.4749,355,24025,2.00690,4.20,53116,,,,,,,,,,,,,,,,,,99999,99999,99999,99999,99999,99999,99999,99999,99999,99999,99999,99999
1:27:10,1510414830,2017-11-11T15:40:35,0.807,69.7,20.81,16.98,23.30,828.670,2090.120,120.433334,20.56,2.4747,355,24023,1.99640,4.19,53121,,,,,,,,,,,,,,,,,,99999,99999,99999,99999,99999,99999,99999,99999,99999,99999,99999,99999
1:27:40,1510414860,2017-11-11T15:41:05,0.809,70.1,20.85,17.02,23.32,828.790,2090.240,120.199997,22.22,2.4743,355,24025,2.00257,4.20,53126,,,,,,,,,,,,,,,,,,99999,99999,99999,99999,99999,99999,99999,99999,99999,99999,99999,99999
1:28:10,1510414890,2017-11-11T15:41:35,0.809,70.5,20.88,17.04,23.34,828.760,2090.400,121.983330,21.42,2.4743,355,24026,2.00164,4.20,53131,,,,,,,,,,,,,,,,,,99999,99999,99999,99999,99999,99999,99999,99999,99999,99999,99999,99999
1:28:40,1510414920,2017-11-11T15:42:05,0.810,70.9,20.90,17.08,23.36,828.750,2090.470,123.183334,19.42,2.4745,355,24025,2.00536,4.20,53136,,,,,,,,,,,,,,,,,,99999,99999,99999,99999,99999,99999,99999,99999,99999,99999,99999,99999
1:29:10,1510414950,2017-11-11T15:42:35,0.810,71.3,20.94,17.12,23.41,828.820,2090.570,120.166664,19.89,2.4742,355,24030,2.00319,4.20,53141,,,,,,,,,,,,,,,,,,99999,99999,99999,99999,99999,99999,99999,99999,99999,99999,99999,99999
1:29:40,1510414980,2017-11-11T15:43:05,0.809,71.7,20.98,17.15,23.44,828.760,2090.700,121.949997,20.21,2.4740,355,24028,2.00196,4.20,53146,,,,,,,,,,,,,,,,,,99999,99999,99999,99999,99999,99999,99999,99999,99999,99999,99999,99999
1:30:10,1510415010,2017-11-11T15:43:35,0.810,72.1,21.01,17.21,23.50,828.780,2090.870,121.466667,19.96,2.4740,355,24031,2.00412,4.20,53151,,,,,,,,,,,,,,,,,,99999,99999,99999,99999,99999,99999,99999,99999,99999,99999,99999,99999
1:30:40,1510415040,2017-11-11T15:44:05,0.811,72.5,21.02,17.25,23.52,828.780,2090.870,120.016670,19.47,2.4739,355,24031,2.00536,4.20,53156,,,,,,,,,,,,,,,,,,99999,99999,99999,99999,99999,99999,99999,99999,99999,99999,99999,99999
1:31:10,1510415070,2017-11-11T15:44:35,0.809,72.9,21.05,17.27,23.57,828.750,2090.990,120.099998,20.27,2.4737,355,24032,2.00041,4.20,53162,,,,,,,,,,,,,,,,,,99999,99999,99999,99999,99999,99999,99999,99999,99999,99999,99999,99999
1:31:40,1510415100,2017-11-11T15:45:05,0.810,73.3,21.06,17.33,23.56,828.740,2090.990,121.433334,19.39,2.4737,355,24037,2.00381,4.20,53167,,,,,,,,,,,,,,,,,,99999,99999,99999,99999,99999,99999,99999,99999,99999,99999,99999,99999
1:32:10,1510415130,2017-11-11T15:45:35,0.811,73.7,21.08,17.43,23.60,828.810,2091.050,121.616669,19.36,2.4736,355,24038,2.00721,4.20,53172,,,,,,,,,,,,,,,,,,99999,99999,99999,99999,99999,99999,99999,99999,99999,99999,99999,99999
1:32:40,1510415160,2017-11-11T15:46:05,0.811,74.1,21.10,17.54,23.62,828.860,2091.120,120.949997,20.01,2.4735,355,24041,2.00567,4.20,53177,,,,,,,,,,,,,,,,,,99999,99999,99999,99999,99999,99999,99999,99999,99999,99999,99999,99999
1:33:10,1510415190,2017-11-11T15:46:35,0.810,74.5,21.11,17.62,23.64,828.730,2091.160,120.583336,22.03,2.4732,355,24048,2.00288,4.20,53182,,,,,,,,,,,,,,,,,,99999,99999,99999,99999,99999,99999,99999,99999,99999,99999,99999,99999
1:33:40,1510415220,2017-11-11T15:47:05,0.814,74.9,21.12,17.72,23.64,828.700,2091.160,121.866669,21.22,2.4732,355,24049,2.01248,4.20,53187,,,,,,,,,,,,,,,,,,99999,99999,99999,99999,99999,99999,99999,99999,99999,99999,99999,99999
1:34:10,1510415250,2017-11-11T15:47:35,0.810,75.3,21.14,17.78,23.64,828.750,2091.350,123.000000,20.62,2.4733,355,24050,2.00443,4.20,53191,,,,,,,,,,,,,,,,,,99999,99999,99999,99999,99999,99999,99999,99999,99999,99999,99999,99999
1:34:40,1510415280,2017-11-11T15:48:05,0.811,75.7,21.16,17.88,23.68,828.720,2091.390,121.916664,20.94,2.4732,355,24055,2.00628,4.20,53196,,,,,,,,,,,,,,,,,,99999,99999,99999,99999,99999,99999,99999,99999,99999,99999,99999,99999
1:35:10,1510415310,2017-11-11T15:48:35,0.811,76.1,21.18,17.94,23.73,828.820,2091.450,120.949997,21.03,2.4731,355,24055,2.00536,4.20,53201,,,,,,,,,,,,,,,,,,99999,99999,99999,99999,99999,99999,99999,99999,99999,99999,99999,99999
1:35:40,1510415340,2017-11-11T15:49:05,0.814,76.6,21.21,18.01,23.76,828.760,2091.510,122.699997,21.07,2.4729,355,24057,2.01217,4.20,53206,,,,,,,,,,,,,,,,,,99999,99999,99999,99999,99999,99999,99999,99999,99999,99999,99999,99999
1:36:10,1510415370,2017-11-11T15:49:35,0.815,77.0,21.25,18.07,23.75,828.780,2091.640,122.516670,21.54,2.4726,355,24060,2.01434,4.20,53211,,,,,,,,,,,,,,,,,,99999,99999,99999,99999,99999,99999,99999,99999,99999,99999,99999,99999
1:36:40,1510415400,2017-11-11T15:50:05,0.814,77.4,21.28,18.13,23.78,828.750,2091.800,122.433334,19.93,2.4727,355,24063,2.01341,4.20,53216,,,,,,,,,,,,,,,,,,99999,99999,99999,99999,99999,99999,99999,99999,99999,99999,99999,99999
1:37:10,1510415430,2017-11-11T15:50:35,0.814,77.8,21.32,18.18,23.86,828.710,2091.930,122.883331,20.75,2.4725,355,24065,2.01155,4.20,53221,,,,,,,,,,,,,,,,,,99999,99999,99999,99999,99999,99999,99999,99999,99999,99999,99999,99999
1:37:40,1510415460,2017-11-11T15:51:05,0.815,78.2,21.38,18.25,23.90,828.800,2092.160,123.116669,19.86,2.4723,355,24065,2.01527,4.20,53225,,,,,,,,,,,,,,,,,,99999,99999,99999,99999,99999,99999,99999,99999,99999,99999,99999,99999
1:38:10,1510415490,2017-11-11T15:51:35,0.815,78.6,21.43,18.32,23.92,828.760,2092.330,122.916664,19.24,2.4722,355,24067,2.01558,4.20,53230,,,,,,,,,,,,,,,,,,99999,99999,99999,99999,99999,99999,99999,99999,99999,99999,99999,99999
1:38:40,1510415520,2017-11-11T15:52:05,0.813,79.0,21.47,18.35,23.98,828.700,2092.450,122.599998,19.55,2.4719,355,24069,2.01000,4.20,53235,,,,,,,,,,,,,,,,,,99999,99999,99999,99999,99999,99999,99999,99999,99999,99999,99999,99999
1:39:10,1510415550,2017-11-11T15:52:35,0.811,79.4,21.52,18.42,24.06,828.820,2092.620,121.866669,20.05,2.4717,355,24071,2.00567,4.20,53240,,,,,,,,,,,,,,,,,,99999,99999,99999,99999,99999,99999,99999,99999,99999,99999,99999,99999
1:39:40,1510415580,2017-11-11T15:53:05,0.814,79.8,21.57,18.47,24.08,828.760,2092.790,123.766670,19.84,2.4715,355,24072,2.01217,4.20,53244,,,,,,,,,,,,,,,,,,99999,99999,99999,99999,99999,99999,99999,99999,99999,99999,99999,99999
1:40:10,1510415610,2017-11-11T15:53:35,0.818,80.2,21.64,18.53,24.15,828.770,2093.080,122.300003,19.95,2.4712,355,24074,2.02023,4.20,53249,,,,,,,,,,,,,,,,,,99999,99999,99999,99999,99999,99999,99999,99999,99999,99999,99999,99999
1:40:40,1510415640,2017-11-11T15:54:05,0.812,80.6,21.70,18.58,24.22,828.840,2093.270,121.500000,19.13,2.4710,355,24077,2.00721,4.20,53254,,,,,,,,,,,,,,,,,,99999,99999,99999,99999,99999,99999,99999,99999,99999,99999,99999,99999
1:41:10,1510415670,2017-11-11T15:54:35,0.812,81.0,21.74,18.63,24.25,828.750,2093.370,122.300003,19.40,2.4707,355,24079,2.00659,4.20,53258,,,,,,,,,,,,,,,,,,99999,99999,99999,99999,99999,99999,99999,99999,99999,99999,99999,99999
1:41:40,1510415700,2017-11-11T15:55:05,0.817,81.4,21.81,18.72,24.31,828.860,2093.660,123.266670,19.07,2.4705,355,24081,2.01837,4.20,53263,,,,,,,,,,,,,,,,,,99999,99999,99999,99999,99999,99999,99999,99999,99999,99999,99999,99999
1:42:10,1510415730,2017-11-11T15:55:35,0.818,81.8,21.86,18.75,24.38,828.800,2093.790,122.650002,19.01,2.4703,355,24082,2.02085,4.20,53267,,,,,,,,,,,,,,,,,,99999,99999,99999,99999,99999,99999,99999,99999,99999,99999,99999,99999
1:42:40,1510415760,2017-11-11T15:56:05,0.817,82.2,21.91,18.82,24.48,828.840,2094.020,122.983330,18.86,2.4701,355,24082,2.01713,4.20,53272,,,,,,,,,,,,,,,,,,99999,99999,99999,99999,99999,99999,99999,99999,99999,99999,99999,99999
1:43:10,1510415790,2017-11-11T15:56:35,0.814,82.7,21.96,18.86,24.49,828.880,2094.140,122.250000,19.96,2.4697,355,24083,2.01093,4.20,53276,,,,,,,,,,,,,,,,,,99999,99999,99999,99999,99999,99999,99999,99999,99999,99999,99999,99999
1:43:40,1510415820,2017-11-11T15:57:05,0.817,83.1,22.01,18.90,24.56,828.790,2094.310,123.449997,19.47,2.4695,355,24085,2.01837,4.20,53281,,,,,,,,,,,,,,,,,,99999,99999,99999,99999,99999,99999,99999,99999,99999,99999,99999,99999
1:44:10,1510415850,2017-11-11T15:57:35,0.816,83.5,22.05,18.93,24.60,828.760,2094.500,123.816666,19.12,2.4695,355,24090,2.01620,4.20,53285,,,,,,,,,,,,,,,,,,99999,99999,99999,99999,99999,99999,99999,99999,99999,99999,99999,99999
1:44:40,1510415880,2017-11-11T15:58:05,0.818,83.9,22.08,19.00,24.64,828.720,2094.610,123.050003,19.77,2.4693,355,24088,2.01961,4.20,53290,,,,,,,,,,,,,,,,,,99999,99999,99999,99999,99999,99999,99999,99999,99999,99999,99999,99999
1:45:10,1510415910,2017-11-11T15:58:35,0.817,84.3,22.14,19.04,24.68,828.760,2094.790,124.233330,19.38,2.4690,355,24087,2.01775,4.20,53294,,,,,,,,,,,,,,,,,,99999,99999,99999,99999,99999,99999,99999,99999,99999,99999,99999,99999
1:45:40,1510415940,2017-11-11T15:59:05,0.819,84.7,22.17,19.07,24.72,828.890,2094.830,123.800003,19.64,2.4688,355,24093,2.02303,4.20,53299,,,,,,,,,,,,,,,,,,99999,99999,99999,99999,99999,99999,99999,99999,99999,99999,99999,99999
1:46:10,1510415970,2017-11-11T15:59:35,0.815,85.1,22.21,19.10,24.76,828.770,2095.020,123.266670,19.70,2.4687,355,24092,2.01124,4.20,53303,,,,,,,,,,,,,,,,,,99999,99999,99999,99999,99999,99999,99999,99999,99999,99999,99999,99999
1:46:40,1510416000,2017-11-11T16:00:05,0.819,85.5,22.25,19.13,24.83,828.730,2095.130,123.833336,18.96,2.4685,355,24094,2.02116,4.20,53308,,,,,,,,,,,,,,,,,,99999,99999,99999,99999,99999,99999,99999,99999,99999,99999,99999,99999
1:47:10,1510416030,2017-11-11T16:00:35,0.819,85.9,22.29,19.16,24.86,828.750,2095.310,124.233330,19.55,2.4683,355,24094,2.02085,4.20,53312,,,,,,,,,,,,,,,,,,99999,99999,99999,99999,99999,99999,99999,99999,99999,99999,99999,99999
1:47:40,1510416060,2017-11-11T16:01:05,0.818,86.3,22.34,19.20,24.88,828.770,2095.480,123.483330,19.20,2.4682,355,24096,2.01868,4.20,53316,,,,,,,,,,,,,,,,,,99999,99999,99999,99999,99999,99999,99999,99999,99999,99999,99999,99999
1:48:10,1510416090,2017-11-11T16:01:35,0.816,86.7,22.38,19.23,24.94,828.780,2095.610,125.783333,20.12,2.4679,355,24095,2.01465,4.20,53321,,,,,,,,,,,,,,,,,,99999,99999,99999,99999,99999,99999,99999,99999,99999,99999,99999,99999
1:48:40,1510416120,2017-11-11T16:02:05,0.819,87.2,22.43,19.25,24.99,828.720,2095.780,125.366669,19.17,2.4677,355,24097,2.02116,4.20,53325,,,,,,,,,,,,,,,,,,99999,99999,99999,99999,99999,99999,99999,99999,99999,99999,99999,99999
1:49:10,1510416150,2017-11-11T16:02:35,0.817,87.6,22.47,19.27,25.02,828.770,2095.960,123.816666,18.64,2.4677,355,24098,2.01589,4.20,53329,,,,,,,,,,,,,,,,,,99999,99999,99999,99999,99999,99999,99999,99999,99999,99999,99999,99999
1:49:40,1510416180,2017-11-11T16:03:05,0.819,88.0,22.50,19.29,25.06,828.790,2096.000,125.516670,18.62,2.4675,355,24101,2.02023,4.20,53334,,,,,,,,,,,,,,,,,,99999,99999,99999,99999,99999,99999,99999,99999,99999,99999,99999,99999
1:50:10,1510416210,2017-11-11T16:03:35,0.820,88.4,22.55,19.33,25.14,828.850,2096.190,124.633331,18.60,2.4673,355,24099,2.02365,4.20,53338,,,,,,,,,,,,,,,,,,99999,99999,99999,99999,99999,99999,99999,99999,99999,99999,99999,99999
1:50:40,1510416240,2017-11-11T16:04:05,0.818,88.8,22.60,19.33,25.12,828.790,2096.420,122.316666,18.12,2.4672,355,24099,2.01713,4.20,53342,,,,,,,,,,,,,,,,,,99999,99999,99999,99999,99999,99999,99999,99999,99999,99999,99999,99999
1:51:10,1510416270,2017-11-11T16:04:35,0.818,89.2,22.64,19.37,25.15,828.810,2096.550,122.500000,19.08,2.4669,355,24100,2.01775,4.20,53346,,,,,,,,,,,,,,,,,,99999,99999,99999,99999,99999,99999,99999,99999,99999,99999,99999,99999
1:51:40,1510416300,2017-11-11T16:05:05,0.822,89.6,22.70,19.38,25.20,828.820,2096.710,124.883331,20.17,2.4664,355,24102,2.02645,4.20,53350,,,,,,,,,,,,,,,,,,99999,99999,99999,99999,99999,99999,99999,99999,99999,99999,99999,99999
1:52:10,1510416330,2017-11-11T16:05:35,0.818,90.0,22.76,19.42,25.26,828.860,2096.950,123.800003,18.64,2.4664,355,24105,2.01744,4.20,53355,,,,,,,,,,,,,,,,,,99999,99999,99999,99999,99999,99999,99999,99999,99999,99999,99999,99999
1:52:40,1510416360,2017-11-11T16:06:05,0.821,90.4,22.81,19.48,25.31,828.820,2097.130,124.233330,17.11,2.4664,355,24107,2.02396,4.20,53359,,,,,,,,,,,,,,,,,,99999,99999,99999,99999,99999,99999,99999,99999,99999,99999,99999,99999
1:53:10,1510416390,2017-11-11T16:06:35,0.822,90.8,22.88,19.54,25.41,828.830,2097.360,122.916664,16.64,2.4661,355,24106,2.02800,4.20,53363,,,,,,,,,,,,,,,,,,99999,99999,99999,99999,99999,99999,99999,99999,99999,99999,99999,99999
1:53:40,1510416420,2017-11-11T16:07:05,0.819,91.2,22.96,19.58,25.47,828.920,2097.590,124.599998,16.62,2.4657,355,24106,2.01961,4.20,53367,,,,,,,,,,,,,,,,,,99999,99999,99999,99999,99999,99999,99999,99999,99999,99999,99999,99999
1:54:10,1510416450,2017-11-11T16:07:35,0.820,91.7,23.02,19.66,25.56,828.780,2097.880,125.216667,17.05,2.4655,355,24108,2.02147,4.20,53371,,,,,,,,,,,,,,,,,,99999,99999,99999,99999,99999,99999,99999,99999,99999,99999,99999,99999
1:54:40,1510416480,2017-11-11T16:08:05,0.820,92.1,23.10,19.74,25.58,828.810,2098.120,123.716667,17.60,2.4650,355,24109,2.02085,4.20,53375,,,,,,,,,,,,,,,,,,99999,99999,99999,99999,99999,99999,99999,99999,99999,99999,99999,99999
1:55:10,1510416510,2017-11-11T16:08:35,0.822,92.5,23.18,19.82,25.70,828.850,2098.400,124.533333,18.05,2.4646,355,24121,2.02521,4.20,53379,,,,,,,,,,,,,,,,,,99999,99999,99999,99999,99999,99999,99999,99999,99999,99999,99999,99999
1:55:40,1510416540,2017-11-11T16:09:05,0.821,92.9,23.25,19.87,25.75,828.830,2098.700,124.050003,17.98,2.4644,355,24130,2.02303,4.20,53383,,,,,,,,,,,,,,,,,,99999,99999,99999,99999,99999,99999,99999,99999,99999,99999,99999,99999
1:56:10,1510416570,2017-11-11T16:09:35,0.824,93.3,23.32,19.93,25.86,828.840,2098.890,124.483330,17.05,2.4641,355,24115,2.03080,4.20,53387,,,,,,,,,,,,,,,,,,99999,99999,99999,99999,99999,99999,99999,99999,99999,99999,99999,99999
1:56:40,1510416600,2017-11-11T16:10:05,0.824,93.7,23.40,20.01,25.94,828.930,2099.180,125.949997,18.21,2.4637,355,24116,2.02956,4.20,53391,,,,,,,,,,,,,,,,,,99999,99999,99999,99999,99999,99999,99999,99999,99999,99999,99999,99999
1:57:10,1510416630,2017-11-11T16:10:35,0.822,94.1,23.48,20.04,25.99,828.970,2099.410,124.783333,18.24,2.4632,355,24110,2.02583,4.20,53395,,,,,,,,,,,,,,,,,,99999,99999,99999,99999,99999,99999,99999,99999,99999,99999,99999,99999
1:57:40,1510416660,2017-11-11T16:11:05,0.825,94.5,23.52,20.12,26.07,828.850,2099.640,126.500000,17.66,2.4632,355,24117,2.03174,4.20,53399,,,,,,,,,,,,,,,,,,99999,99999,99999,99999,99999,99999,99999,99999,99999,99999,99999,99999
1:58:10,1510416690,2017-11-11T16:11:35,0.823,94.9,23.60,20.15,26.14,828.940,2099.890,126.216667,18.61,2.4627,355,24121,2.02614,4.20,53403,,,,,,,,,,,,,,,,,,99999,99999,99999,99999,99999,99999,99999,99999,99999,99999,99999,99999
1:58:40,1510416720,2017-11-11T16:12:05,0.823,95.4,23.64,20.20,26.19,828.850,2099.990,126.099998,18.29,2.4626,355,24124,2.02583,4.20,53407,,,,,,,,,,,,,,,,,,99999,99999,99999,99999,99999,99999,99999,99999,99999,99999,99999,99999
1:59:10,1510416750,2017-11-11T16:12:35,0.825,95.8,23.70,20.24,26.26,828.910,2100.240,126.849998,17.71,2.4624,355,24127,2.03205,4.20,53411,,,,,,,,,,,,,,,,,,99999,99999,99999,99999,99999,99999,99999,99999,99999,99999,99999,99999
1:59:40,1510416780,2017-11-11T16:13:05,0.822,96.2,23.74,20.29,26.31,828.850,2100.350,124.050003,17.71,2.4622,355,24125,2.02396,4.20,53415,,,,,,,,,,,,,,,,,,99999,99999,99999,99999,99999,99999,99999,99999,99999,99999,99999,99999
2:00:10,1510416810,2017-11-11T16:13:35,0.823,96.6,23.80,20.33,26.33,828.870,2100.580,126.933334,17.56,2.4620,355,24126,2.02521,4.20,53419,,,,,,,,,,,,,,,,,,99999,99999,99999,99999,99999,99999,99999,99999,99999,99999,99999,99999
2:00:40,1510416840,2017-11-11T16:14:05,0.825,97.0,23.84,20.35,26.39,828.880,2100.710,127.166664,19.50,2.4616,355,24127,2.03018,4.20,53422,,,,,,,,,,,,,,,,,,99999,99999,99999,99999,99999,99999,99999,99999,99999,99999,99999,99999
2:01:10,1510416870,2017-11-11T16:14:35,0.826,97.4,23.89,20.39,26.45,828.870,2100.890,126.699997,18.27,2.4615,355,24128,2.03267,4.20,53426,,,,,,,,,,,,,,,,,,99999,99999,99999,99999,99999,99999,99999,99999,99999,99999,99999,99999
2:01:40,1510416900,2017-11-11T16:15:05,0.824,97.8,23.94,20.42,26.49,828.840,2101.060,125.333336,18.72,2.4612,355,24131,2.02738,4.20,53430,,,,,,,,,,,,,,,,,,99999,99999,99999,99999,99999,99999,99999,99999,99999,99999,99999,99999
2:02:10,1510416930,2017-11-11T16:15:35,0.823,98.2,23.98,20.44,26.52,828.820,2101.180,125.800003,18.57,2.4611,355,24132,2.02489,4.20,53434,,,,,,,,,,,,,,,,,,99999,99999,99999,99999,99999,99999,99999,99999,99999,99999,99999,99999
2:02:40,1510416960,2017-11-11T16:16:05,0.826,98.7,24.03,20.46,26.58,828.870,2101.350,127.166664,18.39,2.4609,355,24131,2.03298,4.20,53438,,,,,,,,,,,,,,,,,,99999,99999,99999,99999,99999,99999,99999,99999,99999,99999,99999,99999
2:03:10,1510416990,2017-11-11T16:16:35,0.823,99.1,24.06,20.48,26.65,828.840,2101.540,125.283333,18.66,2.4608,355,24133,2.02521,4.20,53441,,,,,,,,,,,,,,,,,,99999,99999,99999,99999,99999,99999,99999,99999,99999,99999,99999,99999
2:03:40,1510417020,2017-11-11T16:17:05,0.826,99.5,24.11,20.49,26.67,828.850,2101.650,126.483330,17.69,2.4606,355,24132,2.03298,4.20,53445,,,,,,,,,,,,,,,,,,99999,99999,99999,99999,99999,99999,99999,99999,99999,99999,99999,99999
2:04:10,1510417050,2017-11-11T16:17:35,0.823,99.9,24.15,20.54,26.68,828.890,2101.770,125.683334,18.31,2.4604,355,24136,2.02521,4.20,53449,,,,,,,,,,,,,,,,,,99999,99999,99999,99999,99999,99999,99999,99999,99999,99999,99999,99999
2:04:40,1510417080,2017-11-11T16:18:05,0.827,100.3,24.21,20.58,26.72,828.940,2102.000,127.166664,18.75,2.4601,355,24135,2.03485,4.20,53453,,,,,,,,,,,,,,,,,,99999,99999,99999,99999,99999,99999,99999,99999,99999,99999,99999,99999
2:05:10,1510417110,2017-11-11T16:18:35,0.825,100.7,24.27,20.63,26.81,828.920,2102.190,127.533333,18.18,2.4599,355,24136,2.02956,4.20,53456,,,,,,,,,,,,,,,,,,99999,99999,99999,99999,99999,99999,99999,99999,99999,99999,99999,99999
2:05:40,1510417140,2017-11-11T16:19:05,0.825,101.1,24.31,20.68,26.83,828.860,2102.350,127.983330,17.00,2.4599,355,24138,2.02893,4.20,53460,,,,,,,,,,,,,,,,,,99999,99999,99999,99999,99999,99999,99999,99999,99999,99999,99999,99999
2:06:10,1510417170,2017-11-11T16:19:35,0.824,101.5,24.37,20.76,26.94,828.900,2102.580,126.750000,16.83,2.4596,355,24138,2.02738,4.20,53464,,,,,,,,,,,,,,,,,,99999,99999,99999,99999,99999,99999,99999,99999,99999,99999,99999,99999
2:06:40,1510417200,2017-11-11T16:20:05,0.828,102.0,24.43,20.81,26.99,828.990,2102.770,127.750000,16.77,2.4594,355,24142,2.03548,4.20,53467,,,,,,,,,,,,,,,,,,99999,99999,99999,99999,99999,99999,99999,99999,99999,99999,99999,99999
2:07:10,1510417230,2017-11-11T16:20:35,0.826,102.4,24.49,20.86,27.03,828.920,2103.000,125.533333,17.37,2.4591,355,24145,2.03174,4.20,53471,,,,,,,,,,,,,,,,,,99999,99999,99999,99999,99999,99999,99999,99999,99999,99999,99999,99999
2:07:40,1510417260,2017-11-11T16:21:05,0.829,102.8,24.53,20.93,27.11,828.840,2103.130,127.500000,17.52,2.4589,355,24145,2.03953,4.20,53474,,,,,,,,,,,,,,,,,,99999,99999,99999,99999,99999,99999,99999,99999,99999,99999,99999,99999
2:08:10,1510417290,2017-11-11T16:21:35,0.825,103.2,24.60,20.97,27.17,828.850,2103.420,126.766670,16.83,2.4587,355,24146,2.02956,4.20,53478,,,,,,,,,,,,,,,,,,99999,99999,99999,99999,99999,99999,99999,99999,99999,99999,99999,99999
2:08:40,1510417320,2017-11-11T16:22:05,0.827,103.6,24.64,21.01,27.25,828.910,2103.520,127.716667,16.77,2.4585,355,24148,2.03205,4.20,53481,,,,,,,,,,,,,,,,,,99999,99999,99999,99999,99999,99999,99999,99999,99999,99999,99999,99999
2:09:10,1510417350,2017-11-11T16:22:35,0.825,104.0,24.70,21.05,27.27,828.930,2103.710,126.833336,16.77,2.4582,355,24150,2.02738,4.20,53485,,,,,,,,,,,,,,,,,,99999,99999,99999,99999,99999,99999,99999,99999,99999,99999,99999,99999
2:09:40,1510417380,2017-11-11T16:23:05,0.828,104.4,24.72,21.06,27.34,828.870,2103.770,127.166664,17.60,2.4580,355,24151,2.03548,4.20,53489,,,,,,,,,,,,,,,,,,99999,99999,99999,99999,99999,99999,99999,99999,99999,99999,99999,99999
2:10:10,1510417410,2017-11-11T16:23:35,0.827,104.8,24.76,21.09,27.35,829.000,2103.940,128.250000,18.03,2.4578,355,24148,2.03361,4.20,53492,,,,,,,,,,,,,,,,,,99999,99999,99999,99999,99999,99999,99999,99999,99999,99999,99999,99999
2:10:40,1510417440,2017-11-11T16:24:05,0.827,105.3,24.78,21.12,27.35,828.880,2104.000,127.516670,16.95,2.4579,355,24154,2.03298,4.20,53496,,,,,,,,,,,,,,,,,,99999,99999,99999,99999,99999,99999,99999,99999,99999,99999,99999,99999
2:11:10,1510417470,2017-11-11T16:24:35,0.826,105.7,24.82,21.15,27.35,828.820,2104.130,126.699997,17.63,2.4576,355,24154,2.03049,4.20,53499,,,,,,,,,,,,,,,,,,99999,99999,99999,99999,99999,99999,99999,99999,99999,99999,99999,99999
2:11:40,1510417500,2017-11-11T16:25:05,0.829,106.1,24.84,21.17,27.44,828.790,2104.190,129.033340,16.58,2.4576,355,24153,2.03735,4.20,53502,,,,,,,,,,,,,,,,,,99999,99999,99999,99999,99999,99999,99999,99999,99999,99999,99999,99999
2:12:10,1510417530,2017-11-11T16:25:35,0.825,106.5,24.88,21.18,27.44,828.890,2104.360,127.449997,16.85,2.4574,355,24154,2.02831,4.20,53506,,,,,,,,,,,,,,,,,,99999,99999,99999,99999,99999,99999,99999,99999,99999,99999,99999,99999
2:12:40,1510417560,2017-11-11T16:26:05,0.826,106.9,24.90,21.24,27.50,828.860,2104.420,126.633331,16.48,2.4574,355,24157,2.02893,4.20,53509,,,,,,,,,,,,,,,,,,99999,99999,99999,99999,99999,99999,99999,99999,99999,99999,99999,99999
2:13:10,1510417590,2017-11-11T16:26:35,0.829,107.3,24.93,21.25,27.50,828.880,2104.550,129.016663,16.38,2.4573,355,24154,2.03703,4.20,53513,,,,,,,,,,,,,,,,,,99999,99999,99999,99999,99999,99999,99999,99999,99999,99999,99999,99999
2:13:40,1510417620,2017-11-11T16:27:05,0.828,107.7,24.96,21.25,27.55,828.930,2104.590,126.366669,16.56,2.4571,355,24156,2.03330,4.20,53516,,,,,,,,,,,,,,,,,,99999,99999,99999,99999,99999,99999,99999,99999,99999,99999,99999,99999
2:14:10,1510417650,2017-11-11T16:27:35,0.830,108.2,24.98,21.28,27.55,828.870,2104.650,128.716660,17.59,2.4568,355,24156,2.03828,4.20,53519,,,,,,,,,,,,,,,,,,99999,99999,99999,99999,99999,99999,99999,99999,99999,99999,99999,99999
2:14:40,1510417680,2017-11-11T16:28:05,0.830,108.6,25.00,21.29,27.60,828.860,2104.720,127.766670,16.10,2.4570,355,24158,2.03922,4.20,53523,,,,,,,,,,,,,,,,,,99999,99999,99999,99999,99999,99999,99999,99999,99999,99999,99999,99999
2:15:10,1510417710,2017-11-11T16:28:35,0.828,109.0,25.02,21.30,27.58,828.940,2104.840,129.050003,15.97,2.4570,355,24158,2.03392,4.20,53526,,,,,,,,,,,,,,,,,,99999,99999,99999,99999,99999,99999,99999,99999,99999,99999,99999,99999
2:15:40,1510417740,2017-11-11T16:29:05,0.826,109.4,25.04,21.30,27.60,828.910,2104.880,128.583328,17.76,2.4566,355,24157,2.02893,4.20,53529,,,,,,,,,,,,,,,,,,99999,99999,99999,99999,99999,99999,99999,99999,99999,99999,99999,99999
2:16:10,1510417770,2017-11-11T16:29:35,0.830,109.8,25.04,21.30,27.60,828.910,2104.880,128.433334,17.71,2.4566,355,24160,2.03984,4.20,53533,,,,,,,,,,,,,,,,,,99999,99999,99999,99999,99999,99999,99999,99999,99999,99999,99999,99999
2:16:40,1510417800,2017-11-11T16:30:05,0.826,110.2,25.02,21.30,27.60,828.880,2104.840,129.216660,16.58,2.4569,355,24158,2.02987,4.20,53536,,,,,,,,,,,,,,,,,,99999,99999,99999,99999,99999,99999,99999,99999,99999,99999,99999,99999
2:17:10,1510417830,2017-11-11T16:30:35,0.826,110.6,25.02,21.30,27.57,828.880,2104.840,127.516670,15.61,2.4570,355,24159,2.02987,4.20,53539,,,,,,,,,,,,,,,,,,99999,99999,99999,99999,99999,99999,99999,99999,99999,99999,99999,99999
2:17:40,1510417860,2017-11-11T16:30:35,0.827,111.1,25.01,21.30,27.61,828.970,2104.840,127.683334,15.29,2.4571,355,24155,2.03205,4.20,53543,,,,,,,,,,,,,,,,,,99999,99999,99999,99999,99999,99999,99999,99999,99999,99999,99999,99999
2:18:10,1510417890,2017-11-11T16:31:35,0.826,111.5,25.00,21.30,27.55,828.970,2104.720,126.516670,15.73,2.4570,355,24157,2.02925,4.20,53546,,,,,,,,,,,,,,,,,,99999,99999,99999,99999,99999,99999,99999,99999,99999,99999,99999,99999
2:18:40,1510417920,2017-11-11T16:32:05,0.829,111.9,24.98,21.33,27.55,828.920,2104.650,127.116669,15.76,2.4571,355,24159,2.03579,4.20,53549,,,,,,,,,,,,,,,,,,99999,99999,99999,99999,99999,99999,99999,99999,99999,99999,99999,99999
2:19:10,1510417950,2017-11-11T16:32:05,0.829,112.3,24.97,21.35,27.57,828.920,2104.650,127.366669,16.80,2.4570,355,24158,2.03579,4.20,53552,,,,,,,,,,,,,,,,,,99999,99999,99999,99999,99999,99999,99999,99999,99999,99999,99999,99999
2:19:40,1510417980,2017-11-11T16:33:04,0.827,112.7,24.96,21.35,27.52,828.930,2104.590,128.666672,17.32,2.4570,355,24160,2.03236,4.20,53555,,,,,,,,,,,,,,,,,,99999,99999,99999,99999,99999,99999,99999,99999,99999,99999,99999,99999
2:20:10,1510418010,2017-11-11T16:33:34,0.825,113.1,24.95,21.38,27.57,828.900,2104.590,127.516670,16.36,2.4572,355,24161,2.02831,4.20,53559,,,,,,,,,,,,,,,,,,99999,99999,99999,99999,99999,99999,99999,99999,99999,99999,99999,99999
2:20:40,1510418040,2017-11-11T16:34:04,0.826,113.5,24.96,21.40,27.55,828.950,2104.590,125.466667,15.36,2.4573,355,24160,2.02987,4.20,53562,,,,,,,,,,,,,,,,,,99999,99999,99999,99999,99999,99999,99999,99999,99999,99999,99999,99999
2:21:10,1510418070,2017-11-11T16:34:34,0.829,113.9,24.95,21.41,27.55,828.870,2104.590,128.016663,16.08,2.4572,355,24163,2.03703,4.20,53565,,,,,,,,,,,,,,,,,,99999,99999,99999,99999,99999,99999,99999,99999,99999,99999,99999,99999
2:21:40,1510418100,2017-11-11T16:35:04,0.826,114.4,24.96,21.44,27.53,828.900,2104.590,126.699997,16.15,2.4571,355,24160,2.02893,4.20,53568,,,,,,,,,,,,,,,,,,99999,99999,99999,99999,99999,99999,99999,99999,99999,99999,99999,99999
2:22:10,1510418130,2017-11-11T16:35:35,0.826,114.8,24.97,21.45,27.60,829.000,2104.650,127.550003,14.92,2.4573,355,24161,2.03049,4.20,53571,,,,,,,,,,,,,,,,,,99999,99999,99999,99999,99999,99999,99999,99999,99999,99999,99999,99999
2:22:40,1510418160,2017-11-11T16:36:04,0.827,115.2,24.98,21.48,27.55,828.870,2104.650,126.949997,16.42,2.4570,355,24162,2.03174,4.20,53574,,,,,,,,,,,,,,,,,,99999,99999,99999,99999,99999,99999,99999,99999,99999,99999,99999,99999
2:23:10,1510418190,2017-11-11T16:36:34,0.827,115.6,25.00,21.48,27.57,828.920,2104.720,127.583336,16.95,2.4568,355,24162,2.03267,4.20,53577,,,,,,,,,,,,,,,,,,99999,99999,99999,99999,99999,99999,99999,99999,99999,99999,99999,99999
2:23:40,1510418220,2017-11-11T16:37:04,0.829,116.0,25.01,21.54,27.61,828.970,2104.840,129.766663,16.06,2.4570,355,24165,2.03641,4.20,53580,,,,,,,,,,,,,,,,,,99999,99999,99999,99999,99999,99999,99999,99999,99999,99999,99999,99999
2:24:10,1510418250,2017-11-11T16:37:34,0.827,116.4,25.02,21.54,27.63,828.970,2104.840,126.733330,17.44,2.4568,355,24165,2.03174,4.20,53584,,,,,,,,,,,,,,,,,,99999,99999,99999,99999,99999,99999,99999,99999,99999,99999,99999,99999
2:24:40,1510418280,2017-11-11T16:38:04,0.826,116.8,25.04,21.56,27.61,829.010,2104.880,127.416664,16.40,2.4568,355,24166,2.02863,4.20,53587,,,,,,,,,,,,,,,,,,99999,99999,99999,99999,99999,99999,99999,99999,99999,99999,99999,99999
2:25:10,1510418310,2017-11-11T16:38:34,0.826,117.3,25.04,21.59,27.65,828.990,2104.880,126.300003,17.25,2.4567,355,24166,2.02925,4.20,53590,,,,,,,,,,,,,,,,,,99999,99999,99999,99999,99999,99999,99999,99999,99999,99999,99999,99999
2:25:40,1510418340,2017-11-11T16:39:04,0.825,117.7,25.05,21.64,27.65,828.960,2104.940,127.349998,16.97,2.4567,355,24166,2.02738,4.20,53593,,,,,,,,,,,,,,,,,,99999,99999,99999,99999,99999,99999,99999,99999,99999,99999,99999,99999
2:26:10,1510418370,2017-11-11T16:39:34,0.826,118.1,25.09,21.61,27.69,829.030,2105.070,126.599998,16.79,2.4565,355,24166,2.02925,4.20,53596,,,,,,,,,,,,,,,,,,99999,99999,99999,99999,99999,99999,99999,99999,99999,99999,99999,99999
2:26:40,1510418400,2017-11-11T16:40:04,0.826,118.5,25.08,21.64,27.69,829.010,2105.010,127.533333,16.85,2.4565,355,24167,2.02863,4.20,53599,,,,,,,,,,,,,,,,,,99999,99999,99999,99999,99999,99999,99999,99999,99999,99999,99999,99999
2:27:10,1510418430,2017-11-11T16:40:34,0.829,118.9,25.10,21.66,27.69,828.980,2105.070,128.616669,17.48,2.4563,355,24166,2.03735,4.20,53602,,,,,,,,,,,,,,,,,,99999,99999,99999,99999,99999,99999,99999,99999,99999,99999,99999,99999
2:27:40,1510418460,2017-11-11T16:41:04,0.826,119.3,25.12,21.69,27.75,828.970,2105.130,126.250000,16.53,2.4564,355,24169,2.03018,4.20,53605,,,,,,,,,,,,,,,,,,99999,99999,99999,99999,99999,99999,99999,99999,99999,99999,99999,99999
2:28:10,1510418490,2017-11-11T16:41:34,0.828,119.7,25.12,21.71,27.73,829.030,2105.130,126.750000,17.37,2.4563,355,24171,2.03423,4.20,53607,,,,,,,,,,,,,,,,,,99999,99999,99999,99999,99999,99999,99999,99999,99999,99999,99999,99999
2:28:40,1510418520,2017-11-11T16:42:04,0.830,120.2,25.13,21.74,27.76,829.050,2105.240,128.366669,16.59,2.4564,355,24173,2.03860,4.20,53610,,,,,,,,,,,,,,,,,,99999,99999,99999,99999,99999,99999,99999,99999,99999,99999,99999,99999
2:29:10,1510418550,2017-11-11T16:42:34,0.830,120.6,25.15,21.77,27.76,829.040,2105.300,128.000000,16.98,2.4563,355,24173,2.03766,4.20,53613,,,,,,,,,,,,,,,,,,99999,99999,99999,99999,99999,99999,99999,99999,99999,99999,99999,99999
2:29:40,1510418580,2017-11-11T16:43:04,0.830,121.0,25.18,21.79,27.83,829.030,2105.420,129.666672,18.90,2.4559,355,24173,2.03735,4.20,53616,,,,,,,,,,,,,,,,,,99999,99999,99999,99999,99999,99999,99999,99999,99999,99999,99999,99999
2:30:10,1510418610,2017-11-11T16:43:34,0.830,121.4,25.20,21.85,27.84,829.000,2105.490,130.016663,16.57,2.4561,355,24173,2.03891,4.20,53619,,,,,,,,,,,,,,,,,,99999,99999,99999,99999,99999,99999,99999,99999,99999,99999,99999,99999
2:30:40,1510418640,2017-11-11T16:44:04,0.826,121.8,25.24,21.86,27.85,829.020,2105.590,126.666664,15.94,2.4560,355,24174,2.02987,4.20,53622,,,,,,,,,,,,,,,,,,99999,99999,99999,99999,99999,99999,99999,99999,99999,99999,99999,99999
2:31:10,1510418670,2017-11-11T16:44:34,0.828,122.2,25.27,21.89,27.89,828.970,2105.720,128.449997,16.32,2.4558,355,24176,2.03361,4.20,53625,,,,,,,,,,,,,,,,,,99999,99999,99999,99999,99999,99999,99999,99999,99999,99999,99999,99999
2:31:40,1510418700,2017-11-11T16:45:04,0.830,122.6,25.31,21.90,27.94,829.030,2105.840,128.216660,16.34,2.4556,355,24178,2.03828,4.20,53628,,,,,,,,,,,,,,,,,,99999,99999,99999,99999,99999,99999,99999,99999,99999,99999,99999,99999
2:32:10,1510418730,2017-11-11T16:45:34,0.828,123.1,25.36,21.94,27.95,829.080,2106.010,128.550003,17.11,2.4553,355,24178,2.03330,4.20,53631,,,,,,,,,,,,,,,,,,99999,99999,99999,99999,99999,99999,99999,99999,99999,99999,99999,99999
2:32:40,1510418760,2017-11-11T16:46:04,0.831,123.5,25.39,21.99,28.00,829.020,2106.070,128.750000,16.12,2.4553,355,24179,2.04015,4.20,53633,,,,,,,,,,,,,,,,,,99999,99999,99999,99999,99999,99999,99999,99999,99999,99999,99999,99999
2:33:10,1510418790,2017-11-11T16:46:34,0.828,123.9,25.44,22.02,28.02,829.080,2106.310,127.266670,15.02,2.4553,355,24178,2.03267,4.20,53636,,,,,,,,,,,,,,,,,,99999,99999,99999,99999,99999,99999,99999,99999,99999,99999,99999,99999
2:33:40,1510418820,2017-11-11T16:47:04,0.828,124.3,25.47,22.04,28.10,829.020,2106.430,127.550003,16.13,2.4550,355,24178,2.03330,4.20,53639,,,,,,,,,,,,,,,,,,99999,99999,99999,99999,99999,99999,99999,99999,99999,99999,99999,99999
2:34:10,1510418850,2017-11-11T16:47:34,0.829,124.7,25.51,22.06,28.13,829.150,2106.560,128.683334,15.04,2.4550,355,24182,2.03423,4.20,53642,,,,,,,,,,,,,,,,,,99999,99999,99999,99999,99999,99999,99999,99999,99999,99999,99999,99999
2:34:40,1510418880,2017-11-11T16:48:04,0.832,125.1,25.56,22.13,28.15,829.060,2106.720,128.100006,15.39,2.4547,355,24183,2.04202,4.20,53644,,,,,,,,,,,,,,,,,,99999,99999,99999,99999,99999,99999,99999,99999,99999,99999,99999,99999
2:35:10,1510418910,2017-11-11T16:48:34,0.830,125.5,25.61,22.17,28.21,829.100,2106.910,127.150002,15.29,2.4545,355,24183,2.03766,4.20,53647,,,,,,,,,,,,,,,,,,99999,99999,99999,99999,99999,99999,99999,99999,99999,99999,99999,99999
2:35:40,1510418940,2017-11-11T16:49:04,0.832,126.0,25.68,22.22,28.26,829.060,2107.140,128.733337,14.72,2.4543,355,24183,2.04265,4.20,53650,,,,,,,,,,,,,,,,,,99999,99999,99999,99999,99999,99999,99999,99999,99999,99999,99999,99999
2:36:10,1510418970,2017-11-11T16:49:34,0.833,126.4,25.73,22.28,28.38,829.050,2107.310,128.633331,15.68,2.4539,355,24187,2.04359,4.20,53653,,,,,,,,,,,,,,,,,,99999,99999,99999,99999,99999,99999,99999,99999,99999,99999,99999,99999
2:36:40,1510419000,2017-11-11T16:50:04,0.832,126.8,25.79,22.34,28.41,829.140,2107.500,128.666672,15.73,2.4537,355,24188,2.04140,4.20,53655,,,,,,,,,,,,,,,,,,99999,99999,99999,99999,99999,99999,99999,99999,99999,99999,99999,99999
2:37:10,1510419030,2017-11-11T16:50:34,0.831,127.2,25.86,22.42,28.49,829.070,2107.790,127.699997,16.35,2.4533,355,24190,2.03828,4.20,53658,,,,,,,,,,,,,,,,,,99999,99999,99999,99999,99999,99999,99999,99999,99999,99999,99999,99999
2:37:40,1510419060,2017-11-11T16:51:04,0.833,127.6,25.95,22.49,28.53,829.130,2108.080,130.966660,15.46,2.4530,355,24195,2.04234,4.20,53661,,,,,,,,,,,,,,,,,,99999,99999,99999,99999,99999,99999,99999,99999,99999,99999,99999,99999
2:38:10,1510419090,2017-11-11T16:51:34,0.834,128.0,26.02,22.54,28.65,829.070,2108.330,129.949997,15.13,2.4528,355,24197,2.04515,4.20,53663,,,,,,,,,,,,,,,,,,99999,99999,99999,99999,99999,99999,99999,99999,99999,99999,99999,99999
2:38:40,1510419120,2017-11-11T16:52:04,0.830,128.5,26.10,22.62,28.68,829.050,2108.620,127.783333,15.01,2.4525,355,24198,2.03579,4.20,53666,,,,,,,,,,,,,,,,,,99999,99999,99999,99999,99999,99999,99999,99999,99999,99999,99999,99999
2:39:10,1510419150,2017-11-11T16:52:34,0.834,128.9,26.18,22.67,28.76,829.140,2108.850,131.333328,16.11,2.4519,355,24198,2.04608,4.20,53669,,,,,,,,,,,,,,,,,,99999,99999,99999,99999,99999,99999,99999,99999,99999,99999,99999,99999
2:39:40,1510419180,2017-11-11T16:53:04,0.830,129.3,26.26,22.73,28.84,829.060,2109.150,129.133331,14.51,2.4518,355,24201,2.03516,4.20,53671,,,,,,,,,,,,,,,,,,99999,99999,99999,99999,99999,99999,99999,99999,99999,99999,99999,99999
2:40:10,1510419210,2017-11-11T16:53:34,0.832,129.7,26.31,22.79,28.93,829.030,2109.330,128.683334,15.12,2.4515,355,24203,2.04047,4.20,53674,,,,,,,,,,,,,,,,,,99999,99999,99999,99999,99999,99999,99999,99999,99999,99999,99999,99999
2:40:40,1510419240,2017-11-11T16:54:04,0.833,130.1,26.38,22.83,29.00,829.090,2109.570,131.166672,15.67,2.4512,355,24202,2.04202,4.20,53676,,,,,,,,,,,,,,,,,,99999,99999,99999,99999,99999,99999,99999,99999,99999,99999,99999,99999
2:41:10,1510419270,2017-11-11T16:54:34,0.835,130.5,26.44,22.87,29.07,829.080,2109.820,131.116669,14.79,2.4511,355,24206,2.04546,4.20,53679,,,,,,,,,,,,,,,,,,99999,99999,99999,99999,99999,99999,99999,99999,99999,99999,99999,99999
2:41:40,1510419300,2017-11-11T16:55:04,0.835,131.0,26.49,22.90,29.11,829.040,2109.980,129.766663,14.38,2.4509,355,24206,2.04734,4.20,53682,,,,,,,,,,,,,,,,,,99999,99999,99999,99999,99999,99999,99999,99999,99999,99999,99999,99999
2:42:10,1510419330,2017-11-11T16:55:34,0.836,131.4,26.53,22.93,29.18,829.030,2110.110,130.433334,13.96,2.4508,355,24207,2.04827,4.20,53684,,,,,,,,,,,,,,,,,,99999,99999,99999,99999,99999,99999,99999,99999,99999,99999,99999,99999
2:42:40,1510419360,2017-11-11T16:56:04,0.835,131.8,26.57,22.95,29.23,829.040,2110.230,130.283340,13.93,2.4506,355,24209,2.04546,4.20,53687,,,,,,,,,,,,,,,,,,99999,99999,99999,99999,99999,99999,99999,99999,99999,99999,99999,99999
2:43:10,1510419390,2017-11-11T16:56:34,0.836,132.2,26.61,22.95,29.25,829.110,2110.340,129.750000,15.67,2.4501,355,24209,2.04765,4.20,53689,,,,,,,,,,,,,,,,,,99999,99999,99999,99999,99999,99999,99999,99999,99999,99999,99999,99999
2:43:40,1510419420,2017-11-11T16:57:04,0.833,132.6,26.64,22.96,29.21,829.060,2110.520,129.233337,13.60,2.4504,355,24209,2.04171,4.20,53692,,,,,,,,,,,,,,,,,,99999,99999,99999,99999,99999,99999,99999,99999,99999,99999,99999,99999
2:44:10,1510419450,2017-11-11T16:57:34,0.833,133.0,26.66,22.96,29.29,829.050,2110.570,128.866669,15.01,2.4501,355,24207,2.04047,4.20,53694,,,,,,,,,,,,,,,,,,99999,99999,99999,99999,99999,99999,99999,99999,99999,99999,99999,99999
2:44:40,1510419480,2017-11-11T16:58:04,0.834,133.5,26.68,22.99,29.33,829.020,2110.630,128.766663,13.53,2.4502,355,24209,2.04359,4.20,53697,,,,,,,,,,,,,,,,,,99999,99999,99999,99999,99999,99999,99999,99999,99999,99999,99999,99999
2:45:10,1510419510,2017-11-11T16:58:34,0.832,133.9,26.70,22.97,29.37,829.100,2110.690,129.183334,14.92,2.4499,355,24208,2.03922,4.20,53699,,,,,,,,,,,,,,,,,,99999,99999,99999,99999,99999,99999,99999,99999,99999,99999,99999,99999
2:45:40,1510419540,2017-11-11T16:59:04,0.832,134.3,26.74,23.00,29.37,829.070,2110.820,130.566666,13.95,2.4499,355,24207,2.03735,4.20,53702,,,,,,,,,,,,,,,,,,99999,99999,99999,99999,99999,99999,99999,99999,99999,99999,99999,99999
2:46:10,1510419570,2017-11-11T16:59:34,0.834,134.7,26.75,23.03,29.34,829.170,2110.940,128.966660,14.52,2.4499,355,24208,2.04421,4.20,53704,,,,,,,,,,,,,,,,,,99999,99999,99999,99999,99999,99999,99999,99999,99999,99999,99999,99999
2:46:40,1510419600,2017-11-11T17:00:04,0.835,135.1,26.78,23.04,29.41,829.110,2110.990,130.283340,14.50,2.4497,355,24210,2.04546,4.20,53707,,,,,,,,,,,,,,,,,,99999,99999,99999,99999,99999,99999,99999,99999,99999,99999,99999,99999
2:47:10,1510419630,2017-11-11T17:00:34,0.832,135.5,26.81,23.07,29.39,829.130,2111.110,128.866669,13.55,2.4497,355,24209,2.03797,4.20,53709,,,,,,,,,,,,,,,,,,99999,99999,99999,99999,99999,99999,99999,99999,99999,99999,99999,99999
2:47:40,1510419660,2017-11-11T17:01:04,0.835,136.0,26.83,23.09,29.45,829.100,2111.170,130.033340,13.13,2.4497,355,24214,2.04640,4.20,53711,,,,,,,,,,,,,,,,,,99999,99999,99999,99999,99999,99999,99999,99999,99999,99999,99999,99999
2:48:10,1510419690,2017-11-11T17:01:34,0.837,136.4,26.86,23.12,29.43,829.120,2111.240,131.166672,13.63,2.4494,355,24212,2.04921,4.20,53714,,,,,,,,,,,,,,,,,,99999,99999,99999,99999,99999,99999,99999,99999,99999,99999,99999,99999
2:48:40,1510419720,2017-11-11T17:02:04,0.835,136.8,26.87,23.15,29.49,829.120,2111.300,131.350006,12.80,2.4495,355,24211,2.04452,4.20,53716,,,,,,,,,,,,,,,,,,99999,99999,99999,99999,99999,99999,99999,99999,99999,99999,99999,99999
2:49:10,1510419750,2017-11-11T17:02:34,0.834,137.2,26.89,23.15,29.51,829.190,2111.400,131.266663,13.74,2.4493,355,24213,2.04202,4.20,53719,,,,,,,,,,,,,,,,,,99999,99999,99999,99999,99999,99999,99999,99999,99999,99999,99999,99999
2:49:40,1510419780,2017-11-11T17:03:04,0.833,137.6,26.90,23.16,29.53,829.180,2111.400,127.533333,13.18,2.4494,355,24215,2.04047,4.20,53721,,,,,,,,,,,,,,,,,,99999,99999,99999,99999,99999,99999,99999,99999,99999,99999,99999,99999
2:50:10,1510419810,2017-11-11T17:03:34,0.835,138.0,26.92,23.18,29.53,829.230,2111.460,128.716660,15.88,2.4488,355,24213,2.04421,4.20,53723,,,,,,,,,,,,,,,,,,99999,99999,99999,99999,99999,99999,99999,99999,99999,99999,99999,99999
2:50:40,1510419840,2017-11-11T17:04:04,0.836,138.5,26.94,23.20,29.53,829.150,2111.530,130.983337,15.72,2.4488,355,24213,2.04671,4.20,53726,,,,,,,,,,,,,,,,,,99999,99999,99999,99999,99999,99999,99999,99999,99999,99999,99999,99999
2:51:10,1510419870,2017-11-11T17:04:34,0.836,138.9,26.95,23.22,29.57,829.200,2111.590,128.699997,13.89,2.4490,355,24217,2.04734,4.20,53728,,,,,,,,,,,,,,,,,,99999,99999,99999,99999,99999,99999,99999,99999,99999,99999,99999,99999
2:51:40,1510419900,2017-11-11T17:05:04,0.835,139.3,26.97,23.25,29.58,829.170,2111.650,128.300003,15.25,2.4487,355,24217,2.04421,4.20,53730,,,,,,,,,,,,,,,,,,99999,99999,99999,99999,99999,99999,99999,99999,99999,99999,99999,99999
2:52:10,1510419930,2017-11-11T17:05:34,0.836,139.7,26.97,23.30,29.58,829.170,2111.650,129.933334,14.45,2.4489,355,24218,2.04734,4.20,53733,,,,,,,,,,,,,,,,,,99999,99999,99999,99999,99999,99999,99999,99999,99999,99999,99999,99999
2:52:40,1510419960,2017-11-11T17:06:04,0.837,140.1,26.97,23.30,29.59,829.230,2111.650,129.733337,14.86,2.4488,355,24221,2.05015,4.20,53735,,,,,,,,,,,,,,,,,,99999,99999,99999,99999,99999,99999,99999,99999,99999,99999,99999,99999
2:53:10,1510419990,2017-11-11T17:06:34,0.836,140.5,26.98,23.33,29.58,829.220,2111.650,131.449997,14.26,2.4488,355,24221,2.04827,4.20,53737,,,,,,,,,,,,,,,,,,99999,99999,99999,99999,99999,99999,99999,99999,99999,99999,99999,99999
2:53:40,1510420020,2017-11-11T17:07:04,0.834,141.0,26.97,23.34,29.63,829.170,2111.650,129.633331,14.01,2.4489,355,24222,2.04328,4.20,53740,,,,,,,,,,,,,,,,,,99999,99999,99999,99999,99999,99999,99999,99999,99999,99999,99999,99999
2:54:10,1510420050,2017-11-11T17:07:34,0.836,141.4,26.95,23.36,29.63,829.100,2111.590,131.083328,14.17,2.4490,355,24221,2.04827,4.20,53742,,,,,,,,,,,,,,,,,,99999,99999,99999,99999,99999,99999,99999,99999,99999,99999,99999,99999
2:54:40,1510420080,2017-11-11T17:08:04,0.833,141.8,26.95,23.37,29.57,829.120,2111.590,129.266663,14.73,2.4489,355,24220,2.04015,4.20,53744,,,,,,,,,,,,,,,,,,99999,99999,99999,99999,99999,99999,99999,99999,99999,99999,99999,99999
2:55:10,1510420110,2017-11-11T17:08:34,0.833,142.2,26.91,23.37,29.57,829.130,2111.460,129.649994,14.63,2.4491,355,24221,2.04078,4.20,53746,,,,,,,,,,,,,,,,,,99999,99999,99999,99999,99999,99999,99999,99999,99999,99999,99999,99999
2:55:40,1510420140,2017-11-11T17:09:04,0.833,142.6,26.90,23.38,29.51,829.050,2111.400,129.533340,14.49,2.4491,355,24223,2.04047,4.20,53749,,,,,,,,,,,,,,,,,,99999,99999,99999,99999,99999,99999,99999,99999,99999,99999,99999,99999
2:56:10,1510420170,2017-11-11T17:09:34,0.837,143.0,26.90,23.40,29.57,829.100,2111.400,131.449997,13.92,2.4492,355,24223,2.04921,4.20,53751,,,,,,,,,,,,,,,,,,99999,99999,99999,99999,99999,99999,99999,99999,99999,99999,99999,99999
2:56:40,1510420200,2017-11-11T17:10:04,0.835,143.5,26.90,23.41,29.51,829.080,2111.400,130.466660,13.42,2.4493,355,24225,2.04546,4.20,53753,,,,,,,,,,,,,,,,,,99999,99999,99999,99999,99999,99999,99999,99999,99999,99999,99999,99999
2:57:10,1510420230,2017-11-11T17:10:34,0.833,143.9,26.88,23.42,29.55,829.080,2111.300,129.216660,13.80,2.4493,355,24225,2.03984,4.20,53755,,,,,,,,,,,,,,,,,,99999,99999,99999,99999,99999,99999,99999,99999,99999,99999,99999,99999
2:57:40,1510420260,2017-11-11T17:11:04,0.837,144.3,26.89,23.42,29.51,829.140,2111.400,129.899994,13.95,2.4493,355,24223,2.04952,4.20,53757,,,,,,,,,,,,,,,,,,99999,99999,99999,99999,99999,99999,99999,99999,99999,99999,99999,99999
2:58:10,1510420290,2017-11-11T17:11:34,0.833,144.7,26.91,23.45,29.51,829.160,2111.460,129.550003,14.76,2.4491,355,24224,2.03953,4.20,53760,,,,,,,,,,,,,,,,,,99999,99999,99999,99999,99999,99999,99999,99999,99999,99999,99999,99999
2:58:40,1510420320,2017-11-11T17:12:04,0.835,145.1,26.92,23.49,29.59,829.130,2111.460,130.766663,13.93,2.4491,355,24224,2.04546,4.20,53762,,,,,,,,,,,,,,,,,,99999,99999,99999,99999,99999,99999,99999,99999,99999,99999,99999,99999
2:59:10,1510420350,2017-11-11T17:12:34,0.833,145.6,26.96,23.52,29.57,829.120,2111.590,129.166672,13.65,2.4490,355,24221,2.03922,4.13,53762,,,,,,,,,,,,,,,,,,99999,99999,99999,99999,99999,99999,99999,99999,99999,99999,99999,99999
2:59:40,1510420380,2017-11-11T17:13:04,0.833,146.0,26.96,23.40,29.58,829.090,2111.590,128.366669,14.69,2.4488,355,24214,2.04078,4.13,53757,,,,,,,,,,,,,,,,,,99999,99999,99999,99999,99999,99999,99999,99999,99999,99999,99999,99999
3:00:10,1510420410,2017-11-11T17:13:34,0.837,146.4,26.98,23.25,29.59,829.200,2111.650,130.899994,15.25,2.4487,355,24211,2.04859,4.13,53752,,,,,,,,,,,,,,,,,,99999,99999,99999,99999,99999,99999,99999,99999,99999,99999,99999,99999
3:00:40,1510420440,2017-11-11T17:14:04,0.836,146.8,26.98,23.14,29.58,829.220,2111.650,130.333328,15.05,2.4487,355,24206,2.04734,4.13,53747,,,,,,,,,,,,,,,,,,99999,99999,99999,99999,99999,99999,99999,99999,99999,99999,99999,99999
3:01:10,1510420470,2017-11-11T17:14:34,0.833,147.2,27.00,23.03,29.59,829.220,2111.710,127.900002,13.79,2.4488,355,24200,2.04015,4.13,53742,,,,,,,,,,,,,,,,,,99999,99999,99999,99999,99999,99999,99999,99999,99999,99999,99999,99999
3:01:40,1510420500,2017-11-11T17:15:04,0.836,147.6,27.01,22.97,29.65,829.140,2111.760,129.816666,14.34,2.4487,355,24199,2.04734,4.13,53736,,,,,,,,,,,,,,,,,,99999,99999,99999,99999,99999,99999,99999,99999,99999,99999,99999,99999
3:02:10,1510420530,2017-11-11T17:15:34,0.832,148.1,27.04,22.93,29.59,829.240,2111.880,129.716660,14.65,2.4485,355,24195,2.03735,4.13,53731,,,,,,,,,,,,,,,,,,99999,99999,99999,99999,99999,99999,99999,99999,99999,99999,99999,99999
3:02:40,1510420560,2017-11-11T17:16:04,0.835,148.5,27.06,22.91,29.65,829.230,2111.950,129.716660,14.77,2.4484,355,24195,2.04359,4.13,53726,,,,,,,,,,,,,,,,,,99999,99999,99999,99999,99999,99999,99999,99999,99999,99999,99999,99999
3:03:10,1510420590,2017-11-11T17:16:34,0.831,148.9,27.09,22.89,29.66,829.170,2112.070,129.199997,14.50,2.4484,355,24194,2.03579,4.13,53721,,,,,,,,,,,,,,,,,,99999,99999,99999,99999,99999,99999,99999,99999,99999,99999,99999,99999
3:03:40,1510420620,2017-11-11T17:17:04,0.833,149.3,27.12,22.89,29.71,829.220,2112.180,129.866669,13.73,2.4484,355,24198,2.04015,4.13,53716,,,,,,,,,,,,,,,,,,99999,99999,99999,99999,99999,99999,99999,99999,99999,99999,99999,99999
3:04:10,1510420650,2017-11-11T17:17:34,0.832,149.7,27.14,22.88,29.73,829.160,2112.240,128.966660,13.77,2.4482,355,24195,2.03797,4.13,53710,,,,,,,,,,,,,,,,,,99999,99999,99999,99999,99999,99999,99999,99999,99999,99999,99999,99999
3:04:40,1510420680,2017-11-11T17:18:04,0.832,150.1,27.16,22.87,29.79,829.210,2112.360,129.699997,13.97,2.4482,355,24196,2.03735,4.13,53705,,,,,,,,,,,,,,,,,,99999,99999,99999,99999,99999,99999,99999,99999,99999,99999,99999,99999
3:05:10,1510420710,2017-11-11T17:18:34,0.836,150.6,27.19,22.85,29.81,829.150,2112.430,130.816666,14.52,2.4479,355,24194,2.04671,4.13,53700,,,,,,,,,,,,,,,,,,99999,99999,99999,99999,99999,99999,99999,99999,99999,99999,99999,99999
3:05:40,1510420740,2017-11-11T17:19:04,0.834,151.0,27.21,22.84,29.87,829.170,2112.490,128.350006,13.95,2.4479,355,24193,2.04265,4.13,53695,,,,,,,,,,,,,,,,,,99999,99999,99999,99999,99999,99999,99999,99999,99999,99999,99999,99999
3:06:10,1510420770,2017-11-11T17:19:34,0.833,151.4,27.23,22.84,29.85,829.220,2112.530,129.966660,15.05,2.4476,355,24193,2.03891,4.13,53690,,,,,,,,,,,,,,,,,,99999,99999,99999,99999,99999,99999,99999,99999,99999,99999,99999,99999
3:06:40,1510420800,2017-11-11T17:20:04,0.833,151.8,27.24,22.83,29.89,829.140,2112.590,129.633331,14.06,2.4478,355,24193,2.03953,4.13,53685,,,,,,,,,,,,,,,,,,99999,99999,99999,99999,99999,99999,99999,99999,99999,99999,99999,99999
3:07:10,1510420830,2017-11-11T17:20:34,0.833,152.2,27.27,22.83,29.92,829.050,2112.660,128.633331,15.22,2.4474,355,24192,2.03953,4.13,53679,,,,,,,,,,,,,,,,,,99999,99999,99999,99999,99999,99999,99999,99999,99999,99999,99999,99999
3:07:40,1510420860,2017-11-11T17:21:04,0.832,152.6,27.27,22.82,29.91,829.080,2112.660,129.066666,13.75,2.4477,355,24193,2.03766,4.13,53674,,,,,,,,,,,,,,,,,,99999,99999,99999,99999,99999,99999,99999,99999,99999,99999,99999,99999
3:08:10,1510420890,2017-11-11T17:21:34,0.834,153.1,27.29,22.81,29.95,829.150,2112.720,128.683334,14.18,2.4475,355,24190,2.04047,4.13,53669,,,,,,,,,,,,,,,,,,99999,99999,99999,99999,99999,99999,99999,99999,99999,99999,99999,99999
3:08:40,1510420920,2017-11-11T17:22:04,0.831,153.5,27.28,22.77,29.93,829.130,2112.720,130.083328,13.56,2.4477,355,24190,2.03423,4.13,53664,,,,,,,,,,,,,,,,,,99999,99999,99999,99999,99999,99999,99999,99999,99999,99999,99999,99999
3:09:10,1510420950,2017-11-11T17:22:34,0.836,153.9,27.25,22.75,29.93,829.160,2112.590,129.666672,13.71,2.4478,355,24192,2.04577,4.13,53659,,,,,,,,,,,,,,,,,,99999,99999,99999,99999,99999,99999,99999,99999,99999,99999,99999,99999
3:09:40,1510420980,2017-11-11T17:23:04,0.835,154.3,27.23,22.74,29.92,829.060,2112.530,130.466660,15.21,2.4476,355,24190,2.04421,4.13,53653,,,,,,,,,,,,,,,,,,99999,99999,99999,99999,99999,99999,99999,99999,99999,99999,99999,99999
3:10:10,1510421010,2017-11-11T17:23:34,0.835,154.7,27.21,22.71,29.91,829.090,2112.490,130.250000,14.07,2.4479,355,24190,2.04390,4.13,53648,,,,,,,,,,,,,,,,,,99999,99999,99999,99999,99999,99999,99999,99999,99999,99999,99999,99999
3:10:40,1510421040,2017-11-11T17:24:04,0.835,155.1,27.21,22.70,29.91,829.090,2112.490,129.566666,13.29,2.4480,355,24192,2.04421,4.12,53643,,,,,,,,,,,,,,,,,,99999,99999,99999,99999,99999,99999,99999,99999,99999,99999,99999,99999
3:11:10,1510421070,2017-11-11T17:24:34,0.832,155.6,27.19,22.70,29.87,829.070,2112.430,129.600006,12.98,2.4482,355,24190,2.03641,4.12,53638,,,,,,,,,,,,,,,,,,99999,99999,99999,99999,99999,99999,99999,99999,99999,99999,99999,99999
3:11:40,1510421100,2017-11-11T17:25:04,0.832,156.0,27.18,22.72,29.87,829.020,2112.430,129.066666,14.15,2.4481,355,24188,2.03579,4.12,53633,,,,,,,,,,,,,,,,,,99999,99999,99999,99999,99999,99999,99999,99999,99999,99999,99999,99999
3:12:10,1510421130,2017-11-11T17:25:34,0.832,156.4,27.18,22.70,29.84,829.100,2112.430,131.233337,13.51,2.4482,355,24190,2.03735,4.12,53627,,,,,,,,,,,,,,,,,,99999,99999,99999,99999,99999,99999,99999,99999,99999,99999,99999,99999
3:12:40,1510421160,2017-11-11T17:26:04,0.832,156.8,27.20,22.69,29.84,829.040,2112.470,129.300003,15.43,2.4478,355,24190,2.03766,4.12,53622,,,,,,,,,,,,,,,,,,99999,99999,99999,99999,99999,99999,99999,99999,99999,99999,99999,99999
3:13:10,1510421190,2017-11-11T17:26:34,0.832,157.2,27.20,22.71,29.91,829.100,2112.470,129.250000,13.40,2.4481,355,24191,2.03797,4.12,53617,,,,,,,,,,,,,,,,,,99999,99999,99999,99999,99999,99999,99999,99999,99999,99999,99999,99999
3:13:40,1510421220,2017-11-11T17:27:04,0.832,157.6,27.22,22.72,29.92,829.120,2112.530,128.766663,13.81,2.4479,355,24190,2.03579,4.12,53612,,,,,,,,,,,,,,,,,,99999,99999,99999,99999,99999,99999,99999,99999,99999,99999,99999,99999
3:14:10,1510421250,2017-11-11T17:27:34,0.835,158.1,27.26,22.76,29.93,829.220,2112.660,130.416672,14.11,2.4477,355,24190,2.04296,4.12,53607,,,,,,,,,,,,,,,,,,99999,99999,99999,99999,99999,99999,99999,99999,99999,99999,99999,99999
3:14:40,1510421280,2017-11-11T17:28:04,0.835,158.5,27.30,22.81,29.97,829.130,2112.850,129.949997,13.55,2.4477,355,24191,2.04421,4.12,53602,,,,,,,,,,,,,,,,,,99999,99999,99999,99999,99999,99999,99999,99999,99999,99999,99999,99999
3:15:10,1510421310,2017-11-11T17:28:34,0.836,158.9,27.36,22.85,29.99,829.110,2113.010,130.649994,14.47,2.4472,355,24194,2.04577,4.12,53596,,,,,,,,,,,,,,,,,,99999,99999,99999,99999,99999,99999,99999,99999,99999,99999,99999,99999
3:15:40,1510421340,2017-11-11T17:29:04,0.837,159.3,27.41,22.92,30.07,829.100,2113.140,132.199997,13.86,2.4470,355,24195,2.04702,4.12,53591,,,,,,,,,,,,,,,,,,99999,99999,99999,99999,99999,99999,99999,99999,99999,99999,99999,99999
3:16:10,1510421370,2017-11-11T17:29:34,0.833,159.7,27.49,22.98,30.13,829.140,2113.490,129.616669,13.72,2.4468,355,24195,2.03828,4.12,53586,,,,,,,,,,,,,,,,,,99999,99999,99999,99999,99999,99999,99999,99999,99999,99999,99999,99999
3:16:40,1510421400,2017-11-11T17:30:04,0.835,160.2,27.57,23.02,30.21,829.090,2113.780,129.916672,13.25,2.4466,355,24199,2.04171,4.12,53581,,,,,,,,,,,,,,,,,,99999,99999,99999,99999,99999,99999,99999,99999,99999,99999,99999,99999
3:17:10,1510421430,2017-11-11T17:30:34,0.838,160.6,27.66,23.10,30.27,829.100,2114.040,131.766663,15.10,2.4458,355,24201,2.04859,4.12,53576,,,,,,,,,,,,,,,,,,99999,99999,99999,99999,99999,99999,99999,99999,99999,99999,99999,99999
3:17:40,1510421460,2017-11-11T17:31:04,0.836,161.0,27.75,23.19,30.35,829.000,2114.390,131.666672,14.25,2.4456,355,24205,2.04421,4.12,53570,,,,,,,,,,,,,,,,,,99999,99999,99999,99999,99999,99999,99999,99999,99999,99999,99999,99999
3:18:10,1510421490,2017-11-11T17:31:34,0.835,161.4,27.85,23.26,30.49,829.130,2114.750,131.116669,13.52,2.4453,355,24205,2.04202,4.12,53565,,,,,,,,,,,,,,,,,,99999,99999,99999,99999,99999,99999,99999,99999,99999,99999,99999,99999
3:18:40,1510421520,2017-11-11T17:32:04,0.836,161.8,27.94,23.32,30.50,829.070,2115.040,130.000000,13.30,2.4450,355,24205,2.04359,4.12,53560,,,,,,,,,,,,,,,,,,99999,99999,99999,99999,99999,99999,99999,99999,99999,99999,99999,99999
3:19:10,1510421550,2017-11-11T17:32:34,0.839,162.2,28.04,23.37,30.66,829.070,2115.390,131.050003,13.46,2.4445,355,24208,2.05140,4.12,53555,,,,,,,,,,,,,,,,,,99999,99999,99999,99999,99999,99999,99999,99999,99999,99999,99999,99999
3:19:40,1510421580,2017-11-11T17:33:04,0.840,162.7,28.14,23.41,30.75,829.020,2115.750,131.216660,13.54,2.4441,355,24209,2.05234,4.12,53549,,,,,,,,,,,,,,,,,,99999,99999,99999,99999,99999,99999,99999,99999,99999,99999,99999,99999
3:20:10,1510421610,2017-11-11T17:33:34,0.839,163.1,28.23,23.48,30.85,829.030,2116.060,132.716660,12.99,2.4438,355,24210,2.05015,4.12,53544,,,,,,,,,,,,,,,,,,99999,99999,99999,99999,99999,99999,99999,99999,99999,99999,99999,99999
3:20:40,1510421640,2017-11-11T17:34:04,0.837,163.5,28.33,23.55,30.93,829.060,2116.420,131.033340,14.22,2.4432,355,24215,2.04484,4.12,53539,,,,,,,,,,,,,,,,,,99999,99999,99999,99999,99999,99999,99999,99999,99999,99999,99999,99999
3:21:10,1510421670,2017-11-11T17:34:34,0.838,163.9,28.43,23.61,31.08,829.030,2116.770,131.649994,12.78,2.4430,355,24214,2.04640,4.12,53534,,,,,,,,,,,,,,,,,,99999,99999,99999,99999,99999,99999,99999,99999,99999,99999,99999,99999
3:21:40,1510421700,2017-11-11T17:35:04,0.838,164.3,28.53,23.68,31.15,829.030,2117.130,131.183334,12.76,2.4426,355,24213,2.04608,4.12,53528,,,,,,,,,,,,,,,,,,99999,99999,99999,99999,99999,99999,99999,99999,99999,99999,99999,99999
3:22:10,1510421730,2017-11-11T17:35:34,0.837,164.8,28.64,23.76,31.23,828.990,2117.480,131.816666,12.58,2.4421,355,24219,2.04421,4.12,53523,,,,,,,,,,,,,,,,,,99999,99999,99999,99999,99999,99999,99999,99999,99999,99999,99999,99999
3:22:40,1510421760,2017-11-11T17:36:04,0.839,165.2,28.74,23.84,31.32,828.970,2117.840,132.683334,12.79,2.4417,355,24222,2.04890,4.12,53518,,,,,,,,,,,,,,,,,,99999,99999,99999,99999,99999,99999,99999,99999,99999,99999,99999,99999
3:23:10,1510421790,2017-11-11T17:36:34,0.842,165.6,28.84,23.90,31.40,828.960,2118.210,132.449997,11.94,2.4414,355,24224,2.05453,4.12,53513,,,,,,,,,,,,,,,,,,99999,99999,99999,99999,99999,99999,99999,99999,99999,99999,99999,99999
3:23:40,1510421820,2017-11-11T17:37:04,0.840,166.0,28.93,23.96,31.51,828.870,2118.510,132.649994,11.84,2.4411,355,24225,2.05171,4.12,53507,,,,,,,,,,,,,,,,,,99999,99999,99999,99999,99999,99999,99999,99999,99999,99999,99999,99999
3:24:10,1510421850,2017-11-11T17:37:34,0.839,166.4,29.03,24.03,31.59,828.870,2118.800,133.183334,11.98,2.4406,355,24224,2.04702,4.12,53502,,,,,,,,,,,,,,,,,,99999,99999,99999,99999,99999,99999,99999,99999,99999,99999,99999,99999
3:24:40,1510421880,2017-11-11T17:38:04,0.841,166.9,29.12,24.11,31.71,828.910,2119.150,133.333328,12.21,2.4402,355,24230,2.05265,4.12,53497,,,,,,,,,,,,,,,,,,99999,99999,99999,99999,99999,99999,99999,99999,99999,99999,99999,99999
3:25:10,1510421910,2017-11-11T17:38:34,0.843,167.3,29.20,24.19,31.75,828.860,2119.470,133.500000,11.73,2.4400,355,24234,2.05578,4.12,53492,,,,,,,,,,,,,,,,,,99999,99999,99999,99999,99999,99999,99999,99999,99999,99999,99999,99999
3:25:40,1510421940,2017-11-11T17:39:04,0.843,167.7,29.30,24.25,31.83,828.890,2119.770,133.766663,11.90,2.4395,355,24236,2.05609,4.12,53486,,,,,,,,,,,,,,,,,,99999,99999,99999,99999,99999,99999,99999,99999,99999,99999,99999,99999
3:26:10,1510421970,2017-11-11T17:39:34,0.842,168.1,29.39,24.33,31.90,828.930,2120.120,135.166672,13.44,2.4389,355,24239,2.05296,4.12,53481,,,,,,,,,,,,,,,,,,99999,99999,99999,99999,99999,99999,99999,99999,99999,99999,99999,99999
3:26:40,1510422000,2017-11-11T17:40:04,0.842,168.5,29.46,24.41,32.00,828.940,2120.310,131.483337,12.08,2.4388,355,24239,2.05296,4.12,53476,,,,,,,,,,,,,,,,,,99999,99999,99999,99999,99999,99999,99999,99999,99999,99999,99999,99999
3:27:10,1510422030,2017-11-11T17:40:34,0.842,169.0,29.53,24.48,32.06,828.840,2120.600,135.333328,13.51,2.4383,355,24242,2.05328,4.12,53470,,,,,,,,,,,,,,,,,,99999,99999,99999,99999,99999,99999,99999,99999,99999,99999,99999,99999
3:27:40,1510422060,2017-11-11T17:41:04,0.842,169.4,29.61,24.54,32.10,828.960,2120.910,132.783340,11.91,2.4383,355,24244,2.05390,4.11,53465,,,,,,,,,,,,,,,,,,99999,99999,99999,99999,99999,99999,99999,99999,99999,99999,99999,99999
3:28:10,1510422090,2017-11-11T17:41:34,0.843,169.8,29.65,24.60,32.16,828.900,2121.020,132.966660,13.17,2.4378,355,24248,2.05453,4.11,53460,,,,,,,,,,,,,,,,,,99999,99999,99999,99999,99999,99999,99999,99999,99999,99999,99999,99999
3:28:40,1510422120,2017-11-11T17:42:04,0.844,170.2,29.70,24.64,32.21,829.050,2121.210,133.816666,12.17,2.4378,355,24247,2.05641,4.11,53455,,,,,,,,,,,,,,,,,,99999,99999,99999,99999,99999,99999,99999,99999,99999,99999,99999,99999
3:29:10,1510422150,2017-11-11T17:42:34,0.846,170.7,29.73,24.71,32.26,828.990,2121.270,133.183334,12.62,2.4376,355,24250,2.06205,4.11,53449,,,,,,,,,,,,,,,,,,99999,99999,99999,99999,99999,99999,99999,99999,99999,99999,99999,99999
3:29:40,1510422180,2017-11-11T17:43:04,0.842,171.1,29.77,24.75,32.33,828.920,2121.440,133.583328,12.30,2.4375,355,24252,2.05265,4.11,53444,,,,,,,,,,,,,,,,,,99999,99999,99999,99999,99999,99999,99999,99999,99999,99999,99999,99999
3:30:10,1510422210,2017-11-11T17:43:34,0.844,171.5,29.78,24.79,32.31,828.890,2121.500,132.833328,11.72,2.4376,355,24253,2.05798,4.11,53439,,,,,,,,,,,,,,,,,,99999,99999,99999,99999,99999,99999,99999,99999,99999,99999,99999,99999
3:30:40,1510422240,2017-11-11T17:44:04,0.844,171.9,29.82,24.85,32.33,828.990,2121.620,131.983337,11.98,2.4373,355,24254,2.05703,4.11,53433,,,,,,,,,,,,,,,,,,99999,99999,99999,99999,99999,99999,99999,99999,99999,99999,99999,99999
3:31:10,1510422270,2017-11-11T17:44:34,0.842,172.3,29.85,24.91,32.37,828.990,2121.690,134.183334,12.90,2.4370,355,24254,2.05077,4.11,53428,,,,,,,,,,,,,,,,,,99999,99999,99999,99999,99999,99999,99999,99999,99999,99999,99999,99999
3:31:40,1510422300,2017-11-11T17:45:04,0.844,172.8,29.89,24.97,32.38,828.980,2121.860,132.949997,12.33,2.4370,355,24257,2.05798,4.11,53423,,,,,,,,,,,,,,,,,,99999,99999,99999,99999,99999,99999,99999,99999,99999,99999,99999,99999
3:32:10,1510422330,2017-11-11T17:45:34,0.844,173.2,29.94,25.04,32.44,828.970,2122.040,134.566666,12.63,2.4367,355,24259,2.05547,4.11,53417,,,,,,,,,,,,,,,,,,99999,99999,99999,99999,99999,99999,99999,99999,99999,99999,99999,99999
3:32:40,1510422360,2017-11-11T17:46:04,0.844,173.6,29.97,25.08,32.51,829.010,2122.110,134.750000,12.71,2.4365,355,24260,2.05735,4.11,53412,,,,,,,,,,,,,,,,,,99999,99999,99999,99999,99999,99999,99999,99999,99999,99999,99999,99999
3:33:10,1510422390,2017-11-11T17:46:34,0.845,174.0,30.00,25.10,32.53,828.980,2122.230,135.600006,10.70,2.4368,355,24261,2.05923,4.11,53407,,,,,,,,,,,,,,,,,,99999,99999,99999,99999,99999,99999,99999,99999,99999,99999,99999,99999
3:33:40,1510422420,2017-11-11T17:47:04,0.844,174.4,30.02,25.10,32.54,829.030,2122.330,133.166672,11.65,2.4366,355,24262,2.05641,4.11,53401,,,,,,,,,,,,,,,,,,99999,99999,99999,99999,99999,99999,99999,99999,99999,99999,99999,99999
3:34:10,1510422450,2017-11-11T17:47:34,0.844,174.9,30.02,25.11,32.54,828.970,2122.330,132.949997,11.88,2.4365,355,24261,2.05547,4.11,53396,,,,,,,,,,,,,,,,,,99999,99999,99999,99999,99999,99999,99999,99999,99999,99999,99999,99999
3:34:40,1510422480,2017-11-11T17:48:04,0.845,175.3,30.02,25.06,32.58,828.970,2122.330,132.683334,11.29,2.4367,355,24260,2.06017,4.11,53391,,,,,,,,,,,,,,,,,,99999,99999,99999,99999,99999,99999,99999,99999,99999,99999,99999,99999
3:35:10,1510422510,2017-11-11T17:48:34,0.844,175.7,30.01,25.03,32.56,828.950,2122.330,131.949997,12.53,2.4365,355,24259,2.05547,4.11,53385,,,,,,,,,,,,,,,,,,99999,99999,99999,99999,99999,99999,99999,99999,99999,99999,99999,99999
3:35:40,1510422540,2017-11-11T17:49:04,0.843,176.1,29.99,24.95,32.54,828.960,2122.230,132.566666,11.84,2.4367,355,24259,2.05516,4.11,53380,,,,,,,,,,,,,,,,,,99999,99999,99999,99999,99999,99999,99999,99999,99999,99999,99999,99999
3:36:10,1510422570,2017-11-11T17:49:34,0.842,176.6,29.94,24.91,32.48,828.970,2122.040,132.533340,10.30,2.4372,355,24257,2.05234,4.11,53375,,,,,,,,,,,,,,,,,,99999,99999,99999,99999,99999,99999,99999,99999,99999,99999,99999,99999
3:36:40,1510422600,2017-11-11T17:50:04,0.842,177.0,29.89,24.87,32.44,828.920,2121.860,133.550003,12.13,2.4370,355,24255,2.05077,4.11,53369,,,,,,,,,,,,,,,,,,99999,99999,99999,99999,99999,99999,99999,99999,99999,99999,99999,99999
3:37:10,1510422630,2017-11-11T17:50:34,0.842,177.4,29.83,24.83,32.38,828.860,2121.620,132.800003,10.45,2.4375,355,24253,2.05203,4.11,53364,,,,,,,,,,,,,,,,,,99999,99999,99999,99999,99999,99999,99999,99999,99999,99999,99999,99999
3:37:40,1510422660,2017-11-11T17:51:04,0.844,177.8,29.79,24.77,32.32,828.890,2121.500,134.783340,11.38,2.4376,355,24254,2.05672,4.11,53359,,,,,,,,,,,,,,,,,,99999,99999,99999,99999,99999,99999,99999,99999,99999,99999,99999,99999
3:38:10,1510422690,2017-11-11T17:51:34,0.843,178.2,29.74,24.72,32.29,828.980,2121.370,133.016663,10.90,2.4379,355,24252,2.05609,4.11,53353,,,,,,,,,,,,,,,,,,99999,99999,99999,99999,99999,99999,99999,99999,99999,99999,99999,99999
3:38:40,1510422720,2017-11-11T17:52:04,0.842,178.7,29.69,24.69,32.22,828.860,2121.140,133.850006,10.76,2.4381,355,24251,2.05390,4.11,53348,,,,,,,,,,,,,,,,,,99999,99999,99999,99999,99999,99999,99999,99999,99999,99999,99999,99999
3:39:10,1510422750,2017-11-11T17:52:34,0.843,179.1,29.66,24.69,32.16,828.860,2121.080,133.500000,11.00,2.4382,355,24249,2.05422,4.11,53343,,,,,,,,,,,,,,,,,,99999,99999,99999,99999,99999,99999,99999,99999,99999,99999,99999,99999
3:39:40,1510422780,2017-11-11T17:53:04,0.841,179.5,29.64,24.71,32.19,828.980,2121.020,132.016663,11.08,2.4383,355,24250,2.05015,4.11,53337,,,,,,,,,,,,,,,,,,99999,99999,99999,99999,99999,99999,99999,99999,99999,99999,99999,99999
3:40:10,1510422810,2017-11-11T17:53:34,0.840,179.9,29.61,24.70,32.16,828.960,2120.910,132.666672,11.16,2.4384,355,24249,2.04921,4.11,53332,,,,,,,,,,,,,,,,,,99999,99999,99999,99999,99999,99999,99999,99999,99999,99999,99999,99999
3:40:40,1510422840,2017-11-11T17:54:04,0.841,180.3,29.59,24.68,32.16,828.930,2120.790,134.300003,10.88,2.4385,355,24250,2.05046,4.11,53327,,,,,,,,,,,,,,,,,,99999,99999,99999,99999,99999,99999,99999,99999,99999,99999,99999,99999
3:41:10,1510422870,2017-11-11T17:54:34,0.840,180.8,29.55,24.67,32.11,828.920,2120.660,132.283340,10.85,2.4386,355,24249,2.04921,4.11,53322,,,,,,,,,,,,,,,,,,99999,99999,99999,99999,99999,99999,99999,99999,99999,99999,99999,99999
3:41:40,1510422900,2017-11-11T17:55:04,0.842,181.2,29.55,24.69,32.06,828.950,2120.660,133.566666,10.71,2.4387,355,24250,2.05422,4.11,53316,,,,,,,,,,,,,,,,,,99999,99999,99999,99999,99999,99999,99999,99999,99999,99999,99999,99999
3:42:10,1510422930,2017-11-11T17:55:34,0.840,181.6,29.55,24.72,32.06,828.860,2120.660,132.949997,12.36,2.4384,355,24249,2.04859,4.11,53311,,,,,,,,,,,,,,,,,,99999,99999,99999,99999,99999,99999,99999,99999,99999,99999,99999,99999
3:42:40,1510422960,2017-11-11T17:56:04,0.843,182.0,29.54,24.73,32.10,828.920,2120.660,132.116669,11.77,2.4386,355,24250,2.05516,4.11,53306,,,,,,,,,,,,,,,,,,99999,99999,99999,99999,99999,99999,99999,99999,99999,99999,99999,99999
3:43:10,1510422990,2017-11-11T17:56:34,0.842,182.5,29.55,24.77,32.06,828.840,2120.660,131.733337,12.83,2.4383,355,24252,2.05422,4.11,53300,,,,,,,,,,,,,,,,,,99999,99999,99999,99999,99999,99999,99999,99999,99999,99999,99999,99999
3:43:40,1510423020,2017-11-11T17:57:04,0.841,182.9,29.56,24.79,32.08,828.970,2120.720,134.250000,11.09,2.4386,355,24251,2.05140,4.11,53295,,,,,,,,,,,,,,,,,,99999,99999,99999,99999,99999,99999,99999,99999,99999,99999,99999,99999
3:44:10,1510423050,2017-11-11T17:57:34,0.843,183.3,29.56,24.77,32.08,828.970,2120.720,133.433334,10.21,2.4387,355,24253,2.05609,4.11,53290,,,,,,,,,,,,,,,,,,99999,99999,99999,99999,99999,99999,99999,99999,99999,99999,99999,99999
3:44:40,1510423080,2017-11-11T17:58:04,0.843,183.7,29.55,24.78,32.06,828.920,2120.660,133.166672,10.54,2.4387,355,24253,2.05672,4.11,53284,,,,,,,,,,,,,,,,,,99999,99999,99999,99999,99999,99999,99999,99999,99999,99999,99999,99999
3:45:10,1510423110,2017-11-11T17:58:34,0.841,184.1,29.56,24.82,32.06,828.940,2120.720,133.149994,10.41,2.4387,355,24253,2.05077,4.11,53279,,,,,,,,,,,,,,,,,,99999,99999,99999,99999,99999,99999,99999,99999,99999,99999,99999,99999
3:45:40,1510423140,2017-11-11T17:59:04,0.840,184.6,29.58,24.86,32.06,828.850,2120.790,133.016663,10.63,2.4386,355,24254,2.04827,4.11,53274,,,,,,,,,,,,,,,,,,99999,99999,99999,99999,99999,99999,99999,99999,99999,99999,99999,99999
3:46:10,1510423170,2017-11-11T17:59:34,0.842,185.0,29.61,24.91,32.08,828.880,2120.910,133.583328,11.13,2.4384,355,24256,2.05359,4.11,53268,,,,,,,,,,,,,,,,,,99999,99999,99999,99999,99999,99999,99999,99999,99999,99999,99999,99999
3:46:40,1510423200,2017-11-11T18:00:04,0.842,185.4,29.63,24.97,32.13,828.980,2120.960,133.633331,10.14,2.4385,355,24259,2.05359,4.11,53263,,,,,,,,,,,,,,,,,,99999,99999,99999,99999,99999,99999,99999,99999,99999,99999,99999,99999
3:47:10,1510423230,2017-11-11T18:00:34,0.844,185.8,29.65,25.01,32.13,828.810,2121.020,133.783340,11.09,2.4382,355,24259,2.05798,4.11,53258,,,,,,,,,,,,,,,,,,99999,99999,99999,99999,99999,99999,99999,99999,99999,99999,99999,99999
3:47:40,1510423260,2017-11-11T18:01:04,0.842,186.2,29.67,25.07,32.16,828.870,2121.080,132.033340,10.24,2.4383,355,24260,2.05328,4.11,53252,,,,,,,,,,,,,,,,,,99999,99999,99999,99999,99999,99999,99999,99999,99999,99999,99999,99999
3:48:10,1510423290,2017-11-11T18:01:34,0.844,186.7,29.71,25.11,32.17,828.800,2121.210,133.633331,10.30,2.4381,355,24260,2.05672,4.11,53247,,,,,,,,,,,,,,,,,,99999,99999,99999,99999,99999,99999,99999,99999,99999,99999,99999,99999
3:48:40,1510423320,2017-11-11T18:02:04,0.841,187.1,29.73,25.15,32.21,828.820,2121.270,133.916672,10.81,2.4379,355,24263,2.04984,4.11,53242,,,,,,,,,,,,,,,,,,99999,99999,99999,99999,99999,99999,99999,99999,99999,99999,99999,99999
3:49:10,1510423350,2017-11-11T18:02:34,0.841,187.5,29.76,25.20,32.24,828.840,2121.440,132.916672,11.36,2.4377,355,24264,2.04984,4.10,53237,,,,,,,,,,,,,,,,,,99999,99999,99999,99999,99999,99999,99999,99999,99999,99999,99999,99999
3:49:40,1510423380,2017-11-11T18:03:04,0.843,187.9,29.80,25.24,32.26,828.890,2121.560,133.583328,11.53,2.4375,355,24266,2.05516,4.10,53231,,,,,,,,,,,,,,,,,,99999,99999,99999,99999,99999,99999,99999,99999,99999,99999,99999,99999
3:50:10,1510423410,2017-11-11T18:03:34,0.843,188.3,29.84,25.28,32.29,828.910,2121.690,133.500000,10.84,2.4375,355,24268,2.05453,4.10,53226,,,,,,,,,,,,,,,,,,99999,99999,99999,99999,99999,99999,99999,99999,99999,99999,99999,99999
3:50:40,1510423440,2017-11-11T18:04:04,0.845,188.8,29.87,25.33,32.32,828.800,2121.750,133.116669,11.31,2.4372,355,24270,2.06017,4.10,53221,,,,,,,,,,,,,,,,,,99999,99999,99999,99999,99999,99999,99999,99999,99999,99999,99999,99999
3:51:10,1510423470,2017-11-11T18:04:34,0.843,189.2,29.92,25.38,32.37,828.860,2121.980,133.683334,10.62,2.4372,355,24269,2.05484,4.10,53215,,,,,,,,,,,,,,,,,,99999,99999,99999,99999,99999,99999,99999,99999,99999,99999,99999,99999
3:51:40,1510423500,2017-11-11T18:05:04,0.845,189.6,29.94,25.43,32.42,828.910,2122.040,134.250000,10.32,2.4371,355,24270,2.05985,4.10,53210,,,,,,,,,,,,,,,,,,99999,99999,99999,99999,99999,99999,99999,99999,99999,99999,99999,99999
3:52:10,1510423530,2017-11-11T18:05:34,0.843,190.0,29.97,25.47,32.45,828.900,2122.110,134.216660,11.98,2.4367,355,24273,2.05516,4.10,53205,,,,,,,,,,,,,,,,,,99999,99999,99999,99999,99999,99999,99999,99999,99999,99999,99999,99999
3:52:40,1510423560,2017-11-11T18:06:04,0.844,190.5,30.00,25.53,32.47,828.870,2122.230,132.850006,9.91,2.4370,355,24275,2.05735,4.10,53199,,,,,,,,,,,,,,,,,,99999,99999,99999,99999,99999,99999,99999,99999,99999,99999,99999,99999
3:53:10,1510423590,2017-11-11T18:06:34,0.842,190.9,30.04,25.59,32.50,828.890,2122.400,134.550003,10.53,2.4367,355,24275,2.05234,4.10,53194,,,,,,,,,,,,,,,,,,99999,99999,99999,99999,99999,99999,99999,99999,99999,99999,99999,99999
3:53:40,1510423620,2017-11-11T18:07:04,0.845,191.3,30.09,25.64,32.53,828.900,2122.580,133.600006,12.03,2.4362,355,24279,2.05860,4.10,53189,,,,,,,,,,,,,,,,,,99999,99999,99999,99999,99999,99999,99999,99999,99999,99999,99999,99999
3:54:10,1510423650,2017-11-11T18:07:34,0.844,191.7,30.13,25.70,32.60,828.840,2122.710,134.316666,10.70,2.4363,355,24279,2.05672,4.10,53183,,,,,,,,,,,,,,,,,,99999,99999,99999,99999,99999,99999,99999,99999,99999,99999,99999,99999
3:54:40,1510423680,2017-11-11T18:08:04,0.844,192.1,30.17,25.75,32.63,828.860,2122.880,135.233337,12.38,2.4359,355,24280,2.05578,4.10,53178,,,,,,,,,,,,,,,,,,99999,99999,99999,99999,99999,99999,99999,99999,99999,99999,99999,99999
3:55:10,1510423710,2017-11-11T18:08:34,0.847,192.6,30.21,25.81,32.66,828.770,2123.000,134.433334,12.14,2.4357,355,24282,2.06237,4.10,53172,,,,,,,,,,,,,,,,,,99999,99999,99999,99999,99999,99999,99999,99999,99999,99999,99999,99999
3:55:40,1510423740,2017-11-11T18:09:04,0.846,193.0,30.26,25.85,32.67,828.790,2123.130,134.983337,11.78,2.4355,355,24283,2.05985,4.10,53167,,,,,,,,,,,,,,,,,,99999,99999,99999,99999,99999,99999,99999,99999,99999,99999,99999,99999
3:56:10,1510423770,2017-11-11T18:09:34,0.843,193.4,30.28,25.90,32.72,828.760,2123.190,134.149994,10.58,2.4357,355,24285,2.05265,4.10,53162,,,,,,,,,,,,,,,,,,99999,99999,99999,99999,99999,99999,99999,99999,99999,99999,99999,99999
3:56:40,1510423800,2017-11-11T18:10:04,0.846,193.8,30.31,25.94,32.74,828.800,2123.360,135.766663,12.09,2.4353,355,24286,2.06111,4.10,53156,,,,,,,,,,,,,,,,,,99999,99999,99999,99999,99999,99999,99999,99999,99999,99999,99999,99999
3:57:10,1510423830,2017-11-11T18:10:34,0.842,194.3,30.33,25.96,32.76,828.820,2123.420,136.483337,11.45,2.4353,355,24290,2.05140,4.10,53151,,,,,,,,,,,,,,,,,,99999,99999,99999,99999,99999,99999,99999,99999,99999,99999,99999,99999
3:57:40,1510423860,2017-11-11T18:11:04,0.844,194.7,30.35,26.02,32.77,828.790,2123.480,133.583328,11.03,2.4353,355,24289,2.05578,4.10,53146,,,,,,,,,,,,,,,,,,99999,99999,99999,99999,99999,99999,99999,99999,99999,99999,99999,99999
3:58:10,1510423890,2017-11-11T18:11:34,0.847,195.1,30.35,26.03,32.81,828.790,2123.480,133.050003,11.05,2.4353,355,24286,2.06174,4.10,53140,,,,,,,,,,,,,,,,,,99999,99999,99999,99999,99999,99999,99999,99999,99999,99999,99999,99999
3:58:40,1510423920,2017-11-11T18:12:04,0.845,195.5,30.37,26.06,32.81,828.840,2123.550,131.316666,10.66,2.4353,355,24288,2.05798,4.10,53135,,,,,,,,,,,,,,,,,,99999,99999,99999,99999,99999,99999,99999,99999,99999,99999,99999,99999
3:59:10,1510423950,2017-11-11T18:12:34,0.847,196.0,30.37,26.08,32.81,828.870,2123.550,133.300003,9.70,2.4355,355,24289,2.06299,4.10,53130,,,,,,,,,,,,,,,,,,99999,99999,99999,99999,99999,99999,99999,99999,99999,99999,99999,99999
3:59:40,1510423980,2017-11-11T18:13:04,0.845,196.4,30.36,26.11,32.82,828.790,2123.480,134.800003,9.93,2.4355,355,24291,2.05829,4.10,53124,,,,,,,,,,,,,,,,,,99999,99999,99999,99999,99999,99999,99999,99999,99999,99999,99999,99999
4:00:10,1510424010,2017-11-11T18:13:34,0.846,196.8,30.35,26.13,32.82,828.870,2123.480,133.350006,9.94,2.4355,355,24292,2.05954,4.10,53119,,,,,,,,,,,,,,,,,,99999,99999,99999,99999,99999,99999,99999,99999,99999,99999,99999,99999
4:00:40,1510424040,2017-11-11T18:14:04,0.846,197.2,30.36,26.15,32.83,828.760,2123.480,134.416672,10.04,2.4354,355,24293,2.06048,4.10,53114,,,,,,,,,,,,,,,,,,99999,99999,99999,99999,99999,99999,99999,99999,99999,99999,99999,99999
4:01:10,1510424070,2017-11-11T18:14:34,0.845,197.6,30.37,26.17,32.83,828.810,2123.550,133.783340,10.01,2.4354,355,24290,2.05766,4.10,53108,,,,,,,,,,,,,,,,,,99999,99999,99999,99999,99999,99999,99999,99999,99999,99999,99999,99999
4:01:40,1510424100,2017-11-11T18:15:04,0.843,198.1,30.37,26.15,32.88,828.790,2123.550,133.733337,10.26,2.4354,355,24290,2.05359,4.10,53103,,,,,,,,,,,,,,,,,,99999,99999,99999,99999,99999,99999,99999,99999,99999,99999,99999,99999
4:02:10,1510424130,2017-11-11T18:15:34,0.845,198.5,30.36,26.13,32.82,828.600,2123.480,133.466660,10.30,2.4354,355,24291,2.05703,4.10,53098,,,,,,,,,,,,,,,,,,99999,99999,99999,99999,99999,99999,99999,99999,99999,99999,99999,99999
4:02:40,1510424160,2017-11-11T18:16:04,0.847,198.9,30.34,26.07,32.81,828.690,2123.420,133.183334,10.14,2.4355,355,24291,2.06299,4.10,53092,,,,,,,,,,,,,,,,,,99999,99999,99999,99999,99999,99999,99999,99999,99999,99999,99999,99999
4:03:10,1510424190,2017-11-11T18:16:34,0.844,199.3,30.30,26.03,32.76,828.700,2123.300,133.333328,10.69,2.4356,355,24290,2.05453,4.10,53087,,,,,,,,,,,,,,,,,,99999,99999,99999,99999,99999,99999,99999,99999,99999,99999,99999,99999
4:03:40,1510424220,2017-11-11T18:17:04,0.844,199.8,30.23,25.98,32.72,828.710,2123.070,133.983337,11.49,2.4358,355,24286,2.05672,4.10,53082,,,,,,,,,,,,,,,,,,99999,99999,99999,99999,99999,99999,99999,99999,99999,99999,99999,99999
4:04:10,1510424250,2017-11-11T18:17:34,0.843,200.2,30.15,25.90,32.66,828.700,2122.810,133.966660,12.18,2.4360,355,24286,2.05359,4.11,53076,,,,,,,,,,,,,,,,,,99999,99999,99999,99999,99999,99999,99999,99999,99999,99999,99999,99999
4:04:40,1510424280,2017-11-11T18:18:04,0.842,200.6,30.05,25.84,32.51,828.690,2122.460,135.183334,12.19,2.4364,355,24283,2.05171,4.10,53071,,,,,,,,,,,,,,,,,,99999,99999,99999,99999,99999,99999,99999,99999,99999,99999,99999,99999
4:05:10,1510424310,2017-11-11T18:18:34,0.842,201.0,29.94,25.76,32.44,828.670,2122.040,134.566666,12.91,2.4367,355,24282,2.05077,4.10,53066,,,,,,,,,,,,,,,,,,99999,99999,99999,99999,99999,99999,99999,99999,99999,99999,99999,99999
4:05:40,1510424340,2017-11-11T18:19:04,0.845,201.4,29.80,25.66,32.27,828.670,2121.560,132.949997,10.63,2.4377,355,24277,2.05892,4.10,53060,,,,,,,,,,,,,,,,,,99999,99999,99999,99999,99999,99999,99999,99999,99999,99999,99999,99999
4:06:10,1510424370,2017-11-11T18:19:34,0.842,201.9,29.67,25.52,32.13,828.650,2121.080,132.816666,10.90,2.4381,355,24273,2.05328,4.10,53055,,,,,,,,,,,,,,,,,,99999,99999,99999,99999,99999,99999,99999,99999,99999,99999,99999,99999
4:06:40,1510424400,2017-11-11T18:20:04,0.838,202.3,29.50,25.34,31.97,828.660,2120.540,133.666672,11.34,2.4388,355,24269,2.04359,4.10,53050,,,,,,,,,,,,,,,,,,99999,99999,99999,99999,99999,99999,99999,99999,99999,99999,99999,99999
4:07:10,1510424430,2017-11-11T18:20:34,0.841,202.7,29.34,25.20,31.75,828.690,2119.950,131.516663,11.06,2.4395,355,24266,2.05171,4.10,53045,,,,,,,,,,,,,,,,,,99999,99999,99999,99999,99999,99999,99999,99999,99999,99999,99999,99999
4:07:40,1510424460,2017-11-11T18:21:04,0.840,203.1,29.16,25.08,31.58,828.650,2119.280,131.350006,11.67,2.4401,355,24261,2.05077,4.10,53040,,,,,,,,,,,,,,,,,,99999,99999,99999,99999,99999,99999,99999,99999,99999,99999,99999,99999
4:08:10,1510424490,2017-11-11T18:21:34,0.839,203.5,28.98,24.95,31.39,828.720,2118.700,130.250000,12.16,2.4408,355,24255,2.04890,4.10,53034,,,,,,,,,,,,,,,,,,99999,99999,99999,99999,99999,99999,99999,99999,99999,99999,99999,99999
4:08:40,1510424520,2017-11-11T18:22:04,0.838,204.0,28.81,24.84,31.21,828.650,2118.090,133.149994,11.73,2.4416,355,24255,2.04702,4.10,53029,,,,,,,,,,,,,,,,,,99999,99999,99999,99999,99999,99999,99999,99999,99999,99999,99999,99999
4:09:10,1510424550,2017-11-11T18:22:34,0.837,204.4,28.66,24.73,31.07,828.520,2117.610,130.883331,13.50,2.4420,355,24252,2.04421,4.10,53024,,,,,,,,,,,,,,,,,,99999,99999,99999,99999,99999,99999,99999,99999,99999,99999,99999,99999
4:09:40,1510424580,2017-11-11T18:23:04,0.838,204.8,28.49,24.63,30.87,828.500,2116.940,131.399994,12.75,2.4427,355,24250,2.04671,4.10,53019,,,,,,,,,,,,,,,,,,99999,99999,99999,99999,99999,99999,99999,99999,99999,99999,99999,99999
4:10:10,1510424610,2017-11-11T18:23:34,0.835,205.2,28.35,24.54,30.71,828.510,2116.480,130.649994,12.13,2.4434,355,24245,2.04140,4.10,53014,,,,,,,,,,,,,,,,,,99999,99999,99999,99999,99999,99999,99999,99999,99999,99999,99999,99999
4:10:40,1510424640,2017-11-11T18:24:04,0.835,205.6,28.21,24.46,30.55,828.520,2116.000,128.616669,12.71,2.4439,355,24241,2.04078,4.10,53009,,,,,,,,,,,,,,,,,,99999,99999,99999,99999,99999,99999,99999,99999,99999,99999,99999,99999
4:11:10,1510424670,2017-11-11T18:24:34,0.833,206.1,28.10,24.36,30.42,828.670,2115.580,128.699997,12.38,2.4444,355,24241,2.03610,4.10,53004,,,,,,,,,,,,,,,,,,99999,99999,99999,99999,99999,99999,99999,99999,99999,99999,99999,99999
4:11:40,1510424700,2017-11-11T18:25:04,0.835,206.5,28.00,24.28,30.32,828.620,2115.270,130.733337,12.31,2.4449,355,24235,2.04265,4.10,52998,,,,,,,,,,,,,,,,,,99999,99999,99999,99999,99999,99999,99999,99999,99999,99999,99999,99999
4:12:10,1510424730,2017-11-11T18:25:34,0.833,206.9,27.90,24.23,30.21,828.560,2114.920,132.850006,12.71,2.4452,355,24236,2.03797,4.10,52993,,,,,,,,,,,,,,,,,,99999,99999,99999,99999,99999,99999,99999,99999,99999,99999,99999,99999
4:12:40,1510424760,2017-11-11T18:26:04,0.832,207.3,27.83,24.18,30.16,828.490,2114.620,129.250000,12.11,2.4456,355,24234,2.03548,4.10,52988,,,,,,,,,,,,,,,,,,99999,99999,99999,99999,99999,99999,99999,99999,99999,99999,99999,99999
4:13:10,1510424790,2017-11-11T18:26:34,0.834,207.7,27.77,24.12,30.08,828.560,2114.450,131.600006,11.98,2.4459,355,24232,2.04109,4.10,52983,,,,,,,,,,,,,,,,,,99999,99999,99999,99999,99999,99999,99999,99999,99999,99999,99999,99999
4:13:40,1510424820,2017-11-11T18:27:04,0.834,208.1,27.72,24.05,30.03,828.600,2114.270,131.050003,12.68,2.4460,355,24230,2.03891,4.10,52978,,,,,,,,,,,,,,,,,,99999,99999,99999,99999,99999,99999,99999,99999,99999,99999,99999,99999
4:14:10,1510424850,2017-11-11T18:27:34,0.834,208.6,27.67,24.01,29.97,828.580,2114.100,130.449997,13.74,2.4460,355,24229,2.04015,4.10,52973,,,,,,,,,,,,,,,,,,99999,99999,99999,99999,99999,99999,99999,99999,99999,99999,99999,99999
4:14:40,1510424880,2017-11-11T18:28:04,0.832,209.0,27.64,23.98,29.95,828.610,2113.970,130.766663,12.87,2.4463,355,24226,2.03423,4.10,52968,,,,,,,,,,,,,,,,,,99999,99999,99999,99999,99999,99999,99999,99999,99999,99999,99999,99999
4:15:10,1510424910,2017-11-11T18:28:34,0.831,209.4,27.61,23.91,29.92,828.570,2113.910,130.350006,12.77,2.4465,355,24225,2.03205,4.15,52963,,,,,,,,,,,,,,,,,,99999,99999,99999,99999,99999,99999,99999,99999,99999,99999,99999,99999
4:15:40,1510424940,2017-11-11T18:29:04,0.830,209.8,27.60,23.86,29.87,828.620,2113.850,130.649994,11.94,2.4466,355,24220,2.03080,4.10,52958,,,,,,,,,,,,,,,,,,99999,99999,99999,99999,99999,99999,99999,99999,99999,99999,99999,99999
4:16:10,1510424970,2017-11-11T18:29:34,0.832,210.2,27.57,23.82,29.92,828.550,2113.780,130.283340,11.84,2.4468,355,24222,2.03548,4.09,52952,,,,,,,,,,,,,,,,,,99999,99999,99999,99999,99999,99999,99999,99999,99999,99999,99999,99999
4:16:40,1510425000,2017-11-11T18:30:04,0.832,210.6,27.56,23.80,29.91,828.660,2113.680,128.149994,11.69,2.4468,355,24221,2.03579,4.09,52947,,,,,,,,,,,,,,,,,,99999,99999,99999,99999,99999,99999,99999,99999,99999,99999,99999,99999
4:17:10,1510425030,2017-11-11T18:30:34,0.832,211.0,27.56,23.77,29.87,828.690,2113.680,129.483337,12.33,2.4467,355,24221,2.03516,4.09,52942,,,,,,,,,,,,,,,,,,99999,99999,99999,99999,99999,99999,99999,99999,99999,99999,99999,99999
4:17:40,1510425060,2017-11-11T18:31:04,0.831,211.5,27.57,23.76,29.91,828.690,2113.780,127.616669,12.17,2.4467,355,24221,2.03330,4.09,52937,,,,,,,,,,,,,,,,,,99999,99999,99999,99999,99999,99999,99999,99999,99999,99999,99999,99999
4:18:10,1510425090,2017-11-11T18:31:34,0.834,211.9,27.57,23.77,29.93,828.660,2113.780,129.300003,12.34,2.4467,355,24221,2.03953,4.09,52932,,,,,,,,,,,,,,,,,,99999,99999,99999,99999,99999,99999,99999,99999,99999,99999,99999,99999
4:18:40,1510425120,2017-11-11T18:32:04,0.831,212.3,27.61,23.79,29.97,828.520,2113.910,128.683334,12.56,2.4465,355,24219,2.03392,4.09,52927,,,,,,,,,,,,,,,,,,99999,99999,99999,99999,99999,99999,99999,99999,99999,99999,99999,99999
4:19:10,1510425150,2017-11-11T18:32:34,0.833,212.7,27.63,23.81,29.97,828.460,2113.970,132.250000,13.35,2.4463,355,24223,2.03766,4.09,52922,,,,,,,,,,,,,,,,,,99999,99999,99999,99999,99999,99999,99999,99999,99999,99999,99999,99999
4:19:40,1510425180,2017-11-11T18:33:04,0.835,213.1,27.67,23.85,30.03,828.450,2114.100,130.216660,14.17,2.4460,355,24222,2.04234,4.09,52917,,,,,,,,,,,,,,,,,,99999,99999,99999,99999,99999,99999,99999,99999,99999,99999,99999,99999
4:20:10,1510425210,2017-11-11T18:33:34,0.835,213.5,27.70,23.86,30.07,828.330,2114.140,128.516663,14.12,2.4458,355,24223,2.04171,4.09,52912,,,,,,,,,,,,,,,,,,99999,99999,99999,99999,99999,99999,99999,99999,99999,99999,99999,99999
4:20:40,1510425240,2017-11-11T18:34:04,0.832,214.0,27.71,23.87,30.09,828.300,2114.270,129.949997,13.24,2.4460,355,24224,2.03548,4.09,52906,,,,,,,,,,,,,,,,,,99999,99999,99999,99999,99999,99999,99999,99999,99999,99999,99999,99999
4:21:10,1510425270,2017-11-11T18:34:34,0.834,214.4,27.73,23.86,30.09,828.300,2114.330,129.466660,13.31,2.4459,355,24223,2.03891,4.09,52901,,,,,,,,,,,,,,,,,,99999,99999,99999,99999,99999,99999,99999,99999,99999,99999,99999,99999
4:21:40,1510425300,2017-11-11T18:35:04,0.831,214.8,27.75,23.86,30.07,828.350,2114.390,130.083328,13.75,2.4457,355,24222,2.03330,4.09,52896,,,,,,,,,,,,,,,,,,99999,99999,99999,99999,99999,99999,99999,99999,99999,99999,99999,99999
4:22:10,1510425330,2017-11-11T18:35:34,0.831,215.2,27.76,23.88,30.13,828.260,2114.390,129.133331,12.82,2.4458,355,24224,2.03236,4.09,52891,,,,,,,,,,,,,,,,,,99999,99999,99999,99999,99999,99999,99999,99999,99999,99999,99999,99999
4:22:40,1510425360,2017-11-11T18:36:04,0.834,215.6,27.76,23.86,30.09,828.480,2114.390,129.383331,13.64,2.4456,355,24225,2.03860,4.09,52886,,,,,,,,,,,,,,,,,,99999,99999,99999,99999,99999,99999,99999,99999,99999,99999,99999,99999
4:23:10,1510425390,2017-11-11T18:36:34,0.832,216.0,27.76,23.87,30.09,828.450,2114.390,129.016663,13.32,2.4457,355,24223,2.03392,4.09,52881,,,,,,,,,,,,,,,,,,99999,99999,99999,99999,99999,99999,99999,99999,99999,99999,99999,99999
4:23:40,1510425420,2017-11-11T18:37:04,0.833,216.5,27.76,23.84,30.16,828.400,2114.390,132.166672,13.13,2.4457,355,24225,2.03828,4.14,52876,,,,,,,,,,,,,,,,,,99999,99999,99999,99999,99999,99999,99999,99999,99999,99999,99999,99999
4:24:10,1510425450,2017-11-11T18:37:34,0.833,216.9,27.76,23.85,30.09,828.370,2114.390,130.266663,13.98,2.4456,355,24224,2.03703,4.09,52871,,,,,,,,,,,,,,,,,,99999,99999,99999,99999,99999,99999,99999,99999,99999,99999,99999,99999
4:24:40,1510425480,2017-11-11T18:38:04,0.833,217.3,27.75,23.85,30.11,828.430,2114.390,134.949997,13.59,2.4457,355,24222,2.03672,4.09,52865,,,,,,,,,,,,,,,,,,99999,99999,99999,99999,99999,99999,99999,99999,99999,99999,99999,99999
4:25:10,1510425510,2017-11-11T18:38:34,0.833,217.7,27.76,23.83,30.09,828.430,2114.390,132.350006,14.09,2.4456,355,24223,2.03828,4.09,52860,,,,,,,,,,,,,,,,,,99999,99999,99999,99999,99999,99999,99999,99999,99999,99999,99999,99999
4:25:40,1510425540,2017-11-11T18:39:04,0.834,218.1,27.75,23.82,30.11,828.380,2114.390,130.616669,13.71,2.4457,355,24221,2.04078,4.09,52855,,,,,,,,,,,,,,,,,,99999,99999,99999,99999,99999,99999,99999,99999,99999,99999,99999,99999
4:26:10,1510425570,2017-11-11T18:39:34,0.833,218.5,27.75,23.79,30.07,828.460,2114.390,130.816666,13.55,2.4457,355,24221,2.03828,4.09,52850,,,,,,,,,,,,,,,,,,99999,99999,99999,99999,99999,99999,99999,99999,99999,99999,99999,99999
4:26:40,1510425600,2017-11-11T18:40:04,0.835,219.0,27.74,23.80,30.07,828.460,2114.330,131.283340,13.95,2.4457,355,24221,2.04140,4.09,52845,,,,,,,,,,,,,,,,,,99999,99999,99999,99999,99999,99999,99999,99999,99999,99999,99999,99999
4:27:10,1510425630,2017-11-11T18:40:34,0.836,219.4,27.75,23.79,30.11,828.320,2114.390,129.516663,14.34,2.4456,355,24222,2.04515,4.09,52840,,,,,,,,,,,,,,,,,,99999,99999,99999,99999,99999,99999,99999,99999,99999,99999,99999,99999
4:27:40,1510425660,2017-11-11T18:41:04,0.832,219.8,27.75,23.79,30.08,828.460,2114.390,129.883331,13.98,2.4457,355,24221,2.03423,4.09,52835,,,,,,,,,,,,,,,,,,99999,99999,99999,99999,99999,99999,99999,99999,99999,99999,99999,99999
4:28:10,1510425690,2017-11-11T18:41:34,0.834,220.2,27.75,23.79,30.13,828.380,2114.390,130.933334,11.88,2.4460,355,24219,2.04015,4.09,52830,,,,,,,,,,,,,,,,,,99999,99999,99999,99999,99999,99999,99999,99999,99999,99999,99999,99999
4:28:40,1510425720,2017-11-11T18:42:04,0.831,220.6,27.75,23.78,30.09,828.300,2114.390,130.566666,11.67,2.4460,355,24220,2.03205,4.09,52824,,,,,,,,,,,,,,,,,,99999,99999,99999,99999,99999,99999,99999,99999,99999,99999,99999,99999
4:29:10,1510425750,2017-11-11T18:42:34,0.834,221.0,27.75,23.79,30.09,828.300,2114.390,131.050003,12.29,2.4459,355,24222,2.03922,4.09,52819,,,,,,,,,,,,,,,,,,99999,99999,99999,99999,99999,99999,99999,99999,99999,99999,99999,99999
4:29:40,1510425780,2017-11-11T18:43:04,0.833,221.5,27.76,23.80,30.11,828.290,2114.390,130.649994,11.60,2.4460,355,24221,2.03766,4.09,52814,,,,,,,,,,,,,,,,,,99999,99999,99999,99999,99999,99999,99999,99999,99999,99999,99999,99999
4:30:10,1510425810,2017-11-11T18:43:34,0.834,221.9,27.77,23.81,30.11,828.310,2114.450,131.183334,12.13,2.4459,355,24221,2.03953,4.09,52809,,,,,,,,,,,,,,,,,,99999,99999,99999,99999,99999,99999,99999,99999,99999,99999,99999,99999
4:30:40,1510425840,2017-11-11T18:44:04,0.835,222.3,27.80,23.82,30.16,828.330,2114.520,129.716660,12.22,2.4457,355,24222,2.04171,4.09,52804,,,,,,,,,,,,,,,,,,99999,99999,99999,99999,99999,99999,99999,99999,99999,99999,99999,99999
4:31:10,1510425870,2017-11-11T18:44:34,0.835,222.7,27.82,23.83,30.11,828.300,2114.620,130.783340,12.50,2.4456,355,24221,2.04328,4.09,52799,,,,,,,,,,,,,,,,,,99999,99999,99999,99999,99999,99999,99999,99999,99999,99999,99999,99999
4:31:40,1510425900,2017-11-11T18:45:04,0.833,223.1,27.84,23.85,30.15,828.350,2114.750,130.283340,11.80,2.4457,355,24222,2.03766,4.09,52794,,,,,,,,,,,,,,,,,,99999,99999,99999,99999,99999,99999,99999,99999,99999,99999,99999,99999
4:32:10,1510425930,2017-11-11T18:45:34,0.833,223.5,27.89,23.90,30.15,828.390,2114.870,129.449997,12.79,2.4453,355,24223,2.03641,4.09,52788,,,,,,,,,,,,,,,,,,99999,99999,99999,99999,99999,99999,99999,99999,99999,99999,99999,99999
4:32:40,1510425960,2017-11-11T18:46:04,0.833,224.0,27.95,23.93,30.21,828.270,2115.040,128.500000,13.52,2.4448,355,24228,2.03735,4.09,52783,,,,,,,,,,,,,,,,,,99999,99999,99999,99999,99999,99999,99999,99999,99999,99999,99999,99999
4:33:10,1510425990,2017-11-11T18:46:34,0.835,224.4,27.99,23.98,30.24,828.240,2115.230,128.966660,16.66,2.4442,355,24226,2.04109,4.09,52778,,,,,,,,,,,,,,,,,,99999,99999,99999,99999,99999,99999,99999,99999,99999,99999,99999,99999
4:33:40,1510426020,2017-11-11T18:47:04,0.835,224.8,28.03,24.01,30.31,828.340,2115.330,129.399994,12.20,2.4447,355,24225,2.04171,4.09,52773,,,,,,,,,,,,,,,,,,99999,99999,99999,99999,99999,99999,99999,99999,99999,99999,99999,99999
4:34:10,1510426050,2017-11-11T18:47:34,0.832,225.2,28.09,24.05,30.39,828.380,2115.520,130.733337,12.72,2.4444,355,24228,2.03485,4.09,52768,,,,,,,,,,,,,,,,,,99999,99999,99999,99999,99999,99999,99999,99999,99999,99999,99999,99999
4:34:40,1510426080,2017-11-11T18:48:04,0.837,225.6,28.13,24.11,30.39,828.370,2115.690,131.050003,12.47,2.4443,355,24229,2.04702,4.09,52763,,,,,,,,,,,,,,,,,,99999,99999,99999,99999,99999,99999,99999,99999,99999,99999,99999,99999
4:35:10,1510426110,2017-11-11T18:48:34,0.837,226.1,28.19,24.17,30.47,828.380,2115.870,132.333328,14.47,2.4437,355,24232,2.04484,4.09,52758,,,,,,,,,,,,,,,,,,99999,99999,99999,99999,99999,99999,99999,99999,99999,99999,99999,99999
4:35:40,1510426140,2017-11-11T18:49:04,0.836,226.5,28.26,24.22,30.55,828.310,2116.170,132.899994,13.34,2.4436,355,24232,2.04171,4.09,52752,,,,,,,,,,,,,,,,,,99999,99999,99999,99999,99999,99999,99999,99999,99999,99999,99999,99999
4:36:10,1510426170,2017-11-11T18:49:34,0.837,226.9,28.32,24.27,30.57,828.350,2116.360,132.050003,12.87,2.4434,355,24232,2.04484,4.09,52747,,,,,,,,,,,,,,,,,,99999,99999,99999,99999,99999,99999,99999,99999,99999,99999,99999,99999
4:36:40,1510426200,2017-11-11T18:50:04,0.839,227.3,28.34,24.29,30.65,828.210,2116.420,131.000000,11.25,2.4436,355,24237,2.05140,4.09,52742,,,,,,,,,,,,,,,,,,99999,99999,99999,99999,99999,99999,99999,99999,99999,99999,99999,99999
4:37:10,1510426230,2017-11-11T18:50:34,0.838,227.7,28.40,24.33,30.67,828.440,2116.650,132.033340,13.17,2.4430,355,24237,2.04796,4.09,52737,,,,,,,,,,,,,,,,,,99999,99999,99999,99999,99999,99999,99999,99999,99999,99999,99999,99999
4:37:40,1510426260,2017-11-11T18:51:04,0.838,228.1,28.40,24.36,30.69,828.310,2116.650,132.716660,13.87,2.4429,355,24236,2.04796,4.09,52732,,,,,,,,,,,,,,,,,,99999,99999,99999,99999,99999,99999,99999,99999,99999,99999,99999,99999
4:38:10,1510426290,2017-11-11T18:51:34,0.835,228.6,28.44,24.39,30.74,828.270,2116.770,131.433334,12.23,2.4430,355,24239,2.03922,4.09,52726,,,,,,,,,,,,,,,,,,99999,99999,99999,99999,99999,99999,99999,99999,99999,99999,99999,99999
4:38:40,1510426320,2017-11-11T18:52:04,0.836,229.0,28.45,24.43,30.77,828.350,2116.840,130.399994,11.84,2.4431,355,24241,2.04328,4.09,52721,,,,,,,,,,,,,,,,,,99999,99999,99999,99999,99999,99999,99999,99999,99999,99999,99999,99999
4:39:10,1510426350,2017-11-11T18:52:34,0.838,229.4,28.47,24.43,30.75,828.340,2116.900,132.300003,11.09,2.4431,355,24239,2.04640,4.09,52716,,,,,,,,,,,,,,,,,,99999,99999,99999,99999,99999,99999,99999,99999,99999,99999,99999,99999
4:39:40,1510426380,2017-11-11T18:53:04,0.837,229.8,28.48,24.45,30.77,828.340,2116.900,131.333328,11.25,2.4430,355,24239,2.04484,4.09,52711,,,,,,,,,,,,,,,,,,99999,99999,99999,99999,99999,99999,99999,99999,99999,99999,99999,99999
4:40:10,1510426410,2017-11-11T18:53:34,0.840,230.2,28.50,24.48,30.75,828.370,2116.960,131.250000,12.22,2.4427,355,24238,2.05109,4.09,52706,,,,,,,,,,,,,,,,,,99999,99999,99999,99999,99999,99999,99999,99999,99999,99999,99999,99999
4:40:40,1510426440,2017-11-11T18:54:04,0.839,230.7,28.53,24.53,30.81,828.410,2117.130,132.933334,13.22,2.4425,355,24240,2.04921,4.09,52701,,,,,,,,,,,,,,,,,,99999,99999,99999,99999,99999,99999,99999,99999,99999,99999,99999,99999
4:41:10,1510426470,2017-11-11T18:54:34,0.836,231.1,28.56,24.56,30.82,828.380,2117.190,131.100006,11.37,2.4427,355,24244,2.04202,4.09,52695,,,,,,,,,,,,,,,,,,99999,99999,99999,99999,99999,99999,99999,99999,99999,99999,99999,99999
4:41:40,1510426500,2017-11-11T18:55:04,0.837,231.5,28.63,24.63,30.89,828.340,2117.420,130.833328,14.12,2.4419,355,24245,2.04328,4.09,52690,,,,,,,,,,,,,,,,,,99999,99999,99999,99999,99999,99999,99999,99999,99999,99999,99999,99999
4:42:10,1510426530,2017-11-11T18:55:34,0.837,231.9,28.69,24.68,30.90,828.430,2117.670,132.383331,12.73,2.4419,355,24248,2.04359,4.09,52685,,,,,,,,,,,,,,,,,,99999,99999,99999,99999,99999,99999,99999,99999,99999,99999,99999,99999
4:42:40,1510426560,2017-11-11T18:56:04,0.841,232.3,28.73,24.76,30.99,828.480,2117.800,132.416672,13.55,2.4416,355,24252,2.05328,4.09,52680,,,,,,,,,,,,,,,,,,99999,99999,99999,99999,99999,99999,99999,99999,99999,99999,99999,99999
4:43:10,1510426590,2017-11-11T18:56:34,0.838,232.7,28.79,24.82,31.03,828.300,2118.030,133.466660,10.39,2.4419,355,24250,2.04577,4.09,52675,,,,,,,,,,,,,,,,,,99999,99999,99999,99999,99999,99999,99999,99999,99999,99999,99999,99999
4:43:40,1510426620,2017-11-11T18:57:04,0.838,233.2,28.82,24.86,31.08,828.430,2118.150,130.666672,10.82,2.4417,355,24250,2.04515,4.08,52669,,,,,,,,,,,,,,,,,,99999,99999,99999,99999,99999,99999,99999,99999,99999,99999,99999,99999
4:44:10,1510426650,2017-11-11T18:57:34,0.841,233.6,28.86,24.90,31.09,828.280,2118.260,132.899994,9.96,2.4417,355,24252,2.05234,4.08,52664,,,,,,,,,,,,,,,,,,99999,99999,99999,99999,99999,99999,99999,99999,99999,99999,99999,99999
4:44:40,1510426680,2017-11-11T18:58:04,0.839,234.0,28.89,24.91,31.15,828.390,2118.320,131.850006,10.58,2.4414,355,24253,2.04921,4.08,52659,,,,,,,,,,,,,,,,,,99999,99999,99999,99999,99999,99999,99999,99999,99999,99999,99999,99999
4:45:10,1510426710,2017-11-11T18:58:34,0.839,234.4,28.93,24.91,31.19,828.270,2118.510,133.516663,10.50,2.4413,355,24255,2.04796,4.08,52654,,,,,,,,,,,,,,,,,,99999,99999,99999,99999,99999,99999,99999,99999,99999,99999,99999,99999
4:45:40,1510426740,2017-11-11T18:59:04,0.839,234.8,28.94,24.92,31.21,828.270,2118.570,131.449997,9.16,2.4415,355,24257,2.04952,4.08,52649,,,,,,,,,,,,,,,,,,99999,99999,99999,99999,99999,99999,99999,99999,99999,99999,99999,99999
4:46:10,1510426770,2017-11-11T18:59:34,0.838,235.3,28.94,24.95,31.23,828.290,2118.570,130.833328,9.66,2.4414,355,24258,2.04515,4.08,52643,,,,,,,,,,,,,,,,,,99999,99999,99999,99999,99999,99999,99999,99999,99999,99999,99999,99999
4:46:40,1510426800,2017-11-11T19:00:04,0.841,235.7,28.95,24.95,31.19,828.320,2118.570,131.199997,9.82,2.4413,355,24256,2.05359,4.08,52638,,,,,,,,,,,,,,,,,,99999,99999,99999,99999,99999,99999,99999,99999,99999,99999,99999,99999
4:47:10,1510426830,2017-11-11T19:00:34,0.839,236.1,28.96,24.97,31.23,828.260,2118.630,130.783340,9.63,2.4413,355,24257,2.04734,4.08,52633,,,,,,,,,,,,,,,,,,99999,99999,99999,99999,99999,99999,99999,99999,99999,99999,99999,99999
4:47:40,1510426860,2017-11-11T19:01:04,0.839,236.5,28.96,24.98,31.19,828.260,2118.630,131.033340,9.57,2.4414,355,24256,2.04796,4.08,52628,,,,,,,,,,,,,,,,,,99999,99999,99999,99999,99999,99999,99999,99999,99999,99999,99999,99999
4:48:10,1510426890,2017-11-11T19:01:34,0.841,236.9,28.96,25.00,31.23,828.210,2118.630,131.850006,9.51,2.4414,355,24256,2.05234,4.12,52623,,,,,,,,,,,,,,,,,,99999,99999,99999,99999,99999,99999,99999,99999,99999,99999,99999,99999
4:48:40,1510426920,2017-11-11T19:02:04,0.840,237.4,28.96,25.01,31.19,828.210,2118.630,131.800003,9.60,2.4414,355,24258,2.05171,4.09,52618,,,,,,,,,,,,,,,,,,99999,99999,99999,99999,99999,99999,99999,99999,99999,99999,99999,99999
4:49:10,1510426950,2017-11-11T19:02:34,0.837,237.8,28.94,24.97,31.23,828.290,2118.570,132.850006,10.18,2.4413,355,24256,2.04328,4.09,52613,,,,,,,,,,,,,,,,,,99999,99999,99999,99999,99999,99999,99999,99999,99999,99999,99999,99999
4:49:40,1510426980,2017-11-11T19:03:04,0.840,238.2,28.90,24.91,31.16,828.080,2118.380,131.350006,9.05,2.4417,355,24257,2.05046,4.09,52609,,,,,,,,,,,,,,,,,,99999,99999,99999,99999,99999,99999,99999,99999,99999,99999,99999,99999
4:50:10,1510427010,2017-11-11T19:03:34,0.838,238.6,28.83,24.87,31.11,828.260,2118.150,130.666672,9.23,2.4419,355,24257,2.04640,4.10,52604,,,,,,,,,,,,,,,,,,99999,99999,99999,99999,99999,99999,99999,99999,99999,99999,99999,99999
4:50:40,1510427040,2017-11-11T19:04:04,0.837,239.0,28.79,24.85,31.05,828.300,2118.030,131.733337,9.58,2.4421,355,24254,2.04515,4.09,52600,,,,,,,,,,,,,,,,,,99999,99999,99999,99999,99999,99999,99999,99999,99999,99999,99999,99999
4:51:10,1510427070,2017-11-11T19:04:34,0.840,239.5,28.74,24.86,31.01,828.260,2117.840,131.766663,9.77,2.4422,355,24254,2.05140,4.08,52595,,,,,,,,,,,,,,,,,,99999,99999,99999,99999,99999,99999,99999,99999,99999,99999,99999,99999
4:51:40,1510427100,2017-11-11T19:05:04,0.835,239.9,28.69,24.87,30.95,828.240,2117.670,132.533340,9.44,2.4425,355,24252,2.03984,4.08,52590,,,,,,,,,,,,,,,,,,99999,99999,99999,99999,99999,99999,99999,99999,99999,99999,99999,99999
4:52:10,1510427130,2017-11-11T19:05:34,0.837,240.3,28.67,24.89,30.92,828.300,2117.610,129.883331,9.30,2.4426,355,24255,2.04452,4.08,52584,,,,,,,,,,,,,,,,,,99999,99999,99999,99999,99999,99999,99999,99999,99999,99999,99999,99999
4:52:40,1510427160,2017-11-11T19:06:04,0.837,240.7,28.63,24.91,30.87,828.280,2117.420,129.883331,9.19,2.4427,355,24254,2.04515,4.08,52579,,,,,,,,,,,,,,,,,,99999,99999,99999,99999,99999,99999,99999,99999,99999,99999,99999,99999
4:53:10,1510427190,2017-11-11T19:06:34,0.837,241.1,28.63,24.92,30.82,828.340,2117.420,131.083328,9.61,2.4427,355,24256,2.04515,4.08,52574,,,,,,,,,,,,,,,,,,99999,99999,99999,99999,99999,99999,99999,99999,99999,99999,99999,99999
4:53:40,1510427220,2017-11-11T19:07:04,0.836,241.6,28.60,24.96,30.82,828.290,2117.320,130.366669,10.60,2.4426,355,24256,2.04296,4.08,52569,,,,,,,,,,,,,,,,,,99999,99999,99999,99999,99999,99999,99999,99999,99999,99999,99999,99999
4:54:10,1510427250,2017-11-11T19:07:34,0.842,242.0,28.60,24.98,30.81,828.480,2117.320,125.133331,9.97,2.4427,355,24254,2.05735,4.08,52564,,,,,,,,,,,,,,,,,,99999,99999,99999,99999,99999,99999,99999,99999,99999,99999,99999,99999
4:54:40,1510427280,2017-11-11T19:08:04,0.842,242.4,28.58,24.98,30.82,828.400,2117.260,128.766663,9.81,2.4428,355,24256,2.05766,4.08,52558,,,,,,,,,,,,,,,,,,99999,99999,99999,99999,99999,99999,99999,99999,99999,99999,99999,99999
4:55:10,1510427310,2017-11-11T19:08:34,0.842,242.8,28.55,24.97,30.77,828.220,2117.190,124.283333,8.97,2.4432,355,24254,2.05766,4.08,52553,,,,,,,,,,,,,,,,,,99999,99999,99999,99999,99999,99999,99999,99999,99999,99999,99999,99999
4:55:40,1510427340,2017-11-11T19:09:04,0.840,243.2,28.52,24.95,30.75,828.360,2117.010,132.283340,9.26,2.4431,355,24255,2.05328,4.12,52548,,,,,,,,,,,,,,,,,,99999,99999,99999,99999,99999,99999,99999,99999,99999,99999,99999,99999
4:56:10,1510427370,2017-11-11T19:09:34,0.838,243.7,28.49,24.91,30.71,828.290,2116.940,127.199997,9.70,2.4432,355,24254,2.04640,4.08,52543,,,,,,,,,,,,,,,,,,99999,99999,99999,99999,99999,99999,99999,99999,99999,99999,99999,99999
4:56:40,1510427400,2017-11-11T19:10:04,0.835,244.1,28.45,24.88,30.69,828.350,2116.840,132.899994,10.05,2.4434,355,24251,2.04140,4.08,52538,,,,,,,,,,,,,,,,,,99999,99999,99999,99999,99999,99999,99999,99999,99999,99999,99999,99999
4:57:10,1510427430,2017-11-11T19:10:34,0.839,244.5,28.41,24.86,30.65,828.360,2116.710,130.300003,9.27,2.4437,355,24253,2.04984,4.08,52532,,,,,,,,,,,,,,,,,,99999,99999,99999,99999,99999,99999,99999,99999,99999,99999,99999,99999
4:57:40,1510427460,2017-11-11T19:11:04,0.834,244.9,28.37,24.84,30.61,828.240,2116.540,130.616669,9.38,2.4438,355,24249,2.03766,4.08,52527,,,,,,,,,,,,,,,,,,99999,99999,99999,99999,99999,99999,99999,99999,99999,99999,99999,99999
4:58:10,1510427490,2017-11-11T19:11:34,0.837,245.3,28.35,24.80,30.53,828.130,2116.480,127.266670,9.23,2.4439,355,24252,2.04608,4.08,52522,,,,,,,,,,,,,,,,,,99999,99999,99999,99999,99999,99999,99999,99999,99999,99999,99999,99999
4:58:40,1510427520,2017-11-11T19:12:04,0.836,245.7,28.31,24.78,30.51,828.250,2116.360,128.533340,8.75,2.4442,355,24251,2.04328,4.08,52517,,,,,,,,,,,,,,,,,,99999,99999,99999,99999,99999,99999,99999,99999,99999,99999,99999,99999
4:59:10,1510427550,2017-11-11T19:12:34,0.836,246.2,28.27,24.77,30.45,828.170,2116.230,127.099998,8.90,2.4444,355,24250,2.04296,4.08,52511,,,,,,,,,,,,,,,,,,99999,99999,99999,99999,99999,99999,99999,99999,99999,99999,99999,99999
4:59:40,1510427580,2017-11-11T19:13:04,0.835,246.6,28.22,24.74,30.43,828.130,2116.000,129.133331,9.79,2.4443,355,24249,2.03984,4.08,52506,,,,,,,,,,,,,,,,,,99999,99999,99999,99999,99999,99999,99999,99999,99999,99999,99999,99999
5:00:10,1510427610,2017-11-11T19:13:34,0.835,247.0,28.19,24.71,30.41,828.110,2115.870,129.250000,9.70,2.4445,355,24250,2.04109,4.08,52501,,,,,,,,,,,,,,,,,,99999,99999,99999,99999,99999,99999,99999,99999,99999,99999,99999,99999
5:00:40,1510427640,2017-11-11T19:14:04,0.835,247.4,28.16,24.69,30.37,828.280,2115.810,130.383331,10.22,2.4445,355,24246,2.04234,4.08,52496,,,,,,,,,,,,,,,,,,99999,99999,99999,99999,99999,99999,99999,99999,99999,99999,99999,99999
5:01:10,1510427670,2017-11-11T19:14:34,0.835,247.8,28.16,24.69,30.35,828.250,2115.810,127.833336,10.84,2.4444,355,24250,2.04078,4.08,52491,,,,,,,,,,,,,,,,,,99999,99999,99999,99999,99999,99999,99999,99999,99999,99999,99999,99999
5:01:40,1510427700,2017-11-11T19:15:04,0.833,248.3,28.14,24.68,30.35,828.230,2115.750,132.149994,10.68,2.4446,355,24245,2.03672,4.08,52486,,,,,,,,,,,,,,,,,,99999,99999,99999,99999,99999,99999,99999,99999,99999,99999,99999,99999
5:02:10,1510427730,2017-11-11T19:15:34,0.834,248.7,28.12,24.61,30.32,828.200,2115.690,131.250000,10.11,2.4448,355,24244,2.03828,4.09,52482,,,,,,,,,,,,,,,,,,99999,99999,99999,99999,99999,99999,99999,99999,99999,99999,99999,99999
5:02:40,1510427760,2017-11-11T19:16:04,0.834,249.1,28.08,24.55,30.23,828.190,2115.520,128.500000,9.13,2.4450,355,24241,2.03891,4.09,52477,,,,,,,,,,,,,,,,,,99999,99999,99999,99999,99999,99999,99999,99999,99999,99999,99999,99999
5:03:10,1510427790,2017-11-11T19:16:34,0.836,249.5,28.02,24.51,30.17,828.230,2115.330,129.566666,9.31,2.4453,355,24240,2.04359,4.10,52473,,,,,,,,,,,,,,,,,,99999,99999,99999,99999,99999,99999,99999,99999,99999,99999,99999,99999
5:03:40,1510427820,2017-11-11T19:17:04,0.837,249.9,27.97,24.50,30.15,828.210,2115.100,128.766663,9.57,2.4454,355,24240,2.04702,4.08,52468,,,,,,,,,,,,,,,,,,99999,99999,99999,99999,99999,99999,99999,99999,99999,99999,99999,99999
5:04:10,1510427850,2017-11-11T19:17:34,0.838,250.3,27.93,24.50,30.08,828.220,2114.970,127.716667,9.33,2.4456,355,24241,2.05015,4.11,52463,,,,,,,,,,,,,,,,,,99999,99999,99999,99999,99999,99999,99999,99999,99999,99999,99999,99999
5:04:40,1510427880,2017-11-11T19:18:04,0.832,250.8,27.88,24.48,30.05,828.240,2114.870,128.833328,9.33,2.4459,355,24239,2.03516,4.11,52458,,,,,,,,,,,,,,,,,,99999,99999,99999,99999,99999,99999,99999,99999,99999,99999,99999,99999
5:05:10,1510427910,2017-11-11T19:18:34,0.834,251.2,27.85,24.48,30.01,828.270,2114.750,129.166672,9.91,2.4459,355,24240,2.04047,4.08,52453,,,,,,,,,,,,,,,,,,99999,99999,99999,99999,99999,99999,99999,99999,99999,99999,99999,99999
5:05:40,1510427940,2017-11-11T19:19:04,0.824,251.6,27.84,24.48,30.00,828.140,2114.750,140.716660,8.89,2.4462,355,24242,2.01620,4.08,52448,,,,,,,,,,,,,,,,,,99999,99999,99999,99999,99999,99999,99999,99999,99999,99999,99999,99999
5:06:10,1510427970,2017-11-11T19:19:34,0.835,252.0,27.80,24.47,29.97,828.310,2114.520,130.966660,9.31,2.4462,355,24242,2.04359,4.09,52443,,,,,,,,,,,,,,,,,,99999,99999,99999,99999,99999,99999,99999,99999,99999,99999,99999,99999
5:06:40,1510428000,2017-11-11T19:20:04,0.833,252.4,27.77,24.41,29.95,828.310,2114.450,129.350006,10.00,2.4462,355,24238,2.03703,4.09,52439,,,,,,,,,,,,,,,,,,99999,99999,99999,99999,99999,99999,99999,99999,99999,99999,99999,99999
5:07:10,1510428030,2017-11-11T19:20:34,0.832,252.8,27.72,24.34,29.85,828.330,2114.270,129.933334,9.90,2.4464,355,24237,2.03641,4.09,52434,,,,,,,,,,,,,,,,,,99999,99999,99999,99999,99999,99999,99999,99999,99999,99999,99999,99999
5:07:40,1510428060,2017-11-11T19:21:04,0.833,253.3,27.67,24.28,29.83,828.150,2114.100,130.983337,9.55,2.4467,355,24236,2.03891,4.09,52430,,,,,,,,,,,,,,,,,,99999,99999,99999,99999,99999,99999,99999,99999,99999,99999,99999,99999
5:08:10,1510428090,2017-11-11T19:21:34,0.836,253.7,27.60,24.25,29.74,828.240,2113.850,128.766663,9.47,2.4470,355,24235,2.04608,4.08,52425,,,,,,,,,,,,,,,,,,99999,99999,99999,99999,99999,99999,99999,99999,99999,99999,99999,99999
5:08:40,1510428120,2017-11-11T19:22:04,0.834,254.1,27.52,24.22,29.69,828.290,2113.550,131.066666,9.62,2.4473,355,24233,2.04171,4.08,52420,,,,,,,,,,,,,,,,,,99999,99999,99999,99999,99999,99999,99999,99999,99999,99999,99999,99999
5:09:10,1510428150,2017-11-11T19:22:34,0.832,254.5,27.46,24.21,29.61,828.170,2113.370,128.399994,9.48,2.4476,355,24231,2.03548,4.08,52415,,,,,,,,,,,,,,,,,,99999,99999,99999,99999,99999,99999,99999,99999,99999,99999,99999,99999
5:09:40,1510428180,2017-11-11T19:23:04,0.831,254.9,27.41,24.17,29.57,828.210,2113.140,126.949997,10.43,2.4476,355,24232,2.03361,4.08,52410,,,,,,,,,,,,,,,,,,99999,99999,99999,99999,99999,99999,99999,99999,99999,99999,99999,99999
5:10:10,1510428210,2017-11-11T19:23:34,0.831,255.3,27.38,24.14,29.53,828.240,2113.080,132.866669,9.96,2.4478,355,24230,2.03392,4.08,52405,,,,,,,,,,,,,,,,,,99999,99999,99999,99999,99999,99999,99999,99999,99999,99999,99999,99999
5:10:40,1510428240,2017-11-11T19:24:04,0.831,255.8,27.31,24.09,29.47,828.180,2112.850,129.133331,10.45,2.4481,355,24226,2.03423,4.09,52401,,,,,,,,,,,,,,,,,,99999,99999,99999,99999,99999,99999,99999,99999,99999,99999,99999,99999
5:11:10,1510428270,2017-11-11T19:24:34,0.834,256.2,27.25,24.00,29.41,828.160,2112.590,125.333336,10.16,2.4483,355,24229,2.04078,4.10,52397,,,,,,,,,,,,,,,,,,99999,99999,99999,99999,99999,99999,99999,99999,99999,99999,99999,99999
5:11:40,1510428300,2017-11-11T19:25:04,0.830,256.6,27.19,23.96,29.33,828.200,2112.430,127.533333,10.88,2.4485,355,24227,2.03236,4.10,52393,,,,,,,,,,,,,,,,,,99999,99999,99999,99999,99999,99999,99999,99999,99999,99999,99999,99999
5:12:10,1510428330,2017-11-11T19:25:34,0.831,257.0,27.13,23.93,29.26,828.270,2112.180,128.216660,9.95,2.4489,355,24224,2.03454,4.08,52389,,,,,,,,,,,,,,,,,,99999,99999,99999,99999,99999,99999,99999,99999,99999,99999,99999,99999
5:12:40,1510428360,2017-11-11T19:26:04,0.833,257.4,27.09,23.91,29.26,828.280,2112.070,129.250000,10.92,2.4489,355,24223,2.03953,4.08,52384,,,,,,,,,,,,,,,,,,99999,99999,99999,99999,99999,99999,99999,99999,99999,99999,99999,99999
5:13:10,1510428390,2017-11-11T19:26:34,0.829,257.8,27.07,23.90,29.18,828.310,2112.010,134.433334,10.25,2.4491,355,24223,2.02987,4.08,52379,,,,,,,,,,,,,,,,,,99999,99999,99999,99999,99999,99999,99999,99999,99999,99999,99999,99999
5:13:40,1510428420,2017-11-11T19:27:04,0.828,258.2,27.04,23.88,29.16,828.180,2111.880,127.800003,9.63,2.4493,355,24224,2.02893,4.09,52375,,,,,,,,,,,,,,,,,,99999,99999,99999,99999,99999,99999,99999,99999,99999,99999,99999,99999
5:14:10,1510428450,2017-11-11T19:27:34,0.831,258.7,27.03,23.87,29.15,828.270,2111.880,127.166664,9.76,2.4494,355,24222,2.03516,4.08,52370,,,,,,,,,,,,,,,,,,99999,99999,99999,99999,99999,99999,99999,99999,99999,99999,99999,99999
5:14:40,1510428480,2017-11-11T19:28:04,0.833,259.1,27.02,23.87,29.13,828.220,2111.760,127.250000,9.75,2.4493,355,24220,2.04015,4.08,52364,,,,,,,,,,,,,,,,,,99999,99999,99999,99999,99999,99999,99999,99999,99999,99999,99999,99999
5:15:10,1510428510,2017-11-11T19:28:34,0.831,259.5,27.01,23.83,29.11,828.300,2111.760,128.216660,10.04,2.4494,355,24224,2.03516,4.09,52360,,,,,,,,,,,,,,,,,,99999,99999,99999,99999,99999,99999,99999,99999,99999,99999,99999,99999
5:15:40,1510428540,2017-11-11T19:29:04,0.830,259.9,26.98,23.79,29.08,828.280,2111.650,130.149994,10.31,2.4494,355,24220,2.03236,4.08,52356,,,,,,,,,,,,,,,,,,99999,99999,99999,99999,99999,99999,99999,99999,99999,99999,99999,99999
5:16:10,1510428570,2017-11-11T19:29:34,0.831,260.3,26.97,23.80,29.07,828.230,2111.650,128.383331,10.08,2.4495,355,24221,2.03548,4.08,52351,,,,,,,,,,,,,,,,,,99999,99999,99999,99999,99999,99999,99999,99999,99999,99999,99999,99999
5:16:40,1510428600,2017-11-11T19:30:04,0.832,260.7,26.97,23.79,29.08,828.280,2111.650,128.916672,10.25,2.4495,355,24220,2.03922,4.08,52346,,,,,,,,,,,,,,,,,,99999,99999,99999,99999,99999,99999,99999,99999,99999,99999,99999,99999
5:17:10,1510428630,2017-11-11T19:30:34,0.832,261.2,26.96,23.78,29.05,828.230,2111.590,129.133331,10.54,2.4495,355,24218,2.03797,4.11,52342,,,,,,,,,,,,,,,,,,99999,99999,99999,99999,99999,99999,99999,99999,99999,99999,99999,99999
5:17:40,1510428660,2017-11-11T19:31:04,0.831,261.6,26.98,23.77,29.10,828.170,2111.650,127.416664,10.60,2.4494,355,24221,2.03641,4.11,52340,,,,,,,,,,,,,,,,,,99999,99999,99999,99999,99999,99999,99999,99999,99999,99999,99999,99999
5:18:10,1510428690,2017-11-11T19:31:34,0.832,262.0,26.99,23.78,29.05,828.220,2111.710,129.333328,10.64,2.4494,355,24224,2.03703,4.10,52338,,,,,,,,,,,,,,,,,,99999,99999,99999,99999,99999,99999,99999,99999,99999,99999,99999,99999
5:18:40,1510428720,2017-11-11T19:32:04,0.831,262.4,27.00,23.78,29.08,828.140,2111.710,130.183334,10.32,2.4493,355,24222,2.03516,4.10,52336,,,,,,,,,,,,,,,,,,99999,99999,99999,99999,99999,99999,99999,99999,99999,99999,99999,99999
5:19:10,1510428750,2017-11-11T19:32:34,0.830,262.8,27.02,23.76,29.13,828.160,2111.760,128.449997,11.09,2.4491,355,24223,2.03392,4.10,52334,,,,,,,,,,,,,,,,,,99999,99999,99999,99999,99999,99999,99999,99999,99999,99999,99999,99999
5:19:40,1510428780,2017-11-11T19:33:04,0.831,263.2,27.05,23.77,29.11,828.180,2111.950,131.616669,10.55,2.4492,355,24223,2.03641,4.10,52332,,,,,,,,,,,,,,,,,,99999,99999,99999,99999,99999,99999,99999,99999,99999,99999,99999,99999
5:20:10,1510428810,2017-11-11T19:33:34,0.830,263.6,27.07,23.78,29.15,828.180,2112.010,129.233337,10.38,2.4491,355,24222,2.03392,4.10,52330,,,,,,,,,,,,,,,,,,99999,99999,99999,99999,99999,99999,99999,99999,99999,99999,99999,99999
5:20:40,1510428840,2017-11-11T19:34:04,0.832,264.1,27.09,23.77,29.15,828.170,2112.070,127.733330,10.07,2.4490,355,24220,2.03797,4.10,52328,,,,,,,,,,,,,,,,,,99999,99999,99999,99999,99999,99999,99999,99999,99999,99999,99999,99999
5:21:10,1510428870,2017-11-11T19:34:34,0.836,264.5,27.10,23.78,29.21,828.110,2112.110,124.716667,10.39,2.4490,355,24221,2.04765,4.10,52325,,,,,,,,,,,,,,,,,,99999,99999,99999,99999,99999,99999,99999,99999,99999,99999,99999,99999
5:21:40,1510428900,2017-11-11T19:35:04,0.828,264.9,27.13,23.76,29.18,828.270,2112.180,129.899994,10.14,2.4488,355,24219,2.02863,4.10,52323,,,,,,,,,,,,,,,,,,99999,99999,99999,99999,99999,99999,99999,99999,99999,99999,99999,99999
5:22:10,1510428930,2017-11-11T19:35:34,0.827,265.3,27.13,23.73,29.25,828.130,2112.180,139.266663,10.16,2.4488,355,24220,2.02489,4.10,52321,,,,,,,,,,,,,,,,,,99999,99999,99999,99999,99999,99999,99999,99999,99999,99999,99999,99999
5:22:40,1510428960,2017-11-11T19:36:04,0.826,265.7,27.12,23.71,29.21,828.190,2112.180,139.633331,10.36,2.4489,355,24218,2.02365,4.10,52318,,,,,,,,,,,,,,,,,,99999,99999,99999,99999,99999,99999,99999,99999,99999,99999,99999,99999
5:23:10,1510428990,2017-11-11T19:36:34,0.829,266.1,27.11,23.66,29.21,828.220,2112.110,129.149994,10.73,2.4488,355,24218,2.03018,4.10,52315,,,,,,,,,,,,,,,,,,99999,99999,99999,99999,99999,99999,99999,99999,99999,99999,99999,99999
5:23:40,1510429020,2017-11-11T19:37:04,0.823,266.6,27.10,23.63,29.18,828.280,2112.110,140.216660,10.33,2.4490,355,24214,2.01465,4.09,52312,,,,,,,,,,,,,,,,,,99999,99999,99999,99999,99999,99999,99999,99999,99999,99999,99999,99999
5:24:10,1510429050,2017-11-11T19:37:34,0.830,267.0,27.07,23.57,29.15,828.340,2112.010,128.533340,10.99,2.4490,355,24213,2.03330,4.09,52309,,,,,,,,,,,,,,,,,,99999,99999,99999,99999,99999,99999,99999,99999,99999,99999,99999,99999
5:24:40,1510429080,2017-11-11T19:38:04,0.819,267.4,27.04,23.54,29.11,828.260,2111.880,143.566666,10.24,2.4492,355,24212,2.00690,4.09,52305,,,,,,,,,,,,,,,,,,99999,99999,99999,99999,99999,99999,99999,99999,99999,99999,99999,99999
5:25:10,1510429110,2017-11-11T19:38:34,0.835,267.8,27.00,23.48,29.11,828.330,2111.710,125.466667,10.65,2.4493,355,24210,2.04484,4.09,52302,,,,,,,,,,,,,,,,,,99999,99999,99999,99999,99999,99999,99999,99999,99999,99999,99999,99999
5:25:40,1510429140,2017-11-11T19:39:04,0.828,268.2,26.96,23.40,29.03,828.330,2111.590,131.750000,10.51,2.4495,355,24209,2.02893,4.09,52298,,,,,,,,,,,,,,,,,,99999,99999,99999,99999,99999,99999,99999,99999,99999,99999,99999,99999
5:26:10,1510429170,2017-11-11T19:39:34,0.828,268.6,26.91,23.35,29.00,828.260,2111.460,128.683334,11.02,2.4497,355,24205,2.02831,4.09,52294,,,,,,,,,,,,,,,,,,99999,99999,99999,99999,99999,99999,99999,99999,99999,99999,99999,99999
5:26:40,1510429200,2017-11-11T19:40:04,0.832,269.0,26.86,23.28,28.97,828.300,2111.240,127.733330,11.50,2.4498,355,24205,2.03703,4.09,52290,,,,,,,,,,,,,,,,,,99999,99999,99999,99999,99999,99999,99999,99999,99999,99999,99999,99999
5:27:10,1510429230,2017-11-11T19:40:34,0.825,269.5,26.81,23.24,28.92,828.100,2111.110,129.966660,10.50,2.4502,355,24204,2.02085,4.08,52286,,,,,,,,,,,,,,,,,,99999,99999,99999,99999,99999,99999,99999,99999,99999,99999,99999,99999
5:27:40,1510429260,2017-11-11T19:41:04,0.828,269.9,26.77,23.19,28.84,828.270,2110.990,126.599998,11.25,2.4503,355,24203,2.02987,4.09,52282,,,,,,,,,,,,,,,,,,99999,99999,99999,99999,99999,99999,99999,99999,99999,99999,99999,99999
5:28:10,1510429290,2017-11-11T19:41:34,0.823,270.3,26.70,23.14,28.79,828.210,2110.690,132.616669,11.07,2.4505,355,24202,2.01651,4.09,52278,,,,,,,,,,,,,,,,,,99999,99999,99999,99999,99999,99999,99999,99999,99999,99999,99999,99999
5:28:40,1510429320,2017-11-11T19:42:04,0.826,270.7,26.66,23.09,28.75,828.300,2110.570,128.233337,11.03,2.4507,355,24200,2.02489,4.08,52274,,,,,,,,,,,,,,,,,,99999,99999,99999,99999,99999,99999,99999,99999,99999,99999,99999,99999
5:29:10,1510429350,2017-11-11T19:42:34,0.829,271.1,26.61,23.05,28.67,828.440,2110.340,124.833336,10.71,2.4509,355,24197,2.03205,4.08,52270,,,,,,,,,,,,,,,,,,99999,99999,99999,99999,99999,99999,99999,99999,99999,99999,99999,99999
5:29:40,1510429380,2017-11-11T19:43:04,0.826,271.5,26.54,23.02,28.68,828.410,2110.170,127.916664,10.90,2.4513,355,24195,2.02365,4.08,52265,,,,,,,,,,,,,,,,,,99999,99999,99999,99999,99999,99999,99999,99999,99999,99999,99999,99999
5:30:10,1510429410,2017-11-11T19:43:34,0.826,271.9,26.47,22.97,28.55,828.290,2109.860,130.633331,11.00,2.4515,355,24197,2.02427,4.08,52261,,,,,,,,,,,,,,,,,,99999,99999,99999,99999,99999,99999,99999,99999,99999,99999,99999,99999
5:30:40,1510429440,2017-11-11T19:44:04,0.829,272.4,26.39,22.92,28.53,828.410,2109.620,127.333336,11.36,2.4518,355,24194,2.03267,4.08,52257,,,,,,,,,,,,,,,,,,99999,99999,99999,99999,99999,99999,99999,99999,99999,99999,99999,99999
5:31:10,1510429470,2017-11-11T19:44:34,0.820,272.8,26.32,22.88,28.42,828.480,2109.330,136.133331,11.23,2.4521,355,24194,2.01062,4.08,52253,,,,,,,,,,,,,,,,,,99999,99999,99999,99999,99999,99999,99999,99999,99999,99999,99999,99999
5:31:40,1510429500,2017-11-11T19:45:04,0.828,273.2,26.24,22.82,28.35,828.390,2109.100,127.683334,11.79,2.4524,355,24190,2.03049,4.08,52249,,,,,,,,,,,,,,,,,,99999,99999,99999,99999,99999,99999,99999,99999,99999,99999,99999,99999
5:32:10,1510429530,2017-11-11T19:45:34,0.826,273.6,26.15,22.78,28.27,828.390,2108.790,127.949997,12.28,2.4527,355,24190,2.02645,4.09,52245,,,,,,,,,,,,,,,,,,99999,99999,99999,99999,99999,99999,99999,99999,99999,99999,99999,99999
5:32:40,1510429560,2017-11-11T19:46:04,0.825,274.0,26.09,22.73,28.18,828.340,2108.620,125.233330,12.01,2.4530,355,24190,2.02489,4.08,52241,,,,,,,,,,,,,,,,,,99999,99999,99999,99999,99999,99999,99999,99999,99999,99999,99999,99999
5:33:10,1510429590,2017-11-11T19:46:34,0.828,274.4,26.02,22.70,28.08,828.340,2108.330,125.800003,11.94,2.4533,355,24188,2.03049,4.08,52237,,,,,,,,,,,,,,,,,,99999,99999,99999,99999,99999,99999,99999,99999,99999,99999,99999,99999
5:33:40,1510429620,2017-11-11T19:47:04,0.827,274.8,25.94,22.69,28.08,828.380,2108.080,128.000000,12.02,2.4536,355,24187,2.02800,4.08,52233,,,,,,,,,,,,,,,,,,99999,99999,99999,99999,99999,99999,99999,99999,99999,99999,99999,99999
5:34:10,1510429650,2017-11-11T19:47:34,0.824,275.2,25.88,22.66,27.97,828.360,2107.850,125.733330,11.99,2.4539,355,24184,2.02085,4.08,52229,,,,,,,,,,,,,,,,,,99999,99999,99999,99999,99999,99999,99999,99999,99999,99999,99999,99999
5:34:40,1510429680,2017-11-11T19:48:04,0.826,275.7,25.82,22.64,27.91,828.270,2107.660,124.233330,12.43,2.4541,355,24185,2.02614,4.08,52225,,,,,,,,,,,,,,,,,,99999,99999,99999,99999,99999,99999,99999,99999,99999,99999,99999,99999
5:35:10,1510429710,2017-11-11T19:48:34,0.826,276.1,25.76,22.63,27.83,828.280,2107.370,126.933334,11.82,2.4543,355,24186,2.02676,4.08,52221,,,,,,,,,,,,,,,,,,99999,99999,99999,99999,99999,99999,99999,99999,99999,99999,99999,99999
5:35:40,1510429740,2017-11-11T19:49:04,0.822,276.5,25.70,22.60,27.77,828.300,2107.200,127.633331,12.04,2.4546,355,24187,2.01837,4.08,52217,,,,,,,,,,,,,,,,,,99999,99999,99999,99999,99999,99999,99999,99999,99999,99999,99999,99999
5:36:10,1510429770,2017-11-11T19:49:34,0.824,276.9,25.66,22.55,27.73,828.420,2107.010,124.266670,11.49,2.4548,355,24186,2.02179,4.08,52213,,,,,,,,,,,,,,,,,,99999,99999,99999,99999,99999,99999,99999,99999,99999,99999,99999,99999
5:36:40,1510429800,2017-11-11T19:50:04,0.817,277.3,25.61,22.55,27.71,828.290,2106.910,137.449997,11.83,2.4550,355,24184,2.00536,4.08,52209,,,,,,,,,,,,,,,,,,99999,99999,99999,99999,99999,99999,99999,99999,99999,99999,99999,99999
5:37:10,1510429830,2017-11-11T19:50:34,0.823,277.7,25.57,22.52,27.58,828.410,2106.780,126.583336,11.76,2.4552,355,24182,2.02054,4.08,52205,,,,,,,,,,,,,,,,,,99999,99999,99999,99999,99999,99999,99999,99999,99999,99999,99999,99999
5:37:40,1510429860,2017-11-11T19:51:04,0.826,278.1,25.55,22.49,27.55,828.440,2106.720,125.783333,12.15,2.4553,355,24184,2.02738,4.08,52201,,,,,,,,,,,,,,,,,,99999,99999,99999,99999,99999,99999,99999,99999,99999,99999,99999,99999
5:38:10,1510429890,2017-11-11T19:51:34,0.825,278.5,25.51,22.44,27.52,828.450,2106.560,124.016670,12.30,2.4554,355,24182,2.02489,4.08,52196,,,,,,,,,,,,,,,,,,99999,99999,99999,99999,99999,99999,99999,99999,99999,99999,99999,99999
5:38:40,1510429920,2017-11-11T19:52:04,0.826,278.9,25.48,22.43,27.49,828.430,2106.430,126.033333,12.19,2.4555,355,24177,2.02800,4.08,52192,,,,,,,,,,,,,,,,,,99999,99999,99999,99999,99999,99999,99999,99999,99999,99999,99999,99999
5:39:10,1510429950,2017-11-11T19:52:34,0.827,279.4,25.46,22.39,27.47,828.430,2106.360,124.383331,12.66,2.4555,355,24179,2.03080,4.08,52188,,,,,,,,,,,,,,,,,,99999,99999,99999,99999,99999,99999,99999,99999,99999,99999,99999,99999
5:39:40,1510429980,2017-11-11T19:53:04,0.826,279.8,25.44,22.36,27.42,828.410,2106.310,125.533333,12.56,2.4557,355,24177,2.02769,4.08,52184,,,,,,,,,,,,,,,,,,99999,99999,99999,99999,99999,99999,99999,99999,99999,99999,99999,99999
5:40:10,1510430010,2017-11-11T19:53:34,0.824,280.2,25.42,22.33,27.42,828.360,2106.240,127.266670,12.42,2.4558,355,24177,2.02334,4.08,52180,,,,,,,,,,,,,,,,,,99999,99999,99999,99999,99999,99999,99999,99999,99999,99999,99999,99999
5:40:40,1510430040,2017-11-11T19:54:04,0.823,280.6,25.41,22.30,27.41,828.420,2106.200,126.566666,12.57,2.4558,355,24176,2.02116,4.08,52176,,,,,,,,,,,,,,,,,,99999,99999,99999,99999,99999,99999,99999,99999,99999,99999,99999,99999
5:41:10,1510430070,2017-11-11T19:54:34,0.824,281.0,25.40,22.25,27.39,828.340,2106.200,125.900002,12.24,2.4559,355,24173,2.02396,4.08,52172,,,,,,,,,,,,,,,,,,99999,99999,99999,99999,99999,99999,99999,99999,99999,99999,99999,99999
5:41:40,1510430100,2017-11-11T19:55:04,0.822,281.4,25.41,22.23,27.35,828.360,2106.200,124.800003,12.88,2.4557,355,24174,2.01837,4.08,52168,,,,,,,,,,,,,,,,,,99999,99999,99999,99999,99999,99999,99999,99999,99999,99999,99999,99999
5:42:10,1510430130,2017-11-11T19:55:34,0.827,281.8,25.40,22.21,27.34,828.370,2106.200,124.883331,13.17,2.4558,355,24173,2.02987,4.08,52163,,,,,,,,,,,,,,,,,,99999,99999,99999,99999,99999,99999,99999,99999,99999,99999,99999,99999
5:42:40,1510430160,2017-11-11T19:56:04,0.823,282.2,25.39,22.19,27.38,828.430,2106.070,124.133331,12.60,2.4558,355,24171,2.01992,4.08,52159,,,,,,,,,,,,,,,,,,99999,99999,99999,99999,99999,99999,99999,99999,99999,99999,99999,99999
5:43:10,1510430190,2017-11-11T19:56:34,0.824,282.7,25.40,22.17,27.34,828.370,2106.200,126.816666,12.32,2.4559,355,24171,2.02272,4.08,52155,,,,,,,,,,,,,,,,,,99999,99999,99999,99999,99999,99999,99999,99999,99999,99999,99999,99999
5:43:40,1510430220,2017-11-11T19:57:04,0.822,283.1,25.41,22.17,27.31,828.360,2106.200,125.500000,12.08,2.4558,355,24169,2.01775,4.08,52151,,,,,,,,,,,,,,,,,,99999,99999,99999,99999,99999,99999,99999,99999,99999,99999,99999,99999
5:44:10,1510430250,2017-11-11T19:57:34,0.821,283.5,25.44,22.14,27.34,828.410,2106.310,125.516670,13.16,2.4556,355,24169,2.01713,4.08,52147,,,,,,,,,,,,,,,,,,99999,99999,99999,99999,99999,99999,99999,99999,99999,99999,99999,99999
5:44:40,1510430280,2017-11-11T19:58:04,0.825,283.9,25.42,22.12,27.34,828.340,2106.240,125.699997,12.24,2.4558,355,24170,2.02614,4.08,52143,,,,,,,,,,,,,,,,,,99999,99999,99999,99999,99999,99999,99999,99999,99999,99999,99999,99999
5:45:10,1510430310,2017-11-11T19:58:34,0.824,284.3,25.43,22.12,27.31,828.410,2106.260,126.383331,12.42,2.4557,355,24171,2.02365,4.08,52139,,,,,,,,,,,,,,,,,,99999,99999,99999,99999,99999,99999,99999,99999,99999,99999,99999,99999
5:45:40,1510430340,2017-11-11T19:59:04,0.824,284.7,25.43,22.08,27.33,828.440,2106.260,123.550003,13.58,2.4555,355,24170,2.02458,4.08,52134,,,,,,,,,,,,,,,,,,99999,99999,99999,99999,99999,99999,99999,99999,99999,99999,99999,99999
5:46:10,1510430370,2017-11-11T19:59:34,0.824,285.1,25.41,22.06,27.33,828.450,2106.200,126.483330,12.29,2.4558,355,24170,2.02365,4.08,52130,,,,,,,,,,,,,,,,,,99999,99999,99999,99999,99999,99999,99999,99999,99999,99999,99999,99999
5:46:40,1510430400,2017-11-11T20:00:04,0.825,285.5,25.41,22.02,27.33,828.500,2106.200,126.966667,12.48,2.4558,355,24169,2.02489,4.08,52126,,,,,,,,,,,,,,,,,,99999,99999,99999,99999,99999,99999,99999,99999,99999,99999,99999,99999
5:47:10,1510430430,2017-11-11T20:00:34,0.826,286.0,25.40,21.99,27.33,828.390,2106.200,126.366669,11.94,2.4559,355,24166,2.02800,4.08,52122,,,,,,,,,,,,,,,,,,99999,99999,99999,99999,99999,99999,99999,99999,99999,99999,99999,99999
5:47:40,1510430460,2017-11-11T20:01:04,0.824,286.4,25.38,21.96,27.30,828.340,2106.070,125.683334,12.24,2.4559,355,24165,2.02334,4.08,52118,,,,,,,,,,,,,,,,,,99999,99999,99999,99999,99999,99999,99999,99999,99999,99999,99999,99999
5:48:10,1510430490,2017-11-11T20:01:34,0.821,286.8,25.37,21.93,27.30,828.570,2106.010,125.033333,11.59,2.4560,355,24164,2.01713,4.08,52114,,,,,,,,,,,,,,,,,,99999,99999,99999,99999,99999,99999,99999,99999,99999,99999,99999,99999
5:48:40,1510430520,2017-11-11T20:02:04,0.822,287.2,25.34,21.90,27.26,828.460,2105.950,124.966667,12.07,2.4561,355,24163,2.01992,4.08,52110,,,,,,,,,,,,,,,,,,99999,99999,99999,99999,99999,99999,99999,99999,99999,99999,99999,99999
5:49:10,1510430550,2017-11-11T20:02:34,0.827,287.6,25.30,21.86,27.23,828.490,2105.840,124.250000,12.48,2.4563,355,24162,2.03080,4.08,52106,,,,,,,,,,,,,,,,,,99999,99999,99999,99999,99999,99999,99999,99999,99999,99999,99999,99999
5:49:40,1510430580,2017-11-11T20:03:04,0.821,288.0,25.27,21.82,27.18,828.480,2105.720,126.166664,12.09,2.4564,355,24161,2.01589,4.08,52102,,,,,,,,,,,,,,,,,,99999,99999,99999,99999,99999,99999,99999,99999,99999,99999,99999,99999
5:50:10,1510430610,2017-11-11T20:03:34,0.823,288.4,25.23,21.78,27.18,828.540,2105.550,125.349998,12.25,2.4566,355,24159,2.02272,4.08,52098,,,,,,,,,,,,,,,,,,99999,99999,99999,99999,99999,99999,99999,99999,99999,99999,99999,99999
5:50:40,1510430640,2017-11-11T20:04:04,0.823,288.8,25.20,21.75,27.15,828.490,2105.490,126.250000,12.39,2.4567,355,24159,2.02085,4.08,52094,,,,,,,,,,,,,,,,,,99999,99999,99999,99999,99999,99999,99999,99999,99999,99999,99999,99999
5:51:10,1510430670,2017-11-11T20:04:34,0.820,289.2,25.18,21.71,27.08,828.490,2105.420,124.683334,11.81,2.4569,355,24158,2.01496,4.08,52090,,,,,,,,,,,,,,,,,,99999,99999,99999,99999,99999,99999,99999,99999,99999,99999,99999,99999
5:51:40,1510430700,2017-11-11T20:05:04,0.823,289.7,25.15,21.68,27.08,828.580,2105.300,123.883331,12.06,2.4570,355,24154,2.02179,4.08,52086,,,,,,,,,,,,,,,,,,99999,99999,99999,99999,99999,99999,99999,99999,99999,99999,99999,99999
5:52:10,1510430730,2017-11-11T20:05:34,0.816,290.1,25.12,21.63,27.07,828.540,2105.130,134.350006,11.74,2.4571,355,24157,2.00474,4.08,52083,,,,,,,,,,,,,,,,,,99999,99999,99999,99999,99999,99999,99999,99999,99999,99999,99999,99999
5:52:40,1510430760,2017-11-11T20:06:04,0.820,290.5,25.11,21.62,27.00,828.650,2105.130,124.533333,12.87,2.4570,355,24153,2.01496,4.08,52079,,,,,,,,,,,,,,,,,,99999,99999,99999,99999,99999,99999,99999,99999,99999,99999,99999,99999
5:53:10,1510430790,2017-11-11T20:06:34,0.826,290.9,25.08,21.59,27.00,828.660,2105.010,124.866669,12.15,2.4572,355,24154,2.02863,4.08,52075,,,,,,,,,,,,,,,,,,99999,99999,99999,99999,99999,99999,99999,99999,99999,99999,99999,99999
5:53:40,1510430820,2017-11-11T20:07:04,0.819,291.3,25.06,21.56,26.95,828.580,2104.940,125.483330,12.27,2.4573,355,24152,2.01279,4.08,52071,,,,,,,,,,,,,,,,,,99999,99999,99999,99999,99999,99999,99999,99999,99999,99999,99999,99999
5:54:10,1510430850,2017-11-11T20:07:34,0.824,291.7,25.04,21.55,26.94,828.560,2104.880,126.250000,12.36,2.4573,355,24151,2.02396,4.08,52067,,,,,,,,,,,,,,,,,,99999,99999,99999,99999,99999,99999,99999,99999,99999,99999,99999,99999
5:54:40,1510430880,2017-11-11T20:08:04,0.822,292.1,25.03,21.51,26.92,828.640,2104.880,125.783333,12.81,2.4574,355,24151,2.01992,4.08,52063,,,,,,,,,,,,,,,,,,99999,99999,99999,99999,99999,99999,99999,99999,99999,99999,99999,99999
5:55:10,1510430910,2017-11-11T20:08:34,0.823,292.5,25.01,21.50,26.97,828.590,2104.840,126.033333,11.69,2.4576,355,24149,2.02241,4.08,52059,,,,,,,,,,,,,,,,,,99999,99999,99999,99999,99999,99999,99999,99999,99999,99999,99999,99999
5:55:40,1510430940,2017-11-11T20:09:04,0.819,292.9,25.00,21.48,26.86,828.600,2104.720,126.583336,11.84,2.4576,355,24148,2.01372,4.08,52055,,,,,,,,,,,,,,,,,,99999,99999,99999,99999,99999,99999,99999,99999,99999,99999,99999,99999
5:56:10,1510430970,2017-11-11T20:09:34,0.820,293.4,24.98,21.44,26.86,828.490,2104.650,124.016670,12.17,2.4576,355,24149,2.01558,4.08,52051,,,,,,,,,,,,,,,,,,99999,99999,99999,99999,99999,99999,99999,99999,99999,99999,99999,99999
5:56:40,1510431000,2017-11-11T20:10:04,0.824,293.8,24.97,21.44,26.88,828.520,2104.650,126.349998,11.76,2.4577,355,24145,2.02489,4.08,52047,,,,,,,,,,,,,,,,,,99999,99999,99999,99999,99999,99999,99999,99999,99999,99999,99999,99999
5:57:10,1510431030,2017-11-11T20:10:34,0.824,294.2,24.97,21.41,26.84,828.380,2104.650,125.500000,12.47,2.4576,355,24149,2.02427,4.08,52043,,,,,,,,,,,,,,,,,,99999,99999,99999,99999,99999,99999,99999,99999,99999,99999,99999,99999
5:57:40,1510431060,2017-11-11T20:11:04,0.821,294.6,24.95,21.39,26.83,828.490,2104.590,125.383331,11.63,2.4579,355,24145,2.01868,4.08,52039,,,,,,,,,,,,,,,,,,99999,99999,99999,99999,99999,99999,99999,99999,99999,99999,99999,99999
5:58:10,1510431090,2017-11-11T20:11:34,0.818,295.0,24.93,21.36,26.83,828.610,2104.550,128.600006,11.23,2.4580,355,24146,2.01155,4.08,52035,,,,,,,,,,,,,,,,,,99999,99999,99999,99999,99999,99999,99999,99999,99999,99999,99999,99999
5:58:40,1510431120,2017-11-11T20:12:04,0.824,295.4,24.90,21.34,26.81,828.530,2104.420,124.833336,11.64,2.4581,355,24143,2.02551,4.08,52030,,,,,,,,,,,,,,,,,,99999,99999,99999,99999,99999,99999,99999,99999,99999,99999,99999,99999
5:59:10,1510431150,2017-11-11T20:12:34,0.821,295.8,24.87,21.35,26.76,828.600,2104.360,123.066666,11.57,2.4583,355,24147,2.01868,4.08,52026,,,,,,,,,,,,,,,,,,99999,99999,99999,99999,99999,99999,99999,99999,99999,99999,99999,99999
5:59:40,1510431180,2017-11-11T20:13:04,0.821,296.2,24.86,21.32,26.75,828.460,2104.240,121.483330,12.92,2.4580,355,24144,2.01899,4.08,52022,,,,,,,,,,,,,,,,,,99999,99999,99999,99999,99999,99999,99999,99999,99999,99999,99999,99999
6:00:10,1510431210,2017-11-11T20:13:34,0.820,296.6,24.82,21.30,26.69,828.470,2104.130,124.199997,12.05,2.4583,355,24141,2.01527,4.08,52018,,,,,,,,,,,,,,,,,,99999,99999,99999,99999,99999,99999,99999,99999,99999,99999,99999,99999
6:00:40,1510431240,2017-11-11T20:14:04,0.822,297.1,24.78,21.28,26.69,828.560,2104.000,124.233330,12.26,2.4585,355,24142,2.02054,4.08,52014,,,,,,,,,,,,,,,,,,99999,99999,99999,99999,99999,99999,99999,99999,99999,99999,99999,99999
6:01:10,1510431270,2017-11-11T20:14:34,0.827,297.5,24.75,21.25,26.67,828.700,2103.880,121.666664,13.87,2.4584,355,24141,2.03330,4.08,52010,,,,,,,,,,,,,,,,,,99999,99999,99999,99999,99999,99999,99999,99999,99999,99999,99999,99999
6:01:40,1510431300,2017-11-11T20:15:04,0.823,297.9,24.80,21.24,26.76,828.580,2104.070,126.983330,13.93,2.4582,355,24142,2.02272,4.08,52006,,,,,,,,,,,,,,,,,,99999,99999,99999,99999,99999,99999,99999,99999,99999,99999,99999,99999
6:02:10,1510431330,2017-11-11T20:15:34,0.824,298.3,24.89,21.25,26.86,828.830,2104.420,124.550003,12.98,2.4580,355,24143,2.02427,4.08,52001,,,,,,,,,,,,,,,,,,99999,99999,99999,99999,99999,99999,99999,99999,99999,99999,99999,99999
6:02:40,1510431360,2017-11-11T20:16:04,0.822,298.7,25.03,21.26,26.94,828.690,2104.880,126.716667,13.54,2.4573,355,24142,2.01992,4.08,51997,,,,,,,,,,,,,,,,,,99999,99999,99999,99999,99999,99999,99999,99999,99999,99999,99999,99999
6:03:10,1510431390,2017-11-11T20:16:34,0.824,299.1,25.18,21.30,27.05,828.660,2105.420,126.949997,17.79,2.4560,355,24145,2.02396,4.08,51993,,,,,,,,,,,,,,,,,,99999,99999,99999,99999,99999,99999,99999,99999,99999,99999,99999,99999
6:03:40,1510431420,2017-11-11T20:17:04,0.825,299.5,25.34,21.35,27.19,828.780,2105.950,129.000000,14.43,2.4558,355,24145,2.02521,4.08,51988,,,,,,,,,,,,,,,,,,99999,99999,99999,99999,99999,99999,99999,99999,99999,99999,99999,99999
6:04:10,1510431450,2017-11-11T20:17:34,0.825,299.9,25.53,21.42,27.33,828.520,2106.660,127.833336,14.66,2.4550,355,24148,2.02645,4.08,51984,,,,,,,,,,,,,,,,,,99999,99999,99999,99999,99999,99999,99999,99999,99999,99999,99999,99999
6:04:40,1510431480,2017-11-11T20:18:04,0.827,300.3,25.72,21.49,27.49,828.480,2107.260,128.633331,16.87,2.4538,355,24155,2.03049,4.08,51980,,,,,,,,,,,,,,,,,,99999,99999,99999,99999,99999,99999,99999,99999,99999,99999,99999,99999
6:05:10,1510431510,2017-11-11T20:18:34,0.826,300.8,25.89,21.61,27.67,828.690,2107.850,127.033333,13.28,2.4536,355,24155,2.02707,4.08,51976,,,,,,,,,,,,,,,,,,99999,99999,99999,99999,99999,99999,99999,99999,99999,99999,99999,99999
6:05:40,1510431540,2017-11-11T20:19:04,0.826,301.2,26.08,21.69,27.80,828.640,2108.560,129.399994,16.02,2.4524,355,24158,2.02645,4.08,51971,,,,,,,,,,,,,,,,,,99999,99999,99999,99999,99999,99999,99999,99999,99999,99999,99999,99999
6:06:10,1510431570,2017-11-11T20:19:34,0.830,301.6,26.26,21.82,27.91,828.680,2109.150,126.466667,14.02,2.4519,355,24166,2.03485,4.08,51967,,,,,,,,,,,,,,,,,,99999,99999,99999,99999,99999,99999,99999,99999,99999,99999,99999,99999
6:06:40,1510431600,2017-11-11T20:20:04,0.830,302.0,26.42,21.98,28.10,828.650,2109.750,130.816666,11.97,2.4516,355,24168,2.03392,4.07,51963,,,,,,,,,,,,,,,,,,99999,99999,99999,99999,99999,99999,99999,99999,99999,99999,99999,99999
6:07:10,1510431630,2017-11-11T20:20:34,0.831,302.4,26.61,22.12,28.26,828.680,2110.340,129.383331,17.43,2.4499,355,24172,2.03641,4.07,51958,,,,,,,,,,,,,,,,,,99999,99999,99999,99999,99999,99999,99999,99999,99999,99999,99999,99999
6:07:40,1510431660,2017-11-11T20:21:04,0.832,302.8,26.79,22.30,28.42,828.620,2111.050,129.466660,17.06,2.4493,355,24178,2.03766,4.07,51954,,,,,,,,,,,,,,,,,,99999,99999,99999,99999,99999,99999,99999,99999,99999,99999,99999,99999
6:08:10,1510431690,2017-11-11T20:21:34,0.834,303.3,26.96,22.47,28.58,828.660,2111.590,130.600006,12.42,2.4492,355,24186,2.04296,4.07,51950,,,,,,,,,,,,,,,,,,99999,99999,99999,99999,99999,99999,99999,99999,99999,99999,99999,99999
6:08:40,1510431720,2017-11-11T20:22:04,0.836,303.7,27.14,22.66,28.73,828.650,2112.240,131.100006,13.36,2.4483,355,24186,2.04796,4.07,51945,,,,,,,,,,,,,,,,,,99999,99999,99999,99999,99999,99999,99999,99999,99999,99999,99999,99999
6:09:10,1510431750,2017-11-11T20:22:34,0.836,304.1,27.31,22.85,28.91,828.640,2112.850,130.416672,13.50,2.4476,355,24194,2.04702,4.07,51941,,,,,,,,,,,,,,,,,,99999,99999,99999,99999,99999,99999,99999,99999,99999,99999,99999,99999
6:09:40,1510431780,2017-11-11T20:23:04,0.838,304.5,27.50,23.03,29.08,828.640,2113.490,131.149994,11.91,2.4470,355,24203,2.04952,4.07,51937,,,,,,,,,,,,,,,,,,99999,99999,99999,99999,99999,99999,99999,99999,99999,99999,99999,99999
6:10:10,1510431810,2017-11-11T20:23:34,0.837,304.9,27.70,23.23,29.26,828.680,2114.140,131.316666,12.98,2.4459,355,24207,2.04608,4.07,51932,,,,,,,,,,,,,,,,,,99999,99999,99999,99999,99999,99999,99999,99999,99999,99999,99999,99999
6:10:40,1510431840,2017-11-11T20:24:04,0.837,305.3,27.89,23.39,29.45,828.640,2114.870,132.416672,11.76,2.4454,355,24213,2.04671,4.07,51928,,,,,,,,,,,,,,,,,,99999,99999,99999,99999,99999,99999,99999,99999,99999,99999,99999,99999
6:11:10,1510431870,2017-11-11T20:24:34,0.840,305.8,28.11,23.60,29.63,828.700,2115.580,129.949997,11.25,2.4445,355,24220,2.05359,4.07,51923,,,,,,,,,,,,,,,,,,99999,99999,99999,99999,99999,99999,99999,99999,99999,99999,99999,99999
6:11:40,1510431900,2017-11-11T20:25:04,0.840,306.2,28.33,23.78,29.84,828.650,2116.420,131.449997,12.88,2.4434,355,24224,2.05234,4.07,51919,,,,,,,,,,,,,,,,,,99999,99999,99999,99999,99999,99999,99999,99999,99999,99999,99999,99999
6:12:10,1510431930,2017-11-11T20:25:34,0.843,306.6,28.53,23.97,30.00,828.710,2117.130,133.366669,13.71,2.4424,355,24229,2.05923,4.07,51914,,,,,,,,,,,,,,,,,,99999,99999,99999,99999,99999,99999,99999,99999,99999,99999,99999,99999
6:12:40,1510431960,2017-11-11T20:26:04,0.845,307.0,28.75,24.15,30.23,828.800,2117.840,132.316666,13.97,2.4414,355,24238,2.06237,4.07,51909,,,,,,,,,,,,,,,,,,99999,99999,99999,99999,99999,99999,99999,99999,99999,99999,99999,99999
6:13:10,1510431990,2017-11-11T20:26:34,0.843,307.5,28.97,24.33,30.43,828.620,2118.630,133.699997,14.75,2.4404,355,24244,2.05735,4.07,51905,,,,,,,,,,,,,,,,,,99999,99999,99999,99999,99999,99999,99999,99999,99999,99999,99999,99999
6:13:40,1510432020,2017-11-11T20:27:04,0.843,307.9,29.19,24.53,30.65,828.590,2119.470,132.449997,11.09,2.4402,355,24249,2.05798,4.07,51900,,,,,,,,,,,,,,,,,,99999,99999,99999,99999,99999,99999,99999,99999,99999,99999,99999,99999
6:14:10,1510432050,2017-11-11T20:27:34,0.844,308.3,29.42,24.68,30.87,828.620,2120.180,134.483337,13.18,2.4387,355,24255,2.05798,4.07,51895,,,,,,,,,,,,,,,,,,99999,99999,99999,99999,99999,99999,99999,99999,99999,99999,99999,99999
6:14:40,1510432080,2017-11-11T20:28:04,0.846,308.7,29.63,24.84,31.07,828.630,2120.960,132.916672,11.51,2.4382,355,24258,2.06237,4.07,51890,,,,,,,,,,,,,,,,,,99999,99999,99999,99999,99999,99999,99999,99999,99999,99999,99999,99999
6:15:10,1510432110,2017-11-11T20:28:34,0.846,309.1,29.82,24.96,31.27,828.720,2121.620,135.066666,11.16,2.4375,355,24264,2.06142,4.07,51886,,,,,,,,,,,,,,,,,,99999,99999,99999,99999,99999,99999,99999,99999,99999,99999,99999,99999
6:15:40,1510432140,2017-11-11T20:29:04,0.846,309.6,29.99,25.05,31.42,828.790,2122.230,134.433334,10.48,2.4369,355,24264,2.06142,4.07,51881,,,,,,,,,,,,,,,,,,99999,99999,99999,99999,99999,99999,99999,99999,99999,99999,99999,99999
6:16:10,1510432170,2017-11-11T20:29:34,0.848,310.0,30.12,25.09,31.55,828.820,2122.650,132.616669,10.09,2.4364,355,24266,2.06707,4.07,51877,,,,,,,,,,,,,,,,,,99999,99999,99999,99999,99999,99999,99999,99999,99999,99999,99999,99999
6:16:40,1510432200,2017-11-11T20:30:04,0.847,310.4,30.22,25.11,31.61,828.930,2123.000,134.016663,9.09,2.4362,355,24268,2.06331,4.07,51872,,,,,,,,,,,,,,,,,,99999,99999,99999,99999,99999,99999,99999,99999,99999,99999,99999,99999
6:17:10,1510432230,2017-11-11T20:30:34,0.849,310.8,30.27,25.11,31.74,828.680,2123.190,134.399994,9.11,2.4360,355,24264,2.06864,4.07,51867,,,,,,,,,,,,,,,,,,99999,99999,99999,99999,99999,99999,99999,99999,99999,99999,99999,99999
6:17:40,1510432260,2017-11-11T20:31:04,0.849,311.3,30.30,25.09,31.73,828.840,2123.300,135.733337,10.97,2.4355,355,24264,2.06801,4.07,51863,,,,,,,,,,,,,,,,,,99999,99999,99999,99999,99999,99999,99999,99999,99999,99999,99999,99999
6:18:10,1510432290,2017-11-11T20:31:34,0.850,311.7,30.30,25.04,31.71,828.780,2123.300,134.866669,11.16,2.4355,355,24264,2.06990,4.07,51858,,,,,,,,,,,,,,,,,,99999,99999,99999,99999,99999,99999,99999,99999,99999,99999,99999,99999
6:18:40,1510432320,2017-11-11T20:32:04,0.849,312.1,30.26,24.98,31.66,828.730,2123.130,134.483337,8.95,2.4361,355,24260,2.06801,4.07,51853,,,,,,,,,,,,,,,,,,99999,99999,99999,99999,99999,99999,99999,99999,99999,99999,99999,99999
6:19:10,1510432350,2017-11-11T20:32:34,0.846,312.5,30.17,24.91,31.61,828.580,2122.880,133.083328,12.18,2.4359,355,24258,2.06048,4.07,51848,,,,,,,,,,,,,,,,,,99999,99999,99999,99999,99999,99999,99999,99999,99999,99999,99999,99999
6:19:40,1510432380,2017-11-11T20:33:04,0.850,313.0,30.07,24.83,31.51,828.770,2122.520,131.666672,10.40,2.4366,355,24256,2.07179,4.07,51843,,,,,,,,,,,,,,,,,,99999,99999,99999,99999,99999,99999,99999,99999,99999,99999,99999,99999
6:20:10,1510432410,2017-11-11T20:33:34,0.843,313.4,29.91,24.70,31.39,828.730,2121.910,133.883331,8.99,2.4375,355,24252,2.05422,4.07,51838,,,,,,,,,,,,,,,,,,99999,99999,99999,99999,99999,99999,99999,99999,99999,99999,99999,99999
6:20:40,1510432440,2017-11-11T20:34:04,0.843,313.8,29.70,24.61,31.23,828.970,2121.210,131.816666,10.97,2.4380,355,24247,2.05609,4.07,51833,,,,,,,,,,,,,,,,,,99999,99999,99999,99999,99999,99999,99999,99999,99999,99999,99999,99999
6:21:10,1510432470,2017-11-11T20:34:34,0.845,314.2,29.51,24.49,31.03,828.900,2120.540,132.766663,9.35,2.4391,355,24244,2.06174,4.07,51828,,,,,,,,,,,,,,,,,,99999,99999,99999,99999,99999,99999,99999,99999,99999,99999,99999,99999
6:21:40,1510432500,2017-11-11T20:35:04,0.842,314.6,29.27,24.34,30.84,828.950,2119.700,130.733337,9.23,2.4401,355,24239,2.05390,4.06,51823,,,,,,,,,,,,,,,,,,99999,99999,99999,99999,99999,99999,99999,99999,99999,99999,99999,99999
6:22:10,1510432530,2017-11-11T20:35:34,0.841,315.1,29.00,24.19,30.55,828.980,2118.740,131.716660,10.48,2.4410,355,24234,2.05234,4.07,51818,,,,,,,,,,,,,,,,,,99999,99999,99999,99999,99999,99999,99999,99999,99999,99999,99999,99999
6:22:40,1510432560,2017-11-11T20:36:04,0.840,315.5,28.74,24.04,30.31,829.020,2117.840,127.716667,10.22,2.4421,355,24227,2.05140,4.07,51813,,,,,,,,,,,,,,,,,,99999,99999,99999,99999,99999,99999,99999,99999,99999,99999,99999,99999
6:23:10,1510432590,2017-11-11T20:36:34,0.838,315.9,28.46,23.89,30.09,828.950,2116.840,130.216660,10.36,2.4433,355,24226,2.04765,4.07,51808,,,,,,,,,,,,,,,,,,99999,99999,99999,99999,99999,99999,99999,99999,99999,99999,99999,99999
6:23:40,1510432620,2017-11-11T20:37:04,0.838,316.3,28.22,23.75,29.87,829.080,2116.000,131.633331,14.00,2.4436,355,24219,2.04827,4.07,51803,,,,,,,,,,,,,,,,,,99999,99999,99999,99999,99999,99999,99999,99999,99999,99999,99999,99999
6:24:10,1510432650,2017-11-11T20:37:34,0.834,316.7,27.94,23.60,29.63,829.010,2115.040,129.750000,13.82,2.4449,355,24215,2.04015,4.07,51798,,,,,,,,,,,,,,,,,,99999,99999,99999,99999,99999,99999,99999,99999,99999,99999,99999,99999
6:24:40,1510432680,2017-11-11T20:38:04,0.833,317.2,27.66,23.46,29.35,828.990,2114.040,128.416672,12.77,2.4462,355,24209,2.03735,4.07,51793,,,,,,,,,,,,,,,,,,99999,99999,99999,99999,99999,99999,99999,99999,99999,99999,99999,99999
6:25:10,1510432710,2017-11-11T20:38:34,0.833,317.6,27.36,23.29,29.13,828.890,2113.010,127.633331,12.22,2.4476,355,24208,2.03766,4.07,51788,,,,,,,,,,,,,,,,,,99999,99999,99999,99999,99999,99999,99999,99999,99999,99999,99999,99999
6:25:40,1510432740,2017-11-11T20:39:04,0.832,318.0,27.09,23.14,28.84,829.010,2112.070,128.733337,12.38,2.4487,355,24202,2.03797,4.07,51783,,,,,,,,,,,,,,,,,,99999,99999,99999,99999,99999,99999,99999,99999,99999,99999,99999,99999
6:26:10,1510432770,2017-11-11T20:39:34,0.830,318.4,26.82,22.99,28.61,829.070,2111.110,131.383331,15.36,2.4493,355,24196,2.03330,4.07,51778,,,,,,,,,,,,,,,,,,99999,99999,99999,99999,99999,99999,99999,99999,99999,99999,99999,99999
6:26:40,1510432800,2017-11-11T20:40:04,0.832,318.8,26.54,22.85,28.33,829.110,2110.170,128.699997,15.87,2.4505,355,24192,2.03766,4.07,51774,,,,,,,,,,,,,,,,,,99999,99999,99999,99999,99999,99999,99999,99999,99999,99999,99999,99999
6:27:10,1510432830,2017-11-11T20:40:34,0.826,319.2,26.27,22.69,28.08,829.120,2109.210,127.266670,16.58,2.4515,355,24186,2.02396,4.07,51769,,,,,,,,,,,,,,,,,,99999,99999,99999,99999,99999,99999,99999,99999,99999,99999,99999,99999
6:27:40,1510432860,2017-11-11T20:41:04,0.829,319.7,26.01,22.54,27.83,829.060,2108.270,127.150002,15.96,2.4527,355,24182,2.03361,4.07,51764,,,,,,,,,,,,,,,,,,99999,99999,99999,99999,99999,99999,99999,99999,99999,99999,99999,99999
6:28:10,1510432890,2017-11-11T20:41:34,0.828,320.1,25.76,22.38,27.60,829.090,2107.370,126.816666,17.40,2.4535,355,24179,2.03267,4.07,51759,,,,,,,,,,,,,,,,,,99999,99999,99999,99999,99999,99999,99999,99999,99999,99999,99999,99999
6:28:40,1510432920,2017-11-11T20:42:04,0.823,320.5,25.50,22.24,27.38,829.130,2106.490,126.316666,18.12,2.4546,355,24173,2.02116,4.07,51754,,,,,,,,,,,,,,,,,,99999,99999,99999,99999,99999,99999,99999,99999,99999,99999,99999,99999
6:29:10,1510432950,2017-11-11T20:42:34,0.825,320.9,25.27,22.09,27.10,829.210,2105.720,126.733330,17.53,2.4557,355,24169,2.02489,4.07,51749,,,,,,,,,,,,,,,,,,99999,99999,99999,99999,99999,99999,99999,99999,99999,99999,99999,99999
6:29:40,1510432980,2017-11-11T20:43:04,0.825,321.3,25.03,21.95,26.91,829.100,2104.880,126.033333,18.28,2.4566,355,24165,2.02551,4.07,51744,,,,,,,,,,,,,,,,,,99999,99999,99999,99999,99999,99999,99999,99999,99999,99999,99999,99999
6:30:10,1510433010,2017-11-11T20:43:34,0.824,321.7,24.80,21.84,26.67,829.100,2104.070,126.483330,18.27,2.4576,355,24158,2.02614,4.07,51739,,,,,,,,,,,,,,,,,,99999,99999,99999,99999,99999,99999,99999,99999,99999,99999,99999,99999
6:30:40,1510433040,2017-11-11T20:44:04,0.824,322.1,24.58,21.70,26.50,829.120,2103.300,125.099998,19.06,2.4584,355,24155,2.02614,4.06,51735,,,,,,,,,,,,,,,,,,99999,99999,99999,99999,99999,99999,99999,99999,99999,99999,99999,99999
6:31:10,1510433070,2017-11-11T20:44:34,0.822,322.5,24.37,21.55,26.30,829.040,2102.580,127.333336,18.36,2.4594,355,24149,2.02085,4.07,51730,,,,,,,,,,,,,,,,,,99999,99999,99999,99999,99999,99999,99999,99999,99999,99999,99999,99999
6:31:40,1510433100,2017-11-11T20:45:04,0.820,323.0,24.15,21.40,26.07,829.130,2101.770,125.599998,19.00,2.4603,355,24146,2.01682,4.07,51725,,,,,,,,,,,,,,,,,,99999,99999,99999,99999,99999,99999,99999,99999,99999,99999,99999,99999
6:32:10,1510433130,2017-11-11T20:45:34,0.816,323.4,23.96,21.28,25.91,829.050,2101.120,126.016670,20.00,2.4610,355,24142,2.00876,4.06,51720,,,,,,,,,,,,,,,,,,99999,99999,99999,99999,99999,99999,99999,99999,99999,99999,99999,99999
6:32:40,1510433160,2017-11-11T20:46:04,0.817,323.8,23.75,21.14,25.68,829.010,2100.350,121.283333,19.56,2.4619,355,24138,2.01124,4.06,51715,,,,,,,,,,,,,,,,,,99999,99999,99999,99999,99999,99999,99999,99999,99999,99999,99999,99999
6:33:10,1510433190,2017-11-11T20:46:34,0.818,324.2,23.56,21.01,25.49,829.080,2099.760,123.133331,19.50,2.4628,355,24134,2.01372,4.06,51711,,,,,,,,,,,,,,,,,,99999,99999,99999,99999,99999,99999,99999,99999,99999,99999,99999,99999
6:33:40,1510433220,2017-11-11T20:47:04,0.816,324.6,23.36,20.88,25.33,829.020,2099.010,121.616669,20.04,2.4636,355,24130,2.01031,4.06,51706,,,,,,,,,,,,,,,,,,99999,99999,99999,99999,99999,99999,99999,99999,99999,99999,99999,99999
6:34:10,1510433250,2017-11-11T20:47:34,0.814,325.0,23.19,20.74,25.10,829.010,2098.400,122.933334,20.83,2.4642,355,24128,2.00505,4.06,51701,,,,,,,,,,,,,,,,,,99999,99999,99999,99999,99999,99999,99999,99999,99999,99999,99999,99999
6:34:40,1510433280,2017-11-11T20:48:04,0.813,325.4,23.01,20.62,24.95,829.180,2097.820,121.516670,20.55,2.4651,355,24120,2.00474,4.06,51696,,,,,,,,,,,,,,,,,,99999,99999,99999,99999,99999,99999,99999,99999,99999,99999,99999,99999
6:35:10,1510433310,2017-11-11T20:48:34,0.811,325.8,22.84,20.49,24.78,829.220,2097.200,123.616669,20.47,2.4658,355,24117,1.99856,4.06,51691,,,,,,,,,,,,,,,,,,99999,99999,99999,99999,99999,99999,99999,99999,99999,99999,99999,99999
6:35:40,1510433340,2017-11-11T20:49:04,0.811,326.2,22.68,20.36,24.62,829.100,2096.650,121.516670,20.52,2.4665,355,24113,2.00010,4.06,51687,,,,,,,,,,,,,,,,,,99999,99999,99999,99999,99999,99999,99999,99999,99999,99999,99999,99999
6:36:10,1510433370,2017-11-11T20:49:34,0.811,326.6,22.52,20.23,24.41,829.210,2096.130,122.166664,21.49,2.4671,355,24110,2.00103,4.06,51682,,,,,,,,,,,,,,,,,,99999,99999,99999,99999,99999,99999,99999,99999,99999,99999,99999,99999
6:36:40,1510433400,2017-11-11T20:50:04,0.812,327.0,22.35,20.13,24.33,829.170,2095.540,120.733330,21.51,2.4679,355,24104,2.00412,4.06,51677,,,,,,,,,,,,,,,,,,99999,99999,99999,99999,99999,99999,99999,99999,99999,99999,99999,99999
6:37:10,1510433430,2017-11-11T20:50:34,0.809,327.4,22.20,20.01,24.15,829.070,2095.020,120.750000,21.28,2.4686,355,24102,1.99701,4.06,51672,,,,,,,,,,,,,,,,,,99999,99999,99999,99999,99999,99999,99999,99999,99999,99999,99999,99999
6:37:40,1510433460,2017-11-11T20:51:04,0.811,327.8,22.06,19.90,24.06,829.210,2094.540,120.800003,22.35,2.4691,355,24098,2.00319,4.06,51668,,,,,,,,,,,,,,,,,,99999,99999,99999,99999,99999,99999,99999,99999,99999,99999,99999,99999
6:38:10,1510433490,2017-11-11T20:51:34,0.810,328.2,21.93,19.79,23.91,829.240,2094.080,122.133331,21.09,2.4698,355,24096,2.00103,4.06,51663,,,,,,,,,,,,,,,,,,99999,99999,99999,99999,99999,99999,99999,99999,99999,99999,99999,99999
6:38:40,1510433520,2017-11-11T20:52:04,0.809,328.6,21.80,19.67,23.76,829.240,2093.620,122.816666,22.09,2.4702,355,24091,1.99732,4.06,51658,,,,,,,,,,,,,,,,,,99999,99999,99999,99999,99999,99999,99999,99999,99999,99999,99999,99999
6:39:10,1510433550,2017-11-11T20:52:34,0.809,329.1,21.67,19.56,23.65,829.300,2093.140,122.083336,22.23,2.4707,355,24090,1.99887,4.06,51653,,,,,,,,,,,,,,,,,,99999,99999,99999,99999,99999,99999,99999,99999,99999,99999,99999,99999
6:39:40,1510433580,2017-11-11T20:53:04,0.808,329.5,21.54,19.46,23.52,829.270,2092.680,121.433334,20.89,2.4715,355,24085,1.99794,4.06,51649,,,,,,,,,,,,,,,,,,99999,99999,99999,99999,99999,99999,99999,99999,99999,99999,99999,99999
6:40:10,1510433610,2017-11-11T20:53:34,0.806,329.9,21.43,19.35,23.36,829.300,2092.330,118.966667,21.57,2.4719,355,24083,1.99208,4.06,51644,,,,,,,,,,,,,,,,,,99999,99999,99999,99999,99999,99999,99999,99999,99999,99999,99999,99999
6:40:40,1510433640,2017-11-11T20:54:04,0.807,330.3,21.31,19.24,23.26,829.220,2091.870,120.650002,22.00,2.4723,355,24077,1.99609,4.06,51639,,,,,,,,,,,,,,,,,,99999,99999,99999,99999,99999,99999,99999,99999,99999,99999,99999,99999
6:41:10,1510433670,2017-11-11T20:54:34,0.806,330.7,21.20,19.17,23.14,829.220,2091.510,118.083336,23.92,2.4726,355,24074,1.99270,4.06,51634,,,,,,,,,,,,,,,,,,99999,99999,99999,99999,99999,99999,99999,99999,99999,99999,99999,99999
6:41:40,1510433700,2017-11-11T20:55:04,0.808,331.1,21.10,19.07,23.04,829.350,2091.120,121.500000,23.54,2.4731,355,24070,1.99732,4.06,51630,,,,,,,,,,,,,,,,,,99999,99999,99999,99999,99999,99999,99999,99999,99999,99999,99999,99999
6:42:10,1510433730,2017-11-11T20:55:34,0.806,331.5,20.99,18.97,22.96,829.320,2090.820,121.166664,23.61,2.4737,355,24069,1.99424,4.06,51625,,,,,,,,,,,,,,,,,,99999,99999,99999,99999,99999,99999,99999,99999,99999,99999,99999,99999
6:42:40,1510433760,2017-11-11T20:56:04,0.806,331.9,20.89,18.89,22.83,829.290,2090.400,121.016670,23.88,2.4740,355,24067,1.99331,4.06,51620,,,,,,,,,,,,,,,,,,99999,99999,99999,99999,99999,99999,99999,99999,99999,99999,99999,99999
6:43:10,1510433790,2017-11-11T20:56:34,0.805,332.3,20.81,18.78,22.76,829.340,2090.120,120.183334,23.40,2.4744,355,24064,1.99084,4.06,51616,,,,,,,,,,,,,,,,,,99999,99999,99999,99999,99999,99999,99999,99999,99999,99999,99999,99999
6:43:40,1510433820,2017-11-11T20:57:04,0.805,332.7,20.70,18.71,22.62,829.280,2089.760,119.016670,24.16,2.4748,355,24060,1.99208,4.06,51611,,,,,,,,,,,,,,,,,,99999,99999,99999,99999,99999,99999,99999,99999,99999,99999,99999,99999
6:44:10,1510433850,2017-11-11T20:57:34,0.802,333.1,20.60,18.61,22.56,829.390,2089.430,118.116669,22.11,2.4755,355,24059,1.98469,4.06,51606,,,,,,,,,,,,,,,,,,99999,99999,99999,99999,99999,99999,99999,99999,99999,99999,99999,99999
6:44:40,1510433880,2017-11-11T20:58:04,0.804,333.5,20.52,18.53,22.44,829.430,2089.130,120.583336,23.12,2.4757,355,24057,1.99023,4.06,51602,,,,,,,,,,,,,,,,,,99999,99999,99999,99999,99999,99999,99999,99999,99999,99999,99999,99999
6:45:10,1510433910,2017-11-11T20:58:34,0.804,333.9,20.44,18.44,22.36,829.470,2088.840,120.199997,23.47,2.4760,355,24052,1.99054,4.06,51597,,,,,,,,,,,,,,,,,,99999,99999,99999,99999,99999,99999,99999,99999,99999,99999,99999,99999
6:45:40,1510433940,2017-11-11T20:59:04,0.803,334.3,20.34,18.35,22.28,829.390,2088.550,120.449997,22.96,2.4766,355,24053,1.98807,4.06,51592,,,,,,,,,,,,,,,,,,99999,99999,99999,99999,99999,99999,99999,99999,99999,99999,99999,99999
6:46:10,1510433970,2017-11-11T20:59:34,0.802,334.7,20.26,18.25,22.18,829.410,2088.190,120.833336,23.56,2.4768,355,24049,1.98653,4.06,51588,,,,,,,,,,,,,,,,,,99999,99999,99999,99999,99999,99999,99999,99999,99999,99999,99999,99999
6:46:40,1510434000,2017-11-11T21:00:04,0.800,335.1,20.17,18.19,22.09,829.400,2087.900,118.400002,24.10,2.4772,355,24047,1.98100,4.06,51583,,,,,,,,,,,,,,,,,,99999,99999,99999,99999,99999,99999,99999,99999,99999,99999,99999,99999
6:47:10,1510434030,2017-11-11T21:00:34,0.804,335.5,20.09,18.09,22.02,829.420,2087.670,118.666664,24.24,2.4776,355,24044,1.99208,4.06,51578,,,,,,,,,,,,,,,,,,99999,99999,99999,99999,99999,99999,99999,99999,99999,99999,99999,99999
6:47:40,1510434060,2017-11-11T21:01:04,0.799,335.9,20.02,18.03,21.92,829.460,2087.380,117.783333,24.51,2.4778,355,24042,1.97977,4.06,51574,,,,,,,,,,,,,,,,,,99999,99999,99999,99999,99999,99999,99999,99999,99999,99999,99999,99999
6:48:10,1510434090,2017-11-11T21:01:34,0.800,336.3,19.94,17.98,21.90,829.450,2087.150,119.066666,25.25,2.4782,355,24037,1.98223,4.06,51569,,,,,,,,,,,,,,,,,,99999,99999,99999,99999,99999,99999,99999,99999,99999,99999,99999,99999
6:48:40,1510434120,2017-11-11T21:02:04,0.802,336.7,19.87,17.89,21.76,829.340,2086.860,120.066666,25.04,2.4784,355,24036,1.98807,4.06,51564,,,,,,,,,,,,,,,,,,99999,99999,99999,99999,99999,99999,99999,99999,99999,99999,99999,99999
6:49:10,1510434150,2017-11-11T21:02:34,0.802,337.1,19.80,17.84,21.68,829.330,2086.630,118.583336,24.41,2.4788,355,24034,1.98746,4.06,51560,,,,,,,,,,,,,,,,,,99999,99999,99999,99999,99999,99999,99999,99999,99999,99999,99999,99999
6:49:40,1510434180,2017-11-11T21:03:04,0.800,337.5,19.74,17.75,21.66,829.480,2086.390,118.449997,25.33,2.4790,355,24033,1.98315,4.06,51555,,,,,,,,,,,,,,,,,,99999,99999,99999,99999,99999,99999,99999,99999,99999,99999,99999,99999
6:50:10,1510434210,2017-11-11T21:03:34,0.798,337.9,19.67,17.68,21.59,829.410,2086.230,118.066666,25.14,2.4794,355,24032,1.97854,4.06,51550,,,,,,,,,,,,,,,,,,99999,99999,99999,99999,99999,99999,99999,99999,99999,99999,99999,99999
6:50:40,1510434240,2017-11-11T21:04:04,0.797,338.3,19.61,17.64,21.52,829.400,2085.940,117.933334,25.83,2.4795,355,24031,1.97731,4.06,51546,,,,,,,,,,,,,,,,,,99999,99999,99999,99999,99999,99999,99999,99999,99999,99999,99999,99999
6:51:10,1510434270,2017-11-11T21:04:34,0.800,338.7,19.54,17.58,21.44,829.460,2085.750,120.550003,24.90,2.4800,355,24027,1.98284,4.06,51541,,,,,,,,,,,,,,,,,,99999,99999,99999,99999,99999,99999,99999,99999,99999,99999,99999,99999
6:51:40,1510434300,2017-11-11T21:05:04,0.801,339.1,19.50,17.52,21.40,829.500,2085.580,118.133331,25.29,2.4801,355,24027,1.98684,4.06,51536,,,,,,,,,,,,,,,,,,99999,99999,99999,99999,99999,99999,99999,99999,99999,99999,99999,99999
6:52:10,1510434330,2017-11-11T21:05:34,0.797,339.5,19.44,17.45,21.32,829.330,2085.350,118.316666,25.32,2.4803,355,24021,1.97638,4.06,51532,,,,,,,,,,,,,,,,,,99999,99999,99999,99999,99999,99999,99999,99999,99999,99999,99999,99999
6:52:40,1510434360,2017-11-11T21:06:04,0.801,339.9,19.38,17.39,21.30,829.450,2085.120,114.883331,26.37,2.4805,355,24020,1.98561,4.06,51527,,,,,,,,,,,,,,,,,,99999,99999,99999,99999,99999,99999,99999,99999,99999,99999,99999,99999
6:53:10,1510434390,2017-11-11T21:06:34,0.800,340.3,19.33,17.33,21.24,829.440,2085.000,118.783333,25.78,2.4808,355,24018,1.98561,4.06,51523,,,,,,,,,,,,,,,,,,99999,99999,99999,99999,99999,99999,99999,99999,99999,99999,99999,99999
6:53:40,1510434420,2017-11-11T21:07:04,0.799,340.7,19.29,17.29,21.14,829.420,2084.890,119.716667,26.61,2.4809,355,24020,1.98223,4.06,51518,,,,,,,,,,,,,,,,,,99999,99999,99999,99999,99999,99999,99999,99999,99999,99999,99999,99999
6:54:10,1510434450,2017-11-11T21:07:34,0.797,341.1,19.23,17.22,21.14,829.460,2084.600,117.900002,25.37,2.4812,355,24014,1.97761,4.06,51513,,,,,,,,,,,,,,,,,,99999,99999,99999,99999,99999,99999,99999,99999,99999,99999,99999,99999
6:54:40,1510434480,2017-11-11T21:08:04,0.799,341.5,19.18,17.18,21.02,829.470,2084.470,114.933334,25.16,2.4815,355,24015,1.98192,4.06,51509,,,,,,,,,,,,,,,,,,99999,99999,99999,99999,99999,99999,99999,99999,99999,99999,99999,99999
6:55:10,1510434510,2017-11-11T21:08:34,0.795,341.9,19.13,17.11,21.02,829.430,2084.310,118.933334,26.38,2.4817,355,24010,1.97332,4.06,51504,,,,,,,,,,,,,,,,,,99999,99999,99999,99999,99999,99999,99999,99999,99999,99999,99999,99999
6:55:40,1510434540,2017-11-11T21:09:04,0.798,342.3,19.08,17.06,20.96,829.520,2084.140,118.250000,25.72,2.4819,355,24011,1.97977,4.06,51499,,,,,,,,,,,,,,,,,,99999,99999,99999,99999,99999,99999,99999,99999,99999,99999,99999,99999
6:56:10,1510434570,2017-11-11T21:09:34,0.800,342.7,19.03,17.01,20.86,829.500,2083.970,117.816666,27.53,2.4820,355,24009,1.98438,4.06,51495,,,,,,,,,,,,,,,,,,99999,99999,99999,99999,99999,99999,99999,99999,99999,99999,99999,99999
6:56:40,1510434600,2017-11-11T21:10:04,0.795,343.1,18.99,16.96,20.86,829.480,2083.850,116.849998,25.55,2.4824,355,24004,1.97240,4.06,51490,,,,,,,,,,,,,,,,,,99999,99999,99999,99999,99999,99999,99999,99999,99999,99999,99999,99999
6:57:10,1510434630,2017-11-11T21:10:34,0.797,343.5,18.94,16.92,20.80,829.550,2083.620,120.400002,25.28,2.4826,355,24006,1.97823,4.06,51486,,,,,,,,,,,,,,,,,,99999,99999,99999,99999,99999,99999,99999,99999,99999,99999,99999,99999
6:57:40,1510434660,2017-11-11T21:11:04,0.798,343.9,18.90,16.86,20.76,829.450,2083.500,117.416664,25.95,2.4827,355,24001,1.98038,4.06,51481,,,,,,,,,,,,,,,,,,99999,99999,99999,99999,99999,99999,99999,99999,99999,99999,99999,99999
6:58:10,1510434690,2017-11-11T21:11:34,0.793,344.3,18.86,16.82,20.68,829.520,2083.390,118.449997,26.10,2.4829,355,24000,1.96903,4.06,51476,,,,,,,,,,,,,,,,,,99999,99999,99999,99999,99999,99999,99999,99999,99999,99999,99999,99999
6:58:40,1510434720,2017-11-11T21:12:04,0.796,344.7,18.81,16.77,20.68,829.530,2083.160,114.550003,26.73,2.4830,355,24002,1.97761,4.06,51472,,,,,,,,,,,,,,,,,,99999,99999,99999,99999,99999,99999,99999,99999,99999,99999,99999,99999
6:59:10,1510434750,2017-11-11T21:12:34,0.798,345.1,18.77,16.71,20.62,829.510,2083.030,117.250000,27.28,2.4832,355,24000,1.98130,4.06,51467,,,,,,,,,,,,,,,,,,99999,99999,99999,99999,99999,99999,99999,99999,99999,99999,99999,99999
6:59:40,1510434780,2017-11-11T21:13:04,0.795,345.5,18.73,16.68,20.56,829.520,2082.930,116.300003,25.76,2.4835,355,23997,1.97547,4.06,51463,,,,,,,,,,,,,,,,,,99999,99999,99999,99999,99999,99999,99999,99999,99999,99999,99999,99999
7:00:10,1510434810,2017-11-11T21:13:34,0.799,345.9,18.69,16.64,20.54,829.470,2082.740,116.316666,25.04,2.4837,355,23992,1.98345,4.06,51458,,,,,,,,,,,,,,,,,,99999,99999,99999,99999,99999,99999,99999,99999,99999,99999,99999,99999
7:00:40,1510434840,2017-11-11T21:14:04,0.796,346.3,18.64,16.57,20.50,829.510,2082.580,116.216667,25.75,2.4839,355,23994,1.97823,4.06,51453,,,,,,,,,,,,,,,,,,99999,99999,99999,99999,99999,99999,99999,99999,99999,99999,99999,99999
7:01:10,1510434870,2017-11-11T21:14:34,0.796,346.7,18.60,16.54,20.46,829.470,2082.470,118.366669,24.55,2.4842,355,23990,1.97823,4.06,51449,,,,,,,,,,,,,,,,,,99999,99999,99999,99999,99999,99999,99999,99999,99999,99999,99999,99999
7:01:40,1510434900,2017-11-11T21:15:04,0.798,347.1,18.57,16.50,20.40,829.480,2082.350,114.050003,26.05,2.4842,355,23991,1.98161,4.06,51444,,,,,,,,,,,,,,,,,,99999,99999,99999,99999,99999,99999,99999,99999,99999,99999,99999,99999
7:02:10,1510434930,2017-11-11T21:15:34,0.797,347.5,18.54,16.44,20.38,829.560,2082.220,117.683334,25.92,2.4843,355,23987,1.97977,4.06,51440,,,,,,,,,,,,,,,,,,99999,99999,99999,99999,99999,99999,99999,99999,99999,99999,99999,99999
7:02:40,1510434960,2017-11-11T21:16:04,0.795,347.9,18.50,16.40,20.33,829.600,2082.110,115.733330,25.48,2.4846,355,23988,1.97578,4.06,51435,,,,,,,,,,,,,,,,,,99999,99999,99999,99999,99999,99999,99999,99999,99999,99999,99999,99999
7:03:10,1510434990,2017-11-11T21:16:34,0.796,348.3,18.45,16.34,20.32,829.560,2081.880,117.800003,26.57,2.4846,355,23985,1.97823,4.06,51430,,,,,,,,,,,,,,,,,,99999,99999,99999,99999,99999,99999,99999,99999,99999,99999,99999,99999
7:03:40,1510435020,2017-11-11T21:17:04,0.795,348.6,18.41,16.31,20.24,829.570,2081.760,117.733330,25.75,2.4849,355,23981,1.97455,4.06,51426,,,,,,,,,,,,,,,,,,99999,99999,99999,99999,99999,99999,99999,99999,99999,99999,99999,99999
7:04:10,1510435050,2017-11-11T21:17:34,0.794,349.0,18.37,16.27,20.20,829.570,2081.660,117.466667,26.10,2.4851,355,23979,1.97424,4.06,51421,,,,,,,,,,,,,,,,,,99999,99999,99999,99999,99999,99999,99999,99999,99999,99999,99999,99999
7:04:40,1510435080,2017-11-11T21:18:04,0.793,349.4,18.33,16.23,20.14,829.580,2081.530,114.800003,26.67,2.4852,355,23982,1.97178,4.06,51417,,,,,,,,,,,,,,,,,,99999,99999,99999,99999,99999,99999,99999,99999,99999,99999,99999,99999
7:05:10,1510435110,2017-11-11T21:18:34,0.794,349.8,18.31,16.18,20.13,829.510,2081.430,116.449997,26.75,2.4853,355,23981,1.97301,4.06,51412,,,,,,,,,,,,,,,,,,99999,99999,99999,99999,99999,99999,99999,99999,99999,99999,99999,99999
7:05:40,1510435140,2017-11-11T21:19:04,0.795,350.2,18.27,16.14,20.09,829.520,2081.300,119.133331,26.63,2.4855,355,23978,1.97547,4.06,51407,,,,,,,,,,,,,,,,,,99999,99999,99999,99999,99999,99999,99999,99999,99999,99999,99999,99999
7:06:10,1510435170,2017-11-11T21:19:34,0.796,350.6,18.23,16.10,20.06,829.610,2081.200,117.266670,27.21,2.4857,355,23978,1.97915,4.06,51403,,,,,,,,,,,,,,,,,,99999,99999,99999,99999,99999,99999,99999,99999,99999,99999,99999,99999
7:06:40,1510435200,2017-11-11T21:20:04,0.792,351.0,18.19,16.06,20.00,829.590,2081.070,115.816666,25.95,2.4860,355,23976,1.96933,4.06,51398,,,,,,,,,,,,,,,,,,99999,99999,99999,99999,99999,99999,99999,99999,99999,99999,99999,99999
7:07:10,1510435230,2017-11-11T21:20:34,0.794,351.4,18.17,16.03,19.96,829.600,2080.970,117.533333,26.69,2.4860,355,23967,1.97455,4.06,51394,,,,,,,,,,,,,,,,,,99999,99999,99999,99999,99999,99999,99999,99999,99999,99999,99999,99999
7:07:40,1510435260,2017-11-11T21:21:04,0.791,351.8,18.13,15.99,19.93,829.580,2080.780,114.650002,27.39,2.4860,355,23988,1.96627,4.06,51389,,,,,,,,,,,,,,,,,,99999,99999,99999,99999,99999,99999,99999,99999,99999,99999,99999,99999
7:08:10,1510435290,2017-11-11T21:21:34,0.792,352.2,18.09,15.94,19.90,829.610,2080.680,118.066666,27.58,2.4862,355,23965,1.96810,4.06,51385,,,,,,,,,,,,,,,,,,99999,99999,99999,99999,99999,99999,99999,99999,99999,99999,99999,99999
7:08:40,1510435320,2017-11-11T21:22:04,0.795,352.6,18.07,15.89,19.83,829.640,2080.610,116.416664,26.54,2.4864,355,23970,1.97578,4.06,51380,,,,,,,,,,,,,,,,,,99999,99999,99999,99999,99999,99999,99999,99999,99999,99999,99999,99999
7:09:10,1510435350,2017-11-11T21:22:34,0.793,353.0,18.03,15.86,19.82,829.620,2080.450,115.766670,26.85,2.4865,355,23973,1.97087,4.06,51375,,,,,,,,,,,,,,,,,,99999,99999,99999,99999,99999,99999,99999,99999,99999,99999,99999,99999
7:09:40,1510435380,2017-11-11T21:23:04,0.791,353.4,18.00,15.84,19.75,829.660,2080.380,114.766670,27.51,2.4867,355,23986,1.96657,4.06,51371,,,,,,,,,,,,,,,,,,99999,99999,99999,99999,99999,99999,99999,99999,99999,99999,99999,99999
7:10:10,1510435410,2017-11-11T21:23:34,0.794,353.8,17.97,15.80,19.75,829.620,2080.260,117.150002,26.81,2.4868,355,23956,1.97455,4.06,51366,,,,,,,,,,,,,,,,,,99999,99999,99999,99999,99999,99999,99999,99999,99999,99999,99999,99999
7:10:40,1510435440,2017-11-11T21:24:04,0.793,354.2,17.95,15.76,19.72,829.560,2080.210,118.183334,27.00,2.4869,355,23949,1.97240,4.06,51362,,,,,,,,,,,,,,,,,,99999,99999,99999,99999,99999,99999,99999,99999,99999,99999,99999,99999
7:11:10,1510435470,2017-11-11T21:24:34,0.791,354.6,17.92,15.72,19.67,829.730,2080.030,114.683334,27.96,2.4869,355,23975,1.96749,4.06,51357,,,,,,,,,,,,,,,,,,99999,99999,99999,99999,99999,99999,99999,99999,99999,99999,99999,99999
7:11:40,1510435500,2017-11-11T21:25:04,0.790,355.0,17.90,15.70,19.63,829.710,2079.990,115.666664,27.12,2.4871,355,23971,1.96474,4.06,51353,,,,,,,,,,,,,,,,,,99999,99999,99999,99999,99999,99999,99999,99999,99999,99999,99999,99999
7:12:10,1510435530,2017-11-11T21:25:34,0.790,355.4,17.86,15.67,19.59,829.670,2079.860,116.000000,27.51,2.4873,355,23963,1.96596,4.06,51348,,,,,,,,,,,,,,,,,,99999,99999,99999,99999,99999,99999,99999,99999,99999,99999,99999,99999
7:12:40,1510435560,2017-11-11T21:26:04,0.788,355.8,17.83,15.64,19.56,829.680,2079.800,117.666664,26.84,2.4875,355,23965,1.95954,4.06,51343,,,,,,,,,,,,,,,,,,99999,99999,99999,99999,99999,99999,99999,99999,99999,99999,99999,99999
7:13:10,1510435590,2017-11-11T21:26:34,0.793,356.2,17.80,15.62,19.55,829.660,2079.690,115.650002,27.52,2.4876,355,23960,1.97240,4.06,51339,,,,,,,,,,,,,,,,,,99999,99999,99999,99999,99999,99999,99999,99999,99999,99999,99999,99999
7:13:40,1510435620,2017-11-11T21:27:04,0.789,356.6,17.78,15.58,19.55,829.660,2079.570,115.116669,27.22,2.4876,355,23962,1.96198,4.06,51334,,,,,,,,,,,,,,,,,,99999,99999,99999,99999,99999,99999,99999,99999,99999,99999,99999,99999
7:14:10,1510435650,2017-11-11T21:27:34,0.792,357.0,17.74,15.55,19.48,829.620,2079.460,117.283333,27.63,2.4878,355,23954,1.97148,4.06,51330,,,,,,,,,,,,,,,,,,99999,99999,99999,99999,99999,99999,99999,99999,99999,99999,99999,99999
7:14:40,1510435680,2017-11-11T21:28:04,0.794,357.4,17.73,15.53,19.46,829.670,2079.400,115.783333,28.04,2.4878,355,23959,1.97638,4.06,51325,,,,,,,,,,,,,,,,,,99999,99999,99999,99999,99999,99999,99999,99999,99999,99999,99999,99999
7:15:10,1510435710,2017-11-11T21:28:34,0.792,357.8,17.70,15.49,19.43,829.680,2079.340,116.449997,27.57,2.4880,355,23965,1.97025,4.06,51320,,,,,,,,,,,,,,,,,,99999,99999,99999,99999,99999,99999,99999,99999,99999,99999,99999,99999
7:15:40,1510435740,2017-11-11T21:29:04,0.788,358.2,17.67,15.46,19.40,829.740,2079.170,115.366669,28.28,2.4880,355,23957,1.96137,4.06,51316,,,,,,,,,,,,,,,,,,99999,99999,99999,99999,99999,99999,99999,99999,99999,99999,99999,99999
7:16:10,1510435770,2017-11-11T21:29:34,0.789,358.6,17.64,15.43,19.36,829.640,2079.110,114.816666,28.40,2.4882,355,23958,1.96413,4.06,51311,,,,,,,,,,,,,,,,,,99999,99999,99999,99999,99999,99999,99999,99999,99999,99999,99999,99999
7:16:40,1510435800,2017-11-11T21:30:04,0.792,358.9,17.61,15.41,19.33,829.670,2079.010,116.166664,28.71,2.4883,355,23956,1.97178,4.06,51307,,,,,,,,,,,,,,,,,,99999,99999,99999,99999,99999,99999,99999,99999,99999,99999,99999,99999
7:17:10,1510435830,2017-11-11T21:30:34,0.789,359.3,17.59,15.39,19.32,829.650,2078.940,115.333336,29.07,2.4884,355,23955,1.96443,4.06,51302,,,,,,,,,,,,,,,,,,99999,99999,99999,99999,99999,99999,99999,99999,99999,99999,99999,99999
7:17:40,1510435860,2017-11-11T21:31:04,0.793,359.7,17.57,15.35,19.28,829.660,2078.880,115.599998,27.54,2.4886,355,23952,1.97270,4.06,51298,,,,,,,,,,,,,,,,,,99999,99999,99999,99999,99999,99999,99999,99999,99999,99999,99999,99999
7:18:10,1510435890,2017-11-11T21:31:34,0.789,360.1,17.53,15.33,19.25,829.770,2078.710,114.833336,29.30,2.4886,355,23957,1.96290,4.06,51293,,,,,,,,,,,,,,,,,,99999,99999,99999,99999,99999,99999,99999,99999,99999,99999,99999,99999
7:18:40,1510435920,2017-11-11T21:32:04,0.793,360.5,17.51,15.30,19.25,829.590,2078.650,115.183334,28.15,2.4888,355,23950,1.97362,4.06,51288,,,,,,,,,,,,,,,,,,99999,99999,99999,99999,99999,99999,99999,99999,99999,99999,99999,99999
7:19:10,1510435950,2017-11-11T21:32:34,0.788,360.9,17.48,15.28,19.20,829.700,2078.540,112.616669,28.06,2.4889,355,23953,1.96137,4.06,51284,,,,,,,,,,,,,,,,,,99999,99999,99999,99999,99999,99999,99999,99999,99999,99999,99999,99999
7:19:40,1510435980,2017-11-11T21:33:04,0.791,361.3,17.46,15.24,19.16,829.820,2078.490,116.516670,28.26,2.4890,355,23950,1.96780,4.06,51279,,,,,,,,,,,,,,,,,,99999,99999,99999,99999,99999,99999,99999,99999,99999,99999,99999,99999
7:20:10,1510436010,2017-11-11T21:33:34,0.787,361.7,17.43,15.21,19.17,829.770,2078.420,113.199997,27.54,2.4893,355,23952,1.95832,4.06,51275,,,,,,,,,,,,,,,,,,99999,99999,99999,99999,99999,99999,99999,99999,99999,99999,99999,99999
7:20:40,1510436040,2017-11-11T21:34:04,0.787,362.1,17.42,15.20,19.13,829.820,2078.360,115.383331,28.03,2.4892,355,23954,1.95832,4.06,51270,,,,,,,,,,,,,,,,,,99999,99999,99999,99999,99999,99999,99999,99999,99999,99999,99999,99999
7:21:10,1510436070,2017-11-11T21:34:34,0.792,362.5,17.39,15.18,19.09,829.830,2078.190,116.750000,27.86,2.4893,355,23953,1.97178,4.06,51266,,,,,,,,,,,,,,,,,,99999,99999,99999,99999,99999,99999,99999,99999,99999,99999,99999,99999
7:21:40,1510436100,2017-11-11T21:35:04,0.787,362.9,17.36,15.14,19.08,829.860,2078.130,115.050003,28.12,2.4895,355,23950,1.95923,4.06,51261,,,,,,,,,,,,,,,,,,99999,99999,99999,99999,99999,99999,99999,99999,99999,99999,99999,99999
7:22:10,1510436130,2017-11-11T21:35:34,0.792,363.3,17.33,15.09,19.02,829.920,2078.020,115.933334,27.41,2.4897,355,23948,1.97209,4.06,51257,,,,,,,,,,,,,,,,,,99999,99999,99999,99999,99999,99999,99999,99999,99999,99999,99999,99999
7:22:40,1510436160,2017-11-11T21:36:04,0.790,363.7,17.32,15.07,19.02,829.920,2078.020,115.416664,28.28,2.4897,355,23947,1.96566,4.06,51252,,,,,,,,,,,,,,,,,,99999,99999,99999,99999,99999,99999,99999,99999,99999,99999,99999,99999
7:23:10,1510436190,2017-11-11T21:36:34,0.791,364.1,17.29,15.04,19.00,829.900,2077.900,115.383331,27.81,2.4898,355,23945,1.97056,4.06,51248,,,,,,,,,,,,,,,,,,99999,99999,99999,99999,99999,99999,99999,99999,99999,99999,99999,99999
7:23:40,1510436220,2017-11-11T21:37:04,0.791,364.5,17.27,15.03,18.98,829.960,2077.790,115.449997,28.65,2.4898,355,23948,1.96872,4.06,51243,,,,,,,,,,,,,,,,,,99999,99999,99999,99999,99999,99999,99999,99999,99999,99999,99999,99999
7:24:10,1510436250,2017-11-11T21:37:34,0.789,364.9,17.26,15.00,18.93,829.940,2077.790,115.383331,28.71,2.4899,355,23946,1.96535,4.06,51238,,,,,,,,,,,,,,,,,,99999,99999,99999,99999,99999,99999,99999,99999,99999,99999,99999,99999
7:24:40,1510436280,2017-11-11T21:38:04,0.791,365.3,17.23,14.97,18.88,829.920,2077.670,115.583336,28.08,2.4901,355,23946,1.97025,4.06,51234,,,,,,,,,,,,,,,,,,99999,99999,99999,99999,99999,99999,99999,99999,99999,99999,99999,99999
7:25:10,1510436310,2017-11-11T21:38:34,0.792,365.7,17.20,14.94,18.92,829.870,2077.570,112.066666,27.93,2.4902,355,23942,1.97209,4.06,51229,,,,,,,,,,,,,,,,,,99999,99999,99999,99999,99999,99999,99999,99999,99999,99999,99999,99999
7:25:40,1510436340,2017-11-11T21:39:04,0.787,366.1,17.17,14.93,18.85,829.930,2077.500,114.583336,27.41,2.4904,355,23942,1.95923,4.06,51225,,,,,,,,,,,,,,,,,,99999,99999,99999,99999,99999,99999,99999,99999,99999,99999,99999,99999
7:26:10,1510436370,2017-11-11T21:39:34,0.784,366.4,17.14,14.90,18.83,829.910,2077.340,114.566666,27.77,2.4905,355,23943,1.95313,4.06,51220,,,,,,,,,,,,,,,,,,99999,99999,99999,99999,99999,99999,99999,99999,99999,99999,99999,99999
7:26:40,1510436400,2017-11-11T21:40:04,0.791,366.8,17.12,14.88,18.82,829.940,2077.270,113.550003,27.85,2.4906,355,23942,1.96933,4.06,51216,,,,,,,,,,,,,,,,,,99999,99999,99999,99999,99999,99999,99999,99999,99999,99999,99999,99999
7:27:10,1510436430,2017-11-11T21:40:34,0.791,367.2,17.11,14.85,18.80,829.970,2077.270,113.900002,27.90,2.4907,355,23939,1.96903,4.06,51211,,,,,,,,,,,,,,,,,,99999,99999,99999,99999,99999,99999,99999,99999,99999,99999,99999,99999
7:27:40,1510436460,2017-11-11T21:41:04,0.786,367.6,17.08,14.82,18.77,829.980,2077.170,112.416664,28.64,2.4907,355,23941,1.95770,4.06,51207,,,,,,,,,,,,,,,,,,99999,99999,99999,99999,99999,99999,99999,99999,99999,99999,99999,99999
7:28:10,1510436490,2017-11-11T21:41:34,0.785,368.0,17.07,14.81,18.74,829.950,2077.170,114.699997,27.54,2.4909,355,23941,1.95587,4.06,51202,,,,,,,,,,,,,,,,,,99999,99999,99999,99999,99999,99999,99999,99999,99999,99999,99999,99999
7:28:40,1510436520,2017-11-11T21:42:04,0.788,368.4,17.06,14.80,18.70,829.960,2077.100,114.166664,27.68,2.4909,355,23939,1.96382,4.06,51197,,,,,,,,,,,,,,,,,,99999,99999,99999,99999,99999,99999,99999,99999,99999,99999,99999,99999
7:29:10,1510436550,2017-11-11T21:42:34,0.787,368.8,17.03,14.79,18.72,830.010,2076.980,113.883331,27.45,2.4910,355,23935,1.96076,4.06,51193,,,,,,,,,,,,,,,,,,99999,99999,99999,99999,99999,99999,99999,99999,99999,99999,99999,99999
7:29:40,1510436580,2017-11-11T21:43:04,0.788,369.2,17.01,14.76,18.69,829.920,2076.870,114.333336,29.15,2.4909,355,23936,1.96321,4.06,51188,,,,,,,,,,,,,,,,,,99999,99999,99999,99999,99999,99999,99999,99999,99999,99999,99999,99999
7:30:10,1510436610,2017-11-11T21:43:34,0.786,369.6,17.00,14.74,18.67,829.950,2076.870,114.216667,29.08,2.4910,355,23934,1.95709,4.06,51184,,,,,,,,,,,,,,,,,,99999,99999,99999,99999,99999,99999,99999,99999,99999,99999,99999,99999
7:30:40,1510436640,2017-11-11T21:44:04,0.788,370.0,16.98,14.71,18.64,830.000,2076.810,113.916664,28.35,2.4912,355,23936,1.96260,4.06,51179,,,,,,,,,,,,,,,,,,99999,99999,99999,99999,99999,99999,99999,99999,99999,99999,99999,99999
7:31:10,1510436670,2017-11-11T21:44:34,0.791,370.4,16.96,14.70,18.64,829.980,2076.710,114.866669,28.38,2.4912,355,23936,1.96964,4.06,51175,,,,,,,,,,,,,,,,,,99999,99999,99999,99999,99999,99999,99999,99999,99999,99999,99999,99999
7:31:40,1510436700,2017-11-11T21:45:04,0.787,370.8,16.93,14.69,18.63,829.960,2076.650,114.183334,29.47,2.4913,355,23937,1.96137,4.06,51170,,,,,,,,,,,,,,,,,,99999,99999,99999,99999,99999,99999,99999,99999,99999,99999,99999,99999
7:32:10,1510436730,2017-11-11T21:45:34,0.787,371.2,16.93,14.67,18.63,829.990,2076.650,113.233330,28.05,2.4915,355,23934,1.96198,4.06,51166,,,,,,,,,,,,,,,,,,99999,99999,99999,99999,99999,99999,99999,99999,99999,99999,99999,99999
7:32:40,1510436760,2017-11-11T21:46:04,0.785,371.6,16.90,14.66,18.58,830.020,2076.580,114.516670,28.89,2.4916,355,23932,1.95587,4.06,51161,,,,,,,,,,,,,,,,,,99999,99999,99999,99999,99999,99999,99999,99999,99999,99999,99999,99999
7:33:10,1510436790,2017-11-11T21:46:34,0.785,372.0,16.90,14.63,18.56,830.070,2076.580,113.316666,28.06,2.4916,355,23933,1.95618,4.06,51156,,,,,,,,,,,,,,,,,,99999,99999,99999,99999,99999,99999,99999,99999,99999,99999,99999,99999
7:33:40,1510436820,2017-11-11T21:47:04,0.787,372.4,16.87,14.61,18.55,829.900,2076.420,113.599998,28.41,2.4917,355,23935,1.96015,4.06,51152,,,,,,,,,,,,,,,,,,99999,99999,99999,99999,99999,99999,99999,99999,99999,99999,99999,99999
7:34:10,1510436850,2017-11-11T21:47:34,0.788,372.7,16.85,14.61,18.51,829.960,2076.350,114.783333,28.69,2.4918,355,23929,1.96229,4.06,51147,,,,,,,,,,,,,,,,,,99999,99999,99999,99999,99999,99999,99999,99999,99999,99999,99999,99999
7:34:40,1510436880,2017-11-11T21:48:04,0.784,373.1,16.84,14.58,18.48,830.060,2076.290,112.816666,28.37,2.4918,355,23931,1.95465,4.06,51143,,,,,,,,,,,,,,,,,,99999,99999,99999,99999,99999,99999,99999,99999,99999,99999,99999,99999
7:35:10,1510436910,2017-11-11T21:48:34,0.789,373.5,16.82,14.57,18.47,829.930,2076.250,115.766670,27.85,2.4920,355,23929,1.96596,4.06,51138,,,,,,,,,,,,,,,,,,99999,99999,99999,99999,99999,99999,99999,99999,99999,99999,99999,99999
7:35:40,1510436940,2017-11-11T21:49:04,0.792,373.9,16.81,14.56,18.47,829.960,2076.250,114.266670,29.04,2.4920,355,23930,1.97270,4.06,51134,,,,,,,,,,,,,,,,,,99999,99999,99999,99999,99999,99999,99999,99999,99999,99999,99999,99999
7:36:10,1510436970,2017-11-11T21:49:34,0.786,374.3,16.79,14.54,18.47,830.100,2076.190,112.533333,28.34,2.4921,355,23930,1.95862,4.05,51129,,,,,,,,,,,,,,,,,,99999,99999,99999,99999,99999,99999,99999,99999,99999,99999,99999,99999
7:36:40,1510437000,2017-11-11T21:50:04,0.784,374.7,16.78,14.51,18.43,830.070,2076.120,113.783333,27.77,2.4922,355,23931,1.95404,4.05,51125,,,,,,,,,,,,,,,,,,99999,99999,99999,99999,99999,99999,99999,99999,99999,99999,99999,99999
7:37:10,1510437030,2017-11-11T21:50:34,0.785,375.1,16.75,14.49,18.42,829.970,2076.060,111.766670,27.67,2.4924,355,23931,1.95618,4.05,51120,,,,,,,,,,,,,,,,,,99999,99999,99999,99999,99999,99999,99999,99999,99999,99999,99999,99999
7:37:40,1510437060,2017-11-11T21:51:04,0.784,375.5,16.74,14.48,18.43,830.090,2075.960,112.533333,28.02,2.4923,355,23928,1.95496,4.05,51116,,,,,,,,,,,,,,,,,,99999,99999,99999,99999,99999,99999,99999,99999,99999,99999,99999,99999
7:38:10,1510437090,2017-11-11T21:51:34,0.787,375.9,16.73,14.45,18.38,829.980,2075.960,113.400002,28.03,2.4924,355,23928,1.96168,4.05,51111,,,,,,,,,,,,,,,,,,99999,99999,99999,99999,99999,99999,99999,99999,99999,99999,99999,99999
7:38:40,1510437120,2017-11-11T21:52:04,0.785,376.3,16.70,14.43,18.38,830.120,2075.830,113.516670,28.00,2.4925,355,23928,1.95648,4.05,51107,,,,,,,,,,,,,,,,,,99999,99999,99999,99999,99999,99999,99999,99999,99999,99999,99999,99999
7:39:10,1510437150,2017-11-11T21:52:34,0.789,376.7,16.69,14.42,18.32,830.100,2075.790,114.633331,28.31,2.4925,355,23927,1.96657,4.05,51102,,,,,,,,,,,,,,,,,,99999,99999,99999,99999,99999,99999,99999,99999,99999,99999,99999,99999
7:39:40,1510437180,2017-11-11T21:53:04,0.788,377.1,16.67,14.38,18.32,830.310,2075.730,115.866669,26.75,2.4927,355,23925,1.96382,4.05,51098,,,,,,,,,,,,,,,,,,99999,99999,99999,99999,99999,99999,99999,99999,99999,99999,99999,99999
7:40:10,1510437210,2017-11-11T21:53:34,0.787,377.5,16.65,14.37,18.30,830.130,2075.670,114.800003,26.01,2.4929,355,23926,1.96229,4.05,51093,,,,,,,,,,,,,,,,,,99999,99999,99999,99999,99999,99999,99999,99999,99999,99999,99999,99999
7:40:40,1510437240,2017-11-11T21:54:04,0.787,377.9,16.64,14.35,18.27,830.190,2075.670,115.316666,26.37,2.4930,355,23924,1.96260,4.05,51089,,,,,,,,,,,,,,,,,,99999,99999,99999,99999,99999,99999,99999,99999,99999,99999,99999,99999
7:41:10,1510437270,2017-11-11T21:54:34,0.788,378.3,16.63,14.31,18.28,830.170,2075.600,114.366669,27.43,2.4929,355,23924,1.96351,4.05,51084,,,,,,,,,,,,,,,,,,99999,99999,99999,99999,99999,99999,99999,99999,99999,99999,99999,99999
7:41:40,1510437300,2017-11-11T21:55:04,0.789,378.7,16.60,14.30,18.27,830.090,2075.500,113.433334,26.93,2.4931,355,23924,1.96627,4.05,51079,,,,,,,,,,,,,,,,,,99999,99999,99999,99999,99999,99999,99999,99999,99999,99999,99999,99999
7:42:10,1510437330,2017-11-11T21:55:34,0.785,379.0,16.58,14.30,18.22,830.120,2075.430,114.833336,25.75,2.4933,355,23920,1.95740,4.05,51075,,,,,,,,,,,,,,,,,,99999,99999,99999,99999,99999,99999,99999,99999,99999,99999,99999,99999
7:42:40,1510437360,2017-11-11T21:56:04,0.790,379.4,16.57,14.26,18.17,830.070,2075.370,110.316666,27.28,2.4931,355,23921,1.96994,4.05,51070,,,,,,,,,,,,,,,,,,99999,99999,99999,99999,99999,99999,99999,99999,99999,99999,99999,99999
7:43:10,1510437390,2017-11-11T21:56:34,0.783,379.8,16.55,14.25,18.16,830.100,2075.330,115.516670,27.19,2.4933,355,23922,1.95190,4.05,51066,,,,,,,,,,,,,,,,,,99999,99999,99999,99999,99999,99999,99999,99999,99999,99999,99999,99999
7:43:40,1510437420,2017-11-11T21:57:04,0.788,380.2,16.54,14.22,18.17,830.160,2075.330,112.733330,28.07,2.4933,355,23922,1.96382,4.05,51061,,,,,,,,,,,,,,,,,,99999,99999,99999,99999,99999,99999,99999,99999,99999,99999,99999,99999
7:44:10,1510437450,2017-11-11T21:57:34,0.785,380.6,16.51,14.20,18.16,830.140,2075.200,113.199997,26.65,2.4935,355,23920,1.95832,4.05,51056,,,,,,,,,,,,,,,,,,99999,99999,99999,99999,99999,99999,99999,99999,99999,99999,99999,99999
7:44:40,1510437480,2017-11-11T21:58:04,0.790,381.0,16.50,14.18,18.11,830.060,2075.140,112.800003,27.85,2.4934,355,23920,1.96933,4.05,51052,,,,,,,,,,,,,,,,,,99999,99999,99999,99999,99999,99999,99999,99999,99999,99999,99999,99999
7:45:10,1510437510,2017-11-11T21:58:34,0.785,381.4,16.47,14.16,18.11,830.050,2074.980,108.050003,27.33,2.4935,355,23918,1.95740,4.05,51047,,,,,,,,,,,,,,,,,,99999,99999,99999,99999,99999,99999,99999,99999,99999,99999,99999,99999
7:45:40,1510437540,2017-11-11T21:59:04,0.783,381.8,16.46,14.15,18.09,830.050,2074.980,112.283333,27.67,2.4936,355,23919,1.95313,4.05,51043,,,,,,,,,,,,,,,,,,99999,99999,99999,99999,99999,99999,99999,99999,99999,99999,99999,99999
7:46:10,1510437570,2017-11-11T21:59:34,0.784,382.2,16.45,14.13,18.08,830.210,2074.980,112.199997,27.18,2.4937,355,23918,1.95496,4.05,51038,,,,,,,,,,,,,,,,,,99999,99999,99999,99999,99999,99999,99999,99999,99999,99999,99999,99999
7:46:40,1510437600,2017-11-11T22:00:04,0.783,382.6,16.43,14.11,18.08,830.130,2074.920,112.849998,26.55,2.4939,355,23917,1.95221,4.05,51034,,,,,,,,,,,,,,,,,,99999,99999,99999,99999,99999,99999,99999,99999,99999,99999,99999,99999
7:47:10,1510437630,2017-11-11T22:00:34,0.782,383.0,16.41,14.09,18.06,830.110,2074.870,113.199997,26.16,2.4940,355,23914,1.94947,4.05,51029,,,,,,,,,,,,,,,,,,99999,99999,99999,99999,99999,99999,99999,99999,99999,99999,99999,99999
7:47:40,1510437660,2017-11-11T22:01:04,0.787,383.4,16.39,14.07,18.01,830.220,2074.810,112.716667,27.84,2.4940,355,23917,1.96290,4.05,51024,,,,,,,,,,,,,,,,,,99999,99999,99999,99999,99999,99999,99999,99999,99999,99999,99999,99999
7:48:10,1510437690,2017-11-11T22:01:34,0.787,383.8,16.37,14.05,17.98,830.120,2074.750,115.099998,28.14,2.4941,355,23911,1.96198,4.05,51020,,,,,,,,,,,,,,,,,,99999,99999,99999,99999,99999,99999,99999,99999,99999,99999,99999,99999
7:48:40,1510437720,2017-11-11T22:02:04,0.798,384.1,16.35,14.04,17.98,830.090,2074.580,101.333336,26.31,2.4942,355,23914,1.99115,4.05,51015,,,,,,,,,,,,,,,,,,99999,99999,99999,99999,99999,99999,99999,99999,99999,99999,99999,99999
7:49:10,1510437750,2017-11-11T22:02:34,0.787,384.5,16.34,14.03,17.94,830.040,2074.580,114.366669,25.63,2.4943,355,23916,1.96290,4.05,51011,,,,,,,,,,,,,,,,,,99999,99999,99999,99999,99999,99999,99999,99999,99999,99999,99999,99999
7:49:40,1510437780,2017-11-11T22:03:04,0.782,384.9,16.34,14.01,17.90,830.040,2074.580,113.300003,24.86,2.4944,355,23913,1.95038,4.05,51006,,,,,,,,,,,,,,,,,,99999,99999,99999,99999,99999,99999,99999,99999,99999,99999,99999,99999
7:50:10,1510437810,2017-11-11T22:03:34,0.792,385.3,16.34,14.03,17.93,830.040,2074.580,106.633331,25.22,2.4944,355,23913,1.97608,4.05,51002,,,,,,,,,,,,,,,,,,99999,99999,99999,99999,99999,99999,99999,99999,99999,99999,99999,99999
7:50:40,1510437840,2017-11-11T22:04:04,0.783,385.7,16.35,14.01,17.94,830.090,2074.580,112.750000,24.73,2.4943,355,23915,1.95190,4.05,50997,,,,,,,,,,,,,,,,,,99999,99999,99999,99999,99999,99999,99999,99999,99999,99999,99999,99999
7:51:10,1510437870,2017-11-11T22:04:34,0.784,386.1,16.35,14.02,17.93,830.090,2074.580,110.000000,25.30,2.4943,355,23912,1.95465,4.05,50992,,,,,,,,,,,,,,,,,,99999,99999,99999,99999,99999,99999,99999,99999,99999,99999,99999,99999
7:51:40,1510437900,2017-11-11T22:05:04,0.789,386.5,16.36,14.04,17.90,830.120,2074.680,110.216667,25.20,2.4943,355,23912,1.96872,4.05,50988,,,,,,,,,,,,,,,,,,99999,99999,99999,99999,99999,99999,99999,99999,99999,99999,99999,99999
7:52:10,1510437930,2017-11-11T22:05:34,0.787,386.9,16.38,14.04,17.90,830.280,2074.750,112.400002,26.18,2.4942,355,23916,1.96168,4.05,50983,,,,,,,,,,,,,,,,,,99999,99999,99999,99999,99999,99999,99999,99999,99999,99999,99999,99999
7:52:40,1510437960,2017-11-11T22:06:04,0.790,387.3,16.40,14.04,17.93,830.000,2074.810,112.500000,25.65,2.4941,355,23915,1.96933,4.05,50979,,,,,,,,,,,,,,,,,,99999,99999,99999,99999,99999,99999,99999,99999,99999,99999,99999,99999
7:53:10,1510437990,2017-11-11T22:06:34,0.788,387.7,16.41,14.06,17.94,830.110,2074.870,113.483330,25.36,2.4941,355,23916,1.96505,4.05,50974,,,,,,,,,,,,,,,,,,99999,99999,99999,99999,99999,99999,99999,99999,99999,99999,99999,99999
7:53:40,1510438020,2017-11-11T22:07:04,0.792,388.1,16.42,14.06,18.00,830.060,2074.870,109.250000,24.86,2.4941,355,23917,1.97485,4.05,50970,,,,,,,,,,,,,,,,,,99999,99999,99999,99999,99999,99999,99999,99999,99999,99999,99999,99999
7:54:10,1510438050,2017-11-11T22:07:34,0.784,388.5,16.44,14.07,17.98,830.020,2074.920,111.066666,24.95,2.4939,355,23914,1.95496,4.05,50965,,,,,,,,,,,,,,,,,,99999,99999,99999,99999,99999,99999,99999,99999,99999,99999,99999,99999
7:54:40,1510438080,2017-11-11T22:08:04,0.792,388.9,16.45,14.06,18.00,830.020,2074.980,107.866669,24.44,2.4940,355,23917,1.97424,4.05,50961,,,,,,,,,,,,,,,,,,99999,99999,99999,99999,99999,99999,99999,99999,99999,99999,99999,99999
7:55:10,1510438110,2017-11-11T22:08:34,0.783,389.3,16.48,14.08,18.03,830.170,2075.040,112.616669,24.28,2.4938,355,23913,1.95343,4.05,50956,,,,,,,,,,,,,,,,,,99999,99999,99999,99999,99999,99999,99999,99999,99999,99999,99999,99999
7:55:40,1510438140,2017-11-11T22:09:04,0.784,389.7,16.49,14.07,18.03,830.140,2075.140,111.783333,24.37,2.4938,355,23913,1.95404,4.05,50952,,,,,,,,,,,,,,,,,,99999,99999,99999,99999,99999,99999,99999,99999,99999,99999,99999,99999
7:56:10,1510438170,2017-11-11T22:09:34,0.785,390.1,16.51,14.07,18.01,830.160,2075.200,109.599998,25.00,2.4937,355,23914,1.95648,4.05,50947,,,,,,,,,,,,,,,,,,99999,99999,99999,99999,99999,99999,99999,99999,99999,99999,99999,99999
7:56:40,1510438200,2017-11-11T22:10:04,0.791,390.4,16.51,14.09,18.01,830.110,2075.200,112.150002,24.51,2.4937,355,23913,1.97240,4.05,50942,,,,,,,,,,,,,,,,,,99999,99999,99999,99999,99999,99999,99999,99999,99999,99999,99999,99999
7:57:10,1510438230,2017-11-11T22:10:34,0.785,390.8,16.53,14.07,18.05,830.130,2075.270,111.816666,24.48,2.4936,355,23915,1.95801,4.05,50938,,,,,,,,,,,,,,,,,,99999,99999,99999,99999,99999,99999,99999,99999,99999,99999,99999,99999
7:57:40,1510438260,2017-11-11T22:11:04,0.787,391.2,16.55,14.10,18.08,830.210,2075.330,114.633331,24.57,2.4935,355,23914,1.96137,4.05,50933,,,,,,,,,,,,,,,,,,99999,99999,99999,99999,99999,99999,99999,99999,99999,99999,99999,99999
7:58:10,1510438290,2017-11-11T22:11:34,0.789,391.6,16.55,14.10,18.09,830.240,2075.330,115.216667,25.02,2.4935,355,23913,1.96780,4.05,50929,,,,,,,,,,,,,,,,,,99999,99999,99999,99999,99999,99999,99999,99999,99999,99999,99999,99999
7:58:40,1510438320,2017-11-11T22:12:04,0.788,392.0,16.58,14.11,18.13,830.200,2075.430,110.366669,25.39,2.4933,355,23914,1.96382,4.05,50924,,,,,,,,,,,,,,,,,,99999,99999,99999,99999,99999,99999,99999,99999,99999,99999,99999,99999
7:59:10,1510438350,2017-11-11T22:12:34,0.788,392.4,16.59,14.10,18.13,830.150,2075.430,108.300003,25.26,2.4932,355,23914,1.96413,4.05,50920,,,,,,,,,,,,,,,,,,99999,99999,99999,99999,99999,99999,99999,99999,99999,99999,99999,99999
7:59:40,1510438380,2017-11-11T22:13:04,0.782,392.8,16.59,14.10,18.11,830.180,2075.430,114.966667,24.59,2.4933,355,23916,1.94916,4.05,50915,,,,,,,,,,,,,,,,,,99999,99999,99999,99999,99999,99999,99999,99999,99999,99999,99999,99999
8:00:10,1510438410,2017-11-11T22:13:34,0.786,393.2,16.60,14.12,18.13,830.190,2075.500,113.983330,24.51,2.4933,355,23916,1.95923,4.05,50911,,,,,,,,,,,,,,,,,,99999,99999,99999,99999,99999,99999,99999,99999,99999,99999,99999,99999
8:00:40,1510438440,2017-11-11T22:14:04,0.783,393.6,16.61,14.12,18.09,830.190,2075.500,113.199997,24.04,2.4932,355,23917,1.95343,4.05,50906,,,,,,,,,,,,,,,,,,99999,99999,99999,99999,99999,99999,99999,99999,99999,99999,99999,99999
8:01:10,1510438470,2017-11-11T22:14:34,0.788,394.0,16.61,14.12,18.11,830.220,2075.500,110.666664,24.39,2.4932,355,23918,1.96382,4.05,50901,,,,,,,,,,,,,,,,,,99999,99999,99999,99999,99999,99999,99999,99999,99999,99999,99999,99999
8:01:40,1510438500,2017-11-11T22:15:04,0.785,394.4,16.62,14.13,18.13,830.190,2075.600,112.966667,24.13,2.4933,355,23916,1.95679,4.05,50897,,,,,,,,,,,,,,,,,,99999,99999,99999,99999,99999,99999,99999,99999,99999,99999,99999,99999
8:02:10,1510438530,2017-11-11T22:15:34,0.790,394.8,16.63,14.12,18.13,830.240,2075.600,114.516670,23.75,2.4932,355,23918,1.96841,4.05,50892,,,,,,,,,,,,,,,,,,99999,99999,99999,99999,99999,99999,99999,99999,99999,99999,99999,99999
8:02:40,1510438560,2017-11-11T22:16:04,0.782,395.2,16.64,14.14,18.16,830.270,2075.670,113.949997,24.37,2.4931,355,23916,1.95069,4.05,50888,,,,,,,,,,,,,,,,,,99999,99999,99999,99999,99999,99999,99999,99999,99999,99999,99999,99999
8:03:10,1510438590,2017-11-11T22:16:34,0.790,395.6,16.64,14.14,18.16,830.350,2075.670,112.900002,24.09,2.4932,355,23915,1.97025,4.05,50883,,,,,,,,,,,,,,,,,,99999,99999,99999,99999,99999,99999,99999,99999,99999,99999,99999,99999
8:03:40,1510438620,2017-11-11T22:17:04,0.790,396.0,16.64,14.14,18.17,830.430,2075.670,113.400002,24.28,2.4932,355,23918,1.97025,4.05,50879,,,,,,,,,,,,,,,,,,99999,99999,99999,99999,99999,99999,99999,99999,99999,99999,99999,99999
8:04:10,1510438650,2017-11-11T22:17:34,0.786,396.4,16.65,14.15,18.16,830.370,2075.670,113.349998,23.66,2.4931,355,23916,1.95954,4.05,50874,,,,,,,,,,,,,,,,,,99999,99999,99999,99999,99999,99999,99999,99999,99999,99999,99999,99999
8:04:40,1510438680,2017-11-11T22:18:04,0.787,396.7,16.67,14.15,18.16,830.290,2075.730,112.916664,23.58,2.4930,355,23918,1.96107,4.05,50869,,,,,,,,,,,,,,,,,,99999,99999,99999,99999,99999,99999,99999,99999,99999,99999,99999,99999
8:05:10,1510438710,2017-11-11T22:18:34,0.787,397.1,16.67,14.15,18.17,830.310,2075.730,111.099998,23.75,2.4930,355,23918,1.96198,4.05,50865,,,,,,,,,,,,,,,,,,99999,99999,99999,99999,99999,99999,99999,99999,99999,99999,99999,99999
8:05:40,1510438740,2017-11-11T22:19:04,0.788,397.5,16.66,14.15,18.17,830.320,2075.730,114.333336,24.13,2.4931,355,23919,1.96566,4.05,50860,,,,,,,,,,,,,,,,,,99999,99999,99999,99999,99999,99999,99999,99999,99999,99999,99999,99999
8:06:10,1510438770,2017-11-11T22:19:34,0.791,397.9,16.67,14.13,18.19,830.340,2075.730,113.250000,23.76,2.4930,355,23917,1.97087,4.05,50856,,,,,,,,,,,,,,,,,,99999,99999,99999,99999,99999,99999,99999,99999,99999,99999,99999,99999
8:06:40,1510438800,2017-11-11T22:20:04,0.787,398.3,16.67,14.14,18.19,830.340,2075.730,114.016670,24.07,2.4930,355,23917,1.96076,4.05,50851,,,,,,,,,,,,,,,,,,99999,99999,99999,99999,99999,99999,99999,99999,99999,99999,99999,99999
8:07:10,1510438830,2017-11-11T22:20:34,0.792,398.7,16.67,14.14,18.17,830.450,2075.730,110.633331,23.63,2.4930,355,23917,1.97455,4.05,50847,,,,,,,,,,,,,,,,,,99999,99999,99999,99999,99999,99999,99999,99999,99999,99999,99999,99999
8:07:40,1510438860,2017-11-11T22:21:04,0.789,399.1,16.67,14.14,18.20,830.370,2075.730,113.783333,24.09,2.4930,355,23918,1.96596,4.05,50842,,,,,,,,,,,,,,,,,,99999,99999,99999,99999,99999,99999,99999,99999,99999,99999,99999,99999
8:08:10,1510438890,2017-11-11T22:21:34,0.785,399.5,16.68,14.14,18.17,830.420,2075.790,113.066666,23.93,2.4930,355,23918,1.95679,4.05,50837,,,,,,,,,,,,,,,,,,99999,99999,99999,99999,99999,99999,99999,99999,99999,99999,99999,99999
8:08:40,1510438920,2017-11-11T22:22:04,0.787,399.9,16.67,14.13,18.19,830.420,2075.730,112.116669,24.03,2.4930,355,23917,1.96137,4.05,50833,,,,,,,,,,,,,,,,,,99999,99999,99999,99999,99999,99999,99999,99999,99999,99999,99999,99999
8:09:10,1510438950,2017-11-11T22:22:34,0.785,400.3,16.66,14.14,18.16,830.480,2075.730,112.449997,24.04,2.4931,355,23916,1.95679,4.05,50828,,,,,,,,,,,,,,,,,,99999,99999,99999,99999,99999,99999,99999,99999,99999,99999,99999,99999
8:09:40,1510438980,2017-11-11T22:23:04,0.787,400.7,16.67,14.13,18.17,830.390,2075.730,115.616669,23.75,2.4930,355,23916,1.96321,4.05,50824,,,,,,,,,,,,,,,,,,99999,99999,99999,99999,99999,99999,99999,99999,99999,99999,99999,99999
8:10:10,1510439010,2017-11-11T22:23:34,0.787,401.1,16.67,14.13,18.14,830.470,2075.730,110.400002,24.30,2.4930,355,23916,1.96107,4.05,50819,,,,,,,,,,,,,,,,,,99999,99999,99999,99999,99999,99999,99999,99999,99999,99999,99999,99999
8:10:40,1510439040,2017-11-11T22:24:04,0.790,401.5,16.67,14.13,18.16,830.530,2075.730,113.966667,24.23,2.4930,355,23919,1.96903,4.05,50814,,,,,,,,,,,,,,,,,,99999,99999,99999,99999,99999,99999,99999,99999,99999,99999,99999,99999
8:11:10,1510439070,2017-11-11T22:24:34,0.786,401.9,16.67,14.12,18.19,830.450,2075.730,111.883331,23.75,2.4930,355,23915,1.95923,4.05,50810,,,,,,,,,,,,,,,,,,99999,99999,99999,99999,99999,99999,99999,99999,99999,99999,99999,99999
8:11:40,1510439100,2017-11-11T22:25:04,0.790,402.3,16.66,14.12,18.17,830.450,2075.730,108.933334,23.84,2.4931,355,23917,1.96933,4.05,50805,,,,,,,,,,,,,,,,,,99999,99999,99999,99999,99999,99999,99999,99999,99999,99999,99999,99999
8:12:10,1510439130,2017-11-11T22:25:34,0.789,402.7,16.66,14.13,18.20,830.400,2075.730,113.566666,23.99,2.4931,355,23916,1.96657,4.05,50801,,,,,,,,,,,,,,,,,,99999,99999,99999,99999,99999,99999,99999,99999,99999,99999,99999,99999
8:12:40,1510439160,2017-11-11T22:26:04,0.789,403.1,16.66,14.12,18.17,830.480,2075.730,112.233330,23.91,2.4931,355,23915,1.96657,4.05,50796,,,,,,,,,,,,,,,,,,99999,99999,99999,99999,99999,99999,99999,99999,99999,99999,99999,99999
8:13:10,1510439190,2017-11-11T22:26:34,0.786,403.4,16.65,14.11,18.17,830.400,2075.670,110.199997,23.97,2.4931,355,23917,1.95954,4.05,50791,,,,,,,,,,,,,,,,,,99999,99999,99999,99999,99999,99999,99999,99999,99999,99999,99999,99999
8:13:40,1510439220,2017-11-11T22:27:04,0.788,403.8,16.65,14.11,18.14,830.500,2075.670,114.166664,24.57,2.4930,355,23915,1.96474,4.05,50787,,,,,,,,,,,,,,,,,,99999,99999,99999,99999,99999,99999,99999,99999,99999,99999,99999,99999
8:14:10,1510439250,2017-11-11T22:27:34,0.788,404.2,16.64,14.08,18.14,830.510,2075.670,116.300003,24.33,2.4931,355,23917,1.96535,4.05,50782,,,,,,,,,,,,,,,,,,99999,99999,99999,99999,99999,99999,99999,99999,99999,99999,99999,99999
8:14:40,1510439280,2017-11-11T22:28:04,0.789,404.6,16.64,14.10,18.16,830.610,2075.670,111.366669,24.18,2.4932,355,23912,1.96749,4.05,50778,,,,,,,,,,,,,,,,,,99999,99999,99999,99999,99999,99999,99999,99999,99999,99999,99999,99999
8:15:10,1510439310,2017-11-11T22:28:34,0.789,405.0,16.63,14.08,18.14,830.540,2075.600,111.716667,24.48,2.4931,355,23916,1.96688,4.05,50773,,,,,,,,,,,,,,,,,,99999,99999,99999,99999,99999,99999,99999,99999,99999,99999,99999,99999
8:15:40,1510439340,2017-11-11T22:29:04,0.785,405.4,16.62,14.07,18.14,830.590,2075.600,113.416664,24.02,2.4933,355,23915,1.95709,4.05,50768,,,,,,,,,,,,,,,,,,99999,99999,99999,99999,99999,99999,99999,99999,99999,99999,99999,99999
8:16:10,1510439370,2017-11-11T22:29:34,0.785,405.8,16.62,14.07,18.09,830.620,2075.600,112.783333,24.24,2.4932,355,23914,1.95648,4.05,50764,,,,,,,,,,,,,,,,,,99999,99999,99999,99999,99999,99999,99999,99999,99999,99999,99999,99999
8:16:40,1510439400,2017-11-11T22:30:04,0.790,406.2,16.61,14.06,18.13,830.620,2075.500,110.616669,24.39,2.4932,355,23911,1.96903,4.05,50759,,,,,,,,,,,,,,,,,,99999,99999,99999,99999,99999,99999,99999,99999,99999,99999,99999,99999
8:17:10,1510439430,2017-11-11T22:30:34,0.786,406.6,16.60,14.05,18.13,830.650,2075.500,112.000000,24.52,2.4933,355,23914,1.95954,4.05,50755,,,,,,,,,,,,,,,,,,99999,99999,99999,99999,99999,99999,99999,99999,99999,99999,99999,99999
8:17:40,1510439460,2017-11-11T22:31:04,0.787,407.0,16.59,14.04,18.13,830.740,2075.430,113.316666,24.30,2.4933,355,23912,1.96290,4.05,50750,,,,,,,,,,,,,,,,,,99999,99999,99999,99999,99999,99999,99999,99999,99999,99999,99999,99999
8:18:10,1510439490,2017-11-11T22:31:34,0.785,407.4,16.58,14.04,18.13,830.630,2075.430,112.300003,24.93,2.4933,355,23913,1.95801,4.05,50745,,,,,,,,,,,,,,,,,,99999,99999,99999,99999,99999,99999,99999,99999,99999,99999,99999,99999
8:18:40,1510439520,2017-11-11T22:32:04,0.788,407.8,16.58,14.03,18.11,830.600,2075.430,109.833336,23.76,2.4934,355,23914,1.96566,4.05,50741,,,,,,,,,,,,,,,,,,99999,99999,99999,99999,99999,99999,99999,99999,99999,99999,99999,99999
8:19:10,1510439550,2017-11-11T22:32:34,0.785,408.2,16.57,14.03,18.08,830.580,2075.370,113.783333,24.23,2.4934,355,23911,1.95832,4.05,50736,,,,,,,,,,,,,,,,,,99999,99999,99999,99999,99999,99999,99999,99999,99999,99999,99999,99999
8:19:40,1510439580,2017-11-11T22:33:04,0.787,408.6,16.55,14.02,18.06,830.640,2075.330,109.266670,24.74,2.4935,355,23914,1.96351,4.05,50732,,,,,,,,,,,,,,,,,,99999,99999,99999,99999,99999,99999,99999,99999,99999,99999,99999,99999
8:20:10,1510439610,2017-11-11T22:33:34,0.786,409.0,16.55,14.00,18.01,830.610,2075.330,114.000000,24.65,2.4935,355,23911,1.96076,4.05,50727,,,,,,,,,,,,,,,,,,99999,99999,99999,99999,99999,99999,99999,99999,99999,99999,99999,99999
8:20:40,1510439640,2017-11-11T22:34:04,0.787,409.4,16.54,13.99,18.08,830.580,2075.330,112.750000,24.57,2.4936,355,23910,1.96137,4.05,50722,,,,,,,,,,,,,,,,,,99999,99999,99999,99999,99999,99999,99999,99999,99999,99999,99999,99999
8:21:10,1510439670,2017-11-11T22:34:34,0.785,409.8,16.53,13.99,18.06,830.610,2075.270,113.599998,24.28,2.4936,355,23912,1.95770,4.05,50718,,,,,,,,,,,,,,,,,,99999,99999,99999,99999,99999,99999,99999,99999,99999,99999,99999,99999
8:21:40,1510439700,2017-11-11T22:35:04,0.784,410.1,16.53,13.97,18.05,830.530,2075.270,112.316666,24.10,2.4936,355,23913,1.95557,4.05,50713,,,,,,,,,,,,,,,,,,99999,99999,99999,99999,99999,99999,99999,99999,99999,99999,99999,99999
8:22:10,1510439730,2017-11-11T22:35:34,0.789,410.5,16.52,13.98,18.05,830.560,2075.200,112.349998,24.70,2.4936,355,23912,1.96780,4.05,50709,,,,,,,,,,,,,,,,,,99999,99999,99999,99999,99999,99999,99999,99999,99999,99999,99999,99999
8:22:40,1510439760,2017-11-11T22:36:04,0.788,410.9,16.51,13.98,18.03,830.560,2075.200,112.883331,24.60,2.4937,355,23914,1.96505,4.05,50704,,,,,,,,,,,,,,,,,,99999,99999,99999,99999,99999,99999,99999,99999,99999,99999,99999,99999
8:23:10,1510439790,2017-11-11T22:36:34,0.786,411.3,16.51,13.97,18.03,830.540,2075.200,113.333336,25.12,2.4937,355,23913,1.96015,4.05,50699,,,,,,,,,,,,,,,,,,99999,99999,99999,99999,99999,99999,99999,99999,99999,99999,99999,99999
8:23:40,1510439820,2017-11-11T22:37:04,0.789,411.7,16.50,13.96,18.01,830.590,2075.140,113.300003,24.74,2.4937,355,23909,1.96657,4.04,50695,,,,,,,,,,,,,,,,,,99999,99999,99999,99999,99999,99999,99999,99999,99999,99999,99999,99999
8:24:10,1510439850,2017-11-11T22:37:34,0.787,412.1,16.50,13.96,18.03,830.620,2075.140,113.083336,24.41,2.4937,355,23912,1.96290,4.05,50690,,,,,,,,,,,,,,,,,,99999,99999,99999,99999,99999,99999,99999,99999,99999,99999,99999,99999
8:24:40,1510439880,2017-11-11T22:38:04,0.786,412.5,16.49,13.94,17.98,830.670,2075.140,110.616669,24.61,2.4938,355,23909,1.96107,4.05,50686,,,,,,,,,,,,,,,,,,99999,99999,99999,99999,99999,99999,99999,99999,99999,99999,99999,99999
8:25:10,1510439910,2017-11-11T22:38:34,0.787,412.9,16.48,13.94,18.00,830.670,2075.040,108.083336,24.40,2.4938,355,23909,1.96351,4.05,50681,,,,,,,,,,,,,,,,,,99999,99999,99999,99999,99999,99999,99999,99999,99999,99999,99999,99999
8:25:40,1510439940,2017-11-11T22:39:04,0.790,413.3,16.48,13.93,17.97,830.650,2075.040,113.033333,24.40,2.4938,355,23909,1.97025,4.05,50676,,,,,,,,,,,,,,,,,,99999,99999,99999,99999,99999,99999,99999,99999,99999,99999,99999,99999
8:26:10,1510439970,2017-11-11T22:39:34,0.785,413.7,16.47,13.93,17.98,830.580,2074.980,113.199997,24.81,2.4938,355,23913,1.95679,4.05,50672,,,,,,,,,,,,,,,,,,99999,99999,99999,99999,99999,99999,99999,99999,99999,99999,99999,99999
8:26:40,1510440000,2017-11-11T22:40:04,0.787,414.1,16.46,13.91,17.98,830.580,2074.980,115.166664,24.38,2.4939,355,23908,1.96198,4.04,50667,,,,,,,,,,,,,,,,,,99999,99999,99999,99999,99999,99999,99999,99999,99999,99999,99999,99999
8:27:10,1510440030,2017-11-11T22:40:34,0.787,414.5,16.44,13.90,17.94,830.580,2074.920,111.849998,24.95,2.4939,355,23913,1.96351,4.05,50662,,,,,,,,,,,,,,,,,,99999,99999,99999,99999,99999,99999,99999,99999,99999,99999,99999,99999
8:27:40,1510440060,2017-11-11T22:41:04,0.784,414.9,16.44,13.90,17.98,830.560,2074.920,113.349998,24.29,2.4940,355,23909,1.95618,4.05,50658,,,,,,,,,,,,,,,,,,99999,99999,99999,99999,99999,99999,99999,99999,99999,99999,99999,99999
8:28:10,1510440090,2017-11-11T22:41:34,0.791,415.3,16.43,13.88,17.93,830.640,2074.920,113.050003,24.92,2.4940,355,23908,1.97240,4.05,50653,,,,,,,,,,,,,,,,,,99999,99999,99999,99999,99999,99999,99999,99999,99999,99999,99999,99999
8:28:40,1510440120,2017-11-11T22:42:04,0.789,415.7,16.42,13.86,17.92,830.610,2074.870,113.466667,24.40,2.4941,355,23908,1.96872,4.04,50649,,,,,,,,,,,,,,,,,,99999,99999,99999,99999,99999,99999,99999,99999,99999,99999,99999,99999
8:29:10,1510440150,2017-11-11T22:42:34,0.790,416.1,16.41,13.87,17.90,830.590,2074.870,112.266670,24.84,2.4942,355,23906,1.97087,4.04,50644,,,,,,,,,,,,,,,,,,99999,99999,99999,99999,99999,99999,99999,99999,99999,99999,99999,99999
8:29:40,1510440180,2017-11-11T22:43:04,0.784,416.4,16.40,13.83,17.86,830.560,2074.810,109.316666,24.65,2.4942,355,23906,1.95587,4.04,50639,,,,,,,,,,,,,,,,,,99999,99999,99999,99999,99999,99999,99999,99999,99999,99999,99999,99999
8:30:10,1510440210,2017-11-11T22:43:34,0.789,416.8,16.38,13.83,17.89,830.650,2074.750,113.599998,25.03,2.4943,355,23908,1.96719,4.04,50635,,,,,,,,,,,,,,,,,,99999,99999,99999,99999,99999,99999,99999,99999,99999,99999,99999,99999
8:30:40,1510440240,2017-11-11T22:44:04,0.786,417.2,16.38,13.81,17.90,830.670,2074.750,111.483330,24.21,2.4943,355,23909,1.95954,4.04,50630,,,,,,,,,,,,,,,,,,99999,99999,99999,99999,99999,99999,99999,99999,99999,99999,99999,99999
8:31:10,1510440270,2017-11-11T22:44:34,0.789,417.6,16.36,13.81,17.90,830.620,2074.680,112.699997,24.26,2.4944,355,23905,1.96903,4.04,50625,,,,,,,,,,,,,,,,,,99999,99999,99999,99999,99999,99999,99999,99999,99999,99999,99999,99999
8:31:40,1510440300,2017-11-11T22:45:04,0.786,418.0,16.35,13.79,17.86,830.650,2074.580,116.050003,24.37,2.4944,355,23907,1.96107,4.04,50621,,,,,,,,,,,,,,,,,,99999,99999,99999,99999,99999,99999,99999,99999,99999,99999,99999,99999
8:32:10,1510440330,2017-11-11T22:45:34,0.787,418.4,16.34,13.78,17.83,830.710,2074.580,110.016670,24.53,2.4944,355,23907,1.96229,4.04,50616,,,,,,,,,,,,,,,,,,99999,99999,99999,99999,99999,99999,99999,99999,99999,99999,99999,99999
8:32:40,1510440360,2017-11-11T22:46:04,0.785,418.8,16.32,13.78,17.85,830.660,2074.520,110.400002,24.70,2.4945,355,23908,1.95832,4.04,50611,,,,,,,,,,,,,,,,,,99999,99999,99999,99999,99999,99999,99999,99999,99999,99999,99999,99999
8:33:10,1510440390,2017-11-11T22:46:34,0.788,419.2,16.31,13.77,17.83,830.630,2074.450,114.616669,24.37,2.4946,355,23907,1.96596,4.04,50607,,,,,,,,,,,,,,,,,,99999,99999,99999,99999,99999,99999,99999,99999,99999,99999,99999,99999
8:33:40,1510440420,2017-11-11T22:47:04,0.789,419.6,16.30,13.76,17.82,830.670,2074.410,111.266670,24.51,2.4946,355,23905,1.96933,4.04,50602,,,,,,,,,,,,,,,,,,99999,99999,99999,99999,99999,99999,99999,99999,99999,99999,99999,99999
8:34:10,1510440450,2017-11-11T22:47:34,0.788,420.0,16.28,13.75,17.80,830.700,2074.410,114.233330,25.03,2.4947,355,23904,1.96566,4.04,50598,,,,,,,,,,,,,,,,,,99999,99999,99999,99999,99999,99999,99999,99999,99999,99999,99999,99999
8:34:40,1510440480,2017-11-11T22:48:04,0.789,420.4,16.28,13.73,17.80,830.700,2074.410,113.833336,24.79,2.4947,355,23905,1.96749,4.04,50593,,,,,,,,,,,,,,,,,,99999,99999,99999,99999,99999,99999,99999,99999,99999,99999,99999,99999
8:35:10,1510440510,2017-11-11T22:48:34,0.788,420.8,16.27,13.72,17.77,830.780,2074.350,104.733330,24.71,2.4948,355,23902,1.96566,4.04,50588,,,,,,,,,,,,,,,,,,99999,99999,99999,99999,99999,99999,99999,99999,99999,99999,99999,99999
8:35:40,1510440540,2017-11-11T22:49:04,0.786,421.2,16.24,13.70,17.74,830.710,2074.290,109.500000,24.82,2.4949,355,23905,1.96198,4.04,50584,,,,,,,,,,,,,,,,,,99999,99999,99999,99999,99999,99999,99999,99999,99999,99999,99999,99999
8:36:10,1510440570,2017-11-11T22:49:34,0.784,421.6,16.24,13.70,17.74,830.760,2074.290,110.566666,24.88,2.4949,355,23904,1.95648,4.04,50579,,,,,,,,,,,,,,,,,,99999,99999,99999,99999,99999,99999,99999,99999,99999,99999,99999,99999
8:36:40,1510440600,2017-11-11T22:50:04,0.787,422.0,16.22,13.68,17.75,830.790,2074.120,112.933334,24.97,2.4949,355,23904,1.96413,4.04,50574,,,,,,,,,,,,,,,,,,99999,99999,99999,99999,99999,99999,99999,99999,99999,99999,99999,99999
8:37:10,1510440630,2017-11-11T22:50:34,0.787,422.3,16.20,13.65,17.72,830.850,2074.120,111.300003,25.10,2.4951,355,23904,1.96474,4.04,50570,,,,,,,,,,,,,,,,,,99999,99999,99999,99999,99999,99999,99999,99999,99999,99999,99999,99999
8:37:40,1510440660,2017-11-11T22:51:04,0.783,422.7,16.17,13.65,17.72,830.800,2074.000,110.750000,25.28,2.4952,355,23900,1.95465,4.04,50565,,,,,,,,,,,,,,,,,,99999,99999,99999,99999,99999,99999,99999,99999,99999,99999,99999,99999
8:38:10,1510440690,2017-11-11T22:51:34,0.783,423.1,16.16,13.63,17.67,830.830,2073.950,111.083336,25.35,2.4952,355,23902,1.95343,4.04,50560,,,,,,,,,,,,,,,,,,99999,99999,99999,99999,99999,99999,99999,99999,99999,99999,99999,99999
8:38:40,1510440720,2017-11-11T22:52:04,0.785,423.5,16.14,13.62,17.64,830.780,2073.890,107.616669,25.54,2.4953,355,23902,1.95893,4.04,50556,,,,,,,,,,,,,,,,,,99999,99999,99999,99999,99999,99999,99999,99999,99999,99999,99999,99999
8:39:10,1510440750,2017-11-11T22:52:34,0.785,423.9,16.13,13.58,17.61,830.820,2073.830,107.800003,25.46,2.4953,355,23901,1.95801,4.04,50551,,,,,,,,,,,,,,,,,,99999,99999,99999,99999,99999,99999,99999,99999,99999,99999,99999,99999
8:39:40,1510440780,2017-11-11T22:53:04,0.785,424.3,16.09,13.56,17.64,830.920,2073.760,108.383331,25.69,2.4955,355,23902,1.95801,4.04,50546,,,,,,,,,,,,,,,,,,99999,99999,99999,99999,99999,99999,99999,99999,99999,99999,99999,99999
8:40:10,1510440810,2017-11-11T22:53:34,0.787,424.7,16.07,13.54,17.59,830.770,2073.660,113.050003,25.83,2.4956,355,23899,1.96474,4.04,50542,,,,,,,,,,,,,,,,,,99999,99999,99999,99999,99999,99999,99999,99999,99999,99999,99999,99999
8:40:40,1510440840,2017-11-11T22:54:04,0.785,425.1,16.06,13.51,17.58,830.880,2073.600,108.566666,26.13,2.4956,355,23899,1.95985,4.04,50537,,,,,,,,,,,,,,,,,,99999,99999,99999,99999,99999,99999,99999,99999,99999,99999,99999,99999
8:41:10,1510440870,2017-11-11T22:54:34,0.783,425.5,16.01,13.49,17.55,830.860,2073.430,112.816666,25.61,2.4959,355,23898,1.95343,4.04,50532,,,,,,,,,,,,,,,,,,99999,99999,99999,99999,99999,99999,99999,99999,99999,99999,99999,99999
8:41:40,1510440900,2017-11-11T22:55:04,0.783,425.9,15.99,13.45,17.53,830.850,2073.370,112.733330,25.60,2.4960,355,23898,1.95374,4.04,50528,,,,,,,,,,,,,,,,,,99999,99999,99999,99999,99999,99999,99999,99999,99999,99999,99999,99999
8:42:10,1510440930,2017-11-11T22:55:34,0.783,426.3,15.98,13.44,17.53,830.850,2073.370,114.400002,26.23,2.4960,355,23895,1.95435,4.04,50523,,,,,,,,,,,,,,,,,,99999,99999,99999,99999,99999,99999,99999,99999,99999,99999,99999,99999
8:42:40,1510440960,2017-11-11T22:56:04,0.783,426.7,15.95,13.43,17.48,830.960,2073.200,113.716667,25.88,2.4961,355,23893,1.95526,4.04,50518,,,,,,,,,,,,,,,,,,99999,99999,99999,99999,99999,99999,99999,99999,99999,99999,99999,99999
8:43:10,1510440990,2017-11-11T22:56:34,0.789,427.1,15.92,13.38,17.47,830.960,2073.140,110.433334,26.25,2.4962,355,23894,1.97025,4.04,50514,,,,,,,,,,,,,,,,,,99999,99999,99999,99999,99999,99999,99999,99999,99999,99999,99999,99999
8:43:40,1510441020,2017-11-11T22:57:04,0.782,427.5,15.91,13.37,17.45,831.020,2073.100,112.866669,25.95,2.4963,355,23893,1.95130,4.04,50509,,,,,,,,,,,,,,,,,,99999,99999,99999,99999,99999,99999,99999,99999,99999,99999,99999,99999
8:44:10,1510441050,2017-11-11T22:57:34,0.782,427.8,15.88,13.36,17.36,830.940,2073.030,111.083336,26.32,2.4965,355,23893,1.95282,4.04,50504,,,,,,,,,,,,,,,,,,99999,99999,99999,99999,99999,99999,99999,99999,99999,99999,99999,99999
8:44:40,1510441080,2017-11-11T22:58:04,0.783,428.2,15.85,13.31,17.36,830.960,2072.910,113.166664,25.70,2.4966,355,23890,1.95557,4.04,50500,,,,,,,,,,,,,,,,,,99999,99999,99999,99999,99999,99999,99999,99999,99999,99999,99999,99999
8:45:10,1510441110,2017-11-11T22:58:34,0.784,428.6,15.82,13.30,17.39,830.940,2072.740,113.783333,25.81,2.4967,355,23891,1.95648,4.04,50495,,,,,,,,,,,,,,,,,,99999,99999,99999,99999,99999,99999,99999,99999,99999,99999,99999,99999
8:45:40,1510441140,2017-11-11T22:59:04,0.785,429.0,15.80,13.27,17.36,830.990,2072.680,114.250000,25.77,2.4968,355,23888,1.96046,4.04,50490,,,,,,,,,,,,,,,,,,99999,99999,99999,99999,99999,99999,99999,99999,99999,99999,99999,99999
8:46:10,1510441170,2017-11-11T22:59:34,0.786,429.4,15.78,13.24,17.32,831.020,2072.640,112.966667,25.62,2.4969,355,23890,1.96382,4.04,50486,,,,,,,,,,,,,,,,,,99999,99999,99999,99999,99999,99999,99999,99999,99999,99999,99999,99999
8:46:40,1510441200,2017-11-11T23:00:04,0.781,429.8,15.76,13.22,17.28,830.980,2072.580,111.449997,25.82,2.4970,355,23890,1.95069,4.04,50481,,,,,,,,,,,,,,,,,,99999,99999,99999,99999,99999,99999,99999,99999,99999,99999,99999,99999
8:47:10,1510441230,2017-11-11T23:00:34,0.788,430.2,15.75,13.20,17.25,831.030,2072.580,111.083336,25.98,2.4971,355,23890,1.96749,4.04,50476,,,,,,,,,,,,,,,,,,99999,99999,99999,99999,99999,99999,99999,99999,99999,99999,99999,99999
8:47:40,1510441260,2017-11-11T23:01:04,0.784,430.6,15.73,13.20,17.22,830.960,2072.510,112.466667,25.62,2.4972,355,23887,1.95709,4.04,50471,,,,,,,,,,,,,,,,,,99999,99999,99999,99999,99999,99999,99999,99999,99999,99999,99999,99999
8:48:10,1510441290,2017-11-11T23:01:34,0.784,431.0,15.72,13.18,17.24,831.010,2072.450,110.616669,25.82,2.4972,355,23889,1.95832,4.04,50467,,,,,,,,,,,,,,,,,,99999,99999,99999,99999,99999,99999,99999,99999,99999,99999,99999,99999
8:48:40,1510441320,2017-11-11T23:02:04,0.785,431.4,15.71,13.17,17.24,830.930,2072.450,113.233330,25.46,2.4973,355,23891,1.95985,4.04,50462,,,,,,,,,,,,,,,,,,99999,99999,99999,99999,99999,99999,99999,99999,99999,99999,99999,99999
8:49:10,1510441350,2017-11-11T23:02:34,0.783,431.8,15.69,13.16,17.19,830.960,2072.280,111.666664,25.88,2.4973,355,23887,1.95465,4.04,50457,,,,,,,,,,,,,,,,,,99999,99999,99999,99999,99999,99999,99999,99999,99999,99999,99999,99999
8:49:40,1510441380,2017-11-11T23:03:04,0.784,432.2,15.69,13.15,17.19,831.020,2072.280,113.016670,26.18,2.4972,355,23887,1.95832,4.04,50453,,,,,,,,,,,,,,,,,,99999,99999,99999,99999,99999,99999,99999,99999,99999,99999,99999,99999
8:50:10,1510441410,2017-11-11T23:03:34,0.787,432.6,15.67,13.14,17.17,830.940,2072.220,111.800003,25.70,2.4974,355,23887,1.96474,4.04,50448,,,,,,,,,,,,,,,,,,99999,99999,99999,99999,99999,99999,99999,99999,99999,99999,99999,99999
8:50:40,1510441440,2017-11-11T23:04:04,0.786,432.9,15.66,13.13,17.16,830.970,2072.220,113.349998,25.98,2.4974,355,23886,1.96321,4.04,50443,,,,,,,,,,,,,,,,,,99999,99999,99999,99999,99999,99999,99999,99999,99999,99999,99999,99999
8:51:10,1510441470,2017-11-11T23:04:34,0.784,433.3,15.64,13.10,17.19,831.000,2072.180,110.550003,25.97,2.4976,355,23886,1.95862,4.04,50439,,,,,,,,,,,,,,,,,,99999,99999,99999,99999,99999,99999,99999,99999,99999,99999,99999,99999
8:51:40,1510441500,2017-11-11T23:05:04,0.784,433.7,15.64,13.11,17.16,830.980,2072.180,111.983330,25.92,2.4976,355,23887,1.95801,4.04,50434,,,,,,,,,,,,,,,,,,99999,99999,99999,99999,99999,99999,99999,99999,99999,99999,99999,99999
8:52:10,1510441530,2017-11-11T23:05:34,0.774,434.1,15.62,13.08,17.13,831.000,2072.110,119.416664,25.38,2.4977,355,23887,1.93244,4.04,50429,,,,,,,,,,,,,,,,,,99999,99999,99999,99999,99999,99999,99999,99999,99999,99999,99999,99999
8:52:40,1510441560,2017-11-11T23:06:04,0.787,434.5,15.61,13.07,17.11,831.040,2072.060,111.300003,25.68,2.4977,355,23886,1.96474,4.04,50424,,,,,,,,,,,,,,,,,,99999,99999,99999,99999,99999,99999,99999,99999,99999,99999,99999,99999
8:53:10,1510441590,2017-11-11T23:06:34,0.785,434.9,15.61,13.07,17.16,830.980,2072.060,113.550003,26.33,2.4977,355,23885,1.96046,4.04,50420,,,,,,,,,,,,,,,,,,99999,99999,99999,99999,99999,99999,99999,99999,99999,99999,99999,99999
8:53:40,1510441620,2017-11-11T23:07:04,0.786,435.3,15.59,13.06,17.11,830.990,2071.990,113.050003,25.96,2.4978,355,23884,1.96229,4.04,50415,,,,,,,,,,,,,,,,,,99999,99999,99999,99999,99999,99999,99999,99999,99999,99999,99999,99999
8:54:10,1510441650,2017-11-11T23:07:34,0.787,435.7,15.59,13.04,17.13,831.070,2071.990,109.416664,25.88,2.4978,355,23885,1.96688,4.04,50410,,,,,,,,,,,,,,,,,,99999,99999,99999,99999,99999,99999,99999,99999,99999,99999,99999,99999
8:54:40,1510441680,2017-11-11T23:08:04,0.787,436.1,15.58,13.04,17.06,831.040,2071.990,111.016670,26.40,2.4978,355,23884,1.96596,4.04,50406,,,,,,,,,,,,,,,,,,99999,99999,99999,99999,99999,99999,99999,99999,99999,99999,99999,99999
8:55:10,1510441710,2017-11-11T23:08:34,0.782,436.5,15.56,13.03,17.06,830.990,2071.950,112.833336,26.02,2.4980,355,23883,1.95404,4.04,50401,,,,,,,,,,,,,,,,,,99999,99999,99999,99999,99999,99999,99999,99999,99999,99999,99999,99999
8:55:40,1510441740,2017-11-11T23:09:04,0.781,436.9,15.54,13.01,17.03,831.050,2071.830,109.433334,26.16,2.4980,355,23884,1.95038,4.04,50396,,,,,,,,,,,,,,,,,,99999,99999,99999,99999,99999,99999,99999,99999,99999,99999,99999,99999
8:56:10,1510441770,2017-11-11T23:09:34,0.786,437.3,15.54,13.00,17.03,831.100,2071.830,109.233330,25.75,2.4980,355,23883,1.96229,4.04,50391,,,,,,,,,,,,,,,,,,99999,99999,99999,99999,99999,99999,99999,99999,99999,99999,99999,99999
8:56:40,1510441800,2017-11-11T23:10:04,0.781,437.6,15.53,12.99,17.05,830.980,2071.760,111.916664,26.03,2.4980,355,23880,1.95190,4.04,50387,,,,,,,,,,,,,,,,,,99999,99999,99999,99999,99999,99999,99999,99999,99999,99999,99999,99999
8:57:10,1510441830,2017-11-11T23:10:34,0.785,438.0,15.53,12.98,17.05,831.160,2071.760,110.516670,25.56,2.4981,355,23882,1.96198,4.04,50382,,,,,,,,,,,,,,,,,,99999,99999,99999,99999,99999,99999,99999,99999,99999,99999,99999,99999
8:57:40,1510441860,2017-11-11T23:11:04,0.785,438.4,15.50,12.95,17.00,831.060,2071.660,107.000000,25.72,2.4982,355,23884,1.96015,4.04,50377,,,,,,,,,,,,,,,,,,99999,99999,99999,99999,99999,99999,99999,99999,99999,99999,99999,99999
8:58:10,1510441890,2017-11-11T23:11:34,0.782,438.8,15.50,12.95,17.00,831.170,2071.660,107.000000,25.08,2.4982,355,23879,1.95313,4.04,50373,,,,,,,,,,,,,,,,,,99999,99999,99999,99999,99999,99999,99999,99999,99999,99999,99999,99999
8:58:40,1510441920,2017-11-11T23:12:04,0.783,439.2,15.49,12.93,17.01,831.090,2071.660,108.783333,25.44,2.4983,355,23880,1.95679,4.04,50368,,,,,,,,,,,,,,,,,,99999,99999,99999,99999,99999,99999,99999,99999,99999,99999,99999,99999
8:59:10,1510441950,2017-11-11T23:12:34,0.787,439.6,15.48,12.93,16.98,831.170,2071.590,110.316666,25.76,2.4983,355,23878,1.96657,4.04,50363,,,,,,,,,,,,,,,,,,99999,99999,99999,99999,99999,99999,99999,99999,99999,99999,99999,99999
8:59:40,1510441980,2017-11-11T23:13:04,0.779,440.0,15.46,12.91,16.97,831.120,2071.530,111.633331,25.61,2.4984,355,23880,1.94703,4.04,50358,,,,,,,,,,,,,,,,,,99999,99999,99999,99999,99999,99999,99999,99999,99999,99999,99999,99999
9:00:10,1510442010,2017-11-11T23:13:34,0.782,440.4,15.46,12.91,16.97,831.230,2071.530,112.449997,25.72,2.4984,355,23881,1.95435,4.04,50354,,,,,,,,,,,,,,,,,,99999,99999,99999,99999,99999,99999,99999,99999,99999,99999,99999,99999
9:00:40,1510442040,2017-11-11T23:14:04,0.780,440.8,15.45,12.90,16.90,831.200,2071.530,112.800003,25.77,2.4985,355,23879,1.94855,4.04,50349,,,,,,,,,,,,,,,,,,99999,99999,99999,99999,99999,99999,99999,99999,99999,99999,99999,99999
9:01:10,1510442070,2017-11-11T23:14:34,0.779,441.2,15.45,12.89,16.95,831.150,2071.530,109.766670,25.56,2.4985,355,23878,1.94581,4.04,50344,,,,,,,,,,,,,,,,,,99999,99999,99999,99999,99999,99999,99999,99999,99999,99999,99999,99999
9:01:40,1510442100,2017-11-11T23:15:04,0.788,441.6,15.42,12.89,16.92,831.110,2071.360,106.216667,24.60,2.4986,355,23877,1.96994,4.04,50340,,,,,,,,,,,,,,,,,,99999,99999,99999,99999,99999,99999,99999,99999,99999,99999,99999,99999
9:02:10,1510442130,2017-11-11T23:15:34,0.785,442.0,15.41,12.88,16.92,831.240,2071.360,102.316666,25.11,2.4987,355,23876,1.96076,4.04,50335,,,,,,,,,,,,,,,,,,99999,99999,99999,99999,99999,99999,99999,99999,99999,99999,99999,99999
9:02:40,1510442160,2017-11-11T23:16:04,0.786,442.3,15.41,12.87,16.90,831.210,2071.360,106.349998,25.28,2.4987,355,23878,1.96413,4.04,50330,,,,,,,,,,,,,,,,,,99999,99999,99999,99999,99999,99999,99999,99999,99999,99999,99999,99999
9:03:10,1510442190,2017-11-11T23:16:34,0.781,442.7,15.40,12.85,16.90,831.190,2071.320,110.133331,25.03,2.4987,355,23877,1.95160,4.04,50325,,,,,,,,,,,,,,,,,,99999,99999,99999,99999,99999,99999,99999,99999,99999,99999,99999,99999
9:03:40,1510442220,2017-11-11T23:17:04,0.788,443.1,15.40,12.85,16.90,831.190,2071.320,109.366669,25.42,2.4987,355,23877,1.96810,4.04,50321,,,,,,,,,,,,,,,,,,99999,99999,99999,99999,99999,99999,99999,99999,99999,99999,99999,99999
9:04:10,1510442250,2017-11-11T23:17:34,0.785,443.5,15.39,12.86,16.89,831.190,2071.320,108.400002,24.89,2.4988,355,23879,1.96076,4.04,50316,,,,,,,,,,,,,,,,,,99999,99999,99999,99999,99999,99999,99999,99999,99999,99999,99999,99999
9:04:40,1510442280,2017-11-11T23:18:04,0.779,443.9,15.39,12.84,16.90,831.190,2071.320,110.583336,25.31,2.4988,355,23877,1.94733,4.04,50311,,,,,,,,,,,,,,,,,,99999,99999,99999,99999,99999,99999,99999,99999,99999,99999,99999,99999
9:05:10,1510442310,2017-11-11T23:18:34,0.783,444.3,15.38,12.84,16.89,831.220,2071.260,110.050003,24.86,2.4988,355,23874,1.95679,4.04,50307,,,,,,,,,,,,,,,,,,99999,99999,99999,99999,99999,99999,99999,99999,99999,99999,99999,99999
9:05:40,1510442340,2017-11-11T23:19:04,0.779,444.7,15.38,12.84,16.87,831.220,2071.260,109.166664,25.30,2.4988,355,23877,1.94703,4.04,50302,,,,,,,,,,,,,,,,,,99999,99999,99999,99999,99999,99999,99999,99999,99999,99999,99999,99999
9:06:10,1510442370,2017-11-11T23:19:34,0.787,445.1,15.38,12.82,16.85,831.300,2071.260,105.933334,25.22,2.4988,355,23876,1.96719,4.04,50297,,,,,,,,,,,,,,,,,,99999,99999,99999,99999,99999,99999,99999,99999,99999,99999,99999,99999
9:06:40,1510442400,2017-11-11T23:20:04,0.781,445.5,15.38,12.80,16.89,831.330,2071.260,108.466667,25.05,2.4988,355,23877,1.95130,4.04,50292,,,,,,,,,,,,,,,,,,99999,99999,99999,99999,99999,99999,99999,99999,99999,99999,99999,99999
9:07:10,1510442430,2017-11-11T23:20:34,0.781,445.9,15.36,12.80,16.83,831.310,2071.200,108.616669,24.85,2.4989,355,23875,1.95160,4.04,50288,,,,,,,,,,,,,,,,,,99999,99999,99999,99999,99999,99999,99999,99999,99999,99999,99999,99999
9:07:40,1510442460,2017-11-11T23:21:04,0.783,446.3,15.37,12.80,16.82,831.330,2071.200,111.349998,25.17,2.4988,355,23875,1.95648,4.04,50283,,,,,,,,,,,,,,,,,,99999,99999,99999,99999,99999,99999,99999,99999,99999,99999,99999,99999
9:08:10,1510442490,2017-11-11T23:21:34,0.783,446.7,15.35,12.79,16.85,831.230,2071.140,110.183334,24.41,2.4990,355,23874,1.95557,4.04,50278,,,,,,,,,,,,,,,,,,99999,99999,99999,99999,99999,99999,99999,99999,99999,99999,99999,99999
9:08:40,1510442520,2017-11-11T23:22:04,0.785,447.0,15.35,12.79,16.82,831.260,2071.140,102.900002,24.98,2.4989,355,23876,1.96046,4.04,50273,,,,,,,,,,,,,,,,,,99999,99999,99999,99999,99999,99999,99999,99999,99999,99999,99999,99999
9:09:10,1510442550,2017-11-11T23:22:34,0.783,447.4,15.36,12.78,16.82,831.360,2071.200,113.750000,25.24,2.4989,355,23872,1.95770,4.04,50269,,,,,,,,,,,,,,,,,,99999,99999,99999,99999,99999,99999,99999,99999,99999,99999,99999,99999
9:09:40,1510442580,2017-11-11T23:23:04,0.786,447.8,15.36,12.78,16.85,831.330,2071.200,110.383331,24.93,2.4989,355,23875,1.96351,4.04,50264,,,,,,,,,,,,,,,,,,99999,99999,99999,99999,99999,99999,99999,99999,99999,99999,99999,99999
9:10:10,1510442610,2017-11-11T23:23:34,0.777,448.2,15.36,12.79,16.82,831.330,2071.200,116.733330,25.42,2.4989,355,23871,1.94186,4.04,50259,,,,,,,,,,,,,,,,,,99999,99999,99999,99999,99999,99999,99999,99999,99999,99999,99999,99999
9:10:40,1510442640,2017-11-11T23:24:04,0.780,448.6,15.36,12.79,16.85,831.310,2071.200,107.083336,25.06,2.4989,355,23876,1.95008,4.04,50255,,,,,,,,,,,,,,,,,,99999,99999,99999,99999,99999,99999,99999,99999,99999,99999,99999,99999
9:11:10,1510442670,2017-11-11T23:24:34,0.784,449.0,15.35,12.77,16.82,831.280,2071.140,110.666664,25.12,2.4989,355,23874,1.95862,4.04,50250,,,,,,,,,,,,,,,,,,99999,99999,99999,99999,99999,99999,99999,99999,99999,99999,99999,99999
9:11:40,1510442700,2017-11-11T23:25:04,0.781,449.4,15.35,12.76,16.81,831.360,2071.140,108.150002,25.06,2.4989,355,23872,1.95190,4.04,50245,,,,,,,,,,,,,,,,,,99999,99999,99999,99999,99999,99999,99999,99999,99999,99999,99999,99999
9:12:10,1510442730,2017-11-11T23:25:34,0.786,449.8,15.33,12.75,16.83,831.390,2071.090,105.949997,24.68,2.4991,355,23873,1.96351,4.04,50240,,,,,,,,,,,,,,,,,,99999,99999,99999,99999,99999,99999,99999,99999,99999,99999,99999,99999
9:12:40,1510442760,2017-11-11T23:26:04,0.786,450.2,15.33,12.74,16.81,831.290,2071.090,110.066666,25.14,2.4990,355,23871,1.96351,4.04,50236,,,,,,,,,,,,,,,,,,99999,99999,99999,99999,99999,99999,99999,99999,99999,99999,99999,99999
9:13:10,1510442790,2017-11-11T23:26:34,0.783,450.6,15.32,12.73,16.82,831.370,2071.090,107.266670,24.60,2.4992,355,23872,1.95618,4.04,50231,,,,,,,,,,,,,,,,,,99999,99999,99999,99999,99999,99999,99999,99999,99999,99999,99999,99999
9:13:40,1510442820,2017-11-11T23:27:04,0.780,451.0,15.33,12.74,16.77,831.470,2071.090,109.866669,24.74,2.4991,355,23873,1.95038,4.04,50226,,,,,,,,,,,,,,,,,,99999,99999,99999,99999,99999,99999,99999,99999,99999,99999,99999,99999
9:14:10,1510442850,2017-11-11T23:27:34,0.784,451.4,15.32,12.73,16.81,831.470,2071.090,107.266670,25.13,2.4991,355,23871,1.95923,4.04,50221,,,,,,,,,,,,,,,,,,99999,99999,99999,99999,99999,99999,99999,99999,99999,99999,99999,99999
9:14:40,1510442880,2017-11-11T23:28:04,0.786,451.7,15.31,12.70,16.82,831.450,2071.030,111.316666,25.05,2.4992,355,23873,1.96413,4.04,50217,,,,,,,,,,,,,,,,,,99999,99999,99999,99999,99999,99999,99999,99999,99999,99999,99999,99999
9:15:10,1510442910,2017-11-11T23:28:34,0.787,452.1,15.30,12.72,16.75,831.510,2071.030,109.800003,25.07,2.4992,355,23874,1.96719,4.04,50212,,,,,,,,,,,,,,,,,,99999,99999,99999,99999,99999,99999,99999,99999,99999,99999,99999,99999
9:15:40,1510442940,2017-11-11T23:29:04,0.782,452.5,15.30,12.70,16.73,831.450,2071.030,112.566666,24.77,2.4993,355,23869,1.95557,4.04,50207,,,,,,,,,,,,,,,,,,99999,99999,99999,99999,99999,99999,99999,99999,99999,99999,99999,99999
9:16:10,1510442970,2017-11-11T23:29:34,0.780,452.9,15.29,12.69,16.74,831.510,2070.910,112.166664,25.13,2.4992,355,23871,1.94977,4.04,50202,,,,,,,,,,,,,,,,,,99999,99999,99999,99999,99999,99999,99999,99999,99999,99999,99999,99999
9:16:40,1510443000,2017-11-11T23:30:04,0.783,453.3,15.28,12.69,16.70,831.480,2070.910,110.916664,25.13,2.4993,355,23871,1.95770,4.04,50198,,,,,,,,,,,,,,,,,,99999,99999,99999,99999,99999,99999,99999,99999,99999,99999,99999,99999
9:17:10,1510443030,2017-11-11T23:30:34,0.784,453.7,15.28,12.68,16.75,831.590,2070.910,110.233330,24.86,2.4993,355,23872,1.95893,4.04,50193,,,,,,,,,,,,,,,,,,99999,99999,99999,99999,99999,99999,99999,99999,99999,99999,99999,99999
9:17:40,1510443060,2017-11-11T23:31:04,0.780,454.1,15.28,12.65,16.73,831.590,2070.910,112.000000,24.95,2.4993,355,23871,1.94825,4.04,50188,,,,,,,,,,,,,,,,,,99999,99999,99999,99999,99999,99999,99999,99999,99999,99999,99999,99999
9:18:10,1510443090,2017-11-11T23:31:34,0.779,454.5,15.27,12.66,16.75,831.590,2070.860,110.800003,24.99,2.4993,355,23871,1.94612,4.03,50183,,,,,,,,,,,,,,,,,,99999,99999,99999,99999,99999,99999,99999,99999,99999,99999,99999,99999
9:18:40,1510443120,2017-11-11T23:32:04,0.780,454.9,15.26,12.65,16.73,831.650,2070.860,109.583336,25.32,2.4994,355,23871,1.94947,4.03,50179,,,,,,,,,,,,,,,,,,99999,99999,99999,99999,99999,99999,99999,99999,99999,99999,99999,99999
9:19:10,1510443150,2017-11-11T23:32:34,0.781,455.3,15.24,12.64,16.69,831.650,2070.800,112.983330,25.40,2.4995,355,23871,1.95252,4.03,50174,,,,,,,,,,,,,,,,,,99999,99999,99999,99999,99999,99999,99999,99999,99999,99999,99999,99999
9:19:40,1510443180,2017-11-11T23:33:04,0.783,455.7,15.24,12.63,16.70,831.650,2070.800,111.216667,24.80,2.4995,355,23870,1.95770,4.03,50169,,,,,,,,,,,,,,,,,,99999,99999,99999,99999,99999,99999,99999,99999,99999,99999,99999,99999
9:20:10,1510443210,2017-11-11T23:33:34,0.785,456.0,15.23,12.62,16.70,831.570,2070.740,110.449997,25.03,2.4995,355,23871,1.96198,4.03,50164,,,,,,,,,,,,,,,,,,99999,99999,99999,99999,99999,99999,99999,99999,99999,99999,99999,99999
9:20:40,1510443240,2017-11-11T23:34:04,0.782,456.4,15.22,12.63,16.67,831.660,2070.740,108.916664,24.60,2.4996,355,23870,1.95404,4.03,50159,,,,,,,,,,,,,,,,,,99999,99999,99999,99999,99999,99999,99999,99999,99999,99999,99999,99999
9:21:10,1510443270,2017-11-11T23:34:34,0.780,456.8,15.21,12.61,16.70,831.610,2070.680,109.500000,24.43,2.4997,355,23871,1.94886,4.03,50155,,,,,,,,,,,,,,,,,,99999,99999,99999,99999,99999,99999,99999,99999,99999,99999,99999,99999
9:21:40,1510443300,2017-11-11T23:35:04,0.782,457.2,15.21,12.62,16.66,831.660,2070.680,113.216667,24.82,2.4996,355,23870,1.95496,4.03,50150,,,,,,,,,,,,,,,,,,99999,99999,99999,99999,99999,99999,99999,99999,99999,99999,99999,99999
9:22:10,1510443330,2017-11-11T23:35:34,0.784,457.6,15.20,12.60,16.70,831.740,2070.640,110.000000,25.08,2.4996,355,23870,1.95985,4.03,50145,,,,,,,,,,,,,,,,,,99999,99999,99999,99999,99999,99999,99999,99999,99999,99999,99999,99999
9:22:40,1510443360,2017-11-11T23:36:04,0.779,458.0,15.20,12.59,16.66,831.720,2070.640,109.983330,24.85,2.4997,355,23872,1.94673,4.03,50140,,,,,,,,,,,,,,,,,,99999,99999,99999,99999,99999,99999,99999,99999,99999,99999,99999,99999
9:23:10,1510443390,2017-11-11T23:36:34,0.780,458.4,15.20,12.60,16.67,831.690,2070.640,110.433334,24.92,2.4997,355,23870,1.94855,4.03,50136,,,,,,,,,,,,,,,,,,99999,99999,99999,99999,99999,99999,99999,99999,99999,99999,99999,99999
9:23:40,1510443420,2017-11-11T23:37:04,0.777,458.8,15.19,12.59,16.64,831.660,2070.640,111.683334,25.09,2.4997,355,23865,1.94186,4.03,50131,,,,,,,,,,,,,,,,,,99999,99999,99999,99999,99999,99999,99999,99999,99999,99999,99999,99999
9:24:10,1510443450,2017-11-11T23:37:34,0.781,459.2,15.18,12.59,16.61,831.690,2070.570,111.666664,25.24,2.4997,355,23868,1.95221,4.03,50126,,,,,,,,,,,,,,,,,,99999,99999,99999,99999,99999,99999,99999,99999,99999,99999,99999,99999
9:24:40,1510443480,2017-11-11T23:38:04,0.776,459.6,15.18,12.56,16.64,831.640,2070.570,111.933334,24.95,2.4997,355,23867,1.94094,4.03,50121,,,,,,,,,,,,,,,,,,99999,99999,99999,99999,99999,99999,99999,99999,99999,99999,99999,99999
9:25:10,1510443510,2017-11-11T23:38:34,0.779,460.0,15.16,12.56,16.63,831.670,2070.440,108.783333,25.28,2.4997,355,23868,1.94794,4.03,50117,,,,,,,,,,,,,,,,,,99999,99999,99999,99999,99999,99999,99999,99999,99999,99999,99999,99999
9:25:40,1510443540,2017-11-11T23:39:04,0.781,460.3,15.16,12.53,16.64,831.750,2070.440,112.733330,24.97,2.4998,355,23863,1.95130,4.03,50112,,,,,,,,,,,,,,,,,,99999,99999,99999,99999,99999,99999,99999,99999,99999,99999,99999,99999
9:26:10,1510443570,2017-11-11T23:39:34,0.779,460.7,15.14,12.53,16.64,831.730,2070.410,109.699997,24.73,2.4999,355,23864,1.94764,4.03,50107,,,,,,,,,,,,,,,,,,99999,99999,99999,99999,99999,99999,99999,99999,99999,99999,99999,99999
9:26:40,1510443600,2017-11-11T23:40:04,0.783,461.1,15.12,12.49,16.59,831.710,2070.340,109.699997,25.08,2.5000,355,23863,1.95740,4.03,50102,,,,,,,,,,,,,,,,,,99999,99999,99999,99999,99999,99999,99999,99999,99999,99999,99999,99999
9:27:10,1510443630,2017-11-11T23:40:34,0.779,461.5,15.10,12.48,16.58,831.680,2070.280,109.316666,25.16,2.5001,355,23863,1.94642,4.03,50098,,,,,,,,,,,,,,,,,,99999,99999,99999,99999,99999,99999,99999,99999,99999,99999,99999,99999
9:27:40,1510443660,2017-11-11T23:41:04,0.783,461.9,15.08,12.45,16.55,831.740,2070.240,109.500000,25.00,2.5002,355,23862,1.95709,4.03,50093,,,,,,,,,,,,,,,,,,99999,99999,99999,99999,99999,99999,99999,99999,99999,99999,99999,99999
9:28:10,1510443690,2017-11-11T23:41:34,0.778,462.3,15.08,12.44,16.53,831.820,2070.240,109.983330,24.99,2.5002,355,23863,1.94612,4.03,50088,,,,,,,,,,,,,,,,,,99999,99999,99999,99999,99999,99999,99999,99999,99999,99999,99999,99999
9:28:40,1510443720,2017-11-11T23:42:04,0.784,462.7,15.05,12.41,16.53,831.780,2070.110,109.966667,25.27,2.5003,355,23861,1.96046,4.03,50083,,,,,,,,,,,,,,,,,,99999,99999,99999,99999,99999,99999,99999,99999,99999,99999,99999,99999
9:29:10,1510443750,2017-11-11T23:42:34,0.782,463.1,15.04,12.40,16.53,831.860,2070.110,112.166664,25.14,2.5004,355,23860,1.95618,4.03,50079,,,,,,,,,,,,,,,,,,99999,99999,99999,99999,99999,99999,99999,99999,99999,99999,99999,99999
9:29:40,1510443780,2017-11-11T23:43:04,0.778,463.5,15.02,12.37,16.50,831.790,2070.010,110.699997,25.43,2.5004,355,23859,1.94551,4.03,50074,,,,,,,,,,,,,,,,,,99999,99999,99999,99999,99999,99999,99999,99999,99999,99999,99999,99999
9:30:10,1510443810,2017-11-11T23:43:34,0.777,463.9,14.99,12.35,16.47,831.790,2069.890,111.433334,25.43,2.5006,355,23860,1.94307,4.03,50069,,,,,,,,,,,,,,,,,,99999,99999,99999,99999,99999,99999,99999,99999,99999,99999,99999,99999
9:30:40,1510443840,2017-11-11T23:44:04,0.780,464.3,14.97,12.33,16.45,831.870,2069.820,109.550003,25.44,2.5007,355,23858,1.95099,4.03,50064,,,,,,,,,,,,,,,,,,99999,99999,99999,99999,99999,99999,99999,99999,99999,99999,99999,99999
9:31:10,1510443870,2017-11-11T23:44:34,0.776,464.6,14.95,12.30,16.45,831.830,2069.780,112.400002,25.54,2.5008,355,23857,1.94064,4.03,50060,,,,,,,,,,,,,,,,,,99999,99999,99999,99999,99999,99999,99999,99999,99999,99999,99999,99999
9:31:40,1510443900,2017-11-11T23:45:04,0.781,465.0,14.93,12.28,16.42,831.720,2069.720,112.050003,25.54,2.5009,355,23857,1.95343,4.03,50055,,,,,,,,,,,,,,,,,,99999,99999,99999,99999,99999,99999,99999,99999,99999,99999,99999,99999
9:32:10,1510443930,2017-11-11T23:45:34,0.778,465.4,14.90,12.24,16.40,831.730,2069.650,109.516670,25.26,2.5011,355,23857,1.94520,4.03,50050,,,,,,,,,,,,,,,,,,99999,99999,99999,99999,99999,99999,99999,99999,99999,99999,99999,99999
9:32:40,1510443960,2017-11-11T23:46:04,0.779,465.8,14.88,12.23,16.37,831.710,2069.490,108.216667,25.73,2.5010,355,23857,1.94947,4.03,50045,,,,,,,,,,,,,,,,,,99999,99999,99999,99999,99999,99999,99999,99999,99999,99999,99999,99999
9:33:10,1510443990,2017-11-11T23:46:34,0.781,466.2,14.83,12.19,16.32,831.720,2069.380,113.066666,25.71,2.5013,355,23855,1.95404,4.03,50041,,,,,,,,,,,,,,,,,,99999,99999,99999,99999,99999,99999,99999,99999,99999,99999,99999,99999
9:33:40,1510444020,2017-11-11T23:47:04,0.782,466.6,14.81,12.14,16.32,831.750,2069.320,109.766670,25.53,2.5015,355,23854,1.95679,4.03,50036,,,,,,,,,,,,,,,,,,99999,99999,99999,99999,99999,99999,99999,99999,99999,99999,99999,99999
9:34:10,1510444050,2017-11-11T23:47:34,0.779,467.0,14.78,12.12,16.27,831.780,2069.190,113.016670,25.53,2.5016,355,23849,1.94855,4.03,50031,,,,,,,,,,,,,,,,,,99999,99999,99999,99999,99999,99999,99999,99999,99999,99999,99999,99999
9:34:40,1510444080,2017-11-11T23:48:04,0.777,467.4,14.74,12.10,16.24,831.820,2069.030,109.583336,25.77,2.5017,355,23851,1.94429,4.03,50026,,,,,,,,,,,,,,,,,,99999,99999,99999,99999,99999,99999,99999,99999,99999,99999,99999,99999
9:35:10,1510444110,2017-11-11T23:48:34,0.777,467.8,14.71,12.07,16.20,831.750,2068.920,108.050003,25.92,2.5018,355,23849,1.94490,4.03,50022,,,,,,,,,,,,,,,,,,99999,99999,99999,99999,99999,99999,99999,99999,99999,99999,99999,99999
9:35:40,1510444140,2017-11-11T23:49:04,0.776,468.2,14.69,12.03,16.23,831.780,2068.860,108.466667,25.43,2.5020,355,23848,1.94277,4.03,50017,,,,,,,,,,,,,,,,,,99999,99999,99999,99999,99999,99999,99999,99999,99999,99999,99999,99999
9:36:10,1510444170,2017-11-11T23:49:34,0.783,468.5,14.66,12.00,16.13,831.760,2068.800,109.666664,25.43,2.5022,355,23848,1.95832,4.03,50012,,,,,,,,,,,,,,,,,,99999,99999,99999,99999,99999,99999,99999,99999,99999,99999,99999,99999
9:36:40,1510444200,2017-11-11T23:50:04,0.781,468.9,14.62,11.99,16.09,831.770,2068.630,110.766670,25.30,2.5023,355,23850,1.95374,4.03,50008,,,,,,,,,,,,,,,,,,99999,99999,99999,99999,99999,99999,99999,99999,99999,99999,99999,99999
9:37:10,1510444230,2017-11-11T23:50:34,0.778,469.3,14.61,11.93,16.08,831.800,2068.570,108.449997,25.66,2.5023,355,23848,1.94733,4.03,50003,,,,,,,,,,,,,,,,,,99999,99999,99999,99999,99999,99999,99999,99999,99999,99999,99999,99999
9:37:40,1510444260,2017-11-11T23:51:04,0.776,469.7,14.59,11.93,16.08,831.720,2068.520,108.833336,25.81,2.5024,355,23846,1.94216,4.03,49998,,,,,,,,,,,,,,,,,,99999,99999,99999,99999,99999,99999,99999,99999,99999,99999,99999,99999
9:38:10,1510444290,2017-11-11T23:51:34,0.780,470.1,14.56,11.92,16.05,831.780,2068.400,112.099998,25.91,2.5025,355,23849,1.95160,4.03,49993,,,,,,,,,,,,,,,,,,99999,99999,99999,99999,99999,99999,99999,99999,99999,99999,99999,99999
9:38:40,1510444320,2017-11-11T23:52:04,0.779,470.5,14.55,11.90,16.01,831.840,2068.400,110.650002,25.46,2.5026,355,23846,1.94947,4.03,49989,,,,,,,,,,,,,,,,,,99999,99999,99999,99999,99999,99999,99999,99999,99999,99999,99999,99999
9:39:10,1510444350,2017-11-11T23:52:34,0.775,470.9,14.53,11.88,16.03,831.870,2068.340,109.983330,25.86,2.5027,355,23847,1.94064,4.03,49984,,,,,,,,,,,,,,,,,,99999,99999,99999,99999,99999,99999,99999,99999,99999,99999,99999,99999
9:39:40,1510444380,2017-11-11T23:53:04,0.780,471.3,14.50,11.87,16.00,831.740,2068.170,111.516670,25.91,2.5028,355,23847,1.95282,4.03,49979,,,,,,,,,,,,,,,,,,99999,99999,99999,99999,99999,99999,99999,99999,99999,99999,99999,99999
9:40:10,1510444410,2017-11-11T23:53:34,0.780,471.7,14.49,11.86,16.00,831.690,2068.170,111.066666,25.72,2.5029,355,23847,1.95343,4.03,49974,,,,,,,,,,,,,,,,,,99999,99999,99999,99999,99999,99999,99999,99999,99999,99999,99999,99999
9:40:40,1510444440,2017-11-11T23:54:04,0.782,472.0,14.47,11.83,15.97,831.780,2068.110,111.183334,25.68,2.5030,355,23845,1.95618,4.03,49970,,,,,,,,,,,,,,,,,,99999,99999,99999,99999,99999,99999,99999,99999,99999,99999,99999,99999
9:41:10,1510444470,2017-11-11T23:54:34,0.780,472.4,14.45,11.81,15.97,831.760,2068.070,108.583336,25.88,2.5031,355,23844,1.95190,4.03,49965,,,,,,,,,,,,,,,,,,99999,99999,99999,99999,99999,99999,99999,99999,99999,99999,99999,99999
9:41:40,1510444500,2017-11-11T23:55:04,0.779,472.8,14.44,11.80,15.94,831.700,2068.000,109.349998,25.94,2.5031,355,23845,1.94977,4.03,49960,,,,,,,,,,,,,,,,,,99999,99999,99999,99999,99999,99999,99999,99999,99999,99999,99999,99999
9:42:10,1510444530,2017-11-11T23:55:34,0.776,473.2,14.43,11.78,15.91,831.810,2068.000,110.333336,26.06,2.5032,355,23843,1.94338,4.03,49956,,,,,,,,,,,,,,,,,,99999,99999,99999,99999,99999,99999,99999,99999,99999,99999,99999,99999
9:42:40,1510444560,2017-11-11T23:56:04,0.780,473.6,14.42,11.76,15.89,831.790,2067.940,111.699997,25.92,2.5032,355,23843,1.95252,4.03,49951,,,,,,,,,,,,,,,,,,99999,99999,99999,99999,99999,99999,99999,99999,99999,99999,99999,99999
9:43:10,1510444590,2017-11-11T23:56:34,0.778,474.0,14.41,11.74,15.87,831.770,2067.900,108.866669,25.61,2.5033,355,23842,1.94673,4.03,49946,,,,,,,,,,,,,,,,,,99999,99999,99999,99999,99999,99999,99999,99999,99999,99999,99999,99999
9:43:40,1510444620,2017-11-11T23:57:04,0.778,474.4,14.40,11.73,15.85,831.790,2067.880,108.383331,25.78,2.5033,355,23843,1.94825,4.03,49941,,,,,,,,,,,,,,,,,,99999,99999,99999,99999,99999,99999,99999,99999,99999,99999,99999,99999
9:44:10,1510444650,2017-11-11T23:57:34,0.773,474.8,14.39,11.73,15.87,831.800,2067.840,110.283333,26.15,2.5033,355,23842,1.93426,4.03,49937,,,,,,,,,,,,,,,,,,99999,99999,99999,99999,99999,99999,99999,99999,99999,99999,99999,99999
9:44:40,1510444680,2017-11-11T23:58:04,0.778,475.2,14.39,11.73,15.82,831.770,2067.840,112.449997,26.01,2.5033,355,23840,1.94673,4.03,49932,,,,,,,,,,,,,,,,,,99999,99999,99999,99999,99999,99999,99999,99999,99999,99999,99999,99999
9:45:10,1510444710,2017-11-11T23:58:34,0.780,475.5,14.38,11.71,15.82,831.740,2067.840,109.583336,26.02,2.5034,355,23840,1.95221,4.03,49927,,,,,,,,,,,,,,,,,,99999,99999,99999,99999,99999,99999,99999,99999,99999,99999,99999,99999
9:45:40,1510444740,2017-11-11T23:59:04,0.777,475.9,14.37,11.71,15.81,831.800,2067.710,108.800003,26.22,2.5033,355,23842,1.94581,4.03,49923,,,,,,,,,,,,,,,,,,99999,99999,99999,99999,99999,99999,99999,99999,99999,99999,99999,99999
9:46:10,1510444770,2017-11-11T23:59:34,0.781,476.3,14.35,11.67,15.82,831.880,2067.670,110.650002,26.33,2.5035,355,23839,1.95404,4.03,49918,,,,,,,,,,,,,,,,,,99999,99999,99999,99999,99999,99999,99999,99999,99999,99999,99999,99999
9:46:40,1510444800,2017-11-12T00:00:04,0.778,476.7,14.35,11.65,15.81,831.860,2067.670,108.550003,26.35,2.5035,355,23841,1.94886,4.03,49913,,,,,,,,,,,,,,,,,,99999,99999,99999,99999,99999,99999,99999,99999,99999,99999,99999,99999
9:47:10,1510444830,2017-11-12T00:00:34,0.774,477.1,14.32,11.63,15.79,831.730,2067.610,108.683334,26.57,2.5036,355,23840,1.93730,4.03,49908,,,,,,,,,,,,,,,,,,99999,99999,99999,99999,99999,99999,99999,99999,99999,99999,99999,99999
9:47:40,1510444860,2017-11-12T00:01:04,0.782,477.5,14.30,11.61,15.79,831.850,2067.550,109.066666,26.93,2.5037,355,23839,1.95862,4.03,49904,,,,,,,,,,,,,,,,,,99999,99999,99999,99999,99999,99999,99999,99999,99999,99999,99999,99999
9:48:10,1510444890,2017-11-12T00:01:34,0.779,477.9,14.27,11.57,15.77,831.800,2067.440,106.800003,26.51,2.5039,355,23837,1.95130,4.03,49899,,,,,,,,,,,,,,,,,,99999,99999,99999,99999,99999,99999,99999,99999,99999,99999,99999,99999
9:48:40,1510444920,2017-11-12T00:02:04,0.783,478.3,14.23,11.52,15.73,831.880,2067.270,106.833336,26.50,2.5040,355,23834,1.96076,4.03,49894,,,,,,,,,,,,,,,,,,99999,99999,99999,99999,99999,99999,99999,99999,99999,99999,99999,99999
9:49:10,1510444950,2017-11-12T00:02:34,0.779,478.7,14.19,11.51,15.69,831.890,2067.150,110.349998,26.66,2.5042,355,23833,1.95160,4.03,49890,,,,,,,,,,,,,,,,,,99999,99999,99999,99999,99999,99999,99999,99999,99999,99999,99999,99999
9:49:40,1510444980,2017-11-12T00:03:04,0.774,479.0,14.15,11.45,15.66,831.770,2067.050,108.250000,26.03,2.5045,355,23833,1.93821,4.03,49885,,,,,,,,,,,,,,,,,,99999,99999,99999,99999,99999,99999,99999,99999,99999,99999,99999,99999
9:50:10,1510445010,2017-11-12T00:03:34,0.777,479.4,14.12,11.43,15.63,831.750,2066.860,110.650002,26.53,2.5045,355,23831,1.94673,4.03,49880,,,,,,,,,,,,,,,,,,99999,99999,99999,99999,99999,99999,99999,99999,99999,99999,99999,99999
9:50:40,1510445040,2017-11-12T00:04:04,0.772,479.8,14.09,11.40,15.60,831.890,2066.750,110.000000,26.73,2.5046,355,23831,1.93274,4.03,49875,,,,,,,,,,,,,,,,,,99999,99999,99999,99999,99999,99999,99999,99999,99999,99999,99999,99999
9:51:10,1510445070,2017-11-12T00:04:34,0.771,480.2,14.07,11.38,15.58,831.920,2066.690,110.716667,26.89,2.5047,355,23829,1.93123,4.03,49871,,,,,,,,,,,,,,,,,,99999,99999,99999,99999,99999,99999,99999,99999,99999,99999,99999,99999
9:51:40,1510445100,2017-11-12T00:05:04,0.774,480.6,14.03,11.33,15.56,831.950,2066.580,109.349998,27.04,2.5049,355,23826,1.93760,4.03,49866,,,,,,,,,,,,,,,,,,99999,99999,99999,99999,99999,99999,99999,99999,99999,99999,99999,99999
9:52:10,1510445130,2017-11-12T00:05:34,0.779,481.0,14.00,11.31,15.47,831.860,2066.520,108.033333,26.58,2.5051,355,23824,1.95038,4.03,49861,,,,,,,,,,,,,,,,,,99999,99999,99999,99999,99999,99999,99999,99999,99999,99999,99999,99999
9:52:40,1510445160,2017-11-12T00:06:04,0.775,481.4,13.98,11.29,15.48,831.920,2066.420,107.716667,26.57,2.5052,355,23828,1.94064,4.03,49857,,,,,,,,,,,,,,,,,,99999,99999,99999,99999,99999,99999,99999,99999,99999,99999,99999,99999
9:53:10,1510445190,2017-11-12T00:06:34,0.772,481.8,13.95,11.27,15.45,831.970,2066.300,107.516670,26.32,2.5053,355,23824,1.93335,4.03,49852,,,,,,,,,,,,,,,,,,99999,99999,99999,99999,99999,99999,99999,99999,99999,99999,99999,99999
9:53:40,1510445220,2017-11-12T00:07:04,0.776,482.1,13.92,11.25,15.42,832.010,2066.190,106.433334,26.06,2.5055,355,23825,1.94520,4.03,49847,,,,,,,,,,,,,,,,,,99999,99999,99999,99999,99999,99999,99999,99999,99999,99999,99999,99999
9:54:10,1510445250,2017-11-12T00:07:34,0.776,482.5,13.91,11.24,15.40,831.910,2066.190,108.599998,26.61,2.5055,355,23825,1.94551,4.03,49843,,,,,,,,,,,,,,,,,,99999,99999,99999,99999,99999,99999,99999,99999,99999,99999,99999,99999
9:54:40,1510445280,2017-11-12T00:08:04,0.776,482.9,13.90,11.22,15.35,831.990,2066.130,110.633331,27.06,2.5055,355,23827,1.94520,4.03,49838,,,,,,,,,,,,,,,,,,99999,99999,99999,99999,99999,99999,99999,99999,99999,99999,99999,99999
9:55:10,1510445310,2017-11-12T00:08:34,0.774,483.3,13.89,11.22,15.39,831.990,2066.130,107.316666,26.62,2.5056,355,23824,1.93973,4.03,49833,,,,,,,,,,,,,,,,,,99999,99999,99999,99999,99999,99999,99999,99999,99999,99999,99999,99999
9:55:40,1510445340,2017-11-12T00:09:04,0.772,483.7,13.88,11.25,15.34,831.940,2066.070,107.816666,26.70,2.5056,355,23826,1.93456,4.03,49828,,,,,,,,,,,,,,,,,,99999,99999,99999,99999,99999,99999,99999,99999,99999,99999,99999,99999
9:56:10,1510445370,2017-11-12T00:09:34,0.772,484.1,13.88,11.21,15.37,831.990,2066.070,109.199997,26.69,2.5056,355,23826,1.93335,4.03,49824,,,,,,,,,,,,,,,,,,99999,99999,99999,99999,99999,99999,99999,99999,99999,99999,99999,99999
9:56:40,1510445400,2017-11-12T00:10:04,0.774,484.5,13.86,11.21,15.34,831.970,2065.960,108.400002,26.71,2.5057,355,23823,1.94064,4.03,49819,,,,,,,,,,,,,,,,,,99999,99999,99999,99999,99999,99999,99999,99999,99999,99999,99999,99999
9:57:10,1510445430,2017-11-12T00:10:34,0.775,484.9,13.87,11.21,15.34,832.050,2066.070,104.666664,26.67,2.5057,355,23823,1.94277,4.03,49814,,,,,,,,,,,,,,,,,,99999,99999,99999,99999,99999,99999,99999,99999,99999,99999,99999,99999
9:57:40,1510445460,2017-11-12T00:11:04,0.771,485.2,13.86,11.19,15.31,832.020,2065.960,108.816666,26.52,2.5057,355,23825,1.93183,4.03,49810,,,,,,,,,,,,,,,,,,99999,99999,99999,99999,99999,99999,99999,99999,99999,99999,99999,99999
9:58:10,1510445490,2017-11-12T00:11:34,0.774,485.6,13.85,11.18,15.29,832.130,2065.960,106.699997,26.37,2.5058,355,23826,1.94064,4.03,49805,,,,,,,,,,,,,,,,,,99999,99999,99999,99999,99999,99999,99999,99999,99999,99999,99999,99999
9:58:40,1510445520,2017-11-12T00:12:04,0.779,486.0,13.84,11.19,15.34,832.080,2065.900,108.733330,26.26,2.5058,355,23825,1.95130,4.03,49800,,,,,,,,,,,,,,,,,,99999,99999,99999,99999,99999,99999,99999,99999,99999,99999,99999,99999
9:59:10,1510445550,2017-11-12T00:12:34,0.772,486.4,13.85,11.18,15.32,832.050,2065.960,110.116669,26.00,2.5058,355,23826,1.93396,4.03,49796,,,,,,,,,,,,,,,,,,99999,99999,99999,99999,99999,99999,99999,99999,99999,99999,99999,99999
9:59:40,1510445580,2017-11-12T00:13:04,0.773,486.8,13.85,11.20,15.31,832.000,2065.960,107.166664,26.64,2.5058,355,23825,1.93699,4.03,49791,,,,,,,,,,,,,,,,,,99999,99999,99999,99999,99999,99999,99999,99999,99999,99999,99999,99999
10:00:10,1510445610,2017-11-12T00:13:34,0.778,487.2,13.85,11.20,15.29,832.050,2065.960,109.433334,26.19,2.5058,355,23825,1.94947,4.03,49786,,,,,,,,,,,,,,,,,,99999,99999,99999,99999,99999,99999,99999,99999,99999,99999,99999,99999
10:00:40,1510445640,2017-11-12T00:14:04,0.771,487.6,13.86,11.19,15.31,832.050,2065.960,108.900002,26.40,2.5057,355,23824,1.93274,4.03,49782,,,,,,,,,,,,,,,,,,99999,99999,99999,99999,99999,99999,99999,99999,99999,99999,99999,99999
10:01:10,1510445670,2017-11-12T00:14:34,0.772,488.0,13.87,11.19,15.32,832.100,2066.070,109.333336,26.23,2.5058,355,23822,1.93365,4.03,49777,,,,,,,,,,,,,,,,,,99999,99999,99999,99999,99999,99999,99999,99999,99999,99999,99999,99999
10:01:40,1510445700,2017-11-12T00:15:04,0.777,488.3,13.87,11.20,15.34,832.020,2066.070,110.266670,26.43,2.5057,355,23823,1.94673,4.03,49772,,,,,,,,,,,,,,,,,,99999,99999,99999,99999,99999,99999,99999,99999,99999,99999,99999,99999
10:02:10,1510445730,2017-11-12T00:15:34,0.774,488.7,13.89,11.21,15.32,832.130,2066.130,108.266670,26.30,2.5057,355,23823,1.93942,4.03,49768,,,,,,,,,,,,,,,,,,99999,99999,99999,99999,99999,99999,99999,99999,99999,99999,99999,99999
10:02:40,1510445760,2017-11-12T00:16:04,0.775,489.1,13.89,11.20,15.34,832.020,2066.130,110.550003,26.24,2.5057,355,23824,1.94155,4.03,49763,,,,,,,,,,,,,,,,,,99999,99999,99999,99999,99999,99999,99999,99999,99999,99999,99999,99999
10:03:10,1510445790,2017-11-12T00:16:34,0.778,489.5,13.89,11.21,15.32,832.100,2066.130,109.150002,26.32,2.5057,355,23824,1.94977,4.03,49758,,,,,,,,,,,,,,,,,,99999,99999,99999,99999,99999,99999,99999,99999,99999,99999,99999,99999
10:03:40,1510445820,2017-11-12T00:17:04,0.775,489.9,13.91,11.20,15.35,832.140,2066.190,109.833336,25.91,2.5056,355,23824,1.94186,4.03,49753,,,,,,,,,,,,,,,,,,99999,99999,99999,99999,99999,99999,99999,99999,99999,99999,99999,99999
10:04:10,1510445850,2017-11-12T00:17:34,0.772,490.3,13.91,11.22,15.35,832.040,2066.190,108.683334,26.45,2.5055,355,23825,1.93304,4.03,49749,,,,,,,,,,,,,,,,,,99999,99999,99999,99999,99999,99999,99999,99999,99999,99999,99999,99999
10:04:40,1510445880,2017-11-12T00:18:04,0.770,490.7,13.91,11.22,15.39,832.090,2066.190,109.800003,26.09,2.5056,355,23824,1.93032,4.03,49744,,,,,,,,,,,,,,,,,,99999,99999,99999,99999,99999,99999,99999,99999,99999,99999,99999,99999
10:05:10,1510445910,2017-11-12T00:18:34,0.778,491.1,13.92,11.22,15.37,832.140,2066.190,110.983330,26.67,2.5054,355,23824,1.94825,4.03,49739,,,,,,,,,,,,,,,,,,99999,99999,99999,99999,99999,99999,99999,99999,99999,99999,99999,99999
10:05:40,1510445940,2017-11-12T00:19:04,0.773,491.4,13.92,11.22,15.37,832.190,2066.190,110.116669,26.22,2.5055,355,23826,1.93547,4.03,49735,,,,,,,,,,,,,,,,,,99999,99999,99999,99999,99999,99999,99999,99999,99999,99999,99999,99999
10:06:10,1510445970,2017-11-12T00:19:34,0.774,491.8,13.91,11.19,15.35,832.170,2066.190,110.099998,26.46,2.5055,355,23823,1.93973,4.03,49730,,,,,,,,,,,,,,,,,,99999,99999,99999,99999,99999,99999,99999,99999,99999,99999,99999,99999
10:06:40,1510446000,2017-11-12T00:20:04,0.777,492.2,13.91,11.21,15.32,832.220,2066.190,111.216667,26.30,2.5056,355,23825,1.94794,4.03,49725,,,,,,,,,,,,,,,,,,99999,99999,99999,99999,99999,99999,99999,99999,99999,99999,99999,99999
10:07:10,1510446030,2017-11-12T00:20:34,0.777,492.6,13.91,11.19,15.34,832.200,2066.190,111.500000,26.20,2.5056,355,23825,1.94673,4.03,49721,,,,,,,,,,,,,,,,,,99999,99999,99999,99999,99999,99999,99999,99999,99999,99999,99999,99999
10:07:40,1510446060,2017-11-12T00:21:04,0.777,493.0,13.91,11.20,15.34,832.170,2066.190,110.916664,26.09,2.5056,355,23825,1.94673,4.03,49716,,,,,,,,,,,,,,,,,,99999,99999,99999,99999,99999,99999,99999,99999,99999,99999,99999,99999
10:08:10,1510446090,2017-11-12T00:21:34,0.775,493.4,13.91,11.20,15.35,832.200,2066.190,109.300003,26.04,2.5056,355,23826,1.94277,4.03,49711,,,,,,,,,,,,,,,,,,99999,99999,99999,99999,99999,99999,99999,99999,99999,99999,99999,99999
10:08:40,1510446120,2017-11-12T00:22:04,0.772,493.8,13.91,11.18,15.34,832.280,2066.190,108.516670,26.33,2.5055,355,23827,1.93547,4.03,49707,,,,,,,,,,,,,,,,,,99999,99999,99999,99999,99999,99999,99999,99999,99999,99999,99999,99999
10:09:10,1510446150,2017-11-12T00:22:34,0.772,494.2,13.90,11.19,15.34,832.250,2066.130,107.566666,26.14,2.5056,355,23826,1.93456,4.03,49702,,,,,,,,,,,,,,,,,,99999,99999,99999,99999,99999,99999,99999,99999,99999,99999,99999,99999
10:09:40,1510446180,2017-11-12T00:23:04,0.771,494.5,13.90,11.19,15.37,832.200,2066.130,107.800003,26.42,2.5056,355,23826,1.93213,4.03,49697,,,,,,,,,,,,,,,,,,99999,99999,99999,99999,99999,99999,99999,99999,99999,99999,99999,99999
10:10:10,1510446210,2017-11-12T00:23:34,0.772,494.9,13.89,11.19,15.37,832.130,2066.130,109.183334,26.39,2.5056,355,23825,1.93456,4.03,49692,,,,,,,,,,,,,,,,,,99999,99999,99999,99999,99999,99999,99999,99999,99999,99999,99999,99999
10:10:40,1510446240,2017-11-12T00:24:04,0.777,495.3,13.89,11.17,15.31,832.230,2066.130,111.266670,25.91,2.5057,355,23823,1.94673,4.03,49688,,,,,,,,,,,,,,,,,,99999,99999,99999,99999,99999,99999,99999,99999,99999,99999,99999,99999
10:11:10,1510446270,2017-11-12T00:24:34,0.772,495.7,13.89,11.17,15.32,832.260,2066.130,107.133331,26.17,2.5057,355,23825,1.93456,4.03,49683,,,,,,,,,,,,,,,,,,99999,99999,99999,99999,99999,99999,99999,99999,99999,99999,99999,99999
10:11:40,1510446300,2017-11-12T00:25:04,0.777,496.1,13.88,11.16,15.27,832.230,2066.070,108.816666,26.21,2.5057,355,23822,1.94733,4.03,49678,,,,,,,,,,,,,,,,,,99999,99999,99999,99999,99999,99999,99999,99999,99999,99999,99999,99999
10:12:10,1510446330,2017-11-12T00:25:34,0.778,496.5,13.86,11.17,15.31,832.290,2065.960,108.750000,25.94,2.5057,355,23820,1.95038,4.03,49674,,,,,,,,,,,,,,,,,,99999,99999,99999,99999,99999,99999,99999,99999,99999,99999,99999,99999
10:12:40,1510446360,2017-11-12T00:26:04,0.772,496.9,13.86,11.15,15.31,832.260,2065.960,109.016670,25.97,2.5057,355,23822,1.93335,4.03,49669,,,,,,,,,,,,,,,,,,99999,99999,99999,99999,99999,99999,99999,99999,99999,99999,99999,99999
10:13:10,1510446390,2017-11-12T00:26:34,0.776,497.3,13.86,11.17,15.31,832.290,2065.960,108.283333,25.80,2.5058,355,23824,1.94338,4.03,49664,,,,,,,,,,,,,,,,,,99999,99999,99999,99999,99999,99999,99999,99999,99999,99999,99999,99999
10:13:40,1510446420,2017-11-12T00:27:04,0.776,497.6,13.87,11.16,15.29,832.310,2066.070,110.633331,25.95,2.5058,355,23822,1.94368,4.03,49660,,,,,,,,,,,,,,,,,,99999,99999,99999,99999,99999,99999,99999,99999,99999,99999,99999,99999
10:14:10,1510446450,2017-11-12T00:27:34,0.777,498.0,13.86,11.16,15.31,832.310,2065.960,110.983330,25.90,2.5057,355,23823,1.94703,4.03,49655,,,,,,,,,,,,,,,,,,99999,99999,99999,99999,99999,99999,99999,99999,99999,99999,99999,99999
10:14:40,1510446480,2017-11-12T00:28:04,0.778,498.4,13.86,11.15,15.29,832.370,2065.960,109.883331,25.90,2.5057,355,23824,1.94825,4.03,49650,,,,,,,,,,,,,,,,,,99999,99999,99999,99999,99999,99999,99999,99999,99999,99999,99999,99999
10:15:10,1510446510,2017-11-12T00:28:34,0.778,498.8,13.87,11.17,15.27,832.310,2066.070,109.699997,26.02,2.5058,355,23822,1.94825,4.03,49646,,,,,,,,,,,,,,,,,,99999,99999,99999,99999,99999,99999,99999,99999,99999,99999,99999,99999
10:15:40,1510446540,2017-11-12T00:29:04,0.774,499.2,13.87,11.17,15.27,832.290,2066.070,109.516670,26.27,2.5058,355,23824,1.93942,4.03,49641,,,,,,,,,,,,,,,,,,99999,99999,99999,99999,99999,99999,99999,99999,99999,99999,99999,99999
10:16:10,1510446570,2017-11-12T00:29:34,0.772,499.6,13.86,11.15,15.32,832.370,2065.960,110.883331,26.17,2.5057,355,23823,1.93547,4.03,49636,,,,,,,,,,,,,,,,,,99999,99999,99999,99999,99999,99999,99999,99999,99999,99999,99999,99999
10:16:40,1510446600,2017-11-12T00:30:04,0.773,500.0,13.86,11.16,15.32,832.390,2065.960,108.900002,26.34,2.5057,355,23823,1.93669,4.03,49631,,,,,,,,,,,,,,,,,,99999,99999,99999,99999,99999,99999,99999,99999,99999,99999,99999,99999
10:17:10,1510446630,2017-11-12T00:30:34,0.776,500.4,13.85,11.15,15.29,832.320,2065.960,111.183334,25.95,2.5058,355,23822,1.94520,4.03,49627,,,,,,,,,,,,,,,,,,99999,99999,99999,99999,99999,99999,99999,99999,99999,99999,99999,99999
10:17:40,1510446660,2017-11-12T00:31:04,0.773,500.7,13.85,11.15,15.29,832.350,2065.960,107.800003,26.02,2.5058,355,23824,1.93638,4.03,49622,,,,,,,,,,,,,,,,,,99999,99999,99999,99999,99999,99999,99999,99999,99999,99999,99999,99999
10:18:10,1510446690,2017-11-12T00:31:34,0.775,501.1,13.85,11.15,15.27,832.430,2065.960,109.833336,25.75,2.5058,355,23821,1.94186,4.03,49617,,,,,,,,,,,,,,,,,,99999,99999,99999,99999,99999,99999,99999,99999,99999,99999,99999,99999
10:18:40,1510446720,2017-11-12T00:32:04,0.778,501.5,13.85,11.13,15.29,832.320,2065.960,110.099998,25.86,2.5058,355,23821,1.95038,4.03,49613,,,,,,,,,,,,,,,,,,99999,99999,99999,99999,99999,99999,99999,99999,99999,99999,99999,99999
10:19:10,1510446750,2017-11-12T00:32:34,0.778,501.9,13.84,11.14,15.27,832.450,2065.900,109.883331,26.05,2.5058,355,23821,1.95008,4.02,49608,,,,,,,,,,,,,,,,,,99999,99999,99999,99999,99999,99999,99999,99999,99999,99999,99999,99999
10:19:40,1510446780,2017-11-12T00:33:04,0.776,502.3,13.83,11.12,15.27,832.450,2065.900,112.099998,26.04,2.5059,355,23821,1.94551,4.02,49603,,,,,,,,,,,,,,,,,,99999,99999,99999,99999,99999,99999,99999,99999,99999,99999,99999,99999
10:20:10,1510446810,2017-11-12T00:33:34,0.770,502.7,13.82,11.12,15.26,832.350,2065.830,110.699997,26.05,2.5059,355,23822,1.92880,4.02,49599,,,,,,,,,,,,,,,,,,99999,99999,99999,99999,99999,99999,99999,99999,99999,99999,99999,99999
10:20:40,1510446840,2017-11-12T00:34:04,0.777,503.1,13.82,11.11,15.24,832.400,2065.830,111.383331,26.36,2.5059,355,23821,1.94673,4.02,49594,,,,,,,,,,,,,,,,,,99999,99999,99999,99999,99999,99999,99999,99999,99999,99999,99999,99999
10:21:10,1510446870,2017-11-12T00:34:34,0.777,503.5,13.82,11.11,15.21,832.480,2065.830,110.550003,25.91,2.5059,355,23819,1.94612,4.02,49589,,,,,,,,,,,,,,,,,,99999,99999,99999,99999,99999,99999,99999,99999,99999,99999,99999,99999
10:21:40,1510446900,2017-11-12T00:35:04,0.777,503.8,13.80,11.09,15.24,832.350,2065.790,108.816666,25.59,2.5061,355,23823,1.94642,4.02,49585,,,,,,,,,,,,,,,,,,99999,99999,99999,99999,99999,99999,99999,99999,99999,99999,99999,99999
10:22:10,1510446930,2017-11-12T00:35:34,0.776,504.2,13.80,11.09,15.24,832.410,2065.790,108.166664,25.78,2.5061,355,23824,1.94551,4.02,49580,,,,,,,,,,,,,,,,,,99999,99999,99999,99999,99999,99999,99999,99999,99999,99999,99999,99999
10:22:40,1510446960,2017-11-12T00:36:04,0.778,504.6,13.79,11.10,15.21,832.460,2065.730,108.816666,26.01,2.5061,355,23821,1.94855,4.02,49575,,,,,,,,,,,,,,,,,,99999,99999,99999,99999,99999,99999,99999,99999,99999,99999,99999,99999
10:23:10,1510446990,2017-11-12T00:36:34,0.775,505.0,13.79,11.08,15.23,832.490,2065.730,112.033333,26.20,2.5061,355,23822,1.94216,4.02,49571,,,,,,,,,,,,,,,,,,99999,99999,99999,99999,99999,99999,99999,99999,99999,99999,99999,99999
10:23:40,1510447020,2017-11-12T00:37:04,0.771,505.4,13.79,11.09,15.18,832.430,2065.730,109.650002,26.15,2.5061,355,23821,1.93153,4.02,49566,,,,,,,,,,,,,,,,,,99999,99999,99999,99999,99999,99999,99999,99999,99999,99999,99999,99999
10:24:10,1510447050,2017-11-12T00:37:34,0.771,505.8,13.78,11.08,15.23,832.510,2065.730,108.650002,25.84,2.5062,355,23820,1.93213,4.02,49561,,,,,,,,,,,,,,,,,,99999,99999,99999,99999,99999,99999,99999,99999,99999,99999,99999,99999
10:24:40,1510447080,2017-11-12T00:38:04,0.770,506.2,13.78,11.08,15.24,832.540,2065.730,109.233330,26.00,2.5062,355,23824,1.93092,4.02,49556,,,,,,,,,,,,,,,,,,99999,99999,99999,99999,99999,99999,99999,99999,99999,99999,99999,99999
10:25:10,1510447110,2017-11-12T00:38:34,0.770,506.5,13.78,11.09,15.21,832.650,2065.730,107.533333,25.92,2.5062,355,23821,1.93092,4.02,49552,,,,,,,,,,,,,,,,,,99999,99999,99999,99999,99999,99999,99999,99999,99999,99999,99999,99999
10:25:40,1510447140,2017-11-12T00:39:04,0.771,506.9,13.77,11.07,15.23,832.600,2065.670,109.849998,25.77,2.5062,355,23821,1.93123,4.02,49547,,,,,,,,,,,,,,,,,,99999,99999,99999,99999,99999,99999,99999,99999,99999,99999,99999,99999
10:26:10,1510447170,2017-11-12T00:39:34,0.770,507.3,13.77,11.06,15.18,832.570,2065.670,108.416664,25.69,2.5062,355,23818,1.93062,4.02,49542,,,,,,,,,,,,,,,,,,99999,99999,99999,99999,99999,99999,99999,99999,99999,99999,99999,99999
10:26:40,1510447200,2017-11-12T00:40:04,0.772,507.7,13.77,11.08,15.19,832.650,2065.670,107.633331,25.92,2.5062,355,23819,1.93365,4.02,49538,,,,,,,,,,,,,,,,,,99999,99999,99999,99999,99999,99999,99999,99999,99999,99999,99999,99999
10:27:10,1510447230,2017-11-12T00:40:34,0.774,508.1,13.77,11.07,15.19,832.600,2065.670,109.599998,25.83,2.5062,355,23818,1.93973,4.02,49533,,,,,,,,,,,,,,,,,,99999,99999,99999,99999,99999,99999,99999,99999,99999,99999,99999,99999
10:27:40,1510447260,2017-11-12T00:41:04,0.776,508.5,13.77,11.07,15.16,832.520,2065.670,110.683334,26.08,2.5062,355,23821,1.94551,4.02,49528,,,,,,,,,,,,,,,,,,99999,99999,99999,99999,99999,99999,99999,99999,99999,99999,99999,99999
10:28:10,1510447290,2017-11-12T00:41:34,0.777,508.9,13.77,11.07,15.21,832.570,2065.670,109.349998,26.27,2.5062,355,23822,1.94642,4.02,49524,,,,,,,,,,,,,,,,,,99999,99999,99999,99999,99999,99999,99999,99999,99999,99999,99999,99999
10:28:40,1510447320,2017-11-12T00:42:04,0.777,509.3,13.77,11.07,15.18,832.550,2065.670,110.349998,26.29,2.5062,355,23820,1.94642,4.02,49519,,,,,,,,,,,,,,,,,,99999,99999,99999,99999,99999,99999,99999,99999,99999,99999,99999,99999
10:29:10,1510447350,2017-11-12T00:42:34,0.778,509.6,13.77,11.07,15.16,832.570,2065.670,110.099998,26.38,2.5062,355,23821,1.94886,4.02,49514,,,,,,,,,,,,,,,,,,99999,99999,99999,99999,99999,99999,99999,99999,99999,99999,99999,99999
10:29:40,1510447380,2017-11-12T00:43:04,0.777,510.0,13.77,11.06,15.18,832.520,2065.670,111.349998,25.92,2.5062,355,23817,1.94612,4.02,49510,,,,,,,,,,,,,,,,,,99999,99999,99999,99999,99999,99999,99999,99999,99999,99999,99999,99999
10:30:10,1510447410,2017-11-12T00:43:34,0.772,510.4,13.76,11.06,15.18,832.520,2065.670,109.766670,26.45,2.5062,355,23820,1.93426,4.02,49505,,,,,,,,,,,,,,,,,,99999,99999,99999,99999,99999,99999,99999,99999,99999,99999,99999,99999
10:30:40,1510447440,2017-11-12T00:44:04,0.771,510.8,13.76,11.03,15.16,832.630,2065.670,108.933334,26.05,2.5063,355,23817,1.93335,4.02,49500,,,,,,,,,,,,,,,,,,99999,99999,99999,99999,99999,99999,99999,99999,99999,99999,99999,99999
10:31:10,1510447470,2017-11-12T00:44:34,0.777,511.2,13.75,11.04,15.13,832.570,2065.630,110.433334,25.86,2.5063,355,23819,1.94764,4.02,49496,,,,,,,,,,,,,,,,,,99999,99999,99999,99999,99999,99999,99999,99999,99999,99999,99999,99999
10:31:40,1510447500,2017-11-12T00:45:04,0.777,511.6,13.74,11.02,15.16,832.610,2065.600,110.250000,26.30,2.5063,355,23822,1.94855,4.02,49491,,,,,,,,,,,,,,,,,,99999,99999,99999,99999,99999,99999,99999,99999,99999,99999,99999,99999
10:32:10,1510447530,2017-11-12T00:45:34,0.776,512.0,13.74,11.01,15.13,832.580,2065.600,109.000000,26.22,2.5063,355,23818,1.94398,4.02,49486,,,,,,,,,,,,,,,,,,99999,99999,99999,99999,99999,99999,99999,99999,99999,99999,99999,99999
10:32:40,1510447560,2017-11-12T00:46:04,0.774,512.4,13.72,11.01,15.11,832.640,2065.500,107.166664,25.99,2.5064,355,23819,1.93973,4.02,49481,,,,,,,,,,,,,,,,,,99999,99999,99999,99999,99999,99999,99999,99999,99999,99999,99999,99999
10:33:10,1510447590,2017-11-12T00:46:34,0.771,512.7,13.73,11.00,15.11,832.720,2065.500,110.516670,26.72,2.5063,355,23816,1.93244,4.02,49477,,,,,,,,,,,,,,,,,,99999,99999,99999,99999,99999,99999,99999,99999,99999,99999,99999,99999
10:33:40,1510447620,2017-11-12T00:47:04,0.773,513.1,13.71,10.99,15.11,832.670,2065.440,109.416664,26.58,2.5064,355,23818,1.93638,4.02,49472,,,,,,,,,,,,,,,,,,99999,99999,99999,99999,99999,99999,99999,99999,99999,99999,99999,99999
10:34:10,1510447650,2017-11-12T00:47:34,0.775,513.5,13.70,10.98,15.10,832.670,2065.440,110.266670,26.53,2.5065,355,23817,1.94368,4.02,49467,,,,,,,,,,,,,,,,,,99999,99999,99999,99999,99999,99999,99999,99999,99999,99999,99999,99999
10:34:40,1510447680,2017-11-12T00:48:04,0.778,513.9,13.69,10.96,15.08,832.620,2065.400,110.266670,26.50,2.5065,355,23819,1.94947,4.02,49463,,,,,,,,,,,,,,,,,,99999,99999,99999,99999,99999,99999,99999,99999,99999,99999,99999,99999
10:35:10,1510447710,2017-11-12T00:48:34,0.776,514.3,13.68,10.96,15.11,832.650,2065.400,110.733330,26.53,2.5066,355,23818,1.94581,4.02,49458,,,,,,,,,,,,,,,,,,99999,99999,99999,99999,99999,99999,99999,99999,99999,99999,99999,99999
10:35:40,1510447740,2017-11-12T00:49:04,0.777,514.7,13.67,10.95,15.08,832.620,2065.330,108.783333,26.64,2.5066,355,23817,1.94825,4.02,49453,,,,,,,,,,,,,,,,,,99999,99999,99999,99999,99999,99999,99999,99999,99999,99999,99999,99999
10:36:10,1510447770,2017-11-12T00:49:34,0.774,515.1,13.66,10.95,15.08,832.620,2065.270,111.566666,26.56,2.5066,355,23817,1.93912,4.02,49449,,,,,,,,,,,,,,,,,,99999,99999,99999,99999,99999,99999,99999,99999,99999,99999,99999,99999
10:36:40,1510447800,2017-11-12T00:50:04,0.776,515.5,13.65,10.94,15.03,832.730,2065.270,107.849998,26.62,2.5067,355,23815,1.94459,4.02,49444,,,,,,,,,,,,,,,,,,99999,99999,99999,99999,99999,99999,99999,99999,99999,99999,99999,99999
10:37:10,1510447830,2017-11-12T00:50:34,0.777,515.8,13.64,10.92,15.05,832.630,2065.210,108.483330,26.69,2.5067,355,23814,1.94886,4.02,49439,,,,,,,,,,,,,,,,,,99999,99999,99999,99999,99999,99999,99999,99999,99999,99999,99999,99999
10:37:40,1510447860,2017-11-12T00:51:04,0.769,516.2,13.62,10.91,15.03,832.530,2065.170,108.783333,26.75,2.5068,355,23813,1.92850,4.02,49435,,,,,,,,,,,,,,,,,,99999,99999,99999,99999,99999,99999,99999,99999,99999,99999,99999,99999
10:38:10,1510447890,2017-11-12T00:51:34,0.774,516.6,13.60,10.89,15.03,832.690,2065.040,111.199997,26.61,2.5069,355,23814,1.94125,4.02,49430,,,,,,,,,,,,,,,,,,99999,99999,99999,99999,99999,99999,99999,99999,99999,99999,99999,99999
10:38:40,1510447920,2017-11-12T00:52:04,0.772,517.0,13.58,10.89,14.98,832.700,2065.000,111.283333,26.48,2.5070,355,23814,1.93456,4.02,49425,,,,,,,,,,,,,,,,,,99999,99999,99999,99999,99999,99999,99999,99999,99999,99999,99999,99999
10:39:10,1510447950,2017-11-12T00:52:34,0.777,517.4,13.57,10.88,15.00,832.510,2065.000,109.400002,26.43,2.5071,355,23816,1.94794,4.02,49421,,,,,,,,,,,,,,,,,,99999,99999,99999,99999,99999,99999,99999,99999,99999,99999,99999,99999
10:39:40,1510447980,2017-11-12T00:53:04,0.777,517.8,13.55,10.83,14.98,832.680,2064.940,110.150002,26.60,2.5072,355,23813,1.94794,4.02,49416,,,,,,,,,,,,,,,,,,99999,99999,99999,99999,99999,99999,99999,99999,99999,99999,99999,99999
10:40:10,1510448010,2017-11-12T00:53:34,0.770,518.2,13.53,10.83,14.97,832.630,2064.880,109.500000,26.72,2.5073,355,23813,1.92971,4.02,49411,,,,,,,,,,,,,,,,,,99999,99999,99999,99999,99999,99999,99999,99999,99999,99999,99999,99999
10:40:40,1510448040,2017-11-12T00:54:04,0.777,518.5,13.52,10.81,14.95,832.680,2064.810,109.266670,26.30,2.5073,355,23812,1.94825,4.02,49406,,,,,,,,,,,,,,,,,,99999,99999,99999,99999,99999,99999,99999,99999,99999,99999,99999,99999
10:41:10,1510448070,2017-11-12T00:54:34,0.773,518.9,13.50,10.79,14.94,832.690,2064.770,109.466667,26.62,2.5074,355,23813,1.93851,4.02,49402,,,,,,,,,,,,,,,,,,99999,99999,99999,99999,99999,99999,99999,99999,99999,99999,99999,99999
10:41:40,1510448100,2017-11-12T00:55:04,0.776,519.3,13.49,10.79,14.92,832.690,2064.710,108.849998,27.24,2.5074,355,23812,1.94490,4.02,49397,,,,,,,,,,,,,,,,,,99999,99999,99999,99999,99999,99999,99999,99999,99999,99999,99999,99999
10:42:10,1510448130,2017-11-12T00:55:34,0.776,519.7,13.49,10.79,14.90,832.640,2064.710,110.566666,27.09,2.5074,355,23812,1.94551,4.02,49392,,,,,,,,,,,,,,,,,,99999,99999,99999,99999,99999,99999,99999,99999,99999,99999,99999,99999
10:42:40,1510448160,2017-11-12T00:56:04,0.769,520.1,13.47,10.77,14.90,832.750,2064.600,108.816666,26.68,2.5075,355,23813,1.92759,4.02,49388,,,,,,,,,,,,,,,,,,99999,99999,99999,99999,99999,99999,99999,99999,99999,99999,99999,99999
10:43:10,1510448190,2017-11-12T00:56:34,0.769,520.5,13.45,10.76,14.89,832.620,2064.540,107.466667,26.48,2.5076,355,23810,1.92759,4.02,49383,,,,,,,,,,,,,,,,,,99999,99999,99999,99999,99999,99999,99999,99999,99999,99999,99999,99999
10:43:40,1510448220,2017-11-12T00:57:04,0.778,520.9,13.44,10.74,14.85,832.620,2064.540,108.633331,26.94,2.5077,355,23811,1.95069,4.02,49378,,,,,,,,,,,,,,,,,,99999,99999,99999,99999,99999,99999,99999,99999,99999,99999,99999,99999
10:44:10,1510448250,2017-11-12T00:57:34,0.771,521.2,13.42,10.73,14.82,832.680,2064.480,108.366669,27.02,2.5078,355,23813,1.93396,4.02,49374,,,,,,,,,,,,,,,,,,99999,99999,99999,99999,99999,99999,99999,99999,99999,99999,99999,99999
10:44:40,1510448280,2017-11-12T00:58:04,0.773,521.6,13.41,10.72,14.84,832.710,2064.410,107.733330,26.91,2.5078,355,23811,1.93730,4.02,49369,,,,,,,,,,,,,,,,,,99999,99999,99999,99999,99999,99999,99999,99999,99999,99999,99999,99999
10:45:10,1510448310,2017-11-12T00:58:34,0.775,522.0,13.39,10.70,14.82,832.760,2064.380,110.949997,27.29,2.5079,355,23808,1.94307,4.02,49364,,,,,,,,,,,,,,,,,,99999,99999,99999,99999,99999,99999,99999,99999,99999,99999,99999,99999
10:45:40,1510448340,2017-11-12T00:59:04,0.774,522.4,13.38,10.67,14.84,832.690,2064.380,107.683334,26.98,2.5080,355,23807,1.94033,4.02,49360,,,,,,,,,,,,,,,,,,99999,99999,99999,99999,99999,99999,99999,99999,99999,99999,99999,99999
10:46:10,1510448370,2017-11-12T00:59:34,0.772,522.8,13.35,10.69,14.81,832.720,2064.250,108.750000,27.00,2.5081,355,23809,1.93578,4.02,49355,,,,,,,,,,,,,,,,,,99999,99999,99999,99999,99999,99999,99999,99999,99999,99999,99999,99999
10:46:40,1510448400,2017-11-12T01:00:04,0.771,523.2,13.35,10.66,14.81,832.750,2064.250,108.733330,27.25,2.5081,355,23810,1.93426,4.02,49350,,,,,,,,,,,,,,,,,,99999,99999,99999,99999,99999,99999,99999,99999,99999,99999,99999,99999
10:47:10,1510448430,2017-11-12T01:00:34,0.772,523.6,13.33,10.62,14.79,832.670,2064.150,110.683334,27.23,2.5081,355,23807,1.93578,4.02,49346,,,,,,,,,,,,,,,,,,99999,99999,99999,99999,99999,99999,99999,99999,99999,99999,99999,99999
10:47:40,1510448460,2017-11-12T01:01:04,0.771,524.0,13.32,10.62,14.73,832.750,2064.080,106.800003,26.88,2.5082,355,23810,1.93487,4.02,49341,,,,,,,,,,,,,,,,,,99999,99999,99999,99999,99999,99999,99999,99999,99999,99999,99999,99999
10:48:10,1510448490,2017-11-12T01:01:34,0.772,524.3,13.30,10.61,14.74,832.810,2064.020,109.016670,27.07,2.5083,355,23806,1.93638,4.02,49336,,,,,,,,,,,,,,,,,,99999,99999,99999,99999,99999,99999,99999,99999,99999,99999,99999,99999
10:48:40,1510448520,2017-11-12T01:02:04,0.774,524.7,13.27,10.60,14.73,832.740,2063.980,110.033333,27.28,2.5085,355,23808,1.94094,4.02,49331,,,,,,,,,,,,,,,,,,99999,99999,99999,99999,99999,99999,99999,99999,99999,99999,99999,99999
10:49:10,1510448550,2017-11-12T01:02:34,0.775,525.1,13.27,10.57,14.69,832.770,2063.980,109.733330,27.04,2.5085,355,23807,1.94459,4.02,49327,,,,,,,,,,,,,,,,,,99999,99999,99999,99999,99999,99999,99999,99999,99999,99999,99999,99999
10:49:40,1510448580,2017-11-12T01:03:04,0.777,525.5,13.25,10.59,14.68,832.850,2063.910,107.366669,26.86,2.5086,355,23805,1.94825,4.02,49322,,,,,,,,,,,,,,,,,,99999,99999,99999,99999,99999,99999,99999,99999,99999,99999,99999,99999
10:50:10,1510448610,2017-11-12T01:03:34,0.771,525.9,13.26,10.59,14.69,832.790,2063.910,104.283333,26.70,2.5085,355,23807,1.93396,4.02,49317,,,,,,,,,,,,,,,,,,99999,99999,99999,99999,99999,99999,99999,99999,99999,99999,99999,99999
10:50:40,1510448640,2017-11-12T01:04:04,0.771,526.3,13.25,10.57,14.66,832.800,2063.910,107.466667,27.17,2.5086,355,23807,1.93517,4.02,49313,,,,,,,,,,,,,,,,,,99999,99999,99999,99999,99999,99999,99999,99999,99999,99999,99999,99999
10:51:10,1510448670,2017-11-12T01:04:34,0.775,526.7,13.25,10.58,14.66,832.750,2063.910,109.183334,26.98,2.5086,355,23806,1.94459,4.02,49308,,,,,,,,,,,,,,,,,,99999,99999,99999,99999,99999,99999,99999,99999,99999,99999,99999,99999
10:51:40,1510448700,2017-11-12T01:05:04,0.770,527.0,13.25,10.58,14.71,832.820,2063.910,105.316666,26.75,2.5086,355,23806,1.93092,4.02,49303,,,,,,,,,,,,,,,,,,99999,99999,99999,99999,99999,99999,99999,99999,99999,99999,99999,99999
10:52:10,1510448730,2017-11-12T01:05:34,0.775,527.4,13.25,10.58,14.68,832.750,2063.910,110.183334,26.90,2.5086,355,23807,1.94368,4.02,49299,,,,,,,,,,,,,,,,,,99999,99999,99999,99999,99999,99999,99999,99999,99999,99999,99999,99999
10:52:40,1510448760,2017-11-12T01:06:04,0.774,527.8,13.26,10.59,14.68,832.820,2063.910,109.716667,26.95,2.5085,355,23805,1.94033,4.02,49294,,,,,,,,,,,,,,,,,,99999,99999,99999,99999,99999,99999,99999,99999,99999,99999,99999,99999
10:53:10,1510448790,2017-11-12T01:06:34,0.770,528.2,13.28,10.62,14.69,832.840,2063.980,106.883331,26.85,2.5084,355,23805,1.93092,4.02,49289,,,,,,,,,,,,,,,,,,99999,99999,99999,99999,99999,99999,99999,99999,99999,99999,99999,99999
10:53:40,1510448820,2017-11-12T01:07:04,0.774,528.6,13.28,10.61,14.71,832.820,2063.980,107.900002,26.60,2.5084,355,23805,1.94246,4.02,49285,,,,,,,,,,,,,,,,,,99999,99999,99999,99999,99999,99999,99999,99999,99999,99999,99999,99999
10:54:10,1510448850,2017-11-12T01:07:34,0.770,529.0,13.30,10.63,14.71,832.760,2064.020,107.066666,26.63,2.5083,355,23807,1.93032,4.02,49280,,,,,,,,,,,,,,,,,,99999,99999,99999,99999,99999,99999,99999,99999,99999,99999,99999,99999
10:54:40,1510448880,2017-11-12T01:08:04,0.769,529.4,13.32,10.64,14.73,832.890,2064.080,108.849998,26.49,2.5082,355,23808,1.92880,4.02,49275,,,,,,,,,,,,,,,,,,99999,99999,99999,99999,99999,99999,99999,99999,99999,99999,99999,99999
10:55:10,1510448910,2017-11-12T01:08:34,0.774,529.7,13.35,10.65,14.69,832.780,2064.250,108.449997,27.10,2.5081,355,23807,1.94216,4.02,49271,,,,,,,,,,,,,,,,,,99999,99999,99999,99999,99999,99999,99999,99999,99999,99999,99999,99999
10:55:40,1510448940,2017-11-12T01:09:04,0.776,530.1,13.35,10.66,14.74,832.700,2064.250,107.650002,26.76,2.5081,355,23809,1.94733,4.02,49266,,,,,,,,,,,,,,,,,,99999,99999,99999,99999,99999,99999,99999,99999,99999,99999,99999,99999
10:56:10,1510448970,2017-11-12T01:09:34,0.768,530.5,13.37,10.68,14.76,832.820,2064.310,108.433334,26.65,2.5080,355,23808,1.92729,4.02,49261,,,,,,,,,,,,,,,,,,99999,99999,99999,99999,99999,99999,99999,99999,99999,99999,99999,99999
10:56:40,1510449000,2017-11-12T01:10:04,0.771,530.9,13.38,10.69,14.76,832.770,2064.380,106.133331,26.41,2.5080,355,23810,1.93426,4.02,49257,,,,,,,,,,,,,,,,,,99999,99999,99999,99999,99999,99999,99999,99999,99999,99999,99999,99999
10:57:10,1510449030,2017-11-12T01:10:34,0.773,531.3,13.40,10.69,14.84,832.870,2064.410,107.683334,26.53,2.5079,355,23814,1.93760,4.02,49252,,,,,,,,,,,,,,,,,,99999,99999,99999,99999,99999,99999,99999,99999,99999,99999,99999,99999
10:57:40,1510449060,2017-11-12T01:11:04,0.769,531.7,13.41,10.70,14.74,832.810,2064.410,109.483330,26.52,2.5078,355,23807,1.92759,4.02,49247,,,,,,,,,,,,,,,,,,99999,99999,99999,99999,99999,99999,99999,99999,99999,99999,99999,99999
10:58:10,1510449090,2017-11-12T01:11:34,0.770,532.1,13.42,10.72,14.84,832.790,2064.480,107.766670,26.79,2.5078,355,23814,1.93062,4.02,49242,,,,,,,,,,,,,,,,,,99999,99999,99999,99999,99999,99999,99999,99999,99999,99999,99999,99999
10:58:40,1510449120,2017-11-12T01:12:04,0.778,532.5,13.43,10.73,14.84,832.730,2064.480,107.849998,26.88,2.5077,355,23811,1.95130,4.02,49238,,,,,,,,,,,,,,,,,,99999,99999,99999,99999,99999,99999,99999,99999,99999,99999,99999,99999
10:59:10,1510449150,2017-11-12T01:12:34,0.771,532.8,13.45,10.70,14.85,832.780,2064.540,106.033333,26.42,2.5076,355,23812,1.93274,4.02,49233,,,,,,,,,,,,,,,,,,99999,99999,99999,99999,99999,99999,99999,99999,99999,99999,99999,99999
10:59:40,1510449180,2017-11-12T01:13:04,0.777,533.2,13.45,10.73,14.85,832.780,2064.540,109.283333,26.38,2.5076,355,23809,1.94794,4.02,49228,,,,,,,,,,,,,,,,,,99999,99999,99999,99999,99999,99999,99999,99999,99999,99999,99999,99999
11:00:10,1510449210,2017-11-12T01:13:34,0.771,533.6,13.46,10.75,14.84,832.730,2064.600,105.433334,26.62,2.5076,355,23813,1.93365,4.02,49224,,,,,,,,,,,,,,,,,,99999,99999,99999,99999,99999,99999,99999,99999,99999,99999,99999,99999
11:00:40,1510449240,2017-11-12T01:14:04,0.776,534.0,13.46,10.74,14.89,832.810,2064.600,108.833336,26.43,2.5076,355,23811,1.94642,4.02,49219,,,,,,,,,,,,,,,,,,99999,99999,99999,99999,99999,99999,99999,99999,99999,99999,99999,99999
11:01:10,1510449270,2017-11-12T01:14:34,0.777,534.4,13.47,10.74,14.85,832.800,2064.600,109.650002,26.68,2.5075,355,23812,1.94825,4.02,49214,,,,,,,,,,,,,,,,,,99999,99999,99999,99999,99999,99999,99999,99999,99999,99999,99999,99999
11:01:40,1510449300,2017-11-12T01:15:04,0.771,534.8,13.48,10.74,14.89,832.820,2064.710,108.400002,27.14,2.5075,355,23814,1.93304,4.02,49210,,,,,,,,,,,,,,,,,,99999,99999,99999,99999,99999,99999,99999,99999,99999,99999,99999,99999
11:02:10,1510449330,2017-11-12T01:15:34,0.776,535.2,13.48,10.75,14.84,832.800,2064.710,109.933334,27.45,2.5075,355,23811,1.94551,4.02,49205,,,,,,,,,,,,,,,,,,99999,99999,99999,99999,99999,99999,99999,99999,99999,99999,99999,99999
11:02:40,1510449360,2017-11-12T01:16:04,0.773,535.5,13.47,10.76,14.84,832.850,2064.600,107.066666,26.75,2.5075,355,23810,1.93851,4.02,49200,,,,,,,,,,,,,,,,,,99999,99999,99999,99999,99999,99999,99999,99999,99999,99999,99999,99999
11:03:10,1510449390,2017-11-12T01:16:34,0.772,535.9,13.46,10.72,14.85,832.810,2064.600,109.150002,26.76,2.5076,355,23813,1.93608,4.02,49196,,,,,,,,,,,,,,,,,,99999,99999,99999,99999,99999,99999,99999,99999,99999,99999,99999,99999
11:03:40,1510449420,2017-11-12T01:17:04,0.776,536.3,13.45,10.72,14.82,832.860,2064.540,106.833336,26.59,2.5076,355,23810,1.94703,4.02,49191,,,,,,,,,,,,,,,,,,99999,99999,99999,99999,99999,99999,99999,99999,99999,99999,99999,99999
11:04:10,1510449450,2017-11-12T01:17:34,0.775,536.7,13.45,10.71,14.87,832.940,2064.540,110.966667,27.09,2.5076,355,23808,1.94368,4.02,49186,,,,,,,,,,,,,,,,,,99999,99999,99999,99999,99999,99999,99999,99999,99999,99999,99999,99999
11:04:40,1510449480,2017-11-12T01:18:04,0.770,537.1,13.44,10.71,14.85,832.890,2064.540,107.333336,27.02,2.5077,355,23809,1.93183,4.02,49182,,,,,,,,,,,,,,,,,,99999,99999,99999,99999,99999,99999,99999,99999,99999,99999,99999,99999
11:05:10,1510449510,2017-11-12T01:18:34,0.770,537.5,13.43,10.68,14.85,832.890,2064.480,107.233330,26.63,2.5077,355,23808,1.93183,4.02,49177,,,,,,,,,,,,,,,,,,99999,99999,99999,99999,99999,99999,99999,99999,99999,99999,99999,99999
11:05:40,1510449540,2017-11-12T01:19:04,0.772,537.9,13.41,10.67,14.82,832.840,2064.410,107.599998,26.72,2.5078,355,23807,1.93608,4.02,49172,,,,,,,,,,,,,,,,,,99999,99999,99999,99999,99999,99999,99999,99999,99999,99999,99999,99999
11:06:10,1510449570,2017-11-12T01:19:34,0.770,538.3,13.40,10.66,14.81,832.900,2064.410,105.650002,26.67,2.5079,355,23810,1.93183,4.02,49167,,,,,,,,,,,,,,,,,,99999,99999,99999,99999,99999,99999,99999,99999,99999,99999,99999,99999
11:06:40,1510449600,2017-11-12T01:20:04,0.776,538.6,13.39,10.66,14.81,833.030,2064.380,105.550003,26.83,2.5079,355,23808,1.94612,4.02,49163,,,,,,,,,,,,,,,,,,99999,99999,99999,99999,99999,99999,99999,99999,99999,99999,99999,99999
11:07:10,1510449630,2017-11-12T01:20:34,0.773,539.0,13.38,10.67,14.84,832.900,2064.380,110.466667,26.69,2.5080,355,23807,1.93973,4.02,49158,,,,,,,,,,,,,,,,,,99999,99999,99999,99999,99999,99999,99999,99999,99999,99999,99999,99999
11:07:40,1510449660,2017-11-12T01:21:04,0.773,539.4,13.39,10.67,14.81,832.950,2064.380,107.466667,26.91,2.5079,355,23809,1.93882,4.02,49153,,,,,,,,,,,,,,,,,,99999,99999,99999,99999,99999,99999,99999,99999,99999,99999,99999,99999
11:08:10,1510449690,2017-11-12T01:21:34,0.775,539.8,13.38,10.67,14.81,833.010,2064.380,108.800003,26.37,2.5080,355,23807,1.94398,4.02,49149,,,,,,,,,,,,,,,,,,99999,99999,99999,99999,99999,99999,99999,99999,99999,99999,99999,99999
11:08:40,1510449720,2017-11-12T01:22:04,0.775,540.2,13.38,10.66,14.79,833.090,2064.380,108.666664,26.28,2.5081,355,23808,1.94398,4.02,49144,,,,,,,,,,,,,,,,,,99999,99999,99999,99999,99999,99999,99999,99999,99999,99999,99999,99999
11:09:10,1510449750,2017-11-12T01:22:34,0.769,540.6,13.38,10.66,14.77,833.030,2064.380,112.800003,26.53,2.5080,355,23810,1.92759,4.02,49139,,,,,,,,,,,,,,,,,,99999,99999,99999,99999,99999,99999,99999,99999,99999,99999,99999,99999
11:09:40,1510449780,2017-11-12T01:23:04,0.768,541.0,13.38,10.67,14.79,833.060,2064.380,108.283333,26.78,2.5080,355,23808,1.92729,4.01,49135,,,,,,,,,,,,,,,,,,99999,99999,99999,99999,99999,99999,99999,99999,99999,99999,99999,99999
11:10:10,1510449810,2017-11-12T01:23:34,0.777,541.4,13.39,10.69,14.79,833.080,2064.380,107.566666,26.81,2.5079,355,23807,1.94886,4.01,49130,,,,,,,,,,,,,,,,,,99999,99999,99999,99999,99999,99999,99999,99999,99999,99999,99999,99999
11:10:40,1510449840,2017-11-12T01:24:04,0.769,541.7,13.40,10.69,14.81,833.030,2064.410,107.583336,26.50,2.5079,355,23808,1.92971,4.01,49125,,,,,,,,,,,,,,,,,,99999,99999,99999,99999,99999,99999,99999,99999,99999,99999,99999,99999
11:11:10,1510449870,2017-11-12T01:24:34,0.777,542.1,13.41,10.71,14.79,833.080,2064.410,108.166664,26.07,2.5078,355,23807,1.94916,4.01,49121,,,,,,,,,,,,,,,,,,99999,99999,99999,99999,99999,99999,99999,99999,99999,99999,99999,99999
11:11:40,1510449900,2017-11-12T01:25:04,0.777,542.5,13.42,10.72,14.82,833.210,2064.480,108.916664,26.37,2.5078,355,23809,1.94825,4.01,49116,,,,,,,,,,,,,,,,,,99999,99999,99999,99999,99999,99999,99999,99999,99999,99999,99999,99999
11:12:10,1510449930,2017-11-12T01:25:34,0.774,542.9,13.43,10.72,14.81,833.130,2064.480,110.016670,26.42,2.5077,355,23809,1.94064,4.01,49111,,,,,,,,,,,,,,,,,,99999,99999,99999,99999,99999,99999,99999,99999,99999,99999,99999,99999
11:12:40,1510449960,2017-11-12T01:26:04,0.778,543.3,13.45,10.74,14.82,833.070,2064.540,109.099998,26.48,2.5076,355,23810,1.95008,4.01,49107,,,,,,,,,,,,,,,,,,99999,99999,99999,99999,99999,99999,99999,99999,99999,99999,99999,99999
11:13:10,1510449990,2017-11-12T01:26:34,0.774,543.7,13.45,10.73,14.85,833.100,2064.540,109.550003,26.45,2.5076,355,23809,1.94155,4.01,49102,,,,,,,,,,,,,,,,,,99999,99999,99999,99999,99999,99999,99999,99999,99999,99999,99999,99999
11:13:40,1510450020,2017-11-12T01:27:04,0.777,544.1,13.46,10.75,14.82,833.120,2064.600,108.583336,26.58,2.5076,355,23811,1.94916,4.01,49097,,,,,,,,,,,,,,,,,,99999,99999,99999,99999,99999,99999,99999,99999,99999,99999,99999,99999
11:14:10,1510450050,2017-11-12T01:27:34,0.775,544.4,13.46,10.75,14.85,833.070,2064.600,106.616669,26.52,2.5076,355,23812,1.94307,4.01,49092,,,,,,,,,,,,,,,,,,99999,99999,99999,99999,99999,99999,99999,99999,99999,99999,99999,99999
11:14:40,1510450080,2017-11-12T01:28:04,0.772,544.8,13.47,10.78,14.87,833.120,2064.600,109.500000,26.46,2.5075,355,23809,1.93699,4.01,49088,,,,,,,,,,,,,,,,,,99999,99999,99999,99999,99999,99999,99999,99999,99999,99999,99999,99999
11:15:10,1510450110,2017-11-12T01:28:34,0.777,545.2,13.47,10.75,14.84,833.140,2064.600,110.000000,26.55,2.5075,355,23808,1.94733,4.01,49083,,,,,,,,,,,,,,,,,,99999,99999,99999,99999,99999,99999,99999,99999,99999,99999,99999,99999
11:15:40,1510450140,2017-11-12T01:29:04,0.772,545.6,13.47,10.76,14.90,833.170,2064.600,106.500000,26.68,2.5075,355,23808,1.93699,4.01,49078,,,,,,,,,,,,,,,,,,99999,99999,99999,99999,99999,99999,99999,99999,99999,99999,99999,99999
11:16:10,1510450170,2017-11-12T01:29:34,0.771,546.0,13.47,10.74,14.87,833.060,2064.600,111.033333,26.48,2.5075,355,23810,1.93426,4.01,49074,,,,,,,,,,,,,,,,,,99999,99999,99999,99999,99999,99999,99999,99999,99999,99999,99999,99999
11:16:40,1510450200,2017-11-12T01:30:04,0.775,546.4,13.48,10.76,14.82,833.120,2064.710,107.250000,26.59,2.5075,355,23810,1.94368,4.01,49069,,,,,,,,,,,,,,,,,,99999,99999,99999,99999,99999,99999,99999,99999,99999,99999,99999,99999
11:17:10,1510450230,2017-11-12T01:30:34,0.777,546.8,13.48,10.77,14.89,833.120,2064.710,109.533333,27.05,2.5075,355,23811,1.94947,4.01,49064,,,,,,,,,,,,,,,,,,99999,99999,99999,99999,99999,99999,99999,99999,99999,99999,99999,99999
11:17:40,1510450260,2017-11-12T01:31:04,0.778,547.2,13.48,10.77,14.92,833.120,2064.710,106.683334,26.53,2.5075,355,23810,1.95130,4.01,49060,,,,,,,,,,,,,,,,,,99999,99999,99999,99999,99999,99999,99999,99999,99999,99999,99999,99999
11:18:10,1510450290,2017-11-12T01:31:34,0.776,547.5,13.47,10.74,14.89,833.140,2064.600,110.849998,26.74,2.5075,355,23808,1.94490,4.01,49055,,,,,,,,,,,,,,,,,,99999,99999,99999,99999,99999,99999,99999,99999,99999,99999,99999,99999
11:18:40,1510450320,2017-11-12T01:32:04,0.774,547.9,13.47,10.73,14.89,833.120,2064.600,110.816666,27.11,2.5075,355,23813,1.94155,4.01,49050,,,,,,,,,,,,,,,,,,99999,99999,99999,99999,99999,99999,99999,99999,99999,99999,99999,99999
11:19:10,1510450350,2017-11-12T01:32:34,0.774,548.3,13.46,10.73,14.87,833.050,2064.600,108.733330,26.71,2.5076,355,23810,1.94186,4.01,49046,,,,,,,,,,,,,,,,,,99999,99999,99999,99999,99999,99999,99999,99999,99999,99999,99999,99999
11:19:40,1510450380,2017-11-12T01:33:04,0.770,548.7,13.45,10.72,14.85,833.070,2064.540,107.133331,26.80,2.5076,355,23810,1.93123,4.01,49041,,,,,,,,,,,,,,,,,,99999,99999,99999,99999,99999,99999,99999,99999,99999,99999,99999,99999
11:20:10,1510450410,2017-11-12T01:33:34,0.775,549.1,13.44,10.71,14.82,833.020,2064.540,110.416664,27.18,2.5076,355,23810,1.94398,4.01,49036,,,,,,,,,,,,,,,,,,99999,99999,99999,99999,99999,99999,99999,99999,99999,99999,99999,99999
11:20:40,1510450440,2017-11-12T01:34:04,0.776,549.5,13.42,10.71,14.84,832.970,2064.480,109.033333,27.00,2.5078,355,23807,1.94642,4.01,49032,,,,,,,,,,,,,,,,,,99999,99999,99999,99999,99999,99999,99999,99999,99999,99999,99999,99999
11:21:10,1510450470,2017-11-12T01:34:34,0.770,549.9,13.41,10.69,14.87,833.030,2064.410,106.550003,27.43,2.5077,355,23810,1.93062,4.01,49027,,,,,,,,,,,,,,,,,,99999,99999,99999,99999,99999,99999,99999,99999,99999,99999,99999,99999
11:21:40,1510450500,2017-11-12T01:35:04,0.777,550.2,13.39,10.66,14.81,833.110,2064.380,109.633331,27.31,2.5079,355,23807,1.94794,4.01,49022,,,,,,,,,,,,,,,,,,99999,99999,99999,99999,99999,99999,99999,99999,99999,99999,99999,99999
11:22:10,1510450530,2017-11-12T01:35:34,0.778,550.6,13.38,10.64,14.82,833.010,2064.380,108.650002,27.36,2.5080,355,23807,1.95008,4.01,49018,,,,,,,,,,,,,,,,,,99999,99999,99999,99999,99999,99999,99999,99999,99999,99999,99999,99999
11:22:40,1510450560,2017-11-12T01:36:04,0.771,551.0,13.35,10.64,14.79,832.990,2064.250,106.083336,27.16,2.5081,355,23807,1.93274,4.01,49013,,,,,,,,,,,,,,,,,,99999,99999,99999,99999,99999,99999,99999,99999,99999,99999,99999,99999
11:23:10,1510450590,2017-11-12T01:36:34,0.770,551.4,13.33,10.64,14.74,833.020,2064.150,107.116669,27.22,2.5081,355,23806,1.93123,4.01,49008,,,,,,,,,,,,,,,,,,99999,99999,99999,99999,99999,99999,99999,99999,99999,99999,99999,99999
11:23:40,1510450620,2017-11-12T01:37:04,0.776,551.8,13.33,10.62,14.73,832.910,2064.150,108.383331,27.37,2.5081,355,23806,1.94673,4.01,49003,,,,,,,,,,,,,,,,,,99999,99999,99999,99999,99999,99999,99999,99999,99999,99999,99999,99999
11:24:10,1510450650,2017-11-12T01:37:34,0.772,552.2,13.32,10.59,14.71,833.020,2064.080,107.216667,27.07,2.5082,355,23808,1.93608,4.01,48999,,,,,,,,,,,,,,,,,,99999,99999,99999,99999,99999,99999,99999,99999,99999,99999,99999,99999
11:24:40,1510450680,2017-11-12T01:38:04,0.773,552.6,13.31,10.61,14.74,833.030,2064.080,104.716667,27.23,2.5082,355,23807,1.93821,4.01,48994,,,,,,,,,,,,,,,,,,99999,99999,99999,99999,99999,99999,99999,99999,99999,99999,99999,99999
11:25:10,1510450710,2017-11-12T01:38:34,0.775,553.0,13.31,10.58,14.76,833.050,2064.080,110.866669,27.52,2.5082,355,23805,1.94277,4.01,48989,,,,,,,,,,,,,,,,,,99999,99999,99999,99999,99999,99999,99999,99999,99999,99999,99999,99999
11:25:40,1510450740,2017-11-12T01:39:04,0.774,553.3,13.29,10.57,14.73,833.030,2064.020,107.366669,27.26,2.5083,355,23805,1.94155,4.01,48985,,,,,,,,,,,,,,,,,,99999,99999,99999,99999,99999,99999,99999,99999,99999,99999,99999,99999
11:26:10,1510450770,2017-11-12T01:39:34,0.774,553.7,13.28,10.59,14.69,832.950,2063.980,106.983330,27.50,2.5084,355,23804,1.94033,4.01,48980,,,,,,,,,,,,,,,,,,99999,99999,99999,99999,99999,99999,99999,99999,99999,99999,99999,99999
11:26:40,1510450800,2017-11-12T01:40:04,0.769,554.1,13.27,10.58,14.68,833.010,2063.980,107.733330,27.54,2.5085,355,23806,1.92819,4.01,48975,,,,,,,,,,,,,,,,,,99999,99999,99999,99999,99999,99999,99999,99999,99999,99999,99999,99999
11:27:10,1510450830,2017-11-12T01:40:34,0.769,554.5,13.27,10.57,14.69,833.010,2063.980,106.883331,27.78,2.5084,355,23805,1.93001,4.01,48971,,,,,,,,,,,,,,,,,,99999,99999,99999,99999,99999,99999,99999,99999,99999,99999,99999,99999
11:27:40,1510450860,2017-11-12T01:41:04,0.772,554.9,13.26,10.57,14.69,832.930,2063.910,106.733330,27.93,2.5084,355,23804,1.93578,4.01,48966,,,,,,,,,,,,,,,,,,99999,99999,99999,99999,99999,99999,99999,99999,99999,99999,99999,99999
11:28:10,1510450890,2017-11-12T01:41:34,0.768,555.3,13.25,10.56,14.71,832.980,2063.910,108.783333,28.05,2.5085,355,23804,1.92607,4.01,48961,,,,,,,,,,,,,,,,,,99999,99999,99999,99999,99999,99999,99999,99999,99999,99999,99999,99999
11:28:40,1510450920,2017-11-12T01:42:04,0.773,555.7,13.24,10.55,14.68,832.980,2063.850,106.116669,28.29,2.5085,355,23805,1.93821,4.01,48957,,,,,,,,,,,,,,,,,,99999,99999,99999,99999,99999,99999,99999,99999,99999,99999,99999,99999
11:29:10,1510450950,2017-11-12T01:42:34,0.775,556.0,13.23,10.53,14.65,832.940,2063.850,107.650002,28.21,2.5086,355,23801,1.94338,4.01,48952,,,,,,,,,,,,,,,,,,99999,99999,99999,99999,99999,99999,99999,99999,99999,99999,99999,99999
11:29:40,1510450980,2017-11-12T01:43:04,0.774,556.4,13.22,10.51,14.63,832.960,2063.790,106.849998,27.90,2.5086,355,23801,1.94155,4.01,48947,,,,,,,,,,,,,,,,,,99999,99999,99999,99999,99999,99999,99999,99999,99999,99999,99999,99999
11:30:10,1510451010,2017-11-12T01:43:34,0.775,556.8,13.19,10.49,14.63,833.000,2063.620,109.033333,28.04,2.5087,355,23804,1.94429,4.01,48943,,,,,,,,,,,,,,,,,,99999,99999,99999,99999,99999,99999,99999,99999,99999,99999,99999,99999
11:30:40,1510451040,2017-11-12T01:44:04,0.772,557.2,13.18,10.48,14.60,832.920,2063.620,104.616669,28.14,2.5088,355,23799,1.93730,4.01,48938,,,,,,,,,,,,,,,,,,99999,99999,99999,99999,99999,99999,99999,99999,99999,99999,99999,99999
11:31:10,1510451070,2017-11-12T01:44:34,0.768,557.6,13.16,10.45,14.58,832.900,2063.580,106.966667,28.22,2.5089,355,23801,1.92789,4.01,48933,,,,,,,,,,,,,,,,,,99999,99999,99999,99999,99999,99999,99999,99999,99999,99999,99999,99999
11:31:40,1510451100,2017-11-12T01:45:04,0.774,558.0,13.14,10.44,14.60,832.980,2063.520,110.216667,28.06,2.5090,355,23801,1.94125,4.01,48928,,,,,,,,,,,,,,,,,,99999,99999,99999,99999,99999,99999,99999,99999,99999,99999,99999,99999
11:32:10,1510451130,2017-11-12T01:45:34,0.775,558.4,13.12,10.44,14.56,832.990,2063.460,107.949997,28.11,2.5091,355,23799,1.94581,4.01,48924,,,,,,,,,,,,,,,,,,99999,99999,99999,99999,99999,99999,99999,99999,99999,99999,99999,99999
11:32:40,1510451160,2017-11-12T01:46:04,0.775,558.8,13.10,10.41,14.53,832.940,2063.390,108.866669,28.29,2.5092,355,23800,1.94459,4.01,48919,,,,,,,,,,,,,,,,,,99999,99999,99999,99999,99999,99999,99999,99999,99999,99999,99999,99999
11:33:10,1510451190,2017-11-12T01:46:34,0.774,559.1,13.09,10.41,14.55,832.960,2063.350,108.500000,28.64,2.5092,355,23801,1.94307,4.01,48914,,,,,,,,,,,,,,,,,,99999,99999,99999,99999,99999,99999,99999,99999,99999,99999,99999,99999
11:33:40,1510451220,2017-11-12T01:47:04,0.769,559.5,13.09,10.39,14.52,833.020,2063.350,107.666664,28.92,2.5092,355,23799,1.93032,4.01,48910,,,,,,,,,,,,,,,,,,99999,99999,99999,99999,99999,99999,99999,99999,99999,99999,99999,99999
11:34:10,1510451250,2017-11-12T01:47:34,0.776,559.9,13.07,10.37,14.52,832.970,2063.230,107.966667,28.74,2.5092,355,23798,1.94612,4.01,48905,,,,,,,,,,,,,,,,,,99999,99999,99999,99999,99999,99999,99999,99999,99999,99999,99999,99999
11:34:40,1510451280,2017-11-12T01:48:04,0.772,560.3,13.05,10.38,14.52,832.920,2063.180,108.966667,28.29,2.5094,355,23796,1.93669,4.01,48900,,,,,,,,,,,,,,,,,,99999,99999,99999,99999,99999,99999,99999,99999,99999,99999,99999,99999
11:35:10,1510451310,2017-11-12T01:48:34,0.773,560.7,13.04,10.36,14.52,832.980,2063.120,109.966667,28.36,2.5094,355,23800,1.94064,4.01,48896,,,,,,,,,,,,,,,,,,99999,99999,99999,99999,99999,99999,99999,99999,99999,99999,99999,99999
11:35:40,1510451340,2017-11-12T01:49:04,0.767,561.1,13.03,10.36,14.47,832.930,2063.120,107.949997,27.86,2.5095,355,23797,1.92517,4.01,48891,,,,,,,,,,,,,,,,,,99999,99999,99999,99999,99999,99999,99999,99999,99999,99999,99999,99999
11:36:10,1510451370,2017-11-12T01:49:34,0.766,561.5,13.03,10.35,14.47,832.980,2063.120,107.933334,27.66,2.5095,355,23798,1.92335,4.01,48886,,,,,,,,,,,,,,,,,,99999,99999,99999,99999,99999,99999,99999,99999,99999,99999,99999,99999
11:36:40,1510451400,2017-11-12T01:50:04,0.767,561.8,13.03,10.36,14.45,832.980,2063.120,107.383331,28.03,2.5095,355,23797,1.92456,4.01,48882,,,,,,,,,,,,,,,,,,99999,99999,99999,99999,99999,99999,99999,99999,99999,99999,99999,99999
11:37:10,1510451430,2017-11-12T01:50:34,0.768,562.2,13.04,10.35,14.50,833.080,2063.120,107.066666,27.63,2.5094,355,23797,1.92699,4.01,48877,,,,,,,,,,,,,,,,,,99999,99999,99999,99999,99999,99999,99999,99999,99999,99999,99999,99999
11:37:40,1510451460,2017-11-12T01:51:04,0.775,562.6,13.06,10.38,14.45,833.100,2063.180,106.150002,27.79,2.5093,355,23798,1.94429,4.01,48872,,,,,,,,,,,,,,,,,,99999,99999,99999,99999,99999,99999,99999,99999,99999,99999,99999,99999
11:38:10,1510451490,2017-11-12T01:51:34,0.767,563.0,13.07,10.41,14.47,832.970,2063.230,108.449997,27.97,2.5093,355,23800,1.92365,4.01,48868,,,,,,,,,,,,,,,,,,99999,99999,99999,99999,99999,99999,99999,99999,99999,99999,99999,99999
11:38:40,1510451520,2017-11-12T01:52:04,0.769,563.4,13.09,10.40,14.47,833.070,2063.350,107.783333,27.95,2.5093,355,23799,1.92971,4.01,48863,,,,,,,,,,,,,,,,,,99999,99999,99999,99999,99999,99999,99999,99999,99999,99999,99999,99999
11:39:10,1510451550,2017-11-12T01:52:34,0.772,563.8,13.11,10.46,14.50,833.150,2063.390,107.383331,28.14,2.5091,355,23801,1.93821,4.01,48858,,,,,,,,,,,,,,,,,,99999,99999,99999,99999,99999,99999,99999,99999,99999,99999,99999,99999
11:39:40,1510451580,2017-11-12T01:53:04,0.768,564.2,13.12,10.45,14.52,833.170,2063.460,108.966667,28.09,2.5091,355,23803,1.92819,4.01,48854,,,,,,,,,,,,,,,,,,99999,99999,99999,99999,99999,99999,99999,99999,99999,99999,99999,99999
11:40:10,1510451610,2017-11-12T01:53:34,0.769,564.5,13.15,10.48,14.50,833.190,2063.520,109.750000,28.10,2.5089,355,23804,1.92941,4.01,48849,,,,,,,,,,,,,,,,,,99999,99999,99999,99999,99999,99999,99999,99999,99999,99999,99999,99999
11:40:40,1510451640,2017-11-12T01:54:04,0.774,564.9,13.16,10.48,14.58,833.110,2063.580,107.166664,28.08,2.5089,355,23802,1.94125,4.01,48844,,,,,,,,,,,,,,,,,,99999,99999,99999,99999,99999,99999,99999,99999,99999,99999,99999,99999
11:41:10,1510451670,2017-11-12T01:54:34,0.775,565.3,13.17,10.48,14.56,833.080,2063.580,107.566666,27.90,2.5088,355,23803,1.94429,4.01,48840,,,,,,,,,,,,,,,,,,99999,99999,99999,99999,99999,99999,99999,99999,99999,99999,99999,99999
11:41:40,1510451700,2017-11-12T01:55:04,0.771,565.7,13.18,10.50,14.61,833.160,2063.620,106.449997,27.95,2.5088,355,23802,1.93365,4.01,48835,,,,,,,,,,,,,,,,,,99999,99999,99999,99999,99999,99999,99999,99999,99999,99999,99999,99999
11:42:10,1510451730,2017-11-12T01:55:34,0.776,566.1,13.20,10.50,14.60,833.150,2063.680,109.133331,27.78,2.5087,355,23801,1.94612,4.01,48830,,,,,,,,,,,,,,,,,,99999,99999,99999,99999,99999,99999,99999,99999,99999,99999,99999,99999
11:42:40,1510451760,2017-11-12T01:56:04,0.775,566.5,13.21,10.53,14.58,833.180,2063.680,108.599998,28.30,2.5086,355,23801,1.94398,4.01,48826,,,,,,,,,,,,,,,,,,99999,99999,99999,99999,99999,99999,99999,99999,99999,99999,99999,99999
11:43:10,1510451790,2017-11-12T01:56:34,0.773,566.9,13.21,10.52,14.65,833.230,2063.680,108.949997,27.84,2.5086,355,23805,1.93851,4.01,48821,,,,,,,,,,,,,,,,,,99999,99999,99999,99999,99999,99999,99999,99999,99999,99999,99999,99999
11:43:40,1510451820,2017-11-12T01:57:04,0.775,567.2,13.23,10.55,14.65,833.250,2063.850,106.500000,28.19,2.5086,355,23805,1.94368,4.01,48816,,,,,,,,,,,,,,,,,,99999,99999,99999,99999,99999,99999,99999,99999,99999,99999,99999,99999
11:44:10,1510451850,2017-11-12T01:57:34,0.771,567.6,13.23,10.51,14.68,833.230,2063.850,105.966667,27.71,2.5086,355,23802,1.93304,4.01,48811,,,,,,,,,,,,,,,,,,99999,99999,99999,99999,99999,99999,99999,99999,99999,99999,99999,99999
11:44:40,1510451880,2017-11-12T01:58:04,0.773,568.0,13.24,10.52,14.65,833.200,2063.850,108.500000,28.10,2.5085,355,23803,1.94033,4.01,48807,,,,,,,,,,,,,,,,,,99999,99999,99999,99999,99999,99999,99999,99999,99999,99999,99999,99999
11:45:10,1510451910,2017-11-12T01:58:34,0.776,568.4,13.23,10.53,14.63,833.250,2063.850,109.266670,28.17,2.5086,355,23802,1.94551,4.01,48802,,,,,,,,,,,,,,,,,,99999,99999,99999,99999,99999,99999,99999,99999,99999,99999,99999,99999
11:45:40,1510451940,2017-11-12T01:59:04,0.777,568.8,13.24,10.53,14.65,833.300,2063.850,105.449997,27.75,2.5085,355,23802,1.94947,4.01,48797,,,,,,,,,,,,,,,,,,99999,99999,99999,99999,99999,99999,99999,99999,99999,99999,99999,99999
11:46:10,1510451970,2017-11-12T01:59:34,0.770,569.2,13.24,10.50,14.65,833.220,2063.850,108.416664,28.03,2.5085,355,23804,1.93092,4.01,48793,,,,,,,,,,,,,,,,,,99999,99999,99999,99999,99999,99999,99999,99999,99999,99999,99999,99999
11:46:40,1510452000,2017-11-12T02:00:04,0.769,569.6,13.23,10.50,14.61,833.200,2063.850,107.433334,27.46,2.5087,355,23802,1.93001,4.01,48788,,,,,,,,,,,,,,,,,,99999,99999,99999,99999,99999,99999,99999,99999,99999,99999,99999,99999
11:47:10,1510452030,2017-11-12T02:00:34,0.776,569.9,13.23,10.53,14.66,833.230,2063.850,108.349998,27.67,2.5086,355,23800,1.94612,4.01,48783,,,,,,,,,,,,,,,,,,99999,99999,99999,99999,99999,99999,99999,99999,99999,99999,99999,99999
11:47:40,1510452060,2017-11-12T02:01:04,0.774,570.3,13.23,10.53,14.65,833.230,2063.850,109.516670,27.66,2.5086,355,23805,1.94125,4.01,48779,,,,,,,,,,,,,,,,,,99999,99999,99999,99999,99999,99999,99999,99999,99999,99999,99999,99999
11:48:10,1510452090,2017-11-12T02:01:34,0.773,570.7,13.23,10.53,14.63,833.200,2063.850,107.166664,27.54,2.5086,355,23803,1.93882,4.01,48774,,,,,,,,,,,,,,,,,,99999,99999,99999,99999,99999,99999,99999,99999,99999,99999,99999,99999
11:48:40,1510452120,2017-11-12T02:02:04,0.768,571.1,13.23,10.51,14.63,833.310,2063.850,107.816666,27.83,2.5086,355,23805,1.92699,4.01,48769,,,,,,,,,,,,,,,,,,99999,99999,99999,99999,99999,99999,99999,99999,99999,99999,99999,99999
11:49:10,1510452150,2017-11-12T02:02:34,0.772,571.5,13.23,10.51,14.65,833.230,2063.850,110.599998,28.04,2.5086,355,23801,1.93790,4.01,48765,,,,,,,,,,,,,,,,,,99999,99999,99999,99999,99999,99999,99999,99999,99999,99999,99999,99999
11:49:40,1510452180,2017-11-12T02:03:04,0.768,571.9,13.23,10.51,14.63,833.310,2063.850,109.083336,28.23,2.5086,355,23803,1.92638,4.01,48760,,,,,,,,,,,,,,,,,,99999,99999,99999,99999,99999,99999,99999,99999,99999,99999,99999,99999
11:50:10,1510452210,2017-11-12T02:03:34,0.768,572.3,13.23,10.52,14.63,833.280,2063.850,108.050003,27.82,2.5086,355,23802,1.92668,4.01,48755,,,,,,,,,,,,,,,,,,99999,99999,99999,99999,99999,99999,99999,99999,99999,99999,99999,99999
11:50:40,1510452240,2017-11-12T02:04:04,0.770,572.6,13.23,10.53,14.63,833.330,2063.850,110.949997,27.76,2.5086,355,23802,1.93213,4.01,48751,,,,,,,,,,,,,,,,,,99999,99999,99999,99999,99999,99999,99999,99999,99999,99999,99999,99999
11:51:10,1510452270,2017-11-12T02:04:34,0.770,573.0,13.22,10.49,14.63,833.260,2063.790,108.800003,27.76,2.5087,355,23800,1.93244,4.01,48746,,,,,,,,,,,,,,,,,,99999,99999,99999,99999,99999,99999,99999,99999,99999,99999,99999,99999
11:51:40,1510452300,2017-11-12T02:05:04,0.774,573.4,13.22,10.49,14.65,833.310,2063.790,105.616669,27.86,2.5086,355,23802,1.94064,4.01,48741,,,,,,,,,,,,,,,,,,99999,99999,99999,99999,99999,99999,99999,99999,99999,99999,99999,99999
11:52:10,1510452330,2017-11-12T02:05:34,0.774,573.8,13.22,10.51,14.61,833.330,2063.790,107.733330,28.15,2.5086,355,23801,1.94155,4.01,48737,,,,,,,,,,,,,,,,,,99999,99999,99999,99999,99999,99999,99999,99999,99999,99999,99999,99999
11:52:40,1510452360,2017-11-12T02:06:04,0.773,574.2,13.21,10.50,14.61,833.330,2063.680,107.833336,27.93,2.5086,355,23802,1.93942,4.01,48732,,,,,,,,,,,,,,,,,,99999,99999,99999,99999,99999,99999,99999,99999,99999,99999,99999,99999
11:53:10,1510452390,2017-11-12T02:06:34,0.770,574.6,13.21,10.50,14.61,833.360,2063.680,106.483330,28.13,2.5086,355,23799,1.93244,4.01,48727,,,,,,,,,,,,,,,,,,99999,99999,99999,99999,99999,99999,99999,99999,99999,99999,99999,99999
11:53:40,1510452420,2017-11-12T02:07:04,0.769,575.0,13.21,10.50,14.61,833.360,2063.680,109.800003,27.81,2.5086,355,23800,1.93001,4.01,48722,,,,,,,,,,,,,,,,,,99999,99999,99999,99999,99999,99999,99999,99999,99999,99999,99999,99999
11:54:10,1510452450,2017-11-12T02:07:34,0.771,575.4,13.20,10.47,14.61,833.290,2063.680,111.033333,28.06,2.5087,355,23798,1.93426,4.01,48718,,,,,,,,,,,,,,,,,,99999,99999,99999,99999,99999,99999,99999,99999,99999,99999,99999,99999
11:54:40,1510452480,2017-11-12T02:08:04,0.774,575.7,13.19,10.51,14.60,833.290,2063.620,108.816666,28.04,2.5087,355,23800,1.94125,4.01,48713,,,,,,,,,,,,,,,,,,99999,99999,99999,99999,99999,99999,99999,99999,99999,99999,99999,99999
11:55:10,1510452510,2017-11-12T02:08:34,0.774,576.1,13.18,10.49,14.61,833.220,2063.620,108.416664,27.92,2.5088,355,23800,1.94277,4.01,48708,,,,,,,,,,,,,,,,,,99999,99999,99999,99999,99999,99999,99999,99999,99999,99999,99999,99999
11:55:40,1510452540,2017-11-12T02:09:04,0.772,576.5,13.18,10.49,14.56,833.370,2063.620,107.400002,27.90,2.5088,355,23801,1.93730,4.01,48704,,,,,,,,,,,,,,,,,,99999,99999,99999,99999,99999,99999,99999,99999,99999,99999,99999,99999
11:56:10,1510452570,2017-11-12T02:09:34,0.770,576.9,13.17,10.49,14.61,833.350,2063.580,107.683334,27.99,2.5088,355,23800,1.93062,4.01,48699,,,,,,,,,,,,,,,,,,99999,99999,99999,99999,99999,99999,99999,99999,99999,99999,99999,99999
11:56:40,1510452600,2017-11-12T02:10:04,0.772,577.3,13.16,10.48,14.61,833.350,2063.580,109.050003,28.10,2.5089,355,23801,1.93760,4.01,48694,,,,,,,,,,,,,,,,,,99999,99999,99999,99999,99999,99999,99999,99999,99999,99999,99999,99999
11:57:10,1510452630,2017-11-12T02:10:34,0.775,577.7,13.16,10.46,14.58,833.400,2063.580,110.099998,27.94,2.5089,355,23802,1.94398,4.01,48690,,,,,,,,,,,,,,,,,,99999,99999,99999,99999,99999,99999,99999,99999,99999,99999,99999,99999
11:57:40,1510452660,2017-11-12T02:11:04,0.771,578.1,13.15,10.43,14.60,833.320,2063.520,110.066666,28.11,2.5089,355,23801,1.93365,4.01,48685,,,,,,,,,,,,,,,,,,99999,99999,99999,99999,99999,99999,99999,99999,99999,99999,99999,99999
11:58:10,1510452690,2017-11-12T02:11:34,0.769,578.4,13.15,10.45,14.56,833.400,2063.520,107.516670,28.07,2.5089,355,23799,1.92819,4.00,48680,,,,,,,,,,,,,,,,,,99999,99999,99999,99999,99999,99999,99999,99999,99999,99999,99999,99999
11:58:40,1510452720,2017-11-12T02:12:04,0.773,578.8,13.14,10.45,14.53,833.360,2063.520,109.833336,27.95,2.5090,355,23800,1.93942,4.00,48676,,,,,,,,,,,,,,,,,,99999,99999,99999,99999,99999,99999,99999,99999,99999,99999,99999,99999
11:59:10,1510452750,2017-11-12T02:12:34,0.768,579.2,13.13,10.44,14.52,833.430,2063.460,108.050003,27.85,2.5090,355,23799,1.92789,4.00,48671,,,,,,,,,,,,,,,,,,99999,99999,99999,99999,99999,99999,99999,99999,99999,99999,99999,99999
11:59:40,1510452780,2017-11-12T02:13:04,0.769,579.6,13.10,10.40,14.52,833.360,2063.390,108.550003,28.22,2.5092,355,23799,1.92941,4.00,48666,,,,,,,,,,,,,,,,,,99999,99999,99999,99999,99999,99999,99999,99999,99999,99999,99999,99999
12:00:10,1510452810,2017-11-12T02:13:34,0.767,580.0,13.10,10.37,14.53,833.390,2063.390,108.599998,28.13,2.5092,355,23801,1.92426,4.00,48662,,,,,,,,,,,,,,,,,,99999,99999,99999,99999,99999,99999,99999,99999,99999,99999,99999,99999
12:00:40,1510452840,2017-11-12T02:14:04,0.772,580.4,13.08,10.39,14.53,833.440,2063.350,109.983330,28.02,2.5093,355,23799,1.93821,4.00,48657,,,,,,,,,,,,,,,,,,99999,99999,99999,99999,99999,99999,99999,99999,99999,99999,99999,99999
12:01:10,1510452870,2017-11-12T02:14:34,0.771,580.8,13.08,10.38,14.48,833.440,2063.350,107.616669,27.80,2.5094,355,23799,1.93365,4.00,48652,,,,,,,,,,,,,,,,,,99999,99999,99999,99999,99999,99999,99999,99999,99999,99999,99999,99999
12:01:40,1510452900,2017-11-12T02:15:04,0.774,581.1,13.06,10.36,14.48,833.400,2063.180,109.949997,28.05,2.5093,355,23798,1.94186,4.00,48648,,,,,,,,,,,,,,,,,,99999,99999,99999,99999,99999,99999,99999,99999,99999,99999,99999,99999
12:02:10,1510452930,2017-11-12T02:15:34,0.767,581.5,13.06,10.34,14.45,833.370,2063.180,108.383331,28.00,2.5093,355,23800,1.92517,4.00,48643,,,,,,,,,,,,,,,,,,99999,99999,99999,99999,99999,99999,99999,99999,99999,99999,99999,99999
12:02:40,1510452960,2017-11-12T02:16:04,0.768,581.9,13.04,10.34,14.45,833.430,2063.120,107.449997,28.32,2.5094,355,23797,1.92759,4.00,48638,,,,,,,,,,,,,,,,,,99999,99999,99999,99999,99999,99999,99999,99999,99999,99999,99999,99999
12:03:10,1510452990,2017-11-12T02:16:34,0.771,582.3,13.02,10.31,14.45,833.380,2063.060,108.150002,28.09,2.5095,355,23797,1.93365,4.00,48633,,,,,,,,,,,,,,,,,,99999,99999,99999,99999,99999,99999,99999,99999,99999,99999,99999,99999
12:03:40,1510453020,2017-11-12T02:17:04,0.767,582.7,13.01,10.31,14.44,833.410,2063.060,106.966667,27.97,2.5096,355,23797,1.92607,4.00,48629,,,,,,,,,,,,,,,,,,99999,99999,99999,99999,99999,99999,99999,99999,99999,99999,99999,99999
12:04:10,1510453050,2017-11-12T02:17:34,0.773,583.1,13.00,10.30,14.44,833.440,2063.000,111.216667,28.11,2.5096,355,23798,1.94064,4.00,48624,,,,,,,,,,,,,,,,,,99999,99999,99999,99999,99999,99999,99999,99999,99999,99999,99999,99999
12:04:40,1510453080,2017-11-12T02:18:04,0.767,583.4,12.98,10.27,14.40,833.390,2062.960,108.816666,28.00,2.5098,355,23796,1.92607,4.00,48619,,,,,,,,,,,,,,,,,,99999,99999,99999,99999,99999,99999,99999,99999,99999,99999,99999,99999
12:05:10,1510453110,2017-11-12T02:18:34,0.774,583.8,12.98,10.28,14.37,833.470,2062.960,109.650002,28.29,2.5097,355,23797,1.94155,4.00,48615,,,,,,,,,,,,,,,,,,99999,99999,99999,99999,99999,99999,99999,99999,99999,99999,99999,99999
12:05:40,1510453140,2017-11-12T02:19:04,0.767,584.2,12.96,10.26,14.34,833.340,2062.890,107.966667,28.49,2.5098,355,23795,1.92486,4.00,48610,,,,,,,,,,,,,,,,,,99999,99999,99999,99999,99999,99999,99999,99999,99999,99999,99999,99999
12:06:10,1510453170,2017-11-12T02:19:34,0.768,584.6,12.94,10.25,14.35,833.450,2062.790,107.900002,28.44,2.5099,355,23795,1.92759,4.00,48605,,,,,,,,,,,,,,,,,,99999,99999,99999,99999,99999,99999,99999,99999,99999,99999,99999,99999
12:06:40,1510453200,2017-11-12T02:20:04,0.768,585.0,12.94,10.22,14.32,833.400,2062.790,108.199997,28.31,2.5099,355,23794,1.92699,4.00,48601,,,,,,,,,,,,,,,,,,99999,99999,99999,99999,99999,99999,99999,99999,99999,99999,99999,99999
12:07:10,1510453230,2017-11-12T02:20:34,0.768,585.4,12.93,10.23,14.32,833.370,2062.730,110.666664,27.72,2.5099,355,23794,1.92850,4.00,48596,,,,,,,,,,,,,,,,,,99999,99999,99999,99999,99999,99999,99999,99999,99999,99999,99999,99999
12:07:40,1510453260,2017-11-12T02:21:04,0.770,585.8,12.91,10.23,14.31,833.430,2062.660,106.349998,28.24,2.5100,355,23794,1.93244,4.00,48591,,,,,,,,,,,,,,,,,,99999,99999,99999,99999,99999,99999,99999,99999,99999,99999,99999,99999
12:08:10,1510453290,2017-11-12T02:21:34,0.767,586.1,12.92,10.24,14.34,833.380,2062.730,107.033333,28.36,2.5100,355,23796,1.92607,4.00,48587,,,,,,,,,,,,,,,,,,99999,99999,99999,99999,99999,99999,99999,99999,99999,99999,99999,99999
12:08:40,1510453320,2017-11-12T02:22:04,0.773,586.5,12.91,10.22,14.32,833.400,2062.660,109.066666,28.53,2.5100,355,23793,1.94003,4.00,48582,,,,,,,,,,,,,,,,,,99999,99999,99999,99999,99999,99999,99999,99999,99999,99999,99999,99999
12:09:10,1510453350,2017-11-12T02:22:34,0.772,586.9,12.92,10.22,14.34,833.400,2062.730,108.383331,28.69,2.5100,355,23796,1.93699,4.00,48577,,,,,,,,,,,,,,,,,,99999,99999,99999,99999,99999,99999,99999,99999,99999,99999,99999,99999
12:09:40,1510453380,2017-11-12T02:23:04,0.767,587.3,12.90,10.22,14.29,833.460,2062.660,106.333336,28.57,2.5101,355,23796,1.92486,4.00,48573,,,,,,,,,,,,,,,,,,99999,99999,99999,99999,99999,99999,99999,99999,99999,99999,99999,99999
12:10:10,1510453410,2017-11-12T02:23:34,0.768,587.7,12.90,10.23,14.31,833.380,2062.660,107.283333,28.60,2.5101,355,23798,1.92699,4.00,48568,,,,,,,,,,,,,,,,,,99999,99999,99999,99999,99999,99999,99999,99999,99999,99999,99999,99999
12:10:40,1510453440,2017-11-12T02:24:04,0.773,588.1,12.90,10.23,14.27,833.490,2062.660,107.966667,28.74,2.5101,355,23797,1.94033,4.00,48563,,,,,,,,,,,,,,,,,,99999,99999,99999,99999,99999,99999,99999,99999,99999,99999,99999,99999
12:11:10,1510453470,2017-11-12T02:24:34,0.773,588.5,12.90,10.23,14.32,833.430,2062.660,108.466667,28.64,2.5101,355,23798,1.94033,4.00,48559,,,,,,,,,,,,,,,,,,99999,99999,99999,99999,99999,99999,99999,99999,99999,99999,99999,99999
12:11:40,1510453500,2017-11-12T02:25:04,0.768,588.8,12.91,10.25,14.32,833.430,2062.660,106.199997,28.67,2.5100,355,23796,1.92880,4.00,48554,,,,,,,,,,,,,,,,,,99999,99999,99999,99999,99999,99999,99999,99999,99999,99999,99999,99999
12:12:10,1510453530,2017-11-12T02:25:34,0.773,589.2,12.91,10.21,14.27,833.430,2062.660,109.849998,28.94,2.5100,355,23797,1.94003,4.00,48549,,,,,,,,,,,,,,,,,,99999,99999,99999,99999,99999,99999,99999,99999,99999,99999,99999,99999
12:12:40,1510453560,2017-11-12T02:26:04,0.771,589.6,12.90,10.23,14.31,833.490,2062.660,108.533333,29.05,2.5100,355,23796,1.93487,4.00,48545,,,,,,,,,,,,,,,,,,99999,99999,99999,99999,99999,99999,99999,99999,99999,99999,99999,99999
12:13:10,1510453590,2017-11-12T02:26:34,0.773,590.0,12.90,10.22,14.31,833.410,2062.660,110.400002,28.56,2.5101,355,23796,1.94003,4.00,48540,,,,,,,,,,,,,,,,,,99999,99999,99999,99999,99999,99999,99999,99999,99999,99999,99999,99999
12:13:40,1510453620,2017-11-12T02:27:04,0.768,590.4,12.91,10.23,14.27,833.510,2062.660,109.550003,28.90,2.5100,355,23796,1.92759,4.00,48535,,,,,,,,,,,,,,,,,,99999,99999,99999,99999,99999,99999,99999,99999,99999,99999,99999,99999
12:14:10,1510453650,2017-11-12T02:27:34,0.767,590.8,12.90,10.21,14.26,833.490,2062.660,108.033333,28.82,2.5100,355,23798,1.92426,4.00,48530,,,,,,,,,,,,,,,,,,99999,99999,99999,99999,99999,99999,99999,99999,99999,99999,99999,99999
12:14:40,1510453680,2017-11-12T02:28:04,0.772,591.1,12.90,10.21,14.29,833.510,2062.660,106.066666,28.31,2.5101,355,23794,1.93882,4.00,48526,,,,,,,,,,,,,,,,,,99999,99999,99999,99999,99999,99999,99999,99999,99999,99999,99999,99999
12:15:10,1510453710,2017-11-12T02:28:34,0.769,591.5,12.89,10.19,14.31,833.590,2062.600,108.983330,28.98,2.5101,355,23795,1.92910,4.00,48521,,,,,,,,,,,,,,,,,,99999,99999,99999,99999,99999,99999,99999,99999,99999,99999,99999,99999
12:15:40,1510453740,2017-11-12T02:29:04,0.768,591.9,12.88,10.20,14.24,833.440,2062.600,107.933334,28.32,2.5102,355,23798,1.92819,4.00,48516,,,,,,,,,,,,,,,,,,99999,99999,99999,99999,99999,99999,99999,99999,99999,99999,99999,99999
12:16:10,1510453770,2017-11-12T02:29:34,0.768,592.3,12.88,10.18,14.27,833.390,2062.600,110.216667,28.68,2.5102,355,23793,1.92819,4.00,48512,,,,,,,,,,,,,,,,,,99999,99999,99999,99999,99999,99999,99999,99999,99999,99999,99999,99999
12:16:40,1510453800,2017-11-12T02:30:04,0.772,592.7,12.87,10.18,14.26,833.390,2062.560,109.300003,28.74,2.5102,355,23793,1.93821,4.00,48507,,,,,,,,,,,,,,,,,,99999,99999,99999,99999,99999,99999,99999,99999,99999,99999,99999,99999
12:17:10,1510453830,2017-11-12T02:30:34,0.772,593.1,12.87,10.18,14.29,833.550,2062.560,105.766670,28.66,2.5102,355,23795,1.93851,4.00,48502,,,,,,,,,,,,,,,,,,99999,99999,99999,99999,99999,99999,99999,99999,99999,99999,99999,99999
12:17:40,1510453860,2017-11-12T02:31:04,0.771,593.5,12.86,10.16,14.24,833.550,2062.560,109.900002,28.67,2.5103,355,23793,1.93608,4.00,48498,,,,,,,,,,,,,,,,,,99999,99999,99999,99999,99999,99999,99999,99999,99999,99999,99999,99999
12:18:10,1510453890,2017-11-12T02:31:34,0.769,593.8,12.85,10.16,14.27,833.420,2062.500,107.816666,28.75,2.5103,355,23793,1.93032,4.00,48493,,,,,,,,,,,,,,,,,,99999,99999,99999,99999,99999,99999,99999,99999,99999,99999,99999,99999
12:18:40,1510453920,2017-11-12T02:32:04,0.767,594.2,12.84,10.16,14.29,833.500,2062.500,106.166664,28.85,2.5104,355,23793,1.92486,4.00,48488,,,,,,,,,,,,,,,,,,99999,99999,99999,99999,99999,99999,99999,99999,99999,99999,99999,99999
12:19:10,1510453950,2017-11-12T02:32:34,0.773,594.6,12.85,10.15,14.27,833.420,2062.500,107.633331,28.50,2.5103,355,23794,1.94094,4.00,48484,,,,,,,,,,,,,,,,,,99999,99999,99999,99999,99999,99999,99999,99999,99999,99999,99999,99999
12:19:40,1510453980,2017-11-12T02:33:04,0.774,595.0,12.83,10.14,14.24,833.480,2062.430,109.216667,28.97,2.5104,355,23793,1.94338,4.00,48479,,,,,,,,,,,,,,,,,,99999,99999,99999,99999,99999,99999,99999,99999,99999,99999,99999,99999
12:20:10,1510454010,2017-11-12T02:33:34,0.770,595.4,12.85,10.16,14.26,833.420,2062.500,107.916664,28.97,2.5103,355,23791,1.93183,4.00,48474,,,,,,,,,,,,,,,,,,99999,99999,99999,99999,99999,99999,99999,99999,99999,99999,99999,99999
12:20:40,1510454040,2017-11-12T02:34:04,0.773,595.8,12.85,10.18,14.27,833.440,2062.500,109.699997,28.98,2.5103,355,23796,1.94033,4.00,48470,,,,,,,,,,,,,,,,,,99999,99999,99999,99999,99999,99999,99999,99999,99999,99999,99999,99999
12:21:10,1510454070,2017-11-12T02:34:34,0.773,596.2,12.85,10.17,14.24,833.420,2062.500,110.066666,29.23,2.5103,355,23791,1.93942,4.00,48465,,,,,,,,,,,,,,,,,,99999,99999,99999,99999,99999,99999,99999,99999,99999,99999,99999,99999
12:21:40,1510454100,2017-11-12T02:35:04,0.768,596.5,12.86,10.16,14.27,833.390,2062.560,108.750000,29.01,2.5103,355,23793,1.92850,4.00,48460,,,,,,,,,,,,,,,,,,99999,99999,99999,99999,99999,99999,99999,99999,99999,99999,99999,99999
12:22:10,1510454130,2017-11-12T02:35:34,0.770,596.9,12.85,10.18,14.24,833.420,2062.500,108.483330,28.87,2.5103,355,23792,1.93304,4.00,48456,,,,,,,,,,,,,,,,,,99999,99999,99999,99999,99999,99999,99999,99999,99999,99999,99999,99999
12:22:40,1510454160,2017-11-12T02:36:04,0.774,597.3,12.87,10.19,14.26,833.440,2062.560,108.400002,28.86,2.5102,355,23793,1.94368,4.00,48451,,,,,,,,,,,,,,,,,,99999,99999,99999,99999,99999,99999,99999,99999,99999,99999,99999,99999
12:23:10,1510454190,2017-11-12T02:36:34,0.767,597.7,12.88,10.19,14.27,833.390,2062.600,110.033333,29.03,2.5101,355,23792,1.92577,4.00,48446,,,,,,,,,,,,,,,,,,99999,99999,99999,99999,99999,99999,99999,99999,99999,99999,99999,99999
12:23:40,1510454220,2017-11-12T02:37:04,0.769,598.1,12.88,10.19,14.31,833.420,2062.600,107.333336,28.91,2.5101,355,23795,1.93032,4.00,48442,,,,,,,,,,,,,,,,,,99999,99999,99999,99999,99999,99999,99999,99999,99999,99999,99999,99999
12:24:10,1510454250,2017-11-12T02:37:34,0.769,598.5,12.89,10.21,14.29,833.490,2062.600,109.533333,28.77,2.5101,355,23796,1.93001,4.00,48437,,,,,,,,,,,,,,,,,,99999,99999,99999,99999,99999,99999,99999,99999,99999,99999,99999,99999
12:24:40,1510454280,2017-11-12T02:38:04,0.772,598.9,12.89,10.20,14.31,833.430,2062.600,107.250000,28.90,2.5101,355,23795,1.93882,4.00,48432,,,,,,,,,,,,,,,,,,99999,99999,99999,99999,99999,99999,99999,99999,99999,99999,99999,99999
12:25:10,1510454310,2017-11-12T02:38:34,0.772,599.2,12.88,10.21,14.29,833.520,2062.600,109.433334,28.81,2.5102,355,23794,1.93882,4.00,48428,,,,,,,,,,,,,,,,,,99999,99999,99999,99999,99999,99999,99999,99999,99999,99999,99999,99999
12:25:40,1510454340,2017-11-12T02:39:04,0.768,599.6,12.90,10.20,14.29,833.430,2062.660,108.883331,28.54,2.5101,355,23793,1.92668,4.00,48423,,,,,,,,,,,,,,,,,,99999,99999,99999,99999,99999,99999,99999,99999,99999,99999,99999,99999
12:26:10,1510454370,2017-11-12T02:39:34,0.768,600.0,12.90,10.20,14.31,833.460,2062.660,108.733330,28.65,2.5101,355,23797,1.92850,4.00,48418,,,,,,,,,,,,,,,,,,99999,99999,99999,99999,99999,99999,99999,99999,99999,99999,99999,99999
12:26:40,1510454400,2017-11-12T02:40:04,0.771,600.4,12.90,10.20,14.29,833.430,2062.660,108.883331,28.53,2.5101,355,23795,1.93456,4.00,48413,,,,,,,,,,,,,,,,,,99999,99999,99999,99999,99999,99999,99999,99999,99999,99999,99999,99999
12:27:10,1510454430,2017-11-12T02:40:34,0.769,600.8,12.91,10.21,14.31,833.460,2062.660,107.349998,28.63,2.5100,355,23794,1.93123,4.00,48409,,,,,,,,,,,,,,,,,,99999,99999,99999,99999,99999,99999,99999,99999,99999,99999,99999,99999
12:27:40,1510454460,2017-11-12T02:41:04,0.773,601.2,12.92,10.24,14.32,833.430,2062.730,108.533333,28.64,2.5100,355,23795,1.94094,4.00,48404,,,,,,,,,,,,,,,,,,99999,99999,99999,99999,99999,99999,99999,99999,99999,99999,99999,99999
12:28:10,1510454490,2017-11-12T02:41:34,0.775,601.5,12.92,10.23,14.32,833.460,2062.730,108.333336,28.73,2.5100,355,23795,1.94490,4.00,48399,,,,,,,,,,,,,,,,,,99999,99999,99999,99999,99999,99999,99999,99999,99999,99999,99999,99999
12:28:40,1510454520,2017-11-12T02:42:04,0.769,601.9,12.94,10.24,14.31,833.430,2062.790,105.616669,28.73,2.5099,355,23797,1.93001,4.00,48395,,,,,,,,,,,,,,,,,,99999,99999,99999,99999,99999,99999,99999,99999,99999,99999,99999,99999
12:29:10,1510454550,2017-11-12T02:42:34,0.773,602.3,12.94,10.23,14.32,833.530,2062.790,106.800003,28.79,2.5099,355,23798,1.93973,4.00,48390,,,,,,,,,,,,,,,,,,99999,99999,99999,99999,99999,99999,99999,99999,99999,99999,99999,99999
12:29:40,1510454580,2017-11-12T02:43:04,0.773,602.7,12.95,10.26,14.34,833.500,2062.890,108.050003,28.63,2.5099,355,23794,1.94064,4.00,48385,,,,,,,,,,,,,,,,,,99999,99999,99999,99999,99999,99999,99999,99999,99999,99999,99999,99999
12:30:10,1510454610,2017-11-12T02:43:34,0.767,603.1,12.95,10.26,14.31,833.550,2062.890,107.683334,28.61,2.5099,355,23796,1.92577,4.00,48381,,,,,,,,,,,,,,,,,,99999,99999,99999,99999,99999,99999,99999,99999,99999,99999,99999,99999
12:30:40,1510454640,2017-11-12T02:44:04,0.768,603.5,12.96,10.26,14.32,833.520,2062.890,104.866669,28.68,2.5098,355,23796,1.92789,4.00,48376,,,,,,,,,,,,,,,,,,99999,99999,99999,99999,99999,99999,99999,99999,99999,99999,99999,99999
12:31:10,1510454670,2017-11-12T02:44:34,0.767,603.9,12.96,10.27,14.39,833.500,2062.890,108.449997,28.66,2.5098,355,23797,1.92426,4.00,48371,,,,,,,,,,,,,,,,,,99999,99999,99999,99999,99999,99999,99999,99999,99999,99999,99999,99999
12:31:40,1510454700,2017-11-12T02:45:04,0.767,604.2,12.98,10.26,14.39,833.600,2062.960,109.599998,28.71,2.5097,355,23797,1.92486,4.00,48367,,,,,,,,,,,,,,,,,,99999,99999,99999,99999,99999,99999,99999,99999,99999,99999,99999,99999
12:32:10,1510454730,2017-11-12T02:45:34,0.767,604.6,12.98,10.26,14.44,833.630,2062.960,109.383331,28.80,2.5097,355,23795,1.92395,4.00,48362,,,,,,,,,,,,,,,,,,99999,99999,99999,99999,99999,99999,99999,99999,99999,99999,99999,99999
12:32:40,1510454760,2017-11-12T02:46:04,0.767,605.0,12.98,10.27,14.35,833.570,2062.960,108.633331,28.44,2.5097,355,23798,1.92395,4.00,48357,,,,,,,,,,,,,,,,,,99999,99999,99999,99999,99999,99999,99999,99999,99999,99999,99999,99999
12:33:10,1510454790,2017-11-12T02:46:34,0.770,605.4,12.98,10.28,14.39,833.520,2062.960,107.416664,28.73,2.5097,355,23798,1.93335,4.00,48353,,,,,,,,,,,,,,,,,,99999,99999,99999,99999,99999,99999,99999,99999,99999,99999,99999,99999
12:33:40,1510454820,2017-11-12T02:47:04,0.775,605.8,12.98,10.28,14.35,833.600,2062.960,108.583336,28.84,2.5097,355,23795,1.94398,4.00,48348,,,,,,,,,,,,,,,,,,99999,99999,99999,99999,99999,99999,99999,99999,99999,99999,99999,99999
12:34:10,1510454850,2017-11-12T02:47:34,0.767,606.2,12.99,10.28,14.39,833.520,2063.000,108.016670,28.51,2.5097,355,23796,1.92486,4.00,48343,,,,,,,,,,,,,,,,,,99999,99999,99999,99999,99999,99999,99999,99999,99999,99999,99999,99999
12:34:40,1510454880,2017-11-12T02:48:04,0.775,606.6,12.99,10.26,14.39,833.550,2063.000,108.016670,28.82,2.5097,355,23795,1.94490,4.00,48339,,,,,,,,,,,,,,,,,,99999,99999,99999,99999,99999,99999,99999,99999,99999,99999,99999,99999
12:35:10,1510454910,2017-11-12T02:48:34,0.772,606.9,12.99,10.27,14.39,833.490,2063.000,109.750000,28.54,2.5097,355,23796,1.93851,4.00,48334,,,,,,,,,,,,,,,,,,99999,99999,99999,99999,99999,99999,99999,99999,99999,99999,99999,99999
12:35:40,1510454940,2017-11-12T02:49:04,0.770,607.3,12.99,10.29,14.37,833.600,2063.000,109.566666,28.57,2.5097,355,23796,1.93365,4.00,48329,,,,,,,,,,,,,,,,,,99999,99999,99999,99999,99999,99999,99999,99999,99999,99999,99999,99999
12:36:10,1510454970,2017-11-12T02:49:34,0.770,607.7,12.99,10.29,14.40,833.570,2063.000,109.050003,28.67,2.5097,355,23795,1.93304,4.00,48324,,,,,,,,,,,,,,,,,,99999,99999,99999,99999,99999,99999,99999,99999,99999,99999,99999,99999
12:36:40,1510455000,2017-11-12T02:50:04,0.768,608.1,12.98,10.28,14.35,833.520,2062.960,108.683334,28.41,2.5097,355,23796,1.92638,4.00,48320,,,,,,,,,,,,,,,,,,99999,99999,99999,99999,99999,99999,99999,99999,99999,99999,99999,99999
12:37:10,1510455030,2017-11-12T02:50:34,0.767,608.5,12.98,10.26,14.37,833.570,2062.960,107.550003,28.44,2.5097,355,23798,1.92577,4.00,48315,,,,,,,,,,,,,,,,,,99999,99999,99999,99999,99999,99999,99999,99999,99999,99999,99999,99999
12:37:40,1510455060,2017-11-12T02:51:04,0.776,608.9,12.97,10.25,14.34,833.660,2062.960,104.866669,28.44,2.5098,355,23797,1.94673,4.00,48310,,,,,,,,,,,,,,,,,,99999,99999,99999,99999,99999,99999,99999,99999,99999,99999,99999,99999
12:38:10,1510455090,2017-11-12T02:51:34,0.770,609.3,12.96,10.27,14.39,833.600,2062.890,107.366669,28.50,2.5098,355,23794,1.93304,4.00,48306,,,,,,,,,,,,,,,,,,99999,99999,99999,99999,99999,99999,99999,99999,99999,99999,99999,99999
12:38:40,1510455120,2017-11-12T02:52:04,0.773,609.6,12.96,10.24,14.37,833.550,2062.890,110.449997,28.86,2.5098,355,23797,1.94064,4.00,48301,,,,,,,,,,,,,,,,,,99999,99999,99999,99999,99999,99999,99999,99999,99999,99999,99999,99999
12:39:10,1510455150,2017-11-12T02:52:34,0.773,610.0,12.95,10.24,14.37,833.610,2062.890,108.883331,28.66,2.5099,355,23796,1.93912,4.00,48296,,,,,,,,,,,,,,,,,,99999,99999,99999,99999,99999,99999,99999,99999,99999,99999,99999,99999
12:39:40,1510455180,2017-11-12T02:53:04,0.773,610.4,12.94,10.22,14.40,833.530,2062.790,108.966667,28.54,2.5099,355,23796,1.94033,4.00,48292,,,,,,,,,,,,,,,,,,99999,99999,99999,99999,99999,99999,99999,99999,99999,99999,99999,99999
12:40:10,1510455210,2017-11-12T02:53:34,0.774,610.8,12.94,10.23,14.37,833.660,2062.790,108.849998,28.82,2.5099,355,23795,1.94216,4.00,48287,,,,,,,,,,,,,,,,,,99999,99999,99999,99999,99999,99999,99999,99999,99999,99999,99999,99999
12:40:40,1510455240,2017-11-12T02:54:04,0.772,611.2,12.93,10.25,14.32,833.720,2062.730,110.250000,28.74,2.5099,355,23797,1.93851,4.00,48282,,,,,,,,,,,,,,,,,,99999,99999,99999,99999,99999,99999,99999,99999,99999,99999,99999,99999
12:41:10,1510455270,2017-11-12T02:54:34,0.767,611.6,12.91,10.23,14.32,833.750,2062.660,107.383331,28.55,2.5100,355,23793,1.92607,4.00,48278,,,,,,,,,,,,,,,,,,99999,99999,99999,99999,99999,99999,99999,99999,99999,99999,99999,99999
12:41:40,1510455300,2017-11-12T02:55:04,0.774,612.0,12.92,10.21,14.34,833.690,2062.730,105.783333,28.33,2.5100,355,23793,1.94338,4.00,48273,,,,,,,,,,,,,,,,,,99999,99999,99999,99999,99999,99999,99999,99999,99999,99999,99999,99999
12:42:10,1510455330,2017-11-12T02:55:34,0.771,612.3,12.92,10.21,14.29,833.750,2062.730,109.866669,28.41,2.5100,355,23795,1.93396,4.00,48268,,,,,,,,,,,,,,,,,,99999,99999,99999,99999,99999,99999,99999,99999,99999,99999,99999,99999
12:42:40,1510455360,2017-11-12T02:56:04,0.773,612.7,12.92,10.22,14.32,833.670,2062.730,110.766670,29.25,2.5099,355,23795,1.94125,4.00,48263,,,,,,,,,,,,,,,,,,99999,99999,99999,99999,99999,99999,99999,99999,99999,99999,99999,99999
12:43:10,1510455390,2017-11-12T02:56:34,0.766,613.1,12.90,10.20,14.29,833.720,2062.660,108.283333,29.57,2.5100,355,23795,1.92305,4.00,48259,,,,,,,,,,,,,,,,,,99999,99999,99999,99999,99999,99999,99999,99999,99999,99999,99999,99999
12:43:40,1510455420,2017-11-12T02:57:04,0.768,613.5,12.89,10.20,14.32,833.750,2062.600,108.483330,29.57,2.5100,355,23793,1.92819,4.00,48254,,,,,,,,,,,,,,,,,,99999,99999,99999,99999,99999,99999,99999,99999,99999,99999,99999,99999
12:44:10,1510455450,2017-11-12T02:57:34,0.767,613.9,12.88,10.16,14.31,833.730,2062.600,108.033333,29.75,2.5101,355,23794,1.92426,3.99,48249,,,,,,,,,,,,,,,,,,99999,99999,99999,99999,99999,99999,99999,99999,99999,99999,99999,99999
12:44:40,1510455480,2017-11-12T02:58:04,0.769,614.3,12.86,10.15,14.26,833.710,2062.560,109.933334,29.82,2.5102,355,23791,1.93032,3.99,48245,,,,,,,,,,,,,,,,,,99999,99999,99999,99999,99999,99999,99999,99999,99999,99999,99999,99999
12:45:10,1510455510,2017-11-12T02:58:34,0.771,614.6,12.82,10.11,14.26,833.720,2062.430,109.116669,29.93,2.5104,355,23792,1.93638,3.99,48240,,,,,,,,,,,,,,,,,,99999,99999,99999,99999,99999,99999,99999,99999,99999,99999,99999,99999
12:45:40,1510455540,2017-11-12T02:59:04,0.772,615.0,12.80,10.05,14.18,833.770,2062.330,110.533333,30.05,2.5105,355,23791,1.93912,3.99,48235,,,,,,,,,,,,,,,,,,99999,99999,99999,99999,99999,99999,99999,99999,99999,99999,99999,99999
12:46:10,1510455570,2017-11-12T02:59:34,0.773,615.4,12.74,10.03,14.21,833.710,2062.100,110.683334,30.04,2.5107,355,23789,1.94064,3.99,48231,,,,,,,,,,,,,,,,,,99999,99999,99999,99999,99999,99999,99999,99999,99999,99999,99999,99999
12:46:40,1510455600,2017-11-12T03:00:04,0.769,615.8,12.70,10.01,14.16,833.690,2061.990,108.349998,29.95,2.5109,355,23788,1.93183,3.99,48226,,,,,,,,,,,,,,,,,,99999,99999,99999,99999,99999,99999,99999,99999,99999,99999,99999,99999
12:47:10,1510455630,2017-11-12T03:00:34,0.771,616.2,12.66,9.95,14.11,833.730,2061.810,110.016670,29.99,2.5111,355,23788,1.93638,3.99,48221,,,,,,,,,,,,,,,,,,99999,99999,99999,99999,99999,99999,99999,99999,99999,99999,99999,99999
12:47:40,1510455660,2017-11-12T03:01:04,0.769,616.6,12.60,9.90,14.05,833.770,2061.640,109.599998,30.32,2.5114,355,23784,1.93153,3.99,48217,,,,,,,,,,,,,,,,,,99999,99999,99999,99999,99999,99999,99999,99999,99999,99999,99999,99999
12:48:10,1510455690,2017-11-12T03:01:34,0.773,617.0,12.55,9.85,14.00,833.780,2061.410,108.550003,30.29,2.5115,355,23783,1.94033,3.99,48212,,,,,,,,,,,,,,,,,,99999,99999,99999,99999,99999,99999,99999,99999,99999,99999,99999,99999
12:48:40,1510455720,2017-11-12T03:02:04,0.770,617.3,12.50,9.81,13.98,833.790,2061.240,110.116669,30.30,2.5118,355,23783,1.93487,3.99,48207,,,,,,,,,,,,,,,,,,99999,99999,99999,99999,99999,99999,99999,99999,99999,99999,99999,99999
12:49:10,1510455750,2017-11-12T03:02:34,0.767,617.7,12.45,9.73,13.92,833.720,2061.140,107.233330,30.47,2.5121,355,23784,1.92699,3.99,48203,,,,,,,,,,,,,,,,,,99999,99999,99999,99999,99999,99999,99999,99999,99999,99999,99999,99999
12:49:40,1510455780,2017-11-12T03:03:04,0.763,618.1,12.39,9.70,13.81,833.760,2060.910,107.266670,30.63,2.5123,355,23781,1.91730,3.99,48198,,,,,,,,,,,,,,,,,,99999,99999,99999,99999,99999,99999,99999,99999,99999,99999,99999,99999
12:50:10,1510455810,2017-11-12T03:03:34,0.764,618.5,12.34,9.63,13.79,833.830,2060.740,109.416664,30.62,2.5126,355,23777,1.91942,3.99,48193,,,,,,,,,,,,,,,,,,99999,99999,99999,99999,99999,99999,99999,99999,99999,99999,99999,99999
12:50:40,1510455840,2017-11-12T03:04:04,0.769,618.9,12.28,9.60,13.74,833.840,2060.510,109.199997,29.88,2.5129,355,23778,1.93304,3.99,48189,,,,,,,,,,,,,,,,,,99999,99999,99999,99999,99999,99999,99999,99999,99999,99999,99999,99999
12:51:10,1510455870,2017-11-12T03:04:34,0.769,619.3,12.21,9.53,13.69,833.800,2060.290,109.583336,30.77,2.5132,355,23775,1.93274,3.99,48184,,,,,,,,,,,,,,,,,,99999,99999,99999,99999,99999,99999,99999,99999,99999,99999,99999,99999
12:51:40,1510455900,2017-11-12T03:05:04,0.769,619.6,12.16,9.51,13.61,833.760,2060.060,108.449997,30.86,2.5133,355,23774,1.93153,3.99,48179,,,,,,,,,,,,,,,,,,99999,99999,99999,99999,99999,99999,99999,99999,99999,99999,99999,99999
12:52:10,1510455930,2017-11-12T03:05:34,0.764,620.0,12.09,9.46,13.58,833.800,2059.890,109.400002,30.99,2.5138,355,23772,1.91942,3.99,48175,,,,,,,,,,,,,,,,,,99999,99999,99999,99999,99999,99999,99999,99999,99999,99999,99999,99999
12:52:40,1510455960,2017-11-12T03:06:04,0.762,620.4,12.04,9.39,13.48,833.790,2059.720,107.199997,30.90,2.5140,355,23773,1.91610,3.99,48170,,,,,,,,,,,,,,,,,,99999,99999,99999,99999,99999,99999,99999,99999,99999,99999,99999,99999
12:53:10,1510455990,2017-11-12T03:06:34,0.766,620.8,11.98,9.36,13.47,833.770,2059.490,107.383331,31.14,2.5142,355,23772,1.92607,3.99,48165,,,,,,,,,,,,,,,,,,99999,99999,99999,99999,99999,99999,99999,99999,99999,99999,99999,99999
12:53:40,1510456020,2017-11-12T03:07:04,0.766,621.2,11.93,9.30,13.42,833.810,2059.320,109.099998,31.62,2.5144,355,23769,1.92699,3.99,48161,,,,,,,,,,,,,,,,,,99999,99999,99999,99999,99999,99999,99999,99999,99999,99999,99999,99999
12:54:10,1510456050,2017-11-12T03:07:34,0.766,621.6,11.88,9.26,13.34,833.880,2059.090,106.416664,31.31,2.5146,355,23769,1.92729,3.99,48156,,,,,,,,,,,,,,,,,,99999,99999,99999,99999,99999,99999,99999,99999,99999,99999,99999,99999
12:54:40,1510456080,2017-11-12T03:08:04,0.762,621.9,11.83,9.22,13.29,833.890,2058.990,107.316666,31.35,2.5150,355,23767,1.91579,3.99,48151,,,,,,,,,,,,,,,,,,99999,99999,99999,99999,99999,99999,99999,99999,99999,99999,99999,99999
12:55:10,1510456110,2017-11-12T03:08:34,0.765,622.3,11.78,9.19,13.29,833.850,2058.820,106.716667,31.47,2.5152,355,23763,1.92395,3.99,48147,,,,,,,,,,,,,,,,,,99999,99999,99999,99999,99999,99999,99999,99999,99999,99999,99999,99999
12:55:40,1510456140,2017-11-12T03:09:04,0.766,622.7,11.74,9.16,13.21,833.940,2058.660,108.733330,31.49,2.5154,355,23764,1.92729,3.99,48142,,,,,,,,,,,,,,,,,,99999,99999,99999,99999,99999,99999,99999,99999,99999,99999,99999,99999
12:56:10,1510456170,2017-11-12T03:09:34,0.761,623.1,11.68,9.11,13.15,833.870,2058.490,106.366669,31.54,2.5157,355,23762,1.91399,3.99,48137,,,,,,,,,,,,,,,,,,99999,99999,99999,99999,99999,99999,99999,99999,99999,99999,99999,99999
12:56:40,1510456200,2017-11-12T03:10:04,0.765,623.5,11.65,9.06,13.15,833.930,2058.370,108.016670,31.55,2.5158,355,23760,1.92365,3.99,48133,,,,,,,,,,,,,,,,,,99999,99999,99999,99999,99999,99999,99999,99999,99999,99999,99999,99999
12:57:10,1510456230,2017-11-12T03:10:34,0.759,623.8,11.59,9.03,13.05,833.870,2058.140,107.016670,31.77,2.5160,355,23761,1.90946,3.99,48128,,,,,,,,,,,,,,,,,,99999,99999,99999,99999,99999,99999,99999,99999,99999,99999,99999,99999
12:57:40,1510456260,2017-11-12T03:11:04,0.765,624.2,11.56,8.99,13.03,833.900,2058.030,107.866669,31.90,2.5162,355,23759,1.92426,3.99,48123,,,,,,,,,,,,,,,,,,99999,99999,99999,99999,99999,99999,99999,99999,99999,99999,99999,99999
12:58:10,1510456290,2017-11-12T03:11:34,0.766,624.6,11.50,8.95,13.00,833.860,2057.800,107.666664,31.86,2.5164,355,23758,1.92699,3.99,48119,,,,,,,,,,,,,,,,,,99999,99999,99999,99999,99999,99999,99999,99999,99999,99999,99999,99999
12:58:40,1510456320,2017-11-12T03:12:04,0.761,625.0,11.47,8.90,12.94,833.870,2057.700,104.199997,31.99,2.5166,355,23756,1.91428,3.99,48114,,,,,,,,,,,,,,,,,,99999,99999,99999,99999,99999,99999,99999,99999,99999,99999,99999,99999
12:59:10,1510456350,2017-11-12T03:12:34,0.764,625.4,11.43,8.86,12.87,833.960,2057.570,108.133331,32.09,2.5168,355,23754,1.92244,3.99,48109,,,,,,,,,,,,,,,,,,99999,99999,99999,99999,99999,99999,99999,99999,99999,99999,99999,99999
12:59:40,1510456380,2017-11-12T03:13:04,0.760,625.7,11.39,8.84,12.89,833.860,2057.470,107.433334,31.91,2.5170,355,23754,1.91187,3.99,48105,,,,,,,,,,,,,,,,,,99999,99999,99999,99999,99999,99999,99999,99999,99999,99999,99999,99999
13:00:10,1510456410,2017-11-12T03:13:34,0.765,626.1,11.36,8.78,12.82,833.970,2057.300,107.716667,31.96,2.5171,355,23750,1.92486,3.99,48100,,,,,,,,,,,,,,,,,,99999,99999,99999,99999,99999,99999,99999,99999,99999,99999,99999,99999
13:00:40,1510456440,2017-11-12T03:14:04,0.761,626.5,11.32,8.76,12.79,833.960,2057.170,107.099998,31.82,2.5173,355,23751,1.91459,3.99,48096,,,,,,,,,,,,,,,,,,99999,99999,99999,99999,99999,99999,99999,99999,99999,99999,99999,99999
13:01:10,1510456470,2017-11-12T03:14:34,0.757,626.9,11.28,8.75,12.74,833.860,2057.070,105.050003,32.12,2.5175,355,23751,1.90645,3.99,48091,,,,,,,,,,,,,,,,,,99999,99999,99999,99999,99999,99999,99999,99999,99999,99999,99999,99999
13:01:40,1510456500,2017-11-12T03:15:04,0.758,627.3,11.26,8.71,12.71,833.940,2057.010,106.599998,32.39,2.5176,355,23748,1.90946,3.99,48086,,,,,,,,,,,,,,,,,,99999,99999,99999,99999,99999,99999,99999,99999,99999,99999,99999,99999
13:02:10,1510456530,2017-11-12T03:15:34,0.760,627.6,11.22,8.71,12.68,833.920,2056.840,105.900002,32.06,2.5178,355,23749,1.91308,3.99,48082,,,,,,,,,,,,,,,,,,99999,99999,99999,99999,99999,99999,99999,99999,99999,99999,99999,99999
13:02:40,1510456560,2017-11-12T03:16:04,0.757,628.0,11.20,8.67,12.71,833.900,2056.800,105.199997,32.29,2.5179,355,23749,1.90585,3.99,48077,,,,,,,,,,,,,,,,,,99999,99999,99999,99999,99999,99999,99999,99999,99999,99999,99999,99999
13:03:10,1510456590,2017-11-12T03:16:34,0.760,628.4,11.18,8.66,12.63,833.930,2056.740,104.916664,32.32,2.5180,355,23745,1.91399,3.99,48072,,,,,,,,,,,,,,,,,,99999,99999,99999,99999,99999,99999,99999,99999,99999,99999,99999,99999
13:03:40,1510456620,2017-11-12T03:17:04,0.761,628.8,11.14,8.62,12.58,833.890,2056.610,108.099998,31.77,2.5182,355,23746,1.91640,3.99,48068,,,,,,,,,,,,,,,,,,99999,99999,99999,99999,99999,99999,99999,99999,99999,99999,99999,99999
13:04:10,1510456650,2017-11-12T03:17:34,0.758,629.2,11.11,8.59,12.60,833.870,2056.450,106.966667,31.67,2.5183,355,23744,1.90765,3.99,48063,,,,,,,,,,,,,,,,,,99999,99999,99999,99999,99999,99999,99999,99999,99999,99999,99999,99999
13:04:40,1510456680,2017-11-12T03:18:04,0.763,629.5,11.10,8.56,12.58,833.900,2056.400,106.833336,31.85,2.5183,355,23744,1.92214,3.99,48059,,,,,,,,,,,,,,,,,,99999,99999,99999,99999,99999,99999,99999,99999,99999,99999,99999,99999
13:05:10,1510456710,2017-11-12T03:18:34,0.762,629.9,11.07,8.56,12.55,833.930,2056.340,106.433334,31.96,2.5185,355,23745,1.91972,3.99,48054,,,,,,,,,,,,,,,,,,99999,99999,99999,99999,99999,99999,99999,99999,99999,99999,99999,99999
13:05:40,1510456740,2017-11-12T03:19:04,0.763,630.3,11.06,8.55,12.53,833.940,2056.280,107.033333,31.76,2.5185,355,23745,1.92184,3.99,48049,,,,,,,,,,,,,,,,,,99999,99999,99999,99999,99999,99999,99999,99999,99999,99999,99999,99999
13:06:10,1510456770,2017-11-12T03:19:34,0.756,630.7,11.06,8.55,12.47,833.880,2056.280,105.449997,31.76,2.5185,355,23744,1.90464,3.99,48045,,,,,,,,,,,,,,,,,,99999,99999,99999,99999,99999,99999,99999,99999,99999,99999,99999,99999
13:06:40,1510456800,2017-11-12T03:20:04,0.762,631.1,11.05,8.54,12.48,833.940,2056.280,107.033333,31.78,2.5186,355,23745,1.92033,3.99,48040,,,,,,,,,,,,,,,,,,99999,99999,99999,99999,99999,99999,99999,99999,99999,99999,99999,99999
13:07:10,1510456830,2017-11-12T03:20:34,0.761,631.4,11.05,8.54,12.48,833.860,2056.280,109.800003,31.77,2.5186,355,23742,1.91579,3.99,48035,,,,,,,,,,,,,,,,,,99999,99999,99999,99999,99999,99999,99999,99999,99999,99999,99999,99999
13:07:40,1510456860,2017-11-12T03:21:04,0.757,631.8,11.05,8.53,12.48,833.860,2056.280,104.916664,31.60,2.5186,355,23742,1.90645,3.99,48031,,,,,,,,,,,,,,,,,,99999,99999,99999,99999,99999,99999,99999,99999,99999,99999,99999,99999
13:08:10,1510456890,2017-11-12T03:21:34,0.757,632.2,11.04,8.51,12.48,833.830,2056.240,106.800003,31.55,2.5187,355,23745,1.90555,3.99,48026,,,,,,,,,,,,,,,,,,99999,99999,99999,99999,99999,99999,99999,99999,99999,99999,99999,99999
13:08:40,1510456920,2017-11-12T03:22:04,0.755,632.6,11.04,8.51,12.50,833.860,2056.240,105.500000,31.66,2.5187,355,23743,1.90193,3.99,48022,,,,,,,,,,,,,,,,,,99999,99999,99999,99999,99999,99999,99999,99999,99999,99999,99999,99999
13:09:10,1510456950,2017-11-12T03:22:34,0.762,633.0,11.05,8.54,12.50,833.860,2056.280,106.916664,31.62,2.5186,355,23744,1.92002,3.99,48017,,,,,,,,,,,,,,,,,,99999,99999,99999,99999,99999,99999,99999,99999,99999,99999,99999,99999
13:09:40,1510456980,2017-11-12T03:23:04,0.761,633.3,11.06,8.54,12.50,833.880,2056.280,106.250000,31.58,2.5185,355,23741,1.91610,3.99,48012,,,,,,,,,,,,,,,,,,99999,99999,99999,99999,99999,99999,99999,99999,99999,99999,99999,99999
13:10:10,1510457010,2017-11-12T03:23:34,0.757,633.7,11.06,8.55,12.48,833.880,2056.280,104.816666,31.36,2.5186,355,23744,1.90765,3.99,48008,,,,,,,,,,,,,,,,,,99999,99999,99999,99999,99999,99999,99999,99999,99999,99999,99999,99999
13:10:40,1510457040,2017-11-12T03:24:04,0.756,634.1,11.07,8.55,12.48,834.010,2056.340,105.400002,31.55,2.5185,355,23742,1.90344,3.99,48003,,,,,,,,,,,,,,,,,,99999,99999,99999,99999,99999,99999,99999,99999,99999,99999,99999,99999
13:11:10,1510457070,2017-11-12T03:24:34,0.757,634.5,11.08,8.54,12.52,834.010,2056.340,104.849998,31.30,2.5184,355,23741,1.90585,3.99,47999,,,,,,,,,,,,,,,,,,99999,99999,99999,99999,99999,99999,99999,99999,99999,99999,99999,99999
13:11:40,1510457100,2017-11-12T03:25:04,0.762,634.9,11.08,8.55,12.50,834.030,2056.340,108.216667,31.53,2.5184,355,23746,1.91912,3.99,47994,,,,,,,,,,,,,,,,,,99999,99999,99999,99999,99999,99999,99999,99999,99999,99999,99999,99999
13:12:10,1510457130,2017-11-12T03:25:34,0.757,635.2,11.09,8.54,12.53,834.000,2056.400,104.750000,31.39,2.5184,355,23742,1.90524,3.99,47989,,,,,,,,,,,,,,,,,,99999,99999,99999,99999,99999,99999,99999,99999,99999,99999,99999,99999
13:12:40,1510457160,2017-11-12T03:26:04,0.756,635.6,11.09,8.55,12.56,834.030,2056.400,105.266670,31.64,2.5184,355,23744,1.90434,3.99,47985,,,,,,,,,,,,,,,,,,99999,99999,99999,99999,99999,99999,99999,99999,99999,99999,99999,99999
13:13:10,1510457190,2017-11-12T03:26:34,0.762,636.0,11.09,8.55,12.48,834.030,2056.400,105.800003,31.50,2.5184,355,23745,1.91821,3.99,47980,,,,,,,,,,,,,,,,,,99999,99999,99999,99999,99999,99999,99999,99999,99999,99999,99999,99999
13:13:40,1510457220,2017-11-12T03:27:04,0.759,636.4,11.09,8.55,12.52,834.000,2056.400,106.050003,31.83,2.5184,355,23743,1.91036,3.99,47975,,,,,,,,,,,,,,,,,,99999,99999,99999,99999,99999,99999,99999,99999,99999,99999,99999,99999
13:14:10,1510457250,2017-11-12T03:27:34,0.762,636.8,11.10,8.55,12.52,834.000,2056.400,105.183334,31.79,2.5183,355,23742,1.91881,3.99,47971,,,,,,,,,,,,,,,,,,99999,99999,99999,99999,99999,99999,99999,99999,99999,99999,99999,99999
13:14:40,1510457280,2017-11-12T03:28:04,0.762,637.1,11.10,8.54,12.48,834.000,2056.400,106.633331,31.39,2.5183,355,23741,1.91881,3.99,47966,,,,,,,,,,,,,,,,,,99999,99999,99999,99999,99999,99999,99999,99999,99999,99999,99999,99999
13:15:10,1510457310,2017-11-12T03:28:34,0.756,637.5,11.09,8.50,12.53,834.060,2056.400,104.816666,31.69,2.5184,355,23743,1.90344,3.99,47962,,,,,,,,,,,,,,,,,,99999,99999,99999,99999,99999,99999,99999,99999,99999,99999,99999,99999
13:15:40,1510457340,2017-11-12T03:29:04,0.763,637.9,11.08,8.50,12.52,834.010,2056.340,106.566666,31.41,2.5184,355,23740,1.92214,3.99,47957,,,,,,,,,,,,,,,,,,99999,99999,99999,99999,99999,99999,99999,99999,99999,99999,99999,99999
13:16:10,1510457370,2017-11-12T03:29:34,0.763,638.3,11.08,8.47,12.52,833.950,2056.340,107.416664,31.30,2.5184,355,23739,1.92214,3.99,47952,,,,,,,,,,,,,,,,,,99999,99999,99999,99999,99999,99999,99999,99999,99999,99999,99999,99999
13:16:40,1510457400,2017-11-12T03:30:04,0.758,638.7,11.07,8.46,12.48,834.060,2056.340,104.983330,31.60,2.5185,355,23739,1.91006,3.99,47948,,,,,,,,,,,,,,,,,,99999,99999,99999,99999,99999,99999,99999,99999,99999,99999,99999,99999
13:17:10,1510457430,2017-11-12T03:30:34,0.756,639.0,11.05,8.45,12.52,833.990,2056.280,105.516670,31.65,2.5186,355,23740,1.90344,3.99,47943,,,,,,,,,,,,,,,,,,99999,99999,99999,99999,99999,99999,99999,99999,99999,99999,99999,99999
13:17:40,1510457460,2017-11-12T03:31:04,0.763,639.4,11.04,8.42,12.45,833.970,2056.240,107.550003,31.51,2.5187,355,23740,1.92093,3.99,47939,,,,,,,,,,,,,,,,,,99999,99999,99999,99999,99999,99999,99999,99999,99999,99999,99999,99999
13:18:10,1510457490,2017-11-12T03:31:34,0.763,639.8,11.03,8.40,12.45,833.990,2056.240,107.016670,31.30,2.5188,355,23742,1.92063,3.99,47934,,,,,,,,,,,,,,,,,,99999,99999,99999,99999,99999,99999,99999,99999,99999,99999,99999,99999
13:18:40,1510457520,2017-11-12T03:32:04,0.758,640.2,11.02,8.39,12.42,834.000,2056.170,103.150002,31.45,2.5188,355,23739,1.91006,3.99,47929,,,,,,,,,,,,,,,,,,99999,99999,99999,99999,99999,99999,99999,99999,99999,99999,99999,99999
13:19:10,1510457550,2017-11-12T03:32:34,0.755,640.6,10.99,8.38,12.42,834.000,2056.010,104.733330,31.57,2.5188,355,23737,1.90254,3.99,47925,,,,,,,,,,,,,,,,,,99999,99999,99999,99999,99999,99999,99999,99999,99999,99999,99999,99999
13:19:40,1510457580,2017-11-12T03:33:04,0.760,640.9,10.97,8.36,12.40,833.960,2055.950,104.966667,30.99,2.5190,355,23738,1.91519,3.99,47920,,,,,,,,,,,,,,,,,,99999,99999,99999,99999,99999,99999,99999,99999,99999,99999,99999,99999
13:20:10,1510457610,2017-11-12T03:33:34,0.755,641.3,10.96,8.33,12.39,834.060,2055.950,105.333336,31.44,2.5190,355,23736,1.90193,3.99,47915,,,,,,,,,,,,,,,,,,99999,99999,99999,99999,99999,99999,99999,99999,99999,99999,99999,99999
13:20:40,1510457640,2017-11-12T03:34:04,0.761,641.7,10.94,8.31,12.39,834.060,2055.880,104.816666,31.03,2.5192,355,23737,1.91670,3.99,47911,,,,,,,,,,,,,,,,,,99999,99999,99999,99999,99999,99999,99999,99999,99999,99999,99999,99999
13:21:10,1510457670,2017-11-12T03:34:34,0.763,642.1,10.93,8.29,12.35,834.070,2055.840,106.400002,31.30,2.5192,355,23735,1.92335,3.99,47906,,,,,,,,,,,,,,,,,,99999,99999,99999,99999,99999,99999,99999,99999,99999,99999,99999,99999
13:21:40,1510457700,2017-11-12T03:35:04,0.755,642.5,10.91,8.25,12.32,834.070,2055.780,104.216667,31.33,2.5193,355,23734,1.90284,3.99,47902,,,,,,,,,,,,,,,,,,99999,99999,99999,99999,99999,99999,99999,99999,99999,99999,99999,99999
13:22:10,1510457730,2017-11-12T03:35:34,0.757,642.8,10.89,8.25,12.31,834.030,2055.720,105.650002,31.79,2.5194,355,23734,1.90826,3.99,47897,,,,,,,,,,,,,,,,,,99999,99999,99999,99999,99999,99999,99999,99999,99999,99999,99999,99999
13:22:40,1510457760,2017-11-12T03:36:04,0.760,643.2,10.87,8.22,12.31,834.000,2055.670,105.616669,31.65,2.5195,355,23732,1.91549,3.99,47892,,,,,,,,,,,,,,,,,,99999,99999,99999,99999,99999,99999,99999,99999,99999,99999,99999,99999
13:23:10,1510457790,2017-11-12T03:36:34,0.758,643.6,10.85,8.21,12.27,834.120,2055.550,105.133331,31.57,2.5195,355,23734,1.90856,3.99,47888,,,,,,,,,,,,,,,,,,99999,99999,99999,99999,99999,99999,99999,99999,99999,99999,99999,99999
13:23:40,1510457820,2017-11-12T03:37:04,0.764,644.0,10.83,8.17,12.26,834.140,2055.500,105.516670,31.78,2.5196,355,23732,1.92426,3.99,47883,,,,,,,,,,,,,,,,,,99999,99999,99999,99999,99999,99999,99999,99999,99999,99999,99999,99999
13:24:10,1510457850,2017-11-12T03:37:34,0.757,644.4,10.82,8.17,12.26,834.090,2055.450,102.883331,31.54,2.5197,355,23734,1.90615,3.99,47879,,,,,,,,,,,,,,,,,,99999,99999,99999,99999,99999,99999,99999,99999,99999,99999,99999,99999
13:24:40,1510457880,2017-11-12T03:38:04,0.755,644.7,10.80,8.15,12.23,834.210,2055.380,105.133331,31.34,2.5198,355,23730,1.90133,3.99,47874,,,,,,,,,,,,,,,,,,99999,99999,99999,99999,99999,99999,99999,99999,99999,99999,99999,99999
13:25:10,1510457910,2017-11-12T03:38:34,0.758,645.1,10.77,8.09,12.21,834.230,2055.320,106.983330,31.61,2.5200,355,23731,1.90946,3.99,47869,,,,,,,,,,,,,,,,,,99999,99999,99999,99999,99999,99999,99999,99999,99999,99999,99999,99999
13:25:40,1510457940,2017-11-12T03:39:04,0.755,645.5,10.76,8.12,12.18,834.140,2055.280,104.266670,31.19,2.5200,355,23729,1.90314,3.99,47865,,,,,,,,,,,,,,,,,,99999,99999,99999,99999,99999,99999,99999,99999,99999,99999,99999,99999
13:26:10,1510457970,2017-11-12T03:39:34,0.759,645.9,10.74,8.07,12.16,834.200,2055.220,106.816666,31.19,2.5201,355,23728,1.91248,3.99,47860,,,,,,,,,,,,,,,,,,99999,99999,99999,99999,99999,99999,99999,99999,99999,99999,99999,99999
13:26:40,1510458000,2017-11-12T03:40:04,0.754,646.3,10.72,8.07,12.18,834.140,2055.110,106.566666,31.18,2.5202,355,23731,1.90133,3.99,47856,,,,,,,,,,,,,,,,,,99999,99999,99999,99999,99999,99999,99999,99999,99999,99999,99999,99999
13:27:10,1510458030,2017-11-12T03:40:34,0.760,646.6,10.69,8.06,12.15,834.130,2054.980,106.766670,31.19,2.5203,355,23729,1.91640,3.99,47851,,,,,,,,,,,,,,,,,,99999,99999,99999,99999,99999,99999,99999,99999,99999,99999,99999,99999
13:27:40,1510458060,2017-11-12T03:41:04,0.758,647.0,10.69,8.02,12.10,834.290,2054.980,104.316666,31.12,2.5203,355,23728,1.91127,3.99,47846,,,,,,,,,,,,,,,,,,99999,99999,99999,99999,99999,99999,99999,99999,99999,99999,99999,99999
13:28:10,1510458090,2017-11-12T03:41:34,0.759,647.4,10.67,8.02,12.11,834.230,2054.950,104.883331,31.95,2.5204,355,23728,1.91187,3.99,47842,,,,,,,,,,,,,,,,,,99999,99999,99999,99999,99999,99999,99999,99999,99999,99999,99999,99999
13:28:40,1510458120,2017-11-12T03:42:04,0.760,647.8,10.66,8.00,12.10,834.270,2054.950,104.099998,31.69,2.5205,355,23730,1.91489,3.99,47837,,,,,,,,,,,,,,,,,,99999,99999,99999,99999,99999,99999,99999,99999,99999,99999,99999,99999
13:29:10,1510458150,2017-11-12T03:42:34,0.759,648.2,10.65,7.99,12.06,834.300,2054.880,105.816666,31.80,2.5205,355,23726,1.91428,3.99,47832,,,,,,,,,,,,,,,,,,99999,99999,99999,99999,99999,99999,99999,99999,99999,99999,99999,99999
13:29:40,1510458180,2017-11-12T03:43:04,0.761,648.5,10.62,7.97,12.05,834.280,2054.820,105.866669,32.17,2.5207,355,23727,1.91761,3.99,47828,,,,,,,,,,,,,,,,,,99999,99999,99999,99999,99999,99999,99999,99999,99999,99999,99999,99999
13:30:10,1510458210,2017-11-12T03:43:34,0.757,648.9,10.61,7.94,12.05,834.380,2054.710,105.633331,31.85,2.5206,355,23725,1.90826,3.99,47823,,,,,,,,,,,,,,,,,,99999,99999,99999,99999,99999,99999,99999,99999,99999,99999,99999,99999
13:30:40,1510458240,2017-11-12T03:44:04,0.762,649.3,10.59,7.93,11.98,834.380,2054.650,106.583336,31.89,2.5207,355,23725,1.91972,3.99,47819,,,,,,,,,,,,,,,,,,99999,99999,99999,99999,99999,99999,99999,99999,99999,99999,99999,99999
13:31:10,1510458270,2017-11-12T03:44:34,0.759,649.7,10.56,7.90,12.02,834.380,2054.550,106.516670,32.08,2.5209,355,23727,1.91217,3.99,47814,,,,,,,,,,,,,,,,,,99999,99999,99999,99999,99999,99999,99999,99999,99999,99999,99999,99999
13:31:40,1510458300,2017-11-12T03:45:04,0.761,650.0,10.54,7.89,11.97,834.350,2054.480,107.199997,32.14,2.5210,355,23724,1.91851,3.99,47809,,,,,,,,,,,,,,,,,,99999,99999,99999,99999,99999,99999,99999,99999,99999,99999,99999,99999
13:32:10,1510458330,2017-11-12T03:45:34,0.761,650.4,10.51,7.86,11.95,834.400,2054.420,105.833336,31.75,2.5212,355,23720,1.91791,3.99,47805,,,,,,,,,,,,,,,,,,99999,99999,99999,99999,99999,99999,99999,99999,99999,99999,99999,99999
13:32:40,1510458360,2017-11-12T03:46:04,0.757,650.8,10.48,7.83,11.90,834.380,2054.250,103.916664,32.17,2.5212,355,23719,1.90976,3.98,47800,,,,,,,,,,,,,,,,,,99999,99999,99999,99999,99999,99999,99999,99999,99999,99999,99999,99999
13:33:10,1510458390,2017-11-12T03:46:34,0.760,651.2,10.45,7.82,11.90,834.370,2054.150,105.233330,31.64,2.5214,355,23720,1.91610,3.98,47796,,,,,,,,,,,,,,,,,,99999,99999,99999,99999,99999,99999,99999,99999,99999,99999,99999,99999
13:33:40,1510458420,2017-11-12T03:47:04,0.752,651.6,10.44,7.77,11.87,834.450,2054.150,105.133331,32.03,2.5215,355,23720,1.89683,3.98,47791,,,,,,,,,,,,,,,,,,99999,99999,99999,99999,99999,99999,99999,99999,99999,99999,99999,99999
13:34:10,1510458450,2017-11-12T03:47:34,0.755,651.9,10.41,7.75,11.85,834.380,2054.030,104.349998,31.76,2.5216,355,23718,1.90494,3.98,47786,,,,,,,,,,,,,,,,,,99999,99999,99999,99999,99999,99999,99999,99999,99999,99999,99999,99999
13:34:40,1510458480,2017-11-12T03:48:04,0.754,652.3,10.39,7.74,11.84,834.440,2053.980,104.383331,31.69,2.5217,355,23720,1.90043,3.98,47782,,,,,,,,,,,,,,,,,,99999,99999,99999,99999,99999,99999,99999,99999,99999,99999,99999,99999
13:35:10,1510458510,2017-11-12T03:48:34,0.753,652.7,10.38,7.74,11.79,834.460,2053.980,104.383331,31.92,2.5218,355,23720,1.89803,3.98,47777,,,,,,,,,,,,,,,,,,99999,99999,99999,99999,99999,99999,99999,99999,99999,99999,99999,99999
13:35:40,1510458540,2017-11-12T03:49:04,0.753,653.1,10.36,7.72,11.79,834.380,2053.920,104.500000,31.14,2.5220,355,23719,1.89863,3.98,47773,,,,,,,,,,,,,,,,,,99999,99999,99999,99999,99999,99999,99999,99999,99999,99999,99999,99999
13:36:10,1510458570,2017-11-12T03:49:34,0.756,653.5,10.34,7.70,11.77,834.370,2053.820,105.883331,31.27,2.5220,355,23718,1.90615,3.98,47768,,,,,,,,,,,,,,,,,,99999,99999,99999,99999,99999,99999,99999,99999,99999,99999,99999,99999
13:36:40,1510458600,2017-11-12T03:50:04,0.754,653.8,10.34,7.68,11.76,834.390,2053.820,104.466667,31.15,2.5220,355,23717,1.90163,3.98,47763,,,,,,,,,,,,,,,,,,99999,99999,99999,99999,99999,99999,99999,99999,99999,99999,99999,99999
13:37:10,1510458630,2017-11-12T03:50:34,0.753,654.2,10.33,7.68,11.76,834.510,2053.750,105.016670,31.90,2.5220,355,23718,1.89983,3.98,47759,,,,,,,,,,,,,,,,,,99999,99999,99999,99999,99999,99999,99999,99999,99999,99999,99999,99999
13:37:40,1510458660,2017-11-12T03:51:04,0.760,654.6,10.32,7.67,11.71,834.550,2053.690,106.333336,31.52,2.5220,355,23717,1.91549,3.98,47754,,,,,,,,,,,,,,,,,,99999,99999,99999,99999,99999,99999,99999,99999,99999,99999,99999,99999
13:38:10,1510458690,2017-11-12T03:51:34,0.757,655.0,10.31,7.65,11.73,834.430,2053.690,103.949997,31.62,2.5221,355,23718,1.90976,3.98,47750,,,,,,,,,,,,,,,,,,99999,99999,99999,99999,99999,99999,99999,99999,99999,99999,99999,99999
13:38:40,1510458720,2017-11-12T03:52:04,0.752,655.3,10.30,7.65,11.76,834.540,2053.650,103.383331,31.78,2.5221,355,23717,1.89593,3.98,47745,,,,,,,,,,,,,,,,,,99999,99999,99999,99999,99999,99999,99999,99999,99999,99999,99999,99999
13:39:10,1510458750,2017-11-12T03:52:34,0.758,655.7,10.30,7.65,11.73,834.540,2053.650,106.300003,32.85,2.5221,355,23716,1.91278,3.98,47741,,,,,,,,,,,,,,,,,,99999,99999,99999,99999,99999,99999,99999,99999,99999,99999,99999,99999
13:39:40,1510458780,2017-11-12T03:53:04,0.760,656.1,10.29,7.61,11.71,834.540,2053.650,105.583336,31.96,2.5222,355,23717,1.91791,3.98,47736,,,,,,,,,,,,,,,,,,99999,99999,99999,99999,99999,99999,99999,99999,99999,99999,99999,99999
13:40:10,1510458810,2017-11-12T03:53:34,0.756,656.5,10.28,7.62,11.68,834.560,2053.590,105.733330,31.42,2.5223,355,23715,1.90585,3.98,47731,,,,,,,,,,,,,,,,,,99999,99999,99999,99999,99999,99999,99999,99999,99999,99999,99999,99999
13:40:40,1510458840,2017-11-12T03:54:04,0.758,656.9,10.27,7.62,11.68,834.600,2053.590,104.433334,31.80,2.5223,355,23717,1.91157,3.98,47727,,,,,,,,,,,,,,,,,,99999,99999,99999,99999,99999,99999,99999,99999,99999,99999,99999,99999
13:41:10,1510458870,2017-11-12T03:54:34,0.755,657.2,10.26,7.59,11.61,834.520,2053.530,105.583336,31.80,2.5224,355,23717,1.90494,3.98,47722,,,,,,,,,,,,,,,,,,99999,99999,99999,99999,99999,99999,99999,99999,99999,99999,99999,99999
13:41:40,1510458900,2017-11-12T03:55:04,0.755,657.6,10.26,7.59,11.69,834.540,2053.530,103.633331,32.13,2.5223,355,23716,1.90374,3.98,47718,,,,,,,,,,,,,,,,,,99999,99999,99999,99999,99999,99999,99999,99999,99999,99999,99999,99999
13:42:10,1510458930,2017-11-12T03:55:34,0.753,658.0,10.24,7.58,11.66,834.570,2053.480,104.550003,31.88,2.5225,355,23714,1.89953,3.98,47713,,,,,,,,,,,,,,,,,,99999,99999,99999,99999,99999,99999,99999,99999,99999,99999,99999,99999
13:42:40,1510458960,2017-11-12T03:56:04,0.757,658.4,10.23,7.55,11.65,834.540,2053.360,106.116669,31.67,2.5224,355,23717,1.91006,3.98,47708,,,,,,,,,,,,,,,,,,99999,99999,99999,99999,99999,99999,99999,99999,99999,99999,99999,99999
13:43:10,1510458990,2017-11-12T03:56:34,0.760,658.7,10.22,7.55,11.63,834.530,2053.360,105.849998,31.54,2.5225,355,23717,1.91700,3.98,47704,,,,,,,,,,,,,,,,,,99999,99999,99999,99999,99999,99999,99999,99999,99999,99999,99999,99999
13:43:40,1510459020,2017-11-12T03:57:04,0.759,659.1,10.21,7.56,11.63,834.550,2053.360,105.733330,31.60,2.5226,355,23712,1.91459,3.98,47699,,,,,,,,,,,,,,,,,,99999,99999,99999,99999,99999,99999,99999,99999,99999,99999,99999,99999
13:44:10,1510459050,2017-11-12T03:57:34,0.757,659.5,10.20,7.53,11.63,834.620,2053.300,105.550003,31.49,2.5226,355,23714,1.90946,3.98,47695,,,,,,,,,,,,,,,,,,99999,99999,99999,99999,99999,99999,99999,99999,99999,99999,99999,99999
13:44:40,1510459080,2017-11-12T03:58:04,0.755,659.9,10.19,7.50,11.61,834.620,2053.250,105.199997,31.72,2.5226,355,23715,1.90555,3.98,47690,,,,,,,,,,,,,,,,,,99999,99999,99999,99999,99999,99999,99999,99999,99999,99999,99999,99999
13:45:10,1510459110,2017-11-12T03:58:34,0.756,660.3,10.17,7.49,11.60,834.620,2053.190,104.150002,31.51,2.5228,355,23712,1.90795,3.98,47685,,,,,,,,,,,,,,,,,,99999,99999,99999,99999,99999,99999,99999,99999,99999,99999,99999,99999
13:45:40,1510459140,2017-11-12T03:59:04,0.759,660.6,10.15,7.49,11.56,834.620,2053.130,105.766670,31.42,2.5229,355,23712,1.91428,3.98,47681,,,,,,,,,,,,,,,,,,99999,99999,99999,99999,99999,99999,99999,99999,99999,99999,99999,99999
13:46:10,1510459170,2017-11-12T03:59:34,0.752,661.0,10.14,7.48,11.56,834.620,2053.130,104.050003,31.42,2.5230,355,23710,1.89683,3.98,47676,,,,,,,,,,,,,,,,,,99999,99999,99999,99999,99999,99999,99999,99999,99999,99999,99999,99999
13:46:40,1510459200,2017-11-12T04:00:04,0.753,661.4,10.12,7.44,11.53,834.600,2053.090,103.816666,31.64,2.5231,355,23710,1.89953,3.98,47672,,,,,,,,,,,,,,,,,,99999,99999,99999,99999,99999,99999,99999,99999,99999,99999,99999,99999
13:47:10,1510459230,2017-11-12T04:00:34,0.758,661.8,10.12,7.46,11.53,834.660,2053.090,103.733330,31.41,2.5231,355,23710,1.91338,3.98,47667,,,,,,,,,,,,,,,,,,99999,99999,99999,99999,99999,99999,99999,99999,99999,99999,99999,99999
13:47:40,1510459260,2017-11-12T04:01:04,0.751,662.1,10.10,7.44,11.55,834.660,2053.030,103.683334,31.54,2.5232,355,23710,1.89382,3.98,47662,,,,,,,,,,,,,,,,,,99999,99999,99999,99999,99999,99999,99999,99999,99999,99999,99999,99999
13:48:10,1510459290,2017-11-12T04:01:34,0.750,662.5,10.10,7.41,11.50,834.710,2053.030,102.866669,31.50,2.5232,355,23710,1.89292,3.98,47658,,,,,,,,,,,,,,,,,,99999,99999,99999,99999,99999,99999,99999,99999,99999,99999,99999,99999
13:48:40,1510459320,2017-11-12T04:02:04,0.754,662.9,10.07,7.40,11.48,834.750,2052.860,102.316666,31.41,2.5233,355,23709,1.90163,3.98,47653,,,,,,,,,,,,,,,,,,99999,99999,99999,99999,99999,99999,99999,99999,99999,99999,99999,99999
13:49:10,1510459350,2017-11-12T04:02:34,0.759,663.3,10.08,7.39,11.45,834.690,2052.920,105.349998,31.83,2.5232,355,23708,1.91610,3.98,47649,,,,,,,,,,,,,,,,,,99999,99999,99999,99999,99999,99999,99999,99999,99999,99999,99999,99999
13:49:40,1510459380,2017-11-12T04:03:04,0.752,663.7,10.06,7.37,11.48,834.700,2052.800,103.783333,31.75,2.5233,355,23708,1.89803,3.98,47644,,,,,,,,,,,,,,,,,,99999,99999,99999,99999,99999,99999,99999,99999,99999,99999,99999,99999
13:50:10,1510459410,2017-11-12T04:03:34,0.752,664.0,10.05,7.34,11.47,834.750,2052.800,102.133331,32.28,2.5233,355,23708,1.89773,3.98,47639,,,,,,,,,,,,,,,,,,99999,99999,99999,99999,99999,99999,99999,99999,99999,99999,99999,99999
13:50:40,1510459440,2017-11-12T04:04:04,0.759,664.4,10.04,7.36,11.47,834.760,2052.750,105.599998,32.84,2.5233,355,23710,1.91519,3.98,47635,,,,,,,,,,,,,,,,,,99999,99999,99999,99999,99999,99999,99999,99999,99999,99999,99999,99999
13:51:10,1510459470,2017-11-12T04:04:34,0.758,664.8,10.03,7.35,11.45,834.720,2052.750,105.400002,32.33,2.5234,355,23708,1.91278,3.98,47630,,,,,,,,,,,,,,,,,,99999,99999,99999,99999,99999,99999,99999,99999,99999,99999,99999,99999
13:51:40,1510459500,2017-11-12T04:05:04,0.752,665.2,10.02,7.34,11.42,834.700,2052.690,104.383331,32.36,2.5235,355,23705,1.89743,3.98,47626,,,,,,,,,,,,,,,,,,99999,99999,99999,99999,99999,99999,99999,99999,99999,99999,99999,99999
13:52:10,1510459530,2017-11-12T04:05:34,0.759,665.5,10.00,7.32,11.40,834.760,2052.630,106.349998,32.18,2.5236,355,23705,1.91428,3.98,47621,,,,,,,,,,,,,,,,,,99999,99999,99999,99999,99999,99999,99999,99999,99999,99999,99999,99999
13:52:40,1510459560,2017-11-12T04:06:04,0.753,665.9,9.99,7.32,11.39,834.760,2052.630,102.550003,32.40,2.5236,355,23706,1.89923,3.98,47617,,,,,,,,,,,,,,,,,,99999,99999,99999,99999,99999,99999,99999,99999,99999,99999,99999,99999
13:53:10,1510459590,2017-11-12T04:06:34,0.750,666.3,9.98,7.28,11.38,834.670,2052.560,103.800003,32.19,2.5237,355,23704,1.89203,3.98,47612,,,,,,,,,,,,,,,,,,99999,99999,99999,99999,99999,99999,99999,99999,99999,99999,99999,99999
13:53:40,1510459620,2017-11-12T04:07:04,0.750,666.7,9.97,7.28,11.38,834.750,2052.560,103.449997,31.69,2.5238,355,23703,1.89203,3.98,47607,,,,,,,,,,,,,,,,,,99999,99999,99999,99999,99999,99999,99999,99999,99999,99999,99999,99999
13:54:10,1510459650,2017-11-12T04:07:34,0.750,667.0,9.96,7.25,11.38,834.770,2052.460,103.483330,32.06,2.5237,355,23705,1.89322,3.98,47603,,,,,,,,,,,,,,,,,,99999,99999,99999,99999,99999,99999,99999,99999,99999,99999,99999,99999
13:54:40,1510459680,2017-11-12T04:08:04,0.755,667.4,9.93,7.25,11.34,834.720,2052.360,104.833336,32.73,2.5238,355,23705,1.90434,3.98,47598,,,,,,,,,,,,,,,,,,99999,99999,99999,99999,99999,99999,99999,99999,99999,99999,99999,99999
13:55:10,1510459710,2017-11-12T04:08:34,0.756,667.8,9.93,7.21,11.31,834.720,2052.360,105.533333,31.91,2.5239,355,23703,1.90916,3.98,47594,,,,,,,,,,,,,,,,,,99999,99999,99999,99999,99999,99999,99999,99999,99999,99999,99999,99999
13:55:40,1510459740,2017-11-12T04:09:04,0.757,668.2,9.91,7.23,11.32,834.760,2052.300,105.466667,32.30,2.5240,355,23702,1.91006,3.98,47589,,,,,,,,,,,,,,,,,,99999,99999,99999,99999,99999,99999,99999,99999,99999,99999,99999,99999
13:56:10,1510459770,2017-11-12T04:09:34,0.753,668.6,9.90,7.19,11.32,834.730,2052.230,103.750000,32.29,2.5240,355,23704,1.90133,3.98,47584,,,,,,,,,,,,,,,,,,99999,99999,99999,99999,99999,99999,99999,99999,99999,99999,99999,99999
13:56:40,1510459800,2017-11-12T04:10:04,0.750,668.9,9.89,7.17,11.29,834.700,2052.230,103.133331,32.02,2.5241,355,23704,1.89203,3.98,47580,,,,,,,,,,,,,,,,,,99999,99999,99999,99999,99999,99999,99999,99999,99999,99999,99999,99999
13:57:10,1510459830,2017-11-12T04:10:34,0.752,669.3,9.88,7.19,11.31,834.870,2052.230,103.949997,32.60,2.5241,355,23705,1.89863,3.98,47575,,,,,,,,,,,,,,,,,,99999,99999,99999,99999,99999,99999,99999,99999,99999,99999,99999,99999
13:57:40,1510459860,2017-11-12T04:11:04,0.755,669.7,9.85,7.16,11.31,834.880,2052.130,105.266670,32.40,2.5243,355,23703,1.90645,3.98,47571,,,,,,,,,,,,,,,,,,99999,99999,99999,99999,99999,99999,99999,99999,99999,99999,99999,99999
13:58:10,1510459890,2017-11-12T04:11:34,0.757,670.1,9.85,7.13,11.26,834.900,2052.130,105.033333,31.97,2.5243,355,23702,1.91187,3.98,47566,,,,,,,,,,,,,,,,,,99999,99999,99999,99999,99999,99999,99999,99999,99999,99999,99999,99999
13:58:40,1510459920,2017-11-12T04:12:04,0.757,670.4,9.82,7.11,11.23,834.860,2052.020,105.866669,32.09,2.5245,355,23702,1.91157,3.98,47561,,,,,,,,,,,,,,,,,,99999,99999,99999,99999,99999,99999,99999,99999,99999,99999,99999,99999
13:59:10,1510459950,2017-11-12T04:12:34,0.754,670.8,9.81,7.12,11.18,834.830,2051.960,105.199997,32.34,2.5245,355,23697,1.90344,3.98,47557,,,,,,,,,,,,,,,,,,99999,99999,99999,99999,99999,99999,99999,99999,99999,99999,99999,99999
13:59:40,1510459980,2017-11-12T04:13:04,0.749,671.2,9.80,7.09,11.23,834.910,2051.900,103.900002,31.74,2.5245,355,23699,1.89143,3.98,47552,,,,,,,,,,,,,,,,,,99999,99999,99999,99999,99999,99999,99999,99999,99999,99999,99999,99999
14:00:10,1510460010,2017-11-12T04:13:34,0.753,671.6,9.78,7.07,11.19,834.900,2051.860,104.533333,31.87,2.5246,355,23700,1.90163,3.98,47548,,,,,,,,,,,,,,,,,,99999,99999,99999,99999,99999,99999,99999,99999,99999,99999,99999,99999
14:00:40,1510460040,2017-11-12T04:14:04,0.753,671.9,9.76,7.08,11.19,834.870,2051.790,104.650002,32.44,2.5247,355,23698,1.90073,3.98,47543,,,,,,,,,,,,,,,,,,99999,99999,99999,99999,99999,99999,99999,99999,99999,99999,99999,99999
14:01:10,1510460070,2017-11-12T04:14:34,0.753,672.3,9.75,7.05,11.16,834.900,2051.790,103.599998,32.56,2.5248,355,23696,1.90013,3.98,47539,,,,,,,,,,,,,,,,,,99999,99999,99999,99999,99999,99999,99999,99999,99999,99999,99999,99999
14:01:40,1510460100,2017-11-12T04:15:04,0.751,672.7,9.73,7.04,11.16,834.910,2051.670,102.083336,32.91,2.5248,355,23697,1.89623,3.98,47534,,,,,,,,,,,,,,,,,,99999,99999,99999,99999,99999,99999,99999,99999,99999,99999,99999,99999
14:02:10,1510460130,2017-11-12T04:15:34,0.749,673.1,9.72,7.01,11.11,834.880,2051.670,102.933334,32.95,2.5249,355,23697,1.89173,3.98,47529,,,,,,,,,,,,,,,,,,99999,99999,99999,99999,99999,99999,99999,99999,99999,99999,99999,99999
14:02:40,1510460160,2017-11-12T04:16:04,0.757,673.5,9.71,6.99,11.10,834.880,2051.670,104.383331,31.62,2.5250,355,23697,1.91187,3.98,47525,,,,,,,,,,,,,,,,,,99999,99999,99999,99999,99999,99999,99999,99999,99999,99999,99999,99999
14:03:10,1510460190,2017-11-12T04:16:34,0.756,673.8,9.69,6.99,11.13,834.940,2051.500,105.266670,31.09,2.5250,355,23698,1.90826,3.98,47520,,,,,,,,,,,,,,,,,,99999,99999,99999,99999,99999,99999,99999,99999,99999,99999,99999,99999
14:03:40,1510460220,2017-11-12T04:17:04,0.750,674.2,9.69,6.98,11.09,834.940,2051.500,102.733330,32.27,2.5250,355,23695,1.89292,3.98,47516,,,,,,,,,,,,,,,,,,99999,99999,99999,99999,99999,99999,99999,99999,99999,99999,99999,99999
14:04:10,1510460250,2017-11-12T04:17:34,0.756,674.6,9.68,6.98,11.10,835.050,2051.500,104.783333,33.15,2.5250,355,23694,1.90946,3.98,47511,,,,,,,,,,,,,,,,,,99999,99999,99999,99999,99999,99999,99999,99999,99999,99999,99999,99999
14:04:40,1510460280,2017-11-12T04:18:04,0.753,675.0,9.68,6.97,11.06,835.020,2051.500,102.366669,33.39,2.5250,355,23696,1.90043,3.98,47507,,,,,,,,,,,,,,,,,,99999,99999,99999,99999,99999,99999,99999,99999,99999,99999,99999,99999
14:05:10,1510460310,2017-11-12T04:18:34,0.756,675.3,9.68,6.97,11.06,835.050,2051.500,104.416664,33.32,2.5250,355,23694,1.90765,3.98,47502,,,,,,,,,,,,,,,,,,99999,99999,99999,99999,99999,99999,99999,99999,99999,99999,99999,99999
14:05:40,1510460340,2017-11-12T04:19:04,0.758,675.7,9.67,6.98,11.09,835.130,2051.460,104.433334,33.31,2.5251,355,23695,1.91338,3.98,47497,,,,,,,,,,,,,,,,,,99999,99999,99999,99999,99999,99999,99999,99999,99999,99999,99999,99999
14:06:10,1510460370,2017-11-12T04:19:34,0.750,676.1,9.66,6.96,11.06,834.940,2051.460,104.283333,33.52,2.5251,355,23697,1.89353,3.98,47493,,,,,,,,,,,,,,,,,,99999,99999,99999,99999,99999,99999,99999,99999,99999,99999,99999,99999
14:06:40,1510460400,2017-11-12T04:20:04,0.750,676.5,9.65,6.94,11.03,835.000,2051.400,102.949997,32.58,2.5252,355,23695,1.89322,3.98,47488,,,,,,,,,,,,,,,,,,99999,99999,99999,99999,99999,99999,99999,99999,99999,99999,99999,99999
14:07:10,1510460430,2017-11-12T04:20:34,0.754,676.8,9.64,6.94,11.05,835.080,2051.400,103.650002,33.08,2.5253,355,23693,1.90404,3.98,47484,,,,,,,,,,,,,,,,,,99999,99999,99999,99999,99999,99999,99999,99999,99999,99999,99999,99999
14:07:40,1510460460,2017-11-12T04:21:04,0.754,677.2,9.63,6.91,11.03,834.930,2051.330,104.866669,33.29,2.5253,355,23693,1.90524,3.98,47479,,,,,,,,,,,,,,,,,,99999,99999,99999,99999,99999,99999,99999,99999,99999,99999,99999,99999
14:08:10,1510460490,2017-11-12T04:21:34,0.757,677.6,9.61,6.91,11.00,834.910,2051.290,105.133331,33.11,2.5254,355,23696,1.91067,3.98,47475,,,,,,,,,,,,,,,,,,99999,99999,99999,99999,99999,99999,99999,99999,99999,99999,99999,99999
14:08:40,1510460520,2017-11-12T04:22:04,0.749,678.0,9.61,6.90,11.02,834.990,2051.290,102.283333,33.34,2.5254,355,23696,1.89143,3.98,47470,,,,,,,,,,,,,,,,,,99999,99999,99999,99999,99999,99999,99999,99999,99999,99999,99999,99999
14:09:10,1510460550,2017-11-12T04:22:34,0.751,678.3,9.60,6.87,11.02,835.010,2051.290,104.050003,33.35,2.5255,355,23695,1.89623,3.98,47465,,,,,,,,,,,,,,,,,,99999,99999,99999,99999,99999,99999,99999,99999,99999,99999,99999,99999
14:09:40,1510460580,2017-11-12T04:23:04,0.751,678.7,9.58,6.87,10.97,835.020,2051.230,103.883331,33.45,2.5256,355,23690,1.89683,3.98,47461,,,,,,,,,,,,,,,,,,99999,99999,99999,99999,99999,99999,99999,99999,99999,99999,99999,99999
14:10:10,1510460610,2017-11-12T04:23:34,0.754,679.1,9.57,6.84,10.98,835.050,2051.130,104.466667,33.02,2.5256,355,23693,1.90434,3.98,47456,,,,,,,,,,,,,,,,,,99999,99999,99999,99999,99999,99999,99999,99999,99999,99999,99999,99999
14:10:40,1510460640,2017-11-12T04:24:04,0.748,679.5,9.54,6.86,10.95,835.030,2051.000,102.633331,32.81,2.5257,355,23694,1.89023,3.98,47452,,,,,,,,,,,,,,,,,,99999,99999,99999,99999,99999,99999,99999,99999,99999,99999,99999,99999
14:11:10,1510460670,2017-11-12T04:24:34,0.749,679.9,9.53,6.83,10.92,835.050,2051.000,103.949997,33.75,2.5257,355,23689,1.89143,3.98,47447,,,,,,,,,,,,,,,,,,99999,99999,99999,99999,99999,99999,99999,99999,99999,99999,99999,99999
14:11:40,1510460700,2017-11-12T04:25:04,0.751,680.2,9.52,6.81,10.92,835.000,2050.960,104.699997,32.87,2.5258,355,23691,1.89803,3.98,47443,,,,,,,,,,,,,,,,,,99999,99999,99999,99999,99999,99999,99999,99999,99999,99999,99999,99999
14:12:10,1510460730,2017-11-12T04:25:34,0.755,680.6,9.49,6.77,10.89,835.040,2050.900,104.349998,33.59,2.5260,355,23691,1.90705,3.98,47438,,,,,,,,,,,,,,,,,,99999,99999,99999,99999,99999,99999,99999,99999,99999,99999,99999,99999
14:12:40,1510460760,2017-11-12T04:26:04,0.754,681.0,9.47,6.80,10.90,835.070,2050.830,102.483330,33.86,2.5261,355,23690,1.90374,3.98,47433,,,,,,,,,,,,,,,,,,99999,99999,99999,99999,99999,99999,99999,99999,99999,99999,99999,99999
14:13:10,1510460790,2017-11-12T04:26:34,0.750,681.4,9.45,6.75,10.89,835.050,2050.770,101.566666,34.14,2.5261,355,23688,1.89532,3.98,47429,,,,,,,,,,,,,,,,,,99999,99999,99999,99999,99999,99999,99999,99999,99999,99999,99999,99999
14:13:40,1510460820,2017-11-12T04:27:04,0.749,681.7,9.42,6.74,10.84,835.050,2050.610,102.933334,34.11,2.5262,355,23691,1.89143,3.98,47424,,,,,,,,,,,,,,,,,,99999,99999,99999,99999,99999,99999,99999,99999,99999,99999,99999,99999
14:14:10,1510460850,2017-11-12T04:27:34,0.749,682.1,9.41,6.73,10.84,835.080,2050.560,103.949997,34.33,2.5262,355,23688,1.89322,3.98,47420,,,,,,,,,,,,,,,,,,99999,99999,99999,99999,99999,99999,99999,99999,99999,99999,99999,99999
14:14:40,1510460880,2017-11-12T04:28:04,0.747,682.5,9.39,6.70,10.84,835.110,2050.500,103.916664,33.79,2.5264,355,23689,1.88753,3.98,47415,,,,,,,,,,,,,,,,,,99999,99999,99999,99999,99999,99999,99999,99999,99999,99999,99999,99999
14:15:10,1510460910,2017-11-12T04:28:34,0.752,682.9,9.36,6.69,10.81,835.100,2050.400,103.366669,33.46,2.5265,355,23687,1.89953,3.98,47411,,,,,,,,,,,,,,,,,,99999,99999,99999,99999,99999,99999,99999,99999,99999,99999,99999,99999
14:15:40,1510460940,2017-11-12T04:29:04,0.750,683.2,9.35,6.68,10.80,835.180,2050.400,103.633331,33.05,2.5267,355,23685,1.89382,3.98,47406,,,,,,,,,,,,,,,,,,99999,99999,99999,99999,99999,99999,99999,99999,99999,99999,99999,99999
14:16:10,1510460970,2017-11-12T04:29:34,0.752,683.6,9.33,6.67,10.76,835.150,2050.330,104.349998,33.67,2.5267,355,23686,1.90043,3.98,47401,,,,,,,,,,,,,,,,,,99999,99999,99999,99999,99999,99999,99999,99999,99999,99999,99999,99999
14:16:40,1510461000,2017-11-12T04:30:04,0.747,684.0,9.31,6.65,10.76,835.130,2050.230,102.666664,34.26,2.5267,355,23685,1.88663,3.97,47397,,,,,,,,,,,,,,,,,,99999,99999,99999,99999,99999,99999,99999,99999,99999,99999,99999,99999
14:17:10,1510461030,2017-11-12T04:30:34,0.752,684.4,9.29,6.63,10.74,835.140,2050.160,102.550003,34.60,2.5268,355,23685,1.89983,3.97,47392,,,,,,,,,,,,,,,,,,99999,99999,99999,99999,99999,99999,99999,99999,99999,99999,99999,99999
14:17:40,1510461060,2017-11-12T04:31:04,0.746,684.7,9.26,6.60,10.69,835.090,2050.060,102.216667,34.53,2.5270,355,23684,1.88454,3.97,47388,,,,,,,,,,,,,,,,,,99999,99999,99999,99999,99999,99999,99999,99999,99999,99999,99999,99999
14:18:10,1510461090,2017-11-12T04:31:34,0.747,685.1,9.24,6.56,10.68,835.150,2050.000,102.750000,34.33,2.5271,355,23684,1.88753,3.97,47383,,,,,,,,,,,,,,,,,,99999,99999,99999,99999,99999,99999,99999,99999,99999,99999,99999,99999
14:18:40,1510461120,2017-11-12T04:32:04,0.754,685.5,9.22,6.57,10.68,835.130,2049.940,103.583336,34.38,2.5272,355,23684,1.90524,3.97,47379,,,,,,,,,,,,,,,,,,99999,99999,99999,99999,99999,99999,99999,99999,99999,99999,99999,99999
14:19:10,1510461150,2017-11-12T04:32:34,0.752,685.9,9.19,6.55,10.61,835.110,2049.770,104.933334,34.47,2.5273,355,23682,1.89953,3.97,47374,,,,,,,,,,,,,,,,,,99999,99999,99999,99999,99999,99999,99999,99999,99999,99999,99999,99999
14:19:40,1510461180,2017-11-12T04:33:04,0.753,686.2,9.17,6.53,10.61,835.240,2049.730,103.933334,34.42,2.5274,355,23680,1.90434,3.97,47370,,,,,,,,,,,,,,,,,,99999,99999,99999,99999,99999,99999,99999,99999,99999,99999,99999,99999
14:20:10,1510461210,2017-11-12T04:33:34,0.752,686.6,9.14,6.50,10.56,835.170,2049.660,102.433334,34.45,2.5276,355,23680,1.90103,3.97,47365,,,,,,,,,,,,,,,,,,99999,99999,99999,99999,99999,99999,99999,99999,99999,99999,99999,99999
14:20:40,1510461240,2017-11-12T04:34:04,0.754,687.0,9.11,6.48,10.59,835.200,2049.540,103.933334,34.47,2.5277,355,23681,1.90464,3.97,47360,,,,,,,,,,,,,,,,,,99999,99999,99999,99999,99999,99999,99999,99999,99999,99999,99999,99999
14:21:10,1510461270,2017-11-12T04:34:34,0.748,687.4,9.09,6.47,10.55,835.180,2049.500,102.349998,34.58,2.5278,355,23680,1.89143,3.97,47356,,,,,,,,,,,,,,,,,,99999,99999,99999,99999,99999,99999,99999,99999,99999,99999,99999,99999
14:21:40,1510461300,2017-11-12T04:35:04,0.750,687.7,9.08,6.46,10.52,835.270,2049.500,102.133331,34.42,2.5279,355,23681,1.89532,3.97,47351,,,,,,,,,,,,,,,,,,99999,99999,99999,99999,99999,99999,99999,99999,99999,99999,99999,99999
14:22:10,1510461330,2017-11-12T04:35:34,0.752,688.1,9.07,6.42,10.51,835.240,2049.440,103.583336,34.36,2.5279,355,23681,1.90193,3.97,47347,,,,,,,,,,,,,,,,,,99999,99999,99999,99999,99999,99999,99999,99999,99999,99999,99999,99999
14:22:40,1510461360,2017-11-12T04:36:04,0.747,688.5,9.04,6.41,10.45,835.220,2049.270,103.150002,34.47,2.5280,355,23678,1.88813,3.97,47342,,,,,,,,,,,,,,,,,,99999,99999,99999,99999,99999,99999,99999,99999,99999,99999,99999,99999
14:23:10,1510461390,2017-11-12T04:36:34,0.752,688.9,9.02,6.38,10.45,835.220,2049.210,104.066666,34.44,2.5281,355,23679,1.90133,3.97,47338,,,,,,,,,,,,,,,,,,99999,99999,99999,99999,99999,99999,99999,99999,99999,99999,99999,99999
14:23:40,1510461420,2017-11-12T04:37:04,0.749,689.2,9.01,6.36,10.45,835.230,2049.210,102.300003,34.44,2.5282,355,23677,1.89292,3.97,47333,,,,,,,,,,,,,,,,,,99999,99999,99999,99999,99999,99999,99999,99999,99999,99999,99999,99999
14:24:10,1510461450,2017-11-12T04:37:34,0.752,689.6,8.99,6.38,10.45,835.210,2049.160,103.349998,34.47,2.5283,355,23678,1.90043,3.97,47328,,,,,,,,,,,,,,,,,,99999,99999,99999,99999,99999,99999,99999,99999,99999,99999,99999,99999
14:24:40,1510461480,2017-11-12T04:38:04,0.752,690.0,8.97,6.34,10.42,835.260,2049.100,104.533333,34.51,2.5284,355,23679,1.90013,3.97,47324,,,,,,,,,,,,,,,,,,99999,99999,99999,99999,99999,99999,99999,99999,99999,99999,99999,99999
14:25:10,1510461510,2017-11-12T04:38:34,0.746,690.4,8.96,6.34,10.39,835.310,2049.040,101.550003,34.42,2.5284,355,23676,1.88574,3.97,47319,,,,,,,,,,,,,,,,,,99999,99999,99999,99999,99999,99999,99999,99999,99999,99999,99999,99999
14:25:40,1510461540,2017-11-12T04:39:04,0.749,690.7,8.95,6.33,10.40,835.260,2049.040,104.400002,34.52,2.5285,355,23679,1.89382,3.97,47315,,,,,,,,,,,,,,,,,,99999,99999,99999,99999,99999,99999,99999,99999,99999,99999,99999,99999
14:26:10,1510461570,2017-11-12T04:39:34,0.752,691.1,8.94,6.31,10.36,835.250,2048.870,104.166664,34.50,2.5284,355,23677,1.90223,3.97,47310,,,,,,,,,,,,,,,,,,99999,99999,99999,99999,99999,99999,99999,99999,99999,99999,99999,99999
14:26:40,1510461600,2017-11-12T04:40:04,0.748,691.5,8.94,6.32,10.38,835.250,2048.870,104.116669,34.56,2.5284,355,23676,1.89173,3.97,47306,,,,,,,,,,,,,,,,,,99999,99999,99999,99999,99999,99999,99999,99999,99999,99999,99999,99999
14:27:10,1510461630,2017-11-12T04:40:34,0.745,691.9,8.92,6.30,10.39,835.270,2048.870,103.099998,34.67,2.5286,355,23677,1.88275,3.97,47301,,,,,,,,,,,,,,,,,,99999,99999,99999,99999,99999,99999,99999,99999,99999,99999,99999,99999
14:27:40,1510461660,2017-11-12T04:41:04,0.744,692.2,8.92,6.31,10.34,835.250,2048.870,103.033333,34.67,2.5286,355,23676,1.88185,3.97,47297,,,,,,,,,,,,,,,,,,99999,99999,99999,99999,99999,99999,99999,99999,99999,99999,99999,99999
14:28:10,1510461690,2017-11-12T04:41:34,0.742,692.6,8.92,6.29,10.36,835.330,2048.870,103.116669,34.71,2.5286,355,23675,1.87707,3.97,47292,,,,,,,,,,,,,,,,,,99999,99999,99999,99999,99999,99999,99999,99999,99999,99999,99999,99999
14:28:40,1510461720,2017-11-12T04:42:04,0.746,693.0,8.90,6.29,10.34,835.230,2048.770,101.833336,34.67,2.5286,355,23678,1.88604,3.97,47288,,,,,,,,,,,,,,,,,,99999,99999,99999,99999,99999,99999,99999,99999,99999,99999,99999,99999
14:29:10,1510461750,2017-11-12T04:42:34,0.753,693.3,8.90,6.29,10.32,835.310,2048.770,103.383331,34.89,2.5286,355,23677,1.90284,3.97,47283,,,,,,,,,,,,,,,,,,99999,99999,99999,99999,99999,99999,99999,99999,99999,99999,99999,99999
14:29:40,1510461780,2017-11-12T04:43:04,0.745,693.7,8.89,6.28,10.31,835.280,2048.770,102.566666,35.03,2.5287,355,23674,1.88454,3.97,47278,,,,,,,,,,,,,,,,,,99999,99999,99999,99999,99999,99999,99999,99999,99999,99999,99999,99999
14:30:10,1510461810,2017-11-12T04:43:34,0.753,694.1,8.89,6.27,10.32,835.360,2048.770,104.116669,35.31,2.5287,355,23675,1.90344,3.97,47274,,,,,,,,,,,,,,,,,,99999,99999,99999,99999,99999,99999,99999,99999,99999,99999,99999,99999
14:30:40,1510461840,2017-11-12T04:44:04,0.744,694.5,8.88,6.25,10.32,835.310,2048.770,101.066666,35.54,2.5288,355,23676,1.88245,3.97,47269,,,,,,,,,,,,,,,,,,99999,99999,99999,99999,99999,99999,99999,99999,99999,99999,99999,99999
14:31:10,1510461870,2017-11-12T04:44:34,0.751,694.8,8.88,6.23,10.32,835.360,2048.770,103.933334,35.45,2.5288,355,23676,1.89833,3.97,47265,,,,,,,,,,,,,,,,,,99999,99999,99999,99999,99999,99999,99999,99999,99999,99999,99999,99999
14:31:40,1510461900,2017-11-12T04:45:04,0.750,695.2,8.86,6.24,10.30,835.340,2048.660,103.183334,35.58,2.5288,355,23674,1.89563,3.97,47260,,,,,,,,,,,,,,,,,,99999,99999,99999,99999,99999,99999,99999,99999,99999,99999,99999,99999
14:32:10,1510461930,2017-11-12T04:45:34,0.746,695.6,8.85,6.19,10.30,835.390,2048.660,100.433334,35.26,2.5289,355,23676,1.88604,3.97,47256,,,,,,,,,,,,,,,,,,99999,99999,99999,99999,99999,99999,99999,99999,99999,99999,99999,99999
14:32:40,1510461960,2017-11-12T04:46:04,0.744,696.0,8.84,6.20,10.27,835.370,2048.660,101.949997,35.42,2.5290,355,23673,1.88095,3.97,47251,,,,,,,,,,,,,,,,,,99999,99999,99999,99999,99999,99999,99999,99999,99999,99999,99999,99999
14:33:10,1510461990,2017-11-12T04:46:34,0.748,696.3,8.83,6.19,10.26,835.370,2048.600,101.133331,35.26,2.5290,355,23673,1.89173,3.97,47247,,,,,,,,,,,,,,,,,,99999,99999,99999,99999,99999,99999,99999,99999,99999,99999,99999,99999
14:33:40,1510462020,2017-11-12T04:47:04,0.746,696.7,8.81,6.18,10.24,835.370,2048.540,103.116669,35.58,2.5291,355,23671,1.88574,3.97,47242,,,,,,,,,,,,,,,,,,99999,99999,99999,99999,99999,99999,99999,99999,99999,99999,99999,99999
14:34:10,1510462050,2017-11-12T04:47:34,0.749,697.1,8.79,6.17,10.23,835.330,2048.440,103.183334,35.68,2.5292,355,23671,1.89442,3.97,47237,,,,,,,,,,,,,,,,,,99999,99999,99999,99999,99999,99999,99999,99999,99999,99999,99999,99999
14:34:40,1510462080,2017-11-12T04:48:04,0.746,697.5,8.79,6.14,10.23,835.360,2048.440,103.166664,35.59,2.5292,355,23673,1.88634,3.97,47233,,,,,,,,,,,,,,,,,,99999,99999,99999,99999,99999,99999,99999,99999,99999,99999,99999,99999
14:35:10,1510462110,2017-11-12T04:48:34,0.747,697.8,8.77,6.13,10.23,835.360,2048.370,101.949997,35.43,2.5293,355,23670,1.89023,3.97,47228,,,,,,,,,,,,,,,,,,99999,99999,99999,99999,99999,99999,99999,99999,99999,99999,99999,99999
14:35:40,1510462140,2017-11-12T04:49:04,0.744,698.2,8.76,6.12,10.19,835.360,2048.330,101.750000,35.73,2.5293,355,23669,1.88215,3.97,47224,,,,,,,,,,,,,,,,,,99999,99999,99999,99999,99999,99999,99999,99999,99999,99999,99999,99999
14:36:10,1510462170,2017-11-12T04:49:34,0.745,698.6,8.73,6.09,10.19,835.340,2048.210,102.983330,35.92,2.5294,355,23671,1.88424,3.97,47219,,,,,,,,,,,,,,,,,,99999,99999,99999,99999,99999,99999,99999,99999,99999,99999,99999,99999
14:36:40,1510462200,2017-11-12T04:50:04,0.745,699.0,8.71,6.08,10.18,835.430,2048.210,101.616669,36.01,2.5296,355,23669,1.88574,3.97,47215,,,,,,,,,,,,,,,,,,99999,99999,99999,99999,99999,99999,99999,99999,99999,99999,99999,99999
14:37:10,1510462230,2017-11-12T04:50:34,0.748,699.3,8.70,6.06,10.13,835.400,2048.140,103.083336,36.07,2.5296,355,23669,1.89233,3.97,47210,,,,,,,,,,,,,,,,,,99999,99999,99999,99999,99999,99999,99999,99999,99999,99999,99999,99999
14:37:40,1510462260,2017-11-12T04:51:04,0.751,699.7,8.68,6.05,10.16,835.480,2048.100,104.183334,36.09,2.5297,355,23670,1.89923,3.97,47206,,,,,,,,,,,,,,,,,,99999,99999,99999,99999,99999,99999,99999,99999,99999,99999,99999,99999
14:38:10,1510462290,2017-11-12T04:51:34,0.749,700.1,8.67,6.04,10.11,835.430,2047.980,103.916664,36.09,2.5297,355,23669,1.89563,3.97,47201,,,,,,,,,,,,,,,,,,99999,99999,99999,99999,99999,99999,99999,99999,99999,99999,99999,99999
14:38:40,1510462320,2017-11-12T04:52:04,0.743,700.5,8.64,6.03,10.06,835.420,2047.940,101.750000,36.25,2.5299,355,23666,1.88095,3.97,47197,,,,,,,,,,,,,,,,,,99999,99999,99999,99999,99999,99999,99999,99999,99999,99999,99999,99999
14:39:10,1510462350,2017-11-12T04:52:34,0.749,700.8,8.63,6.00,10.10,835.440,2047.870,102.633331,35.95,2.5299,355,23667,1.89563,3.97,47192,,,,,,,,,,,,,,,,,,99999,99999,99999,99999,99999,99999,99999,99999,99999,99999,99999,99999
14:39:40,1510462380,2017-11-12T04:53:04,0.744,701.2,8.62,5.98,10.05,835.530,2047.870,101.599998,35.59,2.5300,355,23666,1.88275,3.97,47187,,,,,,,,,,,,,,,,,,99999,99999,99999,99999,99999,99999,99999,99999,99999,99999,99999,99999
14:40:10,1510462410,2017-11-12T04:53:34,0.750,701.6,8.60,5.96,10.05,835.420,2047.810,103.016670,35.55,2.5301,355,23666,1.89743,3.97,47183,,,,,,,,,,,,,,,,,,99999,99999,99999,99999,99999,99999,99999,99999,99999,99999,99999,99999
14:40:40,1510462440,2017-11-12T04:54:04,0.750,701.9,8.60,5.96,10.01,835.530,2047.810,102.633331,35.35,2.5302,355,23665,1.89653,3.97,47178,,,,,,,,,,,,,,,,,,99999,99999,99999,99999,99999,99999,99999,99999,99999,99999,99999,99999
14:41:10,1510462470,2017-11-12T04:54:34,0.751,702.3,8.58,5.97,10.01,835.480,2047.770,102.949997,35.52,2.5303,355,23664,1.90133,3.97,47174,,,,,,,,,,,,,,,,,,99999,99999,99999,99999,99999,99999,99999,99999,99999,99999,99999,99999
14:41:40,1510462500,2017-11-12T04:55:04,0.745,702.7,8.58,5.95,10.01,835.510,2047.770,101.333336,35.33,2.5303,355,23663,1.88604,3.97,47169,,,,,,,,,,,,,,,,,,99999,99999,99999,99999,99999,99999,99999,99999,99999,99999,99999,99999
14:42:10,1510462530,2017-11-12T04:55:34,0.749,703.1,8.58,5.95,9.98,835.510,2047.770,102.566666,35.14,2.5303,355,23667,1.89623,3.97,47165,,,,,,,,,,,,,,,,,,99999,99999,99999,99999,99999,99999,99999,99999,99999,99999,99999,99999
14:42:40,1510462560,2017-11-12T04:56:04,0.742,703.4,8.58,5.95,10.02,835.510,2047.770,101.783333,35.59,2.5303,355,23661,1.87677,3.97,47160,,,,,,,,,,,,,,,,,,99999,99999,99999,99999,99999,99999,99999,99999,99999,99999,99999,99999
14:43:10,1510462590,2017-11-12T04:56:34,0.750,703.8,8.57,5.96,9.98,835.510,2047.710,102.900002,35.75,2.5303,355,23664,1.89713,3.97,47156,,,,,,,,,,,,,,,,,,99999,99999,99999,99999,99999,99999,99999,99999,99999,99999,99999,99999
14:43:40,1510462620,2017-11-12T04:57:04,0.748,704.2,8.57,5.95,10.01,835.510,2047.710,102.699997,35.78,2.5303,355,23664,1.89173,3.97,47151,,,,,,,,,,,,,,,,,,99999,99999,99999,99999,99999,99999,99999,99999,99999,99999,99999,99999
14:44:10,1510462650,2017-11-12T04:57:34,0.742,704.6,8.57,5.95,9.97,835.510,2047.710,101.550003,35.12,2.5303,355,23664,1.87856,3.97,47147,,,,,,,,,,,,,,,,,,99999,99999,99999,99999,99999,99999,99999,99999,99999,99999,99999,99999
14:44:40,1510462680,2017-11-12T04:58:04,0.746,704.9,8.57,5.96,9.98,835.460,2047.710,102.366669,35.42,2.5303,355,23662,1.88693,3.97,47142,,,,,,,,,,,,,,,,,,99999,99999,99999,99999,99999,99999,99999,99999,99999,99999,99999,99999
14:45:10,1510462710,2017-11-12T04:58:34,0.751,705.3,8.57,5.95,9.97,835.530,2047.710,103.083336,35.63,2.5303,355,23665,1.90043,3.97,47138,,,,,,,,,,,,,,,,,,99999,99999,99999,99999,99999,99999,99999,99999,99999,99999,99999,99999
14:45:40,1510462740,2017-11-12T04:59:04,0.743,705.7,8.58,5.93,10.01,835.480,2047.770,100.766670,35.43,2.5303,355,23663,1.87946,3.97,47133,,,,,,,,,,,,,,,,,,99999,99999,99999,99999,99999,99999,99999,99999,99999,99999,99999,99999
14:46:10,1510462770,2017-11-12T04:59:34,0.750,706.1,8.57,5.92,9.95,835.480,2047.710,103.583336,35.37,2.5303,355,23665,1.89713,3.97,47129,,,,,,,,,,,,,,,,,,99999,99999,99999,99999,99999,99999,99999,99999,99999,99999,99999,99999
14:46:40,1510462800,2017-11-12T05:00:04,0.745,706.4,8.59,5.93,9.98,835.500,2047.770,102.683334,35.40,2.5302,355,23664,1.88454,3.97,47124,,,,,,,,,,,,,,,,,,99999,99999,99999,99999,99999,99999,99999,99999,99999,99999,99999,99999
14:47:10,1510462830,2017-11-12T05:00:34,0.744,706.8,8.58,5.93,9.98,835.480,2047.770,99.483330,35.50,2.5303,355,23663,1.88245,3.97,47119,,,,,,,,,,,,,,,,,,99999,99999,99999,99999,99999,99999,99999,99999,99999,99999,99999,99999
14:47:40,1510462860,2017-11-12T05:01:04,0.751,707.2,8.59,5.91,9.98,835.530,2047.770,101.633331,35.96,2.5302,355,23664,1.89983,3.97,47115,,,,,,,,,,,,,,,,,,99999,99999,99999,99999,99999,99999,99999,99999,99999,99999,99999,99999
14:48:10,1510462890,2017-11-12T05:01:34,0.743,707.5,8.59,5.92,10.02,835.580,2047.770,99.966667,35.86,2.5302,355,23665,1.88095,3.97,47110,,,,,,,,,,,,,,,,,,99999,99999,99999,99999,99999,99999,99999,99999,99999,99999,99999,99999
14:48:40,1510462920,2017-11-12T05:02:04,0.745,707.9,8.59,5.91,10.01,835.500,2047.770,100.516670,35.98,2.5302,355,23665,1.88424,3.97,47106,,,,,,,,,,,,,,,,,,99999,99999,99999,99999,99999,99999,99999,99999,99999,99999,99999,99999
14:49:10,1510462950,2017-11-12T05:02:34,0.743,708.3,8.59,5.90,10.03,835.560,2047.770,100.300003,36.43,2.5301,355,23665,1.87976,3.97,47101,,,,,,,,,,,,,,,,,,99999,99999,99999,99999,99999,99999,99999,99999,99999,99999,99999,99999
14:49:40,1510462980,2017-11-12T05:03:04,0.743,708.7,8.59,5.93,9.98,835.530,2047.770,102.400002,36.29,2.5301,355,23663,1.88095,3.97,47097,,,,,,,,,,,,,,,,,,99999,99999,99999,99999,99999,99999,99999,99999,99999,99999,99999,99999
14:50:10,1510463010,2017-11-12T05:03:34,0.748,709.0,8.59,5.92,9.98,835.500,2047.770,102.849998,35.89,2.5302,355,23663,1.89292,3.97,47092,,,,,,,,,,,,,,,,,,99999,99999,99999,99999,99999,99999,99999,99999,99999,99999,99999,99999
14:50:40,1510463040,2017-11-12T05:04:04,0.752,709.4,8.58,5.90,9.98,835.510,2047.770,102.550003,36.59,2.5302,355,23664,1.90254,3.97,47088,,,,,,,,,,,,,,,,,,99999,99999,99999,99999,99999,99999,99999,99999,99999,99999,99999,99999
14:51:10,1510463070,2017-11-12T05:04:34,0.750,709.8,8.59,5.91,10.01,835.580,2047.770,102.816666,36.35,2.5301,355,23664,1.89713,3.97,47083,,,,,,,,,,,,,,,,,,99999,99999,99999,99999,99999,99999,99999,99999,99999,99999,99999,99999
14:51:40,1510463100,2017-11-12T05:05:04,0.741,710.2,8.58,5.88,10.01,835.480,2047.770,101.500000,36.29,2.5302,355,23663,1.87588,3.97,47079,,,,,,,,,,,,,,,,,,99999,99999,99999,99999,99999,99999,99999,99999,99999,99999,99999,99999
14:52:10,1510463130,2017-11-12T05:05:34,0.744,710.5,8.57,5.89,10.01,835.560,2047.710,101.333336,36.14,2.5303,355,23664,1.88304,3.97,47074,,,,,,,,,,,,,,,,,,99999,99999,99999,99999,99999,99999,99999,99999,99999,99999,99999,99999
14:52:40,1510463160,2017-11-12T05:06:04,0.743,710.9,8.56,5.86,9.95,835.560,2047.640,102.016670,36.07,2.5303,355,23663,1.88006,3.97,47070,,,,,,,,,,,,,,,,,,99999,99999,99999,99999,99999,99999,99999,99999,99999,99999,99999,99999
14:53:10,1510463190,2017-11-12T05:06:34,0.750,711.3,8.56,5.86,9.95,835.540,2047.640,103.599998,36.36,2.5303,355,23663,1.89863,3.97,47065,,,,,,,,,,,,,,,,,,99999,99999,99999,99999,99999,99999,99999,99999,99999,99999,99999,99999
14:53:40,1510463220,2017-11-12T05:07:04,0.743,711.7,8.56,5.88,9.95,835.540,2047.640,102.816666,36.52,2.5302,355,23662,1.88065,3.97,47060,,,,,,,,,,,,,,,,,,99999,99999,99999,99999,99999,99999,99999,99999,99999,99999,99999,99999
14:54:10,1510463250,2017-11-12T05:07:34,0.748,712.0,8.55,5.86,9.94,835.540,2047.640,102.133331,37.05,2.5303,355,23664,1.89263,3.97,47056,,,,,,,,,,,,,,,,,,99999,99999,99999,99999,99999,99999,99999,99999,99999,99999,99999,99999
14:54:40,1510463280,2017-11-12T05:08:04,0.747,712.4,8.53,5.83,9.92,835.520,2047.540,103.666664,37.15,2.5304,355,23660,1.88933,3.97,47051,,,,,,,,,,,,,,,,,,99999,99999,99999,99999,99999,99999,99999,99999,99999,99999,99999,99999
14:55:10,1510463310,2017-11-12T05:08:34,0.750,712.8,8.52,5.83,9.95,835.550,2047.480,104.400002,36.80,2.5304,355,23658,1.89743,3.97,47047,,,,,,,,,,,,,,,,,,99999,99999,99999,99999,99999,99999,99999,99999,99999,99999,99999,99999
14:55:40,1510463340,2017-11-12T05:09:04,0.750,713.2,8.49,5.82,9.90,835.530,2047.440,102.783333,36.51,2.5306,355,23660,1.89773,3.97,47042,,,,,,,,,,,,,,,,,,99999,99999,99999,99999,99999,99999,99999,99999,99999,99999,99999,99999
14:56:10,1510463370,2017-11-12T05:09:34,0.746,713.5,8.47,5.81,9.89,835.560,2047.370,102.533333,36.62,2.5307,355,23656,1.88693,3.97,47038,,,,,,,,,,,,,,,,,,99999,99999,99999,99999,99999,99999,99999,99999,99999,99999,99999,99999
14:56:40,1510463400,2017-11-12T05:10:04,0.746,713.9,8.43,5.76,9.88,835.570,2047.210,101.750000,36.24,2.5309,355,23662,1.88753,3.97,47033,,,,,,,,,,,,,,,,,,99999,99999,99999,99999,99999,99999,99999,99999,99999,99999,99999,99999
14:57:10,1510463430,2017-11-12T05:10:34,0.741,714.3,8.41,5.74,9.86,835.570,2047.100,101.250000,36.43,2.5309,355,23659,1.87618,3.97,47029,,,,,,,,,,,,,,,,,,99999,99999,99999,99999,99999,99999,99999,99999,99999,99999,99999,99999
14:57:40,1510463460,2017-11-12T05:11:04,0.745,714.6,8.37,5.70,9.80,835.610,2046.970,100.883331,36.22,2.5312,355,23657,1.88634,3.97,47024,,,,,,,,,,,,,,,,,,99999,99999,99999,99999,99999,99999,99999,99999,99999,99999,99999,99999
14:58:10,1510463490,2017-11-12T05:11:34,0.749,715.0,8.35,5.68,9.80,835.610,2046.940,102.849998,36.34,2.5313,355,23657,1.89713,3.97,47020,,,,,,,,,,,,,,,,,,99999,99999,99999,99999,99999,99999,99999,99999,99999,99999,99999,99999
14:58:40,1510463520,2017-11-12T05:12:04,0.748,715.4,8.32,5.65,9.76,835.570,2046.810,102.599998,36.09,2.5314,355,23654,1.89233,3.97,47015,,,,,,,,,,,,,,,,,,99999,99999,99999,99999,99999,99999,99999,99999,99999,99999,99999,99999
14:59:10,1510463550,2017-11-12T05:12:34,0.742,715.8,8.29,5.61,9.74,835.550,2046.770,100.716667,36.35,2.5316,355,23656,1.87886,3.97,47011,,,,,,,,,,,,,,,,,,99999,99999,99999,99999,99999,99999,99999,99999,99999,99999,99999,99999
14:59:40,1510463580,2017-11-12T05:13:04,0.742,716.1,8.26,5.59,9.72,835.600,2046.600,102.333336,36.52,2.5317,355,23654,1.87946,3.97,47006,,,,,,,,,,,,,,,,,,99999,99999,99999,99999,99999,99999,99999,99999,99999,99999,99999,99999
15:00:10,1510463610,2017-11-12T05:13:34,0.746,716.5,8.23,5.55,9.66,835.560,2046.470,102.616669,36.77,2.5318,355,23654,1.88873,3.97,47002,,,,,,,,,,,,,,,,,,99999,99999,99999,99999,99999,99999,99999,99999,99999,99999,99999,99999
15:00:40,1510463640,2017-11-12T05:14:04,0.740,716.9,8.20,5.52,9.65,835.600,2046.430,101.050003,37.21,2.5320,355,23654,1.87379,3.97,46997,,,,,,,,,,,,,,,,,,99999,99999,99999,99999,99999,99999,99999,99999,99999,99999,99999,99999
15:01:10,1510463670,2017-11-12T05:14:34,0.748,717.2,8.17,5.50,9.57,835.520,2046.310,103.066666,37.05,2.5321,355,23655,1.89292,3.96,46992,,,,,,,,,,,,,,,,,,99999,99999,99999,99999,99999,99999,99999,99999,99999,99999,99999,99999
15:01:40,1510463700,2017-11-12T05:15:04,0.747,717.6,8.13,5.49,9.59,835.550,2046.140,102.750000,36.93,2.5323,355,23653,1.89263,3.96,46988,,,,,,,,,,,,,,,,,,99999,99999,99999,99999,99999,99999,99999,99999,99999,99999,99999,99999
15:02:10,1510463730,2017-11-12T05:15:34,0.740,718.0,8.11,5.48,9.57,835.510,2046.100,101.016670,36.92,2.5324,355,23654,1.87319,3.96,46983,,,,,,,,,,,,,,,,,,99999,99999,99999,99999,99999,99999,99999,99999,99999,99999,99999,99999
15:02:40,1510463760,2017-11-12T05:16:04,0.746,718.4,8.07,5.46,9.52,835.570,2045.970,102.550003,37.26,2.5326,355,23652,1.89023,3.96,46979,,,,,,,,,,,,,,,,,,99999,99999,99999,99999,99999,99999,99999,99999,99999,99999,99999,99999
15:03:10,1510463790,2017-11-12T05:16:34,0.747,718.7,8.05,5.44,9.51,835.550,2045.910,102.733330,37.22,2.5327,355,23652,1.89113,3.96,46974,,,,,,,,,,,,,,,,,,99999,99999,99999,99999,99999,99999,99999,99999,99999,99999,99999,99999
15:03:40,1510463820,2017-11-12T05:17:04,0.740,719.1,8.03,5.44,9.48,835.580,2045.870,100.599998,37.14,2.5329,355,23652,1.87409,3.96,46970,,,,,,,,,,,,,,,,,,99999,99999,99999,99999,99999,99999,99999,99999,99999,99999,99999,99999
15:04:10,1510463850,2017-11-12T05:17:34,0.742,719.5,8.01,5.43,9.44,835.640,2045.770,102.400002,36.99,2.5329,355,23648,1.88065,3.96,46965,,,,,,,,,,,,,,,,,,99999,99999,99999,99999,99999,99999,99999,99999,99999,99999,99999,99999
15:04:40,1510463880,2017-11-12T05:18:04,0.740,719.9,8.00,5.40,9.44,835.660,2045.700,100.216667,37.19,2.5329,355,23649,1.87349,3.96,46961,,,,,,,,,,,,,,,,,,99999,99999,99999,99999,99999,99999,99999,99999,99999,99999,99999,99999
15:05:10,1510463910,2017-11-12T05:18:34,0.744,720.2,7.98,5.41,9.45,835.640,2045.640,102.150002,37.44,2.5330,355,23648,1.88574,3.96,46956,,,,,,,,,,,,,,,,,,99999,99999,99999,99999,99999,99999,99999,99999,99999,99999,99999,99999
15:05:40,1510463940,2017-11-12T05:19:04,0.747,720.6,7.96,5.38,9.40,835.630,2045.580,102.250000,37.72,2.5331,355,23650,1.89143,3.96,46952,,,,,,,,,,,,,,,,,,99999,99999,99999,99999,99999,99999,99999,99999,99999,99999,99999,99999
15:06:10,1510463970,2017-11-12T05:19:34,0.744,721.0,7.95,5.36,9.43,835.600,2045.540,102.300003,37.90,2.5331,355,23650,1.88484,3.96,46947,,,,,,,,,,,,,,,,,,99999,99999,99999,99999,99999,99999,99999,99999,99999,99999,99999,99999
15:06:40,1510464000,2017-11-12T05:20:04,0.739,721.3,7.93,5.37,9.38,835.680,2045.470,99.949997,38.05,2.5332,355,23647,1.87200,3.96,46943,,,,,,,,,,,,,,,,,,99999,99999,99999,99999,99999,99999,99999,99999,99999,99999,99999,99999
15:07:10,1510464030,2017-11-12T05:20:34,0.745,721.7,7.91,5.34,9.36,835.690,2045.410,101.750000,38.18,2.5333,355,23649,1.88843,3.96,46938,,,,,,,,,,,,,,,,,,99999,99999,99999,99999,99999,99999,99999,99999,99999,99999,99999,99999
15:07:40,1510464060,2017-11-12T05:21:04,0.739,722.1,7.90,5.31,9.31,835.740,2045.410,99.949997,38.32,2.5334,355,23648,1.87170,3.96,46934,,,,,,,,,,,,,,,,,,99999,99999,99999,99999,99999,99999,99999,99999,99999,99999,99999,99999
15:08:10,1510464090,2017-11-12T05:21:34,0.738,722.5,7.89,5.30,9.32,835.770,2045.310,100.483330,38.10,2.5334,355,23646,1.86992,3.96,46929,,,,,,,,,,,,,,,,,,99999,99999,99999,99999,99999,99999,99999,99999,99999,99999,99999,99999
15:08:40,1510464120,2017-11-12T05:22:04,0.742,722.8,7.87,5.31,9.32,835.750,2045.240,100.349998,38.23,2.5335,355,23642,1.87976,3.96,46925,,,,,,,,,,,,,,,,,,99999,99999,99999,99999,99999,99999,99999,99999,99999,99999,99999,99999
15:09:10,1510464150,2017-11-12T05:22:34,0.745,723.2,7.85,5.28,9.26,835.730,2045.200,101.666664,38.05,2.5336,355,23645,1.88873,3.96,46920,,,,,,,,,,,,,,,,,,99999,99999,99999,99999,99999,99999,99999,99999,99999,99999,99999,99999
15:09:40,1510464180,2017-11-12T05:23:04,0.742,723.6,7.85,5.25,9.26,835.780,2045.200,102.133331,38.13,2.5336,355,23644,1.88065,3.96,46916,,,,,,,,,,,,,,,,,,99999,99999,99999,99999,99999,99999,99999,99999,99999,99999,99999,99999
15:10:10,1510464210,2017-11-12T05:23:34,0.746,723.9,7.82,5.24,9.28,835.680,2045.080,101.949997,38.28,2.5337,355,23644,1.88933,3.96,46911,,,,,,,,,,,,,,,,,,99999,99999,99999,99999,99999,99999,99999,99999,99999,99999,99999,99999
15:10:40,1510464240,2017-11-12T05:24:04,0.746,724.3,7.82,5.27,9.26,835.760,2045.080,101.466667,38.32,2.5337,355,23644,1.89083,3.96,46907,,,,,,,,,,,,,,,,,,99999,99999,99999,99999,99999,99999,99999,99999,99999,99999,99999,99999
15:11:10,1510464270,2017-11-12T05:24:34,0.742,724.7,7.79,5.22,9.23,835.720,2045.040,102.033333,38.21,2.5340,355,23645,1.88065,3.96,46902,,,,,,,,,,,,,,,,,,99999,99999,99999,99999,99999,99999,99999,99999,99999,99999,99999,99999
15:11:40,1510464300,2017-11-12T05:25:04,0.744,725.0,7.79,5.21,9.22,835.740,2045.040,101.633331,38.13,2.5340,355,23643,1.88574,3.96,46898,,,,,,,,,,,,,,,,,,99999,99999,99999,99999,99999,99999,99999,99999,99999,99999,99999,99999
15:12:10,1510464330,2017-11-12T05:25:34,0.741,725.4,7.78,5.22,9.23,835.790,2044.970,101.300003,38.52,2.5340,355,23641,1.87886,3.96,46893,,,,,,,,,,,,,,,,,,99999,99999,99999,99999,99999,99999,99999,99999,99999,99999,99999,99999
15:12:40,1510464360,2017-11-12T05:26:04,0.742,725.8,7.77,5.18,9.19,835.800,2044.970,102.766670,38.21,2.5341,355,23642,1.88125,3.96,46889,,,,,,,,,,,,,,,,,,99999,99999,99999,99999,99999,99999,99999,99999,99999,99999,99999,99999
15:13:10,1510464390,2017-11-12T05:26:34,0.737,726.2,7.77,5.18,9.19,835.770,2044.970,100.800003,38.32,2.5341,355,23643,1.86664,3.96,46884,,,,,,,,,,,,,,,,,,99999,99999,99999,99999,99999,99999,99999,99999,99999,99999,99999,99999
15:13:40,1510464420,2017-11-12T05:27:04,0.739,726.5,7.74,5.20,9.18,835.860,2044.810,102.050003,38.31,2.5341,355,23642,1.87200,3.96,46880,,,,,,,,,,,,,,,,,,99999,99999,99999,99999,99999,99999,99999,99999,99999,99999,99999,99999
15:14:10,1510464450,2017-11-12T05:27:34,0.739,726.9,7.74,5.19,9.16,835.810,2044.810,99.483330,38.28,2.5341,355,23644,1.87230,3.96,46875,,,,,,,,,,,,,,,,,,99999,99999,99999,99999,99999,99999,99999,99999,99999,99999,99999,99999
15:14:40,1510464480,2017-11-12T05:28:04,0.736,727.3,7.72,5.16,9.16,835.940,2044.740,99.383331,38.20,2.5342,355,23642,1.86575,3.96,46871,,,,,,,,,,,,,,,,,,99999,99999,99999,99999,99999,99999,99999,99999,99999,99999,99999,99999
15:15:10,1510464510,2017-11-12T05:28:34,0.744,727.6,7.72,5.14,9.15,835.910,2044.740,102.816666,38.16,2.5342,355,23642,1.88424,3.96,46866,,,,,,,,,,,,,,,,,,99999,99999,99999,99999,99999,99999,99999,99999,99999,99999,99999,99999
15:15:40,1510464540,2017-11-12T05:29:04,0.737,728.0,7.71,5.14,9.14,835.940,2044.700,99.400002,38.28,2.5343,355,23643,1.86843,3.96,46862,,,,,,,,,,,,,,,,,,99999,99999,99999,99999,99999,99999,99999,99999,99999,99999,99999,99999
15:16:10,1510464570,2017-11-12T05:29:34,0.738,728.4,7.71,5.15,9.14,835.940,2044.700,99.833336,38.14,2.5343,355,23641,1.86932,3.96,46857,,,,,,,,,,,,,,,,,,99999,99999,99999,99999,99999,99999,99999,99999,99999,99999,99999,99999
15:16:40,1510464600,2017-11-12T05:30:04,0.738,728.8,7.70,5.15,9.14,835.940,2044.700,99.916664,38.38,2.5344,355,23639,1.86962,3.96,46853,,,,,,,,,,,,,,,,,,99999,99999,99999,99999,99999,99999,99999,99999,99999,99999,99999,99999
15:17:10,1510464630,2017-11-12T05:30:34,0.737,729.1,7.70,5.12,9.14,835.920,2044.700,100.183334,38.57,2.5344,355,23639,1.86783,3.96,46848,,,,,,,,,,,,,,,,,,99999,99999,99999,99999,99999,99999,99999,99999,99999,99999,99999,99999
15:17:40,1510464660,2017-11-12T05:31:04,0.739,729.5,7.70,5.14,9.14,836.000,2044.700,103.083336,38.33,2.5344,355,23641,1.87260,3.96,46844,,,,,,,,,,,,,,,,,,99999,99999,99999,99999,99999,99999,99999,99999,99999,99999,99999,99999
15:18:10,1510464690,2017-11-12T05:31:34,0.740,729.9,7.69,5.12,9.15,835.890,2044.640,102.033333,37.98,2.5344,355,23639,1.87618,3.96,46839,,,,,,,,,,,,,,,,,,99999,99999,99999,99999,99999,99999,99999,99999,99999,99999,99999,99999
15:18:40,1510464720,2017-11-12T05:32:04,0.739,730.2,7.69,5.10,9.10,835.940,2044.640,101.716667,37.66,2.5344,355,23638,1.87290,3.96,46835,,,,,,,,,,,,,,,,,,99999,99999,99999,99999,99999,99999,99999,99999,99999,99999,99999,99999
15:19:10,1510464750,2017-11-12T05:32:34,0.740,730.6,7.67,5.12,9.14,835.950,2044.580,102.266670,38.19,2.5345,355,23638,1.87677,3.96,46830,,,,,,,,,,,,,,,,,,99999,99999,99999,99999,99999,99999,99999,99999,99999,99999,99999,99999
15:19:40,1510464780,2017-11-12T05:33:04,0.741,731.0,7.67,5.11,9.09,835.920,2044.580,101.300003,38.34,2.5345,355,23639,1.87707,3.96,46825,,,,,,,,,,,,,,,,,,99999,99999,99999,99999,99999,99999,99999,99999,99999,99999,99999,99999
15:20:10,1510464810,2017-11-12T05:33:34,0.738,731.3,7.65,5.08,9.11,835.900,2044.540,101.666664,38.49,2.5346,355,23637,1.86932,3.96,46821,,,,,,,,,,,,,,,,,,99999,99999,99999,99999,99999,99999,99999,99999,99999,99999,99999,99999
15:20:40,1510464840,2017-11-12T05:34:04,0.736,731.7,7.64,5.09,9.10,835.990,2044.540,99.533333,38.62,2.5347,355,23637,1.86664,3.96,46816,,,,,,,,,,,,,,,,,,99999,99999,99999,99999,99999,99999,99999,99999,99999,99999,99999,99999
15:21:10,1510464870,2017-11-12T05:34:34,0.742,732.1,7.63,5.05,9.07,835.960,2044.410,100.716667,38.50,2.5346,355,23637,1.87946,3.96,46812,,,,,,,,,,,,,,,,,,99999,99999,99999,99999,99999,99999,99999,99999,99999,99999,99999,99999
15:21:40,1510464900,2017-11-12T05:35:04,0.744,732.5,7.61,5.03,9.07,835.970,2044.370,101.699997,38.69,2.5348,355,23640,1.88484,3.96,46807,,,,,,,,,,,,,,,,,,99999,99999,99999,99999,99999,99999,99999,99999,99999,99999,99999,99999
15:22:10,1510464930,2017-11-12T05:35:34,0.743,732.8,7.60,5.04,9.07,836.040,2044.300,102.449997,38.48,2.5348,355,23638,1.88304,3.96,46803,,,,,,,,,,,,,,,,,,99999,99999,99999,99999,99999,99999,99999,99999,99999,99999,99999,99999
15:22:40,1510464960,2017-11-12T05:36:04,0.743,733.2,7.58,5.04,9.02,836.000,2044.240,100.733330,38.44,2.5349,355,23637,1.88245,3.96,46798,,,,,,,,,,,,,,,,,,99999,99999,99999,99999,99999,99999,99999,99999,99999,99999,99999,99999
15:23:10,1510464990,2017-11-12T05:36:34,0.739,733.6,7.56,5.00,8.97,836.030,2044.200,101.683334,38.82,2.5350,355,23634,1.87260,3.96,46794,,,,,,,,,,,,,,,,,,99999,99999,99999,99999,99999,99999,99999,99999,99999,99999,99999,99999
15:23:40,1510465020,2017-11-12T05:37:04,0.743,733.9,7.54,4.96,9.01,836.030,2044.140,100.900002,38.67,2.5351,355,23637,1.88454,3.96,46789,,,,,,,,,,,,,,,,,,99999,99999,99999,99999,99999,99999,99999,99999,99999,99999,99999,99999
15:24:10,1510465050,2017-11-12T05:37:34,0.742,734.3,7.53,4.97,8.95,836.040,2044.140,101.500000,38.50,2.5352,355,23635,1.88155,3.96,46785,,,,,,,,,,,,,,,,,,99999,99999,99999,99999,99999,99999,99999,99999,99999,99999,99999,99999
15:24:40,1510465080,2017-11-12T05:38:04,0.738,734.7,7.51,4.93,8.97,836.010,2044.080,100.250000,38.37,2.5353,355,23635,1.87021,3.96,46780,,,,,,,,,,,,,,,,,,99999,99999,99999,99999,99999,99999,99999,99999,99999,99999,99999,99999
15:25:10,1510465110,2017-11-12T05:38:34,0.743,735.0,7.49,4.94,8.94,836.020,2043.970,103.083336,38.32,2.5354,355,23633,1.88275,3.96,46776,,,,,,,,,,,,,,,,,,99999,99999,99999,99999,99999,99999,99999,99999,99999,99999,99999,99999
15:25:40,1510465140,2017-11-12T05:39:04,0.735,735.4,7.48,4.92,8.94,836.000,2043.910,98.583336,38.25,2.5354,355,23633,1.86367,3.96,46771,,,,,,,,,,,,,,,,,,99999,99999,99999,99999,99999,99999,99999,99999,99999,99999,99999,99999
15:26:10,1510465170,2017-11-12T05:39:34,0.742,735.8,7.48,4.93,8.93,836.020,2043.910,101.750000,38.38,2.5354,355,23632,1.88125,3.96,46767,,,,,,,,,,,,,,,,,,99999,99999,99999,99999,99999,99999,99999,99999,99999,99999,99999,99999
15:26:40,1510465200,2017-11-12T05:40:04,0.739,736.1,7.48,4.88,8.93,836.100,2043.910,99.166664,38.43,2.5354,355,23633,1.87349,3.96,46762,,,,,,,,,,,,,,,,,,99999,99999,99999,99999,99999,99999,99999,99999,99999,99999,99999,99999
15:27:10,1510465230,2017-11-12T05:40:34,0.736,736.5,7.48,4.93,8.90,836.100,2043.910,101.050003,38.45,2.5354,355,23636,1.86723,3.96,46758,,,,,,,,,,,,,,,,,,99999,99999,99999,99999,99999,99999,99999,99999,99999,99999,99999,99999
15:27:40,1510465260,2017-11-12T05:41:04,0.738,736.9,7.48,4.93,8.94,836.100,2043.910,100.716667,38.54,2.5354,355,23633,1.87140,3.96,46753,,,,,,,,,,,,,,,,,,99999,99999,99999,99999,99999,99999,99999,99999,99999,99999,99999,99999
15:28:10,1510465290,2017-11-12T05:41:34,0.737,737.3,7.49,4.93,8.94,836.070,2043.970,100.133331,38.63,2.5354,355,23631,1.86932,3.96,46749,,,,,,,,,,,,,,,,,,99999,99999,99999,99999,99999,99999,99999,99999,99999,99999,99999,99999
15:28:40,1510465320,2017-11-12T05:42:04,0.742,737.6,7.49,4.93,8.90,836.230,2043.970,100.883331,38.52,2.5354,355,23633,1.88065,3.96,46744,,,,,,,,,,,,,,,,,,99999,99999,99999,99999,99999,99999,99999,99999,99999,99999,99999,99999
15:29:10,1510465350,2017-11-12T05:42:34,0.740,738.0,7.49,4.92,8.95,836.120,2043.970,101.416664,38.55,2.5354,355,23633,1.87618,3.96,46740,,,,,,,,,,,,,,,,,,99999,99999,99999,99999,99999,99999,99999,99999,99999,99999,99999,99999
15:29:40,1510465380,2017-11-12T05:43:04,0.736,738.4,7.49,4.93,8.94,836.070,2043.970,98.866669,38.55,2.5354,355,23632,1.86604,3.96,46735,,,,,,,,,,,,,,,,,,99999,99999,99999,99999,99999,99999,99999,99999,99999,99999,99999,99999
15:30:10,1510465410,2017-11-12T05:43:34,0.736,738.7,7.50,4.93,8.95,836.100,2043.970,98.583336,38.67,2.5353,355,23633,1.86545,3.96,46731,,,,,,,,,,,,,,,,,,99999,99999,99999,99999,99999,99999,99999,99999,99999,99999,99999,99999
15:30:40,1510465440,2017-11-12T05:44:04,0.741,739.1,7.49,4.92,8.93,836.040,2043.970,101.016670,38.66,2.5354,355,23633,1.87856,3.96,46726,,,,,,,,,,,,,,,,,,99999,99999,99999,99999,99999,99999,99999,99999,99999,99999,99999,99999
15:31:10,1510465470,2017-11-12T05:44:34,0.736,739.5,7.50,4.93,8.94,836.100,2043.970,99.083336,38.48,2.5353,355,23633,1.86634,3.96,46722,,,,,,,,,,,,,,,,,,99999,99999,99999,99999,99999,99999,99999,99999,99999,99999,99999,99999
15:31:40,1510465500,2017-11-12T05:45:04,0.735,739.8,7.50,4.93,8.89,836.100,2043.970,99.166664,38.37,2.5353,355,23634,1.86426,3.96,46717,,,,,,,,,,,,,,,,,,99999,99999,99999,99999,99999,99999,99999,99999,99999,99999,99999,99999
15:32:10,1510465530,2017-11-12T05:45:34,0.742,740.2,7.51,4.92,8.95,836.040,2044.080,101.516670,38.39,2.5353,355,23631,1.88185,3.96,46713,,,,,,,,,,,,,,,,,,99999,99999,99999,99999,99999,99999,99999,99999,99999,99999,99999,99999
15:32:40,1510465560,2017-11-12T05:46:04,0.741,740.6,7.50,4.93,8.94,836.100,2043.970,100.616669,38.38,2.5353,355,23632,1.87916,3.96,46708,,,,,,,,,,,,,,,,,,99999,99999,99999,99999,99999,99999,99999,99999,99999,99999,99999,99999
15:33:10,1510465590,2017-11-12T05:46:34,0.741,741.0,7.51,4.92,8.95,836.070,2044.080,101.383331,38.48,2.5353,355,23633,1.87856,3.96,46704,,,,,,,,,,,,,,,,,,99999,99999,99999,99999,99999,99999,99999,99999,99999,99999,99999,99999
15:33:40,1510465620,2017-11-12T05:47:04,0.744,741.3,7.49,4.94,8.94,836.100,2043.970,100.750000,38.51,2.5354,355,23631,1.88604,3.96,46699,,,,,,,,,,,,,,,,,,99999,99999,99999,99999,99999,99999,99999,99999,99999,99999,99999,99999
15:34:10,1510465650,2017-11-12T05:47:34,0.742,741.7,7.50,4.90,8.94,836.100,2043.970,101.016670,38.78,2.5353,355,23635,1.88155,3.96,46695,,,,,,,,,,,,,,,,,,99999,99999,99999,99999,99999,99999,99999,99999,99999,99999,99999,99999
15:34:40,1510465680,2017-11-12T05:48:04,0.737,742.1,7.48,4.90,8.93,836.050,2043.910,99.383331,38.33,2.5354,355,23634,1.86783,3.96,46690,,,,,,,,,,,,,,,,,,99999,99999,99999,99999,99999,99999,99999,99999,99999,99999,99999,99999
15:35:10,1510465710,2017-11-12T05:48:34,0.736,742.4,7.49,4.89,8.90,836.100,2043.970,99.383331,38.21,2.5354,355,23633,1.86575,3.96,46686,,,,,,,,,,,,,,,,,,99999,99999,99999,99999,99999,99999,99999,99999,99999,99999,99999,99999
15:35:40,1510465740,2017-11-12T05:49:04,0.738,742.8,7.48,4.86,8.94,836.050,2043.910,99.466667,38.36,2.5354,355,23633,1.87021,3.96,46681,,,,,,,,,,,,,,,,,,99999,99999,99999,99999,99999,99999,99999,99999,99999,99999,99999,99999
15:36:10,1510465770,2017-11-12T05:49:34,0.743,743.2,7.47,4.88,8.93,836.130,2043.870,101.266670,38.30,2.5354,355,23630,1.88394,3.96,46677,,,,,,,,,,,,,,,,,,99999,99999,99999,99999,99999,99999,99999,99999,99999,99999,99999,99999
15:36:40,1510465800,2017-11-12T05:50:04,0.742,743.5,7.47,4.87,8.90,836.100,2043.870,101.033333,37.99,2.5355,355,23632,1.88125,3.96,46672,,,,,,,,,,,,,,,,,,99999,99999,99999,99999,99999,99999,99999,99999,99999,99999,99999,99999
15:37:10,1510465830,2017-11-12T05:50:34,0.739,743.9,7.44,4.85,8.89,836.130,2043.800,101.349998,38.35,2.5356,355,23630,1.87319,3.96,46668,,,,,,,,,,,,,,,,,,99999,99999,99999,99999,99999,99999,99999,99999,99999,99999,99999,99999
15:37:40,1510465860,2017-11-12T05:51:04,0.737,744.3,7.44,4.83,8.90,836.130,2043.800,98.699997,38.18,2.5356,355,23630,1.86813,3.96,46663,,,,,,,,,,,,,,,,,,99999,99999,99999,99999,99999,99999,99999,99999,99999,99999,99999,99999
15:38:10,1510465890,2017-11-12T05:51:34,0.735,744.7,7.44,4.84,8.88,836.240,2043.800,100.833336,38.07,2.5356,355,23631,1.86426,3.96,46659,,,,,,,,,,,,,,,,,,99999,99999,99999,99999,99999,99999,99999,99999,99999,99999,99999,99999
15:38:40,1510465920,2017-11-12T05:52:04,0.741,745.0,7.43,4.85,8.88,836.160,2043.740,100.349998,37.94,2.5357,355,23629,1.87916,3.96,46654,,,,,,,,,,,,,,,,,,99999,99999,99999,99999,99999,99999,99999,99999,99999,99999,99999,99999
15:39:10,1510465950,2017-11-12T05:52:34,0.736,745.4,7.41,4.84,8.88,836.150,2043.700,98.683334,37.98,2.5358,355,23629,1.86664,3.96,46650,,,,,,,,,,,,,,,,,,99999,99999,99999,99999,99999,99999,99999,99999,99999,99999,99999,99999
15:39:40,1510465980,2017-11-12T05:53:04,0.740,745.8,7.41,4.82,8.82,836.120,2043.700,99.400002,37.95,2.5358,355,23632,1.87677,3.96,46645,,,,,,,,,,,,,,,,,,99999,99999,99999,99999,99999,99999,99999,99999,99999,99999,99999,99999
15:40:10,1510466010,2017-11-12T05:53:34,0.741,746.1,7.40,4.78,8.85,836.200,2043.700,99.733330,38.11,2.5359,355,23630,1.87976,3.96,46641,,,,,,,,,,,,,,,,,,99999,99999,99999,99999,99999,99999,99999,99999,99999,99999,99999,99999
15:40:40,1510466040,2017-11-12T05:54:04,0.742,746.5,7.40,4.79,8.82,836.170,2043.700,101.866669,38.03,2.5359,355,23629,1.88185,3.96,46636,,,,,,,,,,,,,,,,,,99999,99999,99999,99999,99999,99999,99999,99999,99999,99999,99999,99999
15:41:10,1510466070,2017-11-12T05:54:34,0.742,746.9,7.39,4.79,8.86,836.150,2043.640,101.033333,38.06,2.5359,355,23631,1.88185,3.96,46632,,,,,,,,,,,,,,,,,,99999,99999,99999,99999,99999,99999,99999,99999,99999,99999,99999,99999
15:41:40,1510466100,2017-11-12T05:55:04,0.741,747.2,7.39,4.80,8.80,836.230,2043.640,98.750000,38.22,2.5359,355,23629,1.87856,3.96,46627,,,,,,,,,,,,,,,,,,99999,99999,99999,99999,99999,99999,99999,99999,99999,99999,99999,99999
15:42:10,1510466130,2017-11-12T05:55:34,0.743,747.6,7.38,4.76,8.81,836.280,2043.640,99.683334,38.72,2.5360,355,23629,1.88454,3.96,46623,,,,,,,,,,,,,,,,,,99999,99999,99999,99999,99999,99999,99999,99999,99999,99999,99999,99999
15:42:40,1510466160,2017-11-12T05:56:04,0.738,748.0,7.38,4.78,8.78,836.330,2043.640,100.150002,38.75,2.5360,355,23629,1.87200,3.96,46618,,,,,,,,,,,,,,,,,,99999,99999,99999,99999,99999,99999,99999,99999,99999,99999,99999,99999
15:43:10,1510466190,2017-11-12T05:56:34,0.740,748.4,7.37,4.78,8.78,836.260,2043.540,97.566666,39.13,2.5359,355,23628,1.87558,3.96,46614,,,,,,,,,,,,,,,,,,99999,99999,99999,99999,99999,99999,99999,99999,99999,99999,99999,99999
15:43:40,1510466220,2017-11-12T05:57:04,0.744,748.7,7.36,4.75,8.80,836.230,2043.470,99.816666,38.39,2.5360,355,23628,1.88723,3.96,46609,,,,,,,,,,,,,,,,,,99999,99999,99999,99999,99999,99999,99999,99999,99999,99999,99999,99999
15:44:10,1510466250,2017-11-12T05:57:34,0.744,749.1,7.37,4.76,8.80,836.310,2043.540,99.516670,38.83,2.5359,355,23627,1.88693,3.96,46605,,,,,,,,,,,,,,,,,,99999,99999,99999,99999,99999,99999,99999,99999,99999,99999,99999,99999
15:44:40,1510466280,2017-11-12T05:58:04,0.735,749.5,7.37,4.75,8.81,836.310,2043.540,98.966667,38.81,2.5359,355,23628,1.86515,3.96,46600,,,,,,,,,,,,,,,,,,99999,99999,99999,99999,99999,99999,99999,99999,99999,99999,99999,99999
15:45:10,1510466310,2017-11-12T05:58:34,0.742,749.8,7.37,4.74,8.80,836.310,2043.540,99.900002,38.72,2.5359,355,23629,1.88095,3.96,46596,,,,,,,,,,,,,,,,,,99999,99999,99999,99999,99999,99999,99999,99999,99999,99999,99999,99999
15:45:40,1510466340,2017-11-12T05:59:04,0.740,750.2,7.38,4.76,8.78,836.280,2043.640,100.733330,38.96,2.5360,355,23627,1.87558,3.96,46591,,,,,,,,,,,,,,,,,,99999,99999,99999,99999,99999,99999,99999,99999,99999,99999,99999,99999
15:46:10,1510466370,2017-11-12T05:59:34,0.743,750.6,7.38,4.75,8.78,836.280,2043.640,100.750000,39.02,2.5359,355,23629,1.88424,3.96,46587,,,,,,,,,,,,,,,,,,99999,99999,99999,99999,99999,99999,99999,99999,99999,99999,99999,99999
15:46:40,1510466400,2017-11-12T06:00:04,0.742,750.9,7.38,4.76,8.76,836.330,2043.640,100.250000,38.58,2.5360,355,23628,1.88185,3.95,46582,,,,,,,,,,,,,,,,,,99999,99999,99999,99999,99999,99999,99999,99999,99999,99999,99999,99999
15:47:10,1510466430,2017-11-12T06:00:34,0.741,751.3,7.38,4.77,8.78,836.380,2043.640,100.316666,38.38,2.5360,355,23629,1.87886,3.96,46578,,,,,,,,,,,,,,,,,,99999,99999,99999,99999,99999,99999,99999,99999,99999,99999,99999,99999
15:47:40,1510466460,2017-11-12T06:01:04,0.735,751.7,7.39,4.74,8.78,836.330,2043.640,99.366669,38.48,2.5359,355,23626,1.86456,3.95,46573,,,,,,,,,,,,,,,,,,99999,99999,99999,99999,99999,99999,99999,99999,99999,99999,99999,99999
15:48:10,1510466490,2017-11-12T06:01:34,0.739,752.1,7.39,4.75,8.80,836.360,2043.640,101.133331,39.45,2.5358,355,23627,1.87468,3.95,46569,,,,,,,,,,,,,,,,,,99999,99999,99999,99999,99999,99999,99999,99999,99999,99999,99999,99999
15:48:40,1510466520,2017-11-12T06:02:04,0.741,752.4,7.38,4.77,8.81,836.280,2043.640,100.316666,39.38,2.5359,355,23628,1.87976,3.95,46564,,,,,,,,,,,,,,,,,,99999,99999,99999,99999,99999,99999,99999,99999,99999,99999,99999,99999
15:49:10,1510466550,2017-11-12T06:02:34,0.738,752.8,7.38,4.73,8.80,836.380,2043.640,99.000000,39.45,2.5359,355,23629,1.87111,3.95,46560,,,,,,,,,,,,,,,,,,99999,99999,99999,99999,99999,99999,99999,99999,99999,99999,99999,99999
15:49:40,1510466580,2017-11-12T06:03:04,0.742,753.2,7.38,4.74,8.80,836.380,2043.640,99.733330,39.12,2.5359,355,23627,1.88275,3.95,46555,,,,,,,,,,,,,,,,,,99999,99999,99999,99999,99999,99999,99999,99999,99999,99999,99999,99999
15:50:10,1510466610,2017-11-12T06:03:34,0.734,753.5,7.36,4.75,8.81,836.410,2043.470,100.033333,38.49,2.5359,355,23627,1.86129,3.95,46551,,,,,,,,,,,,,,,,,,99999,99999,99999,99999,99999,99999,99999,99999,99999,99999,99999,99999
15:50:40,1510466640,2017-11-12T06:04:04,0.743,753.9,7.36,4.70,8.78,836.410,2043.470,100.783333,39.02,2.5359,355,23627,1.88394,3.95,46546,,,,,,,,,,,,,,,,,,99999,99999,99999,99999,99999,99999,99999,99999,99999,99999,99999,99999
15:51:10,1510466670,2017-11-12T06:04:34,0.743,754.3,7.35,4.69,8.74,836.390,2043.470,100.083336,39.49,2.5360,355,23630,1.88394,3.95,46542,,,,,,,,,,,,,,,,,,99999,99999,99999,99999,99999,99999,99999,99999,99999,99999,99999,99999
15:51:40,1510466700,2017-11-12T06:05:04,0.743,754.6,7.34,4.70,8.76,836.370,2043.410,99.316666,39.22,2.5360,355,23627,1.88304,3.95,46537,,,,,,,,,,,,,,,,,,99999,99999,99999,99999,99999,99999,99999,99999,99999,99999,99999,99999
15:52:10,1510466730,2017-11-12T06:05:34,0.734,755.0,7.33,4.69,8.73,836.370,2043.410,98.699997,39.07,2.5361,355,23629,1.86278,3.95,46533,,,,,,,,,,,,,,,,,,99999,99999,99999,99999,99999,99999,99999,99999,99999,99999,99999,99999
15:52:40,1510466760,2017-11-12T06:06:04,0.743,755.4,7.32,4.67,8.72,836.420,2043.370,101.033333,39.33,2.5361,355,23626,1.88334,3.95,46528,,,,,,,,,,,,,,,,,,99999,99999,99999,99999,99999,99999,99999,99999,99999,99999,99999,99999
15:53:10,1510466790,2017-11-12T06:06:34,0.742,755.7,7.30,4.66,8.74,836.460,2043.300,101.016670,39.25,2.5362,355,23624,1.88245,3.95,46524,,,,,,,,,,,,,,,,,,99999,99999,99999,99999,99999,99999,99999,99999,99999,99999,99999,99999
15:53:40,1510466820,2017-11-12T06:07:04,0.741,756.1,7.29,4.63,8.73,836.400,2043.300,100.500000,39.32,2.5363,355,23625,1.87886,3.95,46519,,,,,,,,,,,,,,,,,,99999,99999,99999,99999,99999,99999,99999,99999,99999,99999,99999,99999
15:54:10,1510466850,2017-11-12T06:07:34,0.735,756.5,7.27,4.62,8.70,836.460,2043.240,99.216667,39.10,2.5365,355,23624,1.86456,3.95,46515,,,,,,,,,,,,,,,,,,99999,99999,99999,99999,99999,99999,99999,99999,99999,99999,99999,99999
15:54:40,1510466880,2017-11-12T06:08:04,0.736,756.9,7.26,4.62,8.68,836.470,2043.200,99.500000,39.19,2.5365,355,23623,1.86575,3.95,46510,,,,,,,,,,,,,,,,,,99999,99999,99999,99999,99999,99999,99999,99999,99999,99999,99999,99999
15:55:10,1510466910,2017-11-12T06:08:34,0.736,757.2,7.25,4.63,8.70,836.550,2043.100,99.033333,39.54,2.5364,355,23624,1.86694,3.95,46506,,,,,,,,,,,,,,,,,,99999,99999,99999,99999,99999,99999,99999,99999,99999,99999,99999,99999
15:55:40,1510466940,2017-11-12T06:09:04,0.734,757.6,7.24,4.60,8.66,836.470,2043.100,99.916664,39.42,2.5365,355,23622,1.86099,3.95,46501,,,,,,,,,,,,,,,,,,99999,99999,99999,99999,99999,99999,99999,99999,99999,99999,99999,99999
15:56:10,1510466970,2017-11-12T06:09:34,0.740,758.0,7.23,4.60,8.64,836.500,2043.040,100.383331,39.40,2.5366,355,23622,1.87737,3.95,46497,,,,,,,,,,,,,,,,,,99999,99999,99999,99999,99999,99999,99999,99999,99999,99999,99999,99999
15:56:40,1510467000,2017-11-12T06:10:04,0.742,758.3,7.21,4.59,8.64,836.470,2042.970,100.316666,39.32,2.5367,355,23621,1.88155,3.95,46492,,,,,,,,,,,,,,,,,,99999,99999,99999,99999,99999,99999,99999,99999,99999,99999,99999,99999
15:57:10,1510467030,2017-11-12T06:10:34,0.733,758.7,7.21,4.58,8.60,836.500,2042.970,99.033333,39.32,2.5367,355,23624,1.86010,3.95,46488,,,,,,,,,,,,,,,,,,99999,99999,99999,99999,99999,99999,99999,99999,99999,99999,99999,99999
15:57:40,1510467060,2017-11-12T06:11:04,0.741,759.1,7.20,4.60,8.64,836.430,2042.970,100.866669,39.53,2.5367,355,23624,1.88006,3.95,46483,,,,,,,,,,,,,,,,,,99999,99999,99999,99999,99999,99999,99999,99999,99999,99999,99999,99999
15:58:10,1510467090,2017-11-12T06:11:34,0.742,759.4,7.19,4.58,8.61,836.530,2042.910,99.650002,39.31,2.5368,355,23622,1.88215,3.95,46479,,,,,,,,,,,,,,,,,,99999,99999,99999,99999,99999,99999,99999,99999,99999,99999,99999,99999
15:58:40,1510467120,2017-11-12T06:12:04,0.734,759.8,7.18,4.58,8.60,836.560,2042.910,99.366669,39.41,2.5369,355,23624,1.86158,3.95,46474,,,,,,,,,,,,,,,,,,99999,99999,99999,99999,99999,99999,99999,99999,99999,99999,99999,99999
15:59:10,1510467150,2017-11-12T06:12:34,0.737,760.2,7.18,4.55,8.61,836.590,2042.910,99.016670,39.66,2.5368,355,23623,1.87021,3.95,46470,,,,,,,,,,,,,,,,,,99999,99999,99999,99999,99999,99999,99999,99999,99999,99999,99999,99999
15:59:40,1510467180,2017-11-12T06:13:04,0.742,760.5,7.19,4.55,8.60,836.590,2042.910,100.383331,39.82,2.5367,355,23623,1.88185,3.95,46465,,,,,,,,,,,,,,,,,,99999,99999,99999,99999,99999,99999,99999,99999,99999,99999,99999,99999
16:00:10,1510467210,2017-11-12T06:13:34,0.735,760.9,7.17,4.57,8.57,836.480,2042.870,98.583336,39.68,2.5369,355,23621,1.86456,3.95,46461,,,,,,,,,,,,,,,,,,99999,99999,99999,99999,99999,99999,99999,99999,99999,99999,99999,99999
16:00:40,1510467240,2017-11-12T06:14:04,0.737,761.3,7.17,4.56,8.57,836.510,2042.870,98.033333,39.50,2.5369,355,23622,1.86932,3.95,46456,,,,,,,,,,,,,,,,,,99999,99999,99999,99999,99999,99999,99999,99999,99999,99999,99999,99999
16:01:10,1510467270,2017-11-12T06:14:34,0.739,761.7,7.17,4.58,8.57,836.510,2042.870,98.783333,39.55,2.5369,355,23622,1.87528,3.95,46452,,,,,,,,,,,,,,,,,,99999,99999,99999,99999,99999,99999,99999,99999,99999,99999,99999,99999
16:01:40,1510467300,2017-11-12T06:15:04,0.741,762.0,7.17,4.55,8.53,836.540,2042.870,100.050003,39.87,2.5369,355,23622,1.87916,3.95,46447,,,,,,,,,,,,,,,,,,99999,99999,99999,99999,99999,99999,99999,99999,99999,99999,99999,99999
16:02:10,1510467330,2017-11-12T06:15:34,0.738,762.4,7.18,4.55,8.57,836.560,2042.910,99.050003,39.70,2.5368,355,23624,1.87140,3.95,46443,,,,,,,,,,,,,,,,,,99999,99999,99999,99999,99999,99999,99999,99999,99999,99999,99999,99999
16:02:40,1510467360,2017-11-12T06:16:04,0.742,762.8,7.17,4.54,8.60,836.540,2042.870,100.099998,39.80,2.5369,355,23622,1.88155,3.95,46438,,,,,,,,,,,,,,,,,,99999,99999,99999,99999,99999,99999,99999,99999,99999,99999,99999,99999
16:03:10,1510467390,2017-11-12T06:16:34,0.734,763.1,7.17,4.55,8.56,836.510,2042.870,99.016670,40.64,2.5368,355,23623,1.86278,3.95,46434,,,,,,,,,,,,,,,,,,99999,99999,99999,99999,99999,99999,99999,99999,99999,99999,99999,99999
16:03:40,1510467420,2017-11-12T06:17:04,0.734,763.5,7.16,4.54,8.53,836.510,2042.870,98.949997,40.33,2.5369,355,23622,1.86278,3.95,46429,,,,,,,,,,,,,,,,,,99999,99999,99999,99999,99999,99999,99999,99999,99999,99999,99999,99999
16:04:10,1510467450,2017-11-12T06:17:34,0.733,763.9,7.16,4.55,8.59,836.540,2042.870,98.650002,40.49,2.5369,355,23620,1.86040,3.95,46425,,,,,,,,,,,,,,,,,,99999,99999,99999,99999,99999,99999,99999,99999,99999,99999,99999,99999
16:04:40,1510467480,2017-11-12T06:18:03,0.740,764.2,7.14,4.51,8.53,836.540,2042.800,99.633331,40.49,2.5370,355,23621,1.87647,3.95,46420,,,,,,,,,,,,,,,,,,99999,99999,99999,99999,99999,99999,99999,99999,99999,99999,99999,99999
16:05:10,1510467510,2017-11-12T06:18:33,0.741,764.6,7.12,4.52,8.53,836.490,2042.640,100.333336,40.65,2.5370,355,23622,1.88035,3.95,46416,,,,,,,,,,,,,,,,,,99999,99999,99999,99999,99999,99999,99999,99999,99999,99999,99999,99999
16:05:40,1510467540,2017-11-12T06:19:03,0.737,765.0,7.11,4.50,8.57,836.470,2042.640,98.816666,40.67,2.5371,355,23620,1.86902,3.95,46411,,,,,,,,,,,,,,,,,,99999,99999,99999,99999,99999,99999,99999,99999,99999,99999,99999,99999
16:06:10,1510467570,2017-11-12T06:19:34,0.741,765.3,7.09,4.44,8.51,836.500,2042.570,100.500000,40.21,2.5372,355,23620,1.88006,3.95,46407,,,,,,,,,,,,,,,,,,99999,99999,99999,99999,99999,99999,99999,99999,99999,99999,99999,99999
16:06:40,1510467600,2017-11-12T06:20:03,0.735,765.7,7.07,4.47,8.51,836.530,2042.540,98.466667,40.10,2.5374,355,23619,1.86486,3.95,46402,,,,,,,,,,,,,,,,,,99999,99999,99999,99999,99999,99999,99999,99999,99999,99999,99999,99999
16:07:10,1510467630,2017-11-12T06:20:33,0.734,766.1,7.06,4.41,8.51,836.590,2042.470,98.833336,40.01,2.5374,355,23619,1.86218,3.95,46398,,,,,,,,,,,,,,,,,,99999,99999,99999,99999,99999,99999,99999,99999,99999,99999,99999,99999
16:07:40,1510467660,2017-11-12T06:21:03,0.735,766.4,7.05,4.45,8.47,836.590,2042.470,98.666664,39.97,2.5375,355,23620,1.86426,3.95,46393,,,,,,,,,,,,,,,,,,99999,99999,99999,99999,99999,99999,99999,99999,99999,99999,99999,99999
16:08:10,1510467690,2017-11-12T06:21:33,0.741,766.8,7.03,4.42,8.47,836.570,2042.410,100.000000,39.86,2.5376,355,23620,1.88035,3.95,46389,,,,,,,,,,,,,,,,,,99999,99999,99999,99999,99999,99999,99999,99999,99999,99999,99999,99999
16:08:40,1510467720,2017-11-12T06:22:03,0.734,767.2,7.01,4.39,8.47,836.570,2042.260,99.733330,40.21,2.5376,355,23616,1.86248,3.95,46384,,,,,,,,,,,,,,,,,,99999,99999,99999,99999,99999,99999,99999,99999,99999,99999,99999,99999
16:09:10,1510467750,2017-11-12T06:22:33,0.741,767.6,7.00,4.41,8.41,836.520,2042.260,101.000000,40.15,2.5377,355,23616,1.87976,3.95,46380,,,,,,,,,,,,,,,,,,99999,99999,99999,99999,99999,99999,99999,99999,99999,99999,99999,99999
16:09:40,1510467780,2017-11-12T06:23:03,0.741,767.9,6.99,4.39,8.43,836.600,2042.200,99.933334,40.40,2.5377,355,23617,1.88065,3.95,46375,,,,,,,,,,,,,,,,,,99999,99999,99999,99999,99999,99999,99999,99999,99999,99999,99999,99999
16:10:10,1510467810,2017-11-12T06:23:33,0.739,768.3,6.98,4.35,8.39,836.500,2042.200,97.966667,40.24,2.5378,355,23617,1.87588,3.95,46371,,,,,,,,,,,,,,,,,,99999,99999,99999,99999,99999,99999,99999,99999,99999,99999,99999,99999
16:10:40,1510467840,2017-11-12T06:24:03,0.738,768.7,6.96,4.34,8.38,836.450,2042.140,99.766670,40.50,2.5379,355,23615,1.87200,3.95,46367,,,,,,,,,,,,,,,,,,99999,99999,99999,99999,99999,99999,99999,99999,99999,99999,99999,99999
16:11:10,1510467870,2017-11-12T06:24:33,0.737,769.0,6.94,4.33,8.38,836.480,2042.100,100.016670,40.43,2.5380,355,23614,1.87140,3.95,46362,,,,,,,,,,,,,,,,,,99999,99999,99999,99999,99999,99999,99999,99999,99999,99999,99999,99999
16:11:40,1510467900,2017-11-12T06:25:03,0.739,769.4,6.94,4.33,8.36,836.540,2042.100,99.650002,40.48,2.5380,355,23615,1.87677,3.95,46358,,,,,,,,,,,,,,,,,,99999,99999,99999,99999,99999,99999,99999,99999,99999,99999,99999,99999
16:12:10,1510467930,2017-11-12T06:25:33,0.737,769.8,6.93,4.31,8.35,836.460,2042.030,98.949997,40.58,2.5380,355,23617,1.86932,3.95,46353,,,,,,,,,,,,,,,,,,99999,99999,99999,99999,99999,99999,99999,99999,99999,99999,99999,99999
16:12:40,1510467960,2017-11-12T06:26:03,0.741,770.1,6.92,4.31,8.35,836.490,2042.030,99.533333,40.58,2.5381,355,23616,1.88185,3.95,46349,,,,,,,,,,,,,,,,,,99999,99999,99999,99999,99999,99999,99999,99999,99999,99999,99999,99999
16:13:10,1510467990,2017-11-12T06:26:33,0.733,770.5,6.90,4.31,8.32,836.470,2041.930,97.400002,40.30,2.5382,355,23614,1.86099,3.95,46344,,,,,,,,,,,,,,,,,,99999,99999,99999,99999,99999,99999,99999,99999,99999,99999,99999,99999
16:13:40,1510468020,2017-11-12T06:27:03,0.736,770.9,6.90,4.28,8.30,836.470,2041.930,99.733330,40.64,2.5382,355,23616,1.86843,3.95,46340,,,,,,,,,,,,,,,,,,99999,99999,99999,99999,99999,99999,99999,99999,99999,99999,99999,99999
16:14:10,1510468050,2017-11-12T06:27:33,0.739,771.2,6.89,4.28,8.30,836.570,2041.930,100.683334,41.67,2.5382,355,23617,1.87677,3.95,46335,,,,,,,,,,,,,,,,,,99999,99999,99999,99999,99999,99999,99999,99999,99999,99999,99999,99999
16:14:40,1510468080,2017-11-12T06:28:03,0.733,771.6,6.88,4.28,8.31,836.630,2041.800,98.866669,41.71,2.5381,355,23614,1.85921,3.95,46331,,,,,,,,,,,,,,,,,,99999,99999,99999,99999,99999,99999,99999,99999,99999,99999,99999,99999
16:15:10,1510468110,2017-11-12T06:28:33,0.740,772.0,6.87,4.28,8.30,836.520,2041.800,100.033333,41.10,2.5382,355,23612,1.87737,3.95,46326,,,,,,,,,,,,,,,,,,99999,99999,99999,99999,99999,99999,99999,99999,99999,99999,99999,99999
16:15:40,1510468140,2017-11-12T06:29:03,0.732,772.3,6.86,4.25,8.26,836.580,2041.760,98.616669,40.97,2.5383,355,23614,1.85773,3.95,46322,,,,,,,,,,,,,,,,,,99999,99999,99999,99999,99999,99999,99999,99999,99999,99999,99999,99999
16:16:10,1510468170,2017-11-12T06:29:33,0.733,772.7,6.83,4.23,8.24,836.560,2041.700,97.449997,41.27,2.5385,355,23614,1.86070,3.95,46317,,,,,,,,,,,,,,,,,,99999,99999,99999,99999,99999,99999,99999,99999,99999,99999,99999,99999
16:16:40,1510468200,2017-11-12T06:30:03,0.738,773.1,6.83,4.25,8.28,836.590,2041.700,98.333336,41.32,2.5385,355,23613,1.87379,3.95,46313,,,,,,,,,,,,,,,,,,99999,99999,99999,99999,99999,99999,99999,99999,99999,99999,99999,99999
16:17:10,1510468230,2017-11-12T06:30:33,0.735,773.4,6.81,4.22,8.22,836.570,2041.640,97.816666,40.83,2.5386,355,23614,1.86515,3.95,46308,,,,,,,,,,,,,,,,,,99999,99999,99999,99999,99999,99999,99999,99999,99999,99999,99999,99999
16:17:40,1510468260,2017-11-12T06:31:03,0.736,773.8,6.80,4.22,8.24,836.540,2041.600,96.866669,40.76,2.5387,355,23612,1.86723,3.95,46304,,,,,,,,,,,,,,,,,,99999,99999,99999,99999,99999,99999,99999,99999,99999,99999,99999,99999
16:18:10,1510468290,2017-11-12T06:31:33,0.737,774.2,6.81,4.21,8.20,836.570,2041.640,99.216667,40.88,2.5386,355,23614,1.87081,3.95,46299,,,,,,,,,,,,,,,,,,99999,99999,99999,99999,99999,99999,99999,99999,99999,99999,99999,99999
16:18:40,1510468320,2017-11-12T06:32:03,0.736,774.6,6.78,4.23,8.20,836.520,2041.530,100.683334,40.93,2.5387,355,23611,1.86813,3.95,46295,,,,,,,,,,,,,,,,,,99999,99999,99999,99999,99999,99999,99999,99999,99999,99999,99999,99999
16:19:10,1510468350,2017-11-12T06:32:33,0.738,774.9,6.79,4.22,8.22,836.620,2041.600,99.550003,40.79,2.5387,355,23612,1.87290,3.95,46290,,,,,,,,,,,,,,,,,,99999,99999,99999,99999,99999,99999,99999,99999,99999,99999,99999,99999
16:19:40,1510468380,2017-11-12T06:33:03,0.731,775.3,6.78,4.21,8.16,836.520,2041.530,98.616669,41.03,2.5387,355,23612,1.85536,3.95,46286,,,,,,,,,,,,,,,,,,99999,99999,99999,99999,99999,99999,99999,99999,99999,99999,99999,99999
16:20:10,1510468410,2017-11-12T06:33:33,0.739,775.7,6.78,4.19,8.18,836.600,2041.530,100.316666,41.07,2.5387,355,23611,1.87677,3.95,46281,,,,,,,,,,,,,,,,,,99999,99999,99999,99999,99999,99999,99999,99999,99999,99999,99999,99999
16:20:40,1510468440,2017-11-12T06:34:03,0.733,776.0,6.76,4.21,8.18,836.600,2041.470,99.833336,41.36,2.5388,355,23612,1.86010,3.95,46277,,,,,,,,,,,,,,,,,,99999,99999,99999,99999,99999,99999,99999,99999,99999,99999,99999,99999
16:21:10,1510468470,2017-11-12T06:34:33,0.739,776.4,6.76,4.19,8.11,836.630,2041.470,100.333336,41.48,2.5388,355,23611,1.87737,3.95,46272,,,,,,,,,,,,,,,,,,99999,99999,99999,99999,99999,99999,99999,99999,99999,99999,99999,99999
16:21:40,1510468500,2017-11-12T06:35:03,0.739,776.8,6.74,4.18,8.15,836.580,2041.370,100.500000,41.16,2.5389,355,23610,1.87558,3.95,46268,,,,,,,,,,,,,,,,,,99999,99999,99999,99999,99999,99999,99999,99999,99999,99999,99999,99999
16:22:10,1510468530,2017-11-12T06:35:33,0.738,777.1,6.73,4.16,8.16,836.690,2041.300,99.800003,41.23,2.5389,355,23608,1.87319,3.95,46263,,,,,,,,,,,,,,,,,,99999,99999,99999,99999,99999,99999,99999,99999,99999,99999,99999,99999
16:22:40,1510468560,2017-11-12T06:36:03,0.735,777.5,6.72,4.17,8.15,836.690,2041.300,100.183334,41.35,2.5390,355,23610,1.86545,3.95,46259,,,,,,,,,,,,,,,,,,99999,99999,99999,99999,99999,99999,99999,99999,99999,99999,99999,99999
16:23:10,1510468590,2017-11-12T06:36:33,0.740,777.9,6.71,4.11,8.14,836.670,2041.260,99.316666,40.95,2.5391,355,23611,1.87946,3.95,46254,,,,,,,,,,,,,,,,,,99999,99999,99999,99999,99999,99999,99999,99999,99999,99999,99999,99999
16:23:40,1510468620,2017-11-12T06:37:03,0.739,778.2,6.69,4.11,8.09,836.650,2041.200,100.216667,40.89,2.5392,355,23611,1.87767,3.95,46250,,,,,,,,,,,,,,,,,,99999,99999,99999,99999,99999,99999,99999,99999,99999,99999,99999,99999
16:24:10,1510468650,2017-11-12T06:37:33,0.734,778.6,6.68,4.10,8.09,836.700,2041.200,99.183334,40.98,2.5393,355,23606,1.86456,3.95,46245,,,,,,,,,,,,,,,,,,99999,99999,99999,99999,99999,99999,99999,99999,99999,99999,99999,99999
16:24:40,1510468680,2017-11-12T06:38:03,0.733,779.0,6.67,4.08,8.11,836.680,2041.140,97.533333,41.11,2.5393,355,23606,1.86099,3.95,46241,,,,,,,,,,,,,,,,,,99999,99999,99999,99999,99999,99999,99999,99999,99999,99999,99999,99999
16:25:10,1510468710,2017-11-12T06:38:33,0.731,779.3,6.65,4.06,8.07,836.630,2041.100,98.433334,41.03,2.5394,355,23608,1.85743,3.95,46236,,,,,,,,,,,,,,,,,,99999,99999,99999,99999,99999,99999,99999,99999,99999,99999,99999,99999
16:25:40,1510468740,2017-11-12T06:39:03,0.734,779.7,6.63,4.06,8.09,836.740,2041.030,98.766670,41.14,2.5395,355,23606,1.86486,3.95,46232,,,,,,,,,,,,,,,,,,99999,99999,99999,99999,99999,99999,99999,99999,99999,99999,99999,99999
16:26:10,1510468770,2017-11-12T06:39:33,0.737,780.1,6.63,4.08,8.09,836.690,2041.030,99.800003,41.26,2.5395,355,23608,1.87200,3.95,46228,,,,,,,,,,,,,,,,,,99999,99999,99999,99999,99999,99999,99999,99999,99999,99999,99999,99999
16:26:40,1510468800,2017-11-12T06:40:03,0.738,780.4,6.63,4.06,8.10,836.710,2041.030,100.783333,41.03,2.5395,355,23607,1.87528,3.95,46223,,,,,,,,,,,,,,,,,,99999,99999,99999,99999,99999,99999,99999,99999,99999,99999,99999,99999
16:27:10,1510468830,2017-11-12T06:40:33,0.739,780.8,6.62,4.05,8.02,836.740,2040.930,99.833336,40.88,2.5395,355,23608,1.87558,3.95,46219,,,,,,,,,,,,,,,,,,99999,99999,99999,99999,99999,99999,99999,99999,99999,99999,99999,99999
16:27:40,1510468860,2017-11-12T06:41:03,0.739,781.2,6.61,4.08,8.03,836.690,2040.930,99.983330,40.84,2.5396,355,23606,1.87588,3.95,46214,,,,,,,,,,,,,,,,,,99999,99999,99999,99999,99999,99999,99999,99999,99999,99999,99999,99999
16:28:10,1510468890,2017-11-12T06:41:33,0.736,781.5,6.60,4.05,8.03,836.690,2040.870,99.966667,40.67,2.5396,355,23605,1.86902,3.95,46210,,,,,,,,,,,,,,,,,,99999,99999,99999,99999,99999,99999,99999,99999,99999,99999,99999,99999
16:28:40,1510468920,2017-11-12T06:42:03,0.730,781.9,6.60,4.03,8.02,836.690,2040.870,99.599998,40.76,2.5396,355,23608,1.85447,3.95,46205,,,,,,,,,,,,,,,,,,99999,99999,99999,99999,99999,99999,99999,99999,99999,99999,99999,99999
16:29:10,1510468950,2017-11-12T06:42:33,0.731,782.3,6.60,4.04,7.99,836.690,2040.870,98.366669,40.85,2.5396,355,23606,1.85654,3.95,46201,,,,,,,,,,,,,,,,,,99999,99999,99999,99999,99999,99999,99999,99999,99999,99999,99999,99999
16:29:40,1510468980,2017-11-12T06:43:03,0.730,782.6,6.60,4.05,8.03,836.720,2040.870,97.583336,40.82,2.5396,355,23608,1.85506,3.95,46196,,,,,,,,,,,,,,,,,,99999,99999,99999,99999,99999,99999,99999,99999,99999,99999,99999,99999
16:30:10,1510469010,2017-11-12T06:43:33,0.732,783.0,6.60,4.08,8.02,836.720,2040.870,97.949997,41.14,2.5396,355,23606,1.85802,3.95,46192,,,,,,,,,,,,,,,,,,99999,99999,99999,99999,99999,99999,99999,99999,99999,99999,99999,99999
16:30:40,1510469040,2017-11-12T06:44:03,0.731,783.4,6.60,4.04,7.99,836.690,2040.870,99.116669,41.32,2.5396,355,23607,1.85565,3.94,46187,,,,,,,,,,,,,,,,,,99999,99999,99999,99999,99999,99999,99999,99999,99999,99999,99999,99999
16:31:10,1510469070,2017-11-12T06:44:33,0.739,783.7,6.61,4.08,8.06,836.690,2040.930,101.316666,41.48,2.5395,355,23606,1.87558,3.95,46183,,,,,,,,,,,,,,,,,,99999,99999,99999,99999,99999,99999,99999,99999,99999,99999,99999,99999
16:31:40,1510469100,2017-11-12T06:45:03,0.730,784.1,6.61,4.03,8.06,836.710,2040.930,98.099998,41.69,2.5395,355,23608,1.85358,3.94,46178,,,,,,,,,,,,,,,,,,99999,99999,99999,99999,99999,99999,99999,99999,99999,99999,99999,99999
16:32:10,1510469130,2017-11-12T06:45:33,0.735,784.5,6.61,4.03,8.07,836.710,2040.930,99.750000,41.31,2.5395,355,23608,1.86604,3.94,46174,,,,,,,,,,,,,,,,,,99999,99999,99999,99999,99999,99999,99999,99999,99999,99999,99999,99999
16:32:40,1510469160,2017-11-12T06:46:03,0.739,784.8,6.61,4.05,8.01,836.740,2040.930,100.466667,41.24,2.5395,355,23608,1.87558,3.94,46169,,,,,,,,,,,,,,,,,,99999,99999,99999,99999,99999,99999,99999,99999,99999,99999,99999,99999
16:33:10,1510469190,2017-11-12T06:46:33,0.739,785.2,6.60,4.05,8.02,836.720,2040.870,100.349998,41.33,2.5396,355,23607,1.87558,3.94,46165,,,,,,,,,,,,,,,,,,99999,99999,99999,99999,99999,99999,99999,99999,99999,99999,99999,99999
16:33:40,1510469220,2017-11-12T06:47:03,0.731,785.6,6.60,4.03,8.02,836.720,2040.870,98.500000,41.42,2.5396,355,23607,1.85624,3.94,46160,,,,,,,,,,,,,,,,,,99999,99999,99999,99999,99999,99999,99999,99999,99999,99999,99999,99999
16:34:10,1510469250,2017-11-12T06:47:33,0.738,785.9,6.60,4.01,8.02,836.690,2040.870,100.116669,41.70,2.5395,355,23606,1.87528,3.94,46156,,,,,,,,,,,,,,,,,,99999,99999,99999,99999,99999,99999,99999,99999,99999,99999,99999,99999
16:34:40,1510469280,2017-11-12T06:48:03,0.730,786.3,6.60,4.00,8.02,836.640,2040.870,98.316666,41.42,2.5396,355,23606,1.85417,3.94,46151,,,,,,,,,,,,,,,,,,99999,99999,99999,99999,99999,99999,99999,99999,99999,99999,99999,99999
16:35:10,1510469310,2017-11-12T06:48:33,0.735,786.7,6.59,4.02,7.99,836.690,2040.870,100.449997,41.45,2.5396,355,23603,1.86575,3.94,46147,,,,,,,,,,,,,,,,,,99999,99999,99999,99999,99999,99999,99999,99999,99999,99999,99999,99999
16:35:40,1510469340,2017-11-12T06:49:03,0.738,787.0,6.60,3.99,7.99,836.740,2040.870,100.116669,41.30,2.5396,355,23606,1.87409,3.94,46142,,,,,,,,,,,,,,,,,,99999,99999,99999,99999,99999,99999,99999,99999,99999,99999,99999,99999
16:36:10,1510469370,2017-11-12T06:49:33,0.738,787.4,6.57,4.01,8.01,836.690,2040.800,100.383331,41.36,2.5398,355,23604,1.87349,3.94,46138,,,,,,,,,,,,,,,,,,99999,99999,99999,99999,99999,99999,99999,99999,99999,99999,99999,99999
16:36:40,1510469400,2017-11-12T06:50:03,0.738,787.8,6.57,4.01,7.97,836.750,2040.800,100.066666,41.29,2.5398,355,23604,1.87498,3.94,46134,,,,,,,,,,,,,,,,,,99999,99999,99999,99999,99999,99999,99999,99999,99999,99999,99999,99999
16:37:10,1510469430,2017-11-12T06:50:33,0.734,788.2,6.58,3.99,8.01,836.720,2040.800,99.833336,41.33,2.5397,355,23604,1.86486,3.94,46129,,,,,,,,,,,,,,,,,,99999,99999,99999,99999,99999,99999,99999,99999,99999,99999,99999,99999
16:37:40,1510469460,2017-11-12T06:51:03,0.730,788.5,6.56,3.97,7.99,836.650,2040.760,97.883331,41.51,2.5398,355,23602,1.85506,3.94,46125,,,,,,,,,,,,,,,,,,99999,99999,99999,99999,99999,99999,99999,99999,99999,99999,99999,99999
16:38:10,1510469490,2017-11-12T06:51:33,0.733,788.9,6.56,3.97,7.95,836.680,2040.760,100.650002,41.43,2.5398,355,23602,1.86248,3.94,46120,,,,,,,,,,,,,,,,,,99999,99999,99999,99999,99999,99999,99999,99999,99999,99999,99999,99999
16:38:40,1510469520,2017-11-12T06:52:03,0.738,789.3,6.56,3.99,7.94,836.650,2040.760,99.633331,41.46,2.5398,355,23606,1.87468,3.94,46116,,,,,,,,,,,,,,,,,,99999,99999,99999,99999,99999,99999,99999,99999,99999,99999,99999,99999
16:39:10,1510469550,2017-11-12T06:52:33,0.731,789.6,6.56,3.96,7.97,836.700,2040.760,99.266670,41.36,2.5398,355,23603,1.85624,3.94,46111,,,,,,,,,,,,,,,,,,99999,99999,99999,99999,99999,99999,99999,99999,99999,99999,99999,99999
16:39:40,1510469580,2017-11-12T06:53:03,0.731,790.0,6.55,3.98,7.94,836.650,2040.700,98.816666,41.25,2.5398,355,23606,1.85565,3.94,46107,,,,,,,,,,,,,,,,,,99999,99999,99999,99999,99999,99999,99999,99999,99999,99999,99999,99999
16:40:10,1510469610,2017-11-12T06:53:33,0.731,790.4,6.54,3.97,7.99,836.730,2040.700,98.666664,41.63,2.5399,355,23603,1.85565,3.94,46102,,,,,,,,,,,,,,,,,,99999,99999,99999,99999,99999,99999,99999,99999,99999,99999,99999,99999
16:40:40,1510469640,2017-11-12T06:54:03,0.729,790.7,6.55,3.96,7.95,836.680,2040.700,99.483330,41.76,2.5398,355,23603,1.85180,3.94,46098,,,,,,,,,,,,,,,,,,99999,99999,99999,99999,99999,99999,99999,99999,99999,99999,99999,99999
16:41:10,1510469670,2017-11-12T06:54:33,0.730,791.1,6.54,3.96,7.95,836.710,2040.700,98.216667,41.59,2.5399,355,23603,1.85387,3.94,46093,,,,,,,,,,,,,,,,,,99999,99999,99999,99999,99999,99999,99999,99999,99999,99999,99999,99999
16:41:40,1510469700,2017-11-12T06:55:03,0.736,791.5,6.54,3.99,7.91,836.650,2040.700,101.216667,42.05,2.5399,355,23602,1.87051,3.94,46089,,,,,,,,,,,,,,,,,,99999,99999,99999,99999,99999,99999,99999,99999,99999,99999,99999,99999
16:42:10,1510469730,2017-11-12T06:55:33,0.731,791.8,6.55,3.95,7.94,836.650,2040.700,98.250000,41.64,2.5398,355,23603,1.85595,3.94,46084,,,,,,,,,,,,,,,,,,99999,99999,99999,99999,99999,99999,99999,99999,99999,99999,99999,99999
16:42:40,1510469760,2017-11-12T06:56:03,0.730,792.2,6.54,3.96,7.94,836.710,2040.700,98.016670,41.84,2.5399,355,23604,1.85536,3.94,46080,,,,,,,,,,,,,,,,,,99999,99999,99999,99999,99999,99999,99999,99999,99999,99999,99999,99999
16:43:10,1510469790,2017-11-12T06:56:33,0.739,792.6,6.54,3.97,7.91,836.790,2040.700,99.433334,41.85,2.5399,355,23603,1.87618,3.94,46075,,,,,,,,,,,,,,,,,,99999,99999,99999,99999,99999,99999,99999,99999,99999,99999,99999,99999
16:43:40,1510469820,2017-11-12T06:57:03,0.731,792.9,6.54,3.93,7.94,836.760,2040.700,97.533333,41.94,2.5399,355,23603,1.85714,3.94,46071,,,,,,,,,,,,,,,,,,99999,99999,99999,99999,99999,99999,99999,99999,99999,99999,99999,99999
16:44:10,1510469850,2017-11-12T06:57:33,0.734,793.3,6.55,3.96,7.95,836.730,2040.700,98.516670,42.19,2.5398,355,23603,1.86426,3.94,46066,,,,,,,,,,,,,,,,,,99999,99999,99999,99999,99999,99999,99999,99999,99999,99999,99999,99999
16:44:40,1510469880,2017-11-12T06:58:03,0.738,793.7,6.55,3.96,7.94,836.700,2040.700,99.933334,41.75,2.5398,355,23604,1.87528,3.94,46062,,,,,,,,,,,,,,,,,,99999,99999,99999,99999,99999,99999,99999,99999,99999,99999,99999,99999
16:45:10,1510469910,2017-11-12T06:58:33,0.735,794.0,6.55,3.98,7.94,836.760,2040.700,100.883331,41.64,2.5398,355,23602,1.86634,3.94,46057,,,,,,,,,,,,,,,,,,99999,99999,99999,99999,99999,99999,99999,99999,99999,99999,99999,99999
16:45:40,1510469940,2017-11-12T06:59:03,0.731,794.4,6.55,3.97,7.93,836.810,2040.700,97.483330,41.53,2.5398,355,23603,1.85624,3.94,46053,,,,,,,,,,,,,,,,,,99999,99999,99999,99999,99999,99999,99999,99999,99999,99999,99999,99999
16:46:10,1510469970,2017-11-12T06:59:33,0.730,794.8,6.56,3.99,7.99,836.780,2040.760,98.733330,41.42,2.5398,355,23606,1.85328,3.94,46048,,,,,,,,,,,,,,,,,,99999,99999,99999,99999,99999,99999,99999,99999,99999,99999,99999,99999
16:46:40,1510470000,2017-11-12T07:00:03,0.733,795.1,6.56,3.98,7.97,836.780,2040.760,99.500000,41.17,2.5398,355,23603,1.86188,3.94,46044,,,,,,,,,,,,,,,,,,99999,99999,99999,99999,99999,99999,99999,99999,99999,99999,99999,99999
16:47:10,1510470030,2017-11-12T07:00:33,0.738,795.5,6.56,3.98,7.95,836.780,2040.760,100.516670,41.14,2.5398,355,23605,1.87349,3.94,46039,,,,,,,,,,,,,,,,,,99999,99999,99999,99999,99999,99999,99999,99999,99999,99999,99999,99999
16:47:40,1510470060,2017-11-12T07:01:03,0.737,795.9,6.58,3.96,8.02,836.830,2040.800,100.066666,41.36,2.5397,355,23603,1.87051,3.94,46035,,,,,,,,,,,,,,,,,,99999,99999,99999,99999,99999,99999,99999,99999,99999,99999,99999,99999
16:48:10,1510470090,2017-11-12T07:01:33,0.735,796.2,6.59,3.99,7.97,836.880,2040.870,97.833336,41.28,2.5397,355,23604,1.86604,3.94,46031,,,,,,,,,,,,,,,,,,99999,99999,99999,99999,99999,99999,99999,99999,99999,99999,99999,99999
16:48:40,1510470120,2017-11-12T07:02:03,0.730,796.6,6.59,4.01,8.02,836.800,2040.870,98.983330,41.35,2.5397,355,23608,1.85506,3.94,46026,,,,,,,,,,,,,,,,,,99999,99999,99999,99999,99999,99999,99999,99999,99999,99999,99999,99999
16:49:10,1510470150,2017-11-12T07:02:33,0.739,797.0,6.59,4.02,8.01,836.800,2040.870,99.633331,41.26,2.5397,355,23605,1.87588,3.94,46022,,,,,,,,,,,,,,,,,,99999,99999,99999,99999,99999,99999,99999,99999,99999,99999,99999,99999
16:49:40,1510470180,2017-11-12T07:03:03,0.736,797.3,6.60,4.01,7.97,836.820,2040.870,98.849998,41.25,2.5396,355,23604,1.86932,3.94,46017,,,,,,,,,,,,,,,,,,99999,99999,99999,99999,99999,99999,99999,99999,99999,99999,99999,99999
16:50:10,1510470210,2017-11-12T07:03:33,0.731,797.7,6.61,3.99,8.01,836.770,2040.930,98.650002,41.46,2.5395,355,23608,1.85536,3.94,46013,,,,,,,,,,,,,,,,,,99999,99999,99999,99999,99999,99999,99999,99999,99999,99999,99999,99999
16:50:40,1510470240,2017-11-12T07:04:03,0.734,798.1,6.61,3.99,8.02,836.820,2040.930,98.833336,41.31,2.5395,355,23606,1.86367,3.94,46008,,,,,,,,,,,,,,,,,,99999,99999,99999,99999,99999,99999,99999,99999,99999,99999,99999,99999
16:51:10,1510470270,2017-11-12T07:04:33,0.737,798.4,6.61,4.00,8.01,836.740,2040.930,100.316666,41.13,2.5396,355,23607,1.87290,3.94,46004,,,,,,,,,,,,,,,,,,99999,99999,99999,99999,99999,99999,99999,99999,99999,99999,99999,99999
16:51:40,1510470300,2017-11-12T07:05:03,0.737,798.8,6.60,4.00,8.01,836.770,2040.870,99.550003,41.19,2.5396,355,23606,1.87260,3.94,45999,,,,,,,,,,,,,,,,,,99999,99999,99999,99999,99999,99999,99999,99999,99999,99999,99999,99999
16:52:10,1510470330,2017-11-12T07:05:33,0.735,799.2,6.61,3.98,8.01,836.770,2040.930,97.783333,41.17,2.5396,355,23605,1.86604,3.94,45995,,,,,,,,,,,,,,,,,,99999,99999,99999,99999,99999,99999,99999,99999,99999,99999,99999,99999
16:52:40,1510470360,2017-11-12T07:06:03,0.731,799.5,6.61,3.99,7.99,836.840,2040.930,99.349998,41.08,2.5396,355,23605,1.85536,3.94,45990,,,,,,,,,,,,,,,,,,99999,99999,99999,99999,99999,99999,99999,99999,99999,99999,99999,99999
16:53:10,1510470390,2017-11-12T07:06:33,0.737,799.9,6.61,3.99,8.02,836.790,2040.930,99.183334,41.10,2.5396,355,23608,1.87230,3.94,45986,,,,,,,,,,,,,,,,,,99999,99999,99999,99999,99999,99999,99999,99999,99999,99999,99999,99999
16:53:40,1510470420,2017-11-12T07:07:03,0.734,800.3,6.61,3.99,8.02,836.820,2040.930,99.816666,41.23,2.5395,355,23606,1.86278,3.94,45981,,,,,,,,,,,,,,,,,,99999,99999,99999,99999,99999,99999,99999,99999,99999,99999,99999,99999
16:54:10,1510470450,2017-11-12T07:07:33,0.734,800.6,6.61,3.97,8.06,836.770,2040.930,98.916664,41.34,2.5395,355,23604,1.86367,3.94,45977,,,,,,,,,,,,,,,,,,99999,99999,99999,99999,99999,99999,99999,99999,99999,99999,99999,99999
16:54:40,1510470480,2017-11-12T07:08:03,0.739,801.0,6.62,3.99,8.03,836.770,2040.930,100.550003,41.64,2.5394,355,23604,1.87737,3.94,45972,,,,,,,,,,,,,,,,,,99999,99999,99999,99999,99999,99999,99999,99999,99999,99999,99999,99999
16:55:10,1510470510,2017-11-12T07:08:33,0.731,801.4,6.61,3.97,8.02,836.820,2040.930,97.800003,41.66,2.5395,355,23605,1.85624,3.94,45968,,,,,,,,,,,,,,,,,,99999,99999,99999,99999,99999,99999,99999,99999,99999,99999,99999,99999
16:55:40,1510470540,2017-11-12T07:09:03,0.734,801.7,6.61,4.00,8.01,836.840,2040.930,99.916664,41.51,2.5395,355,23606,1.86426,3.94,45963,,,,,,,,,,,,,,,,,,99999,99999,99999,99999,99999,99999,99999,99999,99999,99999,99999,99999
16:56:10,1510470570,2017-11-12T07:09:33,0.737,802.1,6.61,3.96,8.02,836.840,2040.930,101.000000,41.69,2.5395,355,23607,1.87170,3.94,45959,,,,,,,,,,,,,,,,,,99999,99999,99999,99999,99999,99999,99999,99999,99999,99999,99999,99999
16:56:40,1510470600,2017-11-12T07:10:03,0.732,802.5,6.60,3.98,8.03,836.820,2040.870,98.816666,41.05,2.5396,355,23606,1.85832,3.94,45954,,,,,,,,,,,,,,,,,,99999,99999,99999,99999,99999,99999,99999,99999,99999,99999,99999,99999
16:57:10,1510470630,2017-11-12T07:10:33,0.736,802.8,6.61,3.96,8.02,836.820,2040.930,100.116669,41.91,2.5395,355,23605,1.86783,3.94,45950,,,,,,,,,,,,,,,,,,99999,99999,99999,99999,99999,99999,99999,99999,99999,99999,99999,99999
16:57:40,1510470660,2017-11-12T07:11:03,0.732,803.2,6.61,3.98,8.02,836.840,2040.930,99.233330,41.96,2.5395,355,23605,1.85862,3.94,45945,,,,,,,,,,,,,,,,,,99999,99999,99999,99999,99999,99999,99999,99999,99999,99999,99999,99999
16:58:10,1510470690,2017-11-12T07:11:33,0.738,803.6,6.60,3.97,7.99,836.820,2040.870,99.416664,41.88,2.5395,355,23604,1.87349,3.94,45941,,,,,,,,,,,,,,,,,,99999,99999,99999,99999,99999,99999,99999,99999,99999,99999,99999,99999
16:58:40,1510470720,2017-11-12T07:12:03,0.731,803.9,6.61,3.98,8.02,836.790,2040.930,98.766670,41.95,2.5395,355,23604,1.85595,3.94,45936,,,,,,,,,,,,,,,,,,99999,99999,99999,99999,99999,99999,99999,99999,99999,99999,99999,99999
16:59:10,1510470750,2017-11-12T07:12:33,0.737,804.3,6.60,3.99,8.02,836.820,2040.870,100.050003,41.99,2.5395,355,23604,1.87140,3.94,45932,,,,,,,,,,,,,,,,,,99999,99999,99999,99999,99999,99999,99999,99999,99999,99999,99999,99999
16:59:40,1510470780,2017-11-12T07:13:03,0.732,804.7,6.61,4.00,8.02,836.900,2040.930,98.883331,42.30,2.5395,355,23604,1.85891,3.94,45927,,,,,,,,,,,,,,,,,,99999,99999,99999,99999,99999,99999,99999,99999,99999,99999,99999,99999
17:00:10,1510470810,2017-11-12T07:13:33,0.738,805.0,6.61,3.98,8.01,836.900,2040.930,100.233330,42.08,2.5395,355,23604,1.87498,3.94,45923,,,,,,,,,,,,,,,,,,99999,99999,99999,99999,99999,99999,99999,99999,99999,99999,99999,99999
17:00:40,1510470840,2017-11-12T07:14:03,0.731,805.4,6.61,3.94,8.02,836.900,2040.930,98.366669,42.09,2.5395,355,23604,1.85536,3.94,45918,,,,,,,,,,,,,,,,,,99999,99999,99999,99999,99999,99999,99999,99999,99999,99999,99999,99999
17:01:10,1510470870,2017-11-12T07:14:33,0.739,805.8,6.60,3.96,8.02,836.880,2040.870,100.933334,42.01,2.5395,355,23606,1.87647,3.94,45914,,,,,,,,,,,,,,,,,,99999,99999,99999,99999,99999,99999,99999,99999,99999,99999,99999,99999
17:01:40,1510470900,2017-11-12T07:15:03,0.733,806.1,6.60,3.99,8.02,836.820,2040.870,98.216667,42.27,2.5395,355,23604,1.86188,3.94,45909,,,,,,,,,,,,,,,,,,99999,99999,99999,99999,99999,99999,99999,99999,99999,99999,99999,99999
17:02:10,1510470930,2017-11-12T07:15:33,0.736,806.5,6.60,3.97,8.03,836.900,2040.870,99.616669,42.15,2.5395,355,23605,1.86783,3.94,45905,,,,,,,,,,,,,,,,,,99999,99999,99999,99999,99999,99999,99999,99999,99999,99999,99999,99999
17:02:40,1510470960,2017-11-12T07:16:03,0.735,806.9,6.60,3.95,8.02,836.820,2040.870,99.433334,42.20,2.5395,355,23604,1.86694,3.94,45900,,,,,,,,,,,,,,,,,,99999,99999,99999,99999,99999,99999,99999,99999,99999,99999,99999,99999
17:03:10,1510470990,2017-11-12T07:16:33,0.731,807.2,6.60,3.98,8.02,837.030,2040.870,99.083336,42.24,2.5395,355,23605,1.85595,3.94,45896,,,,,,,,,,,,,,,,,,99999,99999,99999,99999,99999,99999,99999,99999,99999,99999,99999,99999
17:03:40,1510471020,2017-11-12T07:17:03,0.737,807.6,6.60,3.96,8.02,836.950,2040.870,99.966667,42.53,2.5395,355,23604,1.87230,3.94,45891,,,,,,,,,,,,,,,,,,99999,99999,99999,99999,99999,99999,99999,99999,99999,99999,99999,99999
17:04:10,1510471050,2017-11-12T07:17:33,0.738,808.0,6.60,3.97,8.01,836.900,2040.870,100.316666,42.54,2.5395,355,23606,1.87468,3.94,45887,,,,,,,,,,,,,,,,,,99999,99999,99999,99999,99999,99999,99999,99999,99999,99999,99999,99999
17:04:40,1510471080,2017-11-12T07:18:03,0.735,808.3,6.60,3.92,8.02,837.030,2040.870,99.616669,42.36,2.5395,355,23605,1.86634,3.94,45882,,,,,,,,,,,,,,,,,,99999,99999,99999,99999,99999,99999,99999,99999,99999,99999,99999,99999
17:05:10,1510471110,2017-11-12T07:18:33,0.731,808.7,6.58,3.94,7.97,836.980,2040.800,98.116669,41.99,2.5396,355,23606,1.85684,3.94,45878,,,,,,,,,,,,,,,,,,99999,99999,99999,99999,99999,99999,99999,99999,99999,99999,99999,99999
17:05:40,1510471140,2017-11-12T07:19:03,0.730,809.1,6.58,3.93,8.01,837.010,2040.800,98.766670,41.69,2.5396,355,23604,1.85447,3.94,45873,,,,,,,,,,,,,,,,,,99999,99999,99999,99999,99999,99999,99999,99999,99999,99999,99999,99999
17:06:10,1510471170,2017-11-12T07:19:33,0.739,809.5,6.57,3.92,8.01,836.980,2040.800,99.016670,41.68,2.5397,355,23603,1.87737,3.94,45869,,,,,,,,,,,,,,,,,,99999,99999,99999,99999,99999,99999,99999,99999,99999,99999,99999,99999
17:06:40,1510471200,2017-11-12T07:20:03,0.736,809.8,6.56,3.93,7.95,837.070,2040.760,99.833336,41.64,2.5398,355,23604,1.86932,3.94,45864,,,,,,,,,,,,,,,,,,99999,99999,99999,99999,99999,99999,99999,99999,99999,99999,99999,99999
17:07:10,1510471230,2017-11-12T07:20:33,0.730,810.2,6.56,3.94,7.97,837.040,2040.760,98.366669,41.48,2.5398,355,23603,1.85506,3.94,45860,,,,,,,,,,,,,,,,,,99999,99999,99999,99999,99999,99999,99999,99999,99999,99999,99999,99999
17:07:40,1510471260,2017-11-12T07:21:03,0.739,810.6,6.55,3.93,7.95,837.020,2040.700,99.966667,41.53,2.5398,355,23602,1.87707,3.94,45856,,,,,,,,,,,,,,,,,,99999,99999,99999,99999,99999,99999,99999,99999,99999,99999,99999,99999
17:08:10,1510471290,2017-11-12T07:21:33,0.732,810.9,6.55,3.92,7.95,837.040,2040.700,99.683334,41.64,2.5398,355,23602,1.86010,3.94,45851,,,,,,,,,,,,,,,,,,99999,99999,99999,99999,99999,99999,99999,99999,99999,99999,99999,99999
17:08:40,1510471320,2017-11-12T07:22:03,0.732,811.3,6.54,3.88,7.95,837.020,2040.700,97.133331,41.59,2.5399,355,23603,1.85891,3.94,45847,,,,,,,,,,,,,,,,,,99999,99999,99999,99999,99999,99999,99999,99999,99999,99999,99999,99999
17:09:10,1510471350,2017-11-12T07:22:33,0.738,811.7,6.55,3.92,7.95,837.070,2040.700,99.416664,41.54,2.5398,355,23603,1.87558,3.94,45842,,,,,,,,,,,,,,,,,,99999,99999,99999,99999,99999,99999,99999,99999,99999,99999,99999,99999
17:09:40,1510471380,2017-11-12T07:23:03,0.731,812.0,6.53,3.89,7.94,837.070,2040.640,99.599998,41.50,2.5399,355,23601,1.85743,3.94,45838,,,,,,,,,,,,,,,,,,99999,99999,99999,99999,99999,99999,99999,99999,99999,99999,99999,99999
17:10:10,1510471410,2017-11-12T07:23:33,0.733,812.4,6.52,3.89,7.93,837.080,2040.640,98.833336,41.55,2.5400,355,23603,1.86248,3.94,45833,,,,,,,,,,,,,,,,,,99999,99999,99999,99999,99999,99999,99999,99999,99999,99999,99999,99999
17:10:40,1510471440,2017-11-12T07:24:03,0.732,812.8,6.52,3.91,7.93,837.160,2040.640,101.333336,41.34,2.5400,355,23601,1.85921,3.94,45829,,,,,,,,,,,,,,,,,,99999,99999,99999,99999,99999,99999,99999,99999,99999,99999,99999,99999
17:11:10,1510471470,2017-11-12T07:24:33,0.731,813.1,6.51,3.88,7.94,837.050,2040.600,98.816666,41.42,2.5401,355,23605,1.85743,3.94,45824,,,,,,,,,,,,,,,,,,99999,99999,99999,99999,99999,99999,99999,99999,99999,99999,99999,99999
17:11:40,1510471500,2017-11-12T07:25:03,0.735,813.5,6.51,3.90,7.93,837.130,2040.600,98.933334,41.55,2.5400,355,23602,1.86664,3.94,45820,,,,,,,,,,,,,,,,,,99999,99999,99999,99999,99999,99999,99999,99999,99999,99999,99999,99999
17:12:10,1510471530,2017-11-12T07:25:33,0.737,813.9,6.51,3.88,7.93,837.080,2040.600,98.550003,41.69,2.5400,355,23600,1.87170,3.94,45815,,,,,,,,,,,,,,,,,,99999,99999,99999,99999,99999,99999,99999,99999,99999,99999,99999,99999
17:12:40,1510471560,2017-11-12T07:26:03,0.737,814.2,6.51,3.88,7.93,837.110,2040.600,99.766670,41.79,2.5400,355,23604,1.87111,3.94,45811,,,,,,,,,,,,,,,,,,99999,99999,99999,99999,99999,99999,99999,99999,99999,99999,99999,99999
17:13:10,1510471590,2017-11-12T07:26:33,0.737,814.6,6.49,3.89,7.93,837.080,2040.470,99.233330,41.50,2.5401,355,23601,1.87230,3.94,45806,,,,,,,,,,,,,,,,,,99999,99999,99999,99999,99999,99999,99999,99999,99999,99999,99999,99999
17:13:40,1510471620,2017-11-12T07:27:03,0.737,815.0,6.50,3.88,7.89,837.160,2040.600,100.233330,41.61,2.5401,355,23602,1.87200,3.94,45802,,,,,,,,,,,,,,,,,,99999,99999,99999,99999,99999,99999,99999,99999,99999,99999,99999,99999
17:14:10,1510471650,2017-11-12T07:27:33,0.738,815.3,6.50,3.89,7.91,837.130,2040.600,98.733330,41.51,2.5401,355,23602,1.87528,3.94,45797,,,,,,,,,,,,,,,,,,99999,99999,99999,99999,99999,99999,99999,99999,99999,99999,99999,99999
17:14:40,1510471680,2017-11-12T07:28:03,0.738,815.7,6.50,3.85,7.91,837.160,2040.600,99.016670,41.45,2.5401,355,23605,1.87409,3.94,45793,,,,,,,,,,,,,,,,,,99999,99999,99999,99999,99999,99999,99999,99999,99999,99999,99999,99999
17:15:10,1510471710,2017-11-12T07:28:33,0.731,816.1,6.50,3.88,7.88,837.160,2040.600,97.650002,41.72,2.5401,355,23601,1.85654,3.94,45788,,,,,,,,,,,,,,,,,,99999,99999,99999,99999,99999,99999,99999,99999,99999,99999,99999,99999
17:15:40,1510471740,2017-11-12T07:29:03,0.736,816.4,6.50,3.88,7.94,837.110,2040.600,99.900002,41.77,2.5401,355,23601,1.87051,3.94,45784,,,,,,,,,,,,,,,,,,99999,99999,99999,99999,99999,99999,99999,99999,99999,99999,99999,99999
17:16:10,1510471770,2017-11-12T07:29:33,0.729,816.8,6.51,3.88,7.91,837.080,2040.600,99.050003,41.93,2.5400,355,23602,1.85150,3.94,45779,,,,,,,,,,,,,,,,,,99999,99999,99999,99999,99999,99999,99999,99999,99999,99999,99999,99999
17:16:40,1510471800,2017-11-12T07:30:03,0.732,817.2,6.52,3.88,7.91,837.160,2040.640,98.099998,41.91,2.5400,355,23604,1.86010,3.93,45775,,,,,,,,,,,,,,,,,,99999,99999,99999,99999,99999,99999,99999,99999,99999,99999,99999,99999
17:17:10,1510471830,2017-11-12T07:30:33,0.731,817.5,6.52,3.88,7.94,837.180,2040.640,99.366669,41.97,2.5400,355,23604,1.85773,3.94,45770,,,,,,,,,,,,,,,,,,99999,99999,99999,99999,99999,99999,99999,99999,99999,99999,99999,99999
17:17:40,1510471860,2017-11-12T07:31:03,0.738,817.9,6.53,3.90,7.93,837.260,2040.640,100.400002,41.84,2.5399,355,23602,1.87468,3.93,45766,,,,,,,,,,,,,,,,,,99999,99999,99999,99999,99999,99999,99999,99999,99999,99999,99999,99999
17:18:10,1510471890,2017-11-12T07:31:33,0.732,818.3,6.53,3.89,7.91,837.260,2040.640,98.333336,41.86,2.5399,355,23602,1.85980,3.93,45761,,,,,,,,,,,,,,,,,,99999,99999,99999,99999,99999,99999,99999,99999,99999,99999,99999,99999
17:18:40,1510471920,2017-11-12T07:32:03,0.731,818.6,6.55,3.93,7.94,837.200,2040.700,98.949997,41.76,2.5398,355,23603,1.85773,3.93,45757,,,,,,,,,,,,,,,,,,99999,99999,99999,99999,99999,99999,99999,99999,99999,99999,99999,99999
17:19:10,1510471950,2017-11-12T07:32:33,0.737,819.0,6.56,3.93,7.97,837.250,2040.760,100.366669,41.85,2.5398,355,23604,1.87230,3.93,45752,,,,,,,,,,,,,,,,,,99999,99999,99999,99999,99999,99999,99999,99999,99999,99999,99999,99999
17:19:40,1510471980,2017-11-12T07:33:03,0.736,819.4,6.57,3.92,7.95,837.300,2040.800,99.366669,41.73,2.5397,355,23605,1.86992,3.93,45748,,,,,,,,,,,,,,,,,,99999,99999,99999,99999,99999,99999,99999,99999,99999,99999,99999,99999
17:20:10,1510472010,2017-11-12T07:33:33,0.733,819.7,6.58,3.95,7.99,837.190,2040.800,99.033333,41.66,2.5396,355,23603,1.86129,3.93,45743,,,,,,,,,,,,,,,,,,99999,99999,99999,99999,99999,99999,99999,99999,99999,99999,99999,99999
17:20:40,1510472040,2017-11-12T07:34:03,0.734,820.1,6.59,3.95,7.99,837.320,2040.870,99.716667,41.92,2.5396,355,23602,1.86367,3.93,45739,,,,,,,,,,,,,,,,,,99999,99999,99999,99999,99999,99999,99999,99999,99999,99999,99999,99999
17:21:10,1510472070,2017-11-12T07:34:33,0.738,820.5,6.59,3.96,8.01,837.270,2040.870,100.266670,41.64,2.5396,355,23603,1.87319,3.93,45734,,,,,,,,,,,,,,,,,,99999,99999,99999,99999,99999,99999,99999,99999,99999,99999,99999,99999
17:21:40,1510472100,2017-11-12T07:35:03,0.737,820.8,6.60,3.95,8.01,837.220,2040.870,100.016670,41.21,2.5396,355,23605,1.87200,3.93,45730,,,,,,,,,,,,,,,,,,99999,99999,99999,99999,99999,99999,99999,99999,99999,99999,99999,99999
17:22:10,1510472130,2017-11-12T07:35:33,0.731,821.2,6.59,3.97,8.01,837.240,2040.870,98.000000,41.37,2.5397,355,23603,1.85536,3.93,45725,,,,,,,,,,,,,,,,,,99999,99999,99999,99999,99999,99999,99999,99999,99999,99999,99999,99999
17:22:40,1510472160,2017-11-12T07:36:03,0.738,821.6,6.59,3.92,8.06,837.270,2040.870,99.566666,41.27,2.5397,355,23605,1.87319,3.93,45721,,,,,,,,,,,,,,,,,,99999,99999,99999,99999,99999,99999,99999,99999,99999,99999,99999,99999
17:23:10,1510472190,2017-11-12T07:36:33,0.737,821.9,6.59,3.95,8.01,837.290,2040.870,98.683334,41.46,2.5396,355,23605,1.87230,3.93,45716,,,,,,,,,,,,,,,,,,99999,99999,99999,99999,99999,99999,99999,99999,99999,99999,99999,99999
17:23:40,1510472220,2017-11-12T07:37:03,0.736,822.3,6.58,3.95,8.01,837.270,2040.800,98.683334,41.51,2.5397,355,23603,1.86992,3.93,45712,,,,,,,,,,,,,,,,,,99999,99999,99999,99999,99999,99999,99999,99999,99999,99999,99999,99999
17:24:10,1510472250,2017-11-12T07:37:33,0.737,822.7,6.59,3.99,7.97,837.290,2040.870,99.816666,41.26,2.5397,355,23603,1.87140,3.93,45708,,,,,,,,,,,,,,,,,,99999,99999,99999,99999,99999,99999,99999,99999,99999,99999,99999,99999
17:24:40,1510472280,2017-11-12T07:38:03,0.738,823.0,6.59,3.94,8.02,837.240,2040.870,100.683334,41.67,2.5396,355,23603,1.87498,3.93,45703,,,,,,,,,,,,,,,,,,99999,99999,99999,99999,99999,99999,99999,99999,99999,99999,99999,99999
17:25:10,1510472310,2017-11-12T07:38:33,0.729,823.4,6.57,3.92,7.97,837.300,2040.800,98.366669,41.68,2.5397,355,23603,1.85239,3.93,45699,,,,,,,,,,,,,,,,,,99999,99999,99999,99999,99999,99999,99999,99999,99999,99999,99999,99999
17:25:40,1510472340,2017-11-12T07:39:03,0.735,823.8,6.57,3.96,7.94,837.270,2040.800,99.699997,41.67,2.5397,355,23602,1.86604,3.93,45694,,,,,,,,,,,,,,,,,,99999,99999,99999,99999,99999,99999,99999,99999,99999,99999,99999,99999
17:26:10,1510472370,2017-11-12T07:39:33,0.739,824.1,6.58,3.96,7.97,837.220,2040.800,100.583336,41.80,2.5396,355,23603,1.87647,3.93,45690,,,,,,,,,,,,,,,,,,99999,99999,99999,99999,99999,99999,99999,99999,99999,99999,99999,99999
17:26:40,1510472400,2017-11-12T07:40:03,0.736,824.5,6.57,3.94,7.99,837.220,2040.800,99.949997,41.80,2.5397,355,23602,1.86932,3.93,45685,,,,,,,,,,,,,,,,,,99999,99999,99999,99999,99999,99999,99999,99999,99999,99999,99999,99999
17:27:10,1510472430,2017-11-12T07:40:33,0.731,824.9,6.56,3.94,7.99,837.200,2040.760,98.583336,41.93,2.5398,355,23602,1.85595,3.93,45681,,,,,,,,,,,,,,,,,,99999,99999,99999,99999,99999,99999,99999,99999,99999,99999,99999,99999
17:27:40,1510472460,2017-11-12T07:41:03,0.737,825.2,6.55,3.94,7.95,837.250,2040.700,99.699997,41.88,2.5398,355,23603,1.87290,3.93,45676,,,,,,,,,,,,,,,,,,99999,99999,99999,99999,99999,99999,99999,99999,99999,99999,99999,99999
17:28:10,1510472490,2017-11-12T07:41:33,0.731,825.6,6.55,3.95,7.99,837.150,2040.700,98.666664,41.99,2.5398,355,23604,1.85773,3.93,45672,,,,,,,,,,,,,,,,,,99999,99999,99999,99999,99999,99999,99999,99999,99999,99999,99999,99999
17:28:40,1510472520,2017-11-12T07:42:03,0.738,826.0,6.55,3.95,7.97,837.230,2040.700,99.849998,42.04,2.5398,355,23603,1.87498,3.93,45667,,,,,,,,,,,,,,,,,,99999,99999,99999,99999,99999,99999,99999,99999,99999,99999,99999,99999
17:29:10,1510472550,2017-11-12T07:42:33,0.733,826.3,6.55,3.92,7.97,837.280,2040.700,99.366669,42.33,2.5398,355,23601,1.86248,3.93,45663,,,,,,,,,,,,,,,,,,99999,99999,99999,99999,99999,99999,99999,99999,99999,99999,99999,99999
17:29:40,1510472580,2017-11-12T07:43:03,0.730,826.7,6.55,3.92,7.95,837.230,2040.700,97.849998,42.25,2.5398,355,23602,1.85506,3.93,45658,,,,,,,,,,,,,,,,,,99999,99999,99999,99999,99999,99999,99999,99999,99999,99999,99999,99999
17:30:10,1510472610,2017-11-12T07:43:33,0.736,827.1,6.54,3.92,7.95,837.200,2040.700,99.683334,42.50,2.5398,355,23605,1.87051,3.93,45654,,,,,,,,,,,,,,,,,,99999,99999,99999,99999,99999,99999,99999,99999,99999,99999,99999,99999
17:30:40,1510472640,2017-11-12T07:44:03,0.733,827.4,6.54,3.89,7.95,837.230,2040.700,98.966667,42.53,2.5398,355,23603,1.86099,3.93,45649,,,,,,,,,,,,,,,,,,99999,99999,99999,99999,99999,99999,99999,99999,99999,99999,99999,99999
17:31:10,1510472670,2017-11-12T07:44:33,0.732,827.8,6.53,3.92,7.94,837.260,2040.640,99.016670,42.57,2.5399,355,23603,1.86010,3.93,45645,,,,,,,,,,,,,,,,,,99999,99999,99999,99999,99999,99999,99999,99999,99999,99999,99999,99999
17:31:40,1510472700,2017-11-12T07:45:03,0.733,828.2,6.53,3.94,7.94,837.280,2040.640,100.283333,42.67,2.5399,355,23601,1.86129,3.93,45640,,,,,,,,,,,,,,,,,,99999,99999,99999,99999,99999,99999,99999,99999,99999,99999,99999,99999
17:32:10,1510472730,2017-11-12T07:45:33,0.731,828.5,6.52,3.87,7.89,837.290,2040.640,99.050003,42.81,2.5399,355,23603,1.85654,3.93,45636,,,,,,,,,,,,,,,,,,99999,99999,99999,99999,99999,99999,99999,99999,99999,99999,99999,99999
17:32:40,1510472760,2017-11-12T07:46:03,0.736,828.9,6.50,3.88,7.94,837.260,2040.600,98.500000,42.90,2.5401,355,23603,1.86992,3.93,45631,,,,,,,,,,,,,,,,,,99999,99999,99999,99999,99999,99999,99999,99999,99999,99999,99999,99999
17:33:10,1510472790,2017-11-12T07:46:33,0.731,829.3,6.49,3.87,7.89,837.290,2040.470,97.633331,42.82,2.5400,355,23603,1.85773,3.93,45627,,,,,,,,,,,,,,,,,,99999,99999,99999,99999,99999,99999,99999,99999,99999,99999,99999,99999
17:33:40,1510472820,2017-11-12T07:47:03,0.734,829.6,6.49,3.87,7.91,837.350,2040.470,99.916664,42.33,2.5400,355,23602,1.86515,3.93,45622,,,,,,,,,,,,,,,,,,99999,99999,99999,99999,99999,99999,99999,99999,99999,99999,99999,99999
17:34:10,1510472850,2017-11-12T07:47:33,0.736,830.0,6.48,3.82,7.86,837.290,2040.470,100.416664,42.60,2.5401,355,23605,1.87051,3.93,45618,,,,,,,,,,,,,,,,,,99999,99999,99999,99999,99999,99999,99999,99999,99999,99999,99999,99999
17:34:40,1510472880,2017-11-12T07:48:03,0.732,830.4,6.48,3.87,7.91,837.350,2040.470,97.666664,42.43,2.5401,355,23603,1.85862,3.93,45613,,,,,,,,,,,,,,,,,,99999,99999,99999,99999,99999,99999,99999,99999,99999,99999,99999,99999
17:35:10,1510472910,2017-11-12T07:48:33,0.732,830.7,6.48,3.88,7.88,837.270,2040.470,98.516670,42.57,2.5401,355,23599,1.85862,3.93,45609,,,,,,,,,,,,,,,,,,99999,99999,99999,99999,99999,99999,99999,99999,99999,99999,99999,99999
17:35:40,1510472940,2017-11-12T07:49:03,0.730,831.1,6.48,3.84,7.89,837.290,2040.470,98.800003,42.50,2.5401,355,23600,1.85328,3.93,45604,,,,,,,,,,,,,,,,,,99999,99999,99999,99999,99999,99999,99999,99999,99999,99999,99999,99999
17:36:10,1510472970,2017-11-12T07:49:33,0.733,831.5,6.47,3.82,7.86,837.300,2040.430,98.666664,42.40,2.5402,355,23599,1.86070,3.93,45600,,,,,,,,,,,,,,,,,,99999,99999,99999,99999,99999,99999,99999,99999,99999,99999,99999,99999
17:36:40,1510473000,2017-11-12T07:50:03,0.736,831.8,6.46,3.84,7.86,837.350,2040.430,99.333336,42.82,2.5402,355,23600,1.87081,3.93,45595,,,,,,,,,,,,,,,,,,99999,99999,99999,99999,99999,99999,99999,99999,99999,99999,99999,99999
17:37:10,1510473030,2017-11-12T07:50:33,0.739,832.2,6.47,3.82,7.86,837.240,2040.430,100.133331,42.85,2.5401,355,23599,1.87647,3.93,45591,,,,,,,,,,,,,,,,,,99999,99999,99999,99999,99999,99999,99999,99999,99999,99999,99999,99999
17:37:40,1510473060,2017-11-12T07:51:03,0.735,832.6,6.47,3.81,7.88,837.270,2040.430,99.900002,42.89,2.5401,355,23598,1.86575,3.93,45586,,,,,,,,,,,,,,,,,,99999,99999,99999,99999,99999,99999,99999,99999,99999,99999,99999,99999
17:38:10,1510473090,2017-11-12T07:51:33,0.731,833.0,6.46,3.79,7.82,837.240,2040.430,98.266670,42.69,2.5402,355,23601,1.85565,3.93,45582,,,,,,,,,,,,,,,,,,99999,99999,99999,99999,99999,99999,99999,99999,99999,99999,99999,99999
17:38:40,1510473120,2017-11-12T07:52:03,0.737,833.3,6.45,3.81,7.88,837.380,2040.370,99.783333,42.50,2.5403,355,23600,1.87170,3.93,45577,,,,,,,,,,,,,,,,,,99999,99999,99999,99999,99999,99999,99999,99999,99999,99999,99999,99999
17:39:10,1510473150,2017-11-12T07:52:33,0.733,833.7,6.43,3.79,7.81,837.330,2040.300,100.750000,42.60,2.5404,355,23599,1.86158,3.93,45573,,,,,,,,,,,,,,,,,,99999,99999,99999,99999,99999,99999,99999,99999,99999,99999,99999,99999
17:39:40,1510473180,2017-11-12T07:53:03,0.739,834.1,6.43,3.77,7.86,837.380,2040.300,99.550003,42.75,2.5404,355,23600,1.87677,3.93,45568,,,,,,,,,,,,,,,,,,99999,99999,99999,99999,99999,99999,99999,99999,99999,99999,99999,99999
17:40:10,1510473210,2017-11-12T07:53:33,0.734,834.4,6.41,3.79,7.81,837.390,2040.260,98.733330,42.72,2.5405,355,23601,1.86396,3.93,45564,,,,,,,,,,,,,,,,,,99999,99999,99999,99999,99999,99999,99999,99999,99999,99999,99999,99999
17:40:40,1510473240,2017-11-12T07:54:03,0.735,834.8,6.39,3.77,7.81,837.400,2040.200,97.066666,42.92,2.5406,355,23600,1.86723,3.93,45559,,,,,,,,,,,,,,,,,,99999,99999,99999,99999,99999,99999,99999,99999,99999,99999,99999,99999
17:41:10,1510473270,2017-11-12T07:54:33,0.736,835.2,6.39,3.74,7.78,837.450,2040.200,99.750000,43.08,2.5406,355,23595,1.87111,3.93,45555,,,,,,,,,,,,,,,,,,99999,99999,99999,99999,99999,99999,99999,99999,99999,99999,99999,99999
17:41:40,1510473300,2017-11-12T07:55:03,0.739,835.5,6.37,3.74,7.80,837.400,2040.130,99.016670,43.31,2.5407,355,23600,1.87647,3.93,45550,,,,,,,,,,,,,,,,,,99999,99999,99999,99999,99999,99999,99999,99999,99999,99999,99999,99999
17:42:10,1510473330,2017-11-12T07:55:33,0.732,835.9,6.37,3.73,7.82,837.400,2040.130,99.250000,43.29,2.5407,355,23600,1.85921,3.93,45546,,,,,,,,,,,,,,,,,,99999,99999,99999,99999,99999,99999,99999,99999,99999,99999,99999,99999
17:42:40,1510473360,2017-11-12T07:56:03,0.737,836.3,6.36,3.74,7.76,837.430,2040.030,98.699997,43.13,2.5406,355,23600,1.87290,3.93,45542,,,,,,,,,,,,,,,,,,99999,99999,99999,99999,99999,99999,99999,99999,99999,99999,99999,99999
17:43:10,1510473390,2017-11-12T07:56:33,0.734,836.6,6.36,3.72,7.76,837.450,2040.030,98.500000,43.29,2.5406,355,23598,1.86486,3.93,45537,,,,,,,,,,,,,,,,,,99999,99999,99999,99999,99999,99999,99999,99999,99999,99999,99999,99999
17:43:40,1510473420,2017-11-12T07:57:03,0.735,837.0,6.35,3.69,7.72,837.450,2040.030,99.150002,43.32,2.5407,355,23598,1.86813,3.93,45533,,,,,,,,,,,,,,,,,,99999,99999,99999,99999,99999,99999,99999,99999,99999,99999,99999,99999
17:44:10,1510473450,2017-11-12T07:57:33,0.734,837.4,6.32,3.70,7.74,837.430,2039.930,99.916664,43.48,2.5409,355,23598,1.86426,3.93,45528,,,,,,,,,,,,,,,,,,99999,99999,99999,99999,99999,99999,99999,99999,99999,99999,99999,99999
17:44:40,1510473480,2017-11-12T07:58:03,0.736,837.7,6.31,3.70,7.73,837.390,2039.870,98.750000,43.53,2.5409,355,23596,1.86902,3.93,45524,,,,,,,,,,,,,,,,,,99999,99999,99999,99999,99999,99999,99999,99999,99999,99999,99999,99999
17:45:10,1510473510,2017-11-12T07:58:33,0.730,838.1,6.30,3.67,7.76,837.470,2039.870,97.733330,43.53,2.5410,355,23597,1.85387,3.93,45519,,,,,,,,,,,,,,,,,,99999,99999,99999,99999,99999,99999,99999,99999,99999,99999,99999,99999
17:45:40,1510473540,2017-11-12T07:59:03,0.733,838.5,6.30,3.69,7.73,837.470,2039.870,98.166664,43.54,2.5410,355,23594,1.86218,3.93,45515,,,,,,,,,,,,,,,,,,99999,99999,99999,99999,99999,99999,99999,99999,99999,99999,99999,99999
17:46:10,1510473570,2017-11-12T07:59:33,0.735,838.8,6.29,3.65,7.70,837.470,2039.820,100.116669,43.38,2.5410,355,23595,1.86783,3.93,45510,,,,,,,,,,,,,,,,,,99999,99999,99999,99999,99999,99999,99999,99999,99999,99999,99999,99999
17:46:40,1510473600,2017-11-12T08:00:03,0.736,839.2,6.28,3.64,7.70,837.420,2039.820,99.983330,43.37,2.5411,355,23596,1.87051,3.93,45506,,,,,,,,,,,,,,,,,,99999,99999,99999,99999,99999,99999,99999,99999,99999,99999,99999,99999
17:47:10,1510473630,2017-11-12T08:00:33,0.735,839.6,6.26,3.67,7.68,837.420,2039.760,101.466667,43.43,2.5412,355,23594,1.86813,3.93,45501,,,,,,,,,,,,,,,,,,99999,99999,99999,99999,99999,99999,99999,99999,99999,99999,99999,99999
17:47:40,1510473660,2017-11-12T08:01:03,0.733,839.9,6.26,3.66,7.66,837.500,2039.760,98.983330,43.48,2.5412,355,23597,1.86396,3.93,45497,,,,,,,,,,,,,,,,,,99999,99999,99999,99999,99999,99999,99999,99999,99999,99999,99999,99999
17:48:10,1510473690,2017-11-12T08:01:33,0.728,840.3,6.24,3.66,7.64,837.430,2039.700,98.733330,43.18,2.5413,355,23595,1.85121,3.93,45492,,,,,,,,,,,,,,,,,,99999,99999,99999,99999,99999,99999,99999,99999,99999,99999,99999,99999
17:48:40,1510473720,2017-11-12T08:02:03,0.736,840.7,6.24,3.62,7.66,837.530,2039.700,99.599998,43.23,2.5413,355,23595,1.86992,3.93,45488,,,,,,,,,,,,,,,,,,99999,99999,99999,99999,99999,99999,99999,99999,99999,99999,99999,99999
17:49:10,1510473750,2017-11-12T08:02:33,0.729,841.0,6.23,3.62,7.64,837.510,2039.590,97.833336,43.18,2.5413,355,23594,1.85298,3.93,45483,,,,,,,,,,,,,,,,,,99999,99999,99999,99999,99999,99999,99999,99999,99999,99999,99999,99999
17:49:40,1510473780,2017-11-12T08:03:03,0.732,841.4,6.21,3.66,7.62,837.570,2039.530,98.366669,43.56,2.5414,355,23592,1.85980,3.93,45479,,,,,,,,,,,,,,,,,,99999,99999,99999,99999,99999,99999,99999,99999,99999,99999,99999,99999
17:50:10,1510473810,2017-11-12T08:03:33,0.736,841.8,6.20,3.63,7.62,837.520,2039.490,99.800003,43.71,2.5414,355,23592,1.86992,3.93,45474,,,,,,,,,,,,,,,,,,99999,99999,99999,99999,99999,99999,99999,99999,99999,99999,99999,99999
17:50:40,1510473840,2017-11-12T08:04:03,0.736,842.1,6.19,3.59,7.60,837.520,2039.490,101.433334,43.97,2.5415,355,23595,1.86962,3.93,45470,,,,,,,,,,,,,,,,,,99999,99999,99999,99999,99999,99999,99999,99999,99999,99999,99999,99999
17:51:10,1510473870,2017-11-12T08:04:33,0.736,842.5,6.19,3.61,7.59,837.520,2039.490,100.716667,43.93,2.5415,355,23593,1.87021,3.93,45465,,,,,,,,,,,,,,,,,,99999,99999,99999,99999,99999,99999,99999,99999,99999,99999,99999,99999
17:51:40,1510473900,2017-11-12T08:05:03,0.729,842.9,6.18,3.59,7.60,837.550,2039.430,97.733330,43.97,2.5415,355,23591,1.85328,3.93,45461,,,,,,,,,,,,,,,,,,99999,99999,99999,99999,99999,99999,99999,99999,99999,99999,99999,99999
17:52:10,1510473930,2017-11-12T08:05:33,0.733,843.2,6.16,3.59,7.60,837.550,2039.370,99.716667,44.03,2.5416,355,23592,1.86188,3.93,45456,,,,,,,,,,,,,,,,,,99999,99999,99999,99999,99999,99999,99999,99999,99999,99999,99999,99999
17:52:40,1510473960,2017-11-12T08:06:03,0.736,843.6,6.16,3.59,7.57,837.520,2039.370,99.733330,44.04,2.5416,355,23591,1.87170,3.93,45452,,,,,,,,,,,,,,,,,,99999,99999,99999,99999,99999,99999,99999,99999,99999,99999,99999,99999
17:53:10,1510473990,2017-11-12T08:06:33,0.736,844.0,6.15,3.58,7.57,837.500,2039.370,99.116669,44.04,2.5417,355,23591,1.86962,3.93,45447,,,,,,,,,,,,,,,,,,99999,99999,99999,99999,99999,99999,99999,99999,99999,99999,99999,99999
17:53:40,1510474020,2017-11-12T08:07:03,0.730,844.3,6.15,3.61,7.60,837.520,2039.370,97.550003,43.97,2.5417,355,23591,1.85506,3.93,45443,,,,,,,,,,,,,,,,,,99999,99999,99999,99999,99999,99999,99999,99999,99999,99999,99999,99999
17:54:10,1510474050,2017-11-12T08:07:33,0.731,844.7,6.14,3.56,7.59,837.510,2039.320,99.400002,44.02,2.5418,355,23590,1.85862,3.93,45438,,,,,,,,,,,,,,,,,,99999,99999,99999,99999,99999,99999,99999,99999,99999,99999,99999,99999
17:54:40,1510474080,2017-11-12T08:08:03,0.735,845.0,6.13,3.56,7.52,837.510,2039.320,100.233330,43.82,2.5419,355,23590,1.86902,3.93,45434,,,,,,,,,,,,,,,,,,99999,99999,99999,99999,99999,99999,99999,99999,99999,99999,99999,99999
17:55:10,1510474110,2017-11-12T08:08:33,0.734,845.4,6.12,3.57,7.55,837.560,2039.260,98.883331,43.86,2.5419,355,23592,1.86694,3.93,45429,,,,,,,,,,,,,,,,,,99999,99999,99999,99999,99999,99999,99999,99999,99999,99999,99999,99999
17:55:40,1510474140,2017-11-12T08:09:03,0.733,845.8,6.11,3.54,7.52,837.540,2039.260,97.750000,44.05,2.5420,355,23592,1.86218,3.93,45425,,,,,,,,,,,,,,,,,,99999,99999,99999,99999,99999,99999,99999,99999,99999,99999,99999,99999
17:56:10,1510474170,2017-11-12T08:09:33,0.729,846.1,6.10,3.56,7.52,837.560,2039.150,97.716667,44.04,2.5419,355,23589,1.85269,3.93,45421,,,,,,,,,,,,,,,,,,99999,99999,99999,99999,99999,99999,99999,99999,99999,99999,99999,99999
17:56:40,1510474200,2017-11-12T08:10:03,0.729,846.5,6.10,3.55,7.53,837.640,2039.150,97.433334,44.02,2.5419,355,23595,1.85209,3.93,45416,,,,,,,,,,,,,,,,,,99999,99999,99999,99999,99999,99999,99999,99999,99999,99999,99999,99999
17:57:10,1510474230,2017-11-12T08:10:33,0.728,846.9,6.09,3.54,7.53,837.590,2039.090,97.966667,43.95,2.5419,355,23591,1.85091,3.93,45412,,,,,,,,,,,,,,,,,,99999,99999,99999,99999,99999,99999,99999,99999,99999,99999,99999,99999
17:57:40,1510474260,2017-11-12T08:11:03,0.730,847.2,6.09,3.53,7.51,837.670,2039.090,98.166664,44.02,2.5419,355,23590,1.85654,3.93,45407,,,,,,,,,,,,,,,,,,99999,99999,99999,99999,99999,99999,99999,99999,99999,99999,99999,99999
17:58:10,1510474290,2017-11-12T08:11:33,0.734,847.6,6.07,3.50,7.51,837.680,2039.030,98.900002,44.00,2.5420,355,23589,1.86634,3.93,45403,,,,,,,,,,,,,,,,,,99999,99999,99999,99999,99999,99999,99999,99999,99999,99999,99999,99999
17:58:40,1510474320,2017-11-12T08:12:03,0.732,848.0,6.07,3.54,7.45,837.730,2039.030,99.016670,44.07,2.5420,355,23590,1.86070,3.93,45398,,,,,,,,,,,,,,,,,,99999,99999,99999,99999,99999,99999,99999,99999,99999,99999,99999,99999
17:59:10,1510474350,2017-11-12T08:12:33,0.734,848.3,6.07,3.50,7.51,837.650,2039.030,98.533333,44.14,2.5420,355,23589,1.86634,3.93,45394,,,,,,,,,,,,,,,,,,99999,99999,99999,99999,99999,99999,99999,99999,99999,99999,99999,99999
17:59:40,1510474380,2017-11-12T08:13:03,0.730,848.7,6.05,3.50,7.49,837.730,2038.990,99.033333,43.95,2.5422,355,23589,1.85624,3.93,45389,,,,,,,,,,,,,,,,,,99999,99999,99999,99999,99999,99999,99999,99999,99999,99999,99999,99999
18:00:10,1510474410,2017-11-12T08:13:33,0.735,849.1,6.04,3.50,7.47,837.730,2038.990,99.433334,44.11,2.5423,355,23591,1.86932,3.93,45385,,,,,,,,,,,,,,,,,,99999,99999,99999,99999,99999,99999,99999,99999,99999,99999,99999,99999
18:00:40,1510474440,2017-11-12T08:14:03,0.729,849.4,6.03,3.44,7.45,837.740,2038.930,97.216667,44.12,2.5423,355,23588,1.85269,3.93,45380,,,,,,,,,,,,,,,,,,99999,99999,99999,99999,99999,99999,99999,99999,99999,99999,99999,99999
18:01:10,1510474470,2017-11-12T08:14:33,0.733,849.8,6.02,3.44,7.45,837.760,2038.930,99.483330,44.46,2.5424,355,23586,1.86426,3.93,45376,,,,,,,,,,,,,,,,,,99999,99999,99999,99999,99999,99999,99999,99999,99999,99999,99999,99999
18:01:40,1510474500,2017-11-12T08:15:03,0.735,850.2,6.01,3.46,7.43,837.640,2038.870,99.516670,44.56,2.5424,355,23590,1.86753,3.93,45371,,,,,,,,,,,,,,,,,,99999,99999,99999,99999,99999,99999,99999,99999,99999,99999,99999,99999
18:02:10,1510474530,2017-11-12T08:15:33,0.727,850.5,6.01,3.45,7.45,837.660,2038.870,99.033333,44.54,2.5424,355,23587,1.84707,3.93,45367,,,,,,,,,,,,,,,,,,99999,99999,99999,99999,99999,99999,99999,99999,99999,99999,99999,99999
18:02:40,1510474560,2017-11-12T08:16:03,0.735,850.9,6.00,3.44,7.43,837.770,2038.870,99.616669,44.64,2.5425,355,23587,1.86932,3.93,45362,,,,,,,,,,,,,,,,,,99999,99999,99999,99999,99999,99999,99999,99999,99999,99999,99999,99999
18:03:10,1510474590,2017-11-12T08:16:33,0.735,851.3,5.99,3.43,7.41,837.770,2038.820,99.466667,44.68,2.5425,355,23587,1.86783,3.93,45358,,,,,,,,,,,,,,,,,,99999,99999,99999,99999,99999,99999,99999,99999,99999,99999,99999,99999
18:03:40,1510474620,2017-11-12T08:17:03,0.729,851.6,5.98,3.43,7.39,837.670,2038.700,98.183334,44.68,2.5424,355,23588,1.85269,3.93,45354,,,,,,,,,,,,,,,,,,99999,99999,99999,99999,99999,99999,99999,99999,99999,99999,99999,99999
18:04:10,1510474650,2017-11-12T08:17:33,0.733,852.0,5.98,3.43,7.41,837.700,2038.700,98.583336,44.90,2.5424,355,23587,1.86486,3.93,45349,,,,,,,,,,,,,,,,,,99999,99999,99999,99999,99999,99999,99999,99999,99999,99999,99999,99999
18:04:40,1510474680,2017-11-12T08:18:03,0.728,852.4,5.97,3.42,7.39,837.730,2038.700,97.366669,44.75,2.5425,355,23586,1.85209,3.93,45345,,,,,,,,,,,,,,,,,,99999,99999,99999,99999,99999,99999,99999,99999,99999,99999,99999,99999
18:05:10,1510474710,2017-11-12T08:18:33,0.733,852.7,5.97,3.42,7.43,837.730,2038.700,99.066666,44.74,2.5425,355,23589,1.86337,3.93,45340,,,,,,,,,,,,,,,,,,99999,99999,99999,99999,99999,99999,99999,99999,99999,99999,99999,99999
18:05:40,1510474740,2017-11-12T08:19:03,0.728,853.1,5.97,3.40,7.36,837.700,2038.700,98.116669,44.77,2.5425,355,23587,1.84973,3.93,45336,,,,,,,,,,,,,,,,,,99999,99999,99999,99999,99999,99999,99999,99999,99999,99999,99999,99999
18:06:10,1510474770,2017-11-12T08:19:33,0.735,853.5,5.95,3.36,7.36,837.700,2038.650,99.716667,44.70,2.5426,355,23586,1.86872,3.92,45331,,,,,,,,,,,,,,,,,,99999,99999,99999,99999,99999,99999,99999,99999,99999,99999,99999,99999
18:06:40,1510474800,2017-11-12T08:20:03,0.726,853.8,5.95,3.39,7.36,837.700,2038.650,98.133331,44.72,2.5426,355,23585,1.84707,3.92,45327,,,,,,,,,,,,,,,,,,99999,99999,99999,99999,99999,99999,99999,99999,99999,99999,99999,99999
18:07:10,1510474830,2017-11-12T08:20:33,0.732,854.2,5.94,3.40,7.38,837.680,2038.590,98.816666,44.79,2.5427,355,23587,1.86158,3.92,45322,,,,,,,,,,,,,,,,,,99999,99999,99999,99999,99999,99999,99999,99999,99999,99999,99999,99999
18:07:40,1510474860,2017-11-12T08:21:03,0.734,854.6,5.93,3.37,7.33,837.780,2038.590,100.066666,44.78,2.5427,355,23586,1.86723,3.92,45318,,,,,,,,,,,,,,,,,,99999,99999,99999,99999,99999,99999,99999,99999,99999,99999,99999,99999
18:08:10,1510474890,2017-11-12T08:21:33,0.728,854.9,5.92,3.37,7.33,837.660,2038.530,98.116669,44.82,2.5428,355,23586,1.85150,3.92,45313,,,,,,,,,,,,,,,,,,99999,99999,99999,99999,99999,99999,99999,99999,99999,99999,99999,99999
18:08:40,1510474920,2017-11-12T08:22:03,0.729,855.3,5.93,3.36,7.31,837.840,2038.590,99.016670,44.77,2.5427,355,23585,1.85417,3.92,45309,,,,,,,,,,,,,,,,,,99999,99999,99999,99999,99999,99999,99999,99999,99999,99999,99999,99999
18:09:10,1510474950,2017-11-12T08:22:33,0.732,855.7,5.91,3.34,7.33,837.810,2038.530,99.800003,44.75,2.5429,355,23585,1.86070,3.92,45304,,,,,,,,,,,,,,,,,,99999,99999,99999,99999,99999,99999,99999,99999,99999,99999,99999,99999
18:09:40,1510474980,2017-11-12T08:23:03,0.734,856.0,5.90,3.33,7.28,837.740,2038.490,99.183334,44.35,2.5429,355,23587,1.86575,3.92,45300,,,,,,,,,,,,,,,,,,99999,99999,99999,99999,99999,99999,99999,99999,99999,99999,99999,99999
18:10:10,1510475010,2017-11-12T08:23:33,0.734,856.4,5.89,3.34,7.31,837.770,2038.490,100.066666,44.79,2.5430,355,23584,1.86664,3.92,45296,,,,,,,,,,,,,,,,,,99999,99999,99999,99999,99999,99999,99999,99999,99999,99999,99999,99999
18:10:40,1510475040,2017-11-12T08:24:03,0.735,856.8,5.88,3.33,7.33,837.770,2038.430,99.283333,44.69,2.5430,355,23585,1.86932,3.92,45291,,,,,,,,,,,,,,,,,,99999,99999,99999,99999,99999,99999,99999,99999,99999,99999,99999,99999
18:11:10,1510475070,2017-11-12T08:24:33,0.735,857.1,5.87,3.32,7.30,837.700,2038.380,99.316666,44.70,2.5430,355,23585,1.86872,3.92,45287,,,,,,,,,,,,,,,,,,99999,99999,99999,99999,99999,99999,99999,99999,99999,99999,99999,99999
18:11:40,1510475100,2017-11-12T08:25:03,0.727,857.5,5.86,3.32,7.30,837.780,2038.380,98.400002,44.76,2.5431,355,23584,1.84913,3.92,45282,,,,,,,,,,,,,,,,,,99999,99999,99999,99999,99999,99999,99999,99999,99999,99999,99999,99999
18:12:10,1510475130,2017-11-12T08:25:33,0.734,857.9,5.85,3.28,7.28,837.780,2038.260,98.550003,44.73,2.5431,355,23584,1.86604,3.92,45278,,,,,,,,,,,,,,,,,,99999,99999,99999,99999,99999,99999,99999,99999,99999,99999,99999,99999
18:12:40,1510475160,2017-11-12T08:26:03,0.726,858.2,5.84,3.31,7.26,837.810,2038.260,97.266670,44.57,2.5432,355,23583,1.84529,3.92,45273,,,,,,,,,,,,,,,,,,99999,99999,99999,99999,99999,99999,99999,99999,99999,99999,99999,99999
18:13:10,1510475190,2017-11-12T08:26:33,0.734,858.6,5.83,3.27,7.23,837.760,2038.220,99.466667,44.53,2.5432,355,23583,1.86723,3.92,45269,,,,,,,,,,,,,,,,,,99999,99999,99999,99999,99999,99999,99999,99999,99999,99999,99999,99999
18:13:40,1510475220,2017-11-12T08:27:03,0.726,858.9,5.81,3.28,7.24,837.710,2038.150,97.849998,44.57,2.5433,355,23584,1.84588,3.92,45264,,,,,,,,,,,,,,,,,,99999,99999,99999,99999,99999,99999,99999,99999,99999,99999,99999,99999
18:14:10,1510475250,2017-11-12T08:27:33,0.735,859.3,5.78,3.25,7.20,837.710,2038.090,99.099998,44.74,2.5435,355,23583,1.86872,3.92,45260,,,,,,,,,,,,,,,,,,99999,99999,99999,99999,99999,99999,99999,99999,99999,99999,99999,99999
18:14:40,1510475280,2017-11-12T08:28:03,0.729,859.7,5.77,3.26,7.23,837.720,2038.050,97.466667,44.78,2.5436,355,23582,1.85417,3.92,45255,,,,,,,,,,,,,,,,,,99999,99999,99999,99999,99999,99999,99999,99999,99999,99999,99999,99999
18:15:10,1510475310,2017-11-12T08:28:33,0.731,860.0,5.75,3.20,7.18,837.800,2037.990,95.866669,44.80,2.5437,355,23580,1.85832,3.92,45251,,,,,,,,,,,,,,,,,,99999,99999,99999,99999,99999,99999,99999,99999,99999,99999,99999,99999
18:15:40,1510475340,2017-11-12T08:29:03,0.733,860.4,5.74,3.20,7.16,837.750,2037.930,98.816666,44.88,2.5437,355,23578,1.86396,3.92,45246,,,,,,,,,,,,,,,,,,99999,99999,99999,99999,99999,99999,99999,99999,99999,99999,99999,99999
18:16:10,1510475370,2017-11-12T08:29:33,0.726,860.8,5.73,3.15,7.15,837.800,2037.930,97.616669,44.93,2.5438,355,23580,1.84559,3.92,45242,,,,,,,,,,,,,,,,,,99999,99999,99999,99999,99999,99999,99999,99999,99999,99999,99999,99999
18:16:40,1510475400,2017-11-12T08:30:03,0.732,861.1,5.71,3.17,7.14,837.810,2037.820,98.900002,45.00,2.5438,355,23579,1.86129,3.92,45238,,,,,,,,,,,,,,,,,,99999,99999,99999,99999,99999,99999,99999,99999,99999,99999,99999,99999
18:17:10,1510475430,2017-11-12T08:30:33,0.732,861.5,5.70,3.16,7.14,837.760,2037.760,98.783333,45.07,2.5438,355,23578,1.86099,3.92,45233,,,,,,,,,,,,,,,,,,99999,99999,99999,99999,99999,99999,99999,99999,99999,99999,99999,99999
18:17:40,1510475460,2017-11-12T08:31:03,0.726,861.9,5.67,3.14,7.14,837.720,2037.720,97.283333,44.76,2.5441,355,23578,1.84647,3.92,45229,,,,,,,,,,,,,,,,,,99999,99999,99999,99999,99999,99999,99999,99999,99999,99999,99999,99999
18:18:10,1510475490,2017-11-12T08:31:33,0.730,862.2,5.67,3.15,7.09,837.790,2037.720,99.250000,44.74,2.5441,355,23581,1.85743,3.92,45224,,,,,,,,,,,,,,,,,,99999,99999,99999,99999,99999,99999,99999,99999,99999,99999,99999,99999
18:18:40,1510475520,2017-11-12T08:32:03,0.732,862.6,5.66,3.16,7.09,837.770,2037.650,99.916664,44.76,2.5441,355,23579,1.86307,3.92,45220,,,,,,,,,,,,,,,,,,99999,99999,99999,99999,99999,99999,99999,99999,99999,99999,99999,99999
18:19:10,1510475550,2017-11-12T08:32:33,0.723,863.0,5.65,3.15,7.07,837.770,2037.590,98.699997,44.78,2.5441,355,23578,1.83998,3.92,45215,,,,,,,,,,,,,,,,,,99999,99999,99999,99999,99999,99999,99999,99999,99999,99999,99999,99999
18:19:40,1510475580,2017-11-12T08:33:03,0.728,863.3,5.65,3.14,7.09,837.820,2037.590,97.599998,44.99,2.5441,355,23577,1.85180,3.92,45211,,,,,,,,,,,,,,,,,,99999,99999,99999,99999,99999,99999,99999,99999,99999,99999,99999,99999
18:20:10,1510475610,2017-11-12T08:33:33,0.728,863.7,5.66,3.13,7.07,837.820,2037.650,98.716667,45.07,2.5441,355,23579,1.85180,3.92,45206,,,,,,,,,,,,,,,,,,99999,99999,99999,99999,99999,99999,99999,99999,99999,99999,99999,99999
18:20:40,1510475640,2017-11-12T08:34:03,0.731,864.1,5.67,3.15,7.04,837.820,2037.720,98.949997,44.89,2.5441,355,23580,1.85862,3.92,45202,,,,,,,,,,,,,,,,,,99999,99999,99999,99999,99999,99999,99999,99999,99999,99999,99999,99999
18:21:10,1510475670,2017-11-12T08:34:33,0.731,864.4,5.67,3.14,7.09,837.820,2037.720,99.199997,45.03,2.5441,355,23579,1.85921,3.92,45197,,,,,,,,,,,,,,,,,,99999,99999,99999,99999,99999,99999,99999,99999,99999,99999,99999,99999
18:21:40,1510475700,2017-11-12T08:35:03,0.735,864.8,5.69,3.17,7.10,837.840,2037.760,98.966667,45.04,2.5439,355,23578,1.86872,3.92,45193,,,,,,,,,,,,,,,,,,99999,99999,99999,99999,99999,99999,99999,99999,99999,99999,99999,99999
18:22:10,1510475730,2017-11-12T08:35:33,0.734,865.1,5.72,3.20,7.14,837.760,2037.820,97.133331,44.93,2.5437,355,23579,1.86753,3.92,45189,,,,,,,,,,,,,,,,,,99999,99999,99999,99999,99999,99999,99999,99999,99999,99999,99999,99999
18:22:40,1510475760,2017-11-12T08:36:03,0.726,865.5,5.75,3.24,7.14,837.880,2037.990,98.666664,44.79,2.5437,355,23579,1.84559,3.92,45184,,,,,,,,,,,,,,,,,,99999,99999,99999,99999,99999,99999,99999,99999,99999,99999,99999,99999
18:23:10,1510475790,2017-11-12T08:36:33,0.733,865.9,5.77,3.25,7.15,837.820,2038.050,100.083336,44.70,2.5436,355,23580,1.86486,3.92,45180,,,,,,,,,,,,,,,,,,99999,99999,99999,99999,99999,99999,99999,99999,99999,99999,99999,99999
18:23:40,1510475820,2017-11-12T08:37:03,0.732,866.2,5.82,3.24,7.18,837.860,2038.220,98.716667,44.85,2.5433,355,23581,1.86188,3.92,45175,,,,,,,,,,,,,,,,,,99999,99999,99999,99999,99999,99999,99999,99999,99999,99999,99999,99999
18:24:10,1510475850,2017-11-12T08:37:33,0.730,866.6,5.85,3.29,7.20,837.860,2038.260,96.583336,44.84,2.5431,355,23583,1.85624,3.92,45171,,,,,,,,,,,,,,,,,,99999,99999,99999,99999,99999,99999,99999,99999,99999,99999,99999,99999
18:24:40,1510475880,2017-11-12T08:38:03,0.728,867.0,5.89,3.35,7.30,837.870,2038.490,98.033333,44.71,2.5430,355,23583,1.85032,3.92,45166,,,,,,,,,,,,,,,,,,99999,99999,99999,99999,99999,99999,99999,99999,99999,99999,99999,99999
18:25:10,1510475910,2017-11-12T08:38:33,0.734,867.3,5.91,3.37,7.30,837.890,2038.530,99.933334,44.19,2.5429,355,23582,1.86664,3.92,45162,,,,,,,,,,,,,,,,,,99999,99999,99999,99999,99999,99999,99999,99999,99999,99999,99999,99999
18:25:40,1510475940,2017-11-12T08:39:03,0.731,867.7,5.95,3.41,7.30,837.880,2038.650,98.366669,44.60,2.5426,355,23585,1.85862,3.92,45157,,,,,,,,,,,,,,,,,,99999,99999,99999,99999,99999,99999,99999,99999,99999,99999,99999,99999
18:26:10,1510475970,2017-11-12T08:39:33,0.735,868.1,5.99,3.42,7.33,837.930,2038.820,99.566666,44.16,2.5425,355,23586,1.86932,3.92,45153,,,,,,,,,,,,,,,,,,99999,99999,99999,99999,99999,99999,99999,99999,99999,99999,99999,99999
18:26:40,1510476000,2017-11-12T08:40:03,0.736,868.4,6.04,3.41,7.43,837.920,2038.990,99.900002,44.02,2.5423,355,23587,1.87140,3.92,45148,,,,,,,,,,,,,,,,,,99999,99999,99999,99999,99999,99999,99999,99999,99999,99999,99999,99999
18:27:10,1510476030,2017-11-12T08:40:33,0.729,868.8,6.06,3.47,7.44,837.940,2039.030,99.466667,44.19,2.5421,355,23588,1.85239,3.92,45144,,,,,,,,,,,,,,,,,,99999,99999,99999,99999,99999,99999,99999,99999,99999,99999,99999,99999
18:27:40,1510476060,2017-11-12T08:41:03,0.730,869.2,6.10,3.49,7.47,837.900,2039.150,98.800003,44.33,2.5419,355,23589,1.85536,3.92,45139,,,,,,,,,,,,,,,,,,99999,99999,99999,99999,99999,99999,99999,99999,99999,99999,99999,99999
18:28:10,1510476090,2017-11-12T08:41:33,0.727,869.5,6.14,3.52,7.51,837.980,2039.320,99.916664,44.25,2.5417,355,23590,1.84736,3.92,45135,,,,,,,,,,,,,,,,,,99999,99999,99999,99999,99999,99999,99999,99999,99999,99999,99999,99999
18:28:40,1510476120,2017-11-12T08:42:03,0.734,869.9,6.16,3.56,7.55,838.050,2039.370,98.366669,44.46,2.5416,355,23591,1.86664,3.92,45130,,,,,,,,,,,,,,,,,,99999,99999,99999,99999,99999,99999,99999,99999,99999,99999,99999,99999
18:29:10,1510476150,2017-11-12T08:42:33,0.728,870.3,6.20,3.57,7.55,838.010,2039.490,98.550003,44.54,2.5414,355,23593,1.85121,3.92,45126,,,,,,,,,,,,,,,,,,99999,99999,99999,99999,99999,99999,99999,99999,99999,99999,99999,99999
18:29:40,1510476180,2017-11-12T08:43:03,0.729,870.6,6.22,3.59,7.59,838.010,2039.590,98.250000,44.39,2.5413,355,23592,1.85150,3.92,45121,,,,,,,,,,,,,,,,,,99999,99999,99999,99999,99999,99999,99999,99999,99999,99999,99999,99999
18:30:10,1510476210,2017-11-12T08:43:33,0.733,871.0,6.25,3.63,7.60,837.950,2039.700,99.433334,44.28,2.5412,355,23590,1.86307,3.92,45117,,,,,,,,,,,,,,,,,,99999,99999,99999,99999,99999,99999,99999,99999,99999,99999,99999,99999
18:30:40,1510476240,2017-11-12T08:44:03,0.728,871.4,6.26,3.57,7.62,838.000,2039.760,99.583336,44.33,2.5412,355,23593,1.84973,3.92,45112,,,,,,,,,,,,,,,,,,99999,99999,99999,99999,99999,99999,99999,99999,99999,99999,99999,99999
18:31:10,1510476270,2017-11-12T08:44:33,0.737,871.7,6.28,3.64,7.66,837.920,2039.820,100.599998,44.41,2.5411,355,23593,1.87230,3.92,45108,,,,,,,,,,,,,,,,,,99999,99999,99999,99999,99999,99999,99999,99999,99999,99999,99999,99999
18:31:40,1510476300,2017-11-12T08:45:03,0.735,872.1,6.29,3.65,7.66,837.920,2039.820,101.483330,44.48,2.5410,355,23593,1.86694,3.92,45103,,,,,,,,,,,,,,,,,,99999,99999,99999,99999,99999,99999,99999,99999,99999,99999,99999,99999
18:32:10,1510476330,2017-11-12T08:45:33,0.737,872.5,6.30,3.63,7.72,838.010,2039.870,100.400002,44.44,2.5409,355,23593,1.87290,3.92,45099,,,,,,,,,,,,,,,,,,99999,99999,99999,99999,99999,99999,99999,99999,99999,99999,99999,99999
18:32:40,1510476360,2017-11-12T08:46:03,0.736,872.8,6.31,3.67,7.72,837.960,2039.870,99.933334,44.48,2.5408,355,23594,1.87051,3.92,45094,,,,,,,,,,,,,,,,,,99999,99999,99999,99999,99999,99999,99999,99999,99999,99999,99999,99999
18:33:10,1510476390,2017-11-12T08:46:33,0.730,873.2,6.33,3.66,7.72,838.010,2039.970,97.783333,44.49,2.5408,355,23594,1.85387,3.92,45090,,,,,,,,,,,,,,,,,,99999,99999,99999,99999,99999,99999,99999,99999,99999,99999,99999,99999
18:33:40,1510476420,2017-11-12T08:47:03,0.734,873.6,6.33,3.70,7.73,838.030,2039.970,100.650002,44.45,2.5408,355,23597,1.86426,3.92,45085,,,,,,,,,,,,,,,,,,99999,99999,99999,99999,99999,99999,99999,99999,99999,99999,99999,99999
18:34:10,1510476450,2017-11-12T08:47:33,0.731,873.9,6.33,3.69,7.74,838.060,2039.970,98.333336,44.37,2.5408,355,23594,1.85714,3.92,45081,,,,,,,,,,,,,,,,,,99999,99999,99999,99999,99999,99999,99999,99999,99999,99999,99999,99999
18:34:40,1510476480,2017-11-12T08:48:03,0.732,874.3,6.34,3.72,7.74,838.030,2039.990,97.283333,44.43,2.5407,355,23595,1.85980,3.92,45077,,,,,,,,,,,,,,,,,,99999,99999,99999,99999,99999,99999,99999,99999,99999,99999,99999,99999
18:35:10,1510476510,2017-11-12T08:48:33,0.737,874.7,6.35,3.70,7.74,838.130,2040.030,99.066666,44.38,2.5407,355,23593,1.87200,3.92,45072,,,,,,,,,,,,,,,,,,99999,99999,99999,99999,99999,99999,99999,99999,99999,99999,99999,99999
18:35:40,1510476540,2017-11-12T08:49:03,0.736,875.0,6.34,3.70,7.74,838.030,2039.990,99.599998,44.34,2.5407,355,23595,1.87111,3.92,45068,,,,,,,,,,,,,,,,,,99999,99999,99999,99999,99999,99999,99999,99999,99999,99999,99999,99999
18:36:10,1510476570,2017-11-12T08:49:33,0.738,875.4,6.35,3.71,7.73,838.080,2040.030,100.183334,44.38,2.5407,355,23593,1.87498,3.92,45063,,,,,,,,,,,,,,,,,,99999,99999,99999,99999,99999,99999,99999,99999,99999,99999,99999,99999
18:36:40,1510476600,2017-11-12T08:50:03,0.731,875.8,6.35,3.69,7.76,838.060,2040.030,96.383331,44.36,2.5407,355,23594,1.85832,3.92,45059,,,,,,,,,,,,,,,,,,99999,99999,99999,99999,99999,99999,99999,99999,99999,99999,99999,99999
18:37:10,1510476630,2017-11-12T08:50:33,0.738,876.1,6.34,3.72,7.76,838.030,2039.990,99.883331,44.31,2.5407,355,23595,1.87379,3.92,45054,,,,,,,,,,,,,,,,,,99999,99999,99999,99999,99999,99999,99999,99999,99999,99999,99999,99999
18:37:40,1510476660,2017-11-12T08:51:03,0.734,876.5,6.34,3.69,7.70,838.060,2039.990,98.583336,44.34,2.5407,355,23595,1.86367,3.92,45050,,,,,,,,,,,,,,,,,,99999,99999,99999,99999,99999,99999,99999,99999,99999,99999,99999,99999
18:38:10,1510476690,2017-11-12T08:51:33,0.730,876.9,6.33,3.68,7.74,838.030,2039.970,98.116669,44.29,2.5408,355,23595,1.85476,3.92,45045,,,,,,,,,,,,,,,,,,99999,99999,99999,99999,99999,99999,99999,99999,99999,99999,99999,99999
18:38:40,1510476720,2017-11-12T08:52:03,0.730,877.2,6.33,3.69,7.73,838.060,2039.970,98.466667,44.33,2.5408,355,23597,1.85506,3.92,45041,,,,,,,,,,,,,,,,,,99999,99999,99999,99999,99999,99999,99999,99999,99999,99999,99999,99999
18:39:10,1510476750,2017-11-12T08:52:33,0.730,877.6,6.34,3.72,7.72,838.060,2039.990,98.550003,44.27,2.5407,355,23594,1.85387,3.92,45036,,,,,,,,,,,,,,,,,,99999,99999,99999,99999,99999,99999,99999,99999,99999,99999,99999,99999
18:39:40,1510476780,2017-11-12T08:53:03,0.729,878.0,6.33,3.70,7.73,838.030,2039.970,98.266670,44.07,2.5408,355,23594,1.85180,3.92,45032,,,,,,,,,,,,,,,,,,99999,99999,99999,99999,99999,99999,99999,99999,99999,99999,99999,99999
18:40:10,1510476810,2017-11-12T08:53:33,0.730,878.3,6.32,3.69,7.73,838.060,2039.930,97.733330,44.06,2.5408,355,23595,1.85565,3.92,45027,,,,,,,,,,,,,,,,,,99999,99999,99999,99999,99999,99999,99999,99999,99999,99999,99999,99999
18:40:40,1510476840,2017-11-12T08:54:03,0.732,878.7,6.31,3.69,7.73,837.990,2039.870,98.650002,44.11,2.5409,355,23593,1.86040,3.92,45023,,,,,,,,,,,,,,,,,,99999,99999,99999,99999,99999,99999,99999,99999,99999,99999,99999,99999
18:41:10,1510476870,2017-11-12T08:54:33,0.737,879.1,6.31,3.65,7.73,838.010,2039.870,100.199997,44.10,2.5409,355,23595,1.87260,3.92,45018,,,,,,,,,,,,,,,,,,99999,99999,99999,99999,99999,99999,99999,99999,99999,99999,99999,99999
18:41:40,1510476900,2017-11-12T08:55:03,0.731,879.4,6.30,3.68,7.72,838.010,2039.870,97.666664,44.31,2.5409,355,23596,1.85654,3.92,45014,,,,,,,,,,,,,,,,,,99999,99999,99999,99999,99999,99999,99999,99999,99999,99999,99999,99999
18:42:10,1510476930,2017-11-12T08:55:33,0.737,879.8,6.31,3.67,7.72,838.150,2039.870,100.433334,44.21,2.5409,355,23592,1.87230,3.92,45009,,,,,,,,,,,,,,,,,,99999,99999,99999,99999,99999,99999,99999,99999,99999,99999,99999,99999
18:42:40,1510476960,2017-11-12T08:56:03,0.730,880.2,6.29,3.66,7.73,838.000,2039.820,98.500000,44.35,2.5410,355,23592,1.85506,3.92,45005,,,,,,,,,,,,,,,,,,99999,99999,99999,99999,99999,99999,99999,99999,99999,99999,99999,99999
18:43:10,1510476990,2017-11-12T08:56:33,0.732,880.5,6.29,3.65,7.70,838.020,2039.820,97.849998,44.21,2.5410,355,23595,1.85921,3.92,45000,,,,,,,,,,,,,,,,,,99999,99999,99999,99999,99999,99999,99999,99999,99999,99999,99999,99999
18:43:40,1510477020,2017-11-12T08:57:03,0.736,880.9,6.28,3.65,7.65,838.050,2039.820,99.516670,44.31,2.5411,355,23595,1.87021,3.92,44996,,,,,,,,,,,,,,,,,,99999,99999,99999,99999,99999,99999,99999,99999,99999,99999,99999,99999
18:44:10,1510477050,2017-11-12T08:57:33,0.737,881.3,6.27,3.65,7.66,838.030,2039.760,98.500000,44.24,2.5411,355,23596,1.87260,3.92,44991,,,,,,,,,,,,,,,,,,99999,99999,99999,99999,99999,99999,99999,99999,99999,99999,99999,99999
18:44:40,1510477080,2017-11-12T08:58:03,0.732,881.6,6.28,3.64,7.66,838.050,2039.820,99.366669,44.09,2.5411,355,23593,1.86129,3.92,44987,,,,,,,,,,,,,,,,,,99999,99999,99999,99999,99999,99999,99999,99999,99999,99999,99999,99999
18:45:10,1510477110,2017-11-12T08:58:33,0.730,882.0,6.26,3.66,7.66,838.080,2039.760,98.116669,43.92,2.5412,355,23592,1.85565,3.92,44982,,,,,,,,,,,,,,,,,,99999,99999,99999,99999,99999,99999,99999,99999,99999,99999,99999,99999
18:45:40,1510477140,2017-11-12T08:59:03,0.731,882.4,6.26,3.63,7.64,838.130,2039.760,98.216667,43.99,2.5412,355,23595,1.85773,3.92,44978,,,,,,,,,,,,,,,,,,99999,99999,99999,99999,99999,99999,99999,99999,99999,99999,99999,99999
18:46:10,1510477170,2017-11-12T08:59:33,0.736,882.7,6.25,3.63,7.64,838.060,2039.700,100.400002,43.95,2.5412,355,23594,1.87111,3.92,44973,,,,,,,,,,,,,,,,,,99999,99999,99999,99999,99999,99999,99999,99999,99999,99999,99999,99999
18:46:40,1510477200,2017-11-12T09:00:03,0.730,883.1,6.26,3.62,7.62,838.180,2039.760,99.550003,43.93,2.5412,355,23594,1.85595,3.92,44969,,,,,,,,,,,,,,,,,,99999,99999,99999,99999,99999,99999,99999,99999,99999,99999,99999,99999
18:47:10,1510477230,2017-11-12T09:00:33,0.732,883.5,6.24,3.62,7.65,838.130,2039.700,98.783333,43.94,2.5413,355,23595,1.86070,3.92,44964,,,,,,,,,,,,,,,,,,99999,99999,99999,99999,99999,99999,99999,99999,99999,99999,99999,99999
18:47:40,1510477260,2017-11-12T09:01:03,0.735,883.8,6.23,3.62,7.62,838.110,2039.590,98.900002,43.95,2.5413,355,23594,1.86753,3.92,44960,,,,,,,,,,,,,,,,,,99999,99999,99999,99999,99999,99999,99999,99999,99999,99999,99999,99999
18:48:10,1510477290,2017-11-12T09:01:33,0.736,884.2,6.22,3.60,7.62,838.140,2039.590,99.716667,43.91,2.5414,355,23594,1.87021,3.92,44955,,,,,,,,,,,,,,,,,,99999,99999,99999,99999,99999,99999,99999,99999,99999,99999,99999,99999
18:48:40,1510477320,2017-11-12T09:02:03,0.730,884.6,6.22,3.59,7.64,838.190,2039.590,98.500000,43.94,2.5414,355,23594,1.85417,3.92,44951,,,,,,,,,,,,,,,,,,99999,99999,99999,99999,99999,99999,99999,99999,99999,99999,99999,99999
18:49:10,1510477350,2017-11-12T09:02:33,0.736,884.9,6.22,3.59,7.60,838.240,2039.590,100.283333,44.07,2.5413,355,23594,1.87021,3.92,44946,,,,,,,,,,,,,,,,,,99999,99999,99999,99999,99999,99999,99999,99999,99999,99999,99999,99999
18:49:40,1510477380,2017-11-12T09:03:03,0.734,885.3,6.21,3.58,7.60,838.270,2039.530,98.400002,43.94,2.5414,355,23593,1.86426,3.92,44942,,,,,,,,,,,,,,,,,,99999,99999,99999,99999,99999,99999,99999,99999,99999,99999,99999,99999
18:50:10,1510477410,2017-11-12T09:03:33,0.729,885.7,6.20,3.58,7.60,838.200,2039.490,98.783333,43.92,2.5414,355,23595,1.85298,3.92,44937,,,,,,,,,,,,,,,,,,99999,99999,99999,99999,99999,99999,99999,99999,99999,99999,99999,99999
18:50:40,1510477440,2017-11-12T09:04:03,0.736,886.0,6.19,3.59,7.62,838.220,2039.490,100.233330,44.12,2.5415,355,23593,1.87081,3.92,44933,,,,,,,,,,,,,,,,,,99999,99999,99999,99999,99999,99999,99999,99999,99999,99999,99999,99999
18:51:10,1510477470,2017-11-12T09:04:33,0.737,886.4,6.19,3.59,7.60,838.300,2039.490,99.683334,44.11,2.5415,355,23594,1.87200,3.92,44928,,,,,,,,,,,,,,,,,,99999,99999,99999,99999,99999,99999,99999,99999,99999,99999,99999,99999
18:51:40,1510477500,2017-11-12T09:05:03,0.736,886.8,6.18,3.58,7.62,838.330,2039.430,99.099998,44.04,2.5415,355,23590,1.87111,3.92,44924,,,,,,,,,,,,,,,,,,99999,99999,99999,99999,99999,99999,99999,99999,99999,99999,99999,99999
18:52:10,1510477530,2017-11-12T09:05:33,0.735,887.1,6.18,3.58,7.57,838.200,2039.430,100.233330,44.06,2.5415,355,23595,1.86723,3.92,44919,,,,,,,,,,,,,,,,,,99999,99999,99999,99999,99999,99999,99999,99999,99999,99999,99999,99999
18:52:40,1510477560,2017-11-12T09:06:03,0.729,887.5,6.17,3.56,7.57,838.250,2039.430,99.283333,44.06,2.5416,355,23590,1.85387,3.92,44915,,,,,,,,,,,,,,,,,,99999,99999,99999,99999,99999,99999,99999,99999,99999,99999,99999,99999
18:53:10,1510477590,2017-11-12T09:06:33,0.728,887.9,6.17,3.55,7.57,838.310,2039.430,99.166664,44.24,2.5416,355,23590,1.85121,3.92,44910,,,,,,,,,,,,,,,,,,99999,99999,99999,99999,99999,99999,99999,99999,99999,99999,99999,99999
18:53:40,1510477620,2017-11-12T09:07:03,0.729,888.2,6.16,3.53,7.57,838.310,2039.370,98.816666,44.30,2.5416,355,23591,1.85358,3.91,44906,,,,,,,,,,,,,,,,,,99999,99999,99999,99999,99999,99999,99999,99999,99999,99999,99999,99999
18:54:10,1510477650,2017-11-12T09:07:33,0.731,888.6,6.16,3.52,7.59,838.230,2039.370,98.333336,44.33,2.5416,355,23589,1.85891,3.91,44901,,,,,,,,,,,,,,,,,,99999,99999,99999,99999,99999,99999,99999,99999,99999,99999,99999,99999
18:54:40,1510477680,2017-11-12T09:08:03,0.736,889.0,6.15,3.53,7.55,838.280,2039.370,99.966667,44.35,2.5417,355,23592,1.87140,3.91,44897,,,,,,,,,,,,,,,,,,99999,99999,99999,99999,99999,99999,99999,99999,99999,99999,99999,99999
18:55:10,1510477710,2017-11-12T09:08:33,0.728,889.3,6.13,3.57,7.57,838.290,2039.320,98.733330,44.18,2.5418,355,23591,1.85121,3.91,44892,,,,,,,,,,,,,,,,,,99999,99999,99999,99999,99999,99999,99999,99999,99999,99999,99999,99999
18:55:40,1510477740,2017-11-12T09:09:03,0.728,889.7,6.14,3.55,7.53,838.260,2039.320,97.500000,44.23,2.5417,355,23589,1.84973,3.91,44888,,,,,,,,,,,,,,,,,,99999,99999,99999,99999,99999,99999,99999,99999,99999,99999,99999,99999
18:56:10,1510477770,2017-11-12T09:09:33,0.728,890.1,6.14,3.50,7.55,838.260,2039.320,98.083336,44.26,2.5417,355,23592,1.84943,3.91,44883,,,,,,,,,,,,,,,,,,99999,99999,99999,99999,99999,99999,99999,99999,99999,99999,99999,99999
18:56:40,1510477800,2017-11-12T09:10:03,0.730,890.4,6.12,3.50,7.55,838.270,2039.260,97.800003,44.25,2.5419,355,23593,1.85654,3.91,44879,,,,,,,,,,,,,,,,,,99999,99999,99999,99999,99999,99999,99999,99999,99999,99999,99999,99999
18:57:10,1510477830,2017-11-12T09:10:33,0.736,890.8,6.12,3.50,7.53,838.270,2039.260,99.216667,44.46,2.5418,355,23589,1.87051,3.91,44874,,,,,,,,,,,,,,,,,,99999,99999,99999,99999,99999,99999,99999,99999,99999,99999,99999,99999
18:57:40,1510477860,2017-11-12T09:11:03,0.728,891.2,6.12,3.51,7.53,838.240,2039.260,97.800003,44.39,2.5418,355,23591,1.85032,3.91,44870,,,,,,,,,,,,,,,,,,99999,99999,99999,99999,99999,99999,99999,99999,99999,99999,99999,99999
18:58:10,1510477890,2017-11-12T09:11:33,0.736,891.5,6.10,3.50,7.53,838.220,2039.150,99.566666,44.37,2.5419,355,23589,1.87111,3.91,44865,,,,,,,,,,,,,,,,,,99999,99999,99999,99999,99999,99999,99999,99999,99999,99999,99999,99999
18:58:40,1510477920,2017-11-12T09:12:03,0.733,891.9,6.10,3.50,7.52,838.220,2039.150,98.599998,44.30,2.5419,355,23590,1.86278,3.91,44861,,,,,,,,,,,,,,,,,,99999,99999,99999,99999,99999,99999,99999,99999,99999,99999,99999,99999
18:59:10,1510477950,2017-11-12T09:12:33,0.734,892.3,6.09,3.48,7.53,838.170,2039.090,99.883331,44.40,2.5419,355,23591,1.86664,3.91,44856,,,,,,,,,,,,,,,,,,99999,99999,99999,99999,99999,99999,99999,99999,99999,99999,99999,99999
18:59:40,1510477980,2017-11-12T09:13:03,0.735,892.6,6.08,3.49,7.49,838.220,2039.090,99.150002,44.39,2.5420,355,23588,1.86723,3.91,44852,,,,,,,,,,,,,,,,,,99999,99999,99999,99999,99999,99999,99999,99999,99999,99999,99999,99999
19:00:10,1510478010,2017-11-12T09:13:33,0.729,893.0,6.08,3.49,7.52,838.170,2039.090,97.966667,44.41,2.5420,355,23588,1.85387,3.91,44847,,,,,,,,,,,,,,,,,,99999,99999,99999,99999,99999,99999,99999,99999,99999,99999,99999,99999
19:00:40,1510478040,2017-11-12T09:14:03,0.735,893.4,6.07,3.45,7.51,838.200,2039.030,99.116669,44.39,2.5420,355,23589,1.86872,3.91,44843,,,,,,,,,,,,,,,,,,99999,99999,99999,99999,99999,99999,99999,99999,99999,99999,99999,99999
19:01:10,1510478070,2017-11-12T09:14:33,0.727,893.7,6.08,3.48,7.47,838.270,2039.090,97.300003,44.31,2.5420,355,23587,1.84766,3.91,44838,,,,,,,,,,,,,,,,,,99999,99999,99999,99999,99999,99999,99999,99999,99999,99999,99999,99999
19:01:40,1510478100,2017-11-12T09:15:03,0.734,894.1,6.06,3.47,7.49,838.280,2039.030,100.016670,44.34,2.5421,355,23588,1.86694,3.91,44834,,,,,,,,,,,,,,,,,,99999,99999,99999,99999,99999,99999,99999,99999,99999,99999,99999,99999
19:02:10,1510478130,2017-11-12T09:15:33,0.733,894.5,6.06,3.41,7.47,838.300,2039.030,96.750000,44.42,2.5421,355,23588,1.86396,3.91,44829,,,,,,,,,,,,,,,,,,99999,99999,99999,99999,99999,99999,99999,99999,99999,99999,99999,99999
19:02:40,1510478160,2017-11-12T09:16:03,0.728,894.8,6.06,3.42,7.45,838.250,2039.030,98.616669,44.43,2.5421,355,23587,1.84973,3.91,44825,,,,,,,,,,,,,,,,,,99999,99999,99999,99999,99999,99999,99999,99999,99999,99999,99999,99999
19:03:10,1510478190,2017-11-12T09:16:33,0.729,895.2,6.05,3.45,7.43,838.200,2038.990,98.266670,44.39,2.5422,355,23588,1.85239,3.91,44820,,,,,,,,,,,,,,,,,,99999,99999,99999,99999,99999,99999,99999,99999,99999,99999,99999,99999
19:03:40,1510478220,2017-11-12T09:17:03,0.733,895.5,6.04,3.41,7.44,838.230,2038.990,98.933334,44.46,2.5422,355,23589,1.86367,3.91,44816,,,,,,,,,,,,,,,,,,99999,99999,99999,99999,99999,99999,99999,99999,99999,99999,99999,99999
19:04:10,1510478250,2017-11-12T09:17:33,0.729,895.9,6.04,3.44,7.47,838.230,2038.990,98.766670,44.51,2.5422,355,23588,1.85269,3.91,44811,,,,,,,,,,,,,,,,,,99999,99999,99999,99999,99999,99999,99999,99999,99999,99999,99999,99999
19:04:40,1510478280,2017-11-12T09:18:03,0.734,896.3,6.02,3.44,7.44,838.290,2038.930,99.783333,44.46,2.5424,355,23590,1.86664,3.91,44807,,,,,,,,,,,,,,,,,,99999,99999,99999,99999,99999,99999,99999,99999,99999,99999,99999,99999
19:05:10,1510478310,2017-11-12T09:18:33,0.729,896.6,6.01,3.45,7.45,838.240,2038.870,97.833336,44.58,2.5424,355,23586,1.85358,3.91,44802,,,,,,,,,,,,,,,,,,99999,99999,99999,99999,99999,99999,99999,99999,99999,99999,99999,99999
19:05:40,1510478340,2017-11-12T09:19:03,0.734,897.0,6.02,3.44,7.43,838.310,2038.930,100.116669,44.54,2.5424,355,23589,1.86515,3.91,44798,,,,,,,,,,,,,,,,,,99999,99999,99999,99999,99999,99999,99999,99999,99999,99999,99999,99999
19:06:10,1510478370,2017-11-12T09:19:33,0.728,897.4,6.01,3.45,7.38,838.290,2038.870,97.133331,44.59,2.5424,355,23589,1.85180,3.91,44793,,,,,,,,,,,,,,,,,,99999,99999,99999,99999,99999,99999,99999,99999,99999,99999,99999,99999
19:06:40,1510478400,2017-11-12T09:20:03,0.735,897.7,6.03,3.43,7.44,838.360,2038.930,99.133331,44.66,2.5423,355,23589,1.86843,3.91,44789,,,,,,,,,,,,,,,,,,99999,99999,99999,99999,99999,99999,99999,99999,99999,99999,99999,99999
19:07:10,1510478430,2017-11-12T09:20:33,0.728,898.1,6.02,3.41,7.41,838.360,2038.930,99.500000,44.61,2.5423,355,23586,1.85150,3.91,44784,,,,,,,,,,,,,,,,,,99999,99999,99999,99999,99999,99999,99999,99999,99999,99999,99999,99999
19:07:40,1510478460,2017-11-12T09:21:03,0.728,898.5,6.02,3.43,7.44,838.360,2038.930,97.516670,44.72,2.5423,355,23590,1.85180,3.91,44780,,,,,,,,,,,,,,,,,,99999,99999,99999,99999,99999,99999,99999,99999,99999,99999,99999,99999
19:08:10,1510478490,2017-11-12T09:21:33,0.728,898.8,6.01,3.41,7.41,838.290,2038.870,97.616669,44.59,2.5424,355,23587,1.85091,3.91,44775,,,,,,,,,,,,,,,,,,99999,99999,99999,99999,99999,99999,99999,99999,99999,99999,99999,99999
19:08:40,1510478520,2017-11-12T09:22:03,0.734,899.2,6.02,3.40,7.45,838.340,2038.930,99.183334,44.50,2.5424,355,23591,1.86723,3.91,44771,,,,,,,,,,,,,,,,,,99999,99999,99999,99999,99999,99999,99999,99999,99999,99999,99999,99999
19:09:10,1510478550,2017-11-12T09:22:33,0.732,899.6,6.00,3.39,7.44,838.320,2038.870,98.766670,44.58,2.5425,355,23586,1.86099,3.91,44766,,,,,,,,,,,,,,,,,,99999,99999,99999,99999,99999,99999,99999,99999,99999,99999,99999,99999
19:09:40,1510478580,2017-11-12T09:23:03,0.735,899.9,6.00,3.44,7.39,838.370,2038.870,98.683334,44.54,2.5425,355,23587,1.86843,3.91,44762,,,,,,,,,,,,,,,,,,99999,99999,99999,99999,99999,99999,99999,99999,99999,99999,99999,99999
19:10:10,1510478610,2017-11-12T09:23:33,0.729,900.3,6.00,3.41,7.43,838.400,2038.870,98.383331,44.45,2.5425,355,23585,1.85269,3.91,44757,,,,,,,,,,,,,,,,,,99999,99999,99999,99999,99999,99999,99999,99999,99999,99999,99999,99999
19:10:40,1510478640,2017-11-12T09:24:03,0.734,900.7,5.99,3.39,7.38,838.350,2038.820,99.949997,44.39,2.5425,355,23585,1.86694,3.91,44753,,,,,,,,,,,,,,,,,,99999,99999,99999,99999,99999,99999,99999,99999,99999,99999,99999,99999
19:11:10,1510478670,2017-11-12T09:24:33,0.735,901.0,5.99,3.37,7.41,838.380,2038.820,99.483330,44.50,2.5425,355,23584,1.86872,3.91,44748,,,,,,,,,,,,,,,,,,99999,99999,99999,99999,99999,99999,99999,99999,99999,99999,99999,99999
19:11:40,1510478700,2017-11-12T09:25:03,0.728,901.4,5.99,3.39,7.39,838.320,2038.820,96.883331,44.54,2.5425,355,23587,1.85209,3.91,44744,,,,,,,,,,,,,,,,,,99999,99999,99999,99999,99999,99999,99999,99999,99999,99999,99999,99999
19:12:10,1510478730,2017-11-12T09:25:33,0.730,901.8,5.98,3.38,7.38,838.350,2038.700,98.383331,44.65,2.5424,355,23583,1.85654,3.91,44739,,,,,,,,,,,,,,,,,,99999,99999,99999,99999,99999,99999,99999,99999,99999,99999,99999,99999
19:12:40,1510478760,2017-11-12T09:26:03,0.731,902.1,5.98,3.36,7.38,838.330,2038.700,99.150002,44.58,2.5424,355,23583,1.85921,3.91,44735,,,,,,,,,,,,,,,,,,99999,99999,99999,99999,99999,99999,99999,99999,99999,99999,99999,99999
19:13:10,1510478790,2017-11-12T09:26:33,0.728,902.5,5.97,3.37,7.38,838.350,2038.700,97.116669,44.65,2.5425,355,23585,1.85121,3.91,44731,,,,,,,,,,,,,,,,,,99999,99999,99999,99999,99999,99999,99999,99999,99999,99999,99999,99999
19:13:40,1510478820,2017-11-12T09:27:03,0.734,902.9,5.96,3.37,7.36,838.360,2038.650,99.650002,44.65,2.5426,355,23586,1.86723,3.91,44726,,,,,,,,,,,,,,,,,,99999,99999,99999,99999,99999,99999,99999,99999,99999,99999,99999,99999
19:14:10,1510478850,2017-11-12T09:27:33,0.731,903.2,5.95,3.35,7.39,838.410,2038.650,97.966667,44.73,2.5426,355,23585,1.85891,3.91,44722,,,,,,,,,,,,,,,,,,99999,99999,99999,99999,99999,99999,99999,99999,99999,99999,99999,99999
19:14:40,1510478880,2017-11-12T09:28:03,0.731,903.6,5.93,3.34,7.33,838.330,2038.590,97.133331,45.04,2.5427,355,23584,1.85891,3.91,44717,,,,,,,,,,,,,,,,,,99999,99999,99999,99999,99999,99999,99999,99999,99999,99999,99999,99999
19:15:10,1510478910,2017-11-12T09:28:33,0.731,904.0,5.92,3.31,7.38,838.390,2038.530,98.433334,44.55,2.5428,355,23582,1.85832,3.91,44713,,,,,,,,,,,,,,,,,,99999,99999,99999,99999,99999,99999,99999,99999,99999,99999,99999,99999
19:15:40,1510478940,2017-11-12T09:29:03,0.729,904.3,5.91,3.27,7.36,838.410,2038.530,97.766670,44.64,2.5429,355,23582,1.85447,3.91,44708,,,,,,,,,,,,,,,,,,99999,99999,99999,99999,99999,99999,99999,99999,99999,99999,99999,99999
19:16:10,1510478970,2017-11-12T09:29:33,0.731,904.7,5.91,3.31,7.38,838.410,2038.530,98.516670,44.65,2.5429,355,23582,1.85802,3.91,44704,,,,,,,,,,,,,,,,,,99999,99999,99999,99999,99999,99999,99999,99999,99999,99999,99999,99999
19:16:40,1510479000,2017-11-12T09:30:03,0.733,905.1,5.90,3.31,7.34,838.370,2038.490,100.216667,44.71,2.5429,355,23581,1.86367,3.91,44699,,,,,,,,,,,,,,,,,,99999,99999,99999,99999,99999,99999,99999,99999,99999,99999,99999,99999
19:17:10,1510479030,2017-11-12T09:30:33,0.726,905.4,5.89,3.30,7.31,838.450,2038.490,97.716667,44.76,2.5430,355,23582,1.84588,3.91,44695,,,,,,,,,,,,,,,,,,99999,99999,99999,99999,99999,99999,99999,99999,99999,99999,99999,99999
19:17:40,1510479060,2017-11-12T09:31:03,0.730,905.8,5.88,3.30,7.31,838.370,2038.430,97.666664,44.64,2.5430,355,23584,1.85565,3.91,44690,,,,,,,,,,,,,,,,,,99999,99999,99999,99999,99999,99999,99999,99999,99999,99999,99999,99999
19:18:10,1510479090,2017-11-12T09:31:33,0.727,906.2,5.87,3.29,7.26,838.330,2038.380,97.833336,44.69,2.5430,355,23584,1.84943,3.91,44686,,,,,,,,,,,,,,,,,,99999,99999,99999,99999,99999,99999,99999,99999,99999,99999,99999,99999
19:18:40,1510479120,2017-11-12T09:32:03,0.726,906.5,5.86,3.27,7.28,838.380,2038.380,98.566666,44.82,2.5431,355,23580,1.84707,3.91,44681,,,,,,,,,,,,,,,,,,99999,99999,99999,99999,99999,99999,99999,99999,99999,99999,99999,99999
19:19:10,1510479150,2017-11-12T09:32:33,0.730,906.9,5.84,3.27,7.28,838.330,2038.260,99.900002,44.87,2.5432,355,23580,1.85743,3.91,44677,,,,,,,,,,,,,,,,,,99999,99999,99999,99999,99999,99999,99999,99999,99999,99999,99999,99999
19:19:40,1510479180,2017-11-12T09:33:03,0.727,907.3,5.83,3.25,7.26,838.310,2038.220,98.500000,44.98,2.5432,355,23583,1.84766,3.91,44672,,,,,,,,,,,,,,,,,,99999,99999,99999,99999,99999,99999,99999,99999,99999,99999,99999,99999
19:20:10,1510479210,2017-11-12T09:33:33,0.734,907.6,5.82,3.25,7.28,838.380,2038.220,99.716667,44.88,2.5433,355,23582,1.86753,3.91,44668,,,,,,,,,,,,,,,,,,99999,99999,99999,99999,99999,99999,99999,99999,99999,99999,99999,99999
19:20:40,1510479240,2017-11-12T09:34:03,0.734,908.0,5.81,3.21,7.20,838.410,2038.150,99.166664,44.83,2.5433,355,23579,1.86783,3.91,44663,,,,,,,,,,,,,,,,,,99999,99999,99999,99999,99999,99999,99999,99999,99999,99999,99999,99999
19:21:10,1510479270,2017-11-12T09:34:33,0.734,908.4,5.80,3.21,7.20,838.360,2038.150,99.750000,44.84,2.5434,355,23579,1.86694,3.91,44659,,,,,,,,,,,,,,,,,,99999,99999,99999,99999,99999,99999,99999,99999,99999,99999,99999,99999
19:21:40,1510479300,2017-11-12T09:35:03,0.729,908.7,5.78,3.19,7.18,838.370,2038.090,98.816666,45.08,2.5435,355,23580,1.85328,3.91,44654,,,,,,,,,,,,,,,,,,99999,99999,99999,99999,99999,99999,99999,99999,99999,99999,99999,99999
19:22:10,1510479330,2017-11-12T09:35:33,0.728,909.1,5.76,3.20,7.18,838.320,2037.990,97.500000,45.45,2.5435,355,23581,1.85239,3.91,44650,,,,,,,,,,,,,,,,,,99999,99999,99999,99999,99999,99999,99999,99999,99999,99999,99999,99999
19:22:40,1510479360,2017-11-12T09:36:03,0.732,909.4,5.75,3.18,7.15,838.370,2037.990,98.883331,45.20,2.5436,355,23580,1.86278,3.91,44645,,,,,,,,,,,,,,,,,,99999,99999,99999,99999,99999,99999,99999,99999,99999,99999,99999,99999
19:23:10,1510479390,2017-11-12T09:36:33,0.733,909.8,5.74,3.15,7.16,838.350,2037.930,98.583336,45.27,2.5437,355,23578,1.86515,3.91,44641,,,,,,,,,,,,,,,,,,99999,99999,99999,99999,99999,99999,99999,99999,99999,99999,99999,99999
19:23:40,1510479420,2017-11-12T09:37:03,0.733,910.2,5.72,3.14,7.16,838.310,2037.820,100.166664,45.34,2.5437,355,23578,1.86486,3.91,44636,,,,,,,,,,,,,,,,,,99999,99999,99999,99999,99999,99999,99999,99999,99999,99999,99999,99999
19:24:10,1510479450,2017-11-12T09:37:33,0.727,910.5,5.70,3.16,7.12,838.340,2037.760,97.300003,45.19,2.5438,355,23580,1.84973,3.91,44632,,,,,,,,,,,,,,,,,,99999,99999,99999,99999,99999,99999,99999,99999,99999,99999,99999,99999
19:24:40,1510479480,2017-11-12T09:38:03,0.733,910.9,5.68,3.14,7.12,838.310,2037.720,99.183334,44.98,2.5440,355,23579,1.86575,3.91,44627,,,,,,,,,,,,,,,,,,99999,99999,99999,99999,99999,99999,99999,99999,99999,99999,99999,99999
19:25:10,1510479510,2017-11-12T09:38:33,0.733,911.3,5.67,3.11,7.12,838.290,2037.720,99.300003,45.27,2.5440,355,23577,1.86604,3.91,44623,,,,,,,,,,,,,,,,,,99999,99999,99999,99999,99999,99999,99999,99999,99999,99999,99999,99999
19:25:40,1510479540,2017-11-12T09:39:03,0.728,911.6,5.65,3.09,7.05,838.370,2037.590,98.083336,45.38,2.5441,355,23577,1.85269,3.91,44618,,,,,,,,,,,,,,,,,,99999,99999,99999,99999,99999,99999,99999,99999,99999,99999,99999,99999
19:26:10,1510479570,2017-11-12T09:39:33,0.732,912.0,5.64,3.04,7.05,838.350,2037.590,98.599998,45.21,2.5442,355,23578,1.86218,3.91,44614,,,,,,,,,,,,,,,,,,99999,99999,99999,99999,99999,99999,99999,99999,99999,99999,99999,99999
19:26:40,1510479600,2017-11-12T09:40:03,0.730,912.4,5.62,3.05,7.02,838.320,2037.550,97.949997,45.34,2.5443,355,23579,1.85684,3.91,44609,,,,,,,,,,,,,,,,,,99999,99999,99999,99999,99999,99999,99999,99999,99999,99999,99999,99999
19:27:10,1510479630,2017-11-12T09:40:33,0.732,912.7,5.61,3.05,7.04,838.330,2037.490,97.916664,45.26,2.5443,355,23578,1.86307,3.91,44605,,,,,,,,,,,,,,,,,,99999,99999,99999,99999,99999,99999,99999,99999,99999,99999,99999,99999
19:27:40,1510479660,2017-11-12T09:41:03,0.726,913.1,5.59,3.05,6.99,838.260,2037.380,98.066666,45.29,2.5444,355,23575,1.84707,3.91,44600,,,,,,,,,,,,,,,,,,99999,99999,99999,99999,99999,99999,99999,99999,99999,99999,99999,99999
19:28:10,1510479690,2017-11-12T09:41:33,0.732,913.5,5.56,3.03,6.99,838.210,2037.320,98.266670,45.35,2.5446,355,23575,1.86218,3.91,44596,,,,,,,,,,,,,,,,,,99999,99999,99999,99999,99999,99999,99999,99999,99999,99999,99999,99999
19:28:40,1510479720,2017-11-12T09:42:03,0.724,913.8,5.55,3.02,6.95,838.190,2037.280,97.250000,45.58,2.5446,355,23574,1.84322,3.91,44592,,,,,,,,,,,,,,,,,,99999,99999,99999,99999,99999,99999,99999,99999,99999,99999,99999,99999
19:29:10,1510479750,2017-11-12T09:42:33,0.724,914.2,5.54,3.00,6.95,838.210,2037.220,97.733330,45.67,2.5446,355,23576,1.84322,3.91,44587,,,,,,,,,,,,,,,,,,99999,99999,99999,99999,99999,99999,99999,99999,99999,99999,99999,99999
19:29:40,1510479780,2017-11-12T09:43:03,0.729,914.6,5.52,2.95,6.97,838.300,2037.150,98.383331,45.66,2.5447,355,23572,1.85595,3.91,44583,,,,,,,,,,,,,,,,,,99999,99999,99999,99999,99999,99999,99999,99999,99999,99999,99999,99999
19:30:10,1510479810,2017-11-12T09:43:33,0.732,914.9,5.50,2.97,6.94,838.170,2037.110,99.000000,45.62,2.5448,355,23574,1.86188,3.91,44578,,,,,,,,,,,,,,,,,,99999,99999,99999,99999,99999,99999,99999,99999,99999,99999,99999,99999
19:30:40,1510479840,2017-11-12T09:44:03,0.732,915.3,5.49,2.95,6.93,838.220,2037.110,99.116669,45.43,2.5449,355,23572,1.86278,3.91,44574,,,,,,,,,,,,,,,,,,99999,99999,99999,99999,99999,99999,99999,99999,99999,99999,99999,99999
19:31:10,1510479870,2017-11-12T09:44:33,0.731,915.6,5.48,2.95,6.94,838.280,2037.050,98.349998,45.47,2.5450,355,23571,1.86070,3.91,44569,,,,,,,,,,,,,,,,,,99999,99999,99999,99999,99999,99999,99999,99999,99999,99999,99999,99999
19:31:40,1510479900,2017-11-12T09:45:03,0.731,916.0,5.48,2.92,6.91,838.230,2037.050,97.683334,45.41,2.5450,355,23572,1.85980,3.91,44565,,,,,,,,,,,,,,,,,,99999,99999,99999,99999,99999,99999,99999,99999,99999,99999,99999,99999
19:32:10,1510479930,2017-11-12T09:45:33,0.730,916.4,5.47,2.94,6.89,838.250,2037.050,97.900002,45.59,2.5450,355,23575,1.85773,3.91,44560,,,,,,,,,,,,,,,,,,99999,99999,99999,99999,99999,99999,99999,99999,99999,99999,99999,99999
19:32:40,1510479960,2017-11-12T09:46:03,0.733,916.7,5.45,2.89,6.86,838.160,2036.950,97.900002,45.75,2.5451,355,23570,1.86604,3.91,44556,,,,,,,,,,,,,,,,,,99999,99999,99999,99999,99999,99999,99999,99999,99999,99999,99999,99999
19:33:10,1510479990,2017-11-12T09:46:33,0.727,917.1,5.43,2.91,6.88,838.210,2036.820,95.750000,45.85,2.5451,355,23571,1.85121,3.91,44551,,,,,,,,,,,,,,,,,,99999,99999,99999,99999,99999,99999,99999,99999,99999,99999,99999,99999
19:33:40,1510480020,2017-11-12T09:47:03,0.725,917.5,5.41,2.88,6.86,838.190,2036.780,97.449997,45.86,2.5453,355,23571,1.84618,3.91,44547,,,,,,,,,,,,,,,,,,99999,99999,99999,99999,99999,99999,99999,99999,99999,99999,99999,99999
19:34:10,1510480050,2017-11-12T09:47:33,0.724,917.8,5.40,2.88,6.86,838.320,2036.780,95.783333,46.01,2.5453,355,23571,1.84293,3.91,44542,,,,,,,,,,,,,,,,,,99999,99999,99999,99999,99999,99999,99999,99999,99999,99999,99999,99999
19:34:40,1510480080,2017-11-12T09:48:03,0.732,918.2,5.39,2.87,6.81,838.330,2036.710,96.800003,46.08,2.5453,355,23570,1.86248,3.91,44538,,,,,,,,,,,,,,,,,,99999,99999,99999,99999,99999,99999,99999,99999,99999,99999,99999,99999
19:35:10,1510480110,2017-11-12T09:48:33,0.727,918.6,5.37,2.86,6.78,838.330,2036.650,96.000000,45.89,2.5455,355,23570,1.85150,3.91,44533,,,,,,,,,,,,,,,,,,99999,99999,99999,99999,99999,99999,99999,99999,99999,99999,99999,99999
19:35:40,1510480140,2017-11-12T09:49:03,0.731,918.9,5.35,2.83,6.80,838.280,2036.610,98.416664,45.77,2.5456,355,23571,1.85980,3.91,44529,,,,,,,,,,,,,,,,,,99999,99999,99999,99999,99999,99999,99999,99999,99999,99999,99999,99999
19:36:10,1510480170,2017-11-12T09:49:33,0.726,919.3,5.33,2.82,6.80,838.260,2036.490,96.849998,45.87,2.5456,355,23569,1.84736,3.91,44524,,,,,,,,,,,,,,,,,,99999,99999,99999,99999,99999,99999,99999,99999,99999,99999,99999,99999
19:36:40,1510480200,2017-11-12T09:50:03,0.723,919.7,5.32,2.80,6.73,838.290,2036.450,96.883331,46.05,2.5457,355,23571,1.84175,3.91,44520,,,,,,,,,,,,,,,,,,99999,99999,99999,99999,99999,99999,99999,99999,99999,99999,99999,99999
19:37:10,1510480230,2017-11-12T09:50:33,0.732,920.0,5.30,2.76,6.76,838.300,2036.380,98.750000,46.25,2.5458,355,23566,1.86248,3.91,44516,,,,,,,,,,,,,,,,,,99999,99999,99999,99999,99999,99999,99999,99999,99999,99999,99999,99999
19:37:40,1510480260,2017-11-12T09:51:03,0.724,920.4,5.29,2.78,6.75,838.350,2036.380,96.883331,45.85,2.5459,355,23568,1.84234,3.91,44511,,,,,,,,,,,,,,,,,,99999,99999,99999,99999,99999,99999,99999,99999,99999,99999,99999,99999
19:38:10,1510480290,2017-11-12T09:51:33,0.731,920.7,5.27,2.79,6.76,838.300,2036.320,98.699997,45.87,2.5460,355,23566,1.86099,3.91,44507,,,,,,,,,,,,,,,,,,99999,99999,99999,99999,99999,99999,99999,99999,99999,99999,99999,99999
19:38:40,1510480320,2017-11-12T09:52:03,0.727,921.1,5.26,2.75,6.73,838.330,2036.280,97.666664,45.89,2.5460,355,23569,1.85180,3.91,44502,,,,,,,,,,,,,,,,,,99999,99999,99999,99999,99999,99999,99999,99999,99999,99999,99999,99999
19:39:10,1510480350,2017-11-12T09:52:33,0.725,921.5,5.24,2.73,6.70,838.280,2036.210,95.233330,46.11,2.5461,355,23567,1.84618,3.91,44498,,,,,,,,,,,,,,,,,,99999,99999,99999,99999,99999,99999,99999,99999,99999,99999,99999,99999
19:39:40,1510480380,2017-11-12T09:53:03,0.729,921.8,5.23,2.70,6.68,838.310,2036.210,96.883331,46.24,2.5462,355,23568,1.85506,3.91,44493,,,,,,,,,,,,,,,,,,99999,99999,99999,99999,99999,99999,99999,99999,99999,99999,99999,99999
19:40:10,1510480410,2017-11-12T09:53:33,0.726,922.2,5.21,2.69,6.68,838.290,2036.050,97.500000,46.20,2.5462,355,23566,1.84766,3.91,44489,,,,,,,,,,,,,,,,,,99999,99999,99999,99999,99999,99999,99999,99999,99999,99999,99999,99999
19:40:40,1510480440,2017-11-12T09:54:03,0.730,922.6,5.21,2.69,6.61,838.260,2036.050,98.116669,45.61,2.5462,355,23567,1.85832,3.91,44484,,,,,,,,,,,,,,,,,,99999,99999,99999,99999,99999,99999,99999,99999,99999,99999,99999,99999
19:41:10,1510480470,2017-11-12T09:54:33,0.730,922.9,5.18,2.69,6.65,838.290,2036.010,98.016670,45.66,2.5464,355,23565,1.85891,3.91,44480,,,,,,,,,,,,,,,,,,99999,99999,99999,99999,99999,99999,99999,99999,99999,99999,99999,99999
19:41:40,1510480500,2017-11-12T09:55:03,0.731,923.3,5.17,2.67,6.61,838.220,2035.950,98.266670,45.55,2.5465,355,23565,1.86129,3.91,44475,,,,,,,,,,,,,,,,,,99999,99999,99999,99999,99999,99999,99999,99999,99999,99999,99999,99999
19:42:10,1510480530,2017-11-12T09:55:33,0.723,923.7,5.13,2.66,6.61,838.250,2035.840,95.966667,45.66,2.5467,355,23563,1.84056,3.91,44471,,,,,,,,,,,,,,,,,,99999,99999,99999,99999,99999,99999,99999,99999,99999,99999,99999,99999
19:42:40,1510480560,2017-11-12T09:56:03,0.722,924.0,5.12,2.64,6.57,838.260,2035.840,95.699997,45.93,2.5468,355,23563,1.83998,3.91,44466,,,,,,,,,,,,,,,,,,99999,99999,99999,99999,99999,99999,99999,99999,99999,99999,99999,99999
19:43:10,1510480590,2017-11-12T09:56:33,0.731,924.4,5.09,2.58,6.55,838.290,2035.710,97.250000,46.12,2.5469,355,23565,1.86278,3.91,44462,,,,,,,,,,,,,,,,,,99999,99999,99999,99999,99999,99999,99999,99999,99999,99999,99999,99999
19:43:40,1510480620,2017-11-12T09:57:03,0.730,924.7,5.07,2.56,6.54,838.370,2035.610,98.033333,46.32,2.5469,355,23563,1.85832,3.91,44457,,,,,,,,,,,,,,,,,,99999,99999,99999,99999,99999,99999,99999,99999,99999,99999,99999,99999
19:44:10,1510480650,2017-11-12T09:57:33,0.725,925.1,5.05,2.57,6.52,838.320,2035.550,96.199997,46.38,2.5470,355,23560,1.84559,3.91,44453,,,,,,,,,,,,,,,,,,99999,99999,99999,99999,99999,99999,99999,99999,99999,99999,99999,99999
19:44:40,1510480680,2017-11-12T09:58:03,0.727,925.5,5.04,2.56,6.46,838.350,2035.510,98.366669,46.53,2.5471,355,23562,1.85298,3.90,44449,,,,,,,,,,,,,,,,,,99999,99999,99999,99999,99999,99999,99999,99999,99999,99999,99999,99999
19:45:10,1510480710,2017-11-12T09:58:33,0.729,925.8,5.02,2.52,6.47,838.360,2035.450,98.050003,46.63,2.5472,355,23562,1.85802,3.90,44444,,,,,,,,,,,,,,,,,,99999,99999,99999,99999,99999,99999,99999,99999,99999,99999,99999,99999
19:45:40,1510480740,2017-11-12T09:59:03,0.721,926.2,5.00,2.52,6.47,838.310,2035.400,96.333336,46.82,2.5473,355,23560,1.83732,3.90,44440,,,,,,,,,,,,,,,,,,99999,99999,99999,99999,99999,99999,99999,99999,99999,99999,99999,99999
19:46:10,1510480770,2017-11-12T09:59:33,0.721,926.6,4.99,2.51,6.41,838.310,2035.340,96.599998,46.74,2.5473,355,23562,1.83644,3.90,44435,,,,,,,,,,,,,,,,,,99999,99999,99999,99999,99999,99999,99999,99999,99999,99999,99999,99999
19:46:40,1510480800,2017-11-12T10:00:03,0.722,926.9,4.98,2.50,6.41,838.390,2035.340,96.433334,46.75,2.5474,355,23560,1.83909,3.90,44431,,,,,,,,,,,,,,,,,,99999,99999,99999,99999,99999,99999,99999,99999,99999,99999,99999,99999
19:47:10,1510480830,2017-11-12T10:00:33,0.729,927.3,4.96,2.48,6.41,838.340,2035.280,97.033333,46.98,2.5475,355,23561,1.85595,3.90,44426,,,,,,,,,,,,,,,,,,99999,99999,99999,99999,99999,99999,99999,99999,99999,99999,99999,99999
19:47:40,1510480860,2017-11-12T10:01:03,0.721,927.6,4.95,2.48,6.38,838.350,2035.180,95.683334,46.95,2.5475,355,23561,1.83644,3.90,44422,,,,,,,,,,,,,,,,,,99999,99999,99999,99999,99999,99999,99999,99999,99999,99999,99999,99999
19:48:10,1510480890,2017-11-12T10:01:33,0.726,928.0,4.94,2.49,6.39,838.350,2035.180,98.216667,47.05,2.5476,355,23560,1.84884,3.90,44417,,,,,,,,,,,,,,,,,,99999,99999,99999,99999,99999,99999,99999,99999,99999,99999,99999,99999
19:48:40,1510480920,2017-11-12T10:02:03,0.729,928.4,4.93,2.48,6.36,838.330,2035.110,97.833336,47.08,2.5476,355,23557,1.85714,3.90,44413,,,,,,,,,,,,,,,,,,99999,99999,99999,99999,99999,99999,99999,99999,99999,99999,99999,99999
19:49:10,1510480950,2017-11-12T10:02:33,0.728,928.7,4.93,2.43,6.34,838.250,2035.110,97.166664,47.03,2.5476,355,23561,1.85536,3.90,44408,,,,,,,,,,,,,,,,,,99999,99999,99999,99999,99999,99999,99999,99999,99999,99999,99999,99999
19:49:40,1510480980,2017-11-12T10:03:03,0.727,929.1,4.92,2.46,6.34,838.330,2035.110,97.116669,47.21,2.5477,355,23559,1.85091,3.90,44404,,,,,,,,,,,,,,,,,,99999,99999,99999,99999,99999,99999,99999,99999,99999,99999,99999,99999
19:50:10,1510481010,2017-11-12T10:03:33,0.723,929.5,4.91,2.44,6.38,838.350,2035.070,96.416664,47.14,2.5477,355,23554,1.84145,3.90,44400,,,,,,,,,,,,,,,,,,99999,99999,99999,99999,99999,99999,99999,99999,99999,99999,99999,99999
19:50:40,1510481040,2017-11-12T10:04:03,0.724,929.8,4.90,2.43,6.34,838.330,2035.070,96.266670,47.09,2.5478,355,23558,1.84441,3.90,44395,,,,,,,,,,,,,,,,,,99999,99999,99999,99999,99999,99999,99999,99999,99999,99999,99999,99999
19:51:10,1510481070,2017-11-12T10:04:33,0.727,930.2,4.88,2.41,6.31,838.260,2034.940,97.250000,47.14,2.5478,355,23557,1.85180,3.90,44391,,,,,,,,,,,,,,,,,,99999,99999,99999,99999,99999,99999,99999,99999,99999,99999,99999,99999
19:51:40,1510481100,2017-11-12T10:05:03,0.728,930.5,4.89,2.40,6.30,838.280,2035.010,97.849998,47.18,2.5478,355,23555,1.85565,3.90,44386,,,,,,,,,,,,,,,,,,99999,99999,99999,99999,99999,99999,99999,99999,99999,99999,99999,99999
19:52:10,1510481130,2017-11-12T10:05:33,0.725,930.9,4.88,2.39,6.30,838.340,2034.940,97.583336,47.19,2.5478,355,23556,1.84795,3.90,44382,,,,,,,,,,,,,,,,,,99999,99999,99999,99999,99999,99999,99999,99999,99999,99999,99999,99999
19:52:40,1510481160,2017-11-12T10:06:03,0.722,931.3,4.88,2.38,6.30,838.340,2034.940,96.900002,47.09,2.5478,355,23558,1.83998,3.90,44377,,,,,,,,,,,,,,,,,,99999,99999,99999,99999,99999,99999,99999,99999,99999,99999,99999,99999
19:53:10,1510481190,2017-11-12T10:06:33,0.720,931.6,4.87,2.40,6.31,838.360,2034.940,96.216667,46.83,2.5479,355,23556,1.83408,3.90,44373,,,,,,,,,,,,,,,,,,99999,99999,99999,99999,99999,99999,99999,99999,99999,99999,99999,99999
19:53:40,1510481220,2017-11-12T10:07:03,0.721,932.0,4.86,2.37,6.26,838.290,2034.900,96.483330,46.80,2.5480,355,23558,1.83791,3.90,44368,,,,,,,,,,,,,,,,,,99999,99999,99999,99999,99999,99999,99999,99999,99999,99999,99999,99999
19:54:10,1510481250,2017-11-12T10:07:33,0.728,932.4,4.84,2.36,6.31,838.270,2034.840,98.283333,46.84,2.5481,355,23555,1.85565,3.90,44364,,,,,,,,,,,,,,,,,,99999,99999,99999,99999,99999,99999,99999,99999,99999,99999,99999,99999
19:54:40,1510481280,2017-11-12T10:08:03,0.720,932.7,4.83,2.36,6.28,838.300,2034.840,95.083336,46.92,2.5482,355,23554,1.83555,3.90,44359,,,,,,,,,,,,,,,,,,99999,99999,99999,99999,99999,99999,99999,99999,99999,99999,99999,99999
19:55:10,1510481310,2017-11-12T10:08:33,0.728,933.1,4.82,2.33,6.26,838.300,2034.730,96.933334,46.95,2.5481,355,23553,1.85476,3.90,44355,,,,,,,,,,,,,,,,,,99999,99999,99999,99999,99999,99999,99999,99999,99999,99999,99999,99999
19:55:40,1510481340,2017-11-12T10:09:03,0.727,933.4,4.81,2.33,6.26,838.350,2034.730,96.783333,46.85,2.5482,355,23556,1.85150,3.90,44351,,,,,,,,,,,,,,,,,,99999,99999,99999,99999,99999,99999,99999,99999,99999,99999,99999,99999
19:56:10,1510481370,2017-11-12T10:09:33,0.728,933.8,4.81,2.31,6.26,838.300,2034.730,97.699997,46.84,2.5482,355,23555,1.85476,3.90,44346,,,,,,,,,,,,,,,,,,99999,99999,99999,99999,99999,99999,99999,99999,99999,99999,99999,99999
19:56:40,1510481400,2017-11-12T10:10:03,0.720,934.2,4.79,2.31,6.22,838.330,2034.680,95.166664,47.11,2.5483,355,23554,1.83555,3.90,44342,,,,,,,,,,,,,,,,,,99999,99999,99999,99999,99999,99999,99999,99999,99999,99999,99999,99999
19:57:10,1510481430,2017-11-12T10:10:33,0.728,934.5,4.78,2.30,6.18,838.300,2034.630,97.433334,47.27,2.5484,355,23555,1.85506,3.90,44337,,,,,,,,,,,,,,,,,,99999,99999,99999,99999,99999,99999,99999,99999,99999,99999,99999,99999
19:57:40,1510481460,2017-11-12T10:11:03,0.721,934.9,4.77,2.30,6.22,838.280,2034.570,95.316666,47.27,2.5484,355,23553,1.83732,3.90,44333,,,,,,,,,,,,,,,,,,99999,99999,99999,99999,99999,99999,99999,99999,99999,99999,99999,99999
19:58:10,1510481490,2017-11-12T10:11:33,0.722,935.3,4.77,2.28,6.22,838.280,2034.570,96.933334,47.11,2.5484,355,23552,1.84086,3.90,44328,,,,,,,,,,,,,,,,,,99999,99999,99999,99999,99999,99999,99999,99999,99999,99999,99999,99999
19:58:40,1510481520,2017-11-12T10:12:03,0.727,935.6,4.75,2.26,6.18,838.290,2034.510,97.699997,47.13,2.5485,355,23555,1.85358,3.90,44324,,,,,,,,,,,,,,,,,,99999,99999,99999,99999,99999,99999,99999,99999,99999,99999,99999,99999
19:59:10,1510481550,2017-11-12T10:12:33,0.727,936.0,4.74,2.26,6.22,838.270,2034.460,97.416664,47.12,2.5485,355,23552,1.85298,3.90,44319,,,,,,,,,,,,,,,,,,99999,99999,99999,99999,99999,99999,99999,99999,99999,99999,99999,99999
19:59:40,1510481580,2017-11-12T10:13:03,0.728,936.3,4.73,2.23,6.18,838.190,2034.460,97.783333,46.93,2.5486,355,23552,1.85476,3.90,44315,,,,,,,,,,,,,,,,,,99999,99999,99999,99999,99999,99999,99999,99999,99999,99999,99999,99999
20:00:10,1510481610,2017-11-12T10:13:33,0.728,936.7,4.73,2.24,6.15,838.290,2034.460,97.500000,47.10,2.5486,355,23554,1.85565,3.90,44311,,,,,,,,,,,,,,,,,,99999,99999,99999,99999,99999,99999,99999,99999,99999,99999,99999,99999
20:00:40,1510481640,2017-11-12T10:14:03,0.725,937.1,4.72,2.25,6.14,838.220,2034.400,96.500000,47.42,2.5486,355,23552,1.84795,3.90,44306,,,,,,,,,,,,,,,,,,99999,99999,99999,99999,99999,99999,99999,99999,99999,99999,99999,99999
20:01:10,1510481670,2017-11-12T10:14:33,0.724,937.4,4.71,2.25,6.16,838.270,2034.400,96.166664,47.50,2.5487,355,23552,1.84500,3.90,44302,,,,,,,,,,,,,,,,,,99999,99999,99999,99999,99999,99999,99999,99999,99999,99999,99999,99999
20:01:40,1510481700,2017-11-12T10:15:03,0.726,937.8,4.71,2.25,6.14,838.270,2034.400,98.449997,47.54,2.5487,355,23552,1.85121,3.90,44297,,,,,,,,,,,,,,,,,,99999,99999,99999,99999,99999,99999,99999,99999,99999,99999,99999,99999
20:02:10,1510481730,2017-11-12T10:15:33,0.725,938.1,4.71,2.24,6.14,838.300,2034.400,97.500000,48.19,2.5487,355,23552,1.84736,3.90,44293,,,,,,,,,,,,,,,,,,99999,99999,99999,99999,99999,99999,99999,99999,99999,99999,99999,99999
20:02:40,1510481760,2017-11-12T10:16:03,0.719,938.5,4.70,2.19,6.07,838.250,2034.300,95.866669,47.58,2.5487,355,23551,1.83349,3.90,44288,,,,,,,,,,,,,,,,,,99999,99999,99999,99999,99999,99999,99999,99999,99999,99999,99999,99999
20:03:10,1510481790,2017-11-12T10:16:33,0.720,938.9,4.70,2.21,6.12,838.300,2034.300,95.316666,47.60,2.5487,355,23552,1.83437,3.90,44284,,,,,,,,,,,,,,,,,,99999,99999,99999,99999,99999,99999,99999,99999,99999,99999,99999,99999
20:03:40,1510481820,2017-11-12T10:17:03,0.725,939.2,4.70,2.20,6.16,838.300,2034.300,97.066666,47.78,2.5487,355,23549,1.84736,3.90,44279,,,,,,,,,,,,,,,,,,99999,99999,99999,99999,99999,99999,99999,99999,99999,99999,99999,99999
20:04:10,1510481850,2017-11-12T10:17:33,0.725,939.6,4.70,2.22,6.14,838.300,2034.300,97.533333,47.58,2.5487,355,23549,1.84795,3.90,44275,,,,,,,,,,,,,,,,,,99999,99999,99999,99999,99999,99999,99999,99999,99999,99999,99999,99999
20:04:40,1510481880,2017-11-12T10:18:03,0.723,940.0,4.69,2.21,6.15,838.320,2034.300,96.183334,47.62,2.5488,355,23550,1.84381,3.90,44270,,,,,,,,,,,,,,,,,,99999,99999,99999,99999,99999,99999,99999,99999,99999,99999,99999,99999
20:05:10,1510481910,2017-11-12T10:18:33,0.720,940.3,4.70,2.23,6.15,838.270,2034.300,96.416664,47.71,2.5487,355,23552,1.83467,3.90,44266,,,,,,,,,,,,,,,,,,99999,99999,99999,99999,99999,99999,99999,99999,99999,99999,99999,99999
20:05:40,1510481940,2017-11-12T10:19:03,0.725,940.7,4.70,2.21,6.12,838.250,2034.300,98.783333,47.70,2.5487,355,23550,1.84884,3.90,44262,,,,,,,,,,,,,,,,,,99999,99999,99999,99999,99999,99999,99999,99999,99999,99999,99999,99999
20:06:10,1510481970,2017-11-12T10:19:33,0.726,941.0,4.71,2.19,6.12,838.300,2034.400,97.783333,47.81,2.5487,355,23552,1.84913,3.90,44257,,,,,,,,,,,,,,,,,,99999,99999,99999,99999,99999,99999,99999,99999,99999,99999,99999,99999
20:06:40,1510482000,2017-11-12T10:20:03,0.720,941.4,4.71,2.22,6.12,838.270,2034.400,96.483330,47.80,2.5487,355,23549,1.83496,3.90,44253,,,,,,,,,,,,,,,,,,99999,99999,99999,99999,99999,99999,99999,99999,99999,99999,99999,99999
20:07:10,1510482030,2017-11-12T10:20:33,0.726,941.8,4.71,2.24,6.15,838.220,2034.400,98.616669,47.82,2.5487,355,23548,1.84973,3.90,44248,,,,,,,,,,,,,,,,,,99999,99999,99999,99999,99999,99999,99999,99999,99999,99999,99999,99999
20:07:40,1510482060,2017-11-12T10:21:03,0.725,942.1,4.72,2.25,6.12,838.170,2034.400,98.400002,47.88,2.5486,355,23547,1.84884,3.90,44244,,,,,,,,,,,,,,,,,,99999,99999,99999,99999,99999,99999,99999,99999,99999,99999,99999,99999
20:08:10,1510482090,2017-11-12T10:21:33,0.724,942.5,4.73,2.23,6.18,838.240,2034.460,96.516670,47.87,2.5486,355,23550,1.84470,3.90,44239,,,,,,,,,,,,,,,,,,99999,99999,99999,99999,99999,99999,99999,99999,99999,99999,99999,99999
20:08:40,1510482120,2017-11-12T10:22:03,0.718,942.8,4.73,2.22,6.18,838.210,2034.460,96.583336,47.76,2.5486,355,23551,1.83055,3.90,44235,,,,,,,,,,,,,,,,,,99999,99999,99999,99999,99999,99999,99999,99999,99999,99999,99999,99999
20:09:10,1510482150,2017-11-12T10:22:33,0.727,943.2,4.74,2.22,6.15,838.140,2034.460,97.183334,47.58,2.5485,355,23550,1.85269,3.90,44230,,,,,,,,,,,,,,,,,,99999,99999,99999,99999,99999,99999,99999,99999,99999,99999,99999,99999
20:09:40,1510482180,2017-11-12T10:23:03,0.727,943.6,4.75,2.22,6.16,838.210,2034.510,97.400002,47.54,2.5485,355,23550,1.85150,3.90,44226,,,,,,,,,,,,,,,,,,99999,99999,99999,99999,99999,99999,99999,99999,99999,99999,99999,99999
20:10:10,1510482210,2017-11-12T10:23:33,0.722,943.9,4.73,2.27,6.20,838.210,2034.460,97.583336,47.68,2.5486,355,23549,1.83998,3.90,44222,,,,,,,,,,,,,,,,,,99999,99999,99999,99999,99999,99999,99999,99999,99999,99999,99999,99999
20:10:40,1510482240,2017-11-12T10:24:03,0.727,944.3,4.75,2.23,6.16,838.210,2034.510,96.966667,47.62,2.5485,355,23553,1.85239,3.90,44217,,,,,,,,,,,,,,,,,,99999,99999,99999,99999,99999,99999,99999,99999,99999,99999,99999,99999
20:11:10,1510482270,2017-11-12T10:24:33,0.727,944.7,4.76,2.25,6.18,838.180,2034.570,97.966667,47.57,2.5485,355,23551,1.85180,3.90,44213,,,,,,,,,,,,,,,,,,99999,99999,99999,99999,99999,99999,99999,99999,99999,99999,99999,99999
20:11:40,1510482300,2017-11-12T10:25:03,0.727,945.0,4.75,2.24,6.18,838.050,2034.510,97.816666,47.63,2.5485,355,23552,1.85269,3.90,44208,,,,,,,,,,,,,,,,,,99999,99999,99999,99999,99999,99999,99999,99999,99999,99999,99999,99999
20:12:10,1510482330,2017-11-12T10:25:33,0.725,945.4,4.77,2.25,6.22,838.200,2034.570,96.716667,47.49,2.5484,355,23553,1.84736,3.90,44204,,,,,,,,,,,,,,,,,,99999,99999,99999,99999,99999,99999,99999,99999,99999,99999,99999,99999
20:12:40,1510482360,2017-11-12T10:26:03,0.722,945.7,4.75,2.25,6.22,838.180,2034.510,95.283333,47.37,2.5485,355,23552,1.83998,3.90,44199,,,,,,,,,,,,,,,,,,99999,99999,99999,99999,99999,99999,99999,99999,99999,99999,99999,99999
20:13:10,1510482390,2017-11-12T10:26:33,0.720,946.1,4.76,2.23,6.20,838.280,2034.570,95.900002,47.36,2.5485,355,23551,1.83408,3.90,44195,,,,,,,,,,,,,,,,,,99999,99999,99999,99999,99999,99999,99999,99999,99999,99999,99999,99999
20:13:40,1510482420,2017-11-12T10:27:03,0.726,946.5,4.77,2.24,6.18,838.150,2034.570,98.166664,47.44,2.5484,355,23552,1.85002,3.90,44190,,,,,,,,,,,,,,,,,,99999,99999,99999,99999,99999,99999,99999,99999,99999,99999,99999,99999
20:14:10,1510482450,2017-11-12T10:27:33,0.722,946.8,4.77,2.26,6.20,838.230,2034.570,96.283333,47.49,2.5484,355,23550,1.83998,3.90,44186,,,,,,,,,,,,,,,,,,99999,99999,99999,99999,99999,99999,99999,99999,99999,99999,99999,99999
20:14:40,1510482480,2017-11-12T10:28:03,0.727,947.2,4.76,2.24,6.18,838.200,2034.570,96.983330,47.26,2.5485,355,23552,1.85328,3.90,44181,,,,,,,,,,,,,,,,,,99999,99999,99999,99999,99999,99999,99999,99999,99999,99999,99999,99999
20:15:10,1510482510,2017-11-12T10:28:33,0.719,947.6,4.76,2.26,6.20,838.310,2034.570,96.466667,47.33,2.5485,355,23549,1.83290,3.90,44177,,,,,,,,,,,,,,,,,,99999,99999,99999,99999,99999,99999,99999,99999,99999,99999,99999,99999
20:15:40,1510482540,2017-11-12T10:29:03,0.727,947.9,4.76,2.24,6.20,838.250,2034.570,97.783333,47.31,2.5485,355,23553,1.85150,3.90,44173,,,,,,,,,,,,,,,,,,99999,99999,99999,99999,99999,99999,99999,99999,99999,99999,99999,99999
20:16:10,1510482570,2017-11-12T10:29:33,0.720,948.3,4.77,2.23,6.20,838.250,2034.570,96.116669,47.26,2.5484,355,23551,1.83526,3.90,44168,,,,,,,,,,,,,,,,,,99999,99999,99999,99999,99999,99999,99999,99999,99999,99999,99999,99999
20:16:40,1510482600,2017-11-12T10:30:03,0.727,948.6,4.76,2.22,6.20,838.250,2034.570,97.800003,47.30,2.5485,355,23549,1.85358,3.90,44164,,,,,,,,,,,,,,,,,,99999,99999,99999,99999,99999,99999,99999,99999,99999,99999,99999,99999
20:17:10,1510482630,2017-11-12T10:30:33,0.726,949.0,4.76,2.21,6.22,838.280,2034.570,96.883331,47.19,2.5485,355,23551,1.85061,3.90,44159,,,,,,,,,,,,,,,,,,99999,99999,99999,99999,99999,99999,99999,99999,99999,99999,99999,99999
20:17:40,1510482660,2017-11-12T10:31:03,0.721,949.4,4.75,2.22,6.16,838.240,2034.510,95.683334,47.22,2.5485,355,23551,1.83703,3.90,44155,,,,,,,,,,,,,,,,,,99999,99999,99999,99999,99999,99999,99999,99999,99999,99999,99999,99999
20:18:10,1510482690,2017-11-12T10:31:33,0.719,949.7,4.75,2.20,6.18,838.240,2034.510,95.816666,47.25,2.5485,355,23550,1.83202,3.90,44150,,,,,,,,,,,,,,,,,,99999,99999,99999,99999,99999,99999,99999,99999,99999,99999,99999,99999
20:18:40,1510482720,2017-11-12T10:32:03,0.719,950.1,4.74,2.23,6.16,838.160,2034.460,95.666664,47.26,2.5485,355,23549,1.83290,3.90,44146,,,,,,,,,,,,,,,,,,99999,99999,99999,99999,99999,99999,99999,99999,99999,99999,99999,99999
20:19:10,1510482750,2017-11-12T10:32:33,0.719,950.4,4.73,2.20,6.16,838.240,2034.460,96.000000,47.09,2.5486,355,23550,1.83349,3.90,44141,,,,,,,,,,,,,,,,,,99999,99999,99999,99999,99999,99999,99999,99999,99999,99999,99999,99999
20:19:40,1510482780,2017-11-12T10:33:03,0.723,950.8,4.73,2.20,6.15,838.160,2034.460,96.150002,47.21,2.5486,355,23550,1.84175,3.90,44137,,,,,,,,,,,,,,,,,,99999,99999,99999,99999,99999,99999,99999,99999,99999,99999,99999,99999
20:20:10,1510482810,2017-11-12T10:33:33,0.727,951.2,4.73,2.20,6.15,838.160,2034.460,97.983330,47.24,2.5486,355,23551,1.85209,3.90,44132,,,,,,,,,,,,,,,,,,99999,99999,99999,99999,99999,99999,99999,99999,99999,99999,99999,99999
20:20:40,1510482840,2017-11-12T10:34:03,0.720,951.5,4.73,2.19,6.12,838.290,2034.460,96.500000,47.16,2.5486,355,23549,1.83496,3.90,44128,,,,,,,,,,,,,,,,,,99999,99999,99999,99999,99999,99999,99999,99999,99999,99999,99999,99999
20:21:10,1510482870,2017-11-12T10:34:33,0.727,951.9,4.71,2.17,6.14,838.220,2034.400,96.766670,47.14,2.5487,355,23549,1.85328,3.90,44124,,,,,,,,,,,,,,,,,,99999,99999,99999,99999,99999,99999,99999,99999,99999,99999,99999,99999
20:21:40,1510482900,2017-11-12T10:35:03,0.720,952.3,4.72,2.19,6.14,838.170,2034.400,95.966667,47.05,2.5486,355,23549,1.83437,3.90,44119,,,,,,,,,,,,,,,,,,99999,99999,99999,99999,99999,99999,99999,99999,99999,99999,99999,99999
20:22:10,1510482930,2017-11-12T10:35:33,0.726,952.6,4.71,2.16,6.14,838.220,2034.400,96.866669,47.29,2.5487,355,23550,1.85002,3.90,44115,,,,,,,,,,,,,,,,,,99999,99999,99999,99999,99999,99999,99999,99999,99999,99999,99999,99999
20:22:40,1510482960,2017-11-12T10:36:03,0.721,953.0,4.71,2.18,6.11,838.270,2034.400,96.316666,47.43,2.5487,355,23546,1.83732,3.90,44110,,,,,,,,,,,,,,,,,,99999,99999,99999,99999,99999,99999,99999,99999,99999,99999,99999,99999
20:23:10,1510482990,2017-11-12T10:36:33,0.725,953.3,4.70,2.17,6.12,838.250,2034.300,97.349998,47.46,2.5487,355,23549,1.84795,3.90,44106,,,,,,,,,,,,,,,,,,99999,99999,99999,99999,99999,99999,99999,99999,99999,99999,99999,99999
20:23:40,1510483020,2017-11-12T10:37:03,0.726,953.7,4.69,2.14,6.15,838.300,2034.300,96.766670,47.42,2.5488,355,23550,1.84943,3.90,44101,,,,,,,,,,,,,,,,,,99999,99999,99999,99999,99999,99999,99999,99999,99999,99999,99999,99999
20:24:10,1510483050,2017-11-12T10:37:33,0.720,954.1,4.69,2.15,6.11,838.300,2034.300,95.616669,47.28,2.5488,355,23549,1.83408,3.90,44097,,,,,,,,,,,,,,,,,,99999,99999,99999,99999,99999,99999,99999,99999,99999,99999,99999,99999
20:24:40,1510483080,2017-11-12T10:38:03,0.719,954.4,4.69,2.13,6.09,838.190,2034.300,96.316666,47.34,2.5488,355,23549,1.83202,3.90,44092,,,,,,,,,,,,,,,,,,99999,99999,99999,99999,99999,99999,99999,99999,99999,99999,99999,99999
20:25:10,1510483110,2017-11-12T10:38:33,0.725,954.8,4.68,2.14,6.12,838.300,2034.230,96.933334,47.34,2.5488,355,23548,1.84736,3.90,44088,,,,,,,,,,,,,,,,,,99999,99999,99999,99999,99999,99999,99999,99999,99999,99999,99999,99999
20:25:40,1510483140,2017-11-12T10:39:03,0.723,955.2,4.68,2.13,6.09,838.280,2034.230,96.599998,47.24,2.5488,355,23549,1.84234,3.90,44084,,,,,,,,,,,,,,,,,,99999,99999,99999,99999,99999,99999,99999,99999,99999,99999,99999,99999
20:26:10,1510483170,2017-11-12T10:39:33,0.727,955.5,4.67,2.12,6.09,838.250,2034.230,96.800003,47.33,2.5489,355,23546,1.85180,3.90,44079,,,,,,,,,,,,,,,,,,99999,99999,99999,99999,99999,99999,99999,99999,99999,99999,99999,99999
20:26:40,1510483200,2017-11-12T10:40:03,0.723,955.9,4.66,2.14,6.12,838.280,2034.170,96.433334,47.16,2.5489,355,23548,1.84411,3.90,44075,,,,,,,,,,,,,,,,,,99999,99999,99999,99999,99999,99999,99999,99999,99999,99999,99999,99999
20:27:10,1510483230,2017-11-12T10:40:33,0.726,956.2,4.64,2.09,6.07,838.310,2034.130,97.066666,47.21,2.5490,355,23548,1.85091,3.90,44070,,,,,,,,,,,,,,,,,,99999,99999,99999,99999,99999,99999,99999,99999,99999,99999,99999,99999
20:27:40,1510483260,2017-11-12T10:41:03,0.720,956.6,4.63,2.11,6.05,838.230,2034.130,95.699997,47.19,2.5491,355,23546,1.83555,3.90,44066,,,,,,,,,,,,,,,,,,99999,99999,99999,99999,99999,99999,99999,99999,99999,99999,99999,99999
20:28:10,1510483290,2017-11-12T10:41:33,0.719,957.0,4.63,2.09,6.07,838.340,2034.130,96.316666,47.19,2.5491,355,23548,1.83349,3.90,44061,,,,,,,,,,,,,,,,,,99999,99999,99999,99999,99999,99999,99999,99999,99999,99999,99999,99999
20:28:40,1510483320,2017-11-12T10:42:03,0.726,957.3,4.63,2.10,6.02,838.280,2034.130,97.516670,47.33,2.5491,355,23546,1.85180,3.90,44057,,,,,,,,,,,,,,,,,,99999,99999,99999,99999,99999,99999,99999,99999,99999,99999,99999,99999
20:29:10,1510483350,2017-11-12T10:42:33,0.726,957.7,4.61,2.09,6.04,838.240,2034.070,97.183334,47.39,2.5492,355,23546,1.85091,3.90,44052,,,,,,,,,,,,,,,,,,99999,99999,99999,99999,99999,99999,99999,99999,99999,99999,99999,99999
20:29:40,1510483380,2017-11-12T10:43:03,0.726,958.0,4.60,2.07,6.02,838.240,2034.010,96.233330,47.52,2.5492,355,23546,1.85150,3.90,44048,,,,,,,,,,,,,,,,,,99999,99999,99999,99999,99999,99999,99999,99999,99999,99999,99999,99999
20:30:10,1510483410,2017-11-12T10:43:33,0.723,958.4,4.59,2.05,6.01,838.220,2034.010,96.333336,47.46,2.5493,355,23545,1.84234,3.90,44043,,,,,,,,,,,,,,,,,,99999,99999,99999,99999,99999,99999,99999,99999,99999,99999,99999,99999
20:30:40,1510483440,2017-11-12T10:44:03,0.722,958.8,4.59,2.05,6.02,838.220,2034.010,95.500000,47.55,2.5493,355,23544,1.84116,3.90,44039,,,,,,,,,,,,,,,,,,99999,99999,99999,99999,99999,99999,99999,99999,99999,99999,99999,99999
20:31:10,1510483470,2017-11-12T10:44:33,0.719,959.1,4.57,2.05,5.99,838.250,2033.960,94.699997,47.66,2.5495,355,23544,1.83320,3.90,44035,,,,,,,,,,,,,,,,,,99999,99999,99999,99999,99999,99999,99999,99999,99999,99999,99999,99999
20:31:40,1510483500,2017-11-12T10:45:03,0.725,959.5,4.57,2.06,5.99,838.300,2033.960,96.433334,47.67,2.5495,355,23545,1.84913,3.90,44030,,,,,,,,,,,,,,,,,,99999,99999,99999,99999,99999,99999,99999,99999,99999,99999,99999,99999
20:32:10,1510483530,2017-11-12T10:45:33,0.720,959.9,4.57,2.04,5.94,838.250,2033.960,96.516670,47.77,2.5495,355,23545,1.83644,3.90,44026,,,,,,,,,,,,,,,,,,99999,99999,99999,99999,99999,99999,99999,99999,99999,99999,99999,99999
20:32:40,1510483560,2017-11-12T10:46:03,0.726,960.2,4.56,2.02,5.94,838.300,2033.860,96.633331,47.68,2.5494,355,23544,1.84973,3.90,44021,,,,,,,,,,,,,,,,,,99999,99999,99999,99999,99999,99999,99999,99999,99999,99999,99999,99999
20:33:10,1510483590,2017-11-12T10:46:33,0.718,960.6,4.55,2.02,5.96,838.330,2033.800,95.300003,47.60,2.5494,355,23544,1.83173,3.90,44017,,,,,,,,,,,,,,,,,,99999,99999,99999,99999,99999,99999,99999,99999,99999,99999,99999,99999
20:33:40,1510483620,2017-11-12T10:47:03,0.725,960.9,4.53,2.01,5.94,838.280,2033.730,96.699997,47.75,2.5495,355,23544,1.84825,3.90,44012,,,,,,,,,,,,,,,,,,99999,99999,99999,99999,99999,99999,99999,99999,99999,99999,99999,99999
20:34:10,1510483650,2017-11-12T10:47:33,0.726,961.3,4.52,2.01,5.93,838.260,2033.730,97.650002,47.98,2.5496,355,23545,1.85002,3.90,44008,,,,,,,,,,,,,,,,,,99999,99999,99999,99999,99999,99999,99999,99999,99999,99999,99999,99999
20:34:40,1510483680,2017-11-12T10:48:03,0.722,961.7,4.51,1.99,5.94,838.310,2033.690,97.016670,48.12,2.5497,355,23544,1.84056,3.90,44003,,,,,,,,,,,,,,,,,,99999,99999,99999,99999,99999,99999,99999,99999,99999,99999,99999,99999
20:35:10,1510483710,2017-11-12T10:48:33,0.718,962.0,4.51,2.01,5.94,838.340,2033.690,95.550003,48.11,2.5497,355,23544,1.83114,3.90,43999,,,,,,,,,,,,,,,,,,99999,99999,99999,99999,99999,99999,99999,99999,99999,99999,99999,99999
20:35:40,1510483740,2017-11-12T10:49:03,0.720,962.4,4.50,1.99,5.93,838.260,2033.690,95.300003,47.96,2.5498,355,23543,1.83467,3.90,43995,,,,,,,,,,,,,,,,,,99999,99999,99999,99999,99999,99999,99999,99999,99999,99999,99999,99999
20:36:10,1510483770,2017-11-12T10:49:33,0.719,962.7,4.48,1.96,5.88,838.250,2033.630,95.183334,47.91,2.5499,355,23544,1.83320,3.90,43990,,,,,,,,,,,,,,,,,,99999,99999,99999,99999,99999,99999,99999,99999,99999,99999,99999,99999
20:36:40,1510483800,2017-11-12T10:50:03,0.720,963.1,4.47,1.96,5.91,838.200,2033.530,96.033333,47.82,2.5498,355,23543,1.83614,3.90,43986,,,,,,,,,,,,,,,,,,99999,99999,99999,99999,99999,99999,99999,99999,99999,99999,99999,99999
20:37:10,1510483830,2017-11-12T10:50:33,0.724,963.5,4.47,1.96,5.88,838.250,2033.530,96.833336,47.82,2.5498,355,23542,1.84618,3.90,43981,,,,,,,,,,,,,,,,,,99999,99999,99999,99999,99999,99999,99999,99999,99999,99999,99999,99999
20:37:40,1510483860,2017-11-12T10:51:03,0.725,963.8,4.45,1.96,5.88,838.200,2033.400,96.983330,47.98,2.5499,355,23543,1.84973,3.89,43977,,,,,,,,,,,,,,,,,,99999,99999,99999,99999,99999,99999,99999,99999,99999,99999,99999,99999
20:38:10,1510483890,2017-11-12T10:51:33,0.717,964.2,4.45,1.93,5.86,838.280,2033.400,95.750000,47.79,2.5499,355,23542,1.82849,3.89,43972,,,,,,,,,,,,,,,,,,99999,99999,99999,99999,99999,99999,99999,99999,99999,99999,99999,99999
20:38:40,1510483920,2017-11-12T10:52:03,0.726,964.5,4.43,1.93,5.88,838.280,2033.360,97.266670,48.00,2.5500,355,23541,1.85032,3.89,43968,,,,,,,,,,,,,,,,,,99999,99999,99999,99999,99999,99999,99999,99999,99999,99999,99999,99999
20:39:10,1510483950,2017-11-12T10:52:33,0.721,964.9,4.41,1.92,5.83,838.230,2033.360,96.033333,47.91,2.5502,355,23541,1.83909,3.89,43963,,,,,,,,,,,,,,,,,,99999,99999,99999,99999,99999,99999,99999,99999,99999,99999,99999,99999
20:39:40,1510483980,2017-11-12T10:53:03,0.718,965.3,4.41,1.91,5.84,838.310,2033.360,95.716667,47.90,2.5502,355,23540,1.83055,3.89,43959,,,,,,,,,,,,,,,,,,99999,99999,99999,99999,99999,99999,99999,99999,99999,99999,99999,99999
20:40:10,1510484010,2017-11-12T10:53:33,0.725,965.6,4.40,1.88,5.83,838.230,2033.300,97.433334,47.28,2.5502,355,23541,1.84854,3.89,43954,,,,,,,,,,,,,,,,,,99999,99999,99999,99999,99999,99999,99999,99999,99999,99999,99999,99999
20:40:40,1510484040,2017-11-12T10:54:03,0.723,966.0,4.39,1.86,5.83,838.290,2033.300,96.300003,47.53,2.5503,355,23541,1.84411,3.89,43950,,,,,,,,,,,,,,,,,,99999,99999,99999,99999,99999,99999,99999,99999,99999,99999,99999,99999
20:41:10,1510484070,2017-11-12T10:54:33,0.725,966.3,4.36,1.86,5.75,838.240,2033.190,96.883331,47.82,2.5504,355,23539,1.84795,3.89,43946,,,,,,,,,,,,,,,,,,99999,99999,99999,99999,99999,99999,99999,99999,99999,99999,99999,99999
20:41:40,1510484100,2017-11-12T10:55:03,0.720,966.7,4.35,1.83,5.76,838.270,2033.130,96.583336,47.86,2.5505,355,23538,1.83555,3.89,43941,,,,,,,,,,,,,,,,,,99999,99999,99999,99999,99999,99999,99999,99999,99999,99999,99999,99999
20:42:10,1510484130,2017-11-12T10:55:33,0.723,967.1,4.33,1.83,5.75,838.150,2033.090,96.500000,48.05,2.5506,355,23538,1.84441,3.89,43937,,,,,,,,,,,,,,,,,,99999,99999,99999,99999,99999,99999,99999,99999,99999,99999,99999,99999
20:42:40,1510484160,2017-11-12T10:56:03,0.719,967.4,4.33,1.84,5.75,838.280,2033.090,94.666664,48.13,2.5506,355,23538,1.83379,3.89,43932,,,,,,,,,,,,,,,,,,99999,99999,99999,99999,99999,99999,99999,99999,99999,99999,99999,99999
20:43:10,1510484190,2017-11-12T10:56:33,0.719,967.8,4.31,1.80,5.73,838.260,2032.960,95.833336,48.17,2.5506,355,23540,1.83437,3.89,43928,,,,,,,,,,,,,,,,,,99999,99999,99999,99999,99999,99999,99999,99999,99999,99999,99999,99999
20:43:40,1510484220,2017-11-12T10:57:03,0.724,968.2,4.29,1.79,5.72,838.290,2032.920,96.599998,48.38,2.5507,355,23537,1.84736,3.89,43923,,,,,,,,,,,,,,,,,,99999,99999,99999,99999,99999,99999,99999,99999,99999,99999,99999,99999
20:44:10,1510484250,2017-11-12T10:57:33,0.721,968.5,4.28,1.78,5.68,838.240,2032.920,95.433334,48.35,2.5508,355,23538,1.84027,3.89,43919,,,,,,,,,,,,,,,,,,99999,99999,99999,99999,99999,99999,99999,99999,99999,99999,99999,99999
20:44:40,1510484280,2017-11-12T10:58:03,0.724,968.9,4.26,1.78,5.72,838.240,2032.860,95.400002,48.43,2.5509,355,23538,1.84707,3.89,43914,,,,,,,,,,,,,,,,,,99999,99999,99999,99999,99999,99999,99999,99999,99999,99999,99999,99999
20:45:10,1510484310,2017-11-12T10:58:33,0.716,969.2,4.24,1.75,5.70,838.270,2032.760,94.716667,48.52,2.5510,355,23538,1.82614,3.89,43910,,,,,,,,,,,,,,,,,,99999,99999,99999,99999,99999,99999,99999,99999,99999,99999,99999,99999
20:45:40,1510484340,2017-11-12T10:59:03,0.716,969.6,4.23,1.73,5.67,838.300,2032.760,95.216667,48.65,2.5511,355,23538,1.82585,3.89,43906,,,,,,,,,,,,,,,,,,99999,99999,99999,99999,99999,99999,99999,99999,99999,99999,99999,99999
20:46:10,1510484370,2017-11-12T10:59:33,0.721,970.0,4.22,1.73,5.68,838.180,2032.690,95.916664,48.54,2.5511,355,23537,1.83998,3.89,43901,,,,,,,,,,,,,,,,,,99999,99999,99999,99999,99999,99999,99999,99999,99999,99999,99999,99999
20:46:40,1510484400,2017-11-12T11:00:03,0.716,970.3,4.21,1.75,5.64,838.310,2032.690,96.033333,48.50,2.5512,355,23538,1.82761,3.89,43897,,,,,,,,,,,,,,,,,,99999,99999,99999,99999,99999,99999,99999,99999,99999,99999,99999,99999
20:47:10,1510484430,2017-11-12T11:00:33,0.724,970.7,4.19,1.73,5.62,838.260,2032.630,96.933334,48.53,2.5513,355,23535,1.84647,3.89,43892,,,,,,,,,,,,,,,,,,99999,99999,99999,99999,99999,99999,99999,99999,99999,99999,99999,99999
20:47:40,1510484460,2017-11-12T11:01:03,0.722,971.0,4.17,1.71,5.62,838.260,2032.530,96.416664,48.55,2.5514,355,23535,1.84175,3.89,43888,,,,,,,,,,,,,,,,,,99999,99999,99999,99999,99999,99999,99999,99999,99999,99999,99999,99999
20:48:10,1510484490,2017-11-12T11:01:33,0.723,971.4,4.15,1.69,5.54,838.290,2032.480,96.183334,48.53,2.5515,355,23531,1.84352,3.89,43883,,,,,,,,,,,,,,,,,,99999,99999,99999,99999,99999,99999,99999,99999,99999,99999,99999,99999
20:48:40,1510484520,2017-11-12T11:02:03,0.720,971.8,4.14,1.69,5.59,838.320,2032.420,96.566666,48.50,2.5515,355,23535,1.83732,3.89,43879,,,,,,,,,,,,,,,,,,99999,99999,99999,99999,99999,99999,99999,99999,99999,99999,99999,99999
20:49:10,1510484550,2017-11-12T11:02:33,0.716,972.1,4.14,1.67,5.55,838.320,2032.420,95.183334,48.48,2.5515,355,23534,1.82643,3.89,43875,,,,,,,,,,,,,,,,,,99999,99999,99999,99999,99999,99999,99999,99999,99999,99999,99999,99999
20:49:40,1510484580,2017-11-12T11:03:03,0.720,972.5,4.13,1.67,5.59,838.270,2032.360,95.616669,48.63,2.5515,355,23535,1.83821,3.89,43870,,,,,,,,,,,,,,,,,,99999,99999,99999,99999,99999,99999,99999,99999,99999,99999,99999,99999
20:50:10,1510484610,2017-11-12T11:03:33,0.721,972.8,4.11,1.66,5.61,838.270,2032.320,96.550003,48.55,2.5517,355,23533,1.83968,3.89,43866,,,,,,,,,,,,,,,,,,99999,99999,99999,99999,99999,99999,99999,99999,99999,99999,99999,99999
20:50:40,1510484640,2017-11-12T11:04:03,0.719,973.2,4.10,1.66,5.55,838.280,2032.320,95.416664,48.73,2.5517,355,23534,1.83496,3.89,43861,,,,,,,,,,,,,,,,,,99999,99999,99999,99999,99999,99999,99999,99999,99999,99999,99999,99999
20:51:10,1510484670,2017-11-12T11:04:33,0.715,973.6,4.09,1.63,5.54,838.280,2032.260,95.750000,48.61,2.5518,355,23532,1.82467,3.89,43857,,,,,,,,,,,,,,,,,,99999,99999,99999,99999,99999,99999,99999,99999,99999,99999,99999,99999
20:51:40,1510484700,2017-11-12T11:05:03,0.723,973.9,4.09,1.63,5.54,838.300,2032.260,96.300003,48.73,2.5518,355,23533,1.84411,3.89,43852,,,,,,,,,,,,,,,,,,99999,99999,99999,99999,99999,99999,99999,99999,99999,99999,99999,99999
20:52:10,1510484730,2017-11-12T11:05:33,0.715,974.3,4.08,1.62,5.53,838.280,2032.260,95.099998,48.69,2.5518,355,23531,1.82379,3.89,43848,,,,,,,,,,,,,,,,,,99999,99999,99999,99999,99999,99999,99999,99999,99999,99999,99999,99999
20:52:40,1510484760,2017-11-12T11:06:03,0.723,974.6,4.06,1.61,5.53,838.260,2032.190,96.699997,48.64,2.5519,355,23533,1.84470,3.89,43844,,,,,,,,,,,,,,,,,,99999,99999,99999,99999,99999,99999,99999,99999,99999,99999,99999,99999
20:53:10,1510484790,2017-11-12T11:06:33,0.720,975.0,4.05,1.61,5.49,838.290,2032.090,95.783333,48.63,2.5519,355,23533,1.83791,3.89,43839,,,,,,,,,,,,,,,,,,99999,99999,99999,99999,99999,99999,99999,99999,99999,99999,99999,99999
20:53:40,1510484820,2017-11-12T11:07:03,0.715,975.3,4.03,1.59,5.46,838.340,2032.030,95.500000,48.49,2.5520,355,23531,1.82585,3.89,43835,,,,,,,,,,,,,,,,,,99999,99999,99999,99999,99999,99999,99999,99999,99999,99999,99999,99999
20:54:10,1510484850,2017-11-12T11:07:33,0.721,975.7,4.02,1.58,5.51,838.370,2031.980,96.683334,48.00,2.5521,355,23533,1.83998,3.89,43830,,,,,,,,,,,,,,,,,,99999,99999,99999,99999,99999,99999,99999,99999,99999,99999,99999,99999
20:54:40,1510484880,2017-11-12T11:08:03,0.718,976.1,4.00,1.57,5.44,838.350,2031.920,95.300003,48.59,2.5522,355,23531,1.83173,3.89,43826,,,,,,,,,,,,,,,,,,99999,99999,99999,99999,99999,99999,99999,99999,99999,99999,99999,99999
20:55:10,1510484910,2017-11-12T11:08:33,0.716,976.4,3.99,1.55,5.46,838.300,2031.920,94.733330,48.60,2.5523,355,23532,1.82643,3.89,43821,,,,,,,,,,,,,,,,,,99999,99999,99999,99999,99999,99999,99999,99999,99999,99999,99999,99999
20:55:40,1510484940,2017-11-12T11:09:03,0.717,976.8,3.98,1.55,5.41,838.300,2031.880,95.016670,48.52,2.5523,355,23533,1.83055,3.89,43817,,,,,,,,,,,,,,,,,,99999,99999,99999,99999,99999,99999,99999,99999,99999,99999,99999,99999
20:56:10,1510484970,2017-11-12T11:09:33,0.719,977.1,3.96,1.50,5.43,838.360,2031.820,96.349998,48.88,2.5524,355,23530,1.83614,3.89,43813,,,,,,,,,,,,,,,,,,99999,99999,99999,99999,99999,99999,99999,99999,99999,99999,99999,99999
20:56:40,1510485000,2017-11-12T11:10:03,0.721,977.5,3.95,1.51,5.38,838.360,2031.820,96.349998,48.81,2.5525,355,23529,1.84116,3.89,43808,,,,,,,,,,,,,,,,,,99999,99999,99999,99999,99999,99999,99999,99999,99999,99999,99999,99999
20:57:10,1510485030,2017-11-12T11:10:33,0.722,977.9,3.95,1.49,5.39,838.410,2031.820,96.583336,48.79,2.5525,355,23529,1.84234,3.89,43804,,,,,,,,,,,,,,,,,,99999,99999,99999,99999,99999,99999,99999,99999,99999,99999,99999,99999
20:57:40,1510485060,2017-11-12T11:11:03,0.722,978.2,3.93,1.48,5.34,838.370,2031.760,95.849998,48.87,2.5526,355,23528,1.84293,3.89,43799,,,,,,,,,,,,,,,,,,99999,99999,99999,99999,99999,99999,99999,99999,99999,99999,99999,99999
20:58:10,1510485090,2017-11-12T11:11:33,0.719,978.6,3.91,1.46,5.34,838.370,2031.590,96.150002,49.00,2.5526,355,23527,1.83555,3.89,43795,,,,,,,,,,,,,,,,,,99999,99999,99999,99999,99999,99999,99999,99999,99999,99999,99999,99999
20:58:40,1510485120,2017-11-12T11:12:03,0.714,978.9,3.90,1.45,5.34,838.350,2031.590,94.966667,49.02,2.5527,355,23529,1.82203,3.89,43790,,,,,,,,,,,,,,,,,,99999,99999,99999,99999,99999,99999,99999,99999,99999,99999,99999,99999
20:59:10,1510485150,2017-11-12T11:12:33,0.720,979.3,3.89,1.44,5.33,838.400,2031.550,96.150002,49.14,2.5527,355,23528,1.83762,3.89,43786,,,,,,,,,,,,,,,,,,99999,99999,99999,99999,99999,99999,99999,99999,99999,99999,99999,99999
20:59:40,1510485180,2017-11-12T11:13:03,0.716,979.7,3.88,1.45,5.33,838.410,2031.550,96.033333,49.01,2.5528,355,23525,1.82820,3.89,43782,,,,,,,,,,,,,,,,,,99999,99999,99999,99999,99999,99999,99999,99999,99999,99999,99999,99999
21:00:10,1510485210,2017-11-12T11:13:33,0.720,980.0,3.87,1.42,5.28,838.350,2031.480,95.766670,49.31,2.5528,355,23524,1.83879,3.89,43777,,,,,,,,,,,,,,,,,,99999,99999,99999,99999,99999,99999,99999,99999,99999,99999,99999,99999
21:00:40,1510485240,2017-11-12T11:14:03,0.714,980.4,3.86,1.44,5.32,838.410,2031.480,94.466667,49.36,2.5529,355,23525,1.82379,3.89,43773,,,,,,,,,,,,,,,,,,99999,99999,99999,99999,99999,99999,99999,99999,99999,99999,99999,99999
21:01:10,1510485270,2017-11-12T11:14:33,0.721,980.7,3.86,1.43,5.28,838.440,2031.480,96.599998,49.24,2.5529,355,23523,1.84027,3.89,43768,,,,,,,,,,,,,,,,,,99999,99999,99999,99999,99999,99999,99999,99999,99999,99999,99999,99999
21:01:40,1510485300,2017-11-12T11:15:03,0.721,981.1,3.83,1.41,5.28,838.440,2031.380,95.983330,49.20,2.5531,355,23526,1.83968,3.89,43764,,,,,,,,,,,,,,,,,,99999,99999,99999,99999,99999,99999,99999,99999,99999,99999,99999,99999
21:02:10,1510485330,2017-11-12T11:15:33,0.719,981.5,3.82,1.37,5.28,838.360,2031.320,95.783333,49.36,2.5531,355,23524,1.83673,3.89,43759,,,,,,,,,,,,,,,,,,99999,99999,99999,99999,99999,99999,99999,99999,99999,99999,99999,99999
21:02:40,1510485360,2017-11-12T11:16:03,0.721,981.8,3.82,1.37,5.24,838.470,2031.320,95.900002,49.16,2.5531,355,23523,1.83968,3.89,43755,,,,,,,,,,,,,,,,,,99999,99999,99999,99999,99999,99999,99999,99999,99999,99999,99999,99999
21:03:10,1510485390,2017-11-12T11:16:33,0.721,982.2,3.81,1.38,5.26,838.470,2031.320,95.983330,49.13,2.5532,355,23523,1.84204,3.89,43751,,,,,,,,,,,,,,,,,,99999,99999,99999,99999,99999,99999,99999,99999,99999,99999,99999,99999
21:03:40,1510485420,2017-11-12T11:17:03,0.717,982.5,3.79,1.37,5.25,838.350,2031.210,95.783333,49.56,2.5532,355,23525,1.83055,3.89,43746,,,,,,,,,,,,,,,,,,99999,99999,99999,99999,99999,99999,99999,99999,99999,99999,99999,99999
21:04:10,1510485450,2017-11-12T11:17:33,0.720,982.9,3.79,1.37,5.22,838.430,2031.210,95.099998,49.55,2.5532,355,23523,1.83909,3.89,43742,,,,,,,,,,,,,,,,,,99999,99999,99999,99999,99999,99999,99999,99999,99999,99999,99999,99999
21:04:40,1510485480,2017-11-12T11:18:03,0.721,983.2,3.79,1.35,5.24,838.430,2031.210,95.900002,49.60,2.5532,355,23525,1.84056,3.89,43737,,,,,,,,,,,,,,,,,,99999,99999,99999,99999,99999,99999,99999,99999,99999,99999,99999,99999
21:05:10,1510485510,2017-11-12T11:18:33,0.717,983.6,3.78,1.31,5.20,838.510,2031.150,95.766670,49.51,2.5532,355,23524,1.82996,3.89,43733,,,,,,,,,,,,,,,,,,99999,99999,99999,99999,99999,99999,99999,99999,99999,99999,99999,99999
21:05:40,1510485540,2017-11-12T11:19:03,0.714,984.0,3.78,1.33,5.18,838.450,2031.150,94.883331,49.60,2.5532,355,23523,1.82320,3.89,43729,,,,,,,,,,,,,,,,,,99999,99999,99999,99999,99999,99999,99999,99999,99999,99999,99999,99999
21:06:10,1510485570,2017-11-12T11:19:33,0.718,984.3,3.77,1.31,5.18,838.460,2031.150,95.849998,49.49,2.5533,355,23521,1.83290,3.89,43724,,,,,,,,,,,,,,,,,,99999,99999,99999,99999,99999,99999,99999,99999,99999,99999,99999,99999
21:06:40,1510485600,2017-11-12T11:20:03,0.720,984.7,3.75,1.29,5.22,838.490,2031.110,95.516670,49.41,2.5535,355,23522,1.83762,3.89,43720,,,,,,,,,,,,,,,,,,99999,99999,99999,99999,99999,99999,99999,99999,99999,99999,99999,99999
21:07:10,1510485630,2017-11-12T11:20:33,0.714,985.0,3.76,1.30,5.18,838.480,2031.110,94.199997,49.67,2.5534,355,23523,1.82408,3.89,43715,,,,,,,,,,,,,,,,,,99999,99999,99999,99999,99999,99999,99999,99999,99999,99999,99999,99999
21:07:40,1510485660,2017-11-12T11:21:03,0.712,985.4,3.74,1.29,5.20,838.430,2031.040,94.066666,49.69,2.5535,355,23520,1.81910,3.89,43711,,,,,,,,,,,,,,,,,,99999,99999,99999,99999,99999,99999,99999,99999,99999,99999,99999,99999
21:08:10,1510485690,2017-11-12T11:21:33,0.713,985.8,3.74,1.30,5.15,838.430,2031.040,94.866669,49.54,2.5535,355,23522,1.81968,3.89,43706,,,,,,,,,,,,,,,,,,99999,99999,99999,99999,99999,99999,99999,99999,99999,99999,99999,99999
21:08:40,1510485720,2017-11-12T11:22:03,0.716,986.1,3.73,1.26,5.15,838.460,2031.040,94.650002,49.40,2.5536,355,23520,1.82790,3.89,43702,,,,,,,,,,,,,,,,,,99999,99999,99999,99999,99999,99999,99999,99999,99999,99999,99999,99999
21:09:10,1510485750,2017-11-12T11:22:33,0.719,986.5,3.72,1.27,5.15,838.410,2030.980,95.900002,49.42,2.5536,355,23522,1.83673,3.89,43698,,,,,,,,,,,,,,,,,,99999,99999,99999,99999,99999,99999,99999,99999,99999,99999,99999,99999
21:09:40,1510485780,2017-11-12T11:23:03,0.717,986.8,3.72,1.27,5.14,838.440,2030.980,95.516670,49.63,2.5536,355,23524,1.83114,3.89,43693,,,,,,,,,,,,,,,,,,99999,99999,99999,99999,99999,99999,99999,99999,99999,99999,99999,99999
21:10:10,1510485810,2017-11-12T11:23:33,0.712,987.2,3.71,1.25,5.14,838.440,2030.940,94.316666,49.55,2.5536,355,23520,1.81851,3.89,43689,,,,,,,,,,,,,,,,,,99999,99999,99999,99999,99999,99999,99999,99999,99999,99999,99999,99999
21:10:40,1510485840,2017-11-12T11:24:03,0.717,987.5,3.71,1.24,5.15,838.440,2030.940,94.199997,49.71,2.5536,355,23521,1.82996,3.89,43684,,,,,,,,,,,,,,,,,,99999,99999,99999,99999,99999,99999,99999,99999,99999,99999,99999,99999
21:11:10,1510485870,2017-11-12T11:24:33,0.713,987.9,3.69,1.25,5.12,838.500,2030.840,94.816666,49.93,2.5537,355,23522,1.82174,3.89,43680,,,,,,,,,,,,,,,,,,99999,99999,99999,99999,99999,99999,99999,99999,99999,99999,99999,99999
21:11:40,1510485900,2017-11-12T11:25:03,0.716,988.3,3.69,1.22,5.14,838.450,2030.840,94.699997,49.79,2.5537,355,23519,1.82878,3.89,43676,,,,,,,,,,,,,,,,,,99999,99999,99999,99999,99999,99999,99999,99999,99999,99999,99999,99999
21:12:10,1510485930,2017-11-12T11:25:33,0.716,988.6,3.68,1.22,5.12,838.480,2030.840,94.466667,49.72,2.5538,355,23520,1.82849,3.89,43671,,,,,,,,,,,,,,,,,,99999,99999,99999,99999,99999,99999,99999,99999,99999,99999,99999,99999
21:12:40,1510485960,2017-11-12T11:26:03,0.712,989.0,3.66,1.23,5.12,838.480,2030.780,94.800003,49.98,2.5539,355,23517,1.81939,3.89,43667,,,,,,,,,,,,,,,,,,99999,99999,99999,99999,99999,99999,99999,99999,99999,99999,99999,99999
21:13:10,1510485990,2017-11-12T11:26:33,0.721,989.3,3.67,1.23,5.07,838.530,2030.780,95.266670,50.03,2.5538,355,23520,1.84145,3.89,43662,,,,,,,,,,,,,,,,,,99999,99999,99999,99999,99999,99999,99999,99999,99999,99999,99999,99999
21:13:40,1510486020,2017-11-12T11:27:03,0.718,989.7,3.66,1.21,5.07,838.450,2030.780,95.000000,50.10,2.5539,355,23518,1.83320,3.89,43658,,,,,,,,,,,,,,,,,,99999,99999,99999,99999,99999,99999,99999,99999,99999,99999,99999,99999
21:14:10,1510486050,2017-11-12T11:27:33,0.715,990.1,3.67,1.21,5.11,838.530,2030.780,94.966667,50.09,2.5538,355,23519,1.82555,3.89,43653,,,,,,,,,,,,,,,,,,99999,99999,99999,99999,99999,99999,99999,99999,99999,99999,99999,99999
21:14:40,1510486080,2017-11-12T11:28:03,0.712,990.4,3.65,1.21,5.05,838.500,2030.710,94.166664,50.00,2.5539,355,23518,1.81910,3.89,43649,,,,,,,,,,,,,,,,,,99999,99999,99999,99999,99999,99999,99999,99999,99999,99999,99999,99999
21:15:10,1510486110,2017-11-12T11:28:33,0.720,990.8,3.64,1.19,5.11,838.460,2030.710,95.383331,50.02,2.5540,355,23519,1.83939,3.89,43645,,,,,,,,,,,,,,,,,,99999,99999,99999,99999,99999,99999,99999,99999,99999,99999,99999,99999
21:15:40,1510486140,2017-11-12T11:29:03,0.713,991.1,3.64,1.19,5.05,838.490,2030.710,95.000000,49.93,2.5540,355,23518,1.82027,3.89,43640,,,,,,,,,,,,,,,,,,99999,99999,99999,99999,99999,99999,99999,99999,99999,99999,99999,99999
21:16:10,1510486170,2017-11-12T11:29:33,0.712,991.5,3.64,1.19,5.05,838.460,2030.710,95.099998,49.76,2.5540,355,23520,1.81968,3.89,43636,,,,,,,,,,,,,,,,,,99999,99999,99999,99999,99999,99999,99999,99999,99999,99999,99999,99999
21:16:40,1510486200,2017-11-12T11:30:03,0.716,991.8,3.63,1.18,5.09,838.490,2030.670,95.666664,49.81,2.5540,355,23516,1.82790,3.89,43631,,,,,,,,,,,,,,,,,,99999,99999,99999,99999,99999,99999,99999,99999,99999,99999,99999,99999
21:17:10,1510486230,2017-11-12T11:30:33,0.719,992.2,3.62,1.18,5.07,838.540,2030.670,95.333336,49.90,2.5541,355,23519,1.83703,3.89,43627,,,,,,,,,,,,,,,,,,99999,99999,99999,99999,99999,99999,99999,99999,99999,99999,99999,99999
21:17:40,1510486260,2017-11-12T11:31:03,0.718,992.6,3.62,1.18,5.05,838.440,2030.670,95.033333,49.83,2.5541,355,23518,1.83320,3.89,43623,,,,,,,,,,,,,,,,,,99999,99999,99999,99999,99999,99999,99999,99999,99999,99999,99999,99999
21:18:10,1510486290,2017-11-12T11:31:33,0.719,992.9,3.61,1.16,5.05,838.550,2030.610,95.333336,49.86,2.5541,355,23517,1.83673,3.89,43618,,,,,,,,,,,,,,,,,,99999,99999,99999,99999,99999,99999,99999,99999,99999,99999,99999,99999
21:18:40,1510486320,2017-11-12T11:32:03,0.720,993.3,3.62,1.15,5.03,838.590,2030.670,96.016670,49.95,2.5541,355,23515,1.83909,3.89,43614,,,,,,,,,,,,,,,,,,99999,99999,99999,99999,99999,99999,99999,99999,99999,99999,99999,99999
21:19:10,1510486350,2017-11-12T11:32:33,0.718,993.6,3.61,1.15,5.04,838.490,2030.610,95.833336,49.22,2.5541,355,23517,1.83496,3.89,43609,,,,,,,,,,,,,,,,,,99999,99999,99999,99999,99999,99999,99999,99999,99999,99999,99999,99999
21:19:40,1510486380,2017-11-12T11:33:03,0.719,994.0,3.59,1.15,5.05,838.580,2030.550,95.683334,49.27,2.5543,355,23516,1.83614,3.89,43605,,,,,,,,,,,,,,,,,,99999,99999,99999,99999,99999,99999,99999,99999,99999,99999,99999,99999
21:20:10,1510486410,2017-11-12T11:33:33,0.712,994.4,3.59,1.13,5.03,838.600,2030.550,93.783333,49.18,2.5543,355,23516,1.81881,3.89,43601,,,,,,,,,,,,,,,,,,99999,99999,99999,99999,99999,99999,99999,99999,99999,99999,99999,99999
21:20:40,1510486440,2017-11-12T11:34:03,0.715,994.7,3.58,1.14,4.97,838.550,2030.510,96.250000,49.31,2.5543,355,23514,1.82702,3.89,43596,,,,,,,,,,,,,,,,,,99999,99999,99999,99999,99999,99999,99999,99999,99999,99999,99999,99999
21:21:10,1510486470,2017-11-12T11:34:33,0.713,995.1,3.57,1.12,4.96,838.580,2030.510,94.683334,49.77,2.5544,355,23515,1.82115,3.89,43592,,,,,,,,,,,,,,,,,,99999,99999,99999,99999,99999,99999,99999,99999,99999,99999,99999,99999
21:21:40,1510486500,2017-11-12T11:35:03,0.718,995.4,3.56,1.10,4.99,838.580,2030.380,95.966667,49.93,2.5543,355,23515,1.83379,3.89,43587,,,,,,,,,,,,,,,,,,99999,99999,99999,99999,99999,99999,99999,99999,99999,99999,99999,99999
21:22:10,1510486530,2017-11-12T11:35:33,0.714,995.8,3.54,1.07,5.01,838.610,2030.340,95.050003,49.78,2.5544,355,23514,1.82320,3.89,43583,,,,,,,,,,,,,,,,,,99999,99999,99999,99999,99999,99999,99999,99999,99999,99999,99999,99999
21:22:40,1510486560,2017-11-12T11:36:03,0.715,996.1,3.53,1.09,4.97,838.560,2030.340,94.050003,49.79,2.5545,355,23514,1.82526,3.89,43579,,,,,,,,,,,,,,,,,,99999,99999,99999,99999,99999,99999,99999,99999,99999,99999,99999,99999
21:23:10,1510486590,2017-11-12T11:36:33,0.717,996.5,3.52,1.10,4.97,838.560,2030.280,95.683334,49.88,2.5546,355,23515,1.83143,3.89,43574,,,,,,,,,,,,,,,,,,99999,99999,99999,99999,99999,99999,99999,99999,99999,99999,99999,99999
21:23:40,1510486620,2017-11-12T11:37:03,0.715,996.9,3.52,1.07,4.95,838.640,2030.280,94.233330,50.02,2.5545,355,23515,1.82555,3.89,43570,,,,,,,,,,,,,,,,,,99999,99999,99999,99999,99999,99999,99999,99999,99999,99999,99999,99999
21:24:10,1510486650,2017-11-12T11:37:33,0.713,997.2,3.53,1.08,4.95,838.590,2030.340,95.150002,49.99,2.5545,355,23514,1.82203,3.89,43565,,,,,,,,,,,,,,,,,,99999,99999,99999,99999,99999,99999,99999,99999,99999,99999,99999,99999
21:24:40,1510486680,2017-11-12T11:38:03,0.716,997.6,3.52,1.06,4.93,838.640,2030.280,96.699997,49.87,2.5546,355,23514,1.82820,3.89,43561,,,,,,,,,,,,,,,,,,99999,99999,99999,99999,99999,99999,99999,99999,99999,99999,99999,99999
21:25:10,1510486710,2017-11-12T11:38:33,0.719,997.9,3.51,1.06,4.95,838.540,2030.230,95.633331,50.02,2.5546,355,23514,1.83585,3.89,43557,,,,,,,,,,,,,,,,,,99999,99999,99999,99999,99999,99999,99999,99999,99999,99999,99999,99999
21:25:40,1510486740,2017-11-12T11:39:03,0.718,998.3,3.50,1.04,4.93,838.490,2030.230,95.550003,50.08,2.5547,355,23513,1.83496,3.89,43552,,,,,,,,,,,,,,,,,,99999,99999,99999,99999,99999,99999,99999,99999,99999,99999,99999,99999
21:26:10,1510486770,2017-11-12T11:39:33,0.718,998.6,3.50,1.06,4.93,838.520,2030.230,95.650002,50.03,2.5547,355,23514,1.83349,3.89,43548,,,,,,,,,,,,,,,,,,99999,99999,99999,99999,99999,99999,99999,99999,99999,99999,99999,99999
21:26:40,1510486800,2017-11-12T11:40:03,0.717,999.0,3.49,1.05,4.93,838.550,2030.170,94.150002,50.06,2.5547,355,23516,1.83143,3.89,43543,,,,,,,,,,,,,,,,,,99999,99999,99999,99999,99999,99999,99999,99999,99999,99999,99999,99999
21:27:10,1510486830,2017-11-12T11:40:33,0.713,999.4,3.49,1.04,4.96,838.620,2030.170,94.400002,50.10,2.5547,355,23515,1.82144,3.89,43539,,,,,,,,,,,,,,,,,,99999,99999,99999,99999,99999,99999,99999,99999,99999,99999,99999,99999
21:27:40,1510486860,2017-11-12T11:41:03,0.712,999.7,3.49,1.05,4.89,838.600,2030.170,93.883331,50.04,2.5547,355,23514,1.81822,3.89,43535,,,,,,,,,,,,,,,,,,99999,99999,99999,99999,99999,99999,99999,99999,99999,99999,99999,99999
21:28:10,1510486890,2017-11-12T11:41:33,0.716,1000.1,3.48,1.04,4.88,838.630,2030.170,95.716667,50.05,2.5548,355,23516,1.82996,3.89,43530,,,,,,,,,,,,,,,,,,99999,99999,99999,99999,99999,99999,99999,99999,99999,99999,99999,99999
21:28:40,1510486920,2017-11-12T11:42:03,0.718,1000.4,3.49,1.04,4.93,838.620,2030.170,94.783333,50.03,2.5547,355,23517,1.83320,3.89,43526,,,,,,,,,,,,,,,,,,99999,99999,99999,99999,99999,99999,99999,99999,99999,99999,99999,99999
21:29:10,1510486950,2017-11-12T11:42:33,0.714,1000.8,3.48,1.04,4.93,838.600,2030.170,95.199997,49.91,2.5548,355,23514,1.82379,3.89,43521,,,,,,,,,,,,,,,,,,99999,99999,99999,99999,99999,99999,99999,99999,99999,99999,99999,99999
21:29:40,1510486980,2017-11-12T11:43:03,0.711,1001.1,3.48,1.03,4.91,838.550,2030.170,94.383331,49.95,2.5548,355,23512,1.81529,3.88,43517,,,,,,,,,,,,,,,,,,99999,99999,99999,99999,99999,99999,99999,99999,99999,99999,99999,99999
21:30:10,1510487010,2017-11-12T11:43:33,0.711,1001.5,3.48,1.02,4.93,838.550,2030.170,94.216667,50.10,2.5548,355,23514,1.81734,3.89,43512,,,,,,,,,,,,,,,,,,99999,99999,99999,99999,99999,99999,99999,99999,99999,99999,99999,99999
21:30:40,1510487040,2017-11-12T11:44:03,0.711,1001.9,3.47,1.02,4.93,838.600,2030.110,94.166664,50.19,2.5548,355,23514,1.81529,3.89,43508,,,,,,,,,,,,,,,,,,99999,99999,99999,99999,99999,99999,99999,99999,99999,99999,99999,99999
21:31:10,1510487070,2017-11-12T11:44:33,0.714,1002.2,3.48,1.03,4.89,838.470,2030.170,94.016670,50.00,2.5548,355,23515,1.82408,3.88,43504,,,,,,,,,,,,,,,,,,99999,99999,99999,99999,99999,99999,99999,99999,99999,99999,99999,99999
21:31:40,1510487100,2017-11-12T11:45:03,0.717,1002.6,3.47,1.04,4.91,838.520,2030.110,94.966667,49.85,2.5548,355,23513,1.83261,3.88,43499,,,,,,,,,,,,,,,,,,99999,99999,99999,99999,99999,99999,99999,99999,99999,99999,99999,99999
21:32:10,1510487130,2017-11-12T11:45:33,0.718,1002.9,3.46,1.02,4.88,838.580,2030.110,95.800003,49.97,2.5549,355,23514,1.83496,3.88,43495,,,,,,,,,,,,,,,,,,99999,99999,99999,99999,99999,99999,99999,99999,99999,99999,99999,99999
21:32:40,1510487160,2017-11-12T11:46:03,0.719,1003.3,3.46,1.02,4.86,838.550,2030.110,95.500000,50.07,2.5549,355,23512,1.83703,3.88,43490,,,,,,,,,,,,,,,,,,99999,99999,99999,99999,99999,99999,99999,99999,99999,99999,99999,99999
21:33:10,1510487190,2017-11-12T11:46:33,0.717,1003.6,3.46,1.01,4.88,838.600,2030.110,95.250000,50.11,2.5549,355,23513,1.83202,3.88,43486,,,,,,,,,,,,,,,,,,99999,99999,99999,99999,99999,99999,99999,99999,99999,99999,99999,99999
21:33:40,1510487220,2017-11-12T11:47:03,0.719,1004.0,3.47,1.00,4.91,838.550,2030.110,95.866669,50.22,2.5548,355,23513,1.83614,3.88,43482,,,,,,,,,,,,,,,,,,99999,99999,99999,99999,99999,99999,99999,99999,99999,99999,99999,99999
21:34:10,1510487250,2017-11-12T11:47:33,0.719,1004.4,3.45,0.99,4.91,838.470,2030.060,95.750000,50.33,2.5549,355,23514,1.83644,3.88,43477,,,,,,,,,,,,,,,,,,99999,99999,99999,99999,99999,99999,99999,99999,99999,99999,99999,99999
21:34:40,1510487280,2017-11-12T11:48:03,0.717,1004.7,3.45,0.99,4.89,838.530,2030.060,95.250000,50.35,2.5549,355,23514,1.83084,3.88,43473,,,,,,,,,,,,,,,,,,99999,99999,99999,99999,99999,99999,99999,99999,99999,99999,99999,99999
21:35:10,1510487310,2017-11-12T11:48:33,0.712,1005.1,3.46,0.99,4.86,838.600,2030.110,94.816666,49.16,2.5549,355,23515,1.81793,3.88,43468,,,,,,,,,,,,,,,,,,99999,99999,99999,99999,99999,99999,99999,99999,99999,99999,99999,99999
21:35:40,1510487340,2017-11-12T11:49:03,0.711,1005.4,3.45,0.98,4.86,838.580,2030.060,93.966667,49.10,2.5550,355,23515,1.81646,3.88,43464,,,,,,,,,,,,,,,,,,99999,99999,99999,99999,99999,99999,99999,99999,99999,99999,99999,99999
21:36:10,1510487370,2017-11-12T11:49:33,0.718,1005.8,3.44,0.96,4.89,838.610,2030.060,94.883331,49.71,2.5550,355,23515,1.83349,3.88,43460,,,,,,,,,,,,,,,,,,99999,99999,99999,99999,99999,99999,99999,99999,99999,99999,99999,99999
21:36:40,1510487400,2017-11-12T11:50:03,0.711,1006.1,3.43,0.96,4.84,838.580,2029.940,94.333336,49.85,2.5550,355,23511,1.81646,3.88,43455,,,,,,,,,,,,,,,,,,99999,99999,99999,99999,99999,99999,99999,99999,99999,99999,99999,99999
21:37:10,1510487430,2017-11-12T11:50:33,0.710,1006.5,3.42,0.98,4.84,838.580,2029.940,93.800003,49.88,2.5551,355,23512,1.81529,3.88,43451,,,,,,,,,,,,,,,,,,99999,99999,99999,99999,99999,99999,99999,99999,99999,99999,99999,99999
21:37:40,1510487460,2017-11-12T11:51:03,0.718,1006.9,3.42,0.98,4.84,838.580,2029.940,94.466667,49.86,2.5551,355,23512,1.83379,3.88,43446,,,,,,,,,,,,,,,,,,99999,99999,99999,99999,99999,99999,99999,99999,99999,99999,99999,99999
21:38:10,1510487490,2017-11-12T11:51:33,0.711,1007.2,3.41,0.95,4.88,838.590,2029.900,94.183334,49.88,2.5551,355,23509,1.81734,3.88,43442,,,,,,,,,,,,,,,,,,99999,99999,99999,99999,99999,99999,99999,99999,99999,99999,99999,99999
21:38:40,1510487520,2017-11-12T11:52:03,0.718,1007.6,3.40,0.94,4.84,838.560,2029.840,95.466667,50.10,2.5551,355,23511,1.83437,3.88,43438,,,,,,,,,,,,,,,,,,99999,99999,99999,99999,99999,99999,99999,99999,99999,99999,99999,99999
21:39:10,1510487550,2017-11-12T11:52:33,0.711,1007.9,3.39,0.95,4.83,838.490,2029.840,94.066666,50.03,2.5552,355,23509,1.81587,3.88,43433,,,,,,,,,,,,,,,,,,99999,99999,99999,99999,99999,99999,99999,99999,99999,99999,99999,99999
21:39:40,1510487580,2017-11-12T11:53:03,0.717,1008.3,3.39,0.92,4.86,838.590,2029.840,95.333336,50.09,2.5552,355,23510,1.83261,3.88,43429,,,,,,,,,,,,,,,,,,99999,99999,99999,99999,99999,99999,99999,99999,99999,99999,99999,99999
21:40:10,1510487610,2017-11-12T11:53:33,0.711,1008.7,3.39,0.92,4.83,838.570,2029.840,94.033333,50.19,2.5552,355,23509,1.81617,3.88,43424,,,,,,,,,,,,,,,,,,99999,99999,99999,99999,99999,99999,99999,99999,99999,99999,99999,99999
21:40:40,1510487640,2017-11-12T11:54:03,0.718,1009.0,3.38,0.92,4.83,838.620,2029.790,95.833336,50.42,2.5552,355,23512,1.83379,3.88,43420,,,,,,,,,,,,,,,,,,99999,99999,99999,99999,99999,99999,99999,99999,99999,99999,99999,99999
21:41:10,1510487670,2017-11-12T11:54:33,0.714,1009.4,3.38,0.90,4.80,838.620,2029.790,94.733330,50.50,2.5552,355,23510,1.82438,3.88,43415,,,,,,,,,,,,,,,,,,99999,99999,99999,99999,99999,99999,99999,99999,99999,99999,99999,99999
21:41:40,1510487700,2017-11-12T11:55:03,0.710,1009.7,3.38,0.90,4.80,838.700,2029.790,93.083336,50.63,2.5552,355,23509,1.81412,3.88,43411,,,,,,,,,,,,,,,,,,99999,99999,99999,99999,99999,99999,99999,99999,99999,99999,99999,99999
21:42:10,1510487730,2017-11-12T11:55:33,0.711,1010.1,3.38,0.92,4.82,838.650,2029.790,93.633331,50.66,2.5552,355,23509,1.81763,3.88,43407,,,,,,,,,,,,,,,,,,99999,99999,99999,99999,99999,99999,99999,99999,99999,99999,99999,99999
21:42:40,1510487760,2017-11-12T11:56:03,0.711,1010.4,3.38,0.91,4.78,838.620,2029.790,94.266670,50.55,2.5552,355,23511,1.81676,3.88,43402,,,,,,,,,,,,,,,,,,99999,99999,99999,99999,99999,99999,99999,99999,99999,99999,99999,99999
21:43:10,1510487790,2017-11-12T11:56:33,0.710,1010.8,3.37,0.88,4.88,838.630,2029.790,94.199997,50.50,2.5553,355,23511,1.81383,3.88,43398,,,,,,,,,,,,,,,,,,99999,99999,99999,99999,99999,99999,99999,99999,99999,99999,99999,99999
21:43:40,1510487820,2017-11-12T11:57:03,0.713,1011.2,3.36,0.90,4.80,838.600,2029.730,94.650002,50.52,2.5553,355,23508,1.82144,3.88,43393,,,,,,,,,,,,,,,,,,99999,99999,99999,99999,99999,99999,99999,99999,99999,99999,99999,99999
21:44:10,1510487850,2017-11-12T11:57:33,0.718,1011.5,3.37,0.88,4.80,838.630,2029.790,95.833336,50.42,2.5553,355,23511,1.83349,3.88,43389,,,,,,,,,,,,,,,,,,99999,99999,99999,99999,99999,99999,99999,99999,99999,99999,99999,99999
21:44:40,1510487880,2017-11-12T11:58:03,0.712,1011.9,3.36,0.89,4.82,838.680,2029.730,94.533333,50.46,2.5553,355,23510,1.82027,3.88,43385,,,,,,,,,,,,,,,,,,99999,99999,99999,99999,99999,99999,99999,99999,99999,99999,99999,99999
21:45:10,1510487910,2017-11-12T11:58:33,0.717,1012.2,3.36,0.87,4.75,838.630,2029.730,94.883331,50.65,2.5553,355,23511,1.83261,3.88,43380,,,,,,,,,,,,,,,,,,99999,99999,99999,99999,99999,99999,99999,99999,99999,99999,99999,99999
21:45:40,1510487940,2017-11-12T11:59:03,0.712,1012.6,3.37,0.89,4.80,838.650,2029.790,92.433334,50.99,2.5553,355,23511,1.81998,3.88,43376,,,,,,,,,,,,,,,,,,99999,99999,99999,99999,99999,99999,99999,99999,99999,99999,99999,99999
21:46:10,1510487970,2017-11-12T11:59:33,0.712,1012.9,3.36,0.89,4.80,838.630,2029.730,93.016670,51.07,2.5553,355,23508,1.81881,3.88,43371,,,,,,,,,,,,,,,,,,99999,99999,99999,99999,99999,99999,99999,99999,99999,99999,99999,99999
21:46:40,1510488000,2017-11-12T12:00:03,0.713,1013.3,3.36,0.90,4.80,838.680,2029.730,93.416664,51.09,2.5553,355,23510,1.82320,3.88,43367,,,,,,,,,,,,,,,,,,99999,99999,99999,99999,99999,99999,99999,99999,99999,99999,99999,99999
21:47:10,1510488030,2017-11-12T12:00:33,0.717,1013.7,3.35,0.88,4.78,838.660,2029.730,94.800003,51.10,2.5554,355,23509,1.83173,3.88,43363,,,,,,,,,,,,,,,,,,99999,99999,99999,99999,99999,99999,99999,99999,99999,99999,99999,99999
21:47:40,1510488060,2017-11-12T12:01:03,0.709,1014.0,3.36,0.90,4.82,838.680,2029.730,93.750000,51.08,2.5553,355,23509,1.81149,3.88,43358,,,,,,,,,,,,,,,,,,99999,99999,99999,99999,99999,99999,99999,99999,99999,99999,99999,99999
21:48:10,1510488090,2017-11-12T12:01:33,0.713,1014.4,3.36,0.91,4.76,838.680,2029.730,95.183334,50.88,2.5553,355,23510,1.82320,3.88,43354,,,,,,,,,,,,,,,,,,99999,99999,99999,99999,99999,99999,99999,99999,99999,99999,99999,99999
21:48:40,1510488120,2017-11-12T12:02:03,0.716,1014.7,3.35,0.92,4.76,838.660,2029.730,94.983330,50.85,2.5554,355,23509,1.82937,3.88,43349,,,,,,,,,,,,,,,,,,99999,99999,99999,99999,99999,99999,99999,99999,99999,99999,99999,99999
21:49:10,1510488150,2017-11-12T12:02:33,0.717,1015.1,3.35,0.89,4.75,838.660,2029.730,95.683334,50.77,2.5554,355,23508,1.83173,3.88,43345,,,,,,,,,,,,,,,,,,99999,99999,99999,99999,99999,99999,99999,99999,99999,99999,99999,99999
21:49:40,1510488180,2017-11-12T12:03:03,0.719,1015.4,3.36,0.88,4.78,838.730,2029.730,95.050003,50.94,2.5553,355,23512,1.83614,3.88,43341,,,,,,,,,,,,,,,,,,99999,99999,99999,99999,99999,99999,99999,99999,99999,99999,99999,99999
21:50:10,1510488210,2017-11-12T12:03:33,0.712,1015.8,3.35,0.88,4.80,838.730,2029.730,93.783333,50.95,2.5554,355,23512,1.81939,3.88,43336,,,,,,,,,,,,,,,,,,99999,99999,99999,99999,99999,99999,99999,99999,99999,99999,99999,99999
21:50:40,1510488240,2017-11-12T12:04:03,0.712,1016.2,3.34,0.88,4.80,838.660,2029.670,94.933334,50.94,2.5554,355,23512,1.81881,3.88,43332,,,,,,,,,,,,,,,,,,99999,99999,99999,99999,99999,99999,99999,99999,99999,99999,99999,99999
21:51:10,1510488270,2017-11-12T12:04:33,0.717,1016.5,3.34,0.87,4.74,838.710,2029.670,95.683334,50.73,2.5554,355,23513,1.83202,3.88,43327,,,,,,,,,,,,,,,,,,99999,99999,99999,99999,99999,99999,99999,99999,99999,99999,99999,99999
21:51:40,1510488300,2017-11-12T12:05:03,0.718,1016.9,3.34,0.87,4.76,838.680,2029.670,95.183334,50.59,2.5554,355,23511,1.83437,3.88,43323,,,,,,,,,,,,,,,,,,99999,99999,99999,99999,99999,99999,99999,99999,99999,99999,99999,99999
21:52:10,1510488330,2017-11-12T12:05:33,0.714,1017.2,3.35,0.90,4.80,838.710,2029.730,94.366669,50.41,2.5554,355,23510,1.82438,3.88,43319,,,,,,,,,,,,,,,,,,99999,99999,99999,99999,99999,99999,99999,99999,99999,99999,99999,99999
21:52:40,1510488360,2017-11-12T12:06:03,0.711,1017.6,3.34,0.89,4.75,838.680,2029.670,94.699997,50.27,2.5555,355,23510,1.81617,3.88,43314,,,,,,,,,,,,,,,,,,99999,99999,99999,99999,99999,99999,99999,99999,99999,99999,99999,99999
21:53:10,1510488390,2017-11-12T12:06:33,0.714,1017.9,3.33,0.85,4.76,838.690,2029.670,94.533333,50.28,2.5555,355,23508,1.82438,3.88,43310,,,,,,,,,,,,,,,,,,99999,99999,99999,99999,99999,99999,99999,99999,99999,99999,99999,99999
21:53:40,1510488420,2017-11-12T12:07:03,0.718,1018.3,3.33,0.85,4.78,838.760,2029.670,95.766670,50.35,2.5555,355,23510,1.83467,3.88,43305,,,,,,,,,,,,,,,,,,99999,99999,99999,99999,99999,99999,99999,99999,99999,99999,99999,99999
21:54:10,1510488450,2017-11-12T12:07:33,0.718,1018.7,3.32,0.85,4.75,838.710,2029.630,95.449997,50.31,2.5556,355,23509,1.83408,3.88,43301,,,,,,,,,,,,,,,,,,99999,99999,99999,99999,99999,99999,99999,99999,99999,99999,99999,99999
21:54:40,1510488480,2017-11-12T12:08:03,0.718,1019.0,3.32,0.86,4.75,838.710,2029.630,95.150002,50.57,2.5556,355,23507,1.83379,3.88,43297,,,,,,,,,,,,,,,,,,99999,99999,99999,99999,99999,99999,99999,99999,99999,99999,99999,99999
21:55:10,1510488510,2017-11-12T12:08:33,0.716,1019.4,3.31,0.85,4.72,838.640,2029.630,94.599998,50.52,2.5557,355,23508,1.82996,3.88,43292,,,,,,,,,,,,,,,,,,99999,99999,99999,99999,99999,99999,99999,99999,99999,99999,99999,99999
21:55:40,1510488540,2017-11-12T12:09:03,0.710,1019.7,3.32,0.83,4.70,838.680,2029.630,93.966667,50.77,2.5556,355,23508,1.81500,3.88,43288,,,,,,,,,,,,,,,,,,99999,99999,99999,99999,99999,99999,99999,99999,99999,99999,99999,99999
21:56:10,1510488570,2017-11-12T12:09:33,0.717,1020.1,3.29,0.81,4.74,838.670,2029.460,95.316666,50.34,2.5557,355,23507,1.83202,3.88,43283,,,,,,,,,,,,,,,,,,99999,99999,99999,99999,99999,99999,99999,99999,99999,99999,99999,99999
21:56:40,1510488600,2017-11-12T12:10:03,0.712,1020.4,3.30,0.81,4.74,838.690,2029.510,94.883331,50.43,2.5556,355,23507,1.81910,3.88,43279,,,,,,,,,,,,,,,,,,99999,99999,99999,99999,99999,99999,99999,99999,99999,99999,99999,99999
21:57:10,1510488630,2017-11-12T12:10:33,0.717,1020.8,3.29,0.81,4.74,838.690,2029.460,95.633331,50.64,2.5556,355,23506,1.83349,3.88,43274,,,,,,,,,,,,,,,,,,99999,99999,99999,99999,99999,99999,99999,99999,99999,99999,99999,99999
21:57:40,1510488660,2017-11-12T12:11:03,0.717,1021.2,3.28,0.80,4.74,838.670,2029.460,95.383331,50.58,2.5557,355,23508,1.83290,3.88,43270,,,,,,,,,,,,,,,,,,99999,99999,99999,99999,99999,99999,99999,99999,99999,99999,99999,99999
21:58:10,1510488690,2017-11-12T12:11:33,0.711,1021.5,3.28,0.80,4.72,838.640,2029.460,95.416664,50.70,2.5557,355,23507,1.81822,3.88,43266,,,,,,,,,,,,,,,,,,99999,99999,99999,99999,99999,99999,99999,99999,99999,99999,99999,99999
21:58:40,1510488720,2017-11-12T12:12:03,0.717,1021.9,3.27,0.79,4.70,838.640,2029.400,94.666664,51.17,2.5557,355,23506,1.83290,3.88,43261,,,,,,,,,,,,,,,,,,99999,99999,99999,99999,99999,99999,99999,99999,99999,99999,99999,99999
21:59:10,1510488750,2017-11-12T12:12:33,0.718,1022.2,3.25,0.78,4.68,838.570,2029.360,95.650002,51.33,2.5559,355,23507,1.83526,3.88,43257,,,,,,,,,,,,,,,,,,99999,99999,99999,99999,99999,99999,99999,99999,99999,99999,99999,99999
21:59:40,1510488780,2017-11-12T12:13:03,0.710,1022.6,3.25,0.78,4.66,838.670,2029.360,92.699997,51.14,2.5559,355,23505,1.81412,3.88,43252,,,,,,,,,,,,,,,,,,99999,99999,99999,99999,99999,99999,99999,99999,99999,99999,99999,99999
22:00:10,1510488810,2017-11-12T12:13:33,0.717,1022.9,3.26,0.76,4.68,838.700,2029.400,94.866669,51.26,2.5558,355,23508,1.83202,3.88,43248,,,,,,,,,,,,,,,,,,99999,99999,99999,99999,99999,99999,99999,99999,99999,99999,99999,99999
22:00:40,1510488840,2017-11-12T12:14:03,0.711,1023.3,3.25,0.78,4.68,838.700,2029.360,94.449997,51.32,2.5559,355,23505,1.81822,3.88,43244,,,,,,,,,,,,,,,,,,99999,99999,99999,99999,99999,99999,99999,99999,99999,99999,99999,99999
22:01:10,1510488870,2017-11-12T12:14:33,0.717,1023.7,3.24,0.76,4.64,838.730,2029.340,95.500000,51.41,2.5559,355,23505,1.83379,3.88,43239,,,,,,,,,,,,,,,,,,99999,99999,99999,99999,99999,99999,99999,99999,99999,99999,99999,99999
22:01:40,1510488900,2017-11-12T12:15:03,0.714,1024.0,3.23,0.77,4.64,838.730,2029.290,95.283333,51.51,2.5560,355,23505,1.82585,3.88,43235,,,,,,,,,,,,,,,,,,99999,99999,99999,99999,99999,99999,99999,99999,99999,99999,99999,99999
22:02:10,1510488930,2017-11-12T12:15:33,0.716,1024.4,3.24,0.75,4.67,838.680,2029.340,95.616669,51.43,2.5559,355,23505,1.82996,3.88,43230,,,,,,,,,,,,,,,,,,99999,99999,99999,99999,99999,99999,99999,99999,99999,99999,99999,99999
22:02:40,1510488960,2017-11-12T12:16:03,0.716,1024.7,3.23,0.75,4.66,838.650,2029.290,94.983330,51.42,2.5560,355,23503,1.83114,3.88,43226,,,,,,,,,,,,,,,,,,99999,99999,99999,99999,99999,99999,99999,99999,99999,99999,99999,99999
22:03:10,1510488990,2017-11-12T12:16:33,0.717,1025.1,3.22,0.76,4.66,838.740,2029.290,94.466667,51.28,2.5561,355,23505,1.83379,3.88,43222,,,,,,,,,,,,,,,,,,99999,99999,99999,99999,99999,99999,99999,99999,99999,99999,99999,99999
22:03:40,1510489020,2017-11-12T12:17:03,0.714,1025.4,3.21,0.73,4.66,838.610,2029.230,94.633331,50.98,2.5561,355,23505,1.82379,3.88,43217,,,,,,,,,,,,,,,,,,99999,99999,99999,99999,99999,99999,99999,99999,99999,99999,99999,99999
22:04:10,1510489050,2017-11-12T12:17:33,0.711,1025.8,3.22,0.75,4.66,838.660,2029.290,92.666664,51.22,2.5561,355,23506,1.81676,3.88,43213,,,,,,,,,,,,,,,,,,99999,99999,99999,99999,99999,99999,99999,99999,99999,99999,99999,99999
22:04:40,1510489080,2017-11-12T12:18:03,0.716,1026.1,3.22,0.75,4.64,838.660,2029.290,94.449997,51.31,2.5561,355,23507,1.82908,3.88,43208,,,,,,,,,,,,,,,,,,99999,99999,99999,99999,99999,99999,99999,99999,99999,99999,99999,99999
22:05:10,1510489110,2017-11-12T12:18:33,0.713,1026.5,3.21,0.73,4.64,838.690,2029.230,93.833336,51.36,2.5561,355,23505,1.82320,3.88,43204,,,,,,,,,,,,,,,,,,99999,99999,99999,99999,99999,99999,99999,99999,99999,99999,99999,99999
22:05:40,1510489140,2017-11-12T12:19:03,0.715,1026.9,3.21,0.74,4.62,838.640,2029.230,95.599998,51.34,2.5561,355,23505,1.82702,3.88,43200,,,,,,,,,,,,,,,,,,99999,99999,99999,99999,99999,99999,99999,99999,99999,99999,99999,99999
22:06:10,1510489170,2017-11-12T12:19:33,0.717,1027.2,3.21,0.74,4.62,838.640,2029.230,95.533333,51.29,2.5561,355,23506,1.83202,3.88,43195,,,,,,,,,,,,,,,,,,99999,99999,99999,99999,99999,99999,99999,99999,99999,99999,99999,99999
22:06:40,1510489200,2017-11-12T12:20:03,0.711,1027.6,3.20,0.74,4.64,838.610,2029.190,93.599998,51.30,2.5561,355,23503,1.81646,3.88,43191,,,,,,,,,,,,,,,,,,99999,99999,99999,99999,99999,99999,99999,99999,99999,99999,99999,99999
22:07:10,1510489230,2017-11-12T12:20:33,0.716,1027.9,3.20,0.75,4.64,838.690,2029.190,95.066666,51.53,2.5561,355,23504,1.82908,3.88,43186,,,,,,,,,,,,,,,,,,99999,99999,99999,99999,99999,99999,99999,99999,99999,99999,99999,99999
22:07:40,1510489260,2017-11-12T12:21:03,0.713,1028.3,3.19,0.73,4.62,838.640,2029.190,94.883331,51.50,2.5562,355,23504,1.82320,3.88,43182,,,,,,,,,,,,,,,,,,99999,99999,99999,99999,99999,99999,99999,99999,99999,99999,99999,99999
22:08:10,1510489290,2017-11-12T12:21:33,0.717,1028.6,3.21,0.73,4.62,838.610,2029.230,95.266670,51.59,2.5561,355,23506,1.83173,3.88,43178,,,,,,,,,,,,,,,,,,99999,99999,99999,99999,99999,99999,99999,99999,99999,99999,99999,99999
22:08:40,1510489320,2017-11-12T12:22:03,0.717,1029.0,3.21,0.73,4.62,838.640,2029.230,95.183334,51.62,2.5561,355,23505,1.83290,3.88,43173,,,,,,,,,,,,,,,,,,99999,99999,99999,99999,99999,99999,99999,99999,99999,99999,99999,99999
22:09:10,1510489350,2017-11-12T12:22:33,0.708,1029.4,3.21,0.73,4.62,838.610,2029.230,94.066666,51.73,2.5561,355,23504,1.81090,3.88,43169,,,,,,,,,,,,,,,,,,99999,99999,99999,99999,99999,99999,99999,99999,99999,99999,99999,99999
22:09:40,1510489380,2017-11-12T12:23:03,0.712,1029.7,3.21,0.71,4.61,838.640,2029.230,94.583336,51.55,2.5561,355,23504,1.81939,3.88,43164,,,,,,,,,,,,,,,,,,99999,99999,99999,99999,99999,99999,99999,99999,99999,99999,99999,99999
22:10:10,1510489410,2017-11-12T12:23:33,0.711,1030.1,3.22,0.74,4.66,838.710,2029.290,93.500000,51.60,2.5561,355,23504,1.81646,3.88,43160,,,,,,,,,,,,,,,,,,99999,99999,99999,99999,99999,99999,99999,99999,99999,99999,99999,99999
22:10:40,1510489440,2017-11-12T12:24:03,0.712,1030.4,3.21,0.73,4.64,838.640,2029.230,94.550003,51.52,2.5561,355,23506,1.81910,3.88,43155,,,,,,,,,,,,,,,,,,99999,99999,99999,99999,99999,99999,99999,99999,99999,99999,99999,99999
22:11:10,1510489470,2017-11-12T12:24:33,0.713,1030.8,3.21,0.73,4.66,838.640,2029.230,94.083336,51.66,2.5561,355,23504,1.82320,3.88,43151,,,,,,,,,,,,,,,,,,99999,99999,99999,99999,99999,99999,99999,99999,99999,99999,99999,99999
22:11:40,1510489500,2017-11-12T12:25:03,0.717,1031.1,3.21,0.71,4.66,838.610,2029.230,95.349998,51.37,2.5561,355,23502,1.83173,3.88,43147,,,,,,,,,,,,,,,,,,99999,99999,99999,99999,99999,99999,99999,99999,99999,99999,99999,99999
22:12:10,1510489530,2017-11-12T12:25:33,0.709,1031.5,3.21,0.72,4.62,838.690,2029.230,93.599998,51.49,2.5561,355,23503,1.81266,3.88,43142,,,,,,,,,,,,,,,,,,99999,99999,99999,99999,99999,99999,99999,99999,99999,99999,99999,99999
22:12:40,1510489560,2017-11-12T12:26:03,0.714,1031.9,3.21,0.71,4.62,838.710,2029.230,94.199997,51.33,2.5561,355,23502,1.82585,3.88,43138,,,,,,,,,,,,,,,,,,99999,99999,99999,99999,99999,99999,99999,99999,99999,99999,99999,99999
22:13:10,1510489590,2017-11-12T12:26:33,0.715,1032.2,3.20,0.71,4.66,838.690,2029.190,94.583336,51.41,2.5561,355,23502,1.82702,3.88,43133,,,,,,,,,,,,,,,,,,99999,99999,99999,99999,99999,99999,99999,99999,99999,99999,99999,99999
22:13:40,1510489620,2017-11-12T12:27:03,0.715,1032.6,3.20,0.68,4.66,838.690,2029.190,92.883331,51.49,2.5561,355,23504,1.82732,3.88,43129,,,,,,,,,,,,,,,,,,99999,99999,99999,99999,99999,99999,99999,99999,99999,99999,99999,99999
22:14:10,1510489650,2017-11-12T12:27:33,0.718,1032.9,3.21,0.70,4.62,838.710,2029.230,94.333336,51.55,2.5561,355,23504,1.83526,3.88,43125,,,,,,,,,,,,,,,,,,99999,99999,99999,99999,99999,99999,99999,99999,99999,99999,99999,99999
22:14:40,1510489680,2017-11-12T12:28:03,0.713,1033.3,3.21,0.71,4.62,838.690,2029.230,93.283333,51.49,2.5561,355,23505,1.82320,3.88,43120,,,,,,,,,,,,,,,,,,99999,99999,99999,99999,99999,99999,99999,99999,99999,99999,99999,99999
22:15:10,1510489710,2017-11-12T12:28:33,0.711,1033.6,3.21,0.71,4.64,838.660,2029.230,93.866669,51.47,2.5561,355,23503,1.81851,3.88,43116,,,,,,,,,,,,,,,,,,99999,99999,99999,99999,99999,99999,99999,99999,99999,99999,99999,99999
22:15:40,1510489740,2017-11-12T12:29:03,0.710,1034.0,3.21,0.69,4.61,838.690,2029.230,93.566666,51.42,2.5561,355,23502,1.81441,3.88,43111,,,,,,,,,,,,,,,,,,99999,99999,99999,99999,99999,99999,99999,99999,99999,99999,99999,99999
22:16:10,1510489770,2017-11-12T12:29:33,0.709,1034.4,3.21,0.70,4.62,838.740,2029.230,93.833336,51.18,2.5561,355,23505,1.81324,3.88,43107,,,,,,,,,,,,,,,,,,99999,99999,99999,99999,99999,99999,99999,99999,99999,99999,99999,99999
22:16:40,1510489800,2017-11-12T12:30:03,0.708,1034.7,3.19,0.69,4.66,838.690,2029.190,94.250000,50.99,2.5562,355,23503,1.80915,3.88,43103,,,,,,,,,,,,,,,,,,99999,99999,99999,99999,99999,99999,99999,99999,99999,99999,99999,99999
22:17:10,1510489830,2017-11-12T12:30:33,0.717,1035.1,3.21,0.69,4.59,838.710,2029.230,95.033333,51.11,2.5561,355,23503,1.83290,3.88,43098,,,,,,,,,,,,,,,,,,99999,99999,99999,99999,99999,99999,99999,99999,99999,99999,99999,99999
22:17:40,1510489860,2017-11-12T12:31:03,0.710,1035.4,3.21,0.71,4.64,838.690,2029.230,94.533333,51.37,2.5561,355,23503,1.81470,3.88,43094,,,,,,,,,,,,,,,,,,99999,99999,99999,99999,99999,99999,99999,99999,99999,99999,99999,99999
22:18:10,1510489890,2017-11-12T12:31:33,0.712,1035.8,3.21,0.71,4.61,838.660,2029.230,93.516670,51.62,2.5561,355,23501,1.81998,3.88,43089,,,,,,,,,,,,,,,,,,99999,99999,99999,99999,99999,99999,99999,99999,99999,99999,99999,99999
22:18:40,1510489920,2017-11-12T12:32:03,0.717,1036.1,3.20,0.71,4.66,838.710,2029.190,94.816666,51.22,2.5561,355,23502,1.83290,3.88,43085,,,,,,,,,,,,,,,,,,99999,99999,99999,99999,99999,99999,99999,99999,99999,99999,99999,99999
22:19:10,1510489950,2017-11-12T12:32:33,0.717,1036.5,3.20,0.71,4.62,838.690,2029.190,94.400002,51.58,2.5561,355,23503,1.83261,3.88,43080,,,,,,,,,,,,,,,,,,99999,99999,99999,99999,99999,99999,99999,99999,99999,99999,99999,99999
22:19:40,1510489980,2017-11-12T12:33:03,0.711,1036.9,3.21,0.71,4.62,838.660,2029.230,93.616669,51.59,2.5561,355,23503,1.81763,3.88,43076,,,,,,,,,,,,,,,,,,99999,99999,99999,99999,99999,99999,99999,99999,99999,99999,99999,99999
22:20:10,1510490010,2017-11-12T12:33:33,0.717,1037.2,3.21,0.71,4.64,838.660,2029.230,94.783333,51.55,2.5561,355,23504,1.83290,3.88,43072,,,,,,,,,,,,,,,,,,99999,99999,99999,99999,99999,99999,99999,99999,99999,99999,99999,99999
22:20:40,1510490040,2017-11-12T12:34:03,0.708,1037.6,3.22,0.70,4.61,838.660,2029.290,94.283333,51.24,2.5561,355,23501,1.81003,3.88,43067,,,,,,,,,,,,,,,,,,99999,99999,99999,99999,99999,99999,99999,99999,99999,99999,99999,99999
22:21:10,1510490070,2017-11-12T12:34:33,0.709,1037.9,3.20,0.71,4.62,838.690,2029.190,93.699997,51.37,2.5561,355,23503,1.81295,3.88,43063,,,,,,,,,,,,,,,,,,99999,99999,99999,99999,99999,99999,99999,99999,99999,99999,99999,99999
22:21:40,1510490100,2017-11-12T12:35:03,0.714,1038.3,3.22,0.72,4.61,838.710,2029.290,94.683334,50.83,2.5561,355,23503,1.82614,3.88,43058,,,,,,,,,,,,,,,,,,99999,99999,99999,99999,99999,99999,99999,99999,99999,99999,99999,99999
22:22:10,1510490130,2017-11-12T12:35:33,0.716,1038.6,3.22,0.70,4.62,838.680,2029.290,95.016670,50.73,2.5561,355,23504,1.82967,3.88,43054,,,,,,,,,,,,,,,,,,99999,99999,99999,99999,99999,99999,99999,99999,99999,99999,99999,99999
22:22:40,1510490160,2017-11-12T12:36:03,0.716,1039.0,3.22,0.70,4.64,838.760,2029.290,95.116669,50.71,2.5561,355,23504,1.83055,3.88,43049,,,,,,,,,,,,,,,,,,99999,99999,99999,99999,99999,99999,99999,99999,99999,99999,99999,99999
22:23:10,1510490190,2017-11-12T12:36:33,0.715,1039.4,3.20,0.69,4.62,838.660,2029.190,94.916664,50.85,2.5561,355,23500,1.82732,3.88,43045,,,,,,,,,,,,,,,,,,99999,99999,99999,99999,99999,99999,99999,99999,99999,99999,99999,99999
22:23:40,1510490220,2017-11-12T12:37:03,0.716,1039.7,3.20,0.67,4.62,838.690,2029.190,94.933334,50.86,2.5561,355,23503,1.83084,3.88,43041,,,,,,,,,,,,,,,,,,99999,99999,99999,99999,99999,99999,99999,99999,99999,99999,99999,99999
22:24:10,1510490250,2017-11-12T12:37:33,0.717,1040.1,3.20,0.69,4.62,838.710,2029.190,95.066666,51.04,2.5561,355,23503,1.83290,3.88,43036,,,,,,,,,,,,,,,,,,99999,99999,99999,99999,99999,99999,99999,99999,99999,99999,99999,99999
22:24:40,1510490280,2017-11-12T12:38:03,0.710,1040.4,3.19,0.70,4.61,838.640,2029.190,94.199997,51.08,2.5562,355,23502,1.81383,3.87,43032,,,,,,,,,,,,,,,,,,99999,99999,99999,99999,99999,99999,99999,99999,99999,99999,99999,99999
22:25:10,1510490310,2017-11-12T12:38:33,0.713,1040.8,3.20,0.67,4.66,838.660,2029.190,93.900002,51.54,2.5561,355,23504,1.82144,3.88,43027,,,,,,,,,,,,,,,,,,99999,99999,99999,99999,99999,99999,99999,99999,99999,99999,99999,99999
22:25:40,1510490340,2017-11-12T12:39:03,0.716,1041.1,3.18,0.67,4.62,838.670,2029.060,95.000000,51.56,2.5561,355,23504,1.83026,3.88,43023,,,,,,,,,,,,,,,,,,99999,99999,99999,99999,99999,99999,99999,99999,99999,99999,99999,99999
22:26:10,1510490370,2017-11-12T12:39:33,0.708,1041.5,3.19,0.69,4.59,838.610,2029.190,93.266670,51.64,2.5562,355,23501,1.81032,3.88,43019,,,,,,,,,,,,,,,,,,99999,99999,99999,99999,99999,99999,99999,99999,99999,99999,99999,99999
22:26:40,1510490400,2017-11-12T12:40:03,0.711,1041.9,3.18,0.67,4.59,838.690,2029.060,92.833336,51.73,2.5561,355,23503,1.81705,3.88,43014,,,,,,,,,,,,,,,,,,99999,99999,99999,99999,99999,99999,99999,99999,99999,99999,99999,99999
22:27:10,1510490430,2017-11-12T12:40:33,0.712,1042.2,3.18,0.68,4.62,838.610,2029.060,92.599998,51.71,2.5561,355,23503,1.81939,3.87,43010,,,,,,,,,,,,,,,,,,99999,99999,99999,99999,99999,99999,99999,99999,99999,99999,99999,99999
22:27:40,1510490460,2017-11-12T12:41:03,0.713,1042.6,3.18,0.67,4.57,838.690,2029.060,94.783333,51.60,2.5561,355,23502,1.82379,3.87,43005,,,,,,,,,,,,,,,,,,99999,99999,99999,99999,99999,99999,99999,99999,99999,99999,99999,99999
22:28:10,1510490490,2017-11-12T12:41:33,0.709,1042.9,3.20,0.67,4.61,838.710,2029.190,92.883331,51.36,2.5561,355,23503,1.81295,3.87,43001,,,,,,,,,,,,,,,,,,99999,99999,99999,99999,99999,99999,99999,99999,99999,99999,99999,99999
22:28:40,1510490520,2017-11-12T12:42:03,0.708,1043.3,3.19,0.69,4.61,838.590,2029.190,94.016670,51.49,2.5562,355,23504,1.81090,3.87,42997,,,,,,,,,,,,,,,,,,99999,99999,99999,99999,99999,99999,99999,99999,99999,99999,99999,99999
22:29:10,1510490550,2017-11-12T12:42:33,0.713,1043.6,3.20,0.68,4.62,838.640,2029.190,95.099998,51.46,2.5561,355,23502,1.82261,3.87,42992,,,,,,,,,,,,,,,,,,99999,99999,99999,99999,99999,99999,99999,99999,99999,99999,99999,99999
22:29:40,1510490580,2017-11-12T12:43:03,0.713,1044.0,3.19,0.67,4.66,838.640,2029.190,95.516670,51.45,2.5562,355,23505,1.82203,3.87,42988,,,,,,,,,,,,,,,,,,99999,99999,99999,99999,99999,99999,99999,99999,99999,99999,99999,99999
22:30:10,1510490610,2017-11-12T12:43:33,0.709,1044.4,3.20,0.69,4.61,838.660,2029.190,94.216667,50.96,2.5561,355,23505,1.81295,3.87,42983,,,,,,,,,,,,,,,,,,99999,99999,99999,99999,99999,99999,99999,99999,99999,99999,99999,99999
22:30:40,1510490640,2017-11-12T12:44:03,0.717,1044.7,3.20,0.67,4.64,838.740,2029.190,95.433334,51.22,2.5561,355,23503,1.83379,3.87,42979,,,,,,,,,,,,,,,,,,99999,99999,99999,99999,99999,99999,99999,99999,99999,99999,99999,99999
22:31:10,1510490670,2017-11-12T12:44:33,0.709,1045.1,3.18,0.68,4.61,838.610,2029.060,93.466667,51.32,2.5561,355,23503,1.81207,3.87,42974,,,,,,,,,,,,,,,,,,99999,99999,99999,99999,99999,99999,99999,99999,99999,99999,99999,99999
22:31:40,1510490700,2017-11-12T12:45:03,0.717,1045.4,3.20,0.69,4.62,838.640,2029.190,95.783333,50.94,2.5561,355,23503,1.83320,3.87,42970,,,,,,,,,,,,,,,,,,99999,99999,99999,99999,99999,99999,99999,99999,99999,99999,99999,99999
22:32:10,1510490730,2017-11-12T12:45:33,0.717,1045.8,3.20,0.69,4.61,838.690,2029.190,95.199997,51.12,2.5561,355,23502,1.83173,3.87,42966,,,,,,,,,,,,,,,,,,99999,99999,99999,99999,99999,99999,99999,99999,99999,99999,99999,99999
22:32:40,1510490760,2017-11-12T12:46:03,0.716,1046.1,3.19,0.70,4.61,838.690,2029.190,95.150002,51.28,2.5562,355,23505,1.82967,3.87,42961,,,,,,,,,,,,,,,,,,99999,99999,99999,99999,99999,99999,99999,99999,99999,99999,99999,99999
22:33:10,1510490790,2017-11-12T12:46:33,0.712,1046.5,3.20,0.67,4.62,838.690,2029.190,94.483330,51.35,2.5561,355,23506,1.82027,3.87,42957,,,,,,,,,,,,,,,,,,99999,99999,99999,99999,99999,99999,99999,99999,99999,99999,99999,99999
22:33:40,1510490820,2017-11-12T12:47:03,0.709,1046.8,3.20,0.71,4.61,838.690,2029.190,94.283333,51.42,2.5561,355,23504,1.81266,3.87,42952,,,,,,,,,,,,,,,,,,99999,99999,99999,99999,99999,99999,99999,99999,99999,99999,99999,99999
22:34:10,1510490850,2017-11-12T12:47:33,0.715,1047.2,3.18,0.69,4.62,838.670,2029.060,95.250000,51.25,2.5561,355,23504,1.82820,3.87,42948,,,,,,,,,,,,,,,,,,99999,99999,99999,99999,99999,99999,99999,99999,99999,99999,99999,99999
22:34:40,1510490880,2017-11-12T12:48:03,0.711,1047.6,3.21,0.71,4.61,838.740,2029.230,94.000000,51.37,2.5561,355,23503,1.81705,3.87,42944,,,,,,,,,,,,,,,,,,99999,99999,99999,99999,99999,99999,99999,99999,99999,99999,99999,99999
22:35:10,1510490910,2017-11-12T12:48:33,0.718,1047.9,3.21,0.67,4.62,838.740,2029.230,94.199997,51.44,2.5561,355,23503,1.83437,3.87,42939,,,,,,,,,,,,,,,,,,99999,99999,99999,99999,99999,99999,99999,99999,99999,99999,99999,99999
22:35:40,1510490940,2017-11-12T12:49:03,0.709,1048.3,3.20,0.70,4.64,838.690,2029.190,93.250000,51.45,2.5561,355,23503,1.81354,3.87,42935,,,,,,,,,,,,,,,,,,99999,99999,99999,99999,99999,99999,99999,99999,99999,99999,99999,99999
22:36:10,1510490970,2017-11-12T12:49:33,0.715,1048.6,3.21,0.69,4.61,838.770,2029.230,94.583336,51.37,2.5561,355,23506,1.82643,3.87,42930,,,,,,,,,,,,,,,,,,99999,99999,99999,99999,99999,99999,99999,99999,99999,99999,99999,99999
22:36:40,1510491000,2017-11-12T12:50:03,0.717,1049.0,3.21,0.69,4.62,838.710,2029.230,94.949997,51.57,2.5561,355,23502,1.83320,3.87,42926,,,,,,,,,,,,,,,,,,99999,99999,99999,99999,99999,99999,99999,99999,99999,99999,99999,99999
22:37:10,1510491030,2017-11-12T12:50:33,0.709,1049.3,3.20,0.70,4.62,838.740,2029.190,93.400002,51.46,2.5561,355,23501,1.81266,3.87,42922,,,,,,,,,,,,,,,,,,99999,99999,99999,99999,99999,99999,99999,99999,99999,99999,99999,99999
22:37:40,1510491060,2017-11-12T12:51:03,0.712,1049.7,3.21,0.70,4.57,838.770,2029.230,93.383331,51.34,2.5561,355,23503,1.81910,3.87,42917,,,,,,,,,,,,,,,,,,99999,99999,99999,99999,99999,99999,99999,99999,99999,99999,99999,99999
22:38:10,1510491090,2017-11-12T12:51:33,0.710,1050.1,3.21,0.70,4.64,838.790,2029.230,92.300003,51.23,2.5561,355,23505,1.81500,3.87,42913,,,,,,,,,,,,,,,,,,99999,99999,99999,99999,99999,99999,99999,99999,99999,99999,99999,99999
22:38:40,1510491120,2017-11-12T12:52:03,0.712,1050.4,3.22,0.68,4.62,838.740,2029.290,93.516670,51.12,2.5561,355,23502,1.81998,3.87,42908,,,,,,,,,,,,,,,,,,99999,99999,99999,99999,99999,99999,99999,99999,99999,99999,99999,99999
22:39:10,1510491150,2017-11-12T12:52:33,0.715,1050.8,3.21,0.72,4.62,838.740,2029.230,94.716667,50.99,2.5561,355,23503,1.82702,3.87,42904,,,,,,,,,,,,,,,,,,99999,99999,99999,99999,99999,99999,99999,99999,99999,99999,99999,99999
22:39:40,1510491180,2017-11-12T12:53:03,0.712,1051.1,3.22,0.69,4.64,838.740,2029.290,93.183334,51.24,2.5561,355,23500,1.81910,3.87,42900,,,,,,,,,,,,,,,,,,99999,99999,99999,99999,99999,99999,99999,99999,99999,99999,99999,99999
22:40:10,1510491210,2017-11-12T12:53:33,0.713,1051.5,3.22,0.69,4.64,838.740,2029.290,94.699997,51.14,2.5561,355,23503,1.82232,3.87,42895,,,,,,,,,,,,,,,,,,99999,99999,99999,99999,99999,99999,99999,99999,99999,99999,99999,99999
22:40:40,1510491240,2017-11-12T12:54:03,0.708,1051.8,3.21,0.70,4.64,838.770,2029.230,94.099998,51.30,2.5561,355,23502,1.81090,3.87,42891,,,,,,,,,,,,,,,,,,99999,99999,99999,99999,99999,99999,99999,99999,99999,99999,99999,99999
22:41:10,1510491270,2017-11-12T12:54:33,0.710,1052.2,3.22,0.71,4.61,838.760,2029.290,94.133331,51.02,2.5561,355,23502,1.81470,3.87,42886,,,,,,,,,,,,,,,,,,99999,99999,99999,99999,99999,99999,99999,99999,99999,99999,99999,99999
22:41:40,1510491300,2017-11-12T12:55:03,0.712,1052.6,3.21,0.70,4.64,838.740,2029.230,94.533333,50.83,2.5561,355,23502,1.81881,3.87,42882,,,,,,,,,,,,,,,,,,99999,99999,99999,99999,99999,99999,99999,99999,99999,99999,99999,99999
22:42:10,1510491330,2017-11-12T12:55:33,0.712,1052.9,3.22,0.70,4.64,838.840,2029.290,93.083336,51.05,2.5561,355,23503,1.81968,3.87,42877,,,,,,,,,,,,,,,,,,99999,99999,99999,99999,99999,99999,99999,99999,99999,99999,99999,99999
22:42:40,1510491360,2017-11-12T12:56:03,0.709,1053.3,3.22,0.71,4.62,838.870,2029.290,93.650002,51.20,2.5561,355,23504,1.81236,3.87,42873,,,,,,,,,,,,,,,,,,99999,99999,99999,99999,99999,99999,99999,99999,99999,99999,99999,99999
22:43:10,1510491390,2017-11-12T12:56:33,0.710,1053.6,3.22,0.70,4.64,838.890,2029.290,93.816666,51.00,2.5561,355,23502,1.81529,3.87,42869,,,,,,,,,,,,,,,,,,99999,99999,99999,99999,99999,99999,99999,99999,99999,99999,99999,99999
22:43:40,1510491420,2017-11-12T12:57:03,0.712,1054.0,3.22,0.71,4.62,838.790,2029.290,93.599998,51.53,2.5561,355,23502,1.82027,3.87,42864,,,,,,,,,,,,,,,,,,99999,99999,99999,99999,99999,99999,99999,99999,99999,99999,99999,99999
22:44:10,1510491450,2017-11-12T12:57:33,0.715,1054.3,3.20,0.69,4.62,838.770,2029.190,95.349998,51.21,2.5561,355,23502,1.82732,3.87,42860,,,,,,,,,,,,,,,,,,99999,99999,99999,99999,99999,99999,99999,99999,99999,99999,99999,99999
22:44:40,1510491480,2017-11-12T12:58:03,0.718,1054.7,3.21,0.69,4.66,838.740,2029.230,94.083336,50.65,2.5561,355,23503,1.83467,3.87,42855,,,,,,,,,,,,,,,,,,99999,99999,99999,99999,99999,99999,99999,99999,99999,99999,99999,99999
22:45:10,1510491510,2017-11-12T12:58:33,0.715,1055.1,3.20,0.71,4.59,838.790,2029.190,94.866669,51.27,2.5561,355,23502,1.82643,3.87,42851,,,,,,,,,,,,,,,,,,99999,99999,99999,99999,99999,99999,99999,99999,99999,99999,99999,99999
22:45:40,1510491540,2017-11-12T12:59:03,0.717,1055.4,3.20,0.71,4.62,838.790,2029.190,95.050003,50.80,2.5561,355,23504,1.83320,3.87,42847,,,,,,,,,,,,,,,,,,99999,99999,99999,99999,99999,99999,99999,99999,99999,99999,99999,99999
22:46:10,1510491570,2017-11-12T12:59:33,0.713,1055.8,3.20,0.68,4.61,838.840,2029.190,95.983330,51.37,2.5561,355,23500,1.82203,3.87,42842,,,,,,,,,,,,,,,,,,99999,99999,99999,99999,99999,99999,99999,99999,99999,99999,99999,99999
22:46:40,1510491600,2017-11-12T13:00:03,0.709,1056.1,3.20,0.67,4.59,838.820,2029.190,93.883331,51.48,2.5561,355,23504,1.81324,3.87,42838,,,,,,,,,,,,,,,,,,99999,99999,99999,99999,99999,99999,99999,99999,99999,99999,99999,99999
22:47:10,1510491630,2017-11-12T13:00:33,0.714,1056.5,3.20,0.69,4.62,838.790,2029.190,94.883331,50.67,2.5561,355,23503,1.82614,3.87,42833,,,,,,,,,,,,,,,,,,99999,99999,99999,99999,99999,99999,99999,99999,99999,99999,99999,99999
22:47:40,1510491660,2017-11-12T13:01:03,0.710,1056.8,3.20,0.67,4.62,838.870,2029.190,94.750000,50.54,2.5562,355,23502,1.81587,3.87,42829,,,,,,,,,,,,,,,,,,99999,99999,99999,99999,99999,99999,99999,99999,99999,99999,99999,99999
22:48:10,1510491690,2017-11-12T13:01:33,0.713,1057.2,3.18,0.67,4.59,838.930,2029.060,94.316666,50.57,2.5562,355,23503,1.82291,3.87,42824,,,,,,,,,,,,,,,,,,99999,99999,99999,99999,99999,99999,99999,99999,99999,99999,99999,99999
22:48:40,1510491720,2017-11-12T13:02:03,0.717,1057.6,3.18,0.67,4.62,838.900,2029.060,96.016670,50.41,2.5562,355,23505,1.83173,3.87,42820,,,,,,,,,,,,,,,,,,99999,99999,99999,99999,99999,99999,99999,99999,99999,99999,99999,99999
22:49:10,1510491750,2017-11-12T13:02:33,0.712,1057.9,3.17,0.67,4.55,838.880,2029.060,94.116669,50.30,2.5563,355,23504,1.82027,3.87,42816,,,,,,,,,,,,,,,,,,99999,99999,99999,99999,99999,99999,99999,99999,99999,99999,99999,99999
22:49:40,1510491780,2017-11-12T13:03:03,0.715,1058.3,3.16,0.66,4.55,838.930,2029.020,95.150002,50.59,2.5563,355,23501,1.82820,3.87,42811,,,,,,,,,,,,,,,,,,99999,99999,99999,99999,99999,99999,99999,99999,99999,99999,99999,99999
22:50:10,1510491810,2017-11-12T13:03:33,0.716,1058.6,3.16,0.66,4.57,838.960,2029.020,94.983330,50.18,2.5563,355,23502,1.82937,3.87,42807,,,,,,,,,,,,,,,,,,99999,99999,99999,99999,99999,99999,99999,99999,99999,99999,99999,99999
22:50:40,1510491840,2017-11-12T13:04:03,0.716,1059.0,3.14,0.64,4.55,838.860,2028.960,94.866669,50.76,2.5564,355,23504,1.83084,3.87,42802,,,,,,,,,,,,,,,,,,99999,99999,99999,99999,99999,99999,99999,99999,99999,99999,99999,99999
22:51:10,1510491870,2017-11-12T13:04:33,0.715,1059.3,3.14,0.63,4.54,838.910,2028.960,93.550003,51.00,2.5564,355,23503,1.82908,3.87,42798,,,,,,,,,,,,,,,,,,99999,99999,99999,99999,99999,99999,99999,99999,99999,99999,99999,99999
22:51:40,1510491900,2017-11-12T13:05:03,0.712,1059.7,3.14,0.62,4.55,838.910,2028.960,93.449997,51.24,2.5564,355,23504,1.82027,3.87,42794,,,,,,,,,,,,,,,,,,99999,99999,99999,99999,99999,99999,99999,99999,99999,99999,99999,99999
22:52:10,1510491930,2017-11-12T13:05:33,0.711,1060.1,3.13,0.62,4.57,838.810,2028.960,94.866669,50.87,2.5565,355,23501,1.81734,3.87,42789,,,,,,,,,,,,,,,,,,99999,99999,99999,99999,99999,99999,99999,99999,99999,99999,99999,99999
22:52:40,1510491960,2017-11-12T13:06:03,0.716,1060.4,3.12,0.60,4.55,838.840,2028.900,94.983330,50.80,2.5565,355,23504,1.83055,3.87,42785,,,,,,,,,,,,,,,,,,99999,99999,99999,99999,99999,99999,99999,99999,99999,99999,99999,99999
22:53:10,1510491990,2017-11-12T13:06:33,0.710,1060.8,3.12,0.62,4.53,838.780,2028.900,94.566666,51.08,2.5565,355,23501,1.81500,3.87,42780,,,,,,,,,,,,,,,,,,99999,99999,99999,99999,99999,99999,99999,99999,99999,99999,99999,99999
22:53:40,1510492020,2017-11-12T13:07:03,0.714,1061.1,3.12,0.60,4.54,838.910,2028.900,94.366669,51.47,2.5565,355,23502,1.82526,3.87,42776,,,,,,,,,,,,,,,,,,99999,99999,99999,99999,99999,99999,99999,99999,99999,99999,99999,99999
22:54:10,1510492050,2017-11-12T13:07:33,0.709,1061.5,3.11,0.58,4.53,838.890,2028.900,93.566666,51.41,2.5566,355,23501,1.81266,3.87,42772,,,,,,,,,,,,,,,,,,99999,99999,99999,99999,99999,99999,99999,99999,99999,99999,99999,99999
22:54:40,1510492080,2017-11-12T13:08:03,0.715,1061.8,3.10,0.59,4.49,838.840,2028.860,95.416664,51.14,2.5567,355,23500,1.82849,3.87,42767,,,,,,,,,,,,,,,,,,99999,99999,99999,99999,99999,99999,99999,99999,99999,99999,99999,99999
22:55:10,1510492110,2017-11-12T13:08:33,0.709,1062.2,3.09,0.59,4.54,838.710,2028.790,93.666664,51.34,2.5567,355,23501,1.81236,3.87,42763,,,,,,,,,,,,,,,,,,99999,99999,99999,99999,99999,99999,99999,99999,99999,99999,99999,99999
22:55:40,1510492140,2017-11-12T13:09:03,0.717,1062.6,3.09,0.59,4.49,838.840,2028.790,94.349998,51.43,2.5566,355,23499,1.83202,3.87,42758,,,,,,,,,,,,,,,,,,99999,99999,99999,99999,99999,99999,99999,99999,99999,99999,99999,99999
22:56:10,1510492170,2017-11-12T13:09:33,0.715,1062.9,3.08,0.57,4.53,838.720,2028.790,94.966667,50.95,2.5568,355,23499,1.82732,3.87,42754,,,,,,,,,,,,,,,,,,99999,99999,99999,99999,99999,99999,99999,99999,99999,99999,99999,99999
22:56:40,1510492200,2017-11-12T13:10:03,0.708,1063.3,3.07,0.60,4.46,838.800,2028.760,93.566666,50.69,2.5568,355,23499,1.81003,3.87,42749,,,,,,,,,,,,,,,,,,99999,99999,99999,99999,99999,99999,99999,99999,99999,99999,99999,99999
22:57:10,1510492230,2017-11-12T13:10:33,0.715,1063.6,3.07,0.58,4.47,838.740,2028.760,95.483330,50.35,2.5568,355,23498,1.82908,3.87,42745,,,,,,,,,,,,,,,,,,99999,99999,99999,99999,99999,99999,99999,99999,99999,99999,99999,99999
22:57:40,1510492260,2017-11-12T13:11:03,0.708,1064.0,3.06,0.57,4.49,838.720,2028.760,93.766670,50.56,2.5569,355,23497,1.81032,3.87,42741,,,,,,,,,,,,,,,,,,99999,99999,99999,99999,99999,99999,99999,99999,99999,99999,99999,99999
22:58:10,1510492290,2017-11-12T13:11:33,0.712,1064.3,3.05,0.58,4.46,838.770,2028.630,93.816666,50.42,2.5569,355,23498,1.82174,3.87,42736,,,,,,,,,,,,,,,,,,99999,99999,99999,99999,99999,99999,99999,99999,99999,99999,99999,99999
22:58:40,1510492320,2017-11-12T13:12:03,0.712,1064.7,3.04,0.55,4.46,838.830,2028.630,93.800003,50.33,2.5570,355,23497,1.82115,3.87,42732,,,,,,,,,,,,,,,,,,99999,99999,99999,99999,99999,99999,99999,99999,99999,99999,99999,99999
22:59:10,1510492350,2017-11-12T13:12:33,0.714,1065.0,3.02,0.51,4.45,838.780,2028.590,94.500000,50.46,2.5571,355,23501,1.82555,3.87,42727,,,,,,,,,,,,,,,,,,99999,99999,99999,99999,99999,99999,99999,99999,99999,99999,99999,99999
22:59:40,1510492380,2017-11-12T13:13:03,0.708,1065.4,3.01,0.51,4.46,838.760,2028.530,93.900002,50.40,2.5571,355,23498,1.81090,3.87,42723,,,,,,,,,,,,,,,,,,99999,99999,99999,99999,99999,99999,99999,99999,99999,99999,99999,99999
23:00:10,1510492410,2017-11-12T13:13:33,0.711,1065.8,3.00,0.52,4.43,838.810,2028.530,94.733330,50.38,2.5572,355,23498,1.81793,3.87,42719,,,,,,,,,,,,,,,,,,99999,99999,99999,99999,99999,99999,99999,99999,99999,99999,99999,99999
23:00:40,1510492440,2017-11-12T13:14:03,0.707,1066.1,3.00,0.50,4.43,838.840,2028.530,94.250000,50.57,2.5572,355,23497,1.80856,3.87,42714,,,,,,,,,,,,,,,,,,99999,99999,99999,99999,99999,99999,99999,99999,99999,99999,99999,99999
23:01:10,1510492470,2017-11-12T13:14:33,0.715,1066.5,2.98,0.49,4.45,838.840,2028.420,94.883331,50.77,2.5572,355,23498,1.82967,3.87,42710,,,,,,,,,,,,,,,,,,99999,99999,99999,99999,99999,99999,99999,99999,99999,99999,99999,99999
23:01:40,1510492500,2017-11-12T13:15:03,0.713,1066.8,2.97,0.50,4.39,838.870,2028.420,94.566666,50.94,2.5573,355,23498,1.82438,3.87,42705,,,,,,,,,,,,,,,,,,99999,99999,99999,99999,99999,99999,99999,99999,99999,99999,99999,99999
23:02:10,1510492530,2017-11-12T13:15:33,0.712,1067.2,2.95,0.47,4.38,838.770,2028.360,94.366669,50.87,2.5574,355,23497,1.82144,3.87,42701,,,,,,,,,,,,,,,,,,99999,99999,99999,99999,99999,99999,99999,99999,99999,99999,99999,99999
23:02:40,1510492560,2017-11-12T13:16:03,0.712,1067.5,2.95,0.48,4.36,838.830,2028.360,93.466667,50.79,2.5574,355,23495,1.82056,3.87,42696,,,,,,,,,,,,,,,,,,99999,99999,99999,99999,99999,99999,99999,99999,99999,99999,99999,99999
23:03:10,1510492590,2017-11-12T13:16:33,0.710,1067.9,2.93,0.46,4.39,838.830,2028.310,93.466667,50.78,2.5576,355,23497,1.81529,3.87,42692,,,,,,,,,,,,,,,,,,99999,99999,99999,99999,99999,99999,99999,99999,99999,99999,99999,99999
23:03:40,1510492620,2017-11-12T13:17:03,0.709,1068.3,2.93,0.48,4.39,838.780,2028.310,93.566666,50.96,2.5576,355,23497,1.81324,3.87,42688,,,,,,,,,,,,,,,,,,99999,99999,99999,99999,99999,99999,99999,99999,99999,99999,99999,99999
23:04:10,1510492650,2017-11-12T13:17:33,0.713,1068.6,2.92,0.46,4.36,838.810,2028.190,93.783333,51.20,2.5575,355,23497,1.82408,3.87,42683,,,,,,,,,,,,,,,,,,99999,99999,99999,99999,99999,99999,99999,99999,99999,99999,99999,99999
23:04:40,1510492680,2017-11-12T13:18:03,0.714,1069.0,2.91,0.45,4.38,838.860,2028.190,95.233330,51.43,2.5576,355,23495,1.82526,3.87,42679,,,,,,,,,,,,,,,,,,99999,99999,99999,99999,99999,99999,99999,99999,99999,99999,99999,99999
23:05:10,1510492710,2017-11-12T13:18:33,0.713,1069.3,2.90,0.46,4.34,838.780,2028.150,94.599998,51.71,2.5576,355,23493,1.82467,3.87,42674,,,,,,,,,,,,,,,,,,99999,99999,99999,99999,99999,99999,99999,99999,99999,99999,99999,99999
23:05:40,1510492740,2017-11-12T13:19:03,0.716,1069.7,2.91,0.45,4.33,838.830,2028.190,95.066666,51.76,2.5576,355,23495,1.82996,3.87,42670,,,,,,,,,,,,,,,,,,99999,99999,99999,99999,99999,99999,99999,99999,99999,99999,99999,99999
23:06:10,1510492770,2017-11-12T13:19:33,0.707,1070.0,2.91,0.45,4.34,838.860,2028.190,93.933334,51.78,2.5576,355,23496,1.80915,3.87,42666,,,,,,,,,,,,,,,,,,99999,99999,99999,99999,99999,99999,99999,99999,99999,99999,99999,99999
23:06:40,1510492800,2017-11-12T13:20:03,0.715,1070.4,2.91,0.44,4.34,838.810,2028.190,94.183334,51.59,2.5576,355,23494,1.82790,3.87,42661,,,,,,,,,,,,,,,,,,99999,99999,99999,99999,99999,99999,99999,99999,99999,99999,99999,99999
23:07:10,1510492830,2017-11-12T13:20:33,0.713,1070.7,2.90,0.45,4.30,838.860,2028.150,94.500000,51.51,2.5576,355,23495,1.82408,3.87,42657,,,,,,,,,,,,,,,,,,99999,99999,99999,99999,99999,99999,99999,99999,99999,99999,99999,99999
23:07:40,1510492860,2017-11-12T13:21:03,0.711,1071.1,2.91,0.46,4.32,838.830,2028.190,93.099998,51.43,2.5576,355,23496,1.81763,3.87,42652,,,,,,,,,,,,,,,,,,99999,99999,99999,99999,99999,99999,99999,99999,99999,99999,99999,99999
23:08:10,1510492890,2017-11-12T13:21:33,0.710,1071.5,2.91,0.46,4.34,838.860,2028.190,93.300003,51.47,2.5576,355,23497,1.81705,3.87,42648,,,,,,,,,,,,,,,,,,99999,99999,99999,99999,99999,99999,99999,99999,99999,99999,99999,99999
23:08:40,1510492920,2017-11-12T13:22:03,0.713,1071.8,2.89,0.46,4.34,838.810,2028.090,94.116669,51.76,2.5576,355,23495,1.82408,3.87,42643,,,,,,,,,,,,,,,,,,99999,99999,99999,99999,99999,99999,99999,99999,99999,99999,99999,99999
23:09:10,1510492950,2017-11-12T13:22:33,0.708,1072.2,2.89,0.44,4.33,838.830,2028.090,92.900002,51.91,2.5576,355,23498,1.81061,3.87,42639,,,,,,,,,,,,,,,,,,99999,99999,99999,99999,99999,99999,99999,99999,99999,99999,99999,99999
23:09:40,1510492980,2017-11-12T13:23:03,0.716,1072.5,2.89,0.46,4.33,838.860,2028.090,93.816666,51.83,2.5576,355,23497,1.83055,3.87,42635,,,,,,,,,,,,,,,,,,99999,99999,99999,99999,99999,99999,99999,99999,99999,99999,99999,99999
23:10:10,1510493010,2017-11-12T13:23:33,0.714,1072.9,2.92,0.44,4.38,838.860,2028.190,94.216667,51.58,2.5575,355,23493,1.82496,3.87,42630,,,,,,,,,,,,,,,,,,99999,99999,99999,99999,99999,99999,99999,99999,99999,99999,99999,99999
23:10:40,1510493040,2017-11-12T13:24:03,0.713,1073.2,2.90,0.45,4.33,838.890,2028.150,94.099998,51.32,2.5576,355,23496,1.82467,3.87,42626,,,,,,,,,,,,,,,,,,99999,99999,99999,99999,99999,99999,99999,99999,99999,99999,99999,99999
23:11:10,1510493070,2017-11-12T13:24:33,0.714,1073.6,2.89,0.46,4.33,838.890,2028.090,94.650002,51.35,2.5576,355,23496,1.82496,3.87,42621,,,,,,,,,,,,,,,,,,99999,99999,99999,99999,99999,99999,99999,99999,99999,99999,99999,99999
23:11:40,1510493100,2017-11-12T13:25:03,0.714,1073.9,2.91,0.45,4.34,838.860,2028.190,95.033333,51.30,2.5576,355,23498,1.82643,3.87,42617,,,,,,,,,,,,,,,,,,99999,99999,99999,99999,99999,99999,99999,99999,99999,99999,99999,99999
23:12:10,1510493130,2017-11-12T13:25:33,0.715,1074.3,2.89,0.47,4.34,838.780,2028.090,94.849998,51.51,2.5576,355,23496,1.82908,3.87,42613,,,,,,,,,,,,,,,,,,99999,99999,99999,99999,99999,99999,99999,99999,99999,99999,99999,99999
23:12:40,1510493160,2017-11-12T13:26:03,0.714,1074.7,2.90,0.44,4.33,838.780,2028.150,94.783333,51.60,2.5576,355,23494,1.82732,3.87,42608,,,,,,,,,,,,,,,,,,99999,99999,99999,99999,99999,99999,99999,99999,99999,99999,99999,99999
23:13:10,1510493190,2017-11-12T13:26:33,0.715,1075.0,2.91,0.47,4.34,838.860,2028.190,95.266670,51.10,2.5576,355,23497,1.82820,3.87,42604,,,,,,,,,,,,,,,,,,99999,99999,99999,99999,99999,99999,99999,99999,99999,99999,99999,99999
23:13:40,1510493220,2017-11-12T13:27:03,0.711,1075.4,2.91,0.47,4.36,838.910,2028.190,94.566666,51.43,2.5576,355,23494,1.81793,3.87,42599,,,,,,,,,,,,,,,,,,99999,99999,99999,99999,99999,99999,99999,99999,99999,99999,99999,99999
23:14:10,1510493250,2017-11-12T13:27:33,0.707,1075.7,2.90,0.48,4.36,838.840,2028.150,94.033333,51.41,2.5576,355,23493,1.80711,3.87,42595,,,,,,,,,,,,,,,,,,99999,99999,99999,99999,99999,99999,99999,99999,99999,99999,99999,99999
23:14:40,1510493280,2017-11-12T13:28:03,0.706,1076.1,2.90,0.47,4.33,838.780,2028.150,94.183334,51.08,2.5576,355,23495,1.80594,3.87,42591,,,,,,,,,,,,,,,,,,99999,99999,99999,99999,99999,99999,99999,99999,99999,99999,99999,99999
23:15:10,1510493310,2017-11-12T13:28:33,0.709,1076.4,2.89,0.47,4.34,838.890,2028.090,93.900002,50.90,2.5577,355,23494,1.81354,3.87,42586,,,,,,,,,,,,,,,,,,99999,99999,99999,99999,99999,99999,99999,99999,99999,99999,99999,99999
23:15:40,1510493340,2017-11-12T13:29:03,0.711,1076.8,2.89,0.46,4.30,838.890,2028.090,94.900002,50.86,2.5577,355,23495,1.81793,3.87,42582,,,,,,,,,,,,,,,,,,99999,99999,99999,99999,99999,99999,99999,99999,99999,99999,99999,99999
23:16:10,1510493370,2017-11-12T13:29:33,0.714,1077.1,2.89,0.46,4.34,838.890,2028.090,94.400002,50.93,2.5577,355,23492,1.82526,3.87,42577,,,,,,,,,,,,,,,,,,99999,99999,99999,99999,99999,99999,99999,99999,99999,99999,99999,99999
23:16:40,1510493400,2017-11-12T13:30:03,0.710,1077.5,2.89,0.47,4.33,838.890,2028.090,93.650002,50.97,2.5577,355,23494,1.81617,3.87,42573,,,,,,,,,,,,,,,,,,99999,99999,99999,99999,99999,99999,99999,99999,99999,99999,99999,99999
23:17:10,1510493430,2017-11-12T13:30:33,0.710,1077.9,2.88,0.45,4.33,838.810,2028.090,94.716667,51.57,2.5577,355,23493,1.81705,3.87,42569,,,,,,,,,,,,,,,,,,99999,99999,99999,99999,99999,99999,99999,99999,99999,99999,99999,99999
23:17:40,1510493460,2017-11-12T13:31:03,0.714,1078.2,2.88,0.46,4.32,838.790,2028.090,94.466667,51.68,2.5577,355,23492,1.82555,3.87,42564,,,,,,,,,,,,,,,,,,99999,99999,99999,99999,99999,99999,99999,99999,99999,99999,99999,99999
23:18:10,1510493490,2017-11-12T13:31:33,0.707,1078.6,2.88,0.48,4.34,838.840,2028.090,93.766670,51.69,2.5577,355,23495,1.80711,3.87,42560,,,,,,,,,,,,,,,,,,99999,99999,99999,99999,99999,99999,99999,99999,99999,99999,99999,99999
23:18:40,1510493520,2017-11-12T13:32:03,0.714,1078.9,2.89,0.46,4.32,838.810,2028.090,94.666664,51.56,2.5576,355,23495,1.82732,3.87,42555,,,,,,,,,,,,,,,,,,99999,99999,99999,99999,99999,99999,99999,99999,99999,99999,99999,99999
23:19:10,1510493550,2017-11-12T13:32:33,0.709,1079.3,2.88,0.46,4.33,838.730,2028.090,93.216667,51.73,2.5577,355,23496,1.81266,3.87,42551,,,,,,,,,,,,,,,,,,99999,99999,99999,99999,99999,99999,99999,99999,99999,99999,99999,99999
23:19:40,1510493580,2017-11-12T13:33:03,0.713,1079.6,2.89,0.45,4.34,838.830,2028.090,94.416664,51.86,2.5576,355,23495,1.82379,3.87,42547,,,,,,,,,,,,,,,,,,99999,99999,99999,99999,99999,99999,99999,99999,99999,99999,99999,99999
23:20:10,1510493610,2017-11-12T13:33:33,0.707,1080.0,2.88,0.47,4.32,838.840,2028.090,93.000000,51.67,2.5577,355,23493,1.80856,3.87,42542,,,,,,,,,,,,,,,,,,99999,99999,99999,99999,99999,99999,99999,99999,99999,99999,99999,99999
23:20:40,1510493640,2017-11-12T13:34:03,0.715,1080.3,2.89,0.47,4.34,838.830,2028.090,93.633331,51.27,2.5576,355,23497,1.82820,3.87,42538,,,,,,,,,,,,,,,,,,99999,99999,99999,99999,99999,99999,99999,99999,99999,99999,99999,99999
23:21:10,1510493670,2017-11-12T13:34:33,0.714,1080.7,2.88,0.47,4.33,838.760,2028.090,94.516670,51.08,2.5577,355,23498,1.82673,3.87,42533,,,,,,,,,,,,,,,,,,99999,99999,99999,99999,99999,99999,99999,99999,99999,99999,99999,99999
23:21:40,1510493700,2017-11-12T13:35:03,0.714,1081.1,2.90,0.48,4.32,838.760,2028.150,95.016670,51.51,2.5576,355,23495,1.82673,3.87,42529,,,,,,,,,,,,,,,,,,99999,99999,99999,99999,99999,99999,99999,99999,99999,99999,99999,99999
23:22:10,1510493730,2017-11-12T13:35:33,0.708,1081.4,2.91,0.47,4.32,838.750,2028.190,94.449997,51.27,2.5576,355,23498,1.81090,3.87,42524,,,,,,,,,,,,,,,,,,99999,99999,99999,99999,99999,99999,99999,99999,99999,99999,99999,99999
23:22:40,1510493760,2017-11-12T13:36:03,0.715,1081.8,2.90,0.49,4.34,838.810,2028.150,94.849998,51.31,2.5576,355,23496,1.82820,3.87,42520,,,,,,,,,,,,,,,,,,99999,99999,99999,99999,99999,99999,99999,99999,99999,99999,99999,99999
23:23:10,1510493790,2017-11-12T13:36:33,0.715,1082.1,2.89,0.50,4.32,838.810,2028.090,95.500000,51.12,2.5577,355,23498,1.82937,3.87,42516,,,,,,,,,,,,,,,,,,99999,99999,99999,99999,99999,99999,99999,99999,99999,99999,99999,99999
23:23:40,1510493820,2017-11-12T13:37:03,0.714,1082.5,2.92,0.49,4.33,838.860,2028.190,95.116669,51.21,2.5575,355,23497,1.82732,3.87,42511,,,,,,,,,,,,,,,,,,99999,99999,99999,99999,99999,99999,99999,99999,99999,99999,99999,99999
23:24:10,1510493850,2017-11-12T13:37:33,0.714,1082.8,2.92,0.49,4.34,838.860,2028.190,94.550003,51.17,2.5575,355,23497,1.82614,3.87,42507,,,,,,,,,,,,,,,,,,99999,99999,99999,99999,99999,99999,99999,99999,99999,99999,99999,99999
23:24:40,1510493880,2017-11-12T13:38:03,0.711,1083.2,2.91,0.51,4.33,838.940,2028.190,93.599998,51.30,2.5576,355,23500,1.81734,3.86,42502,,,,,,,,,,,,,,,,,,99999,99999,99999,99999,99999,99999,99999,99999,99999,99999,99999,99999
23:25:10,1510493910,2017-11-12T13:38:33,0.707,1083.6,2.91,0.54,4.34,838.730,2028.190,93.616669,51.28,2.5576,355,23498,1.80944,3.87,42498,,,,,,,,,,,,,,,,,,99999,99999,99999,99999,99999,99999,99999,99999,99999,99999,99999,99999
23:25:40,1510493940,2017-11-12T13:39:03,0.715,1083.9,2.92,0.54,4.30,838.810,2028.190,94.783333,51.19,2.5575,355,23500,1.82878,3.86,42494,,,,,,,,,,,,,,,,,,99999,99999,99999,99999,99999,99999,99999,99999,99999,99999,99999,99999
23:26:10,1510493970,2017-11-12T13:39:33,0.707,1084.3,2.91,0.52,4.34,838.830,2028.190,93.500000,51.19,2.5576,355,23497,1.80740,3.86,42489,,,,,,,,,,,,,,,,,,99999,99999,99999,99999,99999,99999,99999,99999,99999,99999,99999,99999
23:26:40,1510494000,2017-11-12T13:40:03,0.713,1084.6,2.93,0.55,4.34,838.880,2028.310,93.966667,51.36,2.5575,355,23500,1.82438,3.86,42485,,,,,,,,,,,,,,,,,,99999,99999,99999,99999,99999,99999,99999,99999,99999,99999,99999,99999
23:27:10,1510494030,2017-11-12T13:40:33,0.714,1085.0,2.92,0.55,4.36,838.780,2028.190,94.750000,51.49,2.5575,355,23500,1.82732,3.86,42480,,,,,,,,,,,,,,,,,,99999,99999,99999,99999,99999,99999,99999,99999,99999,99999,99999,99999
23:27:40,1510494060,2017-11-12T13:41:03,0.706,1085.3,2.92,0.57,4.36,838.810,2028.190,93.766670,51.42,2.5575,355,23500,1.80681,3.86,42476,,,,,,,,,,,,,,,,,,99999,99999,99999,99999,99999,99999,99999,99999,99999,99999,99999,99999
23:28:10,1510494090,2017-11-12T13:41:33,0.715,1085.7,2.92,0.57,4.34,838.700,2028.190,94.233330,51.54,2.5575,355,23502,1.82790,3.86,42471,,,,,,,,,,,,,,,,,,99999,99999,99999,99999,99999,99999,99999,99999,99999,99999,99999,99999
23:28:40,1510494120,2017-11-12T13:42:03,0.711,1086.0,2.92,0.58,4.38,838.750,2028.190,94.483330,51.53,2.5575,355,23500,1.81793,3.86,42467,,,,,,,,,,,,,,,,,,99999,99999,99999,99999,99999,99999,99999,99999,99999,99999,99999,99999
23:29:10,1510494150,2017-11-12T13:42:33,0.709,1086.4,2.94,0.58,4.34,838.800,2028.310,93.866669,51.63,2.5574,355,23500,1.81295,3.86,42463,,,,,,,,,,,,,,,,,,99999,99999,99999,99999,99999,99999,99999,99999,99999,99999,99999,99999
23:29:40,1510494180,2017-11-12T13:43:03,0.715,1086.8,2.93,0.58,4.32,838.750,2028.310,95.099998,51.66,2.5575,355,23499,1.82820,3.86,42458,,,,,,,,,,,,,,,,,,99999,99999,99999,99999,99999,99999,99999,99999,99999,99999,99999,99999
23:30:10,1510494210,2017-11-12T13:43:33,0.711,1087.1,2.92,0.59,4.34,838.700,2028.190,93.883331,51.44,2.5575,355,23501,1.81763,3.86,42454,,,,,,,,,,,,,,,,,,99999,99999,99999,99999,99999,99999,99999,99999,99999,99999,99999,99999
23:30:40,1510494240,2017-11-12T13:44:03,0.712,1087.5,2.94,0.59,4.39,838.800,2028.310,94.916664,51.63,2.5574,355,23500,1.82115,3.86,42449,,,,,,,,,,,,,,,,,,99999,99999,99999,99999,99999,99999,99999,99999,99999,99999,99999,99999
23:31:10,1510494270,2017-11-12T13:44:33,0.710,1087.8,2.93,0.59,4.34,838.800,2028.310,93.599998,51.73,2.5575,355,23501,1.81705,3.86,42445,,,,,,,,,,,,,,,,,,99999,99999,99999,99999,99999,99999,99999,99999,99999,99999,99999,99999
23:31:40,1510494300,2017-11-12T13:45:03,0.715,1088.2,2.95,0.58,4.39,838.800,2028.360,95.000000,51.76,2.5574,355,23501,1.82967,3.86,42441,,,,,,,,,,,,,,,,,,99999,99999,99999,99999,99999,99999,99999,99999,99999,99999,99999,99999
23:32:10,1510494330,2017-11-12T13:45:33,0.713,1088.5,2.95,0.60,4.39,838.880,2028.360,93.983330,51.40,2.5574,355,23502,1.82379,3.86,42436,,,,,,,,,,,,,,,,,,99999,99999,99999,99999,99999,99999,99999,99999,99999,99999,99999,99999
23:32:40,1510494360,2017-11-12T13:46:03,0.710,1088.9,2.95,0.60,4.38,838.830,2028.360,92.349998,51.65,2.5574,355,23499,1.81470,3.86,42432,,,,,,,,,,,,,,,,,,99999,99999,99999,99999,99999,99999,99999,99999,99999,99999,99999,99999
23:33:10,1510494390,2017-11-12T13:46:33,0.712,1089.2,2.95,0.61,4.38,838.800,2028.360,94.400002,51.77,2.5574,355,23501,1.82115,3.86,42427,,,,,,,,,,,,,,,,,,99999,99999,99999,99999,99999,99999,99999,99999,99999,99999,99999,99999
23:33:40,1510494420,2017-11-12T13:47:03,0.714,1089.6,2.95,0.61,4.38,838.830,2028.360,93.933334,51.62,2.5574,355,23500,1.82702,3.86,42423,,,,,,,,,,,,,,,,,,99999,99999,99999,99999,99999,99999,99999,99999,99999,99999,99999,99999
23:34:10,1510494450,2017-11-12T13:47:33,0.717,1090.0,2.96,0.61,4.39,838.890,2028.360,94.199997,51.55,2.5573,355,23504,1.83261,3.86,42419,,,,,,,,,,,,,,,,,,99999,99999,99999,99999,99999,99999,99999,99999,99999,99999,99999,99999
23:34:40,1510494480,2017-11-12T13:48:03,0.715,1090.3,2.95,0.62,4.43,838.850,2028.360,95.300003,51.47,2.5574,355,23500,1.82820,3.86,42414,,,,,,,,,,,,,,,,,,99999,99999,99999,99999,99999,99999,99999,99999,99999,99999,99999,99999
23:35:10,1510494510,2017-11-12T13:48:33,0.709,1090.7,2.97,0.62,4.36,838.920,2028.420,94.633331,51.50,2.5573,355,23497,1.81266,3.86,42410,,,,,,,,,,,,,,,,,,99999,99999,99999,99999,99999,99999,99999,99999,99999,99999,99999,99999
23:35:40,1510494540,2017-11-12T13:49:03,0.709,1091.0,2.96,0.63,4.38,838.840,2028.360,94.183334,51.29,2.5573,355,23500,1.81236,3.86,42405,,,,,,,,,,,,,,,,,,99999,99999,99999,99999,99999,99999,99999,99999,99999,99999,99999,99999
23:36:10,1510494570,2017-11-12T13:49:33,0.709,1091.4,2.97,0.63,4.41,838.920,2028.420,94.316666,51.24,2.5573,355,23501,1.81441,3.86,42401,,,,,,,,,,,,,,,,,,99999,99999,99999,99999,99999,99999,99999,99999,99999,99999,99999,99999
23:36:40,1510494600,2017-11-12T13:50:03,0.712,1091.7,2.97,0.65,4.38,838.950,2028.420,95.099998,51.25,2.5573,355,23504,1.82027,3.86,42397,,,,,,,,,,,,,,,,,,99999,99999,99999,99999,99999,99999,99999,99999,99999,99999,99999,99999
23:37:10,1510494630,2017-11-12T13:50:33,0.712,1092.1,2.98,0.64,4.41,838.860,2028.420,94.650002,51.11,2.5572,355,23501,1.82027,3.86,42392,,,,,,,,,,,,,,,,,,99999,99999,99999,99999,99999,99999,99999,99999,99999,99999,99999,99999
23:37:40,1510494660,2017-11-12T13:51:03,0.713,1092.5,2.97,0.65,4.36,838.870,2028.420,94.683334,51.03,2.5573,355,23502,1.82350,3.86,42388,,,,,,,,,,,,,,,,,,99999,99999,99999,99999,99999,99999,99999,99999,99999,99999,99999,99999
23:38:10,1510494690,2017-11-12T13:51:33,0.715,1092.8,2.97,0.65,4.41,838.920,2028.420,95.633331,50.96,2.5573,355,23501,1.82790,3.86,42384,,,,,,,,,,,,,,,,,,99999,99999,99999,99999,99999,99999,99999,99999,99999,99999,99999,99999
23:38:40,1510494720,2017-11-12T13:52:03,0.708,1093.2,2.98,0.62,4.41,838.920,2028.420,93.683334,50.96,2.5572,355,23502,1.81178,3.86,42379,,,,,,,,,,,,,,,,,,99999,99999,99999,99999,99999,99999,99999,99999,99999,99999,99999,99999
23:39:10,1510494750,2017-11-12T13:52:33,0.715,1093.5,2.98,0.66,4.39,838.940,2028.420,95.333336,51.00,2.5572,355,23504,1.82937,3.86,42375,,,,,,,,,,,,,,,,,,99999,99999,99999,99999,99999,99999,99999,99999,99999,99999,99999,99999
23:39:40,1510494780,2017-11-12T13:53:03,0.709,1093.9,2.98,0.66,4.41,838.920,2028.420,94.449997,51.38,2.5572,355,23504,1.81383,3.86,42371,,,,,,,,,,,,,,,,,,99999,99999,99999,99999,99999,99999,99999,99999,99999,99999,99999,99999
23:40:10,1510494810,2017-11-12T13:53:33,0.711,1094.2,2.98,0.66,4.41,838.940,2028.420,94.216667,51.03,2.5572,355,23501,1.81763,3.86,42366,,,,,,,,,,,,,,,,,,99999,99999,99999,99999,99999,99999,99999,99999,99999,99999,99999,99999
23:40:40,1510494840,2017-11-12T13:54:03,0.715,1094.6,2.99,0.66,4.41,838.940,2028.460,95.033333,50.97,2.5572,355,23503,1.82732,3.86,42362,,,,,,,,,,,,,,,,,,99999,99999,99999,99999,99999,99999,99999,99999,99999,99999,99999,99999
23:41:10,1510494870,2017-11-12T13:54:33,0.709,1094.9,2.98,0.66,4.39,838.890,2028.420,94.433334,51.03,2.5572,355,23500,1.81236,3.86,42358,,,,,,,,,,,,,,,,,,99999,99999,99999,99999,99999,99999,99999,99999,99999,99999,99999,99999
23:41:40,1510494900,2017-11-12T13:55:03,0.711,1095.3,3.00,0.66,4.41,838.910,2028.530,93.816666,51.10,2.5572,355,23502,1.81763,3.86,42353,,,,,,,,,,,,,,,,,,99999,99999,99999,99999,99999,99999,99999,99999,99999,99999,99999,99999
23:42:10,1510494930,2017-11-12T13:55:33,0.714,1095.7,2.99,0.68,4.41,838.940,2028.460,95.083336,51.13,2.5572,355,23503,1.82643,3.86,42349,,,,,,,,,,,,,,,,,,99999,99999,99999,99999,99999,99999,99999,99999,99999,99999,99999,99999
23:42:40,1510494960,2017-11-12T13:56:03,0.707,1096.0,3.00,0.68,4.43,838.940,2028.530,93.816666,51.12,2.5572,355,23499,1.80769,3.86,42345,,,,,,,,,,,,,,,,,,99999,99999,99999,99999,99999,99999,99999,99999,99999,99999,99999,99999
23:43:10,1510494990,2017-11-12T13:56:33,0.714,1096.4,3.00,0.70,4.45,838.990,2028.530,94.783333,51.25,2.5572,355,23503,1.82673,3.86,42340,,,,,,,,,,,,,,,,,,99999,99999,99999,99999,99999,99999,99999,99999,99999,99999,99999,99999
23:43:40,1510495020,2017-11-12T13:57:03,0.711,1096.7,2.99,0.69,4.43,838.920,2028.460,94.116669,51.41,2.5572,355,23504,1.81734,3.86,42336,,,,,,,,,,,,,,,,,,99999,99999,99999,99999,99999,99999,99999,99999,99999,99999,99999,99999
23:44:10,1510495050,2017-11-12T13:57:33,0.712,1097.1,3.01,0.69,4.47,838.910,2028.530,93.949997,51.55,2.5571,355,23503,1.82174,3.86,42332,,,,,,,,,,,,,,,,,,99999,99999,99999,99999,99999,99999,99999,99999,99999,99999,99999,99999
23:44:40,1510495080,2017-11-12T13:58:03,0.708,1097.4,3.01,0.71,4.45,838.970,2028.530,93.483330,51.66,2.5571,355,23503,1.81061,3.86,42327,,,,,,,,,,,,,,,,,,99999,99999,99999,99999,99999,99999,99999,99999,99999,99999,99999,99999
23:45:10,1510495110,2017-11-12T13:58:34,0.711,1097.8,3.02,0.73,4.46,838.960,2028.590,94.050003,51.72,2.5570,355,23500,1.81705,3.86,42323,18.451896,88.087466,115.363012,0.989736,-0.105954,2.135785,7.936977,10.118886,-53.823837,0.002188,0.002188,0.002188,0.002188,-0.012946,-0.045224,-0.116189,-0.201939,99999,99999,99999,99999,99999,99999,99999,99999,99999,99999,99999,99999
23:45:40,1510495140,2017-11-12T13:59:04,0.714,1098.2,3.03,0.72,4.47,838.980,2028.590,95.116669,51.42,2.5570,355,23503,1.82526,3.86,42319,18.094345,88.007175,115.445629,0.989736,0.331996,1.850502,-0.569637,3.144529,-53.823837,0.002188,0.002188,0.002188,0.002188,-0.012947,-0.045224,-0.116191,-0.201943,99999,99999,99999,99999,99999,99999,99999,99999,99999,99999,99999,99999
23:46:10,1510495170,2017-11-12T13:59:34,0.714,1098.5,3.04,0.72,4.45,839.040,2028.590,94.633331,51.46,2.5570,355,23500,1.82643,3.86,42314,17.747443,87.926757,115.528302,0.989736,0.470126,1.790452,6.130241,11.450182,-53.823837,0.002188,0.002188,0.002188,0.002188,-0.012947,-0.045227,-0.116198,-0.201958,99999,99999,99999,99999,99999,99999,99999,99999,99999,99999,99999,99999
23:46:40,1510495200,2017-11-12T14:00:04,0.709,1098.9,3.03,0.75,4.46,839.010,2028.590,94.716667,51.12,2.5570,355,23504,1.81178,3.86,42310,17.410884,87.846231,115.611043,0.989736,0.483110,1.794285,12.427818,11.292905,-53.823837,0.002188,0.002188,0.002188,0.002188,-0.012947,-0.045226,-0.116195,-0.201951,99999,99999,99999,99999,99999,99999,99999,99999,99999,99999,99999,99999
23:47:10,1510495230,2017-11-12T14:00:34,0.713,1099.2,3.04,0.74,4.49,839.040,2028.760,95.000000,51.17,2.5569,355,23504,1.82408,3.86,42306,17.084298,87.765597,115.693851,0.989736,0.477029,1.797922,8.822818,14.058098,-53.823837,0.002188,0.002188,0.002188,0.002200,-0.012947,-0.045227,-0.116198,-0.201958,99999,99999,99999,99999,99999,99999,99999,99999,99999,99999,99999,99999
23:47:40,1510495260,2017-11-12T14:01:04,0.714,1099.6,3.06,0.79,4.47,838.900,2028.760,94.916664,51.28,2.5569,355,23506,1.82673,3.86,42301,16.767529,87.684908,115.776728,0.989736,0.470037,1.797923,43.428432,19.388647,-53.823837,0.002188,0.002188,0.002188,0.002188,-0.012945,-0.045221,-0.116181,-0.201924,99999,99999,99999,99999,99999,99999,99999,99999,99999,99999,99999,99999
23:48:10,1510495290,2017-11-12T14:01:34,0.714,1099.9,3.07,0.77,4.53,838.980,2028.760,94.283333,51.14,2.5568,355,23506,1.82467,3.86,42297,16.459814,87.604057,115.859673,0.989736,0.465301,1.802956,26.192036,43.079597,-53.823837,0.002188,0.002188,0.002188,0.002188,-0.012947,-0.045224,-0.116191,-0.201943,99999,99999,99999,99999,99999,99999,99999,99999,99999,99999,99999,99999
23:48:40,1510495320,2017-11-12T14:02:04,0.710,1100.3,3.08,0.76,4.53,838.900,2028.790,94.333336,50.88,2.5568,355,23505,1.81412,3.86,42293,16.161286,87.523168,115.942678,0.989736,0.461381,1.804780,37.295422,-4.107919,-53.823837,0.002188,0.002181,0.002188,0.002188,-0.012945,-0.045221,-0.116181,-0.201924,99999,99999,99999,99999,99999,99999,99999,99999,99999,99999,99999,99999
23:49:10,1510495350,2017-11-12T14:02:34,0.715,1100.7,3.09,0.77,4.49,838.920,2028.790,94.550003,50.88,2.5567,355,23505,1.82702,3.86,42289,15.871326,87.442162,116.025749,0.989736,0.456091,1.808654,41.928928,6.928141,-53.823837,0.002188,0.002188,0.002188,0.002188,-0.012946,-0.045222,-0.116184,-0.201929,99999,99999,99999,99999,99999,99999,99999,99999,99999,99999,99999,99999
23:49:40,1510495380,2017-11-12T14:03:04,0.717,1101.0,3.10,0.80,4.54,838.970,2028.860,95.550003,51.21,2.5566,355,23506,1.83202,3.86,42284,15.589796,87.361088,116.108880,0.989736,0.454422,1.811654,48.389572,20.155142,-53.823837,0.002188,0.002188,0.002188,0.002194,-0.012946,-0.045224,-0.116190,-0.201941,99999,99999,99999,99999,99999,99999,99999,99999,99999,99999,99999,99999
23:50:10,1510495410,2017-11-12T14:03:34,0.712,1101.4,3.10,0.79,4.53,838.870,2028.860,95.599998,51.00,2.5567,355,23506,1.82115,3.86,42280,15.316433,87.279959,116.192082,0.989736,0.457147,1.817074,-0.706098,0.013885,-53.823837,0.002188,0.002188,0.002188,0.002188,-0.012945,-0.045220,-0.116178,-0.201917,99999,99999,99999,99999,99999,99999,99999,99999,99999,99999,99999,99999
23:50:40,1510495440,2017-11-12T14:04:04,0.716,1101.7,3.11,0.80,4.55,839.020,2028.900,95.650002,50.95,2.5565,355,23509,1.83084,3.86,42276,15.050699,87.198701,116.275369,0.989736,0.447885,1.810565,10.894656,1.281869,-53.823837,0.002188,0.002188,0.002188,0.002188,-0.012947,-0.045226,-0.116196,-0.201953,99999,99999,99999,99999,99999,99999,99999,99999,99999,99999,99999,99999
23:51:10,1510495470,2017-11-12T14:04:34,0.711,1102.1,3.11,0.81,4.55,839.020,2028.900,93.150002,51.03,2.5565,355,23507,1.81646,3.87,42272,14.792712,87.117436,116.358703,0.989735,0.441809,1.826445,26.041708,20.784220,-53.823837,0.002188,0.002188,0.002188,0.002188,-0.012947,-0.045226,-0.116196,-0.201953,99999,99999,99999,99999,99999,99999,99999,99999,99999,99999,99999,99999
23:51:40,1510495500,2017-11-12T14:05:04,0.716,1102.4,3.13,0.83,4.57,838.960,2028.960,95.433334,51.20,2.5565,355,23507,1.82937,3.88,42269,14.542114,87.036143,116.442104,0.989735,0.427733,1.830235,28.589382,3.600362,-53.823837,0.002556,0.002181,0.002181,0.002063,0.555936,-0.045224,-0.116189,-0.201939,99999,99999,99999,99999,99999,99999,99999,99999,99999,99999,99999,99999
23:52:10,1510495530,2017-11-12T14:05:34,0.716,1102.8,3.14,0.87,4.55,838.990,2028.960,95.816666,51.25,2.5565,355,23509,1.82996,3.89,42267,14.298442,86.954755,116.525584,0.989735,0.416659,1.841042,14.588233,3.176376,-53.823837,0.004150,0.002188,0.002188,0.002063,0.437980,-0.045225,-0.116192,-0.201946,99999,99999,99999,99999,99999,99999,99999,99999,99999,99999,99999,99999
23:52:40,1510495560,2017-11-12T14:06:04,0.715,1103.2,3.15,0.90,4.59,838.990,2029.020,94.666664,51.34,2.5564,355,23512,1.82702,3.90,42266,14.061668,86.873348,116.609130,0.989735,0.405004,1.846213,2.783226,7.734389,-53.823837,0.005056,0.002188,0.002188,0.002063,0.417838,-0.045225,-0.116192,-0.201946,99999,99999,99999,99999,99999,99999,99999,99999,99999,99999,99999,99999
23:53:10,1510495590,2017-11-12T14:06:34,0.719,1103.5,3.16,0.99,4.59,839.030,2029.020,94.733330,51.54,2.5563,355,23515,1.83762,3.90,42266,13.831442,86.791887,116.692761,0.989735,0.396496,1.846880,3.616253,0.671319,-53.823837,0.005869,0.002188,0.002188,0.002094,0.406624,-0.045226,-0.116197,-0.201955,99999,99999,99999,99999,99999,99999,99999,99999,99999,99999,99999,99999
23:53:40,1510495620,2017-11-12T14:07:04,0.718,1103.9,3.18,1.07,4.62,838.980,2029.190,95.533333,51.60,2.5562,355,23515,1.83467,3.90,42266,13.607615,86.710403,116.776434,0.989735,0.383590,1.832819,7.761308,16.567146,-53.823837,0.005775,0.002188,0.002188,0.002081,0.415455,-0.045224,-0.116191,-0.201943,99999,99999,99999,99999,99999,99999,99999,99999,99999,99999,99999,99999
23:54:10,1510495650,2017-11-12T14:07:34,0.711,1104.2,3.21,1.14,4.67,838.980,2029.230,92.966667,51.54,2.5561,355,23522,1.81851,3.90,42266,13.389949,86.628893,116.860185,0.989735,0.376028,1.824541,6.618854,5.269979,-53.823837,0.005863,0.002188,0.002188,0.002088,0.420588,-0.045224,-0.116191,-0.201943,99999,99999,99999,99999,99999,99999,99999,99999,99999,99999,99999,99999
23:54:40,1510495680,2017-11-12T14:08:04,0.713,1104.6,3.25,1.22,4.68,839.040,2029.360,94.400002,51.46,2.5559,355,23523,1.82232,3.90,42266,13.178198,86.547348,116.944019,0.989735,0.365566,1.813113,7.800471,2.441879,-53.823837,0.005888,0.002188,0.002188,0.002075,0.427030,-0.045227,-0.116198,-0.201958,99999,99999,99999,99999,99999,99999,99999,99999,99999,99999,99999,99999
23:55:10,1510495710,2017-11-12T14:08:34,0.711,1104.9,3.28,1.29,4.74,838.980,2029.460,93.716667,51.44,2.5557,355,23525,1.81587,3.91,42266,12.972232,86.465799,117.027914,0.989735,0.360242,1.810205,13.148515,4.032203,-53.823837,0.006075,0.002188,0.002188,0.002088,0.430142,-0.045224,-0.116191,-0.201943,99999,99999,99999,99999,99999,99999,99999,99999,99999,99999,99999,99999
23:55:40,1510495740,2017-11-12T14:09:04,0.717,1105.3,3.32,1.37,4.82,838.950,2029.630,95.133331,51.39,2.5555,355,23528,1.83349,3.91,42266,12.771807,86.384230,117.111887,0.989735,0.354709,1.810350,52.267208,30.338728,-53.823837,0.006175,0.002188,0.002188,0.002075,0.435075,-0.045223,-0.116187,-0.201936,99999,99999,99999,99999,99999,99999,99999,99999,99999,99999,99999,99999
23:56:10,1510495770,2017-11-12T14:09:34,0.719,1105.7,3.37,1.43,4.84,838.940,2029.790,95.066666,51.37,2.5553,355,23529,1.83791,3.91,42267,12.576687,86.302626,117.195939,0.989735,0.344743,1.807700,2.137284,-1.923244,-53.823837,0.006269,0.002188,0.002188,0.002106,0.440149,-0.045223,-0.116186,-0.201934,99999,99999,99999,99999,99999,99999,99999,99999,99999,99999,99999,99999
23:56:40,1510495800,2017-11-12T14:10:04,0.713,1106.0,3.44,1.51,4.93,838.970,2029.940,94.250000,51.22,2.5549,355,23534,1.82174,3.91,42267,12.386772,86.221022,117.280045,0.989735,0.333426,1.802799,67.207542,39.854099,-53.823837,0.006313,0.002188,0.002188,0.002088,0.446221,-0.045224,-0.116190,-0.201941,99999,99999,99999,99999,99999,99999,99999,99999,99999,99999,99999,99999
23:57:10,1510495830,2017-11-12T14:10:34,0.713,1106.4,3.49,1.56,5.01,838.990,2030.170,94.633331,51.43,2.5546,355,23534,1.82115,3.91,42267,12.201833,86.139398,117.364232,0.989735,0.332114,1.810989,72.892372,38.395428,-53.823837,0.006400,0.002188,0.002188,0.002100,0.451434,-0.045225,-0.116192,-0.201946,99999,99999,99999,99999,99999,99999,99999,99999,99999,99999,99999,99999
23:57:40,1510495860,2017-11-12T14:11:04,0.716,1106.7,3.57,1.65,5.11,838.970,2030.380,96.150002,51.68,2.5542,355,23535,1.82967,3.91,42267,12.021798,86.057801,117.448494,0.989734,0.325121,1.810218,5.884821,-0.845799,-53.823837,0.006656,0.002188,0.002188,0.002094,0.453405,-0.045224,-0.116190,-0.201941,99999,99999,99999,99999,99999,99999,99999,99999,99999,99999,99999,99999
23:58:10,1510495890,2017-11-12T14:11:34,0.718,1107.1,3.63,1.73,5.18,839.010,2030.670,96.099998,51.75,2.5539,355,23540,1.83467,3.91,42268,11.846359,85.976167,117.532822,0.989734,0.319498,1.806941,9.669981,2.353222,-53.823837,0.006594,0.002188,0.002188,0.002106,0.461517,-0.045226,-0.116195,-0.201951,99999,99999,99999,99999,99999,99999,99999,99999,99999,99999,99999,99999
23:58:40,1510495920,2017-11-12T14:12:04,0.719,1107.4,3.71,1.79,5.26,838.990,2030.940,95.416664,51.62,2.5536,355,23541,1.83614,3.91,42268,11.675482,85.894555,117.617215,0.989734,0.317039,1.808823,-87.182533,-84.632446,-53.823837,0.006644,0.002188,0.002188,0.002094,0.467481,-0.045225,-0.116192,-0.201946,99999,99999,99999,99999,99999,99999,99999,99999,99999,99999,99999,99999
23:59:10,1510495950,2017-11-12T14:12:34,0.715,1107.8,3.79,1.86,5.34,839.030,2031.210,94.483330,51.20,2.5531,355,23543,1.82438,3.91,42268,11.508990,85.812955,117.701691,0.989734,0.318413,1.814025,31.109322,2.038661,-53.823837,0.006663,0.002188,0.002188,0.002106,0.474060,-0.045226,-0.116197,-0.201955,99999,99999,99999,99999,99999,99999,99999,99999,99999,99999,99999,99999
23:59:40,1510495980,2017-11-12T14:13:04,0.721,1108.2,3.86,1.97,5.43,839.010,2031.480,95.616669,50.60,2.5529,355,23545,1.84027,3.91,42269,11.346665,85.731334,117.786245,0.989734,0.323654,1.827344,-74.612785,-17.642574,-53.823837,0.006650,0.002181,0.002188,0.002094,0.481278,-0.045226,-0.116195,-0.201951,99999,99999,99999,99999,99999,99999,99999,99999,99999,99999,99999,99999
24:00:10,1510496010,2017-11-12T14:13:34,0.716,1108.5,3.94,2.00,5.54,839.010,2031.760,94.016670,50.16,2.5525,355,23547,1.82820,3.91,42269,11.188407,85.649711,117.870870,0.989734,0.340670,1.863006,16.782467,38.431992,-53.823837,0.006675,0.002188,0.002188,0.002119,0.487762,-0.045226,-0.116195,-0.201951,99999,99999,99999,99999,99999,99999,99999,99999,99999,99999,99999,99999
24:00:40,1510496040,2017-11-12T14:14:04,0.716,1108.9,4.02,2.09,5.62,838.950,2032.030,94.616669,49.95,2.5520,355,23551,1.82702,3.91,42270,11.034150,85.568126,117.955560,0.989734,0.355800,1.898695,6.990106,0.308946,-53.823837,0.006769,0.002188,0.002188,0.002100,0.492863,-0.045223,-0.116187,-0.201936,99999,99999,99999,99999,99999,99999,99999,99999,99999,99999,99999,99999
24:01:10,1510496070,2017-11-12T14:14:34,0.720,1109.2,4.10,2.18,5.70,838.880,2032.320,96.133331,49.83,2.5517,355,23554,1.83644,3.91,42270,10.883703,85.486547,118.040343,0.989734,0.365045,1.923772,1.895607,5.866874,-53.823837,0.006856,0.002188,0.002188,0.002106,0.498094,-0.045220,-0.116179,-0.201919,99999,99999,99999,99999,99999,99999,99999,99999,99999,99999,99999,99999
24:01:40,1510496100,2017-11-12T14:15:04,0.723,1109.6,4.21,2.26,5.84,838.910,2032.630,96.800003,49.69,2.5512,355,23555,1.84529,3.91,42271,10.736954,85.404983,118.125191,0.989734,0.376635,1.947431,17.887329,-14.984264,-53.823837,0.006963,0.002188,0.002188,0.002113,0.502954,-0.045222,-0.116183,-0.201927,99999,99999,99999,99999,99999,99999,99999,99999,99999,99999,99999,99999
24:02:10,1510496130,2017-11-12T14:15:34,0.723,1110.0,4.30,2.28,5.89,838.910,2032.920,96.383331,49.43,2.5507,355,23557,1.84470,3.91,42272,10.593764,85.323425,118.210111,0.989734,0.384016,1.968181,22.121424,15.109230,-53.823837,0.007088,0.002188,0.002188,0.002106,0.507456,-0.045222,-0.116183,-0.201927,99999,99999,99999,99999,99999,99999,99999,99999,99999,99999,99999,99999
24:02:40,1510496160,2017-11-12T14:16:04,0.722,1110.3,4.38,2.35,6.01,838.970,2033.230,96.183334,49.68,2.5503,355,23560,1.84086,3.92,42272,10.454036,85.241885,118.295103,0.989734,0.392402,1.987124,1.384109,3.099267,-53.823837,0.007256,0.002188,0.002188,0.002100,0.511131,-0.045224,-0.116190,-0.201941,99999,99999,99999,99999,99999,99999,99999,99999,99999,99999,99999,99999
24:03:10,1510496190,2017-11-12T14:16:34,0.723,1110.7,4.48,2.44,6.18,838.980,2033.630,98.133331,49.94,2.5498,355,23561,1.84322,3.92,42273,10.317656,85.160362,118.380172,0.989734,0.389116,1.988424,3.478255,5.748651,-53.823837,0.007313,0.002188,0.002188,0.002119,0.516975,-0.045224,-0.116191,-0.201943,99999,99999,99999,99999,99999,99999,99999,99999,99999,99999,99999,99999
24:03:40,1510496220,2017-11-12T14:17:04,0.719,1111.0,4.58,2.51,6.23,838.950,2033.960,97.566666,49.23,2.5493,355,23564,1.83408,3.92,42275,10.184535,85.078870,118.465312,0.989734,0.392467,1.994006,3.440753,8.964889,-53.823837,0.007325,0.002188,0.002188,0.002125,0.523660,-0.045223,-0.116187,-0.201936,99999,99999,99999,99999,99999,99999,99999,99999,99999,99999,99999,99999
24:04:10,1510496250,2017-11-12T14:17:34,0.724,1111.4,4.68,2.61,6.34,838.980,2034.230,97.583336,49.11,2.5488,355,23565,1.84618,3.92,42276,10.054523,84.997379,118.550543,0.989733,0.399459,2.007495,18.103552,-1.956355,-53.823837,0.007400,0.002188,0.002188,0.002106,0.529139,-0.045224,-0.116191,-0.201943,99999,99999,99999,99999,99999,99999,99999,99999,99999,99999,99999,99999
24:04:40,1510496280,2017-11-12T14:18:04,0.722,1111.8,4.78,2.65,6.47,839.010,2034.630,96.616669,48.78,2.5483,355,23568,1.84086,3.92,42277,9.927569,84.915920,118.635849,0.989733,0.403740,2.019771,3.511565,0.282040,-53.823837,0.007450,0.002188,0.002188,0.002100,0.535097,-0.045226,-0.116195,-0.201951,99999,99999,99999,99999,99999,99999,99999,99999,99999,99999,99999,99999
24:05:10,1510496310,2017-11-12T14:18:34,0.725,1112.1,4.88,2.76,6.59,838.890,2034.940,97.783333,48.30,2.5479,355,23571,1.84736,3.92,42278,9.803603,84.834514,118.721229,0.989733,0.415487,2.039064,9.654046,6.105405,-53.823837,0.007569,0.002188,0.002194,0.002125,0.539726,-0.045221,-0.116180,-0.201922,99999,99999,99999,99999,99999,99999,99999,99999,99999,99999,99999,99999
24:05:40,1510496340,2017-11-12T14:19:04,0.726,1112.5,4.97,2.81,6.70,838.970,2035.280,96.816666,48.18,2.5474,355,23578,1.84825,3.92,42279,9.682428,84.753091,118.806691,0.989733,0.424231,2.055877,85.248962,81.054787,-53.823837,0.007575,0.002188,0.002188,0.002113,0.546520,-0.045224,-0.116190,-0.201941,99999,99999,99999,99999,99999,99999,99999,99999,99999,99999,99999,99999
24:06:10,1510496370,2017-11-12T14:19:34,0.724,1112.9,5.07,2.89,6.80,838.940,2035.550,96.900002,47.76,2.5469,355,23575,1.84500,3.92,42281,9.564054,84.671718,118.892228,0.989733,0.427212,2.064808,15.590195,10.019171,-53.823837,0.007731,0.002188,0.002188,0.002125,0.550421,-0.045223,-0.116186,-0.201934,99999,99999,99999,99999,99999,99999,99999,99999,99999,99999,99999,99999
24:06:40,1510496400,2017-11-12T14:20:04,0.728,1113.2,5.17,3.00,6.91,838.980,2035.950,100.000000,47.28,2.5464,355,23579,1.85298,3.92,42282,9.448356,84.590369,118.977839,0.989733,0.441240,2.085862,3.037872,1.434343,-53.823837,0.007813,0.002188,0.002188,0.002113,0.555762,-0.045224,-0.116191,-0.201943,99999,99999,99999,99999,99999,99999,99999,99999,99999,99999,99999,99999
24:07:10,1510496430,2017-11-12T14:20:34,0.724,1113.6,5.27,3.05,6.99,838.900,2036.340,97.000000,47.06,2.5459,355,23580,1.84322,3.93,42284,9.335284,84.509069,119.063538,0.989733,0.448723,2.102207,27.447840,13.483394,-53.823837,0.007844,0.002188,0.002188,0.002119,0.562051,-0.045221,-0.116181,-0.201924,99999,99999,99999,99999,99999,99999,99999,99999,99999,99999,99999,99999
24:07:40,1510496460,2017-11-12T14:21:04,0.724,1113.9,5.38,3.13,7.14,838.870,2036.650,96.900002,46.80,2.5455,355,23586,1.84322,3.93,42286,9.224712,84.427784,119.149327,0.989733,0.454521,2.115799,9.440999,9.862031,-53.823837,0.007850,0.002188,0.002188,0.002106,0.568823,-0.045220,-0.116178,-0.201917,99999,99999,99999,99999,99999,99999,99999,99999,99999,99999,99999,99999
24:08:10,1510496490,2017-11-12T14:21:34,0.731,1114.3,5.48,3.23,7.23,839.010,2037.050,99.583336,45.94,2.5450,355,23589,1.85951,3.93,42288,9.116568,84.346519,119.235186,0.989733,0.465300,2.131370,79.986397,55.983570,-53.823837,0.007975,0.002188,0.002188,0.002119,0.573301,-0.045226,-0.116195,-0.201951,99999,99999,99999,99999,99999,99999,99999,99999,99999,99999,99999,99999
24:08:40,1510496520,2017-11-12T14:22:04,0.728,1114.7,5.59,3.33,7.33,838.940,2037.490,98.000000,46.21,2.5444,355,23591,1.85298,3.93,42290,9.010849,84.265327,119.321096,0.989733,0.474964,2.146433,24.057337,12.832278,-53.823837,0.007994,0.002188,0.002188,0.002113,0.579817,-0.045223,-0.116186,-0.201934,99999,99999,99999,99999,99999,99999,99999,99999,99999,99999,99999,99999
24:09:10,1510496550,2017-11-12T14:22:34,0.729,1115.0,5.69,3.41,7.47,838.940,2037.760,99.550003,46.24,2.5439,355,23594,1.85565,3.93,42292,8.907418,84.184160,119.407113,0.989733,0.478930,2.155291,15.095567,15.942743,-53.823837,0.008019,0.002188,0.002188,0.002119,0.586212,-0.045223,-0.116186,-0.201934,99999,99999,99999,99999,99999,99999,99999,99999,99999,99999,99999,99999
24:09:40,1510496580,2017-11-12T14:23:04,0.733,1115.4,5.80,3.48,7.59,838.960,2038.150,100.033333,46.60,2.5433,355,23596,1.86545,3.93,42294,8.806222,84.103030,119.493205,0.989733,0.479408,2.159697,3.406963,8.048536,-53.823837,0.008088,0.002188,0.002188,0.002119,0.591752,-0.045224,-0.116189,-0.201939,99999,99999,99999,99999,99999,99999,99999,99999,99999,99999,99999,99999
24:10:10,1510496610,2017-11-12T14:23:34,0.734,1115.8,5.91,3.59,7.68,838.960,2038.530,100.449997,46.48,2.5428,355,23598,1.86634,3.93,42296,8.707194,84.021938,119.579372,0.989733,0.479456,2.162236,24.545248,-0.667228,-53.823837,0.008081,0.002188,0.002188,0.002125,0.598752,-0.045224,-0.116189,-0.201939,99999,99999,99999,99999,99999,99999,99999,99999,99999,99999,99999,99999
24:10:40,1510496640,2017-11-12T14:24:04,0.728,1116.1,6.01,3.65,7.82,838.950,2038.870,98.849998,45.94,2.5424,355,23601,1.85091,3.93,42298,8.610230,83.940849,119.665627,0.989732,0.487957,2.173809,1.603926,-1.317135,-53.823837,0.008256,0.002188,0.002188,0.002125,0.602207,-0.045223,-0.116187,-0.201936,99999,99999,99999,99999,99999,99999,99999,99999,99999,99999,99999,99999
24:11:10,1510496670,2017-11-12T14:24:34,0.735,1116.5,6.12,3.72,7.88,838.970,2039.260,99.633331,45.90,2.5419,355,23603,1.86783,3.93,42300,8.515361,83.859841,119.751965,0.989732,0.493451,2.183972,15.127952,12.430344,-53.823837,0.008288,0.002188,0.002188,0.002125,0.608451,-0.045224,-0.116190,-0.201941,99999,99999,99999,99999,99999,99999,99999,99999,99999,99999,99999,99999
24:11:40,1510496700,2017-11-12T14:25:04,0.729,1116.9,6.23,3.78,8.02,838.900,2039.590,98.000000,45.50,2.5413,355,23605,1.85269,3.93,42302,8.422505,83.778899,119.838375,0.989732,0.492276,2.186860,10.303526,-0.169698,-53.823837,0.008394,0.002188,0.002188,0.002125,0.613231,-0.045221,-0.116181,-0.201924,99999,99999,99999,99999,99999,99999,99999,99999,99999,99999,99999,99999
24:12:10,1510496730,2017-11-12T14:25:34,0.736,1117.2,6.32,3.87,8.15,838.930,2039.870,101.366669,45.00,2.5408,355,23608,1.87111,3.93,42304,8.331528,83.697955,119.924872,0.989732,0.498263,2.195620,4.852206,-0.750802,-53.823837,0.008450,0.002188,0.002188,0.002125,0.618974,-0.045222,-0.116185,-0.201931,99999,99999,99999,99999,99999,99999,99999,99999,99999,99999,99999,99999
24:12:40,1510496760,2017-11-12T14:26:04,0.737,1117.6,6.42,3.92,8.24,838.860,2040.260,101.133331,44.60,2.5403,355,23612,1.87170,3.93,42306,8.242459,83.617084,120.011457,0.989732,0.501382,2.202773,16.536057,-8.785247,-53.823837,0.008619,0.002188,0.002188,0.002125,0.622546,-0.045220,-0.116176,-0.201915,99999,99999,99999,99999,99999,99999,99999,99999,99999,99999,99999,99999
24:13:10,1510496790,2017-11-12T14:26:34,0.734,1118.0,6.54,4.03,8.35,838.880,2040.640,99.949997,44.65,2.5398,355,23615,1.86396,3.93,42309,8.155203,83.536250,120.098128,0.989732,0.508728,2.215040,12.106601,5.908092,-53.823837,0.008788,0.002188,0.002188,0.002119,0.626138,-0.045220,-0.116179,-0.201919,99999,99999,99999,99999,99999,99999,99999,99999,99999,99999,99999,99999
24:13:40,1510496820,2017-11-12T14:27:04,0.738,1118.3,6.65,4.10,8.47,838.930,2041.030,102.266670,43.96,2.5394,355,23617,1.87528,3.93,42311,8.069715,83.455458,120.184866,0.989732,0.509146,2.217896,6.085290,13.311209,-53.823837,0.008819,0.002188,0.002188,0.002125,0.632317,-0.045222,-0.116185,-0.201931,99999,99999,99999,99999,99999,99999,99999,99999,99999,99999,99999,99999
24:14:10,1510496850,2017-11-12T14:27:34,0.732,1118.7,6.76,4.22,8.59,838.910,2041.470,99.666664,43.47,2.5387,355,23620,1.85951,3.93,42314,7.985958,83.374722,120.271689,0.989732,0.520629,2.234216,29.369196,-7.634130,-53.823837,0.008875,0.002188,0.002188,0.002113,0.638017,-0.045222,-0.116183,-0.201927,99999,99999,99999,99999,99999,99999,99999,99999,99999,99999,99999,99999
24:14:40,1510496880,2017-11-12T14:28:04,0.733,1119.1,6.87,4.29,8.68,838.860,2041.800,99.800003,43.43,2.5381,355,23619,1.86040,3.93,42316,7.903888,83.294046,120.358600,0.989732,0.528075,2.245639,7.023482,10.736418,-53.823837,0.008944,0.002188,0.002188,0.002125,0.643471,-0.045220,-0.116176,-0.201915,99999,99999,99999,99999,99999,99999,99999,99999,99999,99999,99999,99999
24:15:10,1510496910,2017-11-12T14:28:33,0.740,1119.4,6.99,4.38,8.80,838.880,2042.200,102.133331,42.86,2.5376,355,23623,1.87886,3.93,42319,,,,,,,,,,,,,,,,,,99999,99999,99999,99999,99999,99999,99999,99999,99999,99999,99999,99999
24:15:40,1510496940,2017-11-12T14:29:03,0.734,1119.8,7.08,4.42,8.94,838.910,2042.540,100.050003,43.08,2.5371,355,23625,1.86188,3.93,42321,,,,,,,,,,,,,,,,,,99999,99999,99999,99999,99999,99999,99999,99999,99999,99999,99999,99999
24:16:10,1510496970,2017-11-12T14:29:33,0.736,1120.2,7.21,4.46,9.01,838.860,2042.970,101.016670,42.88,2.5365,355,23627,1.86753,3.94,42324,,,,,,,,,,,,,,,,,,99999,99999,99999,99999,99999,99999,99999,99999,99999,99999,99999,99999
24:16:40,1510497000,2017-11-12T14:30:03,0.735,1120.5,7.33,4.60,9.22,838.830,2043.410,100.949997,42.20,2.5360,355,23634,1.86456,3.94,42327,,,,,,,,,,,,,,,,,,99999,99999,99999,99999,99999,99999,99999,99999,99999,99999,99999,99999
24:17:10,1510497030,2017-11-12T14:30:33,0.737,1120.9,7.45,4.64,9.30,838.860,2043.800,101.550003,42.42,2.5353,355,23634,1.86783,3.94,42330,,,,,,,,,,,,,,,,,,99999,99999,99999,99999,99999,99999,99999,99999,99999,99999,99999,99999
24:17:40,1510497060,2017-11-12T14:31:03,0.742,1121.3,7.56,4.73,9.43,838.940,2044.200,102.650002,42.25,2.5348,355,23635,1.87976,3.94,42332,,,,,,,,,,,,,,,,,,99999,99999,99999,99999,99999,99999,99999,99999,99999,99999,99999,99999
24:18:10,1510497090,2017-11-12T14:31:33,0.744,1121.7,7.68,4.82,9.55,838.890,2044.640,102.699997,41.71,2.5343,355,23639,1.88544,3.94,42335,,,,,,,,,,,,,,,,,,99999,99999,99999,99999,99999,99999,99999,99999,99999,99999,99999,99999
24:18:40,1510497120,2017-11-12T14:32:03,0.745,1122.0,7.79,4.88,9.65,838.860,2045.040,103.400002,41.57,2.5338,355,23642,1.88783,3.94,42338,,,,,,,,,,,,,,,,,,99999,99999,99999,99999,99999,99999,99999,99999,99999,99999,99999,99999
24:19:10,1510497150,2017-11-12T14:32:33,0.739,1122.4,7.90,4.95,9.80,838.970,2045.410,101.550003,41.01,2.5333,355,23645,1.87260,3.94,42341,,,,,,,,,,,,,,,,,,99999,99999,99999,99999,99999,99999,99999,99999,99999,99999,99999,99999
24:19:40,1510497180,2017-11-12T14:33:03,0.744,1122.8,8.00,5.04,9.89,839.000,2045.700,102.633331,40.48,2.5328,355,23646,1.88364,3.94,42344,,,,,,,,,,,,,,,,,,99999,99999,99999,99999,99999,99999,99999,99999,99999,99999,99999,99999
24:20:10,1510497210,2017-11-12T14:33:33,0.746,1123.1,8.12,5.11,10.03,838.950,2046.140,104.349998,40.27,2.5322,355,23651,1.88783,3.94,42347,,,,,,,,,,,,,,,,,,99999,99999,99999,99999,99999,99999,99999,99999,99999,99999,99999,99999
24:20:40,1510497240,2017-11-12T14:34:03,0.741,1123.5,8.24,5.20,10.13,838.940,2046.540,101.883331,39.79,2.5316,355,23651,1.87528,3.94,42350,,,,,,,,,,,,,,,,,,99999,99999,99999,99999,99999,99999,99999,99999,99999,99999,99999,99999
24:21:10,1510497270,2017-11-12T14:34:33,0.743,1123.9,8.34,5.27,10.26,838.900,2046.940,101.866669,38.84,2.5313,355,23651,1.88125,3.94,42353,,,,,,,,,,,,,,,,,,99999,99999,99999,99999,99999,99999,99999,99999,99999,99999,99999,99999
24:21:40,1510497300,2017-11-12T14:35:03,0.741,1124.3,8.45,5.37,10.39,838.950,2047.310,103.400002,38.64,2.5307,355,23656,1.87498,3.94,42356,,,,,,,,,,,,,,,,,,99999,99999,99999,99999,99999,99999,99999,99999,99999,99999,99999,99999
24:22:10,1510497330,2017-11-12T14:35:33,0.743,1124.6,8.56,5.45,10.51,838.950,2047.640,102.766670,38.69,2.5301,355,23659,1.88035,3.94,42359,,,,,,,,,,,,,,,,,,99999,99999,99999,99999,99999,99999,99999,99999,99999,99999,99999,99999
24:22:40,1510497360,2017-11-12T14:36:03,0.745,1125.0,8.65,5.51,10.61,838.830,2047.940,102.716667,38.44,2.5297,355,23661,1.88574,3.94,42362,,,,,,,,,,,,,,,,,,99999,99999,99999,99999,99999,99999,99999,99999,99999,99999,99999,99999
24:23:10,1510497390,2017-11-12T14:36:33,0.742,1125.4,8.76,5.57,10.71,838.910,2048.330,103.466667,38.85,2.5292,355,23663,1.87767,3.94,42365,,,,,,,,,,,,,,,,,,99999,99999,99999,99999,99999,99999,99999,99999,99999,99999,99999,99999
24:23:40,1510497420,2017-11-12T14:37:03,0.751,1125.7,8.87,5.68,10.80,838.960,2048.710,105.216667,38.45,2.5286,355,23667,1.89863,3.94,42368,,,,,,,,,,,,,,,,,,99999,99999,99999,99999,99999,99999,99999,99999,99999,99999,99999,99999
24:24:10,1510497450,2017-11-12T14:37:33,0.752,1126.1,8.98,5.73,10.97,838.970,2049.100,105.300003,37.64,2.5282,355,23669,1.90013,3.94,42372,,,,,,,,,,,,,,,,,,99999,99999,99999,99999,99999,99999,99999,99999,99999,99999,99999,99999
24:24:40,1510497480,2017-11-12T14:38:03,0.746,1126.5,9.10,5.84,11.05,838.910,2049.540,103.099998,37.87,2.5276,355,23673,1.88574,3.94,42375,,,,,,,,,,,,,,,,,,99999,99999,99999,99999,99999,99999,99999,99999,99999,99999,99999,99999
24:25:10,1510497510,2017-11-12T14:38:33,0.753,1126.9,9.21,5.94,11.16,838.970,2049.940,105.650002,37.27,2.5271,355,23675,1.90374,3.94,42378,,,,,,,,,,,,,,,,,,99999,99999,99999,99999,99999,99999,99999,99999,99999,99999,99999,99999
24:25:40,1510497540,2017-11-12T14:39:03,0.751,1127.2,9.34,5.98,11.27,838.890,2050.400,105.599998,36.89,2.5265,355,23675,1.89863,3.94,42382,,,,,,,,,,,,,,,,,,99999,99999,99999,99999,99999,99999,99999,99999,99999,99999,99999,99999
24:26:10,1510497570,2017-11-12T14:39:33,0.754,1127.6,9.46,6.05,11.40,838.960,2050.790,106.483330,36.32,2.5260,355,23677,1.90524,3.94,42385,,,,,,,,,,,,,,,,,,99999,99999,99999,99999,99999,99999,99999,99999,99999,99999,99999,99999
24:26:40,1510497600,2017-11-12T14:40:03,0.751,1128.0,9.58,6.17,11.55,838.840,2051.230,106.283333,37.33,2.5254,355,23680,1.89623,3.94,42388,,,,,,,,,,,,,,,,,,99999,99999,99999,99999,99999,99999,99999,99999,99999,99999,99999,99999
24:27:10,1510497630,2017-11-12T14:40:33,0.754,1128.4,9.71,6.24,11.66,838.860,2051.670,105.349998,36.28,2.5248,355,23684,1.90344,3.94,42392,,,,,,,,,,,,,,,,,,99999,99999,99999,99999,99999,99999,99999,99999,99999,99999,99999,99999
24:27:40,1510497660,2017-11-12T14:41:03,0.757,1128.7,9.83,6.33,11.82,838.910,2052.020,106.633331,36.02,2.5241,355,23688,1.91067,3.94,42395,,,,,,,,,,,,,,,,,,99999,99999,99999,99999,99999,99999,99999,99999,99999,99999,99999,99999
24:28:10,1510497690,2017-11-12T14:41:33,0.754,1129.1,9.96,6.41,11.94,838.930,2052.460,105.233330,35.67,2.5235,355,23692,1.90163,3.94,42399,,,,,,,,,,,,,,,,,,99999,99999,99999,99999,99999,99999,99999,99999,99999,99999,99999,99999
24:28:40,1510497720,2017-11-12T14:42:03,0.754,1129.5,10.07,6.50,12.06,838.960,2052.860,105.483330,35.09,2.5231,355,23693,1.90254,3.94,42402,,,,,,,,,,,,,,,,,,99999,99999,99999,99999,99999,99999,99999,99999,99999,99999,99999,99999
24:29:10,1510497750,2017-11-12T14:42:33,0.757,1129.9,10.20,6.62,12.19,838.960,2053.300,106.849998,34.90,2.5224,355,23693,1.91006,3.95,42406,,,,,,,,,,,,,,,,,,99999,99999,99999,99999,99999,99999,99999,99999,99999,99999,99999,99999
24:29:40,1510497780,2017-11-12T14:43:03,0.760,1130.3,10.31,6.66,12.29,838.960,2053.690,106.283333,34.11,2.5220,355,23699,1.91610,3.95,42409,,,,,,,,,,,,,,,,,,99999,99999,99999,99999,99999,99999,99999,99999,99999,99999,99999,99999
24:30:10,1510497810,2017-11-12T14:43:33,0.752,1130.6,10.41,6.78,12.44,838.860,2054.030,105.516670,34.11,2.5215,355,23703,1.89593,3.95,42413,,,,,,,,,,,,,,,,,,99999,99999,99999,99999,99999,99999,99999,99999,99999,99999,99999,99999
24:30:40,1510497840,2017-11-12T14:44:03,0.754,1131.0,10.53,6.87,12.53,838.940,2054.480,105.500000,33.99,2.5210,355,23704,1.90043,3.95,42416,,,,,,,,,,,,,,,,,,99999,99999,99999,99999,99999,99999,99999,99999,99999,99999,99999,99999
24:31:10,1510497870,2017-11-12T14:44:33,0.760,1131.4,10.63,6.95,12.66,838.920,2054.820,108.233330,33.56,2.5205,355,23707,1.91489,3.95,42420,,,,,,,,,,,,,,,,,,99999,99999,99999,99999,99999,99999,99999,99999,99999,99999,99999,99999
24:31:40,1510497900,2017-11-12T14:45:03,0.761,1131.8,10.74,7.02,12.81,838.950,2055.220,108.300003,33.60,2.5200,355,23710,1.91791,3.95,42424,,,,,,,,,,,,,,,,,,99999,99999,99999,99999,99999,99999,99999,99999,99999,99999,99999,99999
24:32:10,1510497930,2017-11-12T14:45:33,0.754,1132.1,10.86,7.08,12.87,839.020,2055.550,106.733330,33.33,2.5193,355,23710,1.90073,3.95,42427,,,,,,,,,,,,,,,,,,99999,99999,99999,99999,99999,99999,99999,99999,99999,99999,99999,99999
24:32:40,1510497960,2017-11-12T14:46:03,0.754,1132.5,10.95,7.15,13.00,838.850,2055.880,107.150002,33.11,2.5189,355,23714,1.89953,3.95,42431,,,,,,,,,,,,,,,,,,99999,99999,99999,99999,99999,99999,99999,99999,99999,99999,99999,99999
24:33:10,1510497990,2017-11-12T14:46:33,0.760,1132.9,11.05,7.23,13.10,838.980,2056.280,107.433334,33.58,2.5185,355,23715,1.91338,3.95,42435,,,,,,,,,,,,,,,,,,99999,99999,99999,99999,99999,99999,99999,99999,99999,99999,99999,99999
24:33:40,1510498020,2017-11-12T14:47:03,0.762,1133.3,11.14,7.29,13.19,839.020,2056.610,109.266670,33.33,2.5181,355,23716,1.91761,3.95,42439,,,,,,,,,,,,,,,,,,99999,99999,99999,99999,99999,99999,99999,99999,99999,99999,99999,99999
24:34:10,1510498050,2017-11-12T14:47:33,0.757,1133.7,11.22,7.38,13.29,838.940,2056.840,107.116669,33.06,2.5177,355,23719,1.90675,3.95,42442,,,,,,,,,,,,,,,,,,99999,99999,99999,99999,99999,99999,99999,99999,99999,99999,99999,99999
24:34:40,1510498080,2017-11-12T14:48:03,0.763,1134.0,11.30,7.39,13.39,838.900,2057.130,109.483330,34.00,2.5173,355,23725,1.92153,3.95,42446,,,,,,,,,,,,,,,,,,99999,99999,99999,99999,99999,99999,99999,99999,99999,99999,99999,99999
24:35:10,1510498110,2017-11-12T14:48:33,0.762,1134.4,11.38,7.46,13.44,838.960,2057.370,109.466667,34.22,2.5168,355,23722,1.91881,3.95,42450,,,,,,,,,,,,,,,,,,99999,99999,99999,99999,99999,99999,99999,99999,99999,99999,99999,99999
24:35:40,1510498140,2017-11-12T14:49:03,0.763,1134.8,11.46,7.49,13.55,839.050,2057.700,109.133331,33.07,2.5166,355,23726,1.92123,3.95,42453,,,,,,,,,,,,,,,,,,99999,99999,99999,99999,99999,99999,99999,99999,99999,99999,99999,99999
24:36:10,1510498170,2017-11-12T14:49:33,0.758,1135.2,11.51,7.55,13.60,839.010,2057.800,107.250000,32.81,2.5163,355,23730,1.90645,3.95,42457,,,,,,,,,,,,,,,,,,99999,99999,99999,99999,99999,99999,99999,99999,99999,99999,99999,99999
24:36:40,1510498200,2017-11-12T14:50:03,0.758,1135.6,11.57,7.61,13.65,839.050,2058.090,107.633331,32.89,2.5161,355,23729,1.90675,3.95,42461,,,,,,,,,,,,,,,,,,99999,99999,99999,99999,99999,99999,99999,99999,99999,99999,99999,99999
24:37:10,1510498230,2017-11-12T14:50:33,0.764,1135.9,11.66,7.68,13.73,839.030,2058.370,109.800003,32.64,2.5156,355,23730,1.92153,3.95,42465,,,,,,,,,,,,,,,,,,99999,99999,99999,99999,99999,99999,99999,99999,99999,99999,99999,99999
24:37:40,1510498260,2017-11-12T14:51:03,0.763,1136.3,11.73,7.71,13.79,839.000,2058.590,110.000000,33.18,2.5152,355,23732,1.91942,3.95,42469,,,,,,,,,,,,,,,,,,99999,99999,99999,99999,99999,99999,99999,99999,99999,99999,99999,99999
24:38:10,1510498290,2017-11-12T14:51:33,0.758,1136.7,11.80,7.75,13.84,839.030,2058.890,107.500000,32.94,2.5150,355,23735,1.90735,3.95,42473,,,,,,,,,,,,,,,,,,99999,99999,99999,99999,99999,99999,99999,99999,99999,99999,99999,99999
24:38:40,1510498320,2017-11-12T14:52:03,0.760,1137.1,11.87,7.80,13.92,838.940,2059.090,108.750000,31.39,2.5147,355,23734,1.91217,3.95,42477,,,,,,,,,,,,,,,,,,99999,99999,99999,99999,99999,99999,99999,99999,99999,99999,99999,99999
24:39:10,1510498350,2017-11-12T14:52:33,0.761,1137.5,11.93,7.87,13.95,839.030,2059.320,108.316666,30.64,2.5145,355,23736,1.91399,3.95,42481,,,,,,,,,,,,,,,,,,99999,99999,99999,99999,99999,99999,99999,99999,99999,99999,99999,99999
24:39:40,1510498380,2017-11-12T14:53:03,0.762,1137.8,11.99,7.91,14.06,838.990,2059.490,110.550003,30.23,2.5142,355,23738,1.91670,3.95,42485,,,,,,,,,,,,,,,,,,99999,99999,99999,99999,99999,99999,99999,99999,99999,99999,99999,99999
24:40:10,1510498410,2017-11-12T14:53:33,0.763,1138.2,12.05,7.97,14.13,839.020,2059.720,108.500000,30.24,2.5140,355,23740,1.91791,3.95,42489,,,,,,,,,,,,,,,,,,99999,99999,99999,99999,99999,99999,99999,99999,99999,99999,99999,99999
24:40:40,1510498440,2017-11-12T14:54:03,0.765,1138.6,12.08,8.01,14.18,839.070,2059.840,109.833336,30.18,2.5138,355,23740,1.92184,3.95,42493,,,,,,,,,,,,,,,,,,99999,99999,99999,99999,99999,99999,99999,99999,99999,99999,99999,99999
24:41:10,1510498470,2017-11-12T14:54:33,0.763,1139.0,12.15,8.02,14.21,838.980,2060.060,109.016670,32.08,2.5134,355,23744,1.91730,3.95,42497,,,,,,,,,,,,,,,,,,99999,99999,99999,99999,99999,99999,99999,99999,99999,99999,99999,99999
24:41:40,1510498500,2017-11-12T14:55:03,0.768,1139.4,12.18,8.08,14.29,839.050,2060.180,109.733330,31.00,2.5133,355,23746,1.93032,3.95,42501,,,,,,,,,,,,,,,,,,99999,99999,99999,99999,99999,99999,99999,99999,99999,99999,99999,99999
24:42:10,1510498530,2017-11-12T14:55:33,0.767,1139.8,12.22,8.11,14.34,839.040,2060.290,109.333336,31.69,2.5130,355,23745,1.92699,3.95,42505,,,,,,,,,,,,,,,,,,99999,99999,99999,99999,99999,99999,99999,99999,99999,99999,99999,99999
24:42:40,1510498560,2017-11-12T14:56:03,0.768,1140.1,12.26,8.15,14.40,839.060,2060.450,110.083336,31.67,2.5129,355,23747,1.93062,3.95,42509,,,,,,,,,,,,,,,,,,99999,99999,99999,99999,99999,99999,99999,99999,99999,99999,99999,99999
24:43:10,1510498590,2017-11-12T14:56:33,0.765,1140.5,12.29,8.20,14.40,838.970,2060.510,110.800003,30.77,2.5127,355,23747,1.92123,3.95,42513,,,,,,,,,,,,,,,,,,99999,99999,99999,99999,99999,99999,99999,99999,99999,99999,99999,99999
24:43:40,1510498620,2017-11-12T14:57:03,0.761,1140.9,12.32,8.25,14.48,838.970,2060.680,109.983330,30.85,2.5127,355,23752,1.91278,3.95,42517,,,,,,,,,,,,,,,,,,99999,99999,99999,99999,99999,99999,99999,99999,99999,99999,99999,99999
24:44:10,1510498650,2017-11-12T14:57:33,0.762,1141.3,12.38,8.31,14.52,839.030,2060.850,108.900002,30.49,2.5124,355,23753,1.91338,3.95,42522,,,,,,,,,,,,,,,,,,99999,99999,99999,99999,99999,99999,99999,99999,99999,99999,99999,99999
24:44:40,1510498680,2017-11-12T14:58:03,0.765,1141.7,12.41,8.34,14.55,839.080,2060.970,111.500000,30.00,2.5123,355,23752,1.92244,3.95,42526,,,,,,,,,,,,,,,,,,99999,99999,99999,99999,99999,99999,99999,99999,99999,99999,99999,99999
24:45:10,1510498710,2017-11-12T14:58:33,0.765,1142.1,12.43,8.37,14.56,839.050,2061.080,109.599998,30.54,2.5122,355,23754,1.92305,3.95,42530,,,,,,,,,,,,,,,,,,99999,99999,99999,99999,99999,99999,99999,99999,99999,99999,99999,99999
24:45:40,1510498740,2017-11-12T14:59:03,0.769,1142.4,12.47,8.42,14.61,838.990,2061.200,110.300003,29.98,2.5120,355,23760,1.93274,3.95,42534,,,,,,,,,,,,,,,,,,99999,99999,99999,99999,99999,99999,99999,99999,99999,99999,99999,99999
24:46:10,1510498770,2017-11-12T14:59:33,0.764,1142.8,12.49,8.46,14.66,839.040,2061.240,108.599998,30.25,2.5119,355,23759,1.91912,3.96,42538,,,,,,,,,,,,,,,,,,99999,99999,99999,99999,99999,99999,99999,99999,99999,99999,99999,99999
24:46:40,1510498800,2017-11-12T15:00:03,0.764,1143.2,12.54,8.50,14.73,839.050,2061.410,109.483330,31.08,2.5116,355,23759,1.91851,3.96,42543,,,,,,,,,,,,,,,,,,99999,99999,99999,99999,99999,99999,99999,99999,99999,99999,99999,99999
24:47:10,1510498830,2017-11-12T15:00:33,0.763,1143.6,12.56,8.56,14.76,839.020,2061.540,109.433334,29.90,2.5116,355,23760,1.91519,3.96,42547,,,,,,,,,,,,,,,,,,99999,99999,99999,99999,99999,99999,99999,99999,99999,99999,99999,99999
24:47:40,1510498860,2017-11-12T15:01:03,0.763,1144.0,12.59,8.59,14.77,839.090,2061.600,108.500000,31.26,2.5114,355,23762,1.91579,3.96,42551,,,,,,,,,,,,,,,,,,99999,99999,99999,99999,99999,99999,99999,99999,99999,99999,99999,99999
24:48:10,1510498890,2017-11-12T15:01:33,0.766,1144.4,12.60,8.64,14.79,839.040,2061.640,109.349998,29.71,2.5114,355,23765,1.92335,3.96,42556,,,,,,,,,,,,,,,,,,99999,99999,99999,99999,99999,99999,99999,99999,99999,99999,99999,99999
24:48:40,1510498920,2017-11-12T15:02:03,0.763,1144.7,12.63,8.66,14.85,839.030,2061.710,109.233330,30.14,2.5112,355,23765,1.91489,3.96,42560,,,,,,,,,,,,,,,,,,99999,99999,99999,99999,99999,99999,99999,99999,99999,99999,99999,99999
24:49:10,1510498950,2017-11-12T15:02:33,0.767,1145.1,12.68,8.69,14.84,839.070,2061.870,108.900002,30.82,2.5109,355,23767,1.92547,3.96,42564,,,,,,,,,,,,,,,,,,99999,99999,99999,99999,99999,99999,99999,99999,99999,99999,99999,99999
24:49:40,1510498980,2017-11-12T15:03:03,0.763,1145.5,12.69,8.73,14.89,838.940,2061.990,109.300003,30.63,2.5110,355,23767,1.91579,3.96,42569,,,,,,,,,,,,,,,,,,99999,99999,99999,99999,99999,99999,99999,99999,99999,99999,99999,99999
24:50:10,1510499010,2017-11-12T15:03:33,0.769,1145.9,12.73,8.79,14.92,839.040,2062.100,112.599998,30.60,2.5108,355,23765,1.93092,3.96,42573,,,,,,,,,,,,,,,,,,99999,99999,99999,99999,99999,99999,99999,99999,99999,99999,99999,99999
24:50:40,1510499040,2017-11-12T15:04:03,0.768,1146.3,12.76,8.80,14.98,839.030,2062.160,111.033333,31.18,2.5105,355,23769,1.92850,3.96,42577,,,,,,,,,,,,,,,,,,99999,99999,99999,99999,99999,99999,99999,99999,99999,99999,99999,99999
24:51:10,1510499070,2017-11-12T15:04:33,0.770,1146.6,12.79,8.83,15.00,839.050,2062.260,112.400002,30.28,2.5104,355,23767,1.93274,3.96,42581,,,,,,,,,,,,,,,,,,99999,99999,99999,99999,99999,99999,99999,99999,99999,99999,99999,99999
24:51:40,1510499100,2017-11-12T15:05:03,0.765,1147.0,12.82,8.88,15.00,838.990,2062.430,109.316666,31.86,2.5103,355,23769,1.91912,3.96,42586,,,,,,,,,,,,,,,,,,99999,99999,99999,99999,99999,99999,99999,99999,99999,99999,99999,99999
24:52:10,1510499130,2017-11-12T15:05:33,0.768,1147.4,12.84,8.92,15.10,838.990,2062.500,111.666664,31.63,2.5102,355,23770,1.92880,3.96,42590,,,,,,,,,,,,,,,,,,99999,99999,99999,99999,99999,99999,99999,99999,99999,99999,99999,99999
24:52:40,1510499160,2017-11-12T15:06:03,0.765,1147.8,12.85,8.97,15.15,839.060,2062.500,109.466667,30.45,2.5102,355,23773,1.92123,3.96,42595,,,,,,,,,,,,,,,,,,99999,99999,99999,99999,99999,99999,99999,99999,99999,99999,99999,99999
24:53:10,1510499190,2017-11-12T15:06:33,0.765,1148.2,12.87,8.98,15.13,839.090,2062.560,108.633331,29.95,2.5101,355,23775,1.92033,3.96,42599,,,,,,,,,,,,,,,,,,99999,99999,99999,99999,99999,99999,99999,99999,99999,99999,99999,99999
24:53:40,1510499220,2017-11-12T15:07:03,0.771,1148.6,12.89,9.04,15.15,839.180,2062.600,109.166664,30.18,2.5100,355,23773,1.93487,3.96,42604,,,,,,,,,,,,,,,,,,99999,99999,99999,99999,99999,99999,99999,99999,99999,99999,99999,99999
24:54:10,1510499250,2017-11-12T15:07:33,0.772,1149.0,12.89,9.03,15.18,839.130,2062.600,109.183334,30.49,2.5099,355,23776,1.93760,3.96,42608,,,,,,,,,,,,,,,,,,99999,99999,99999,99999,99999,99999,99999,99999,99999,99999,99999,99999
24:54:40,1510499280,2017-11-12T15:08:03,0.766,1149.3,12.90,9.08,15.18,839.160,2062.660,109.333336,29.59,2.5100,355,23773,1.92153,3.96,42613,,,,,,,,,,,,,,,,,,99999,99999,99999,99999,99999,99999,99999,99999,99999,99999,99999,99999
24:55:10,1510499310,2017-11-12T15:08:33,0.767,1149.7,12.90,9.10,15.16,839.130,2062.660,111.166664,29.40,2.5100,355,23776,1.92395,3.96,42617,,,,,,,,,,,,,,,,,,99999,99999,99999,99999,99999,99999,99999,99999,99999,99999,99999,99999
24:55:40,1510499340,2017-11-12T15:09:03,0.765,1150.1,12.90,9.15,15.19,839.160,2062.660,111.050003,29.46,2.5100,355,23779,1.91942,3.96,42622,,,,,,,,,,,,,,,,,,99999,99999,99999,99999,99999,99999,99999,99999,99999,99999,99999,99999
24:56:10,1510499370,2017-11-12T15:09:33,0.767,1150.5,12.90,9.13,15.18,839.080,2062.660,108.016670,28.89,2.5100,355,23778,1.92547,3.96,42626,,,,,,,,,,,,,,,,,,99999,99999,99999,99999,99999,99999,99999,99999,99999,99999,99999,99999
24:56:40,1510499400,2017-11-12T15:10:03,0.771,1150.9,12.90,9.17,15.23,839.080,2062.660,111.216667,28.75,2.5101,355,23778,1.93578,3.96,42631,,,,,,,,,,,,,,,,,,99999,99999,99999,99999,99999,99999,99999,99999,99999,99999,99999,99999
24:57:10,1510499430,2017-11-12T15:10:33,0.764,1151.3,12.90,9.19,15.19,839.160,2062.660,109.166664,28.66,2.5101,355,23780,1.91851,3.96,42635,,,,,,,,,,,,,,,,,,99999,99999,99999,99999,99999,99999,99999,99999,99999,99999,99999,99999
24:57:40,1510499460,2017-11-12T15:11:03,0.768,1151.6,12.91,9.20,15.23,839.070,2062.660,109.949997,30.59,2.5098,355,23780,1.92699,3.96,42640,,,,,,,,,,,,,,,,,,99999,99999,99999,99999,99999,99999,99999,99999,99999,99999,99999,99999
24:58:10,1510499490,2017-11-12T15:11:33,0.769,1152.0,12.91,9.24,15.23,839.210,2062.660,111.633331,30.02,2.5099,355,23781,1.93062,3.96,42644,,,,,,,,,,,,,,,,,,99999,99999,99999,99999,99999,99999,99999,99999,99999,99999,99999,99999
24:58:40,1510499520,2017-11-12T15:12:03,0.768,1152.4,12.91,9.28,15.24,839.100,2062.660,110.283333,29.84,2.5099,355,23782,1.92638,3.96,42649,,,,,,,,,,,,,,,,,,99999,99999,99999,99999,99999,99999,99999,99999,99999,99999,99999,99999
24:59:10,1510499550,2017-11-12T15:12:33,0.770,1152.8,12.93,9.30,15.24,839.150,2062.730,111.699997,30.93,2.5097,355,23786,1.93213,3.96,42654,,,,,,,,,,,,,,,,,,99999,99999,99999,99999,99999,99999,99999,99999,99999,99999,99999,99999
24:59:40,1510499580,2017-11-12T15:13:03,0.766,1153.2,12.95,9.33,15.32,839.090,2062.890,110.583336,31.19,2.5097,355,23784,1.92335,3.96,42658,,,,,,,,,,,,,,,,,,99999,99999,99999,99999,99999,99999,99999,99999,99999,99999,99999,99999
25:00:10,1510499610,2017-11-12T15:13:33,0.767,1153.6,12.98,9.39,15.32,839.090,2062.960,108.966667,30.86,2.5096,355,23785,1.92365,3.96,42663,,,,,,,,,,,,,,,,,,99999,99999,99999,99999,99999,99999,99999,99999,99999,99999,99999,99999
25:00:40,1510499640,2017-11-12T15:14:03,0.766,1153.9,13.00,9.39,15.37,839.080,2063.000,108.983330,30.07,2.5095,355,23789,1.92184,3.96,42668,,,,,,,,,,,,,,,,,,99999,99999,99999,99999,99999,99999,99999,99999,99999,99999,99999,99999
25:01:10,1510499670,2017-11-12T15:14:33,0.770,1154.3,13.02,9.45,15.37,839.050,2063.060,111.083336,30.95,2.5093,355,23787,1.93335,3.96,42672,,,,,,,,,,,,,,,,,,99999,99999,99999,99999,99999,99999,99999,99999,99999,99999,99999,99999
25:01:40,1510499700,2017-11-12T15:15:03,0.769,1154.7,13.06,9.51,15.42,839.100,2063.180,110.616669,29.43,2.5092,355,23790,1.93032,3.96,42677,,,,,,,,,,,,,,,,,,99999,99999,99999,99999,99999,99999,99999,99999,99999,99999,99999,99999
25:02:10,1510499730,2017-11-12T15:15:33,0.767,1155.1,13.09,9.51,15.42,839.140,2063.350,110.566666,28.87,2.5092,355,23791,1.92456,3.96,42682,,,,,,,,,,,,,,,,,,99999,99999,99999,99999,99999,99999,99999,99999,99999,99999,99999,99999
25:02:40,1510499760,2017-11-12T15:16:03,0.766,1155.5,13.11,9.59,15.47,839.220,2063.390,109.766670,28.83,2.5091,355,23794,1.92244,3.96,42686,,,,,,,,,,,,,,,,,,99999,99999,99999,99999,99999,99999,99999,99999,99999,99999,99999,99999
25:03:10,1510499790,2017-11-12T15:16:33,0.768,1155.9,13.14,9.61,15.53,839.080,2063.520,112.150002,29.00,2.5089,355,23789,1.92638,3.96,42691,,,,,,,,,,,,,,,,,,99999,99999,99999,99999,99999,99999,99999,99999,99999,99999,99999,99999
25:03:40,1510499820,2017-11-12T15:17:03,0.773,1156.2,13.17,9.64,15.53,839.130,2063.580,111.816666,28.93,2.5088,355,23795,1.93912,3.96,42696,,,,,,,,,,,,,,,,,,99999,99999,99999,99999,99999,99999,99999,99999,99999,99999,99999,99999
25:04:10,1510499850,2017-11-12T15:17:33,0.770,1156.6,13.20,9.68,15.58,839.070,2063.680,112.000000,28.66,2.5086,355,23795,1.93062,3.96,42700,,,,,,,,,,,,,,,,,,99999,99999,99999,99999,99999,99999,99999,99999,99999,99999,99999,99999
25:04:40,1510499880,2017-11-12T15:18:03,0.771,1157.0,13.24,9.70,15.60,839.140,2063.850,112.150002,29.53,2.5084,355,23796,1.93456,3.96,42705,,,,,,,,,,,,,,,,,,99999,99999,99999,99999,99999,99999,99999,99999,99999,99999,99999,99999
25:05:10,1510499910,2017-11-12T15:18:33,0.773,1157.4,13.26,9.74,15.63,839.100,2063.910,112.650002,28.64,2.5084,355,23797,1.93790,3.96,42710,,,,,,,,,,,,,,,,,,99999,99999,99999,99999,99999,99999,99999,99999,99999,99999,99999,99999
25:05:40,1510499940,2017-11-12T15:19:03,0.771,1157.8,13.29,9.76,15.68,839.050,2064.020,111.400002,28.54,2.5083,355,23797,1.93274,3.96,42715,,,,,,,,,,,,,,,,,,99999,99999,99999,99999,99999,99999,99999,99999,99999,99999,99999,99999
25:06:10,1510499970,2017-11-12T15:19:33,0.766,1158.2,13.32,9.76,15.69,839.120,2064.080,111.133331,28.32,2.5081,355,23801,1.92153,3.96,42719,,,,,,,,,,,,,,,,,,99999,99999,99999,99999,99999,99999,99999,99999,99999,99999,99999,99999
25:06:40,1510500000,2017-11-12T15:20:03,0.773,1158.6,13.35,9.81,15.73,839.090,2064.250,111.633331,28.27,2.5080,355,23799,1.93942,3.96,42724,,,,,,,,,,,,,,,,,,99999,99999,99999,99999,99999,99999,99999,99999,99999,99999,99999,99999
25:07:10,1510500030,2017-11-12T15:20:33,0.767,1158.9,13.38,9.80,15.74,839.080,2064.380,109.733330,28.97,2.5079,355,23799,1.92456,3.96,42729,,,,,,,,,,,,,,,,,,99999,99999,99999,99999,99999,99999,99999,99999,99999,99999,99999,99999
25:07:40,1510500060,2017-11-12T15:21:03,0.769,1159.3,13.40,9.83,15.76,839.050,2064.410,112.300003,28.78,2.5077,355,23800,1.92941,3.96,42734,,,,,,,,,,,,,,,,,,99999,99999,99999,99999,99999,99999,99999,99999,99999,99999,99999,99999
25:08:10,1510500090,2017-11-12T15:21:33,0.774,1159.7,13.43,9.84,15.79,839.040,2064.480,111.966667,29.57,2.5075,355,23801,1.94003,3.96,42738,,,,,,,,,,,,,,,,,,99999,99999,99999,99999,99999,99999,99999,99999,99999,99999,99999,99999
25:08:40,1510500120,2017-11-12T15:22:03,0.769,1160.1,13.47,9.88,15.82,839.140,2064.600,110.500000,29.15,2.5073,355,23803,1.92880,3.96,42743,,,,,,,,,,,,,,,,,,99999,99999,99999,99999,99999,99999,99999,99999,99999,99999,99999,99999
25:09:10,1510500150,2017-11-12T15:22:33,0.774,1160.5,13.49,9.89,15.82,839.080,2064.710,112.016670,29.10,2.5073,355,23802,1.94064,3.96,42748,,,,,,,,,,,,,,,,,,99999,99999,99999,99999,99999,99999,99999,99999,99999,99999,99999,99999
25:09:40,1510500180,2017-11-12T15:23:03,0.770,1160.9,13.54,9.91,15.85,839.070,2064.880,110.733330,29.57,2.5070,355,23807,1.93123,3.96,42753,,,,,,,,,,,,,,,,,,99999,99999,99999,99999,99999,99999,99999,99999,99999,99999,99999,99999
25:10:10,1510500210,2017-11-12T15:23:33,0.768,1161.3,13.58,9.96,15.91,839.060,2065.000,109.883331,28.55,2.5069,355,23803,1.92486,3.97,42758,,,,,,,,,,,,,,,,,,99999,99999,99999,99999,99999,99999,99999,99999,99999,99999,99999,99999
25:10:40,1510500240,2017-11-12T15:24:03,0.769,1161.6,13.62,9.96,15.97,839.080,2065.170,110.466667,29.78,2.5066,355,23803,1.92850,3.97,42763,,,,,,,,,,,,,,,,,,99999,99999,99999,99999,99999,99999,99999,99999,99999,99999,99999,99999
25:11:10,1510500270,2017-11-12T15:24:33,0.773,1162.0,13.66,10.01,15.98,839.070,2065.270,114.016670,29.14,2.5064,355,23805,1.93669,3.96,42768,,,,,,,,,,,,,,,,,,99999,99999,99999,99999,99999,99999,99999,99999,99999,99999,99999,99999
25:11:40,1510500300,2017-11-12T15:25:03,0.775,1162.4,13.71,10.05,16.01,839.190,2065.440,111.550003,28.48,2.5063,355,23807,1.94125,3.96,42772,,,,,,,,,,,,,,,,,,99999,99999,99999,99999,99999,99999,99999,99999,99999,99999,99999,99999
25:12:10,1510500330,2017-11-12T15:25:33,0.770,1162.8,13.76,10.06,16.06,839.180,2065.670,112.266670,29.05,2.5060,355,23809,1.93062,3.96,42777,,,,,,,,,,,,,,,,,,99999,99999,99999,99999,99999,99999,99999,99999,99999,99999,99999,99999
25:12:40,1510500360,2017-11-12T15:26:03,0.770,1163.2,13.80,10.11,16.11,839.040,2065.790,112.583336,28.27,2.5059,355,23809,1.93001,3.96,42782,,,,,,,,,,,,,,,,,,99999,99999,99999,99999,99999,99999,99999,99999,99999,99999,99999,99999
25:13:10,1510500390,2017-11-12T15:26:33,0.770,1163.6,13.84,10.14,16.17,839.140,2065.900,111.833336,28.21,2.5057,355,23811,1.92941,3.96,42786,,,,,,,,,,,,,,,,,,99999,99999,99999,99999,99999,99999,99999,99999,99999,99999,99999,99999
25:13:40,1510500420,2017-11-12T15:27:03,0.774,1164.0,13.88,10.16,16.20,839.100,2066.070,111.466667,28.14,2.5055,355,23810,1.93882,3.96,42791,,,,,,,,,,,,,,,,,,99999,99999,99999,99999,99999,99999,99999,99999,99999,99999,99999,99999
25:14:10,1510500450,2017-11-12T15:27:33,0.777,1164.3,13.92,10.17,16.25,839.070,2066.190,112.616669,28.47,2.5053,355,23810,1.94551,3.96,42796,,,,,,,,,,,,,,,,,,99999,99999,99999,99999,99999,99999,99999,99999,99999,99999,99999,99999
25:14:40,1510500480,2017-11-12T15:28:03,0.770,1164.7,13.97,10.20,16.27,839.190,2066.350,112.233330,29.05,2.5050,355,23810,1.92941,3.96,42800,,,,,,,,,,,,,,,,,,99999,99999,99999,99999,99999,99999,99999,99999,99999,99999,99999,99999
25:15:10,1510500510,2017-11-12T15:28:33,0.774,1165.1,13.99,10.24,16.37,839.080,2066.420,114.349998,29.10,2.5049,355,23813,1.93821,3.97,42805,,,,,,,,,,,,,,,,,,99999,99999,99999,99999,99999,99999,99999,99999,99999,99999,99999,99999
25:15:40,1510500540,2017-11-12T15:29:03,0.771,1165.5,14.02,10.28,16.39,839.080,2066.580,111.949997,28.56,2.5049,355,23816,1.93123,3.96,42810,,,,,,,,,,,,,,,,,,99999,99999,99999,99999,99999,99999,99999,99999,99999,99999,99999,99999
25:16:10,1510500570,2017-11-12T15:29:33,0.772,1165.9,14.05,10.30,16.40,839.060,2066.650,111.133331,28.16,2.5047,355,23816,1.93274,3.96,42815,,,,,,,,,,,,,,,,,,99999,99999,99999,99999,99999,99999,99999,99999,99999,99999,99999,99999
25:16:40,1510500600,2017-11-12T15:30:03,0.775,1166.3,14.07,10.33,16.42,839.090,2066.690,112.616669,27.94,2.5046,355,23815,1.94186,3.96,42819,,,,,,,,,,,,,,,,,,99999,99999,99999,99999,99999,99999,99999,99999,99999,99999,99999,99999
25:17:10,1510500630,2017-11-12T15:30:33,0.773,1166.7,14.09,10.35,16.48,839.030,2066.750,113.949997,27.73,2.5045,355,23814,1.93487,3.96,42824,,,,,,,,,,,,,,,,,,99999,99999,99999,99999,99999,99999,99999,99999,99999,99999,99999,99999
25:17:40,1510500660,2017-11-12T15:31:03,0.770,1167.0,14.11,10.38,16.50,839.080,2066.820,111.466667,28.24,2.5044,355,23819,1.92941,3.96,42828,,,,,,,,,,,,,,,,,,99999,99999,99999,99999,99999,99999,99999,99999,99999,99999,99999,99999
25:18:10,1510500690,2017-11-12T15:31:33,0.777,1167.4,14.12,10.43,16.51,839.050,2066.860,114.283333,28.82,2.5043,355,23820,1.94490,3.97,42833,,,,,,,,,,,,,,,,,,99999,99999,99999,99999,99999,99999,99999,99999,99999,99999,99999,99999
25:18:40,1510500720,2017-11-12T15:32:03,0.775,1167.8,14.14,10.46,16.50,838.910,2066.980,111.633331,27.66,2.5044,355,23822,1.94003,3.97,42838,,,,,,,,,,,,,,,,,,99999,99999,99999,99999,99999,99999,99999,99999,99999,99999,99999,99999
25:19:10,1510500750,2017-11-12T15:32:33,0.777,1168.2,14.16,10.48,16.59,838.990,2067.050,113.466667,28.28,2.5042,355,23823,1.94703,3.97,42843,,,,,,,,,,,,,,,,,,99999,99999,99999,99999,99999,99999,99999,99999,99999,99999,99999,99999
25:19:40,1510500780,2017-11-12T15:33:03,0.773,1168.6,14.18,10.51,16.56,839.090,2067.090,111.500000,26.74,2.5042,355,23825,1.93638,3.96,42847,,,,,,,,,,,,,,,,,,99999,99999,99999,99999,99999,99999,99999,99999,99999,99999,99999,99999
25:20:10,1510500810,2017-11-12T15:33:33,0.773,1169.0,14.21,10.54,16.61,839.000,2067.210,110.866669,26.96,2.5041,355,23822,1.93487,3.97,42852,,,,,,,,,,,,,,,,,,99999,99999,99999,99999,99999,99999,99999,99999,99999,99999,99999,99999
25:20:40,1510500840,2017-11-12T15:34:03,0.772,1169.4,14.23,10.61,16.63,839.050,2067.270,112.250000,28.87,2.5038,355,23823,1.93183,3.97,42857,,,,,,,,,,,,,,,,,,99999,99999,99999,99999,99999,99999,99999,99999,99999,99999,99999,99999
25:21:10,1510500870,2017-11-12T15:34:33,0.778,1169.8,14.27,10.62,16.64,839.100,2067.440,113.966667,27.54,2.5038,355,23825,1.94733,3.97,42862,,,,,,,,,,,,,,,,,,99999,99999,99999,99999,99999,99999,99999,99999,99999,99999,99999,99999
25:21:40,1510500900,2017-11-12T15:35:03,0.777,1170.1,14.28,10.67,16.69,839.050,2067.480,114.183334,27.36,2.5038,355,23825,1.94581,3.97,42866,,,,,,,,,,,,,,,,,,99999,99999,99999,99999,99999,99999,99999,99999,99999,99999,99999,99999
25:22:10,1510500930,2017-11-12T15:35:33,0.776,1170.5,14.31,10.72,16.74,839.040,2067.550,114.033333,26.63,2.5036,355,23827,1.94338,3.97,42871,,,,,,,,,,,,,,,,,,99999,99999,99999,99999,99999,99999,99999,99999,99999,99999,99999,99999
25:22:40,1510500960,2017-11-12T15:36:03,0.779,1170.9,14.35,10.77,16.75,839.130,2067.670,113.066666,27.48,2.5034,355,23833,1.94977,3.97,42876,,,,,,,,,,,,,,,,,,99999,99999,99999,99999,99999,99999,99999,99999,99999,99999,99999,99999
25:23:10,1510500990,2017-11-12T15:36:33,0.778,1171.3,14.38,10.82,16.77,839.050,2067.840,113.333336,27.50,2.5033,355,23833,1.94855,3.97,42881,,,,,,,,,,,,,,,,,,99999,99999,99999,99999,99999,99999,99999,99999,99999,99999,99999,99999
25:23:40,1510501020,2017-11-12T15:37:03,0.773,1171.7,14.42,10.86,16.83,838.990,2067.940,111.349998,26.51,2.5031,355,23835,1.93487,3.97,42885,,,,,,,,,,,,,,,,,,99999,99999,99999,99999,99999,99999,99999,99999,99999,99999,99999,99999
25:24:10,1510501050,2017-11-12T15:37:33,0.775,1172.1,14.45,10.92,16.87,838.960,2068.070,111.233330,26.82,2.5030,355,23834,1.94033,3.97,42890,,,,,,,,,,,,,,,,,,99999,99999,99999,99999,99999,99999,99999,99999,99999,99999,99999,99999
25:24:40,1510501080,2017-11-12T15:38:03,0.774,1172.5,14.50,10.97,16.95,838.910,2068.170,112.216667,26.43,2.5027,355,23836,1.93760,3.96,42895,,,,,,,,,,,,,,,,,,99999,99999,99999,99999,99999,99999,99999,99999,99999,99999,99999,99999
25:25:10,1510501110,2017-11-12T15:38:33,0.778,1172.9,14.52,10.98,16.97,838.940,2068.300,112.083336,26.96,2.5027,355,23839,1.94825,3.97,42899,,,,,,,,,,,,,,,,,,99999,99999,99999,99999,99999,99999,99999,99999,99999,99999,99999,99999
25:25:40,1510501140,2017-11-12T15:39:03,0.774,1173.2,14.58,11.01,17.03,838.870,2068.470,112.433334,27.80,2.5023,355,23835,1.93730,3.97,42903,,,,,,,,,,,,,,,,,,99999,99999,99999,99999,99999,99999,99999,99999,99999,99999,99999,99999
25:26:10,1510501170,2017-11-12T15:39:33,0.774,1173.6,14.62,11.06,17.08,838.970,2068.630,112.466667,26.30,2.5022,355,23839,1.93638,3.97,42908,,,,,,,,,,,,,,,,,,99999,99999,99999,99999,99999,99999,99999,99999,99999,99999,99999,99999
25:26:40,1510501200,2017-11-12T15:40:03,0.779,1174.0,14.65,11.12,17.09,838.880,2068.760,113.433334,26.15,2.5021,355,23842,1.94947,3.97,42914,,,,,,,,,,,,,,,,,,99999,99999,99999,99999,99999,99999,99999,99999,99999,99999,99999,99999
25:27:10,1510501230,2017-11-12T15:40:33,0.774,1174.4,14.68,11.16,17.17,838.930,2068.860,112.849998,25.99,2.5020,355,23843,1.93669,3.97,42919,,,,,,,,,,,,,,,,,,99999,99999,99999,99999,99999,99999,99999,99999,99999,99999,99999,99999
25:27:40,1510501260,2017-11-12T15:41:03,0.778,1174.8,14.71,11.19,17.22,838.820,2068.920,113.349998,27.62,2.5017,355,23844,1.94581,3.97,42924,,,,,,,,,,,,,,,,,,99999,99999,99999,99999,99999,99999,99999,99999,99999,99999,99999,99999
25:28:10,1510501290,2017-11-12T15:41:33,0.777,1175.2,14.75,11.25,17.19,838.990,2069.090,114.283333,26.89,2.5016,355,23844,1.94277,3.97,42929,,,,,,,,,,,,,,,,,,99999,99999,99999,99999,99999,99999,99999,99999,99999,99999,99999,99999
25:28:40,1510501320,2017-11-12T15:42:03,0.781,1175.6,14.78,11.29,17.28,838.930,2069.190,113.983330,27.22,2.5014,355,23847,1.95404,3.97,42934,,,,,,,,,,,,,,,,,,99999,99999,99999,99999,99999,99999,99999,99999,99999,99999,99999,99999
25:29:10,1510501350,2017-11-12T15:42:33,0.778,1176.0,14.81,11.36,17.28,838.950,2069.320,112.366669,26.53,2.5014,355,23850,1.94520,3.97,42939,,,,,,,,,,,,,,,,,,99999,99999,99999,99999,99999,99999,99999,99999,99999,99999,99999,99999
25:29:40,1510501380,2017-11-12T15:43:03,0.778,1176.4,14.84,11.38,17.33,838.970,2069.380,112.616669,26.81,2.5012,355,23850,1.94551,3.97,42945,,,,,,,,,,,,,,,,,,99999,99999,99999,99999,99999,99999,99999,99999,99999,99999,99999,99999
25:30:10,1510501410,2017-11-12T15:43:33,0.777,1176.7,14.88,11.44,17.35,838.910,2069.490,113.099998,27.05,2.5009,355,23851,1.94429,3.97,42950,,,,,,,,,,,,,,,,,,99999,99999,99999,99999,99999,99999,99999,99999,99999,99999,99999,99999
25:30:40,1510501440,2017-11-12T15:44:03,0.779,1177.1,14.90,11.47,17.42,838.880,2069.650,114.433334,26.69,2.5010,355,23851,1.94855,3.97,42955,,,,,,,,,,,,,,,,,,99999,99999,99999,99999,99999,99999,99999,99999,99999,99999,99999,99999
25:31:10,1510501470,2017-11-12T15:44:33,0.780,1177.5,14.95,11.53,17.47,838.870,2069.780,114.199997,27.05,2.5007,355,23853,1.95099,3.97,42960,,,,,,,,,,,,,,,,,,99999,99999,99999,99999,99999,99999,99999,99999,99999,99999,99999,99999
25:31:40,1510501500,2017-11-12T15:45:03,0.778,1177.9,14.99,11.58,17.48,838.860,2069.890,112.800003,26.49,2.5005,355,23855,1.94612,3.97,42965,,,,,,,,,,,,,,,,,,99999,99999,99999,99999,99999,99999,99999,99999,99999,99999,99999,99999
25:32:10,1510501530,2017-11-12T15:45:33,0.780,1178.3,15.02,11.60,17.55,838.940,2070.010,114.166664,27.40,2.5003,355,23856,1.95130,3.97,42970,,,,,,,,,,,,,,,,,,99999,99999,99999,99999,99999,99999,99999,99999,99999,99999,99999,99999
25:32:40,1510501560,2017-11-12T15:46:03,0.780,1178.7,15.06,11.66,17.59,838.900,2070.170,114.250000,26.86,2.5002,355,23855,1.94916,3.97,42975,,,,,,,,,,,,,,,,,,99999,99999,99999,99999,99999,99999,99999,99999,99999,99999,99999,99999
25:33:10,1510501590,2017-11-12T15:46:33,0.782,1179.1,15.10,11.68,17.61,838.810,2070.280,116.316666,27.41,2.4999,355,23858,1.95496,3.97,42980,,,,,,,,,,,,,,,,,,99999,99999,99999,99999,99999,99999,99999,99999,99999,99999,99999,99999
25:33:40,1510501620,2017-11-12T15:47:03,0.783,1179.5,15.12,11.73,17.64,838.940,2070.340,115.383331,25.89,2.4999,355,23859,1.95679,3.97,42985,,,,,,,,,,,,,,,,,,99999,99999,99999,99999,99999,99999,99999,99999,99999,99999,99999,99999
25:34:10,1510501650,2017-11-12T15:47:33,0.784,1179.9,15.15,11.76,17.67,838.880,2070.440,114.483330,26.06,2.4998,355,23860,1.95954,3.97,42990,,,,,,,,,,,,,,,,,,99999,99999,99999,99999,99999,99999,99999,99999,99999,99999,99999,99999
25:34:40,1510501680,2017-11-12T15:48:03,0.783,1180.3,15.18,11.79,17.70,838.930,2070.570,114.199997,26.02,2.4997,355,23868,1.95679,3.97,42995,,,,,,,,,,,,,,,,,,99999,99999,99999,99999,99999,99999,99999,99999,99999,99999,99999,99999
25:35:10,1510501710,2017-11-12T15:48:33,0.782,1180.6,15.22,11.80,17.74,839.000,2070.740,112.599998,25.94,2.4995,355,23866,1.95587,3.97,43000,,,,,,,,,,,,,,,,,,99999,99999,99999,99999,99999,99999,99999,99999,99999,99999,99999,99999
25:35:40,1510501740,2017-11-12T15:49:03,0.783,1181.0,15.22,11.82,17.78,838.890,2070.740,116.166664,26.99,2.4994,355,23862,1.95618,3.97,43005,,,,,,,,,,,,,,,,,,99999,99999,99999,99999,99999,99999,99999,99999,99999,99999,99999,99999
25:36:10,1510501770,2017-11-12T15:49:33,0.782,1181.4,15.24,11.87,17.75,838.940,2070.800,116.266670,27.20,2.4993,355,23862,1.95404,3.97,43011,,,,,,,,,,,,,,,,,,99999,99999,99999,99999,99999,99999,99999,99999,99999,99999,99999,99999
25:36:40,1510501800,2017-11-12T15:50:03,0.780,1181.8,15.27,11.88,17.82,838.910,2070.860,115.250000,26.73,2.4992,355,23865,1.95038,3.97,43016,,,,,,,,,,,,,,,,,,99999,99999,99999,99999,99999,99999,99999,99999,99999,99999,99999,99999
25:37:10,1510501830,2017-11-12T15:50:33,0.783,1182.2,15.29,11.91,17.82,838.850,2070.910,115.050003,25.81,2.4991,355,23866,1.95648,3.97,43021,,,,,,,,,,,,,,,,,,99999,99999,99999,99999,99999,99999,99999,99999,99999,99999,99999,99999
25:37:40,1510501860,2017-11-12T15:51:03,0.781,1182.6,15.32,11.94,17.86,838.920,2071.090,113.400002,26.06,2.4991,355,23871,1.95221,3.97,43026,,,,,,,,,,,,,,,,,,99999,99999,99999,99999,99999,99999,99999,99999,99999,99999,99999,99999
25:38:10,1510501890,2017-11-12T15:51:33,0.784,1183.0,15.34,12.00,17.89,838.890,2071.140,114.766670,26.97,2.4989,355,23870,1.95832,3.97,43031,,,,,,,,,,,,,,,,,,99999,99999,99999,99999,99999,99999,99999,99999,99999,99999,99999,99999
25:38:40,1510501920,2017-11-12T15:52:03,0.782,1183.4,15.37,12.03,17.89,838.860,2071.200,114.333336,25.96,2.4988,355,23871,1.95282,3.97,43036,,,,,,,,,,,,,,,,,,99999,99999,99999,99999,99999,99999,99999,99999,99999,99999,99999,99999
25:39:10,1510501950,2017-11-12T15:52:33,0.778,1183.8,15.40,12.07,17.93,838.910,2071.320,114.250000,26.79,2.4986,355,23873,1.94398,3.97,43041,,,,,,,,,,,,,,,,,,99999,99999,99999,99999,99999,99999,99999,99999,99999,99999,99999,99999
25:39:40,1510501980,2017-11-12T15:53:03,0.778,1184.2,15.44,12.13,18.00,838.820,2071.490,114.483330,25.66,2.4985,355,23872,1.94459,3.97,43046,,,,,,,,,,,,,,,,,,99999,99999,99999,99999,99999,99999,99999,99999,99999,99999,99999,99999
25:40:10,1510502010,2017-11-12T15:53:33,0.780,1184.5,15.48,12.16,18.05,838.890,2071.590,115.183334,26.07,2.4983,355,23873,1.94825,3.97,43051,,,,,,,,,,,,,,,,,,99999,99999,99999,99999,99999,99999,99999,99999,99999,99999,99999,99999
25:40:40,1510502040,2017-11-12T15:54:03,0.780,1184.9,15.54,12.21,18.08,838.850,2071.830,115.066666,25.87,2.4980,355,23877,1.94794,3.97,43056,,,,,,,,,,,,,,,,,,99999,99999,99999,99999,99999,99999,99999,99999,99999,99999,99999,99999
25:41:10,1510502070,2017-11-12T15:54:33,0.781,1185.3,15.62,12.25,18.09,838.800,2072.110,113.816666,25.86,2.4977,355,23879,1.95130,3.97,43061,,,,,,,,,,,,,,,,,,99999,99999,99999,99999,99999,99999,99999,99999,99999,99999,99999,99999
25:41:40,1510502100,2017-11-12T15:55:03,0.786,1185.7,15.67,12.30,18.19,838.790,2072.220,116.050003,25.73,2.4974,355,23879,1.96351,3.97,43066,,,,,,,,,,,,,,,,,,99999,99999,99999,99999,99999,99999,99999,99999,99999,99999,99999,99999
25:42:10,1510502130,2017-11-12T15:55:33,0.784,1186.1,15.75,12.35,18.24,838.930,2072.580,114.849998,26.04,2.4971,355,23883,1.95862,3.97,43071,,,,,,,,,,,,,,,,,,99999,99999,99999,99999,99999,99999,99999,99999,99999,99999,99999,99999
25:42:40,1510502160,2017-11-12T15:56:03,0.781,1186.5,15.81,12.40,18.33,838.840,2072.740,114.816666,25.42,2.4968,355,23884,1.94916,3.97,43076,,,,,,,,,,,,,,,,,,99999,99999,99999,99999,99999,99999,99999,99999,99999,99999,99999,99999
25:43:10,1510502190,2017-11-12T15:56:33,0.781,1186.9,15.88,12.41,18.40,838.850,2073.030,115.016670,25.26,2.4965,355,23885,1.94947,3.97,43081,,,,,,,,,,,,,,,,,,99999,99999,99999,99999,99999,99999,99999,99999,99999,99999,99999,99999
25:43:40,1510502220,2017-11-12T15:57:03,0.786,1187.3,15.95,12.46,18.47,838.810,2073.200,116.033333,25.84,2.4961,355,23882,1.96168,3.97,43086,,,,,,,,,,,,,,,,,,99999,99999,99999,99999,99999,99999,99999,99999,99999,99999,99999,99999
25:44:10,1510502250,2017-11-12T15:57:33,0.784,1187.7,16.04,12.52,18.51,838.820,2073.530,115.633331,25.08,2.4958,355,23885,1.95557,3.97,43091,,,,,,,,,,,,,,,,,,99999,99999,99999,99999,99999,99999,99999,99999,99999,99999,99999,99999
25:44:40,1510502280,2017-11-12T15:58:03,0.783,1188.1,16.11,12.58,18.61,838.800,2073.830,115.133331,25.80,2.4954,355,23890,1.95282,3.97,43096,,,,,,,,,,,,,,,,,,99999,99999,99999,99999,99999,99999,99999,99999,99999,99999,99999,99999
25:45:10,1510502310,2017-11-12T15:58:33,0.783,1188.5,16.19,12.62,18.67,838.760,2074.060,115.050003,24.66,2.4951,355,23888,1.95343,3.97,43102,,,,,,,,,,,,,,,,,,99999,99999,99999,99999,99999,99999,99999,99999,99999,99999,99999,99999
25:45:40,1510502340,2017-11-12T15:59:03,0.784,1188.9,16.28,12.68,18.75,838.900,2074.410,115.383331,24.47,2.4948,355,23889,1.95496,3.97,43107,,,,,,,,,,,,,,,,,,99999,99999,99999,99999,99999,99999,99999,99999,99999,99999,99999,99999
25:46:10,1510502370,2017-11-12T15:59:33,0.789,1189.3,16.36,12.72,18.83,838.910,2074.680,117.466667,24.55,2.4944,355,23891,1.96903,3.97,43112,,,,,,,,,,,,,,,,,,99999,99999,99999,99999,99999,99999,99999,99999,99999,99999,99999,99999
25:46:40,1510502400,2017-11-12T16:00:03,0.790,1189.6,16.44,12.77,18.93,838.810,2074.920,117.250000,24.74,2.4940,355,23891,1.97087,3.97,43117,,,,,,,,,,,,,,,,,,99999,99999,99999,99999,99999,99999,99999,99999,99999,99999,99999,99999
25:47:10,1510502430,2017-11-12T16:00:33,0.789,1190.0,16.52,12.81,18.98,838.930,2075.200,117.000000,25.18,2.4936,355,23887,1.96627,3.97,43122,,,,,,,,,,,,,,,,,,99999,99999,99999,99999,99999,99999,99999,99999,99999,99999,99999,99999
25:47:40,1510502460,2017-11-12T16:01:03,0.784,1190.4,16.60,12.88,19.08,838.880,2075.500,116.033333,25.57,2.4932,355,23897,1.95557,3.97,43127,,,,,,,,,,,,,,,,,,99999,99999,99999,99999,99999,99999,99999,99999,99999,99999,99999,99999
25:48:10,1510502490,2017-11-12T16:01:33,0.786,1190.8,16.68,12.94,19.13,838.790,2075.790,116.366669,25.33,2.4929,355,23900,1.95862,3.97,43132,,,,,,,,,,,,,,,,,,99999,99999,99999,99999,99999,99999,99999,99999,99999,99999,99999,99999
25:48:40,1510502520,2017-11-12T16:02:03,0.790,1191.2,16.76,13.01,19.25,838.820,2076.060,117.216667,25.68,2.4925,355,23904,1.96872,3.97,43137,,,,,,,,,,,,,,,,,,99999,99999,99999,99999,99999,99999,99999,99999,99999,99999,99999,99999
25:49:10,1510502550,2017-11-12T16:02:33,0.792,1191.6,16.85,13.09,19.35,838.750,2076.350,118.633331,24.28,2.4921,355,23901,1.97270,3.97,43142,,,,,,,,,,,,,,,,,,99999,99999,99999,99999,99999,99999,99999,99999,99999,99999,99999,99999
25:49:40,1510502580,2017-11-12T16:03:03,0.790,1192.0,16.94,13.12,19.43,838.840,2076.710,118.533333,23.91,2.4918,355,23897,1.96872,3.97,43147,,,,,,,,,,,,,,,,,,99999,99999,99999,99999,99999,99999,99999,99999,99999,99999,99999,99999
25:50:10,1510502610,2017-11-12T16:03:33,0.790,1192.4,17.03,13.17,19.51,838.840,2076.980,116.800003,25.19,2.4912,355,23905,1.96780,3.97,43152,,,,,,,,,,,,,,,,,,99999,99999,99999,99999,99999,99999,99999,99999,99999,99999,99999,99999
25:50:40,1510502640,2017-11-12T16:04:03,0.793,1192.8,17.09,13.23,19.59,838.780,2077.210,118.216667,24.85,2.4910,355,23906,1.97578,3.97,43156,,,,,,,,,,,,,,,,,,99999,99999,99999,99999,99999,99999,99999,99999,99999,99999,99999,99999
25:51:10,1510502670,2017-11-12T16:04:33,0.789,1193.2,17.17,13.28,19.67,838.740,2077.500,116.683334,24.04,2.4907,355,23909,1.96443,3.97,43161,,,,,,,,,,,,,,,,,,99999,99999,99999,99999,99999,99999,99999,99999,99999,99999,99999,99999
25:51:40,1510502700,2017-11-12T16:05:03,0.789,1193.6,17.24,13.32,19.74,838.800,2077.730,117.866669,23.98,2.4904,355,23905,1.96474,3.97,43166,,,,,,,,,,,,,,,,,,99999,99999,99999,99999,99999,99999,99999,99999,99999,99999,99999,99999
25:52:10,1510502730,2017-11-12T16:05:33,0.791,1194.0,17.30,13.37,19.78,838.760,2077.900,117.466667,23.23,2.4902,355,23903,1.96933,3.97,43171,,,,,,,,,,,,,,,,,,99999,99999,99999,99999,99999,99999,99999,99999,99999,99999,99999,99999
25:52:40,1510502760,2017-11-12T16:06:03,0.793,1194.4,17.36,13.43,19.86,838.750,2078.130,120.699997,23.48,2.4899,355,23907,1.97485,3.97,43176,,,,,,,,,,,,,,,,,,99999,99999,99999,99999,99999,99999,99999,99999,99999,99999,99999,99999
25:53:10,1510502790,2017-11-12T16:06:33,0.794,1194.8,17.44,13.46,19.94,838.860,2078.420,119.449997,23.67,2.4895,355,23911,1.97731,3.97,43181,,,,,,,,,,,,,,,,,,99999,99999,99999,99999,99999,99999,99999,99999,99999,99999,99999,99999
25:53:40,1510502820,2017-11-12T16:07:03,0.795,1195.2,17.50,13.52,19.98,838.850,2078.590,117.050003,22.69,2.4893,355,23914,1.97823,3.97,43186,,,,,,,,,,,,,,,,,,99999,99999,99999,99999,99999,99999,99999,99999,99999,99999,99999,99999
25:54:10,1510502850,2017-11-12T16:07:33,0.796,1195.6,17.56,13.57,20.06,838.860,2078.820,118.650002,23.51,2.4890,355,23917,1.98007,3.97,43191,,,,,,,,,,,,,,,,,,99999,99999,99999,99999,99999,99999,99999,99999,99999,99999,99999,99999
25:54:40,1510502880,2017-11-12T16:08:03,0.795,1196.0,17.62,13.62,20.14,838.930,2079.040,119.416664,23.00,2.4888,355,23916,1.97946,3.97,43196,,,,,,,,,,,,,,,,,,99999,99999,99999,99999,99999,99999,99999,99999,99999,99999,99999,99999
25:55:10,1510502910,2017-11-12T16:08:33,0.791,1196.4,17.67,13.67,20.10,838.810,2079.170,117.733330,22.58,2.4885,355,23920,1.96810,3.97,43201,,,,,,,,,,,,,,,,,,99999,99999,99999,99999,99999,99999,99999,99999,99999,99999,99999,99999
25:55:40,1510502940,2017-11-12T16:09:03,0.796,1196.8,17.72,13.71,20.22,838.800,2079.340,118.966667,22.46,2.4883,355,23920,1.98038,3.97,43206,,,,,,,,,,,,,,,,,,99999,99999,99999,99999,99999,99999,99999,99999,99999,99999,99999,99999
25:56:10,1510502970,2017-11-12T16:09:33,0.795,1197.2,17.74,13.77,20.28,838.720,2079.460,119.599998,22.61,2.4883,355,23920,1.97915,3.97,43211,,,,,,,,,,,,,,,,,,99999,99999,99999,99999,99999,99999,99999,99999,99999,99999,99999,99999
25:56:40,1510503000,2017-11-12T16:10:03,0.792,1197.6,17.78,13.80,20.30,838.790,2079.570,117.483330,23.71,2.4879,355,23924,1.97117,3.97,43216,,,,,,,,,,,,,,,,,,99999,99999,99999,99999,99999,99999,99999,99999,99999,99999,99999,99999
25:57:10,1510503030,2017-11-12T16:10:33,0.795,1198.0,17.82,13.84,20.35,838.810,2079.760,118.550003,24.02,2.4878,355,23925,1.97823,3.97,43221,,,,,,,,,,,,,,,,,,99999,99999,99999,99999,99999,99999,99999,99999,99999,99999,99999,99999
25:57:40,1510503060,2017-11-12T16:11:03,0.796,1198.4,17.86,13.88,20.42,838.720,2079.860,120.283333,23.79,2.4876,355,23926,1.98069,3.97,43226,,,,,,,,,,,,,,,,,,99999,99999,99999,99999,99999,99999,99999,99999,99999,99999,99999,99999
25:58:10,1510503090,2017-11-12T16:11:33,0.796,1198.7,17.89,13.91,20.43,838.740,2079.990,118.916664,23.67,2.4875,355,23929,1.98069,3.97,43231,,,,,,,,,,,,,,,,,,99999,99999,99999,99999,99999,99999,99999,99999,99999,99999,99999,99999
25:58:40,1510503120,2017-11-12T16:12:03,0.795,1199.1,17.93,13.97,20.46,838.730,2080.160,118.016670,23.73,2.4874,355,23932,1.97669,3.98,43236,,,,,,,,,,,,,,,,,,99999,99999,99999,99999,99999,99999,99999,99999,99999,99999,99999,99999
25:59:10,1510503150,2017-11-12T16:12:33,0.795,1199.5,17.94,14.00,20.50,838.730,2080.160,119.333336,23.10,2.4873,355,23931,1.97761,3.98,43240,,,,,,,,,,,,,,,,,,99999,99999,99999,99999,99999,99999,99999,99999,99999,99999,99999,99999
25:59:40,1510503180,2017-11-12T16:13:03,0.796,1199.9,17.97,14.04,20.54,838.750,2080.260,119.816666,22.08,2.4873,355,23929,1.97977,3.98,43245,,,,,,,,,,,,,,,,,,99999,99999,99999,99999,99999,99999,99999,99999,99999,99999,99999,99999
26:00:10,1510503210,2017-11-12T16:13:33,0.796,1200.3,17.98,14.07,20.56,838.720,2080.320,118.516670,22.38,2.4872,355,23931,1.97915,3.97,43250,,,,,,,,,,,,,,,,,,99999,99999,99999,99999,99999,99999,99999,99999,99999,99999,99999,99999
26:00:40,1510503240,2017-11-12T16:14:03,0.797,1200.7,18.02,14.12,20.56,838.680,2080.450,120.150002,22.88,2.4870,355,23931,1.98223,3.98,43255,,,,,,,,,,,,,,,,,,99999,99999,99999,99999,99999,99999,99999,99999,99999,99999,99999,99999
26:01:10,1510503270,2017-11-12T16:14:33,0.792,1201.1,18.04,14.15,20.59,838.620,2080.510,118.599998,22.59,2.4869,355,23934,1.96994,3.98,43260,,,,,,,,,,,,,,,,,,99999,99999,99999,99999,99999,99999,99999,99999,99999,99999,99999,99999
26:01:40,1510503300,2017-11-12T16:15:03,0.797,1201.5,18.07,14.19,20.66,838.700,2080.610,118.566666,22.15,2.4868,355,23933,1.98100,3.98,43265,,,,,,,,,,,,,,,,,,99999,99999,99999,99999,99999,99999,99999,99999,99999,99999,99999,99999
26:02:10,1510503330,2017-11-12T16:15:33,0.797,1201.9,18.09,14.23,20.66,838.750,2080.680,119.150002,22.23,2.4867,355,23937,1.98069,3.98,43270,,,,,,,,,,,,,,,,,,99999,99999,99999,99999,99999,99999,99999,99999,99999,99999,99999,99999
26:02:40,1510503360,2017-11-12T16:16:03,0.794,1202.3,18.12,14.27,20.70,838.660,2080.780,119.250000,22.96,2.4865,355,23938,1.97547,3.97,43275,,,,,,,,,,,,,,,,,,99999,99999,99999,99999,99999,99999,99999,99999,99999,99999,99999,99999
26:03:10,1510503390,2017-11-12T16:16:33,0.798,1202.7,18.16,14.30,20.74,838.630,2080.910,119.966667,22.68,2.4864,355,23938,1.98376,3.98,43279,,,,,,,,,,,,,,,,,,99999,99999,99999,99999,99999,99999,99999,99999,99999,99999,99999,99999
26:03:40,1510503420,2017-11-12T16:17:03,0.794,1203.1,18.19,14.32,20.78,838.670,2081.070,120.666664,22.04,2.4863,355,23939,1.97455,3.98,43284,,,,,,,,,,,,,,,,,,99999,99999,99999,99999,99999,99999,99999,99999,99999,99999,99999,99999
26:04:10,1510503450,2017-11-12T16:17:33,0.796,1203.5,18.22,14.37,20.80,838.620,2081.130,120.916664,22.59,2.4861,355,23940,1.97946,3.98,43289,,,,,,,,,,,,,,,,,,99999,99999,99999,99999,99999,99999,99999,99999,99999,99999,99999,99999
26:04:40,1510503480,2017-11-12T16:18:03,0.798,1203.9,18.25,14.42,20.83,838.660,2081.240,118.516670,22.08,2.4860,355,23944,1.98345,3.98,43294,,,,,,,,,,,,,,,,,,99999,99999,99999,99999,99999,99999,99999,99999,99999,99999,99999,99999
26:05:10,1510503510,2017-11-12T16:18:33,0.798,1204.3,18.28,14.47,20.88,838.570,2081.300,120.883331,21.73,2.4859,355,23943,1.98284,3.98,43299,,,,,,,,,,,,,,,,,,99999,99999,99999,99999,99999,99999,99999,99999,99999,99999,99999,99999
26:05:40,1510503540,2017-11-12T16:19:03,0.798,1204.7,18.33,14.51,20.91,838.670,2081.530,119.133331,22.47,2.4856,355,23943,1.98315,3.98,43304,,,,,,,,,,,,,,,,,,99999,99999,99999,99999,99999,99999,99999,99999,99999,99999,99999,99999
26:06:10,1510503570,2017-11-12T16:19:33,0.798,1205.1,18.37,14.55,20.93,838.630,2081.660,119.716667,22.85,2.4854,355,23946,1.98284,3.98,43309,,,,,,,,,,,,,,,,,,99999,99999,99999,99999,99999,99999,99999,99999,99999,99999,99999,99999
26:06:40,1510503600,2017-11-12T16:20:03,0.796,1205.5,18.43,14.59,20.98,838.570,2081.830,118.666664,22.73,2.4851,355,23949,1.97915,3.98,43313,,,,,,,,,,,,,,,,,,99999,99999,99999,99999,99999,99999,99999,99999,99999,99999,99999,99999
26:07:10,1510503630,2017-11-12T16:20:33,0.796,1205.9,18.46,14.64,21.04,838.620,2081.880,118.599998,21.91,2.4850,355,23950,1.97761,3.98,43318,,,,,,,,,,,,,,,,,,99999,99999,99999,99999,99999,99999,99999,99999,99999,99999,99999,99999
26:07:40,1510503660,2017-11-12T16:21:03,0.799,1206.3,18.51,14.66,21.04,838.660,2082.180,118.883331,21.89,2.4849,355,23954,1.98653,3.98,43323,,,,,,,,,,,,,,,,,,99999,99999,99999,99999,99999,99999,99999,99999,99999,99999,99999,99999
26:08:10,1510503690,2017-11-12T16:21:33,0.796,1206.7,18.56,14.69,21.09,838.620,2082.280,119.333336,22.10,2.4846,355,23955,1.97761,3.98,43328,,,,,,,,,,,,,,,,,,99999,99999,99999,99999,99999,99999,99999,99999,99999,99999,99999,99999
26:08:40,1510503720,2017-11-12T16:22:03,0.795,1207.1,18.58,14.72,21.14,838.610,2082.350,118.599998,21.51,2.4845,355,23954,1.97638,3.98,43333,,,,,,,,,,,,,,,,,,99999,99999,99999,99999,99999,99999,99999,99999,99999,99999,99999,99999
26:09:10,1510503750,2017-11-12T16:22:33,0.800,1207.5,18.63,14.77,21.17,838.600,2082.510,120.083336,21.61,2.4843,355,23955,1.98746,3.98,43337,,,,,,,,,,,,,,,,,,99999,99999,99999,99999,99999,99999,99999,99999,99999,99999,99999,99999
26:09:40,1510503780,2017-11-12T16:23:03,0.796,1207.9,18.68,14.81,21.18,838.620,2082.700,118.416664,22.25,2.4840,355,23955,1.97731,3.98,43342,,,,,,,,,,,,,,,,,,99999,99999,99999,99999,99999,99999,99999,99999,99999,99999,99999,99999
26:10:10,1510503810,2017-11-12T16:23:33,0.800,1208.3,18.74,14.85,21.25,838.610,2082.970,121.733330,21.37,2.4839,355,23956,1.98807,3.98,43347,,,,,,,,,,,,,,,,,,99999,99999,99999,99999,99999,99999,99999,99999,99999,99999,99999,99999
26:10:40,1510503840,2017-11-12T16:24:03,0.797,1208.7,18.78,14.90,21.32,838.680,2083.100,118.300003,21.15,2.4837,355,23956,1.98007,3.98,43352,,,,,,,,,,,,,,,,,,99999,99999,99999,99999,99999,99999,99999,99999,99999,99999,99999,99999
26:11:10,1510503870,2017-11-12T16:24:33,0.800,1209.1,18.83,14.94,21.36,838.590,2083.200,121.683334,22.11,2.4833,355,23958,1.98776,3.98,43357,,,,,,,,,,,,,,,,,,99999,99999,99999,99999,99999,99999,99999,99999,99999,99999,99999,99999
26:11:40,1510503900,2017-11-12T16:25:03,0.799,1209.5,18.87,14.96,21.38,838.580,2083.390,121.083336,23.02,2.4831,355,23958,1.98407,3.98,43361,,,,,,,,,,,,,,,,,,99999,99999,99999,99999,99999,99999,99999,99999,99999,99999,99999,99999
26:12:10,1510503930,2017-11-12T16:25:33,0.802,1209.9,18.89,14.99,21.44,838.580,2083.500,120.800003,21.05,2.4833,355,23964,1.99270,3.98,43366,,,,,,,,,,,,,,,,,,99999,99999,99999,99999,99999,99999,99999,99999,99999,99999,99999,99999
26:12:40,1510503960,2017-11-12T16:26:03,0.800,1210.3,18.94,15.03,21.48,838.540,2083.620,120.750000,22.36,2.4829,355,23963,1.98653,3.98,43371,,,,,,,,,,,,,,,,,,99999,99999,99999,99999,99999,99999,99999,99999,99999,99999,99999,99999
26:13:10,1510503990,2017-11-12T16:26:33,0.797,1210.7,18.97,15.07,21.52,838.530,2083.680,120.599998,21.60,2.4828,355,23966,1.97946,3.98,43376,,,,,,,,,,,,,,,,,,99999,99999,99999,99999,99999,99999,99999,99999,99999,99999,99999,99999
26:13:40,1510504020,2017-11-12T16:27:03,0.800,1211.1,19.00,15.11,21.52,838.500,2083.850,122.283333,21.41,2.4827,355,23964,1.98561,3.98,43380,,,,,,,,,,,,,,,,,,99999,99999,99999,99999,99999,99999,99999,99999,99999,99999,99999,99999
26:14:10,1510504050,2017-11-12T16:27:33,0.799,1211.5,19.04,15.13,21.58,838.460,2083.970,122.000000,21.69,2.4825,355,23965,1.98407,3.98,43385,,,,,,,,,,,,,,,,,,99999,99999,99999,99999,99999,99999,99999,99999,99999,99999,99999,99999
26:14:40,1510504080,2017-11-12T16:28:03,0.797,1211.9,19.07,15.17,21.60,838.560,2084.080,120.816666,21.28,2.4824,355,23968,1.97761,3.98,43390,,,,,,,,,,,,,,,,,,99999,99999,99999,99999,99999,99999,99999,99999,99999,99999,99999,99999
26:15:10,1510504110,2017-11-12T16:28:33,0.798,1212.3,19.09,15.18,21.62,838.480,2084.140,120.699997,20.87,2.4823,355,23968,1.98069,3.98,43394,,,,,,,,,,,,,,,,,,99999,99999,99999,99999,99999,99999,99999,99999,99999,99999,99999,99999
26:15:40,1510504140,2017-11-12T16:29:03,0.798,1212.7,19.12,15.21,21.67,838.390,2084.310,120.550003,22.23,2.4821,355,23969,1.98007,3.98,43399,,,,,,,,,,,,,,,,,,99999,99999,99999,99999,99999,99999,99999,99999,99999,99999,99999,99999
26:16:10,1510504170,2017-11-12T16:29:33,0.799,1213.1,19.15,15.25,21.72,838.410,2084.370,119.433334,22.18,2.4820,355,23972,1.98284,3.98,43404,,,,,,,,,,,,,,,,,,99999,99999,99999,99999,99999,99999,99999,99999,99999,99999,99999,99999
26:16:40,1510504200,2017-11-12T16:30:03,0.801,1213.5,19.19,15.29,21.74,838.370,2084.470,122.483330,21.97,2.4818,355,23971,1.98807,3.98,43409,,,,,,,,,,,,,,,,,,99999,99999,99999,99999,99999,99999,99999,99999,99999,99999,99999,99999
26:17:10,1510504230,2017-11-12T16:30:33,0.802,1213.9,19.23,15.34,21.83,838.450,2084.600,121.400002,21.80,2.4816,355,23974,1.98930,3.98,43413,,,,,,,,,,,,,,,,,,99999,99999,99999,99999,99999,99999,99999,99999,99999,99999,99999,99999
26:17:40,1510504260,2017-11-12T16:31:03,0.801,1214.3,19.27,15.38,21.82,838.390,2084.830,120.483330,21.79,2.4815,355,23974,1.98807,3.98,43418,,,,,,,,,,,,,,,,,,99999,99999,99999,99999,99999,99999,99999,99999,99999,99999,99999,99999
26:18:10,1510504290,2017-11-12T16:31:33,0.801,1214.7,19.30,15.44,21.83,838.410,2084.890,121.516670,22.96,2.4812,355,23976,1.98838,3.98,43423,,,,,,,,,,,,,,,,,,99999,99999,99999,99999,99999,99999,99999,99999,99999,99999,99999,99999
26:18:40,1510504320,2017-11-12T16:32:03,0.800,1215.1,19.32,15.46,21.90,838.380,2084.950,120.050003,21.75,2.4812,355,23978,1.98376,3.98,43427,,,,,,,,,,,,,,,,,,99999,99999,99999,99999,99999,99999,99999,99999,99999,99999,99999,99999
26:19:10,1510504350,2017-11-12T16:32:33,0.803,1215.5,19.35,15.47,21.91,838.370,2085.060,120.300003,22.23,2.4811,355,23976,1.99208,3.98,43432,,,,,,,,,,,,,,,,,,99999,99999,99999,99999,99999,99999,99999,99999,99999,99999,99999,99999
26:19:40,1510504380,2017-11-12T16:33:03,0.800,1215.9,19.36,15.53,21.94,838.340,2085.060,120.050003,21.00,2.4811,355,23979,1.98530,3.98,43437,,,,,,,,,,,,,,,,,,99999,99999,99999,99999,99999,99999,99999,99999,99999,99999,99999,99999
26:20:10,1510504410,2017-11-12T16:33:33,0.800,1216.3,19.37,15.54,21.98,838.410,2085.120,120.816666,20.77,2.4811,355,23978,1.98592,3.98,43441,,,,,,,,,,,,,,,,,,99999,99999,99999,99999,99999,99999,99999,99999,99999,99999,99999,99999
26:20:40,1510504440,2017-11-12T16:34:03,0.802,1216.7,19.39,15.57,22.01,838.440,2085.230,120.733330,21.84,2.4810,355,23981,1.98869,3.98,43446,,,,,,,,,,,,,,,,,,99999,99999,99999,99999,99999,99999,99999,99999,99999,99999,99999,99999
26:21:10,1510504470,2017-11-12T16:34:33,0.803,1217.1,19.40,15.60,21.98,838.410,2085.250,122.449997,20.71,2.4810,355,23980,1.99146,3.98,43451,,,,,,,,,,,,,,,,,,99999,99999,99999,99999,99999,99999,99999,99999,99999,99999,99999,99999
26:21:40,1510504500,2017-11-12T16:35:03,0.800,1217.5,19.41,15.63,22.04,838.430,2085.290,120.166664,20.56,2.4810,355,23983,1.98561,3.98,43455,,,,,,,,,,,,,,,,,,99999,99999,99999,99999,99999,99999,99999,99999,99999,99999,99999,99999
26:22:10,1510504530,2017-11-12T16:35:33,0.804,1217.9,19.43,15.65,22.04,838.380,2085.350,121.199997,20.97,2.4808,355,23987,1.99454,3.98,43460,,,,,,,,,,,,,,,,,,99999,99999,99999,99999,99999,99999,99999,99999,99999,99999,99999,99999
26:22:40,1510504560,2017-11-12T16:36:03,0.801,1218.3,19.44,15.68,22.09,838.400,2085.350,120.116669,20.68,2.4808,355,23987,1.98746,3.98,43464,,,,,,,,,,,,,,,,,,99999,99999,99999,99999,99999,99999,99999,99999,99999,99999,99999,99999
26:23:10,1510504590,2017-11-12T16:36:33,0.802,1218.7,19.46,15.70,22.07,838.370,2085.420,122.533333,20.74,2.4807,355,23982,1.98961,3.98,43469,,,,,,,,,,,,,,,,,,99999,99999,99999,99999,99999,99999,99999,99999,99999,99999,99999,99999
26:23:40,1510504620,2017-11-12T16:37:03,0.801,1219.1,19.50,15.74,22.10,838.390,2085.580,121.266670,21.33,2.4805,355,23986,1.98715,3.98,43474,,,,,,,,,,,,,,,,,,99999,99999,99999,99999,99999,99999,99999,99999,99999,99999,99999,99999
26:24:10,1510504650,2017-11-12T16:37:33,0.802,1219.5,19.51,15.78,22.16,838.280,2085.580,121.716667,21.39,2.4804,355,23987,1.98838,3.98,43478,,,,,,,,,,,,,,,,,,99999,99999,99999,99999,99999,99999,99999,99999,99999,99999,99999,99999
26:24:40,1510504680,2017-11-12T16:38:03,0.800,1219.9,19.56,15.81,22.20,838.350,2085.810,122.349998,21.41,2.4802,355,23988,1.98500,3.98,43483,,,,,,,,,,,,,,,,,,99999,99999,99999,99999,99999,99999,99999,99999,99999,99999,99999,99999
26:25:10,1510504710,2017-11-12T16:38:33,0.801,1220.3,19.59,15.87,22.24,838.340,2085.870,120.599998,22.42,2.4799,355,23988,1.98715,3.98,43487,,,,,,,,,,,,,,,,,,99999,99999,99999,99999,99999,99999,99999,99999,99999,99999,99999,99999
26:25:40,1510504740,2017-11-12T16:39:03,0.801,1220.7,19.63,15.88,22.25,838.360,2086.000,122.166664,20.98,2.4799,355,23990,1.98715,3.98,43492,,,,,,,,,,,,,,,,,,99999,99999,99999,99999,99999,99999,99999,99999,99999,99999,99999,99999
26:26:10,1510504770,2017-11-12T16:39:33,0.806,1221.1,19.66,15.93,22.28,838.330,2086.170,122.016670,20.90,2.4798,355,23990,1.99794,3.98,43497,,,,,,,,,,,,,,,,,,99999,99999,99999,99999,99999,99999,99999,99999,99999,99999,99999,99999
26:26:40,1510504800,2017-11-12T16:40:03,0.803,1221.5,19.70,15.97,22.33,838.270,2086.270,122.416664,21.01,2.4796,355,23993,1.98992,3.98,43501,,,,,,,,,,,,,,,,,,99999,99999,99999,99999,99999,99999,99999,99999,99999,99999,99999,99999
26:27:10,1510504830,2017-11-12T16:40:33,0.803,1221.9,19.73,16.00,22.38,838.310,2086.390,120.566666,20.95,2.4795,355,23997,1.98992,3.98,43506,,,,,,,,,,,,,,,,,,99999,99999,99999,99999,99999,99999,99999,99999,99999,99999,99999,99999
26:27:40,1510504860,2017-11-12T16:41:03,0.803,1222.3,19.78,16.02,22.42,838.300,2086.520,122.449997,20.69,2.4793,355,23996,1.99208,3.98,43510,,,,,,,,,,,,,,,,,,99999,99999,99999,99999,99999,99999,99999,99999,99999,99999,99999,99999
26:28:10,1510504890,2017-11-12T16:41:33,0.803,1222.7,19.83,16.05,22.44,838.290,2086.750,122.083336,21.87,2.4790,355,23998,1.99084,3.98,43515,,,,,,,,,,,,,,,,,,99999,99999,99999,99999,99999,99999,99999,99999,99999,99999,99999,99999
26:28:40,1510504920,2017-11-12T16:42:03,0.806,1223.1,19.91,16.11,22.48,838.330,2086.980,122.199997,21.68,2.4786,355,23998,1.99856,3.98,43519,,,,,,,,,,,,,,,,,,99999,99999,99999,99999,99999,99999,99999,99999,99999,99999,99999,99999
26:29:10,1510504950,2017-11-12T16:42:33,0.806,1223.5,19.96,16.17,22.56,838.290,2087.150,123.183334,21.34,2.4784,355,24002,1.99794,3.98,43524,,,,,,,,,,,,,,,,,,99999,99999,99999,99999,99999,99999,99999,99999,99999,99999,99999,99999
26:29:40,1510504980,2017-11-12T16:43:03,0.803,1223.9,20.01,16.23,22.64,838.230,2087.340,123.550003,20.71,2.4782,355,24002,1.98992,3.98,43528,,,,,,,,,,,,,,,,,,99999,99999,99999,99999,99999,99999,99999,99999,99999,99999,99999,99999
26:30:10,1510505010,2017-11-12T16:43:33,0.807,1224.3,20.07,16.26,22.68,838.210,2087.610,124.133331,21.36,2.4780,355,24001,1.99948,3.98,43533,,,,,,,,,,,,,,,,,,99999,99999,99999,99999,99999,99999,99999,99999,99999,99999,99999,99999
26:30:40,1510505040,2017-11-12T16:44:03,0.808,1224.7,20.12,16.28,22.72,838.200,2087.730,122.666664,20.70,2.4778,355,24004,2.00164,3.98,43537,,,,,,,,,,,,,,,,,,99999,99999,99999,99999,99999,99999,99999,99999,99999,99999,99999,99999
26:31:10,1510505070,2017-11-12T16:44:33,0.807,1225.1,20.16,16.31,22.75,838.220,2087.860,124.716667,20.70,2.4776,355,24003,1.99948,3.98,43542,,,,,,,,,,,,,,,,,,99999,99999,99999,99999,99999,99999,99999,99999,99999,99999,99999,99999
26:31:40,1510505100,2017-11-12T16:45:03,0.805,1225.6,20.18,16.32,22.80,838.220,2087.900,122.483330,21.65,2.4774,355,24005,1.99424,3.98,43546,,,,,,,,,,,,,,,,,,99999,99999,99999,99999,99999,99999,99999,99999,99999,99999,99999,99999
26:32:10,1510505130,2017-11-12T16:45:33,0.806,1226.0,20.21,16.32,22.80,838.260,2088.030,121.633331,20.29,2.4774,355,24006,1.99640,3.98,43550,,,,,,,,,,,,,,,,,,99999,99999,99999,99999,99999,99999,99999,99999,99999,99999,99999,99999
26:32:40,1510505160,2017-11-12T16:46:03,0.807,1226.4,20.21,16.32,22.78,838.210,2088.030,124.466667,20.75,2.4773,355,24006,2.00041,3.98,43555,,,,,,,,,,,,,,,,,,99999,99999,99999,99999,99999,99999,99999,99999,99999,99999,99999,99999
26:33:10,1510505190,2017-11-12T16:46:33,0.807,1226.8,20.21,16.33,22.84,838.180,2088.030,124.400002,20.30,2.4774,355,24005,1.99856,3.98,43559,,,,,,,,,,,,,,,,,,99999,99999,99999,99999,99999,99999,99999,99999,99999,99999,99999,99999
26:33:40,1510505220,2017-11-12T16:47:03,0.806,1227.2,20.22,16.34,22.80,838.210,2088.090,121.266670,20.15,2.4774,355,24007,1.99701,3.98,43564,,,,,,,,,,,,,,,,,,99999,99999,99999,99999,99999,99999,99999,99999,99999,99999,99999,99999
26:34:10,1510505250,2017-11-12T16:47:33,0.803,1227.6,20.23,16.36,22.84,838.230,2088.130,121.550003,20.26,2.4773,355,24007,1.98992,3.98,43568,,,,,,,,,,,,,,,,,,99999,99999,99999,99999,99999,99999,99999,99999,99999,99999,99999,99999
26:34:40,1510505280,2017-11-12T16:48:03,0.809,1228.0,20.26,16.39,22.84,838.230,2088.190,122.349998,20.63,2.4771,355,24008,2.00319,3.98,43573,,,,,,,,,,,,,,,,,,99999,99999,99999,99999,99999,99999,99999,99999,99999,99999,99999,99999
26:35:10,1510505310,2017-11-12T16:48:33,0.807,1228.4,20.30,16.45,22.90,838.190,2088.320,123.150002,21.65,2.4768,355,24007,1.99979,3.98,43577,,,,,,,,,,,,,,,,,,99999,99999,99999,99999,99999,99999,99999,99999,99999,99999,99999,99999
26:35:40,1510505340,2017-11-12T16:49:03,0.806,1228.8,20.32,16.48,22.91,838.210,2088.480,121.633331,20.94,2.4769,355,24009,1.99732,3.98,43581,,,,,,,,,,,,,,,,,,99999,99999,99999,99999,99999,99999,99999,99999,99999,99999,99999,99999
26:36:10,1510505370,2017-11-12T16:49:33,0.803,1229.2,20.37,16.53,22.96,838.200,2088.610,124.250000,20.97,2.4766,355,24012,1.98992,3.98,43586,,,,,,,,,,,,,,,,,,99999,99999,99999,99999,99999,99999,99999,99999,99999,99999,99999,99999
26:36:40,1510505400,2017-11-12T16:50:03,0.810,1229.6,20.41,16.58,23.00,838.250,2088.710,121.500000,20.59,2.4765,355,24012,2.00690,3.98,43590,,,,,,,,,,,,,,,,,,99999,99999,99999,99999,99999,99999,99999,99999,99999,99999,99999,99999
26:37:10,1510505430,2017-11-12T16:50:33,0.810,1230.0,20.45,16.63,23.04,838.160,2088.840,124.533333,21.08,2.4762,355,24013,2.00598,3.98,43594,,,,,,,,,,,,,,,,,,99999,99999,99999,99999,99999,99999,99999,99999,99999,99999,99999,99999
26:37:40,1510505460,2017-11-12T16:51:03,0.812,1230.4,20.49,16.67,23.06,838.200,2089.070,121.883331,20.69,2.4762,355,24015,2.00969,3.98,43599,,,,,,,,,,,,,,,,,,99999,99999,99999,99999,99999,99999,99999,99999,99999,99999,99999,99999
26:38:10,1510505490,2017-11-12T16:51:33,0.810,1230.8,20.51,16.70,23.12,838.250,2089.130,123.050003,19.86,2.4762,355,24017,2.00505,3.98,43603,,,,,,,,,,,,,,,,,,99999,99999,99999,99999,99999,99999,99999,99999,99999,99999,99999,99999
26:38:40,1510505520,2017-11-12T16:52:03,0.810,1231.2,20.55,16.71,23.12,838.190,2089.230,124.783333,20.51,2.4759,355,24016,2.00536,3.98,43607,,,,,,,,,,,,,,,,,,99999,99999,99999,99999,99999,99999,99999,99999,99999,99999,99999,99999
26:39:10,1510505550,2017-11-12T16:52:33,0.806,1231.6,20.58,16.75,23.15,838.160,2089.300,121.316666,20.42,2.4757,355,24017,1.99609,3.98,43612,,,,,,,,,,,,,,,,,,99999,99999,99999,99999,99999,99999,99999,99999,99999,99999,99999,99999
26:39:40,1510505580,2017-11-12T16:53:03,0.808,1232.0,20.60,16.77,23.17,838.150,2089.430,122.383331,20.18,2.4757,355,24018,2.00072,3.98,43616,,,,,,,,,,,,,,,,,,99999,99999,99999,99999,99999,99999,99999,99999,99999,99999,99999,99999
26:40:10,1510505610,2017-11-12T16:53:33,0.809,1232.4,20.62,16.78,23.17,838.100,2089.470,122.566666,19.72,2.4757,355,24017,2.00257,3.98,43620,,,,,,,,,,,,,,,,,,99999,99999,99999,99999,99999,99999,99999,99999,99999,99999,99999,99999
26:40:40,1510505640,2017-11-12T16:54:03,0.810,1232.8,20.66,16.81,23.23,838.190,2089.590,122.383331,20.88,2.4753,355,24018,2.00598,3.98,43625,,,,,,,,,,,,,,,,,,99999,99999,99999,99999,99999,99999,99999,99999,99999,99999,99999,99999
26:41:10,1510505670,2017-11-12T16:54:33,0.810,1233.2,20.68,16.85,23.22,838.100,2089.650,125.416664,20.70,2.4752,355,24018,2.00412,3.98,43629,,,,,,,,,,,,,,,,,,99999,99999,99999,99999,99999,99999,99999,99999,99999,99999,99999,99999
26:41:40,1510505700,2017-11-12T16:55:03,0.810,1233.6,20.70,16.85,23.28,838.130,2089.760,123.516670,20.87,2.4752,355,24020,2.00536,3.98,43633,,,,,,,,,,,,,,,,,,99999,99999,99999,99999,99999,99999,99999,99999,99999,99999,99999,99999
26:42:10,1510505730,2017-11-12T16:55:33,0.807,1234.0,20.72,16.88,23.32,838.150,2089.880,124.683334,19.92,2.4753,355,24021,1.99671,3.98,43637,,,,,,,,,,,,,,,,,,99999,99999,99999,99999,99999,99999,99999,99999,99999,99999,99999,99999
26:42:40,1510505760,2017-11-12T16:56:03,0.810,1234.4,20.75,16.91,23.30,838.150,2089.950,123.166664,19.85,2.4751,355,24021,2.00381,3.98,43642,,,,,,,,,,,,,,,,,,99999,99999,99999,99999,99999,99999,99999,99999,99999,99999,99999,99999
26:43:10,1510505790,2017-11-12T16:56:33,0.810,1234.8,20.77,16.94,23.32,838.090,2090.010,124.166664,19.88,2.4750,355,24022,2.00567,3.98,43646,,,,,,,,,,,,,,,,,,99999,99999,99999,99999,99999,99999,99999,99999,99999,99999,99999,99999
26:43:40,1510505820,2017-11-12T16:57:03,0.810,1235.2,20.78,16.97,23.34,838.060,2090.050,123.050003,19.52,2.4750,355,24023,2.00474,3.98,43650,,,,,,,,,,,,,,,,,,99999,99999,99999,99999,99999,99999,99999,99999,99999,99999,99999,99999
26:44:10,1510505850,2017-11-12T16:57:33,0.807,1235.6,20.80,16.99,23.34,838.030,2090.120,123.949997,20.19,2.4748,355,24024,1.99763,3.98,43654,,,,,,,,,,,,,,,,,,99999,99999,99999,99999,99999,99999,99999,99999,99999,99999,99999,99999
26:44:40,1510505880,2017-11-12T16:58:03,0.810,1236.0,20.80,17.00,23.34,838.030,2090.120,123.733330,19.57,2.4749,355,24027,2.00567,3.98,43658,,,,,,,,,,,,,,,,,,99999,99999,99999,99999,99999,99999,99999,99999,99999,99999,99999,99999
26:45:10,1510505910,2017-11-12T16:58:33,0.806,1236.5,20.82,17.01,23.36,838.080,2090.180,123.300003,20.35,2.4747,355,24025,1.99547,3.98,43663,,,,,,,,,,,,,,,,,,99999,99999,99999,99999,99999,99999,99999,99999,99999,99999,99999,99999
26:45:40,1510505940,2017-11-12T16:59:03,0.807,1236.9,20.83,17.05,23.36,838.050,2090.180,121.766670,20.88,2.4746,355,24023,1.99763,3.98,43667,,,,,,,,,,,,,,,,,,99999,99999,99999,99999,99999,99999,99999,99999,99999,99999,99999,99999
26:46:10,1510505970,2017-11-12T16:59:33,0.811,1237.3,20.84,17.09,23.40,838.070,2090.240,124.966667,19.93,2.4747,355,24026,2.00690,3.98,43671,,,,,,,,,,,,,,,,,,99999,99999,99999,99999,99999,99999,99999,99999,99999,99999,99999,99999
26:46:40,1510506000,2017-11-12T17:00:03,0.809,1237.7,20.87,17.12,23.40,837.930,2090.340,125.000000,19.77,2.4745,355,24025,2.00103,3.98,43675,,,,,,,,,,,,,,,,,,99999,99999,99999,99999,99999,99999,99999,99999,99999,99999,99999,99999
26:47:10,1510506030,2017-11-12T17:00:33,0.811,1238.1,20.90,17.15,23.44,837.980,2090.470,124.533333,19.80,2.4744,355,24027,2.00783,3.98,43679,,,,,,,,,,,,,,,,,,99999,99999,99999,99999,99999,99999,99999,99999,99999,99999,99999,99999
26:47:40,1510506060,2017-11-12T17:01:03,0.810,1238.5,20.93,17.17,23.46,838.000,2090.570,123.099998,20.62,2.4742,355,24030,2.00474,3.98,43683,,,,,,,,,,,,,,,,,,99999,99999,99999,99999,99999,99999,99999,99999,99999,99999,99999,99999
26:48:10,1510506090,2017-11-12T17:01:33,0.812,1238.9,20.96,17.21,23.49,838.020,2090.630,124.550003,20.04,2.4741,355,24028,2.00938,3.98,43687,,,,,,,,,,,,,,,,,,99999,99999,99999,99999,99999,99999,99999,99999,99999,99999,99999,99999
26:48:40,1510506120,2017-11-12T17:02:03,0.808,1239.3,20.98,17.22,23.49,838.050,2090.700,124.949997,20.08,2.4740,355,24031,1.99887,3.98,43691,,,,,,,,,,,,,,,,,,99999,99999,99999,99999,99999,99999,99999,99999,99999,99999,99999,99999
26:49:10,1510506150,2017-11-12T17:02:33,0.812,1239.7,20.99,17.25,23.54,837.990,2090.820,124.283333,19.90,2.4741,355,24030,2.00783,3.98,43696,,,,,,,,,,,,,,,,,,99999,99999,99999,99999,99999,99999,99999,99999,99999,99999,99999,99999
26:49:40,1510506180,2017-11-12T17:03:03,0.808,1240.1,21.00,17.23,23.50,837.910,2090.820,124.416664,19.86,2.4740,355,24031,1.99979,3.98,43700,,,,,,,,,,,,,,,,,,99999,99999,99999,99999,99999,99999,99999,99999,99999,99999,99999,99999
26:50:10,1510506210,2017-11-12T17:03:33,0.808,1240.5,21.00,17.22,23.52,837.960,2090.820,123.349998,19.57,2.4740,355,24031,1.99825,3.98,43704,,,,,,,,,,,,,,,,,,99999,99999,99999,99999,99999,99999,99999,99999,99999,99999,99999,99999
26:50:40,1510506240,2017-11-12T17:04:03,0.812,1240.9,21.02,17.21,23.52,838.040,2090.870,124.433334,19.97,2.4739,355,24029,2.00845,3.98,43708,,,,,,,,,,,,,,,,,,99999,99999,99999,99999,99999,99999,99999,99999,99999,99999,99999,99999
26:51:10,1510506270,2017-11-12T17:04:33,0.808,1241.3,21.01,17.21,23.57,838.040,2090.870,122.283333,19.85,2.4740,355,24029,1.99948,3.98,43712,,,,,,,,,,,,,,,,,,99999,99999,99999,99999,99999,99999,99999,99999,99999,99999,99999,99999
26:51:40,1510506300,2017-11-12T17:05:03,0.811,1241.7,21.03,17.20,23.54,838.010,2090.930,125.583336,21.12,2.4737,355,24030,2.00628,3.98,43716,,,,,,,,,,,,,,,,,,99999,99999,99999,99999,99999,99999,99999,99999,99999,99999,99999,99999
26:52:10,1510506330,2017-11-12T17:05:33,0.812,1242.1,21.04,17.18,23.54,838.010,2090.930,124.766670,20.51,2.4737,355,24032,2.00752,3.98,43720,,,,,,,,,,,,,,,,,,99999,99999,99999,99999,99999,99999,99999,99999,99999,99999,99999,99999
26:52:40,1510506360,2017-11-12T17:06:03,0.811,1242.5,21.04,17.18,23.56,837.950,2090.930,125.849998,20.39,2.4737,355,24030,2.00721,3.98,43724,,,,,,,,,,,,,,,,,,99999,99999,99999,99999,99999,99999,99999,99999,99999,99999,99999,99999
26:53:10,1510506390,2017-11-12T17:06:33,0.809,1242.9,21.05,17.19,23.54,838.000,2090.990,122.333336,19.87,2.4738,355,24028,2.00164,3.98,43728,,,,,,,,,,,,,,,,,,99999,99999,99999,99999,99999,99999,99999,99999,99999,99999,99999,99999
26:53:40,1510506420,2017-11-12T17:07:03,0.807,1243.3,21.06,17.21,23.57,837.990,2090.990,123.466667,19.53,2.4737,355,24029,1.99640,3.98,43732,,,,,,,,,,,,,,,,,,99999,99999,99999,99999,99999,99999,99999,99999,99999,99999,99999,99999
26:54:10,1510506450,2017-11-12T17:07:33,0.809,1243.7,21.07,17.23,23.56,838.020,2091.050,124.750000,19.97,2.4736,355,24031,2.00041,3.98,43736,,,,,,,,,,,,,,,,,,99999,99999,99999,99999,99999,99999,99999,99999,99999,99999,99999,99999
26:54:40,1510506480,2017-11-12T17:08:03,0.813,1244.1,21.09,17.28,23.60,837.910,2091.100,124.616669,19.65,2.4736,355,24033,2.01093,3.98,43740,,,,,,,,,,,,,,,,,,99999,99999,99999,99999,99999,99999,99999,99999,99999,99999,99999,99999
26:55:10,1510506510,2017-11-12T17:08:33,0.813,1244.5,21.12,17.31,23.58,837.930,2091.160,124.333336,19.65,2.4734,355,24034,2.01124,3.98,43744,,,,,,,,,,,,,,,,,,99999,99999,99999,99999,99999,99999,99999,99999,99999,99999,99999,99999
26:55:40,1510506540,2017-11-12T17:09:03,0.811,1245.0,21.15,17.35,23.64,837.960,2091.350,124.550003,19.82,2.4733,355,24036,2.00598,3.98,43748,,,,,,,,,,,,,,,,,,99999,99999,99999,99999,99999,99999,99999,99999,99999,99999,99999,99999
26:56:10,1510506570,2017-11-12T17:09:33,0.812,1245.4,21.19,17.39,23.72,837.870,2091.450,125.550003,20.04,2.4731,355,24038,2.00845,3.98,43752,,,,,,,,,,,,,,,,,,99999,99999,99999,99999,99999,99999,99999,99999,99999,99999,99999,99999
26:56:40,1510506600,2017-11-12T17:10:03,0.808,1245.8,21.22,17.42,23.72,837.940,2091.570,124.150002,20.36,2.4729,355,24037,1.99732,3.98,43756,,,,,,,,,,,,,,,,,,99999,99999,99999,99999,99999,99999,99999,99999,99999,99999,99999,99999
26:57:10,1510506630,2017-11-12T17:10:33,0.809,1246.2,21.26,17.45,23.76,837.900,2091.740,123.683334,20.35,2.4728,355,24036,2.00134,3.98,43759,,,,,,,,,,,,,,,,,,99999,99999,99999,99999,99999,99999,99999,99999,99999,99999,99999,99999
26:57:40,1510506660,2017-11-12T17:11:03,0.809,1246.6,21.30,17.46,23.78,837.890,2091.870,122.449997,19.63,2.4727,355,24038,2.00164,3.98,43763,,,,,,,,,,,,,,,,,,99999,99999,99999,99999,99999,99999,99999,99999,99999,99999,99999,99999
26:58:10,1510506690,2017-11-12T17:11:33,0.813,1247.0,21.32,17.48,23.83,837.920,2091.930,124.449997,19.14,2.4727,355,24041,2.00969,3.98,43767,,,,,,,,,,,,,,,,,,99999,99999,99999,99999,99999,99999,99999,99999,99999,99999,99999,99999
26:58:40,1510506720,2017-11-12T17:12:03,0.811,1247.4,21.35,17.52,23.84,837.990,2092.040,125.300003,19.44,2.4725,355,24040,2.00505,3.98,43771,,,,,,,,,,,,,,,,,,99999,99999,99999,99999,99999,99999,99999,99999,99999,99999,99999,99999
26:59:10,1510506750,2017-11-12T17:12:33,0.809,1247.8,21.39,17.53,23.91,837.950,2092.220,124.583336,19.58,2.4723,355,24038,1.99979,3.98,43775,,,,,,,,,,,,,,,,,,99999,99999,99999,99999,99999,99999,99999,99999,99999,99999,99999,99999
26:59:40,1510506780,2017-11-12T17:13:03,0.810,1248.2,21.42,17.58,23.90,837.920,2092.270,123.449997,20.25,2.4721,355,24039,2.00257,3.98,43779,,,,,,,,,,,,,,,,,,99999,99999,99999,99999,99999,99999,99999,99999,99999,99999,99999,99999
27:00:10,1510506810,2017-11-12T17:13:33,0.810,1248.6,21.47,17.61,23.98,837.990,2092.450,124.199997,19.04,2.4720,355,24043,2.00196,3.98,43783,,,,,,,,,,,,,,,,,,99999,99999,99999,99999,99999,99999,99999,99999,99999,99999,99999,99999
27:00:40,1510506840,2017-11-12T17:14:03,0.815,1249.0,21.51,17.68,23.98,837.950,2092.620,125.516670,18.75,2.4719,355,24044,2.01341,3.98,43786,,,,,,,,,,,,,,,,,,99999,99999,99999,99999,99999,99999,99999,99999,99999,99999,99999,99999
27:01:10,1510506870,2017-11-12T17:14:33,0.813,1249.4,21.56,17.71,24.04,838.020,2092.740,124.383331,19.02,2.4716,355,24047,2.01031,3.98,43790,,,,,,,,,,,,,,,,,,99999,99999,99999,99999,99999,99999,99999,99999,99999,99999,99999,99999
27:01:40,1510506900,2017-11-12T17:15:03,0.813,1249.8,21.62,17.76,24.08,838.010,2092.970,124.333336,18.77,2.4714,355,24048,2.00876,3.98,43794,,,,,,,,,,,,,,,,,,99999,99999,99999,99999,99999,99999,99999,99999,99999,99999,99999,99999
27:02:10,1510506930,2017-11-12T17:15:33,0.814,1250.2,21.67,17.83,24.15,838.030,2093.140,125.150002,19.03,2.4711,355,24049,2.01155,3.98,43798,,,,,,,,,,,,,,,,,,99999,99999,99999,99999,99999,99999,99999,99999,99999,99999,99999,99999
27:02:40,1510506960,2017-11-12T17:16:03,0.815,1250.6,21.73,17.89,24.18,838.120,2093.330,124.916664,18.59,2.4709,355,24050,2.01496,3.98,43801,,,,,,,,,,,,,,,,,,99999,99999,99999,99999,99999,99999,99999,99999,99999,99999,99999,99999
27:03:10,1510506990,2017-11-12T17:16:33,0.812,1251.0,21.80,17.97,24.30,838.050,2093.620,124.433334,18.51,2.4706,355,24054,2.00567,3.98,43805,,,,,,,,,,,,,,,,,,99999,99999,99999,99999,99999,99999,99999,99999,99999,99999,99999,99999
27:03:40,1510507020,2017-11-12T17:17:03,0.816,1251.5,21.87,18.05,24.38,837.990,2093.850,126.516670,18.95,2.4703,355,24056,2.01682,3.98,43809,,,,,,,,,,,,,,,,,,99999,99999,99999,99999,99999,99999,99999,99999,99999,99999,99999,99999
27:04:10,1510507050,2017-11-12T17:17:33,0.813,1251.9,21.95,18.13,24.44,838.020,2094.140,123.650002,18.88,2.4699,355,24057,2.00907,3.98,43813,,,,,,,,,,,,,,,,,,99999,99999,99999,99999,99999,99999,99999,99999,99999,99999,99999,99999
27:04:40,1510507080,2017-11-12T17:18:03,0.818,1252.3,22.02,18.21,24.50,838.060,2094.310,126.300003,19.41,2.4695,355,24061,2.01992,3.98,43816,,,,,,,,,,,,,,,,,,99999,99999,99999,99999,99999,99999,99999,99999,99999,99999,99999,99999
27:05:10,1510507110,2017-11-12T17:18:33,0.818,1252.7,22.09,18.25,24.57,837.990,2094.610,127.183334,18.58,2.4693,355,24061,2.01992,3.98,43820,,,,,,,,,,,,,,,,,,99999,99999,99999,99999,99999,99999,99999,99999,99999,99999,99999,99999
27:05:40,1510507140,2017-11-12T17:19:03,0.818,1253.1,22.15,18.30,24.64,837.920,2094.790,126.783333,18.70,2.4690,355,24061,2.02085,3.98,43824,,,,,,,,,,,,,,,,,,99999,99999,99999,99999,99999,99999,99999,99999,99999,99999,99999,99999
27:06:10,1510507170,2017-11-12T17:19:33,0.814,1253.5,22.19,18.34,24.70,837.970,2094.960,125.433334,18.23,2.4689,355,24066,2.00907,3.98,43827,,,,,,,,,,,,,,,,,,99999,99999,99999,99999,99999,99999,99999,99999,99999,99999,99999,99999
27:06:40,1510507200,2017-11-12T17:20:03,0.813,1253.9,22.26,18.38,24.76,838.010,2095.190,125.866669,18.86,2.4685,355,24065,2.00814,3.98,43831,,,,,,,,,,,,,,,,,,99999,99999,99999,99999,99999,99999,99999,99999,99999,99999,99999,99999
27:07:10,1510507230,2017-11-12T17:20:33,0.814,1254.3,22.29,18.41,24.83,837.950,2095.310,126.216667,19.60,2.4683,355,24068,2.00938,3.98,43835,,,,,,,,,,,,,,,,,,99999,99999,99999,99999,99999,99999,99999,99999,99999,99999,99999,99999
27:07:40,1510507260,2017-11-12T17:21:03,0.820,1254.7,22.35,18.46,24.86,837.970,2095.540,126.866669,19.52,2.4681,355,24068,2.02396,3.98,43838,,,,,,,,,,,,,,,,,,99999,99999,99999,99999,99999,99999,99999,99999,99999,99999,99999,99999
27:08:10,1510507290,2017-11-12T17:21:33,0.814,1255.1,22.37,18.49,24.88,837.910,2095.610,125.583336,18.28,2.4682,355,24071,2.00969,3.98,43842,,,,,,,,,,,,,,,,,,99999,99999,99999,99999,99999,99999,99999,99999,99999,99999,99999,99999
27:08:40,1510507320,2017-11-12T17:22:03,0.816,1255.5,22.40,18.50,24.89,837.870,2095.670,125.199997,18.51,2.4680,355,24070,2.01372,3.98,43846,,,,,,,,,,,,,,,,,,99999,99999,99999,99999,99999,99999,99999,99999,99999,99999,99999,99999
27:09:10,1510507350,2017-11-12T17:22:33,0.816,1255.9,22.42,18.52,24.92,837.870,2095.710,126.333336,18.59,2.4678,355,24071,2.01496,3.98,43849,,,,,,,,,,,,,,,,,,99999,99999,99999,99999,99999,99999,99999,99999,99999,99999,99999,99999
27:09:40,1510507380,2017-11-12T17:23:03,0.817,1256.3,22.45,18.55,24.92,837.890,2095.900,127.300003,18.74,2.4678,355,24071,2.01651,3.98,43853,,,,,,,,,,,,,,,,,,99999,99999,99999,99999,99999,99999,99999,99999,99999,99999,99999,99999
27:10:10,1510507410,2017-11-12T17:23:33,0.815,1256.8,22.46,18.55,24.95,837.860,2095.900,125.016670,18.11,2.4678,355,24071,2.01031,3.98,43856,,,,,,,,,,,,,,,,,,99999,99999,99999,99999,99999,99999,99999,99999,99999,99999,99999,99999
27:10:40,1510507440,2017-11-12T17:24:03,0.817,1257.2,22.46,18.55,24.98,837.940,2095.900,124.716667,18.40,2.4677,355,24070,2.01496,3.98,43860,,,,,,,,,,,,,,,,,,99999,99999,99999,99999,99999,99999,99999,99999,99999,99999,99999,99999
27:11:10,1510507470,2017-11-12T17:24:33,0.818,1257.6,22.46,18.52,24.95,837.940,2095.900,125.000000,19.06,2.4676,355,24069,2.01961,3.98,43863,,,,,,,,,,,,,,,,,,99999,99999,99999,99999,99999,99999,99999,99999,99999,99999,99999,99999
27:11:40,1510507500,2017-11-12T17:25:03,0.817,1258.0,22.44,18.49,24.94,837.890,2095.780,125.516670,18.46,2.4677,355,24068,2.01558,3.97,43867,,,,,,,,,,,,,,,,,,99999,99999,99999,99999,99999,99999,99999,99999,99999,99999,99999,99999
27:12:10,1510507530,2017-11-12T17:25:33,0.818,1258.4,22.41,18.46,24.92,837.840,2095.710,127.833336,19.90,2.4677,355,24068,2.01744,3.98,43870,,,,,,,,,,,,,,,,,,99999,99999,99999,99999,99999,99999,99999,99999,99999,99999,99999,99999
27:12:40,1510507560,2017-11-12T17:26:03,0.819,1258.8,22.39,18.45,24.91,837.870,2095.670,126.016670,18.54,2.4680,355,24068,2.02085,3.98,43874,,,,,,,,,,,,,,,,,,99999,99999,99999,99999,99999,99999,99999,99999,99999,99999,99999,99999
27:13:10,1510507590,2017-11-12T17:26:33,0.816,1259.2,22.37,18.44,24.84,837.830,2095.610,122.866669,19.10,2.4681,355,24068,2.01279,3.97,43877,,,,,,,,,,,,,,,,,,99999,99999,99999,99999,99999,99999,99999,99999,99999,99999,99999,99999
27:13:40,1510507620,2017-11-12T17:27:03,0.813,1259.6,22.34,18.41,24.84,837.860,2095.480,126.333336,18.49,2.4682,355,24069,2.00628,3.97,43881,,,,,,,,,,,,,,,,,,99999,99999,99999,99999,99999,99999,99999,99999,99999,99999,99999,99999
27:14:10,1510507650,2017-11-12T17:27:33,0.815,1260.0,22.31,18.41,24.80,837.870,2095.420,125.716667,18.53,2.4684,355,24068,2.01093,3.97,43884,,,,,,,,,,,,,,,,,,99999,99999,99999,99999,99999,99999,99999,99999,99999,99999,99999,99999
27:14:40,1510507680,2017-11-12T17:28:03,0.816,1260.4,22.28,18.38,24.78,837.820,2095.250,125.333336,18.49,2.4685,355,24066,2.01310,3.97,43887,,,,,,,,,,,,,,,,,,99999,99999,99999,99999,99999,99999,99999,99999,99999,99999,99999,99999
27:15:10,1510507710,2017-11-12T17:28:33,0.815,1260.8,22.26,18.38,24.75,837.930,2095.190,126.849998,18.52,2.4686,355,24064,2.01155,3.97,43891,,,,,,,,,,,,,,,,,,99999,99999,99999,99999,99999,99999,99999,99999,99999,99999,99999,99999
27:15:40,1510507740,2017-11-12T17:29:03,0.815,1261.2,22.21,18.31,24.70,837.810,2095.020,125.833336,19.11,2.4687,355,24064,2.01248,3.97,43894,,,,,,,,,,,,,,,,,,99999,99999,99999,99999,99999,99999,99999,99999,99999,99999,99999,99999
27:16:10,1510507770,2017-11-12T17:29:33,0.818,1261.7,22.16,18.27,24.65,837.790,2094.830,125.116669,18.94,2.4689,355,24063,2.01837,3.97,43898,,,,,,,,,,,,,,,,,,99999,99999,99999,99999,99999,99999,99999,99999,99999,99999,99999,99999
27:16:40,1510507800,2017-11-12T17:30:03,0.815,1262.1,22.09,18.22,24.58,837.830,2094.610,125.183334,18.48,2.4693,355,24062,2.01310,3.97,43901,,,,,,,,,,,,,,,,,,99999,99999,99999,99999,99999,99999,99999,99999,99999,99999,99999,99999
27:17:10,1510507830,2017-11-12T17:30:33,0.812,1262.5,22.06,18.21,24.56,837.790,2094.540,123.699997,18.73,2.4695,355,24062,2.00567,3.97,43904,,,,,,,,,,,,,,,,,,99999,99999,99999,99999,99999,99999,99999,99999,99999,99999,99999,99999
27:17:40,1510507860,2017-11-12T17:31:03,0.816,1262.9,22.01,18.17,24.50,837.820,2094.310,125.533333,19.16,2.4696,355,24062,2.01496,3.97,43908,,,,,,,,,,,,,,,,,,99999,99999,99999,99999,99999,99999,99999,99999,99999,99999,99999,99999
27:18:10,1510507890,2017-11-12T17:31:33,0.812,1263.3,21.96,18.14,24.45,837.880,2094.140,126.199997,19.76,2.4697,355,24059,2.00567,3.97,43911,,,,,,,,,,,,,,,,,,99999,99999,99999,99999,99999,99999,99999,99999,99999,99999,99999,99999
27:18:40,1510507920,2017-11-12T17:32:03,0.813,1263.7,21.92,18.15,24.41,837.890,2094.020,124.900002,19.13,2.4700,355,24057,2.00876,3.97,43914,,,,,,,,,,,,,,,,,,99999,99999,99999,99999,99999,99999,99999,99999,99999,99999,99999,99999
27:19:10,1510507950,2017-11-12T17:32:33,0.811,1264.1,21.87,18.12,24.34,837.800,2093.850,122.699997,19.00,2.4703,355,24059,2.00381,3.97,43918,,,,,,,,,,,,,,,,,,99999,99999,99999,99999,99999,99999,99999,99999,99999,99999,99999,99999
27:19:40,1510507980,2017-11-12T17:33:03,0.811,1264.5,21.82,18.07,24.28,837.840,2093.660,123.083336,19.27,2.4704,355,24057,2.00474,3.97,43921,,,,,,,,,,,,,,,,,,99999,99999,99999,99999,99999,99999,99999,99999,99999,99999,99999,99999
27:20:10,1510508010,2017-11-12T17:33:33,0.814,1264.9,21.77,18.05,24.22,837.820,2093.440,125.150002,19.59,2.4705,355,24055,2.01186,3.97,43924,,,,,,,,,,,,,,,,,,99999,99999,99999,99999,99999,99999,99999,99999,99999,99999,99999,99999
27:20:40,1510508040,2017-11-12T17:34:03,0.815,1265.3,21.71,18.01,24.17,837.800,2093.270,124.616669,19.10,2.4709,355,24053,2.01496,3.97,43927,,,,,,,,,,,,,,,,,,99999,99999,99999,99999,99999,99999,99999,99999,99999,99999,99999,99999
27:21:10,1510508070,2017-11-12T17:34:33,0.813,1265.7,21.68,17.99,24.14,837.860,2093.210,126.366669,19.65,2.4710,355,24054,2.00814,3.97,43931,,,,,,,,,,,,,,,,,,99999,99999,99999,99999,99999,99999,99999,99999,99999,99999,99999,99999
27:21:40,1510508100,2017-11-12T17:35:03,0.808,1266.1,21.63,17.94,24.08,837.850,2092.970,125.250000,20.00,2.4711,355,24052,1.99732,3.97,43934,,,,,,,,,,,,,,,,,,99999,99999,99999,99999,99999,99999,99999,99999,99999,99999,99999,99999
27:22:10,1510508130,2017-11-12T17:35:33,0.810,1266.5,21.60,17.90,24.04,837.880,2092.910,125.166664,19.70,2.4714,355,24051,2.00164,3.97,43937,,,,,,,,,,,,,,,,,,99999,99999,99999,99999,99999,99999,99999,99999,99999,99999,99999,99999
27:22:40,1510508160,2017-11-12T17:36:03,0.814,1266.9,21.54,17.89,23.99,837.810,2092.680,123.633331,20.12,2.4715,355,24052,2.01186,3.97,43940,,,,,,,,,,,,,,,,,,99999,99999,99999,99999,99999,99999,99999,99999,99999,99999,99999,99999
27:23:10,1510508190,2017-11-12T17:36:33,0.812,1267.3,21.52,17.87,23.96,837.820,2092.620,125.500000,19.77,2.4717,355,24050,2.00783,3.97,43944,,,,,,,,,,,,,,,,,,99999,99999,99999,99999,99999,99999,99999,99999,99999,99999,99999,99999
27:23:40,1510508220,2017-11-12T17:37:03,0.813,1267.7,21.48,17.85,23.92,837.750,2092.450,124.466667,20.03,2.4718,355,24049,2.00845,3.97,43947,,,,,,,,,,,,,,,,,,99999,99999,99999,99999,99999,99999,99999,99999,99999,99999,99999,99999
27:24:10,1510508250,2017-11-12T17:37:33,0.813,1268.2,21.44,17.80,23.90,837.730,2092.330,124.583336,19.85,2.4720,355,24050,2.00969,3.97,43950,,,,,,,,,,,,,,,,,,99999,99999,99999,99999,99999,99999,99999,99999,99999,99999,99999,99999
27:24:40,1510508280,2017-11-12T17:38:03,0.810,1268.6,21.41,17.79,23.83,837.760,2092.270,121.966667,19.57,2.4722,355,24047,2.00134,3.97,43953,,,,,,,,,,,,,,,,,,99999,99999,99999,99999,99999,99999,99999,99999,99999,99999,99999,99999
27:25:10,1510508310,2017-11-12T17:38:33,0.811,1269.0,21.37,17.79,23.86,837.690,2092.160,124.466667,19.13,2.4725,355,24048,2.00567,3.97,43956,,,,,,,,,,,,,,,,,,99999,99999,99999,99999,99999,99999,99999,99999,99999,99999,99999,99999
27:25:40,1510508340,2017-11-12T17:39:03,0.812,1269.4,21.35,17.79,23.78,837.750,2092.040,124.916664,20.02,2.4724,355,24047,2.00783,3.97,43959,,,,,,,,,,,,,,,,,,99999,99999,99999,99999,99999,99999,99999,99999,99999,99999,99999,99999
27:26:10,1510508370,2017-11-12T17:39:33,0.811,1269.8,21.34,17.79,23.72,837.650,2091.970,125.516670,20.02,2.4724,355,24046,2.00412,3.97,43962,,,,,,,,,,,,,,,,,,99999,99999,99999,99999,99999,99999,99999,99999,99999,99999,99999,99999
27:26:40,1510508400,2017-11-12T17:40:03,0.812,1270.2,21.32,17.77,23.76,837.700,2091.930,124.699997,20.18,2.4725,355,24046,2.00659,3.97,43965,,,,,,,,,,,,,,,,,,99999,99999,99999,99999,99999,99999,99999,99999,99999,99999,99999,99999
27:27:10,1510508430,2017-11-12T17:40:33,0.810,1270.6,21.32,17.79,23.73,837.760,2091.930,123.066666,19.66,2.4726,355,24049,2.00350,3.97,43969,,,,,,,,,,,,,,,,,,99999,99999,99999,99999,99999,99999,99999,99999,99999,99999,99999,99999
27:27:40,1510508460,2017-11-12T17:41:03,0.810,1271.0,21.30,17.77,23.73,837.680,2091.870,122.916664,19.72,2.4727,355,24049,2.00381,3.97,43972,,,,,,,,,,,,,,,,,,99999,99999,99999,99999,99999,99999,99999,99999,99999,99999,99999,99999
27:28:10,1510508490,2017-11-12T17:41:33,0.809,1271.4,21.29,17.77,23.72,837.710,2091.800,122.933334,20.26,2.4726,355,24047,1.99948,3.97,43975,,,,,,,,,,,,,,,,,,99999,99999,99999,99999,99999,99999,99999,99999,99999,99999,99999,99999
27:28:40,1510508520,2017-11-12T17:42:03,0.807,1271.8,21.27,17.78,23.73,837.680,2091.740,123.016670,20.72,2.4727,355,24045,1.99516,3.97,43978,,,,,,,,,,,,,,,,,,99999,99999,99999,99999,99999,99999,99999,99999,99999,99999,99999,99999
27:29:10,1510508550,2017-11-12T17:42:33,0.811,1272.2,21.27,17.77,23.67,837.740,2091.740,124.366669,19.71,2.4728,355,24047,2.00474,3.97,43981,,,,,,,,,,,,,,,,,,99999,99999,99999,99999,99999,99999,99999,99999,99999,99999,99999,99999
27:29:40,1510508580,2017-11-12T17:43:03,0.813,1272.6,21.28,17.76,23.68,837.680,2091.800,124.116669,20.19,2.4727,355,24046,2.00969,3.97,43984,,,,,,,,,,,,,,,,,,99999,99999,99999,99999,99999,99999,99999,99999,99999,99999,99999,99999
27:30:10,1510508610,2017-11-12T17:43:33,0.807,1273.0,21.27,17.77,23.67,837.740,2091.740,123.583336,20.49,2.4727,355,24046,1.99516,3.97,43987,,,,,,,,,,,,,,,,,,99999,99999,99999,99999,99999,99999,99999,99999,99999,99999,99999,99999
27:30:40,1510508640,2017-11-12T17:44:03,0.809,1273.4,21.27,17.76,23.65,837.710,2091.740,125.550003,20.03,2.4728,355,24046,2.00010,3.97,43990,,,,,,,,,,,,,,,,,,99999,99999,99999,99999,99999,99999,99999,99999,99999,99999,99999,99999
27:31:10,1510508670,2017-11-12T17:44:33,0.812,1273.8,21.28,17.76,23.67,837.630,2091.800,123.800003,21.73,2.4725,355,24046,2.00690,3.97,43993,,,,,,,,,,,,,,,,,,99999,99999,99999,99999,99999,99999,99999,99999,99999,99999,99999,99999
27:31:40,1510508700,2017-11-12T17:45:03,0.812,1274.2,21.28,17.76,23.67,837.680,2091.800,126.033333,19.75,2.4728,355,24045,2.00845,3.97,43996,,,,,,,,,,,,,,,,,,99999,99999,99999,99999,99999,99999,99999,99999,99999,99999,99999,99999
27:32:10,1510508730,2017-11-12T17:45:33,0.809,1274.6,21.29,17.77,23.68,837.730,2091.800,124.250000,19.76,2.4727,355,24047,2.00072,3.97,43999,,,,,,,,,,,,,,,,,,99999,99999,99999,99999,99999,99999,99999,99999,99999,99999,99999,99999
27:32:40,1510508760,2017-11-12T17:46:03,0.813,1275.0,21.31,17.80,23.68,837.730,2091.870,124.333336,20.49,2.4725,355,24048,2.01093,3.97,44002,,,,,,,,,,,,,,,,,,99999,99999,99999,99999,99999,99999,99999,99999,99999,99999,99999,99999
27:33:10,1510508790,2017-11-12T17:46:33,0.812,1275.4,21.33,17.83,23.70,837.730,2091.930,124.849998,20.75,2.4724,355,24049,2.00876,3.97,44004,,,,,,,,,,,,,,,,,,99999,99999,99999,99999,99999,99999,99999,99999,99999,99999,99999,99999
27:33:40,1510508820,2017-11-12T17:47:03,0.809,1275.9,21.35,17.85,23.72,837.720,2092.040,123.866669,20.30,2.4724,355,24049,1.99948,3.97,44007,,,,,,,,,,,,,,,,,,99999,99999,99999,99999,99999,99999,99999,99999,99999,99999,99999,99999
27:34:10,1510508850,2017-11-12T17:47:33,0.812,1276.3,21.35,17.85,23.72,837.660,2092.040,125.133331,19.57,2.4725,355,24049,2.00690,3.97,44010,,,,,,,,,,,,,,,,,,99999,99999,99999,99999,99999,99999,99999,99999,99999,99999,99999,99999
27:34:40,1510508880,2017-11-12T17:48:03,0.810,1276.7,21.36,17.84,23.73,837.640,2092.040,123.433334,20.02,2.4723,355,24048,2.00196,3.97,44013,,,,,,,,,,,,,,,,,,99999,99999,99999,99999,99999,99999,99999,99999,99999,99999,99999,99999
27:35:10,1510508910,2017-11-12T17:48:33,0.813,1277.1,21.35,17.84,23.72,837.660,2092.040,124.650002,19.30,2.4725,355,24049,2.01000,3.97,44016,,,,,,,,,,,,,,,,,,99999,99999,99999,99999,99999,99999,99999,99999,99999,99999,99999,99999
27:35:40,1510508940,2017-11-12T17:49:03,0.814,1277.5,21.36,17.82,23.72,837.720,2092.040,123.099998,20.26,2.4723,355,24048,2.01248,3.97,44019,,,,,,,,,,,,,,,,,,99999,99999,99999,99999,99999,99999,99999,99999,99999,99999,99999,99999
27:36:10,1510508970,2017-11-12T17:49:33,0.808,1277.9,21.35,17.81,23.72,837.720,2092.040,123.866669,20.26,2.4724,355,24047,1.99887,3.97,44022,,,,,,,,,,,,,,,,,,99999,99999,99999,99999,99999,99999,99999,99999,99999,99999,99999,99999
27:36:40,1510509000,2017-11-12T17:50:03,0.807,1278.3,21.35,17.80,23.72,837.690,2092.040,124.550003,19.60,2.4725,355,24049,1.99516,3.97,44024,,,,,,,,,,,,,,,,,,99999,99999,99999,99999,99999,99999,99999,99999,99999,99999,99999,99999
27:37:10,1510509030,2017-11-12T17:50:33,0.809,1278.7,21.35,17.80,23.73,837.610,2092.040,123.616669,20.44,2.4724,355,24049,1.99948,3.97,44027,,,,,,,,,,,,,,,,,,99999,99999,99999,99999,99999,99999,99999,99999,99999,99999,99999,99999
27:37:40,1510509060,2017-11-12T17:51:03,0.812,1279.1,21.36,17.83,23.68,837.690,2092.040,125.849998,19.32,2.4724,355,24048,2.00783,3.97,44030,,,,,,,,,,,,,,,,,,99999,99999,99999,99999,99999,99999,99999,99999,99999,99999,99999,99999
27:38:10,1510509090,2017-11-12T17:51:33,0.806,1279.5,21.37,17.85,23.70,837.640,2092.160,125.599998,20.26,2.4724,355,24049,1.99270,3.97,44033,,,,,,,,,,,,,,,,,,99999,99999,99999,99999,99999,99999,99999,99999,99999,99999,99999,99999
27:38:40,1510509120,2017-11-12T17:52:03,0.808,1279.9,21.37,17.86,23.72,837.660,2092.160,127.199997,20.89,2.4723,355,24049,1.99732,3.97,44036,,,,,,,,,,,,,,,,,,99999,99999,99999,99999,99999,99999,99999,99999,99999,99999,99999,99999
27:39:10,1510509150,2017-11-12T17:52:33,0.813,1280.3,21.37,17.90,23.72,837.610,2092.160,125.016670,19.86,2.4724,355,24049,2.00969,3.97,44038,,,,,,,,,,,,,,,,,,99999,99999,99999,99999,99999,99999,99999,99999,99999,99999,99999,99999
27:39:40,1510509180,2017-11-12T17:53:03,0.809,1280.7,21.38,17.94,23.72,837.580,2092.160,121.816666,19.46,2.4724,355,24054,2.00103,3.97,44041,,,,,,,,,,,,,,,,,,99999,99999,99999,99999,99999,99999,99999,99999,99999,99999,99999,99999
27:40:10,1510509210,2017-11-12T17:53:33,0.812,1281.1,21.40,17.96,23.75,837.690,2092.220,124.416664,19.05,2.4723,355,24051,2.00690,3.97,44044,,,,,,,,,,,,,,,,,,99999,99999,99999,99999,99999,99999,99999,99999,99999,99999,99999,99999
27:40:40,1510509240,2017-11-12T17:54:03,0.809,1281.5,21.40,17.99,23.72,837.580,2092.220,121.900002,18.56,2.4724,355,24051,2.00134,3.97,44046,,,,,,,,,,,,,,,,,,99999,99999,99999,99999,99999,99999,99999,99999,99999,99999,99999,99999
27:41:10,1510509270,2017-11-12T17:54:33,0.812,1281.9,21.43,18.04,23.73,837.700,2092.330,123.949997,19.47,2.4721,355,24053,2.00659,3.97,44049,,,,,,,,,,,,,,,,,,99999,99999,99999,99999,99999,99999,99999,99999,99999,99999,99999,99999
27:41:40,1510509300,2017-11-12T17:55:03,0.813,1282.3,21.42,18.06,23.73,837.570,2092.270,124.216667,19.71,2.4721,355,24056,2.00907,3.97,44052,,,,,,,,,,,,,,,,,,99999,99999,99999,99999,99999,99999,99999,99999,99999,99999,99999,99999
27:42:10,1510509330,2017-11-12T17:55:33,0.809,1282.7,21.44,18.08,23.75,837.550,2092.330,123.083336,19.67,2.4720,355,24055,2.00103,3.97,44054,,,,,,,,,,,,,,,,,,99999,99999,99999,99999,99999,99999,99999,99999,99999,99999,99999,99999
27:42:40,1510509360,2017-11-12T17:56:03,0.812,1283.1,21.45,18.09,23.80,837.590,2092.390,125.233330,19.70,2.4720,355,24055,2.00783,3.97,44057,,,,,,,,,,,,,,,,,,99999,99999,99999,99999,99999,99999,99999,99999,99999,99999,99999,99999
27:43:10,1510509390,2017-11-12T17:56:33,0.811,1283.6,21.45,18.12,23.78,837.570,2092.390,125.466667,19.50,2.4720,355,24056,2.00412,3.97,44060,,,,,,,,,,,,,,,,,,99999,99999,99999,99999,99999,99999,99999,99999,99999,99999,99999,99999
27:43:40,1510509420,2017-11-12T17:57:03,0.808,1284.0,21.44,18.14,23.78,837.550,2092.330,124.816666,19.63,2.4720,355,24057,1.99640,3.97,44062,,,,,,,,,,,,,,,,,,99999,99999,99999,99999,99999,99999,99999,99999,99999,99999,99999,99999
27:44:10,1510509450,2017-11-12T17:57:33,0.811,1284.4,21.45,18.15,23.78,837.510,2092.390,123.400002,20.94,2.4719,355,24055,2.00381,3.97,44065,,,,,,,,,,,,,,,,,,99999,99999,99999,99999,99999,99999,99999,99999,99999,99999,99999,99999
27:44:40,1510509480,2017-11-12T17:58:03,0.813,1284.8,21.46,18.18,23.75,837.460,2092.390,126.866669,19.46,2.4720,355,24057,2.00907,3.97,44067,,,,,,,,,,,,,,,,,,99999,99999,99999,99999,99999,99999,99999,99999,99999,99999,99999,99999
27:45:10,1510509510,2017-11-12T17:58:33,0.810,1285.2,21.46,18.20,23.75,837.430,2092.390,127.416664,19.38,2.4720,355,24061,2.00288,3.97,44070,,,,,,,,,,,,,,,,,,99999,99999,99999,99999,99999,99999,99999,99999,99999,99999,99999,99999
27:45:40,1510509540,2017-11-12T17:59:03,0.814,1285.6,21.45,18.23,23.78,837.460,2092.390,126.000000,19.85,2.4720,355,24060,2.01155,3.97,44072,,,,,,,,,,,,,,,,,,99999,99999,99999,99999,99999,99999,99999,99999,99999,99999,99999,99999
27:46:10,1510509570,2017-11-12T17:59:33,0.810,1286.0,21.45,18.24,23.73,837.460,2092.390,125.433334,19.80,2.4720,355,24058,2.00319,3.97,44075,,,,,,,,,,,,,,,,,,99999,99999,99999,99999,99999,99999,99999,99999,99999,99999,99999,99999
27:46:40,1510509600,2017-11-12T18:00:03,0.810,1286.4,21.45,18.23,23.73,837.410,2092.390,124.566666,19.23,2.4721,355,24059,2.00134,3.97,44077,,,,,,,,,,,,,,,,,,99999,99999,99999,99999,99999,99999,99999,99999,99999,99999,99999,99999
27:47:10,1510509630,2017-11-12T18:00:33,0.812,1286.8,21.44,18.25,23.75,837.360,2092.330,125.916664,19.22,2.4721,355,24060,2.00659,3.97,44080,,,,,,,,,,,,,,,,,,99999,99999,99999,99999,99999,99999,99999,99999,99999,99999,99999,99999
27:47:40,1510509660,2017-11-12T18:01:03,0.813,1287.2,21.44,18.26,23.76,837.410,2092.330,122.116669,20.05,2.4720,355,24060,2.01000,3.97,44082,,,,,,,,,,,,,,,,,,99999,99999,99999,99999,99999,99999,99999,99999,99999,99999,99999,99999
27:48:10,1510509690,2017-11-12T18:01:33,0.810,1287.6,21.43,18.26,23.75,837.380,2092.330,127.583336,19.46,2.4721,355,24058,2.00288,3.97,44085,,,,,,,,,,,,,,,,,,99999,99999,99999,99999,99999,99999,99999,99999,99999,99999,99999,99999
27:48:40,1510509720,2017-11-12T18:02:03,0.814,1288.0,21.43,18.26,23.76,837.380,2092.330,125.300003,18.72,2.4722,355,24057,2.01310,3.97,44087,,,,,,,,,,,,,,,,,,99999,99999,99999,99999,99999,99999,99999,99999,99999,99999,99999,99999
27:49:10,1510509750,2017-11-12T18:02:33,0.809,1288.4,21.41,18.25,23.72,837.330,2092.270,123.283333,19.79,2.4722,355,24058,1.99979,3.97,44089,,,,,,,,,,,,,,,,,,99999,99999,99999,99999,99999,99999,99999,99999,99999,99999,99999,99999
27:49:40,1510509780,2017-11-12T18:03:03,0.812,1288.8,21.39,18.26,23.72,837.360,2092.220,126.283333,18.68,2.4724,355,24058,2.00783,3.97,44092,,,,,,,,,,,,,,,,,,99999,99999,99999,99999,99999,99999,99999,99999,99999,99999,99999,99999
27:50:10,1510509810,2017-11-12T18:03:33,0.812,1289.2,21.38,18.24,23.65,837.340,2092.160,124.466667,19.31,2.4724,355,24061,2.00752,3.97,44094,,,,,,,,,,,,,,,,,,99999,99999,99999,99999,99999,99999,99999,99999,99999,99999,99999,99999
27:50:40,1510509840,2017-11-12T18:04:03,0.807,1289.6,21.36,18.23,23.65,837.240,2092.040,127.666664,19.31,2.4724,355,24057,1.99609,3.97,44097,,,,,,,,,,,,,,,,,,99999,99999,99999,99999,99999,99999,99999,99999,99999,99999,99999,99999
27:51:10,1510509870,2017-11-12T18:04:33,0.812,1290.0,21.35,18.24,23.64,837.260,2092.040,124.733330,20.11,2.4724,355,24060,2.00876,3.97,44099,,,,,,,,,,,,,,,,,,99999,99999,99999,99999,99999,99999,99999,99999,99999,99999,99999,99999
27:51:40,1510509900,2017-11-12T18:05:03,0.814,1290.4,21.34,18.25,23.65,837.240,2091.970,123.599998,20.13,2.4724,355,24060,2.01186,3.97,44101,,,,,,,,,,,,,,,,,,99999,99999,99999,99999,99999,99999,99999,99999,99999,99999,99999,99999
27:52:10,1510509930,2017-11-12T18:05:33,0.811,1290.9,21.33,18.25,23.64,837.220,2091.930,124.949997,20.05,2.4725,355,24060,2.00536,3.97,44104,,,,,,,,,,,,,,,,,,99999,99999,99999,99999,99999,99999,99999,99999,99999,99999,99999,99999
27:52:40,1510509960,2017-11-12T18:06:03,0.812,1291.3,21.31,18.24,23.60,837.330,2091.870,126.616669,19.50,2.4726,355,24059,2.00659,3.97,44106,,,,,,,,,,,,,,,,,,99999,99999,99999,99999,99999,99999,99999,99999,99999,99999,99999,99999
27:53:10,1510509990,2017-11-12T18:06:33,0.811,1291.7,21.30,18.21,23.64,837.250,2091.870,125.199997,19.36,2.4727,355,24057,2.00659,3.97,44108,,,,,,,,,,,,,,,,,,99999,99999,99999,99999,99999,99999,99999,99999,99999,99999,99999,99999
27:53:40,1510510020,2017-11-12T18:07:03,0.813,1292.1,21.29,18.21,23.54,837.250,2091.800,124.616669,19.29,2.4727,355,24057,2.01000,3.97,44110,,,,,,,,,,,,,,,,,,99999,99999,99999,99999,99999,99999,99999,99999,99999,99999,99999,99999
27:54:10,1510510050,2017-11-12T18:07:33,0.813,1292.5,21.27,18.20,23.52,837.250,2091.740,121.766670,19.35,2.4728,355,24057,2.01062,3.97,44113,,,,,,,,,,,,,,,,,,99999,99999,99999,99999,99999,99999,99999,99999,99999,99999,99999,99999
27:54:40,1510510080,2017-11-12T18:08:03,0.812,1292.9,21.24,18.20,23.49,837.180,2091.640,125.416664,19.05,2.4730,355,24058,2.00845,3.97,44115,,,,,,,,,,,,,,,,,,99999,99999,99999,99999,99999,99999,99999,99999,99999,99999,99999,99999
27:55:10,1510510110,2017-11-12T18:08:33,0.809,1293.3,21.21,18.17,23.49,837.170,2091.510,129.050003,19.95,2.4730,355,24053,1.99979,3.97,44117,,,,,,,,,,,,,,,,,,99999,99999,99999,99999,99999,99999,99999,99999,99999,99999,99999,99999
27:55:40,1510510140,2017-11-12T18:09:03,0.812,1293.7,21.19,18.16,23.48,837.090,2091.450,124.916664,19.11,2.4732,355,24056,2.00938,3.97,44119,,,,,,,,,,,,,,,,,,99999,99999,99999,99999,99999,99999,99999,99999,99999,99999,99999,99999
27:56:10,1510510170,2017-11-12T18:09:33,0.810,1294.1,21.19,18.17,23.46,837.220,2091.450,125.583336,20.31,2.4731,355,24057,2.00226,3.97,44121,,,,,,,,,,,,,,,,,,99999,99999,99999,99999,99999,99999,99999,99999,99999,99999,99999,99999
27:56:40,1510510200,2017-11-12T18:10:03,0.809,1294.5,21.18,18.16,23.44,837.060,2091.450,126.033333,20.63,2.4731,355,24057,2.00103,3.97,44124,,,,,,,,,,,,,,,,,,99999,99999,99999,99999,99999,99999,99999,99999,99999,99999,99999,99999
27:57:10,1510510230,2017-11-12T18:10:33,0.806,1294.9,21.18,18.17,23.46,837.120,2091.450,125.233330,19.64,2.4732,355,24056,1.99424,3.97,44126,,,,,,,,,,,,,,,,,,99999,99999,99999,99999,99999,99999,99999,99999,99999,99999,99999,99999
27:57:40,1510510260,2017-11-12T18:11:03,0.811,1295.3,21.18,18.17,23.44,837.090,2091.450,125.983330,19.76,2.4732,355,24058,2.00536,3.97,44128,,,,,,,,,,,,,,,,,,99999,99999,99999,99999,99999,99999,99999,99999,99999,99999,99999,99999
27:58:10,1510510290,2017-11-12T18:11:33,0.810,1295.7,21.18,18.18,23.46,837.090,2091.450,125.683334,19.32,2.4733,355,24056,2.00443,3.97,44130,,,,,,,,,,,,,,,,,,99999,99999,99999,99999,99999,99999,99999,99999,99999,99999,99999,99999
27:58:40,1510510320,2017-11-12T18:12:03,0.810,1296.1,21.18,18.19,23.46,836.980,2091.450,121.933334,19.35,2.4733,355,24054,2.00288,3.97,44132,,,,,,,,,,,,,,,,,,99999,99999,99999,99999,99999,99999,99999,99999,99999,99999,99999,99999
27:59:10,1510510350,2017-11-12T18:12:33,0.811,1296.5,21.18,18.17,23.46,837.060,2091.450,126.449997,20.13,2.4732,355,24056,2.00474,3.97,44134,,,,,,,,,,,,,,,,,,99999,99999,99999,99999,99999,99999,99999,99999,99999,99999,99999,99999
27:59:40,1510510380,2017-11-12T18:13:03,0.809,1296.9,21.19,18.17,23.42,837.060,2091.450,123.983330,18.98,2.4732,355,24056,1.99979,3.97,44136,,,,,,,,,,,,,,,,,,99999,99999,99999,99999,99999,99999,99999,99999,99999,99999,99999,99999
28:00:10,1510510410,2017-11-12T18:13:33,0.808,1297.3,21.18,18.17,23.46,837.040,2091.450,126.883331,19.12,2.4733,355,24055,1.99917,3.97,44138,,,,,,,,,,,,,,,,,,99999,99999,99999,99999,99999,99999,99999,99999,99999,99999,99999,99999
28:00:40,1510510440,2017-11-12T18:14:03,0.812,1297.7,21.18,18.16,23.46,837.010,2091.450,124.400002,19.38,2.4733,355,24058,2.00721,3.97,44140,,,,,,,,,,,,,,,,,,99999,99999,99999,99999,99999,99999,99999,99999,99999,99999,99999,99999
28:01:10,1510510470,2017-11-12T18:14:33,0.811,1298.1,21.17,18.15,23.42,836.990,2091.390,125.566666,19.37,2.4733,355,24055,2.00505,3.97,44142,,,,,,,,,,,,,,,,,,99999,99999,99999,99999,99999,99999,99999,99999,99999,99999,99999,99999
28:01:40,1510510500,2017-11-12T18:15:03,0.812,1298.5,21.16,18.17,23.42,837.010,2091.390,123.933334,19.23,2.4734,355,24057,2.00938,3.97,44144,,,,,,,,,,,,,,,,,,99999,99999,99999,99999,99999,99999,99999,99999,99999,99999,99999,99999
28:02:10,1510510530,2017-11-12T18:15:33,0.807,1298.9,21.17,18.14,23.41,836.960,2091.390,123.849998,18.60,2.4734,355,24058,1.99609,3.97,44146,,,,,,,,,,,,,,,,,,99999,99999,99999,99999,99999,99999,99999,99999,99999,99999,99999,99999
28:02:40,1510510560,2017-11-12T18:16:03,0.810,1299.4,21.17,18.15,23.41,836.930,2091.390,128.283340,20.15,2.4732,355,24056,2.00257,3.97,44148,,,,,,,,,,,,,,,,,,99999,99999,99999,99999,99999,99999,99999,99999,99999,99999,99999,99999
28:03:10,1510510590,2017-11-12T18:16:33,0.812,1299.8,21.17,18.16,23.40,836.960,2091.390,124.466667,18.49,2.4734,355,24056,2.00907,3.97,44150,,,,,,,,,,,,,,,,,,99999,99999,99999,99999,99999,99999,99999,99999,99999,99999,99999,99999
28:03:40,1510510620,2017-11-12T18:17:03,0.812,1300.2,21.17,18.18,23.38,837.040,2091.390,122.750000,19.75,2.4732,355,24056,2.00814,3.96,44152,,,,,,,,,,,,,,,,,,99999,99999,99999,99999,99999,99999,99999,99999,99999,99999,99999,99999
28:04:10,1510510650,2017-11-12T18:17:33,0.807,1300.6,21.17,18.15,23.42,837.040,2091.390,124.033333,19.56,2.4732,355,24055,1.99578,3.96,44153,,,,,,,,,,,,,,,,,,99999,99999,99999,99999,99999,99999,99999,99999,99999,99999,99999,99999
28:04:40,1510510680,2017-11-12T18:18:03,0.813,1301.0,21.17,18.14,23.41,836.990,2091.390,125.066666,19.68,2.4732,355,24054,2.00969,3.96,44154,,,,,,,,,,,,,,,,,,99999,99999,99999,99999,99999,99999,99999,99999,99999,99999,99999,99999
28:05:10,1510510710,2017-11-12T18:18:33,0.809,1301.4,21.17,18.12,23.38,836.880,2091.390,125.966667,19.03,2.4733,355,24054,2.00103,3.96,44155,,,,,,,,,,,,,,,,,,99999,99999,99999,99999,99999,99999,99999,99999,99999,99999,99999,99999
28:05:40,1510510740,2017-11-12T18:19:03,0.809,1301.8,21.14,18.08,23.36,837.070,2091.350,123.233330,18.79,2.4735,355,24050,2.00103,3.94,44155,,,,,,,,,,,,,,,,,,99999,99999,99999,99999,99999,99999,99999,99999,99999,99999,99999,99999
28:06:10,1510510770,2017-11-12T18:19:33,0.807,1302.2,21.13,18.03,23.32,837.020,2091.280,126.483330,19.89,2.4734,355,24047,1.99547,3.93,44154,,,,,,,,,,,,,,,,,,99999,99999,99999,99999,99999,99999,99999,99999,99999,99999,99999,99999
28:06:40,1510510800,2017-11-12T18:20:03,0.808,1302.6,21.08,17.94,23.33,837.000,2091.050,130.000000,18.44,2.4737,355,24044,1.99887,3.92,44151,,,,,,,,,,,,,,,,,,99999,99999,99999,99999,99999,99999,99999,99999,99999,99999,99999,99999
28:07:10,1510510830,2017-11-12T18:20:33,0.811,1303.0,21.02,17.80,23.26,836.960,2090.870,123.933334,18.51,2.4740,355,24040,2.00721,3.91,44146,,,,,,,,,,,,,,,,,,99999,99999,99999,99999,99999,99999,99999,99999,99999,99999,99999,99999
28:07:40,1510510860,2017-11-12T18:21:03,0.803,1303.4,20.98,17.72,23.22,837.000,2090.700,127.983330,19.33,2.4741,355,24035,1.98746,3.91,44142,,,,,,,,,,,,,,,,,,99999,99999,99999,99999,99999,99999,99999,99999,99999,99999,99999,99999
28:08:10,1510510890,2017-11-12T18:21:33,0.810,1303.8,20.91,17.63,23.14,837.040,2090.470,125.216667,18.63,2.4745,355,24032,2.00350,3.91,44138,,,,,,,,,,,,,,,,,,99999,99999,99999,99999,99999,99999,99999,99999,99999,99999,99999,99999
28:08:40,1510510920,2017-11-12T18:22:03,0.811,1304.2,20.84,17.54,23.04,836.920,2090.240,124.949997,18.97,2.4748,355,24029,2.00598,3.91,44133,,,,,,,,,,,,,,,,,,99999,99999,99999,99999,99999,99999,99999,99999,99999,99999,99999,99999
28:09:10,1510510950,2017-11-12T18:22:33,0.809,1304.6,20.77,17.46,22.96,836.970,2090.010,124.783333,19.90,2.4750,355,24029,2.00319,3.91,44129,,,,,,,,,,,,,,,,,,99999,99999,99999,99999,99999,99999,99999,99999,99999,99999,99999,99999
28:09:40,1510510980,2017-11-12T18:23:03,0.805,1305.0,20.70,17.42,22.88,836.950,2089.760,121.883331,19.99,2.4753,355,24028,1.99331,3.92,44125,,,,,,,,,,,,,,,,,,99999,99999,99999,99999,99999,99999,99999,99999,99999,99999,99999,99999
28:10:10,1510511010,2017-11-12T18:23:33,0.802,1305.4,20.65,17.37,22.82,836.960,2089.590,124.433334,19.71,2.4755,355,24027,1.98622,3.93,44122,,,,,,,,,,,,,,,,,,99999,99999,99999,99999,99999,99999,99999,99999,99999,99999,99999,99999
28:10:40,1510511040,2017-11-12T18:24:03,0.803,1305.8,20.60,17.35,22.76,836.870,2089.430,123.000000,19.39,2.4758,355,24030,1.98869,3.94,44121,,,,,,,,,,,,,,,,,,99999,99999,99999,99999,99999,99999,99999,99999,99999,99999,99999,99999
28:11:10,1510511070,2017-11-12T18:24:33,0.808,1306.2,20.55,17.35,22.72,836.880,2089.230,123.216667,19.19,2.4760,355,24028,2.00041,3.96,44121,,,,,,,,,,,,,,,,,,99999,99999,99999,99999,99999,99999,99999,99999,99999,99999,99999,99999
28:11:40,1510511100,2017-11-12T18:25:03,0.807,1306.6,20.52,17.37,22.64,836.860,2089.130,123.099998,19.97,2.4761,355,24031,1.99887,3.96,44122,,,,,,,,,,,,,,,,,,99999,99999,99999,99999,99999,99999,99999,99999,99999,99999,99999,99999
28:12:10,1510511130,2017-11-12T18:25:33,0.805,1307.0,20.48,17.42,22.62,836.870,2089.010,126.916664,19.77,2.4763,355,24031,1.99362,3.96,44124,,,,,,,,,,,,,,,,,,99999,99999,99999,99999,99999,99999,99999,99999,99999,99999,99999,99999
28:12:40,1510511160,2017-11-12T18:26:03,0.808,1307.4,20.47,17.46,22.57,836.900,2088.940,123.550003,20.74,2.4762,355,24036,2.00134,3.96,44125,,,,,,,,,,,,,,,,,,99999,99999,99999,99999,99999,99999,99999,99999,99999,99999,99999,99999
28:13:10,1510511190,2017-11-12T18:26:33,0.804,1307.8,20.45,17.50,22.54,836.850,2088.840,119.500000,19.74,2.4764,355,24035,1.99208,3.96,44127,,,,,,,,,,,,,,,,,,99999,99999,99999,99999,99999,99999,99999,99999,99999,99999,99999,99999
28:13:40,1510511220,2017-11-12T18:27:03,0.802,1308.2,20.44,17.51,22.57,836.880,2088.840,124.166664,18.75,2.4766,355,24033,1.98530,3.96,44128,,,,,,,,,,,,,,,,,,99999,99999,99999,99999,99999,99999,99999,99999,99999,99999,99999,99999
28:14:10,1510511250,2017-11-12T18:27:33,0.804,1308.6,20.42,17.51,22.57,836.930,2088.780,123.533333,19.54,2.4766,355,24036,1.99239,3.96,44130,,,,,,,,,,,,,,,,,,99999,99999,99999,99999,99999,99999,99999,99999,99999,99999,99999,99999
28:14:40,1510511280,2017-11-12T18:28:03,0.807,1309.0,20.41,17.55,22.50,836.800,2088.710,122.733330,20.30,2.4765,355,24035,1.99825,3.96,44131,,,,,,,,,,,,,,,,,,99999,99999,99999,99999,99999,99999,99999,99999,99999,99999,99999,99999
28:15:10,1510511310,2017-11-12T18:28:33,0.807,1309.4,20.41,17.56,22.54,836.800,2088.710,123.900002,20.95,2.4764,355,24034,1.99763,3.96,44133,,,,,,,,,,,,,,,,,,99999,99999,99999,99999,99999,99999,99999,99999,99999,99999,99999,99999
28:15:40,1510511340,2017-11-12T18:29:03,0.809,1309.8,20.42,17.56,22.54,836.850,2088.780,124.266670,21.18,2.4764,355,24038,2.00226,3.96,44134,,,,,,,,,,,,,,,,,,99999,99999,99999,99999,99999,99999,99999,99999,99999,99999,99999,99999
28:16:10,1510511370,2017-11-12T18:29:33,0.804,1310.2,20.42,17.58,22.56,836.880,2088.780,122.050003,20.15,2.4765,355,24038,1.99115,3.96,44136,,,,,,,,,,,,,,,,,,99999,99999,99999,99999,99999,99999,99999,99999,99999,99999,99999,99999
28:16:40,1510511400,2017-11-12T18:30:03,0.806,1310.7,20.46,17.62,22.54,836.690,2088.840,124.666664,20.24,2.4762,355,24037,1.99578,3.96,44137,,,,,,,,,,,,,,,,,,99999,99999,99999,99999,99999,99999,99999,99999,99999,99999,99999,99999
28:17:10,1510511430,2017-11-12T18:30:33,0.805,1311.1,20.48,17.62,22.62,836.840,2089.010,120.866669,20.53,2.4762,355,24037,1.99331,3.96,44138,,,,,,,,,,,,,,,,,,99999,99999,99999,99999,99999,99999,99999,99999,99999,99999,99999,99999
28:17:40,1510511460,2017-11-12T18:31:03,0.803,1311.5,20.49,17.63,22.60,836.750,2089.070,122.349998,20.22,2.4762,355,24039,1.98961,3.96,44140,,,,,,,,,,,,,,,,,,99999,99999,99999,99999,99999,99999,99999,99999,99999,99999,99999,99999
28:18:10,1510511490,2017-11-12T18:31:33,0.803,1311.9,20.51,17.65,22.65,836.690,2089.130,123.050003,19.87,2.4762,355,24040,1.98807,3.96,44141,,,,,,,,,,,,,,,,,,99999,99999,99999,99999,99999,99999,99999,99999,99999,99999,99999,99999
28:18:40,1510511520,2017-11-12T18:32:03,0.806,1312.3,20.54,17.65,22.67,836.720,2089.200,121.900002,19.86,2.4760,355,24040,1.99547,3.96,44142,,,,,,,,,,,,,,,,,,99999,99999,99999,99999,99999,99999,99999,99999,99999,99999,99999,99999
28:19:10,1510511550,2017-11-12T18:32:33,0.809,1312.7,20.56,17.64,22.70,836.660,2089.230,123.666664,19.95,2.4759,355,24040,2.00288,3.96,44144,,,,,,,,,,,,,,,,,,99999,99999,99999,99999,99999,99999,99999,99999,99999,99999,99999,99999
28:19:40,1510511580,2017-11-12T18:33:03,0.809,1313.1,20.58,17.65,22.72,836.660,2089.300,124.250000,18.97,2.4759,355,24041,2.00319,3.96,44145,,,,,,,,,,,,,,,,,,99999,99999,99999,99999,99999,99999,99999,99999,99999,99999,99999,99999
28:20:10,1510511610,2017-11-12T18:33:33,0.801,1313.5,20.60,17.65,22.74,836.570,2089.430,128.066666,20.17,2.4757,355,24039,1.98192,3.96,44146,,,,,,,,,,,,,,,,,,99999,99999,99999,99999,99999,99999,99999,99999,99999,99999,99999,99999
28:20:40,1510511640,2017-11-12T18:34:03,0.808,1313.9,20.62,17.67,22.75,836.680,2089.470,125.816666,19.77,2.4756,355,24039,2.00134,3.96,44147,,,,,,,,,,,,,,,,,,99999,99999,99999,99999,99999,99999,99999,99999,99999,99999,99999,99999
28:21:10,1510511670,2017-11-12T18:34:33,0.806,1314.3,20.64,17.66,22.76,836.670,2089.530,122.333336,19.51,2.4756,355,24040,1.99485,3.96,44148,,,,,,,,,,,,,,,,,,99999,99999,99999,99999,99999,99999,99999,99999,99999,99999,99999,99999
28:21:40,1510511700,2017-11-12T18:35:03,0.798,1314.7,20.65,17.67,22.78,836.640,2089.590,134.866669,19.42,2.4756,355,24040,1.97578,3.96,44150,,,,,,,,,,,,,,,,,,99999,99999,99999,99999,99999,99999,99999,99999,99999,99999,99999,99999
28:22:10,1510511730,2017-11-12T18:35:33,0.809,1315.1,20.67,17.66,22.82,836.690,2089.650,122.900002,20.09,2.4754,355,24039,2.00164,3.96,44151,,,,,,,,,,,,,,,,,,99999,99999,99999,99999,99999,99999,99999,99999,99999,99999,99999,99999
28:22:40,1510511760,2017-11-12T18:36:03,0.802,1315.5,20.67,17.66,22.80,836.610,2089.650,126.849998,19.94,2.4754,355,24039,1.98500,3.96,44152,,,,,,,,,,,,,,,,,,99999,99999,99999,99999,99999,99999,99999,99999,99999,99999,99999,99999
28:23:10,1510511790,2017-11-12T18:36:33,0.808,1315.9,20.69,17.65,22.82,836.630,2089.720,123.283333,19.40,2.4754,355,24039,1.99979,3.96,44153,,,,,,,,,,,,,,,,,,99999,99999,99999,99999,99999,99999,99999,99999,99999,99999,99999,99999
28:23:40,1510511820,2017-11-12T18:37:03,0.802,1316.3,20.69,17.65,22.82,836.610,2089.720,125.500000,19.62,2.4754,355,24038,1.98561,3.96,44154,,,,,,,,,,,,,,,,,,99999,99999,99999,99999,99999,99999,99999,99999,99999,99999,99999,99999
28:24:10,1510511850,2017-11-12T18:37:33,0.807,1316.7,20.69,17.65,22.82,836.610,2089.720,123.750000,19.83,2.4753,355,24039,1.99763,3.96,44155,,,,,,,,,,,,,,,,,,99999,99999,99999,99999,99999,99999,99999,99999,99999,99999,99999,99999
28:24:40,1510511880,2017-11-12T18:38:03,0.811,1317.1,20.68,17.62,22.82,836.630,2089.650,120.849998,19.98,2.4753,355,24038,2.00783,3.96,44156,,,,,,,,,,,,,,,,,,99999,99999,99999,99999,99999,99999,99999,99999,99999,99999,99999,99999
28:25:10,1510511910,2017-11-12T18:38:33,0.805,1317.5,20.69,17.61,22.80,836.630,2089.720,122.833336,20.75,2.4752,355,24037,1.99270,3.96,44157,,,,,,,,,,,,,,,,,,99999,99999,99999,99999,99999,99999,99999,99999,99999,99999,99999,99999
28:25:40,1510511940,2017-11-12T18:39:03,0.811,1317.9,20.69,17.59,22.83,836.630,2089.720,122.233330,19.81,2.4753,355,24037,2.00752,3.96,44158,,,,,,,,,,,,,,,,,,99999,99999,99999,99999,99999,99999,99999,99999,99999,99999,99999,99999
28:26:10,1510511970,2017-11-12T18:39:33,0.810,1318.3,20.69,17.58,22.83,836.550,2089.720,123.750000,19.93,2.4753,355,24038,2.00505,3.96,44159,,,,,,,,,,,,,,,,,,99999,99999,99999,99999,99999,99999,99999,99999,99999,99999,99999,99999
28:26:40,1510512000,2017-11-12T18:40:03,0.807,1318.7,20.69,17.60,22.82,836.610,2089.720,122.050003,20.16,2.4753,355,24035,1.99825,3.96,44160,,,,,,,,,,,,,,,,,,99999,99999,99999,99999,99999,99999,99999,99999,99999,99999,99999,99999
28:27:10,1510512030,2017-11-12T18:40:33,0.801,1319.1,20.69,17.59,22.83,836.580,2089.720,127.216667,19.56,2.4754,355,24038,1.98192,3.96,44161,,,,,,,,,,,,,,,,,,99999,99999,99999,99999,99999,99999,99999,99999,99999,99999,99999,99999
28:27:40,1510512060,2017-11-12T18:41:03,0.808,1319.5,20.69,17.58,22.84,836.580,2089.720,124.099998,19.23,2.4754,355,24035,2.00041,3.96,44162,,,,,,,,,,,,,,,,,,99999,99999,99999,99999,99999,99999,99999,99999,99999,99999,99999,99999
28:28:10,1510512090,2017-11-12T18:41:33,0.804,1319.9,20.70,17.57,22.86,836.660,2089.760,123.583336,19.72,2.4753,355,24039,1.99084,3.96,44163,,,,,,,,,,,,,,,,,,99999,99999,99999,99999,99999,99999,99999,99999,99999,99999,99999,99999
28:28:40,1510512120,2017-11-12T18:42:03,0.804,1320.3,20.69,17.57,22.78,836.580,2089.720,123.033333,19.53,2.4754,355,24036,1.98992,3.96,44164,,,,,,,,,,,,,,,,,,99999,99999,99999,99999,99999,99999,99999,99999,99999,99999,99999,99999
28:29:10,1510512150,2017-11-12T18:42:33,0.808,1320.7,20.68,17.54,22.82,836.580,2089.650,124.250000,20.44,2.4753,355,24033,1.99979,3.96,44165,,,,,,,,,,,,,,,,,,99999,99999,99999,99999,99999,99999,99999,99999,99999,99999,99999,99999
28:29:40,1510512180,2017-11-12T18:43:03,0.806,1321.1,20.68,17.55,22.83,836.550,2089.650,126.449997,19.40,2.4754,355,24037,1.99424,3.96,44165,,,,,,,,,,,,,,,,,,99999,99999,99999,99999,99999,99999,99999,99999,99999,99999,99999,99999
28:30:10,1510512210,2017-11-12T18:43:33,0.805,1321.5,20.67,17.53,22.78,836.560,2089.650,124.250000,19.67,2.4754,355,24036,1.99177,3.96,44166,,,,,,,,,,,,,,,,,,99999,99999,99999,99999,99999,99999,99999,99999,99999,99999,99999,99999
28:30:40,1510512240,2017-11-12T18:44:03,0.802,1321.9,20.65,17.52,22.75,836.610,2089.590,125.183334,19.19,2.4756,355,24032,1.98622,3.96,44167,,,,,,,,,,,,,,,,,,99999,99999,99999,99999,99999,99999,99999,99999,99999,99999,99999,99999
28:31:10,1510512270,2017-11-12T18:44:33,0.802,1322.3,20.64,17.50,22.76,836.590,2089.530,124.000000,19.37,2.4756,355,24032,1.98500,3.96,44168,,,,,,,,,,,,,,,,,,99999,99999,99999,99999,99999,99999,99999,99999,99999,99999,99999,99999
28:31:40,1510512300,2017-11-12T18:45:03,0.808,1322.7,20.62,17.48,22.78,836.650,2089.470,125.033333,19.61,2.4757,355,24034,1.99979,3.96,44169,,,,,,,,,,,,,,,,,,99999,99999,99999,99999,99999,99999,99999,99999,99999,99999,99999,99999
28:32:10,1510512330,2017-11-12T18:45:33,0.805,1323.1,20.60,17.47,22.74,836.630,2089.430,124.000000,20.03,2.4757,355,24033,1.99393,3.96,44169,,,,,,,,,,,,,,,,,,99999,99999,99999,99999,99999,99999,99999,99999,99999,99999,99999,99999
28:32:40,1510512360,2017-11-12T18:46:03,0.807,1323.5,20.59,17.45,22.70,836.470,2089.430,119.866669,19.74,2.4759,355,24032,1.99856,3.96,44170,,,,,,,,,,,,,,,,,,99999,99999,99999,99999,99999,99999,99999,99999,99999,99999,99999,99999
28:33:10,1510512390,2017-11-12T18:46:33,0.805,1323.9,20.59,17.47,22.68,836.600,2089.430,121.766670,20.22,2.4758,355,24031,1.99270,3.96,44171,,,,,,,,,,,,,,,,,,99999,99999,99999,99999,99999,99999,99999,99999,99999,99999,99999,99999
28:33:40,1510512420,2017-11-12T18:47:03,0.807,1324.4,20.58,17.46,22.67,836.630,2089.300,127.133331,19.73,2.4758,355,24033,1.99701,3.96,44171,,,,,,,,,,,,,,,,,,99999,99999,99999,99999,99999,99999,99999,99999,99999,99999,99999,99999
28:34:10,1510512450,2017-11-12T18:47:33,0.806,1324.8,20.58,17.45,22.70,836.580,2089.300,122.816666,19.85,2.4758,355,24034,1.99671,3.96,44172,,,,,,,,,,,,,,,,,,99999,99999,99999,99999,99999,99999,99999,99999,99999,99999,99999,99999
28:34:40,1510512480,2017-11-12T18:48:03,0.805,1325.2,20.59,17.45,22.68,836.520,2089.430,122.300003,20.17,2.4758,355,24033,1.99393,3.96,44173,,,,,,,,,,,,,,,,,,99999,99999,99999,99999,99999,99999,99999,99999,99999,99999,99999,99999
28:35:10,1510512510,2017-11-12T18:48:33,0.806,1325.6,20.58,17.45,22.70,836.500,2089.300,124.966667,20.21,2.4757,355,24031,1.99424,3.96,44173,,,,,,,,,,,,,,,,,,99999,99999,99999,99999,99999,99999,99999,99999,99999,99999,99999,99999
28:35:40,1510512540,2017-11-12T18:49:03,0.803,1326.0,20.56,17.45,22.68,836.530,2089.230,125.983330,20.49,2.4758,355,24034,1.98838,3.96,44174,,,,,,,,,,,,,,,,,,99999,99999,99999,99999,99999,99999,99999,99999,99999,99999,99999,99999
28:36:10,1510512570,2017-11-12T18:49:33,0.805,1326.4,20.58,17.45,22.70,836.500,2089.300,123.016670,20.31,2.4757,355,24029,1.99177,3.96,44175,,,,,,,,,,,,,,,,,,99999,99999,99999,99999,99999,99999,99999,99999,99999,99999,99999,99999
28:36:40,1510512600,2017-11-12T18:50:03,0.804,1326.8,20.58,17.44,22.67,836.470,2089.300,122.116669,20.61,2.4757,355,24030,1.99146,3.96,44175,,,,,,,,,,,,,,,,,,99999,99999,99999,99999,99999,99999,99999,99999,99999,99999,99999,99999
28:37:10,1510512630,2017-11-12T18:50:33,0.805,1327.2,20.59,17.43,22.67,836.520,2089.430,121.566666,20.02,2.4758,355,24031,1.99362,3.96,44176,,,,,,,,,,,,,,,,,,99999,99999,99999,99999,99999,99999,99999,99999,99999,99999,99999,99999
28:37:40,1510512660,2017-11-12T18:51:03,0.804,1327.6,20.60,17.45,22.70,836.410,2089.430,124.283333,19.88,2.4758,355,24031,1.98930,3.96,44176,,,,,,,,,,,,,,,,,,99999,99999,99999,99999,99999,99999,99999,99999,99999,99999,99999,99999
28:38:10,1510512690,2017-11-12T18:51:33,0.803,1328.0,20.60,17.45,22.72,836.490,2089.430,123.683334,20.49,2.4757,355,24031,1.98869,3.96,44177,,,,,,,,,,,,,,,,,,99999,99999,99999,99999,99999,99999,99999,99999,99999,99999,99999,99999
28:38:40,1510512720,2017-11-12T18:52:03,0.808,1328.4,20.61,17.46,22.70,836.520,2089.470,124.849998,20.23,2.4757,355,24031,1.99948,3.95,44178,,,,,,,,,,,,,,,,,,99999,99999,99999,99999,99999,99999,99999,99999,99999,99999,99999,99999
28:39:10,1510512750,2017-11-12T18:52:33,0.804,1328.8,20.62,17.47,22.67,836.410,2089.470,121.283333,19.74,2.4757,355,24032,1.99084,3.95,44178,,,,,,,,,,,,,,,,,,99999,99999,99999,99999,99999,99999,99999,99999,99999,99999,99999,99999
28:39:40,1510512780,2017-11-12T18:53:03,0.804,1329.2,20.63,17.48,22.72,836.460,2089.530,124.500000,20.86,2.4755,355,24032,1.99146,3.95,44178,,,,,,,,,,,,,,,,,,99999,99999,99999,99999,99999,99999,99999,99999,99999,99999,99999,99999
28:40:10,1510512810,2017-11-12T18:53:33,0.803,1329.6,20.64,17.48,22.74,836.480,2089.530,125.150002,20.22,2.4755,355,24032,1.98684,3.95,44179,,,,,,,,,,,,,,,,,,99999,99999,99999,99999,99999,99999,99999,99999,99999,99999,99999,99999
28:40:40,1510512840,2017-11-12T18:54:03,0.806,1330.0,20.67,17.51,22.74,836.420,2089.650,121.516670,20.97,2.4753,355,24034,1.99424,3.95,44179,,,,,,,,,,,,,,,,,,99999,99999,99999,99999,99999,99999,99999,99999,99999,99999,99999,99999
28:41:10,1510512870,2017-11-12T18:54:33,0.809,1330.4,20.69,17.50,22.78,836.390,2089.720,125.416664,20.05,2.4753,355,24034,2.00196,3.95,44180,,,,,,,,,,,,,,,,,,99999,99999,99999,99999,99999,99999,99999,99999,99999,99999,99999,99999
28:41:40,1510512900,2017-11-12T18:55:03,0.801,1330.8,20.72,17.53,22.80,836.380,2089.880,128.116669,19.81,2.4753,355,24033,1.98223,3.95,44180,,,,,,,,,,,,,,,,,,99999,99999,99999,99999,99999,99999,99999,99999,99999,99999,99999,99999
28:42:10,1510512930,2017-11-12T18:55:33,0.810,1331.2,20.74,17.54,22.84,836.350,2089.950,121.949997,20.03,2.4752,355,24033,2.00505,3.95,44181,,,,,,,,,,,,,,,,,,99999,99999,99999,99999,99999,99999,99999,99999,99999,99999,99999,99999
28:42:40,1510512960,2017-11-12T18:56:03,0.807,1331.6,20.75,17.55,22.83,836.430,2089.950,126.333336,19.88,2.4751,355,24034,1.99856,3.95,44181,,,,,,,,,,,,,,,,,,99999,99999,99999,99999,99999,99999,99999,99999,99999,99999,99999,99999
28:43:10,1510512990,2017-11-12T18:56:33,0.807,1332.0,20.77,17.55,22.82,836.430,2090.010,122.733330,20.76,2.4749,355,24035,1.99701,3.95,44181,,,,,,,,,,,,,,,,,,99999,99999,99999,99999,99999,99999,99999,99999,99999,99999,99999,99999
28:43:40,1510513020,2017-11-12T18:57:03,0.809,1332.4,20.78,17.57,22.84,836.420,2090.050,120.783333,20.12,2.4749,355,24036,2.00196,3.95,44182,,,,,,,,,,,,,,,,,,99999,99999,99999,99999,99999,99999,99999,99999,99999,99999,99999,99999
28:44:10,1510513050,2017-11-12T18:57:33,0.804,1332.8,20.80,17.57,22.90,836.450,2090.120,129.316666,19.41,2.4749,355,24034,1.98900,3.95,44182,,,,,,,,,,,,,,,,,,99999,99999,99999,99999,99999,99999,99999,99999,99999,99999,99999,99999
28:44:40,1510513080,2017-11-12T18:58:03,0.803,1333.2,20.80,17.57,22.88,836.360,2090.120,126.333336,19.39,2.4749,355,24031,1.98776,3.95,44182,,,,,,,,,,,,,,,,,,99999,99999,99999,99999,99999,99999,99999,99999,99999,99999,99999,99999
28:45:10,1510513110,2017-11-12T18:58:33,0.802,1333.6,20.81,17.56,22.90,836.450,2090.120,127.150002,19.93,2.4748,355,24033,1.98407,3.95,44182,,,,,,,,,,,,,,,,,,99999,99999,99999,99999,99999,99999,99999,99999,99999,99999,99999,99999
28:45:40,1510513140,2017-11-12T18:59:03,0.804,1334.0,20.81,17.57,22.88,836.500,2090.120,125.316666,19.77,2.4748,355,24034,1.98961,3.95,44183,,,,,,,,,,,,,,,,,,99999,99999,99999,99999,99999,99999,99999,99999,99999,99999,99999,99999
28:46:10,1510513170,2017-11-12T18:59:32,0.807,1334.4,20.81,17.55,22.86,836.390,2090.120,124.316666,20.54,2.4747,355,24035,1.99763,3.95,44183,,,,,,,,,,,,,,,,,,99999,99999,99999,99999,99999,99999,99999,99999,99999,99999,99999,99999
28:46:40,1510513200,2017-11-12T19:00:02,0.806,1334.8,20.81,17.55,22.90,836.450,2090.120,128.149994,20.00,2.4748,355,24034,1.99393,3.95,44183,,,,,,,,,,,,,,,,,,99999,99999,99999,99999,99999,99999,99999,99999,99999,99999,99999,99999
28:47:10,1510513230,2017-11-12T19:00:33,0.809,1335.2,20.81,17.55,22.86,836.450,2090.120,124.366669,20.54,2.4747,355,24032,2.00103,3.95,44183,,,,,,,,,,,,,,,,,,99999,99999,99999,99999,99999,99999,99999,99999,99999,99999,99999,99999
28:47:40,1510513260,2017-11-12T19:01:03,0.807,1335.6,20.81,17.56,22.86,836.500,2090.120,124.199997,20.76,2.4747,355,24034,1.99701,3.95,44183,,,,,,,,,,,,,,,,,,99999,99999,99999,99999,99999,99999,99999,99999,99999,99999,99999,99999
28:48:10,1510513290,2017-11-12T19:01:33,0.807,1336.0,20.83,17.57,22.88,836.470,2090.180,122.566666,20.81,2.4746,355,24035,1.99732,3.95,44183,,,,,,,,,,,,,,,,,,99999,99999,99999,99999,99999,99999,99999,99999,99999,99999,99999,99999
28:48:40,1510513320,2017-11-12T19:02:02,0.807,1336.4,20.84,17.58,22.90,836.410,2090.240,120.916664,20.69,2.4746,355,24034,1.99732,3.95,44184,,,,,,,,,,,,,,,,,,99999,99999,99999,99999,99999,99999,99999,99999,99999,99999,99999,99999
28:49:10,1510513350,2017-11-12T19:02:32,0.810,1336.8,20.87,17.60,22.92,836.480,2090.340,123.666664,20.48,2.4745,355,24035,2.00505,3.95,44184,,,,,,,,,,,,,,,,,,99999,99999,99999,99999,99999,99999,99999,99999,99999,99999,99999,99999
28:49:40,1510513380,2017-11-12T19:03:02,0.807,1337.2,20.88,17.63,22.90,836.400,2090.400,123.633331,20.04,2.4745,355,24037,1.99763,3.95,44184,,,,,,,,,,,,,,,,,,99999,99999,99999,99999,99999,99999,99999,99999,99999,99999,99999,99999
28:50:10,1510513410,2017-11-12T19:03:32,0.807,1337.7,20.91,17.62,22.96,836.470,2090.470,125.783333,20.06,2.4743,355,24033,1.99640,3.95,44184,,,,,,,,,,,,,,,,,,99999,99999,99999,99999,99999,99999,99999,99999,99999,99999,99999,99999
28:50:40,1510513440,2017-11-12T19:04:02,0.809,1338.1,20.92,17.65,22.96,836.370,2090.530,123.116669,19.94,2.4743,355,24036,2.00288,3.95,44184,,,,,,,,,,,,,,,,,,99999,99999,99999,99999,99999,99999,99999,99999,99999,99999,99999,99999
28:51:10,1510513470,2017-11-12T19:04:32,0.810,1338.5,20.94,17.65,22.99,836.470,2090.570,121.466667,21.05,2.4741,355,24037,2.00412,3.95,44184,,,,,,,,,,,,,,,,,,99999,99999,99999,99999,99999,99999,99999,99999,99999,99999,99999,99999
28:51:40,1510513500,2017-11-12T19:05:02,0.809,1338.9,20.96,17.65,23.00,836.330,2090.630,124.733330,20.69,2.4740,355,24035,2.00072,3.95,44184,,,,,,,,,,,,,,,,,,99999,99999,99999,99999,99999,99999,99999,99999,99999,99999,99999,99999
28:52:10,1510513530,2017-11-12T19:05:32,0.811,1339.3,20.99,17.68,23.02,836.490,2090.820,125.750000,20.51,2.4740,355,24033,2.00690,3.91,44182,,,,,,,,,,,,,,,,,,99999,99999,99999,99999,99999,99999,99999,99999,99999,99999,99999,99999
28:52:40,1510513560,2017-11-12T19:06:02,0.811,1339.7,21.01,17.67,23.04,836.370,2090.870,124.016670,20.21,2.4739,355,24031,2.00567,3.91,44177,,,,,,,,,,,,,,,,,,99999,99999,99999,99999,99999,99999,99999,99999,99999,99999,99999,99999
28:53:10,1510513590,2017-11-12T19:06:32,0.810,1340.1,21.05,17.65,23.07,836.390,2090.990,124.966667,19.88,2.4738,355,24033,2.00412,3.91,44171,,,,,,,,,,,,,,,,,,99999,99999,99999,99999,99999,99999,99999,99999,99999,99999,99999,99999
28:53:40,1510513620,2017-11-12T19:07:02,0.808,1340.5,21.06,17.66,23.08,836.410,2090.990,124.233330,19.45,2.4737,355,24032,1.99856,3.91,44166,,,,,,,,,,,,,,,,,,99999,99999,99999,99999,99999,99999,99999,99999,99999,99999,99999,99999
28:54:10,1510513650,2017-11-12T19:07:32,0.809,1340.9,21.10,17.66,23.12,836.460,2091.120,123.083336,20.04,2.4735,355,24033,2.00164,3.90,44161,,,,,,,,,,,,,,,,,,99999,99999,99999,99999,99999,99999,99999,99999,99999,99999,99999,99999
28:54:40,1510513680,2017-11-12T19:08:02,0.808,1341.3,21.11,17.66,23.12,836.460,2091.160,122.750000,21.15,2.4733,355,24029,1.99794,3.90,44156,,,,,,,,,,,,,,,,,,99999,99999,99999,99999,99999,99999,99999,99999,99999,99999,99999,99999
28:55:10,1510513710,2017-11-12T19:08:32,0.812,1341.7,21.13,17.64,23.17,836.320,2091.280,122.750000,19.77,2.4734,355,24029,2.00721,3.90,44151,,,,,,,,,,,,,,,,,,99999,99999,99999,99999,99999,99999,99999,99999,99999,99999,99999,99999
28:55:40,1510513740,2017-11-12T19:09:02,0.813,1342.1,21.14,17.64,23.17,836.320,2091.350,124.716667,20.73,2.4733,355,24031,2.01093,3.90,44145,,,,,,,,,,,,,,,,,,99999,99999,99999,99999,99999,99999,99999,99999,99999,99999,99999,99999
28:56:10,1510513770,2017-11-12T19:09:32,0.809,1342.5,21.17,17.65,23.22,836.340,2091.390,122.016670,20.00,2.4732,355,24031,1.99979,3.90,44140,,,,,,,,,,,,,,,,,,99999,99999,99999,99999,99999,99999,99999,99999,99999,99999,99999,99999
28:56:40,1510513800,2017-11-12T19:10:02,0.811,1342.9,21.19,17.64,23.23,836.260,2091.450,124.449997,20.25,2.4731,355,24032,2.00536,3.90,44135,,,,,,,,,,,,,,,,,,99999,99999,99999,99999,99999,99999,99999,99999,99999,99999,99999,99999
28:57:10,1510513830,2017-11-12T19:10:32,0.807,1343.3,21.20,17.66,23.25,836.280,2091.510,126.183334,20.17,2.4731,355,24032,1.99609,3.90,44130,,,,,,,,,,,,,,,,,,99999,99999,99999,99999,99999,99999,99999,99999,99999,99999,99999,99999
28:57:40,1510513860,2017-11-12T19:11:02,0.808,1343.7,21.21,17.65,23.28,836.280,2091.510,123.983330,19.36,2.4731,355,24031,1.99794,3.90,44125,,,,,,,,,,,,,,,,,,99999,99999,99999,99999,99999,99999,99999,99999,99999,99999,99999,99999
28:58:10,1510513890,2017-11-12T19:11:32,0.811,1344.1,21.22,17.64,23.25,836.250,2091.570,122.250000,19.84,2.4730,355,24028,2.00628,3.90,44120,,,,,,,,,,,,,,,,,,99999,99999,99999,99999,99999,99999,99999,99999,99999,99999,99999,99999
28:58:40,1510513920,2017-11-12T19:12:02,0.808,1344.5,21.22,17.64,23.25,836.220,2091.570,124.349998,19.48,2.4730,355,24029,1.99732,3.90,44114,,,,,,,,,,,,,,,,,,99999,99999,99999,99999,99999,99999,99999,99999,99999,99999,99999,99999
28:59:10,1510513950,2017-11-12T19:12:32,0.811,1344.9,21.24,17.65,23.28,836.270,2091.640,125.800003,20.41,2.4728,355,24032,2.00443,3.90,44109,,,,,,,,,,,,,,,,,,99999,99999,99999,99999,99999,99999,99999,99999,99999,99999,99999,99999
28:59:40,1510513980,2017-11-12T19:13:02,0.807,1345.3,21.23,17.64,23.25,836.190,2091.570,124.316666,19.75,2.4729,355,24031,1.99609,3.90,44104,,,,,,,,,,,,,,,,,,99999,99999,99999,99999,99999,99999,99999,99999,99999,99999,99999,99999
29:00:10,1510514010,2017-11-12T19:13:32,0.809,1345.7,21.25,17.65,23.28,836.240,2091.640,123.783333,19.97,2.4728,355,24032,2.00041,3.90,44099,,,,,,,,,,,,,,,,,,99999,99999,99999,99999,99999,99999,99999,99999,99999,99999,99999,99999
29:00:40,1510514040,2017-11-12T19:14:02,0.807,1346.1,21.25,17.65,23.30,836.190,2091.640,124.949997,19.28,2.4729,355,24033,1.99578,3.90,44094,,,,,,,,,,,,,,,,,,99999,99999,99999,99999,99999,99999,99999,99999,99999,99999,99999,99999
29:01:10,1510514070,2017-11-12T19:14:32,0.810,1346.6,21.26,17.65,23.28,836.210,2091.740,123.866669,19.63,2.4729,355,24030,2.00381,3.90,44089,,,,,,,,,,,,,,,,,,99999,99999,99999,99999,99999,99999,99999,99999,99999,99999,99999,99999
29:01:40,1510514100,2017-11-12T19:15:02,0.814,1347.0,21.26,17.66,23.30,836.190,2091.740,120.599998,19.60,2.4729,355,24031,2.01279,3.90,44083,,,,,,,,,,,,,,,,,,99999,99999,99999,99999,99999,99999,99999,99999,99999,99999,99999,99999
29:02:10,1510514130,2017-11-12T19:15:32,0.812,1347.4,21.27,17.66,23.32,836.180,2091.740,123.916664,18.93,2.4729,355,24031,2.00907,3.90,44078,,,,,,,,,,,,,,,,,,99999,99999,99999,99999,99999,99999,99999,99999,99999,99999,99999,99999
29:02:40,1510514160,2017-11-12T19:16:02,0.811,1347.8,21.26,17.66,23.32,836.210,2091.740,125.716667,19.05,2.4729,355,24031,2.00474,3.90,44073,,,,,,,,,,,,,,,,,,99999,99999,99999,99999,99999,99999,99999,99999,99999,99999,99999,99999
29:03:10,1510514190,2017-11-12T19:16:32,0.811,1348.2,21.25,17.65,23.28,836.110,2091.640,127.516670,19.28,2.4729,355,24031,2.00536,3.90,44068,,,,,,,,,,,,,,,,,,99999,99999,99999,99999,99999,99999,99999,99999,99999,99999,99999,99999
29:03:40,1510514220,2017-11-12T19:17:02,0.812,1348.6,21.24,17.64,23.30,836.160,2091.640,123.283333,19.77,2.4729,355,24032,2.00752,3.90,44063,,,,,,,,,,,,,,,,,,99999,99999,99999,99999,99999,99999,99999,99999,99999,99999,99999,99999
29:04:10,1510514250,2017-11-12T19:17:32,0.808,1349.0,21.23,17.63,23.30,836.190,2091.570,122.766670,20.16,2.4729,355,24033,1.99825,3.90,44057,,,,,,,,,,,,,,,,,,99999,99999,99999,99999,99999,99999,99999,99999,99999,99999,99999,99999
29:04:40,1510514280,2017-11-12T19:18:02,0.812,1349.4,21.23,17.61,23.28,836.110,2091.570,125.016670,19.73,2.4729,355,24028,2.00752,3.90,44052,,,,,,,,,,,,,,,,,,99999,99999,99999,99999,99999,99999,99999,99999,99999,99999,99999,99999
29:05:10,1510514310,2017-11-12T19:18:32,0.811,1349.8,21.22,17.62,23.26,836.170,2091.570,126.233330,19.00,2.4731,355,24031,2.00567,3.90,44047,,,,,,,,,,,,,,,,,,99999,99999,99999,99999,99999,99999,99999,99999,99999,99999,99999,99999
29:05:40,1510514340,2017-11-12T19:19:02,0.809,1350.2,21.23,17.61,23.28,836.010,2091.570,127.083336,19.49,2.4730,355,24028,1.99979,3.90,44042,,,,,,,,,,,,,,,,,,99999,99999,99999,99999,99999,99999,99999,99999,99999,99999,99999,99999
29:06:10,1510514370,2017-11-12T19:19:32,0.810,1350.6,21.23,17.62,23.23,836.010,2091.570,122.516670,19.96,2.4729,355,24030,2.00196,3.90,44037,,,,,,,,,,,,,,,,,,99999,99999,99999,99999,99999,99999,99999,99999,99999,99999,99999,99999
29:06:40,1510514400,2017-11-12T19:20:02,0.809,1351.0,21.23,17.59,23.26,836.030,2091.570,128.750000,19.77,2.4729,355,24028,2.00103,3.90,44032,,,,,,,,,,,,,,,,,,99999,99999,99999,99999,99999,99999,99999,99999,99999,99999,99999,99999
29:07:10,1510514430,2017-11-12T19:20:32,0.807,1351.4,21.23,17.61,23.26,836.090,2091.570,123.766670,19.82,2.4729,355,24028,1.99454,3.90,44026,,,,,,,,,,,,,,,,,,99999,99999,99999,99999,99999,99999,99999,99999,99999,99999,99999,99999
29:07:40,1510514460,2017-11-12T19:21:02,0.807,1351.8,21.24,17.62,23.28,836.080,2091.640,124.983330,19.98,2.4729,355,24026,1.99454,3.90,44021,,,,,,,,,,,,,,,,,,99999,99999,99999,99999,99999,99999,99999,99999,99999,99999,99999,99999
29:08:10,1510514490,2017-11-12T19:21:32,0.807,1352.2,21.25,17.60,23.25,836.060,2091.640,123.733330,19.37,2.4729,355,24028,1.99640,3.90,44016,,,,,,,,,,,,,,,,,,99999,99999,99999,99999,99999,99999,99999,99999,99999,99999,99999,99999
29:08:40,1510514520,2017-11-12T19:22:02,0.811,1352.6,21.26,17.64,23.26,836.160,2091.740,126.000000,20.25,2.4728,355,24030,2.00536,3.90,44011,,,,,,,,,,,,,,,,,,99999,99999,99999,99999,99999,99999,99999,99999,99999,99999,99999,99999
29:09:10,1510514550,2017-11-12T19:22:32,0.809,1353.0,21.25,17.62,23.28,836.060,2091.640,126.816666,19.98,2.4728,355,24030,2.00041,3.90,44006,,,,,,,,,,,,,,,,,,99999,99999,99999,99999,99999,99999,99999,99999,99999,99999,99999,99999
29:09:40,1510514580,2017-11-12T19:23:02,0.807,1353.4,21.25,17.60,23.26,836.060,2091.640,126.116669,19.63,2.4728,355,24031,1.99454,3.90,44000,,,,,,,,,,,,,,,,,,99999,99999,99999,99999,99999,99999,99999,99999,99999,99999,99999,99999
29:10:10,1510514610,2017-11-12T19:23:32,0.810,1353.8,21.26,17.63,23.26,836.000,2091.740,124.966667,20.46,2.4728,355,24029,2.00196,3.90,43995,,,,,,,,,,,,,,,,,,99999,99999,99999,99999,99999,99999,99999,99999,99999,99999,99999,99999
29:10:40,1510514640,2017-11-12T19:24:02,0.811,1354.2,21.27,17.64,23.28,835.990,2091.740,128.600006,19.53,2.4728,355,24031,2.00443,3.90,43990,,,,,,,,,,,,,,,,,,99999,99999,99999,99999,99999,99999,99999,99999,99999,99999,99999,99999
29:11:10,1510514670,2017-11-12T19:24:32,0.808,1354.6,21.29,17.65,23.30,836.070,2091.800,122.633331,19.44,2.4727,355,24030,1.99732,3.90,43985,,,,,,,,,,,,,,,,,,99999,99999,99999,99999,99999,99999,99999,99999,99999,99999,99999,99999
29:11:40,1510514700,2017-11-12T19:25:02,0.806,1355.1,21.30,17.65,23.30,836.020,2091.870,126.699997,19.11,2.4728,355,24030,1.99300,3.90,43980,,,,,,,,,,,,,,,,,,99999,99999,99999,99999,99999,99999,99999,99999,99999,99999,99999,99999
29:12:10,1510514730,2017-11-12T19:25:32,0.810,1355.5,21.31,17.68,23.28,836.090,2091.870,125.766670,19.83,2.4726,355,24031,2.00226,3.90,43975,,,,,,,,,,,,,,,,,,99999,99999,99999,99999,99999,99999,99999,99999,99999,99999,99999,99999
29:12:40,1510514760,2017-11-12T19:26:02,0.810,1355.9,21.33,17.69,23.34,836.090,2091.930,128.100006,19.42,2.4725,355,24030,2.00381,3.90,43969,,,,,,,,,,,,,,,,,,99999,99999,99999,99999,99999,99999,99999,99999,99999,99999,99999,99999
29:13:10,1510514790,2017-11-12T19:26:32,0.808,1356.3,21.34,17.68,23.36,836.060,2091.970,123.000000,19.34,2.4725,355,24034,1.99856,3.90,43964,,,,,,,,,,,,,,,,,,99999,99999,99999,99999,99999,99999,99999,99999,99999,99999,99999,99999
29:13:40,1510514820,2017-11-12T19:27:02,0.810,1356.7,21.34,17.70,23.33,836.040,2091.970,127.333336,20.10,2.4724,355,24031,2.00164,3.90,43959,,,,,,,,,,,,,,,,,,99999,99999,99999,99999,99999,99999,99999,99999,99999,99999,99999,99999
29:14:10,1510514850,2017-11-12T19:27:32,0.806,1357.1,21.35,17.70,23.34,836.060,2092.040,126.233330,19.27,2.4725,355,24035,1.99270,3.90,43954,,,,,,,,,,,,,,,,,,99999,99999,99999,99999,99999,99999,99999,99999,99999,99999,99999,99999
29:14:40,1510514880,2017-11-12T19:28:02,0.811,1357.5,21.35,17.70,23.34,836.000,2092.040,127.349998,19.93,2.4724,355,24031,2.00628,3.90,43949,,,,,,,,,,,,,,,,,,99999,99999,99999,99999,99999,99999,99999,99999,99999,99999,99999,99999
29:15:10,1510514910,2017-11-12T19:28:32,0.812,1357.9,21.34,17.67,23.36,836.040,2091.970,125.966667,19.10,2.4725,355,24032,2.00690,3.90,43943,,,,,,,,,,,,,,,,,,99999,99999,99999,99999,99999,99999,99999,99999,99999,99999,99999,99999
29:15:40,1510514940,2017-11-12T19:29:02,0.812,1358.3,21.32,17.67,23.34,836.040,2091.930,124.650002,18.93,2.4727,355,24032,2.00752,3.90,43938,,,,,,,,,,,,,,,,,,99999,99999,99999,99999,99999,99999,99999,99999,99999,99999,99999,99999
29:16:10,1510514970,2017-11-12T19:29:32,0.811,1358.7,21.30,17.66,23.33,836.180,2091.870,123.066666,19.46,2.4727,355,24033,2.00505,3.90,43933,,,,,,,,,,,,,,,,,,99999,99999,99999,99999,99999,99999,99999,99999,99999,99999,99999,99999
29:16:40,1510515000,2017-11-12T19:30:02,0.811,1359.1,21.28,17.64,23.30,836.050,2091.800,126.683334,19.42,2.4728,355,24029,2.00659,3.90,43928,,,,,,,,,,,,,,,,,,99999,99999,99999,99999,99999,99999,99999,99999,99999,99999,99999,99999
29:17:10,1510515030,2017-11-12T19:30:32,0.813,1359.5,21.25,17.63,23.25,836.140,2091.640,124.616669,20.07,2.4728,355,24030,2.01062,3.90,43923,,,,,,,,,,,,,,,,,,99999,99999,99999,99999,99999,99999,99999,99999,99999,99999,99999,99999
29:17:40,1510515060,2017-11-12T19:31:02,0.811,1359.9,21.23,17.63,23.22,836.140,2091.570,123.666664,19.11,2.4730,355,24026,2.00567,3.90,43917,,,,,,,,,,,,,,,,,,99999,99999,99999,99999,99999,99999,99999,99999,99999,99999,99999,99999
29:18:10,1510515090,2017-11-12T19:31:32,0.809,1360.3,21.20,17.61,23.20,836.010,2091.510,125.316666,19.00,2.4732,355,24028,2.00010,3.90,43912,,,,,,,,,,,,,,,,,,99999,99999,99999,99999,99999,99999,99999,99999,99999,99999,99999,99999
29:18:40,1510515120,2017-11-12T19:32:02,0.804,1360.7,21.18,17.61,23.15,836.040,2091.450,132.050003,18.96,2.4733,355,24028,1.98869,3.90,43907,,,,,,,,,,,,,,,,,,99999,99999,99999,99999,99999,99999,99999,99999,99999,99999,99999,99999
29:19:10,1510515150,2017-11-12T19:32:32,0.806,1361.1,21.14,17.57,23.12,836.050,2091.350,124.250000,19.24,2.4735,355,24028,1.99393,3.90,43902,,,,,,,,,,,,,,,,,,99999,99999,99999,99999,99999,99999,99999,99999,99999,99999,99999,99999
29:19:40,1510515180,2017-11-12T19:33:02,0.808,1361.5,21.11,17.57,23.15,836.140,2091.160,125.800003,18.98,2.4735,355,24029,1.99979,3.90,43897,,,,,,,,,,,,,,,,,,99999,99999,99999,99999,99999,99999,99999,99999,99999,99999,99999,99999
29:20:10,1510515210,2017-11-12T19:33:32,0.811,1361.9,21.07,17.55,23.08,836.070,2091.050,127.366669,19.07,2.4738,355,24025,2.00628,3.90,43892,,,,,,,,,,,,,,,,,,99999,99999,99999,99999,99999,99999,99999,99999,99999,99999,99999,99999
29:20:40,1510515240,2017-11-12T19:34:02,0.809,1362.3,21.05,17.54,23.06,836.070,2090.990,125.666664,19.69,2.4738,355,24025,2.00103,3.90,43886,,,,,,,,,,,,,,,,,,99999,99999,99999,99999,99999,99999,99999,99999,99999,99999,99999,99999
29:21:10,1510515270,2017-11-12T19:34:32,0.806,1362.7,21.01,17.52,23.02,836.050,2090.870,123.116669,19.58,2.4740,355,24028,1.99424,3.90,43881,,,,,,,,,,,,,,,,,,99999,99999,99999,99999,99999,99999,99999,99999,99999,99999,99999,99999
29:21:40,1510515300,2017-11-12T19:35:02,0.808,1363.1,21.00,17.52,22.99,836.030,2090.820,127.733330,19.94,2.4740,355,24026,2.00010,3.90,43876,,,,,,,,,,,,,,,,,,99999,99999,99999,99999,99999,99999,99999,99999,99999,99999,99999,99999
29:22:10,1510515330,2017-11-12T19:35:32,0.809,1363.5,20.99,17.50,22.96,836.000,2090.820,121.433334,19.56,2.4741,355,24024,2.00164,3.90,43871,,,,,,,,,,,,,,,,,,99999,99999,99999,99999,99999,99999,99999,99999,99999,99999,99999,99999
29:22:40,1510515360,2017-11-12T19:36:02,0.811,1363.9,20.98,17.50,22.98,835.950,2090.700,121.616669,20.12,2.4740,355,24023,2.00628,3.90,43866,,,,,,,,,,,,,,,,,,99999,99999,99999,99999,99999,99999,99999,99999,99999,99999,99999,99999
29:23:10,1510515390,2017-11-12T19:36:32,0.811,1364.4,20.97,17.48,22.98,836.060,2090.700,123.599998,19.61,2.4741,355,24024,2.00567,3.90,43861,,,,,,,,,,,,,,,,,,99999,99999,99999,99999,99999,99999,99999,99999,99999,99999,99999,99999
29:23:40,1510515420,2017-11-12T19:37:02,0.808,1364.8,20.96,17.50,22.96,835.960,2090.630,121.316666,20.00,2.4741,355,24025,1.99856,3.90,43855,,,,,,,,,,,,,,,,,,99999,99999,99999,99999,99999,99999,99999,99999,99999,99999,99999,99999
29:24:10,1510515450,2017-11-12T19:37:32,0.807,1365.2,20.96,17.51,22.94,835.980,2090.630,122.599998,20.01,2.4741,355,24026,1.99547,3.90,43850,,,,,,,,,,,,,,,,,,99999,99999,99999,99999,99999,99999,99999,99999,99999,99999,99999,99999
29:24:40,1510515480,2017-11-12T19:38:02,0.801,1365.6,20.99,17.51,22.94,835.980,2090.820,131.216660,20.31,2.4740,355,24024,1.98223,3.90,43845,,,,,,,,,,,,,,,,,,99999,99999,99999,99999,99999,99999,99999,99999,99999,99999,99999,99999
29:25:10,1510515510,2017-11-12T19:38:32,0.810,1366.0,20.99,17.50,22.96,835.980,2090.820,124.300003,19.63,2.4741,355,24025,2.00381,3.90,43840,,,,,,,,,,,,,,,,,,99999,99999,99999,99999,99999,99999,99999,99999,99999,99999,99999,99999
29:25:40,1510515540,2017-11-12T19:39:02,0.806,1366.4,21.00,17.50,22.96,835.900,2090.820,123.699997,20.22,2.4739,355,24028,1.99331,3.90,43835,,,,,,,,,,,,,,,,,,99999,99999,99999,99999,99999,99999,99999,99999,99999,99999,99999,99999
29:26:10,1510515570,2017-11-12T19:39:32,0.809,1366.8,21.01,17.52,22.96,835.970,2090.870,128.516663,19.45,2.4740,355,24026,2.00103,3.90,43830,,,,,,,,,,,,,,,,,,99999,99999,99999,99999,99999,99999,99999,99999,99999,99999,99999,99999
29:26:40,1510515600,2017-11-12T19:40:02,0.806,1367.2,21.03,17.54,23.00,835.970,2090.930,126.666664,19.27,2.4739,355,24026,1.99393,3.90,43824,,,,,,,,,,,,,,,,,,99999,99999,99999,99999,99999,99999,99999,99999,99999,99999,99999,99999
29:27:10,1510515630,2017-11-12T19:40:32,0.809,1367.6,21.03,17.54,22.98,835.940,2090.930,123.750000,19.86,2.4739,355,24026,2.00103,3.90,43819,,,,,,,,,,,,,,,,,,99999,99999,99999,99999,99999,99999,99999,99999,99999,99999,99999,99999
29:27:40,1510515660,2017-11-12T19:41:02,0.811,1368.0,21.03,17.53,23.02,835.940,2090.930,124.466667,18.99,2.4740,355,24026,2.00628,3.90,43814,,,,,,,,,,,,,,,,,,99999,99999,99999,99999,99999,99999,99999,99999,99999,99999,99999,99999
29:28:10,1510515690,2017-11-12T19:41:32,0.810,1368.4,21.03,17.54,23.00,835.920,2090.930,123.000000,19.95,2.4739,355,24025,2.00381,3.90,43809,,,,,,,,,,,,,,,,,,99999,99999,99999,99999,99999,99999,99999,99999,99999,99999,99999,99999
29:28:40,1510515720,2017-11-12T19:42:02,0.811,1368.8,21.05,17.53,23.00,835.860,2090.990,124.216667,20.07,2.4737,355,24023,2.00567,3.90,43804,,,,,,,,,,,,,,,,,,99999,99999,99999,99999,99999,99999,99999,99999,99999,99999,99999,99999
29:29:10,1510515750,2017-11-12T19:42:32,0.808,1369.2,21.04,17.53,22.98,835.780,2090.930,125.783333,19.64,2.4738,355,24027,1.99979,3.90,43798,,,,,,,,,,,,,,,,,,99999,99999,99999,99999,99999,99999,99999,99999,99999,99999,99999,99999
29:29:40,1510515780,2017-11-12T19:43:02,0.808,1369.6,21.03,17.54,22.99,835.780,2090.930,123.099998,20.06,2.4738,355,24026,1.99948,3.90,43793,,,,,,,,,,,,,,,,,,99999,99999,99999,99999,99999,99999,99999,99999,99999,99999,99999,99999
29:30:10,1510515810,2017-11-12T19:43:32,0.807,1370.0,21.03,17.51,23.00,835.840,2090.930,124.633331,19.44,2.4739,355,24025,1.99732,3.90,43788,,,,,,,,,,,,,,,,,,99999,99999,99999,99999,99999,99999,99999,99999,99999,99999,99999,99999
29:30:40,1510515840,2017-11-12T19:44:02,0.808,1370.4,21.04,17.53,23.00,835.840,2090.930,122.766670,19.90,2.4738,355,24028,1.99887,3.89,43783,,,,,,,,,,,,,,,,,,99999,99999,99999,99999,99999,99999,99999,99999,99999,99999,99999,99999
29:31:10,1510515870,2017-11-12T19:44:32,0.812,1370.8,21.04,17.51,23.00,835.840,2090.930,124.333336,20.08,2.4738,355,24028,2.00783,3.89,43778,,,,,,,,,,,,,,,,,,99999,99999,99999,99999,99999,99999,99999,99999,99999,99999,99999,99999
29:31:40,1510515900,2017-11-12T19:45:02,0.811,1371.2,21.04,17.53,22.96,835.780,2090.930,123.683334,20.21,2.4737,355,24027,2.00505,3.89,43773,,,,,,,,,,,,,,,,,,99999,99999,99999,99999,99999,99999,99999,99999,99999,99999,99999,99999
29:32:10,1510515930,2017-11-12T19:45:32,0.809,1371.6,21.05,17.55,23.00,835.800,2090.990,124.766670,19.62,2.4738,355,24026,2.00196,3.89,43767,,,,,,,,,,,,,,,,,,99999,99999,99999,99999,99999,99999,99999,99999,99999,99999,99999,99999
29:32:40,1510515960,2017-11-12T19:46:02,0.809,1372.0,21.04,17.52,22.99,835.730,2090.930,123.783333,19.31,2.4738,355,24028,2.00196,3.89,43762,,,,,,,,,,,,,,,,,,99999,99999,99999,99999,99999,99999,99999,99999,99999,99999,99999,99999
29:33:10,1510515990,2017-11-12T19:46:32,0.806,1372.4,21.03,17.53,23.00,835.780,2090.930,122.916664,19.63,2.4739,355,24026,1.99485,3.89,43757,,,,,,,,,,,,,,,,,,99999,99999,99999,99999,99999,99999,99999,99999,99999,99999,99999,99999
29:33:40,1510516020,2017-11-12T19:47:02,0.809,1372.8,21.03,17.54,22.98,835.730,2090.930,121.466667,19.62,2.4739,355,24026,2.00196,3.89,43752,,,,,,,,,,,,,,,,,,99999,99999,99999,99999,99999,99999,99999,99999,99999,99999,99999,99999
29:34:10,1510516050,2017-11-12T19:47:32,0.809,1373.2,21.02,17.53,22.96,835.810,2090.870,123.416664,20.26,2.4738,355,24028,2.00196,3.89,43747,,,,,,,,,,,,,,,,,,99999,99999,99999,99999,99999,99999,99999,99999,99999,99999,99999,99999
29:34:40,1510516080,2017-11-12T19:48:02,0.806,1373.6,21.02,17.53,22.98,835.730,2090.870,123.133331,19.20,2.4739,355,24029,1.99300,3.89,43742,,,,,,,,,,,,,,,,,,99999,99999,99999,99999,99999,99999,99999,99999,99999,99999,99999,99999
29:35:10,1510516110,2017-11-12T19:48:32,0.806,1374.0,21.01,17.53,22.94,835.730,2090.870,124.650002,18.85,2.4741,355,24028,1.99393,3.89,43736,,,,,,,,,,,,,,,,,,99999,99999,99999,99999,99999,99999,99999,99999,99999,99999,99999,99999
29:35:40,1510516140,2017-11-12T19:49:02,0.809,1374.5,20.99,17.52,22.92,835.740,2090.820,123.333336,19.18,2.4741,355,24027,2.00041,3.89,43731,,,,,,,,,,,,,,,,,,99999,99999,99999,99999,99999,99999,99999,99999,99999,99999,99999,99999
29:36:10,1510516170,2017-11-12T19:49:32,0.808,1374.9,20.97,17.50,22.88,835.770,2090.700,125.933334,19.33,2.4742,355,24027,1.99887,3.89,43726,,,,,,,,,,,,,,,,,,99999,99999,99999,99999,99999,99999,99999,99999,99999,99999,99999,99999
29:36:40,1510516200,2017-11-12T19:50:02,0.807,1375.3,20.94,17.49,22.91,835.750,2090.570,126.233330,19.21,2.4743,355,24028,1.99609,3.89,43721,,,,,,,,,,,,,,,,,,99999,99999,99999,99999,99999,99999,99999,99999,99999,99999,99999,99999
29:37:10,1510516230,2017-11-12T19:50:32,0.809,1375.7,20.91,17.49,22.86,835.750,2090.470,123.900002,19.24,2.4744,355,24026,2.00257,3.89,43716,,,,,,,,,,,,,,,,,,99999,99999,99999,99999,99999,99999,99999,99999,99999,99999,99999,99999
29:37:40,1510516260,2017-11-12T19:51:02,0.807,1376.1,20.86,17.46,22.82,835.740,2090.340,126.416664,19.69,2.4746,355,24023,1.99609,3.89,43711,,,,,,,,,,,,,,,,,,99999,99999,99999,99999,99999,99999,99999,99999,99999,99999,99999,99999
29:38:10,1510516290,2017-11-12T19:51:32,0.805,1376.5,20.83,17.42,22.76,835.750,2090.180,123.933334,19.71,2.4747,355,24023,1.99177,3.89,43705,,,,,,,,,,,,,,,,,,99999,99999,99999,99999,99999,99999,99999,99999,99999,99999,99999,99999
29:38:40,1510516320,2017-11-12T19:52:02,0.806,1376.9,20.78,17.41,22.74,835.730,2090.050,121.966667,19.71,2.4750,355,24021,1.99454,3.89,43700,,,,,,,,,,,,,,,,,,99999,99999,99999,99999,99999,99999,99999,99999,99999,99999,99999,99999
29:39:10,1510516350,2017-11-12T19:52:32,0.807,1377.3,20.75,17.38,22.70,835.680,2089.950,123.000000,19.96,2.4751,355,24023,1.99640,3.89,43695,,,,,,,,,,,,,,,,,,99999,99999,99999,99999,99999,99999,99999,99999,99999,99999,99999,99999
29:39:40,1510516380,2017-11-12T19:53:02,0.808,1377.7,20.71,17.35,22.68,835.690,2089.760,122.233330,19.18,2.4753,355,24021,2.00041,3.89,43690,,,,,,,,,,,,,,,,,,99999,99999,99999,99999,99999,99999,99999,99999,99999,99999,99999,99999
29:40:10,1510516410,2017-11-12T19:53:32,0.804,1378.1,20.67,17.33,22.62,835.670,2089.650,123.416664,20.00,2.4754,355,24022,1.99146,3.89,43685,,,,,,,,,,,,,,,,,,99999,99999,99999,99999,99999,99999,99999,99999,99999,99999,99999,99999
29:40:40,1510516440,2017-11-12T19:54:02,0.805,1378.5,20.64,17.34,22.59,835.620,2089.530,122.116669,19.72,2.4756,355,24021,1.99208,3.89,43679,,,,,,,,,,,,,,,,,,99999,99999,99999,99999,99999,99999,99999,99999,99999,99999,99999,99999
29:41:10,1510516470,2017-11-12T19:54:32,0.808,1378.9,20.61,17.31,22.50,835.660,2089.470,117.683334,19.74,2.4757,355,24021,2.00010,3.89,43674,,,,,,,,,,,,,,,,,,99999,99999,99999,99999,99999,99999,99999,99999,99999,99999,99999,99999
29:41:40,1510516500,2017-11-12T19:55:02,0.802,1379.3,20.60,17.31,22.52,835.640,2089.430,123.900002,20.80,2.4757,355,24018,1.98653,3.89,43669,,,,,,,,,,,,,,,,,,99999,99999,99999,99999,99999,99999,99999,99999,99999,99999,99999,99999
29:42:10,1510516530,2017-11-12T19:55:32,0.804,1379.7,20.58,17.29,22.49,835.640,2089.300,121.583336,20.71,2.4757,355,24018,1.98992,3.89,43664,,,,,,,,,,,,,,,,,,99999,99999,99999,99999,99999,99999,99999,99999,99999,99999,99999,99999
29:42:40,1510516560,2017-11-12T19:56:02,0.808,1380.1,20.56,17.30,22.48,835.620,2089.230,125.333336,20.46,2.4758,355,24019,1.99948,3.89,43659,,,,,,,,,,,,,,,,,,99999,99999,99999,99999,99999,99999,99999,99999,99999,99999,99999,99999
29:43:10,1510516590,2017-11-12T19:56:32,0.807,1380.5,20.56,17.29,22.50,835.510,2089.230,124.550003,21.64,2.4757,355,24018,1.99763,3.89,43654,,,,,,,,,,,,,,,,,,99999,99999,99999,99999,99999,99999,99999,99999,99999,99999,99999,99999
29:43:40,1510516620,2017-11-12T19:57:02,0.807,1380.9,20.56,17.30,22.46,835.640,2089.230,124.033333,21.28,2.4757,355,24016,1.99763,3.89,43649,,,,,,,,,,,,,,,,,,99999,99999,99999,99999,99999,99999,99999,99999,99999,99999,99999,99999
29:44:10,1510516650,2017-11-12T19:57:32,0.804,1381.3,20.57,17.28,22.48,835.670,2089.300,124.333336,19.84,2.4759,355,24021,1.99084,3.89,43643,,,,,,,,,,,,,,,,,,99999,99999,99999,99999,99999,99999,99999,99999,99999,99999,99999,99999
29:44:40,1510516680,2017-11-12T19:58:02,0.808,1381.7,20.55,17.28,22.46,835.620,2089.230,122.750000,20.20,2.4759,355,24020,2.00072,3.89,43638,,,,,,,,,,,,,,,,,,99999,99999,99999,99999,99999,99999,99999,99999,99999,99999,99999,99999
29:45:10,1510516710,2017-11-12T19:58:32,0.804,1382.1,20.54,17.27,22.48,835.700,2089.200,121.883331,20.48,2.4759,355,24020,1.99084,3.89,43633,,,,,,,,,,,,,,,,,,99999,99999,99999,99999,99999,99999,99999,99999,99999,99999,99999,99999
29:45:40,1510516740,2017-11-12T19:59:02,0.807,1382.5,20.52,17.28,22.44,835.700,2089.130,123.983330,20.03,2.4761,355,24017,1.99887,3.89,43628,,,,,,,,,,,,,,,,,,99999,99999,99999,99999,99999,99999,99999,99999,99999,99999,99999,99999
29:46:10,1510516770,2017-11-12T19:59:32,0.808,1382.9,20.53,17.25,22.38,835.670,2089.180,123.750000,20.48,2.4760,355,24018,1.99979,3.89,43623,,,,,,,,,,,,,,,,,,99999,99999,99999,99999,99999,99999,99999,99999,99999,99999,99999,99999
29:46:40,1510516800,2017-11-12T20:00:02,0.808,1383.3,20.51,17.26,22.44,835.680,2089.130,122.333336,21.13,2.4760,355,24017,2.00072,3.89,43618,,,,,,,,,,,,,,,,,,99999,99999,99999,99999,99999,99999,99999,99999,99999,99999,99999,99999
29:47:10,1510516830,2017-11-12T20:00:32,0.802,1383.7,20.52,17.26,22.41,835.620,2089.130,124.250000,20.47,2.4760,355,24018,1.98561,3.89,43612,,,,,,,,,,,,,,,,,,99999,99999,99999,99999,99999,99999,99999,99999,99999,99999,99999,99999
29:47:40,1510516860,2017-11-12T20:01:02,0.804,1384.1,20.51,17.26,22.38,835.650,2089.130,124.416664,20.94,2.4761,355,24017,1.99146,3.89,43607,,,,,,,,,,,,,,,,,,99999,99999,99999,99999,99999,99999,99999,99999,99999,99999,99999,99999
29:48:10,1510516890,2017-11-12T20:01:32,0.808,1384.5,20.51,17.27,22.41,835.680,2089.130,125.116669,20.46,2.4761,355,24017,1.99979,3.89,43602,,,,,,,,,,,,,,,,,,99999,99999,99999,99999,99999,99999,99999,99999,99999,99999,99999,99999
29:48:40,1510516920,2017-11-12T20:02:02,0.807,1384.9,20.51,17.25,22.40,835.600,2089.130,123.016670,20.17,2.4761,355,24017,1.99917,3.89,43597,,,,,,,,,,,,,,,,,,99999,99999,99999,99999,99999,99999,99999,99999,99999,99999,99999,99999
29:49:10,1510516950,2017-11-12T20:02:32,0.809,1385.3,20.51,17.25,22.38,835.620,2089.130,123.199997,20.41,2.4761,355,24018,2.00381,3.89,43592,,,,,,,,,,,,,,,,,,99999,99999,99999,99999,99999,99999,99999,99999,99999,99999,99999,99999
29:49:40,1510516980,2017-11-12T20:03:02,0.806,1385.7,20.50,17.24,22.40,835.600,2089.070,124.433334,20.18,2.4762,355,24017,1.99640,3.89,43587,,,,,,,,,,,,,,,,,,99999,99999,99999,99999,99999,99999,99999,99999,99999,99999,99999,99999
29:50:10,1510517010,2017-11-12T20:03:32,0.805,1386.1,20.50,17.27,22.38,835.600,2089.070,122.500000,20.71,2.4761,355,24018,1.99393,3.89,43581,,,,,,,,,,,,,,,,,,99999,99999,99999,99999,99999,99999,99999,99999,99999,99999,99999,99999
29:50:40,1510517040,2017-11-12T20:04:02,0.808,1386.5,20.48,17.23,22.34,835.580,2089.010,124.383331,20.31,2.4762,355,24018,2.00196,3.89,43576,,,,,,,,,,,,,,,,,,99999,99999,99999,99999,99999,99999,99999,99999,99999,99999,99999,99999
29:51:10,1510517070,2017-11-12T20:04:32,0.806,1386.9,20.48,17.23,22.36,835.580,2089.010,122.716667,21.07,2.4762,355,24021,1.99516,3.89,43571,,,,,,,,,,,,,,,,,,99999,99999,99999,99999,99999,99999,99999,99999,99999,99999,99999,99999
29:51:40,1510517100,2017-11-12T20:05:02,0.808,1387.3,20.47,17.21,22.40,835.480,2088.940,122.566666,20.54,2.4762,355,24019,2.00103,3.89,43566,,,,,,,,,,,,,,,,,,99999,99999,99999,99999,99999,99999,99999,99999,99999,99999,99999,99999
29:52:10,1510517130,2017-11-12T20:05:32,0.805,1387.8,20.47,17.22,22.36,835.480,2088.940,125.866669,19.59,2.4763,355,24016,1.99362,3.89,43561,,,,,,,,,,,,,,,,,,99999,99999,99999,99999,99999,99999,99999,99999,99999,99999,99999,99999
29:52:40,1510517160,2017-11-12T20:06:02,0.807,1388.2,20.46,17.20,22.33,835.510,2088.840,125.666664,20.94,2.4761,355,24015,1.99763,3.89,43556,,,,,,,,,,,,,,,,,,99999,99999,99999,99999,99999,99999,99999,99999,99999,99999,99999,99999
29:53:10,1510517190,2017-11-12T20:06:32,0.808,1388.6,20.45,17.23,22.33,835.540,2088.840,123.583336,20.19,2.4763,355,24017,2.00010,3.89,43551,,,,,,,,,,,,,,,,,,99999,99999,99999,99999,99999,99999,99999,99999,99999,99999,99999,99999
29:53:40,1510517220,2017-11-12T20:07:02,0.804,1389.0,20.43,17.18,22.33,835.510,2088.780,122.866669,20.40,2.4764,355,24015,1.99054,3.89,43545,,,,,,,,,,,,,,,,,,99999,99999,99999,99999,99999,99999,99999,99999,99999,99999,99999,99999
29:54:10,1510517250,2017-11-12T20:07:32,0.807,1389.4,20.42,17.18,22.32,835.510,2088.780,123.516670,19.84,2.4765,355,24018,1.99794,3.89,43540,,,,,,,,,,,,,,,,,,99999,99999,99999,99999,99999,99999,99999,99999,99999,99999,99999,99999
29:54:40,1510517280,2017-11-12T20:08:02,0.804,1389.8,20.40,17.18,22.30,835.600,2088.710,121.633331,20.24,2.4766,355,24015,1.99023,3.89,43535,,,,,,,,,,,,,,,,,,99999,99999,99999,99999,99999,99999,99999,99999,99999,99999,99999,99999
29:55:10,1510517310,2017-11-12T20:08:32,0.803,1390.2,20.39,17.17,22.28,835.520,2088.650,123.033333,20.45,2.4766,355,24015,1.98869,3.89,43530,,,,,,,,,,,,,,,,,,99999,99999,99999,99999,99999,99999,99999,99999,99999,99999,99999,99999
29:55:40,1510517340,2017-11-12T20:09:02,0.804,1390.6,20.38,17.15,22.24,835.630,2088.610,121.550003,20.37,2.4766,355,24017,1.99177,3.89,43525,,,,,,,,,,,,,,,,,,99999,99999,99999,99999,99999,99999,99999,99999,99999,99999,99999,99999
29:56:10,1510517370,2017-11-12T20:09:32,0.806,1391.0,20.35,17.16,22.22,835.550,2088.550,124.750000,20.55,2.4768,355,24015,1.99732,3.89,43520,,,,,,,,,,,,,,,,,,99999,99999,99999,99999,99999,99999,99999,99999,99999,99999,99999,99999
29:56:40,1510517400,2017-11-12T20:10:02,0.804,1391.4,20.33,17.16,22.17,835.560,2088.480,125.066666,19.86,2.4769,355,24016,1.99270,3.89,43514,,,,,,,,,,,,,,,,,,99999,99999,99999,99999,99999,99999,99999,99999,99999,99999,99999,99999
29:57:10,1510517430,2017-11-12T20:10:32,0.804,1391.8,20.30,17.15,22.22,835.460,2088.320,120.183334,20.94,2.4769,355,24014,1.99208,3.89,43509,,,,,,,,,,,,,,,,,,99999,99999,99999,99999,99999,99999,99999,99999,99999,99999,99999,99999
29:57:40,1510517460,2017-11-12T20:11:02,0.803,1392.2,20.27,17.14,22.16,835.630,2088.260,122.616669,20.76,2.4771,355,24016,1.98900,3.89,43504,,,,,,,,,,,,,,,,,,99999,99999,99999,99999,99999,99999,99999,99999,99999,99999,99999,99999
29:58:10,1510517490,2017-11-12T20:11:32,0.804,1392.6,20.22,17.12,22.16,835.580,2088.090,120.766670,19.93,2.4774,355,24012,1.99208,3.89,43499,,,,,,,,,,,,,,,,,,99999,99999,99999,99999,99999,99999,99999,99999,99999,99999,99999,99999
29:58:40,1510517520,2017-11-12T20:12:02,0.802,1393.0,20.20,17.11,22.12,835.610,2088.030,121.483330,20.34,2.4775,355,24015,1.98746,3.89,43494,,,,,,,,,,,,,,,,,,99999,99999,99999,99999,99999,99999,99999,99999,99999,99999,99999,99999
29:59:10,1510517550,2017-11-12T20:12:32,0.807,1393.4,20.15,17.10,22.04,835.630,2087.860,120.366669,21.32,2.4776,355,24014,1.99948,3.89,43489,,,,,,,,,,,,,,,,,,99999,99999,99999,99999,99999,99999,99999,99999,99999,99999,99999,99999
29:59:40,1510517580,2017-11-12T20:13:02,0.807,1393.8,20.11,17.10,22.06,835.470,2087.730,123.716667,20.57,2.4779,355,24012,1.99887,3.89,43484,,,,,,,,,,,,,,,,,,99999,99999,99999,99999,99999,99999,99999,99999,99999,99999,99999,99999
30:00:10,1510517610,2017-11-12T20:13:32,0.806,1394.2,20.08,17.08,21.98,835.560,2087.610,122.866669,21.58,2.4779,355,24013,1.99763,3.89,43478,,,,,,,,,,,,,,,,,,99999,99999,99999,99999,99999,99999,99999,99999,99999,99999,99999,99999
30:00:40,1510517640,2017-11-12T20:14:02,0.800,1394.6,20.06,17.08,21.94,835.540,2087.560,121.933334,20.27,2.4781,355,24013,1.98192,3.89,43473,,,,,,,,,,,,,,,,,,99999,99999,99999,99999,99999,99999,99999,99999,99999,99999,99999,99999
30:01:10,1510517670,2017-11-12T20:14:32,0.804,1395.0,20.01,17.06,21.91,835.500,2087.340,124.849998,20.94,2.4782,355,24009,1.99300,3.89,43468,,,,,,,,,,,,,,,,,,99999,99999,99999,99999,99999,99999,99999,99999,99999,99999,99999,99999
30:01:40,1510517700,2017-11-12T20:15:02,0.801,1395.4,19.99,17.05,21.91,835.500,2087.270,120.983330,20.84,2.4783,355,24011,1.98592,3.89,43463,,,,,,,,,,,,,,,,,,99999,99999,99999,99999,99999,99999,99999,99999,99999,99999,99999,99999
30:02:10,1510517730,2017-11-12T20:15:32,0.801,1395.8,19.94,17.03,21.86,835.540,2087.150,121.400002,20.81,2.4786,355,24011,1.98592,3.89,43458,,,,,,,,,,,,,,,,,,99999,99999,99999,99999,99999,99999,99999,99999,99999,99999,99999,99999
30:02:40,1510517760,2017-11-12T20:16:02,0.803,1396.2,19.90,17.01,21.78,835.490,2086.980,122.083336,21.41,2.4787,355,24010,1.99023,3.89,43453,,,,,,,,,,,,,,,,,,99999,99999,99999,99999,99999,99999,99999,99999,99999,99999,99999,99999
30:03:10,1510517790,2017-11-12T20:16:32,0.807,1396.6,19.87,16.97,21.78,835.530,2086.860,121.316666,21.20,2.4788,355,24006,1.99948,3.89,43448,,,,,,,,,,,,,,,,,,99999,99999,99999,99999,99999,99999,99999,99999,99999,99999,99999,99999
30:03:40,1510517820,2017-11-12T20:17:02,0.802,1397.0,19.83,16.98,21.74,835.560,2086.750,120.516670,21.30,2.4790,355,24007,1.98838,3.89,43442,,,,,,,,,,,,,,,,,,99999,99999,99999,99999,99999,99999,99999,99999,99999,99999,99999,99999
30:04:10,1510517850,2017-11-12T20:17:32,0.804,1397.4,19.80,16.97,21.72,835.460,2086.630,122.716667,21.92,2.4791,355,24006,1.99270,3.89,43437,,,,,,,,,,,,,,,,,,99999,99999,99999,99999,99999,99999,99999,99999,99999,99999,99999,99999
30:04:40,1510517880,2017-11-12T20:18:02,0.800,1397.8,19.78,16.94,21.66,835.520,2086.520,121.033333,21.67,2.4792,355,24006,1.98284,3.89,43432,,,,,,,,,,,,,,,,,,99999,99999,99999,99999,99999,99999,99999,99999,99999,99999,99999,99999
30:05:10,1510517910,2017-11-12T20:18:32,0.805,1398.2,19.74,16.93,21.60,835.480,2086.390,122.000000,21.71,2.4793,355,24005,1.99609,3.89,43427,,,,,,,,,,,,,,,,,,99999,99999,99999,99999,99999,99999,99999,99999,99999,99999,99999,99999
30:05:40,1510517940,2017-11-12T20:19:02,0.802,1398.6,19.72,16.91,21.60,835.430,2086.340,120.283333,21.75,2.4794,355,24007,1.98961,3.89,43422,,,,,,,,,,,,,,,,,,99999,99999,99999,99999,99999,99999,99999,99999,99999,99999,99999,99999
30:06:10,1510517970,2017-11-12T20:19:32,0.805,1399.0,19.69,16.88,21.56,835.440,2086.270,122.366669,21.49,2.4796,355,24006,1.99609,3.89,43417,,,,,,,,,,,,,,,,,,99999,99999,99999,99999,99999,99999,99999,99999,99999,99999,99999,99999
30:06:40,1510518000,2017-11-12T20:20:02,0.800,1399.4,19.67,16.86,21.52,835.490,2086.230,121.216667,21.33,2.4798,355,24005,1.98315,3.89,43412,,,,,,,,,,,,,,,,,,99999,99999,99999,99999,99999,99999,99999,99999,99999,99999,99999,99999
30:07:10,1510518030,2017-11-12T20:20:32,0.798,1399.8,19.64,16.84,21.49,835.440,2086.040,123.300003,21.43,2.4798,355,24005,1.97977,3.89,43406,,,,,,,,,,,,,,,,,,99999,99999,99999,99999,99999,99999,99999,99999,99999,99999,99999,99999
30:07:40,1510518060,2017-11-12T20:21:02,0.801,1400.2,19.60,16.80,21.48,835.450,2085.940,119.383331,21.50,2.4800,355,24003,1.98561,3.89,43401,,,,,,,,,,,,,,,,,,99999,99999,99999,99999,99999,99999,99999,99999,99999,99999,99999,99999
30:08:10,1510518090,2017-11-12T20:21:32,0.803,1400.6,19.58,16.78,21.44,835.460,2085.870,120.699997,21.12,2.4802,355,24003,1.99239,3.89,43396,,,,,,,,,,,,,,,,,,99999,99999,99999,99999,99999,99999,99999,99999,99999,99999,99999,99999
30:08:40,1510518120,2017-11-12T20:22:02,0.804,1401.0,19.54,16.73,21.41,835.440,2085.750,121.283333,21.03,2.4804,355,24002,1.99516,3.89,43391,,,,,,,,,,,,,,,,,,99999,99999,99999,99999,99999,99999,99999,99999,99999,99999,99999,99999
30:09:10,1510518150,2017-11-12T20:22:32,0.798,1401.4,19.51,16.69,21.33,835.360,2085.580,121.199997,21.91,2.4803,355,24001,1.97884,3.89,43386,,,,,,,,,,,,,,,,,,99999,99999,99999,99999,99999,99999,99999,99999,99999,99999,99999,99999
30:09:40,1510518180,2017-11-12T20:23:02,0.803,1401.8,19.47,16.66,21.30,835.330,2085.420,122.683334,21.01,2.4806,355,23997,1.99300,3.89,43381,,,,,,,,,,,,,,,,,,99999,99999,99999,99999,99999,99999,99999,99999,99999,99999,99999,99999
30:10:10,1510518210,2017-11-12T20:23:32,0.799,1402.2,19.43,16.62,21.28,835.440,2085.350,119.449997,20.95,2.4808,355,23999,1.98161,3.89,43376,,,,,,,,,,,,,,,,,,99999,99999,99999,99999,99999,99999,99999,99999,99999,99999,99999,99999
30:10:40,1510518240,2017-11-12T20:24:02,0.802,1402.6,19.39,16.61,21.22,835.470,2085.230,123.050003,20.70,2.4811,355,23997,1.98930,3.89,43371,,,,,,,,,,,,,,,,,,99999,99999,99999,99999,99999,99999,99999,99999,99999,99999,99999,99999
30:11:10,1510518270,2017-11-12T20:24:32,0.799,1403.0,19.33,16.56,21.20,835.410,2085.000,121.683334,20.82,2.4813,355,23997,1.98376,3.89,43365,,,,,,,,,,,,,,,,,,99999,99999,99999,99999,99999,99999,99999,99999,99999,99999,99999,99999
30:11:40,1510518300,2017-11-12T20:25:02,0.800,1403.4,19.29,16.50,21.16,835.470,2084.890,120.250000,21.70,2.4814,355,23993,1.98622,3.89,43360,,,,,,,,,,,,,,,,,,99999,99999,99999,99999,99999,99999,99999,99999,99999,99999,99999,99999
30:12:10,1510518330,2017-11-12T20:25:32,0.799,1403.8,19.25,16.46,21.08,835.400,2084.670,120.683334,21.35,2.4815,355,23991,1.98223,3.89,43355,,,,,,,,,,,,,,,,,,99999,99999,99999,99999,99999,99999,99999,99999,99999,99999,99999,99999
30:12:40,1510518360,2017-11-12T20:26:02,0.801,1404.2,19.21,16.43,21.08,835.510,2084.540,120.050003,21.15,2.4818,355,23990,1.98838,3.89,43350,,,,,,,,,,,,,,,,,,99999,99999,99999,99999,99999,99999,99999,99999,99999,99999,99999,99999
30:13:10,1510518390,2017-11-12T20:26:32,0.799,1404.6,19.17,16.40,21.01,835.440,2084.430,121.233330,21.94,2.4819,355,23990,1.98192,3.89,43345,,,,,,,,,,,,,,,,,,99999,99999,99999,99999,99999,99999,99999,99999,99999,99999,99999,99999
30:13:40,1510518420,2017-11-12T20:27:02,0.801,1405.0,19.12,16.35,20.98,835.370,2084.310,120.900002,21.38,2.4822,355,23989,1.98807,3.89,43340,,,,,,,,,,,,,,,,,,99999,99999,99999,99999,99999,99999,99999,99999,99999,99999,99999,99999
30:14:10,1510518450,2017-11-12T20:27:32,0.796,1405.4,19.08,16.34,20.93,835.460,2084.140,119.716667,21.86,2.4823,355,23988,1.97547,3.89,43335,,,,,,,,,,,,,,,,,,99999,99999,99999,99999,99999,99999,99999,99999,99999,99999,99999,99999
30:14:40,1510518480,2017-11-12T20:28:02,0.799,1405.8,19.05,16.28,20.88,835.470,2083.970,123.099998,21.67,2.4824,355,23986,1.98407,3.89,43330,,,,,,,,,,,,,,,,,,99999,99999,99999,99999,99999,99999,99999,99999,99999,99999,99999,99999
30:15:10,1510518510,2017-11-12T20:28:32,0.801,1406.2,19.00,16.26,20.82,835.530,2083.850,121.816666,21.40,2.4827,355,23984,1.98838,3.89,43325,,,,,,,,,,,,,,,,,,99999,99999,99999,99999,99999,99999,99999,99999,99999,99999,99999,99999
30:15:40,1510518540,2017-11-12T20:29:02,0.796,1406.6,18.97,16.24,20.80,835.410,2083.680,121.750000,21.50,2.4828,355,23985,1.97516,3.88,43319,,,,,,,,,,,,,,,,,,99999,99999,99999,99999,99999,99999,99999,99999,99999,99999,99999,99999
30:16:10,1510518570,2017-11-12T20:29:32,0.795,1407.0,18.94,16.20,20.76,835.490,2083.620,118.349998,21.44,2.4830,355,23986,1.97485,3.88,43314,,,,,,,,,,,,,,,,,,99999,99999,99999,99999,99999,99999,99999,99999,99999,99999,99999,99999
30:16:40,1510518600,2017-11-12T20:30:02,0.801,1407.4,18.91,16.18,20.75,835.470,2083.560,120.133331,21.53,2.4831,355,23984,1.98900,3.88,43309,,,,,,,,,,,,,,,,,,99999,99999,99999,99999,99999,99999,99999,99999,99999,99999,99999,99999
30:17:10,1510518630,2017-11-12T20:30:32,0.796,1407.8,18.90,16.17,20.70,835.420,2083.500,119.849998,21.64,2.4831,355,23982,1.97608,3.88,43304,,,,,,,,,,,,,,,,,,99999,99999,99999,99999,99999,99999,99999,99999,99999,99999,99999,99999
30:17:40,1510518660,2017-11-12T20:31:02,0.798,1408.2,18.88,16.14,20.67,835.400,2083.390,116.866669,21.78,2.4832,355,23981,1.98223,3.88,43299,,,,,,,,,,,,,,,,,,99999,99999,99999,99999,99999,99999,99999,99999,99999,99999,99999,99999
30:18:10,1510518690,2017-11-12T20:31:32,0.796,1408.6,18.85,16.09,20.66,835.510,2083.270,119.449997,21.68,2.4833,355,23980,1.97761,3.88,43294,,,,,,,,,,,,,,,,,,99999,99999,99999,99999,99999,99999,99999,99999,99999,99999,99999,99999
30:18:40,1510518720,2017-11-12T20:32:02,0.795,1409.0,18.84,16.10,20.62,835.460,2083.270,119.266670,21.98,2.4834,355,23979,1.97485,3.88,43289,,,,,,,,,,,,,,,,,,99999,99999,99999,99999,99999,99999,99999,99999,99999,99999,99999,99999
30:19:10,1510518750,2017-11-12T20:32:32,0.797,1409.4,18.83,16.08,20.60,835.410,2083.200,120.466667,22.12,2.4833,355,23979,1.97823,3.88,43284,,,,,,,,,,,,,,,,,,99999,99999,99999,99999,99999,99999,99999,99999,99999,99999,99999,99999
30:19:40,1510518780,2017-11-12T20:33:02,0.799,1409.8,18.82,16.04,20.66,835.460,2083.200,119.583336,22.17,2.4834,355,23978,1.98315,3.88,43279,,,,,,,,,,,,,,,,,,99999,99999,99999,99999,99999,99999,99999,99999,99999,99999,99999,99999
30:20:10,1510518810,2017-11-12T20:33:32,0.799,1410.2,18.80,16.05,20.60,835.500,2083.100,120.699997,22.69,2.4834,355,23978,1.98469,3.88,43274,,,,,,,,,,,,,,,,,,99999,99999,99999,99999,99999,99999,99999,99999,99999,99999,99999,99999
30:20:40,1510518840,2017-11-12T20:34:02,0.799,1410.6,18.79,16.05,20.58,835.420,2083.100,120.666664,22.21,2.4836,355,23978,1.98469,3.88,43268,,,,,,,,,,,,,,,,,,99999,99999,99999,99999,99999,99999,99999,99999,99999,99999,99999,99999
30:21:10,1510518870,2017-11-12T20:34:32,0.800,1411.0,18.78,16.03,20.59,835.420,2083.100,121.000000,22.12,2.4837,355,23976,1.98684,3.88,43263,,,,,,,,,,,,,,,,,,99999,99999,99999,99999,99999,99999,99999,99999,99999,99999,99999,99999
30:21:40,1510518900,2017-11-12T20:35:02,0.799,1411.4,18.77,16.02,20.56,835.500,2083.030,121.099998,22.70,2.4836,355,23978,1.98345,3.88,43258,,,,,,,,,,,,,,,,,,99999,99999,99999,99999,99999,99999,99999,99999,99999,99999,99999,99999
30:22:10,1510518930,2017-11-12T20:35:32,0.797,1411.8,18.75,16.00,20.58,835.420,2082.970,120.000000,22.75,2.4837,355,23978,1.97915,3.88,43253,,,,,,,,,,,,,,,,,,99999,99999,99999,99999,99999,99999,99999,99999,99999,99999,99999,99999
30:22:40,1510518960,2017-11-12T20:36:02,0.798,1412.2,18.74,15.99,20.58,835.410,2082.970,120.866669,22.06,2.4839,355,23978,1.98253,3.88,43248,,,,,,,,,,,,,,,,,,99999,99999,99999,99999,99999,99999,99999,99999,99999,99999,99999,99999
30:23:10,1510518990,2017-11-12T20:36:32,0.799,1412.6,18.73,15.97,20.52,835.350,2082.930,119.699997,21.93,2.4839,355,23977,1.98530,3.88,43243,,,,,,,,,,,,,,,,,,99999,99999,99999,99999,99999,99999,99999,99999,99999,99999,99999,99999
30:23:40,1510519020,2017-11-12T20:37:02,0.799,1413.0,18.71,15.97,20.54,835.390,2082.800,118.800003,21.55,2.4840,355,23977,1.98345,3.88,43238,,,,,,,,,,,,,,,,,,99999,99999,99999,99999,99999,99999,99999,99999,99999,99999,99999,99999
30:24:10,1510519050,2017-11-12T20:37:32,0.800,1413.4,18.69,15.94,20.50,835.390,2082.740,120.266670,22.32,2.4840,355,23975,1.98746,3.88,43233,,,,,,,,,,,,,,,,,,99999,99999,99999,99999,99999,99999,99999,99999,99999,99999,99999,99999
30:24:40,1510519080,2017-11-12T20:38:02,0.799,1413.8,18.66,15.91,20.44,835.470,2082.640,121.333336,21.82,2.4842,355,23974,1.98438,3.88,43228,,,,,,,,,,,,,,,,,,99999,99999,99999,99999,99999,99999,99999,99999,99999,99999,99999,99999
30:25:10,1510519110,2017-11-12T20:38:32,0.794,1414.2,18.61,15.89,20.42,835.350,2082.510,119.916664,22.06,2.4844,355,23977,1.97332,3.88,43223,,,,,,,,,,,,,,,,,,99999,99999,99999,99999,99999,99999,99999,99999,99999,99999,99999,99999
30:25:40,1510519140,2017-11-12T20:39:02,0.799,1414.6,18.58,15.86,20.38,835.410,2082.350,120.533333,21.35,2.4846,355,23973,1.98438,3.88,43218,,,,,,,,,,,,,,,,,,99999,99999,99999,99999,99999,99999,99999,99999,99999,99999,99999,99999
30:26:10,1510519170,2017-11-12T20:39:32,0.798,1415.0,18.52,15.84,20.30,835.400,2082.180,119.433334,22.07,2.4848,355,23973,1.98376,3.88,43212,,,,,,,,,,,,,,,,,,99999,99999,99999,99999,99999,99999,99999,99999,99999,99999,99999,99999
30:26:40,1510519200,2017-11-12T20:40:02,0.798,1415.4,18.48,15.78,20.27,835.400,2082.050,120.383331,22.17,2.4850,355,23973,1.98284,3.88,43207,,,,,,,,,,,,,,,,,,99999,99999,99999,99999,99999,99999,99999,99999,99999,99999,99999,99999
30:27:10,1510519230,2017-11-12T20:40:32,0.794,1415.8,18.43,15.75,20.24,835.390,2081.830,119.133331,22.20,2.4852,355,23972,1.97209,3.88,43202,,,,,,,,,,,,,,,,,,99999,99999,99999,99999,99999,99999,99999,99999,99999,99999,99999,99999
30:27:40,1510519260,2017-11-12T20:41:02,0.794,1416.2,18.38,15.73,20.17,835.350,2081.660,121.283333,22.32,2.4854,355,23970,1.97362,3.88,43197,,,,,,,,,,,,,,,,,,99999,99999,99999,99999,99999,99999,99999,99999,99999,99999,99999,99999
30:28:10,1510519290,2017-11-12T20:41:32,0.798,1416.6,18.33,15.67,20.10,835.410,2081.530,120.766670,23.19,2.4856,355,23971,1.98284,3.88,43192,,,,,,,,,,,,,,,,,,99999,99999,99999,99999,99999,99999,99999,99999,99999,99999,99999,99999
30:28:40,1510519320,2017-11-12T20:42:02,0.791,1417.0,18.28,15.63,20.09,835.420,2081.300,119.133331,23.30,2.4857,355,23967,1.96657,3.88,43187,,,,,,,,,,,,,,,,,,99999,99999,99999,99999,99999,99999,99999,99999,99999,99999,99999,99999
30:29:10,1510519350,2017-11-12T20:42:32,0.795,1417.4,18.22,15.61,20.00,835.390,2081.130,119.133331,22.63,2.4861,355,23967,1.97578,3.88,43182,,,,,,,,,,,,,,,,,,99999,99999,99999,99999,99999,99999,99999,99999,99999,99999,99999,99999
30:29:40,1510519380,2017-11-12T20:43:02,0.793,1417.8,18.16,15.54,19.93,835.370,2080.910,117.683334,23.13,2.4863,355,23966,1.97178,3.88,43177,,,,,,,,,,,,,,,,,,99999,99999,99999,99999,99999,99999,99999,99999,99999,99999,99999,99999
30:30:10,1510519410,2017-11-12T20:43:32,0.796,1418.2,18.11,15.52,19.93,835.350,2080.740,120.150002,23.36,2.4865,355,23965,1.97884,3.88,43172,,,,,,,,,,,,,,,,,,99999,99999,99999,99999,99999,99999,99999,99999,99999,99999,99999,99999
30:30:40,1510519440,2017-11-12T20:44:02,0.790,1418.6,18.06,15.50,19.88,835.390,2080.610,118.833336,22.63,2.4869,355,23963,1.96382,3.88,43167,,,,,,,,,,,,,,,,,,99999,99999,99999,99999,99999,99999,99999,99999,99999,99999,99999,99999
30:31:10,1510519470,2017-11-12T20:44:32,0.793,1419.0,18.00,15.47,19.78,835.330,2080.380,121.466667,22.64,2.4871,355,23961,1.97301,3.88,43162,,,,,,,,,,,,,,,,,,99999,99999,99999,99999,99999,99999,99999,99999,99999,99999,99999,99999
30:31:40,1510519500,2017-11-12T20:45:02,0.796,1419.4,17.96,15.45,19.74,835.340,2080.210,120.166664,23.73,2.4872,355,23962,1.97915,3.88,43157,,,,,,,,,,,,,,,,,,99999,99999,99999,99999,99999,99999,99999,99999,99999,99999,99999,99999
30:32:10,1510519530,2017-11-12T20:45:32,0.794,1419.8,17.91,15.40,19.69,835.370,2080.030,118.466667,23.04,2.4874,355,23961,1.97547,3.88,43152,,,,,,,,,,,,,,,,,,99999,99999,99999,99999,99999,99999,99999,99999,99999,99999,99999,99999
30:32:40,1510519560,2017-11-12T20:46:02,0.792,1420.1,17.86,15.34,19.64,835.330,2079.860,119.466667,23.12,2.4877,355,23958,1.97056,3.88,43146,,,,,,,,,,,,,,,,,,99999,99999,99999,99999,99999,99999,99999,99999,99999,99999,99999,99999
30:33:10,1510519590,2017-11-12T20:46:32,0.790,1420.5,17.79,15.35,19.58,835.370,2079.690,118.366669,23.72,2.4880,355,23956,1.96596,3.88,43141,,,,,,,,,,,,,,,,,,99999,99999,99999,99999,99999,99999,99999,99999,99999,99999,99999,99999
30:33:40,1510519620,2017-11-12T20:47:02,0.795,1420.9,17.76,15.31,19.52,835.380,2079.530,118.666664,24.29,2.4880,355,23957,1.97915,3.88,43136,,,,,,,,,,,,,,,,,,99999,99999,99999,99999,99999,99999,99999,99999,99999,99999,99999,99999
30:34:10,1510519650,2017-11-12T20:47:32,0.794,1421.3,17.71,15.26,19.50,835.290,2079.340,120.000000,24.51,2.4882,355,23956,1.97669,3.88,43131,,,,,,,,,,,,,,,,,,99999,99999,99999,99999,99999,99999,99999,99999,99999,99999,99999,99999
30:34:40,1510519680,2017-11-12T20:48:02,0.793,1421.7,17.66,15.23,19.42,835.380,2079.170,118.683334,23.62,2.4885,355,23952,1.97270,3.88,43126,,,,,,,,,,,,,,,,,,99999,99999,99999,99999,99999,99999,99999,99999,99999,99999,99999,99999
30:35:10,1510519710,2017-11-12T20:48:32,0.793,1422.1,17.63,15.20,19.38,835.440,2079.040,119.883331,23.79,2.4886,355,23954,1.97455,3.88,43121,,,,,,,,,,,,,,,,,,99999,99999,99999,99999,99999,99999,99999,99999,99999,99999,99999,99999
30:35:40,1510519740,2017-11-12T20:49:02,0.793,1422.5,17.58,15.18,19.33,835.370,2078.940,119.033333,23.81,2.4889,355,23955,1.97455,3.88,43116,,,,,,,,,,,,,,,,,,99999,99999,99999,99999,99999,99999,99999,99999,99999,99999,99999,99999
30:36:10,1510519770,2017-11-12T20:49:32,0.789,1422.9,17.54,15.14,19.30,835.350,2078.710,117.483330,24.45,2.4889,355,23952,1.96290,3.88,43111,,,,,,,,,,,,,,,,,,99999,99999,99999,99999,99999,99999,99999,99999,99999,99999,99999,99999
30:36:40,1510519800,2017-11-12T20:50:02,0.790,1423.3,17.50,15.11,19.27,835.430,2078.590,117.966667,23.33,2.4892,355,23949,1.96657,3.88,43106,,,,,,,,,,,,,,,,,,99999,99999,99999,99999,99999,99999,99999,99999,99999,99999,99999,99999
30:37:10,1510519830,2017-11-12T20:50:32,0.789,1423.7,17.47,15.09,19.24,835.390,2078.490,116.849998,24.30,2.4893,355,23952,1.96351,3.88,43101,,,,,,,,,,,,,,,,,,99999,99999,99999,99999,99999,99999,99999,99999,99999,99999,99999,99999
30:37:40,1510519860,2017-11-12T20:51:02,0.790,1424.1,17.43,15.05,19.19,835.400,2078.420,117.233330,24.23,2.4896,355,23949,1.96688,3.88,43096,,,,,,,,,,,,,,,,,,99999,99999,99999,99999,99999,99999,99999,99999,99999,99999,99999,99999
30:38:10,1510519890,2017-11-12T20:51:32,0.793,1424.5,17.40,15.04,19.13,835.410,2078.250,118.866669,24.70,2.4896,355,23947,1.97424,3.88,43091,,,,,,,,,,,,,,,,,,99999,99999,99999,99999,99999,99999,99999,99999,99999,99999,99999,99999
30:38:40,1510519920,2017-11-12T20:52:02,0.788,1424.9,17.36,14.99,19.10,835.420,2078.130,117.716667,24.46,2.4898,355,23947,1.96229,3.88,43086,,,,,,,,,,,,,,,,,,99999,99999,99999,99999,99999,99999,99999,99999,99999,99999,99999,99999
30:39:10,1510519950,2017-11-12T20:52:32,0.789,1425.3,17.32,14.96,19.05,835.400,2078.020,118.183334,23.93,2.4901,355,23947,1.96413,3.88,43081,,,,,,,,,,,,,,,,,,99999,99999,99999,99999,99999,99999,99999,99999,99999,99999,99999,99999
30:39:40,1510519980,2017-11-12T20:53:02,0.789,1425.7,17.29,14.96,19.06,835.320,2077.900,116.866669,23.60,2.4902,355,23945,1.96413,3.88,43076,,,,,,,,,,,,,,,,,,99999,99999,99999,99999,99999,99999,99999,99999,99999,99999,99999,99999
30:40:10,1510520010,2017-11-12T20:53:32,0.793,1426.1,17.27,14.93,18.98,835.350,2077.790,117.900002,24.48,2.4902,355,23945,1.97362,3.88,43071,,,,,,,,,,,,,,,,,,99999,99999,99999,99999,99999,99999,99999,99999,99999,99999,99999,99999
30:40:40,1510520040,2017-11-12T20:54:02,0.786,1426.5,17.25,14.91,19.02,835.390,2077.730,117.783333,24.31,2.4903,355,23942,1.95770,3.88,43066,,,,,,,,,,,,,,,,,,99999,99999,99999,99999,99999,99999,99999,99999,99999,99999,99999,99999
30:41:10,1510520070,2017-11-12T20:54:32,0.787,1426.9,17.22,14.90,18.94,835.420,2077.630,115.683334,24.65,2.4904,355,23943,1.96107,3.88,43061,,,,,,,,,,,,,,,,,,99999,99999,99999,99999,99999,99999,99999,99999,99999,99999,99999,99999
30:41:40,1510520100,2017-11-12T20:55:02,0.789,1427.3,17.19,14.87,18.94,835.370,2077.570,118.533333,24.51,2.4906,355,23943,1.96505,3.88,43056,,,,,,,,,,,,,,,,,,99999,99999,99999,99999,99999,99999,99999,99999,99999,99999,99999,99999
30:42:10,1510520130,2017-11-12T20:55:32,0.789,1427.7,17.17,14.88,18.92,835.380,2077.500,117.199997,25.04,2.4907,355,23943,1.96596,3.88,43051,,,,,,,,,,,,,,,,,,99999,99999,99999,99999,99999,99999,99999,99999,99999,99999,99999,99999
30:42:40,1510520160,2017-11-12T20:56:02,0.789,1428.1,17.16,14.85,18.90,835.460,2077.440,117.533333,23.90,2.4908,355,23941,1.96413,3.88,43046,,,,,,,,,,,,,,,,,,99999,99999,99999,99999,99999,99999,99999,99999,99999,99999,99999,99999
30:43:10,1510520190,2017-11-12T20:56:32,0.790,1428.5,17.14,14.88,18.86,835.380,2077.340,116.166664,24.45,2.4908,355,23942,1.96872,3.88,43041,,,,,,,,,,,,,,,,,,99999,99999,99999,99999,99999,99999,99999,99999,99999,99999,99999,99999
30:43:40,1510520220,2017-11-12T20:57:02,0.787,1428.8,17.13,14.87,18.85,835.390,2077.270,117.483330,24.83,2.4907,355,23941,1.95923,3.88,43036,,,,,,,,,,,,,,,,,,99999,99999,99999,99999,99999,99999,99999,99999,99999,99999,99999,99999
30:44:10,1510520250,2017-11-12T20:57:32,0.788,1429.2,17.12,14.86,18.83,835.310,2077.270,116.349998,24.58,2.4909,355,23941,1.96382,3.88,43030,,,,,,,,,,,,,,,,,,99999,99999,99999,99999,99999,99999,99999,99999,99999,99999,99999,99999
30:44:40,1510520280,2017-11-12T20:58:02,0.789,1429.6,17.12,14.88,18.83,835.360,2077.270,117.533333,24.25,2.4909,355,23944,1.96505,3.88,43025,,,,,,,,,,,,,,,,,,99999,99999,99999,99999,99999,99999,99999,99999,99999,99999,99999,99999
30:45:10,1510520310,2017-11-12T20:58:32,0.789,1430.0,17.11,14.89,18.80,835.360,2077.270,116.466667,23.81,2.4910,355,23942,1.96627,3.88,43020,,,,,,,,,,,,,,,,,,99999,99999,99999,99999,99999,99999,99999,99999,99999,99999,99999,99999
30:45:40,1510520340,2017-11-12T20:59:02,0.790,1430.4,17.11,14.86,18.82,835.340,2077.270,121.316666,24.53,2.4910,355,23940,1.96688,3.88,43015,,,,,,,,,,,,,,,,,,99999,99999,99999,99999,99999,99999,99999,99999,99999,99999,99999,99999
30:46:10,1510520370,2017-11-12T20:59:32,0.788,1430.8,17.09,14.86,18.82,835.340,2077.210,116.183334,24.40,2.4911,355,23942,1.96198,3.88,43010,,,,,,,,,,,,,,,,,,99999,99999,99999,99999,99999,99999,99999,99999,99999,99999,99999,99999
30:46:40,1510520400,2017-11-12T21:00:02,0.793,1431.2,17.09,14.85,18.85,835.390,2077.210,118.516670,24.00,2.4911,355,23941,1.97608,3.88,43005,,,,,,,,,,,,,,,,,,99999,99999,99999,99999,99999,99999,99999,99999,99999,99999,99999,99999
30:47:10,1510520430,2017-11-12T21:00:32,0.787,1431.6,17.09,14.87,18.78,835.420,2077.210,117.183334,24.61,2.4910,355,23941,1.95954,3.88,43000,,,,,,,,,,,,,,,,,,99999,99999,99999,99999,99999,99999,99999,99999,99999,99999,99999,99999
30:47:40,1510520460,2017-11-12T21:01:02,0.786,1432.0,17.09,14.85,18.82,835.370,2077.210,117.466667,24.79,2.4910,355,23940,1.95740,3.88,42995,,,,,,,,,,,,,,,,,,99999,99999,99999,99999,99999,99999,99999,99999,99999,99999,99999,99999
30:48:10,1510520490,2017-11-12T21:01:32,0.786,1432.4,17.08,14.85,18.77,835.340,2077.170,116.583336,24.37,2.4911,355,23942,1.95923,3.88,42990,,,,,,,,,,,,,,,,,,99999,99999,99999,99999,99999,99999,99999,99999,99999,99999,99999,99999
30:48:40,1510520520,2017-11-12T21:02:02,0.792,1432.8,17.08,14.85,18.78,835.400,2077.170,118.433334,24.36,2.4911,355,23941,1.97240,3.88,42985,,,,,,,,,,,,,,,,,,99999,99999,99999,99999,99999,99999,99999,99999,99999,99999,99999,99999
30:49:10,1510520550,2017-11-12T21:02:32,0.788,1433.2,17.07,14.83,18.80,835.400,2077.170,116.133331,23.71,2.4913,355,23943,1.96351,3.88,42980,,,,,,,,,,,,,,,,,,99999,99999,99999,99999,99999,99999,99999,99999,99999,99999,99999,99999
30:49:40,1510520580,2017-11-12T21:03:02,0.789,1433.6,17.06,14.80,18.75,835.400,2077.100,117.466667,23.95,2.4912,355,23940,1.96627,3.88,42975,,,,,,,,,,,,,,,,,,99999,99999,99999,99999,99999,99999,99999,99999,99999,99999,99999,99999
30:50:10,1510520610,2017-11-12T21:03:32,0.791,1434.0,17.05,14.83,18.70,835.350,2077.040,116.283333,24.34,2.4912,355,23941,1.97117,3.88,42970,,,,,,,,,,,,,,,,,,99999,99999,99999,99999,99999,99999,99999,99999,99999,99999,99999,99999
30:50:40,1510520640,2017-11-12T21:04:02,0.788,1434.4,17.04,14.80,18.74,835.350,2077.040,116.066666,24.22,2.4913,355,23940,1.96382,3.88,42965,,,,,,,,,,,,,,,,,,99999,99999,99999,99999,99999,99999,99999,99999,99999,99999,99999,99999
30:51:10,1510520670,2017-11-12T21:04:32,0.792,1434.8,17.04,14.81,18.75,835.430,2077.040,119.883331,24.66,2.4913,355,23940,1.97240,3.88,42960,,,,,,,,,,,,,,,,,,99999,99999,99999,99999,99999,99999,99999,99999,99999,99999,99999,99999
30:51:40,1510520700,2017-11-12T21:05:02,0.791,1435.2,17.04,14.81,18.72,835.380,2077.040,117.316666,25.79,2.4912,355,23940,1.96964,3.88,42955,,,,,,,,,,,,,,,,,,99999,99999,99999,99999,99999,99999,99999,99999,99999,99999,99999,99999
30:52:10,1510520730,2017-11-12T21:05:32,0.786,1435.6,17.02,14.83,18.70,835.310,2076.980,117.483330,24.93,2.4914,355,23941,1.95862,3.88,42950,,,,,,,,,,,,,,,,,,99999,99999,99999,99999,99999,99999,99999,99999,99999,99999,99999,99999
30:52:40,1510520760,2017-11-12T21:06:02,0.792,1436.0,17.04,14.83,18.70,835.350,2077.040,118.533333,24.50,2.4913,355,23937,1.97301,3.88,42945,,,,,,,,,,,,,,,,,,99999,99999,99999,99999,99999,99999,99999,99999,99999,99999,99999,99999
30:53:10,1510520790,2017-11-12T21:06:32,0.790,1436.3,17.02,14.80,18.72,835.330,2076.980,117.866669,23.84,2.4914,355,23936,1.96872,3.88,42940,,,,,,,,,,,,,,,,,,99999,99999,99999,99999,99999,99999,99999,99999,99999,99999,99999,99999
30:53:40,1510520820,2017-11-12T21:07:02,0.788,1436.7,17.02,14.79,18.70,835.250,2076.980,118.566666,23.82,2.4915,355,23939,1.96229,3.88,42935,,,,,,,,,,,,,,,,,,99999,99999,99999,99999,99999,99999,99999,99999,99999,99999,99999,99999
30:54:10,1510520850,2017-11-12T21:07:32,0.787,1437.1,17.01,14.79,18.70,835.250,2076.870,115.033333,24.08,2.4914,355,23938,1.95985,3.88,42930,,,,,,,,,,,,,,,,,,99999,99999,99999,99999,99999,99999,99999,99999,99999,99999,99999,99999
30:54:40,1510520880,2017-11-12T21:08:02,0.787,1437.5,17.02,14.80,18.67,835.280,2076.980,117.616669,24.74,2.4914,355,23940,1.96137,3.88,42925,,,,,,,,,,,,,,,,,,99999,99999,99999,99999,99999,99999,99999,99999,99999,99999,99999,99999
30:55:10,1510520910,2017-11-12T21:08:32,0.792,1437.9,17.00,14.79,18.72,835.180,2076.870,117.983330,24.41,2.4914,355,23938,1.97393,3.88,42920,,,,,,,,,,,,,,,,,,99999,99999,99999,99999,99999,99999,99999,99999,99999,99999,99999,99999
30:55:40,1510520940,2017-11-12T21:09:02,0.786,1438.3,17.01,14.81,18.70,835.250,2076.870,116.650002,24.23,2.4914,355,23938,1.95740,3.88,42915,,,,,,,,,,,,,,,,,,99999,99999,99999,99999,99999,99999,99999,99999,99999,99999,99999,99999
30:56:10,1510520970,2017-11-12T21:09:32,0.789,1438.7,17.00,14.78,18.67,835.180,2076.870,116.466667,25.99,2.4913,355,23942,1.96657,3.88,42910,,,,,,,,,,,,,,,,,,99999,99999,99999,99999,99999,99999,99999,99999,99999,99999,99999,99999
30:56:40,1510521000,2017-11-12T21:10:02,0.788,1439.1,17.01,14.80,18.69,835.280,2076.870,116.833336,24.82,2.4913,355,23940,1.96351,3.88,42905,,,,,,,,,,,,,,,,,,99999,99999,99999,99999,99999,99999,99999,99999,99999,99999,99999,99999
30:57:10,1510521030,2017-11-12T21:10:32,0.791,1439.5,17.00,14.78,18.66,835.200,2076.870,116.833336,24.32,2.4914,355,23940,1.97025,3.88,42900,,,,,,,,,,,,,,,,,,99999,99999,99999,99999,99999,99999,99999,99999,99999,99999,99999,99999
30:57:40,1510521060,2017-11-12T21:11:02,0.790,1439.9,17.00,14.77,18.66,835.230,2076.870,117.733330,25.23,2.4914,355,23940,1.96841,3.88,42895,,,,,,,,,,,,,,,,,,99999,99999,99999,99999,99999,99999,99999,99999,99999,99999,99999,99999
30:58:10,1510521090,2017-11-12T21:11:32,0.791,1440.3,16.99,14.77,18.63,835.230,2076.810,117.599998,24.13,2.4915,355,23939,1.96964,3.88,42890,,,,,,,,,,,,,,,,,,99999,99999,99999,99999,99999,99999,99999,99999,99999,99999,99999,99999
30:58:40,1510521120,2017-11-12T21:12:02,0.791,1440.7,16.99,14.75,18.66,835.200,2076.810,118.766670,23.92,2.4915,355,23939,1.97025,3.88,42885,,,,,,,,,,,,,,,,,,99999,99999,99999,99999,99999,99999,99999,99999,99999,99999,99999,99999
30:59:10,1510521150,2017-11-12T21:12:32,0.786,1441.1,16.98,14.76,18.66,835.150,2076.810,117.266670,24.29,2.4916,355,23938,1.95770,3.88,42880,,,,,,,,,,,,,,,,,,99999,99999,99999,99999,99999,99999,99999,99999,99999,99999,99999,99999
30:59:40,1510521180,2017-11-12T21:13:02,0.787,1441.5,16.98,14.75,18.64,835.180,2076.810,116.849998,25.40,2.4915,355,23937,1.96015,3.88,42875,,,,,,,,,,,,,,,,,,99999,99999,99999,99999,99999,99999,99999,99999,99999,99999,99999,99999
31:00:10,1510521210,2017-11-12T21:13:32,0.787,1441.9,16.98,14.72,18.63,835.210,2076.810,115.783333,24.95,2.4915,355,23937,1.96137,3.88,42869,,,,,,,,,,,,,,,,,,99999,99999,99999,99999,99999,99999,99999,99999,99999,99999,99999,99999
31:00:40,1510521240,2017-11-12T21:14:02,0.789,1442.3,16.96,14.71,18.61,835.260,2076.710,116.650002,25.00,2.4915,355,23936,1.96657,3.88,42864,,,,,,,,,,,,,,,,,,99999,99999,99999,99999,99999,99999,99999,99999,99999,99999,99999,99999
31:01:10,1510521270,2017-11-12T21:14:32,0.789,1442.7,16.95,14.72,18.63,835.180,2076.710,117.616669,24.02,2.4917,355,23937,1.96566,3.88,42859,,,,,,,,,,,,,,,,,,99999,99999,99999,99999,99999,99999,99999,99999,99999,99999,99999,99999
31:01:40,1510521300,2017-11-12T21:15:02,0.791,1443.1,16.96,14.71,18.59,835.160,2076.710,117.333336,24.05,2.4916,355,23939,1.96964,3.88,42854,,,,,,,,,,,,,,,,,,99999,99999,99999,99999,99999,99999,99999,99999,99999,99999,99999,99999
31:02:10,1510521330,2017-11-12T21:15:32,0.788,1443.5,16.94,14.70,18.59,835.210,2076.710,117.733330,24.10,2.4918,355,23937,1.96351,3.88,42849,,,,,,,,,,,,,,,,,,99999,99999,99999,99999,99999,99999,99999,99999,99999,99999,99999,99999
31:02:40,1510521360,2017-11-12T21:16:02,0.790,1443.8,16.93,14.70,18.58,835.190,2076.650,117.016670,25.12,2.4917,355,23937,1.96872,3.88,42844,,,,,,,,,,,,,,,,,,99999,99999,99999,99999,99999,99999,99999,99999,99999,99999,99999,99999
31:03:10,1510521390,2017-11-12T21:16:32,0.791,1444.2,16.93,14.68,18.56,835.190,2076.650,118.566666,24.36,2.4918,355,23935,1.97087,3.88,42839,,,,,,,,,,,,,,,,,,99999,99999,99999,99999,99999,99999,99999,99999,99999,99999,99999,99999
31:03:40,1510521420,2017-11-12T21:17:02,0.789,1444.6,16.92,14.69,18.59,835.240,2076.650,117.766670,24.31,2.4919,355,23934,1.96596,3.88,42834,,,,,,,,,,,,,,,,,,99999,99999,99999,99999,99999,99999,99999,99999,99999,99999,99999,99999
31:04:10,1510521450,2017-11-12T21:17:32,0.787,1445.0,16.92,14.69,18.56,835.220,2076.650,116.099998,24.39,2.4919,355,23934,1.96015,3.88,42829,,,,,,,,,,,,,,,,,,99999,99999,99999,99999,99999,99999,99999,99999,99999,99999,99999,99999
31:04:40,1510521480,2017-11-12T21:18:02,0.789,1445.4,16.92,14.66,18.56,835.240,2076.650,117.083336,25.17,2.4918,355,23934,1.96627,3.88,42824,,,,,,,,,,,,,,,,,,99999,99999,99999,99999,99999,99999,99999,99999,99999,99999,99999,99999
31:05:10,1510521510,2017-11-12T21:18:32,0.786,1445.8,16.92,14.67,18.59,835.240,2076.650,115.733330,24.69,2.4918,355,23934,1.95954,3.87,42819,,,,,,,,,,,,,,,,,,99999,99999,99999,99999,99999,99999,99999,99999,99999,99999,99999,99999
31:05:40,1510521540,2017-11-12T21:19:02,0.791,1446.2,16.91,14.68,18.58,835.140,2076.580,118.449997,24.28,2.4919,355,23935,1.97209,3.87,42814,,,,,,,,,,,,,,,,,,99999,99999,99999,99999,99999,99999,99999,99999,99999,99999,99999,99999
31:06:10,1510521570,2017-11-12T21:19:32,0.788,1446.6,16.91,14.66,18.55,835.110,2076.580,115.133331,24.55,2.4919,355,23937,1.96260,3.87,42809,,,,,,,,,,,,,,,,,,99999,99999,99999,99999,99999,99999,99999,99999,99999,99999,99999,99999
31:06:40,1510521600,2017-11-12T21:20:02,0.787,1447.0,16.91,14.65,18.55,835.170,2076.580,115.116669,25.08,2.4918,355,23934,1.96198,3.87,42804,,,,,,,,,,,,,,,,,,99999,99999,99999,99999,99999,99999,99999,99999,99999,99999,99999,99999
31:07:10,1510521630,2017-11-12T21:20:32,0.791,1447.4,16.91,14.64,18.52,835.250,2076.580,118.500000,24.16,2.4919,355,23935,1.97117,3.87,42799,,,,,,,,,,,,,,,,,,99999,99999,99999,99999,99999,99999,99999,99999,99999,99999,99999,99999
31:07:40,1510521660,2017-11-12T21:21:02,0.791,1447.8,16.90,14.63,18.51,835.250,2076.580,116.800003,23.96,2.4920,355,23934,1.97178,3.87,42794,,,,,,,,,,,,,,,,,,99999,99999,99999,99999,99999,99999,99999,99999,99999,99999,99999,99999
31:08:10,1510521690,2017-11-12T21:21:32,0.792,1448.2,16.87,14.61,18.52,835.150,2076.420,117.566666,24.14,2.4921,355,23935,1.97393,3.87,42789,,,,,,,,,,,,,,,,,,99999,99999,99999,99999,99999,99999,99999,99999,99999,99999,99999,99999
31:08:40,1510521720,2017-11-12T21:22:02,0.787,1448.6,16.87,14.62,18.51,835.180,2076.420,115.133331,24.34,2.4920,355,23934,1.96168,3.87,42784,,,,,,,,,,,,,,,,,,99999,99999,99999,99999,99999,99999,99999,99999,99999,99999,99999,99999
31:09:10,1510521750,2017-11-12T21:22:32,0.787,1449.0,16.86,14.60,18.51,835.050,2076.350,115.566666,24.77,2.4920,355,23934,1.96229,3.87,42779,,,,,,,,,,,,,,,,,,99999,99999,99999,99999,99999,99999,99999,99999,99999,99999,99999,99999
31:09:40,1510521780,2017-11-12T21:23:02,0.791,1449.4,16.87,14.58,18.55,835.180,2076.420,118.733330,25.09,2.4920,355,23936,1.97117,3.87,42774,,,,,,,,,,,,,,,,,,99999,99999,99999,99999,99999,99999,99999,99999,99999,99999,99999,99999
31:10:10,1510521810,2017-11-12T21:23:32,0.787,1449.8,16.87,14.59,18.51,835.180,2076.420,117.966667,25.29,2.4920,355,23934,1.96168,3.87,42769,,,,,,,,,,,,,,,,,,99999,99999,99999,99999,99999,99999,99999,99999,99999,99999,99999,99999
31:10:40,1510521840,2017-11-12T21:24:02,0.786,1450.2,16.85,14.60,18.51,835.080,2076.350,115.366669,25.08,2.4921,355,23933,1.95985,3.87,42764,,,,,,,,,,,,,,,,,,99999,99999,99999,99999,99999,99999,99999,99999,99999,99999,99999,99999
31:11:10,1510521870,2017-11-12T21:24:32,0.793,1450.6,16.85,14.60,18.50,835.050,2076.350,115.716667,24.66,2.4921,355,23932,1.97578,3.87,42759,,,,,,,,,,,,,,,,,,99999,99999,99999,99999,99999,99999,99999,99999,99999,99999,99999,99999
31:11:40,1510521900,2017-11-12T21:25:02,0.786,1451.0,16.83,14.56,18.44,835.130,2076.290,116.066666,24.32,2.4922,355,23933,1.95954,3.87,42754,,,,,,,,,,,,,,,,,,99999,99999,99999,99999,99999,99999,99999,99999,99999,99999,99999,99999
31:12:10,1510521930,2017-11-12T21:25:32,0.787,1451.3,16.84,14.57,18.48,835.050,2076.290,116.366669,24.00,2.4922,355,23932,1.96168,3.87,42749,,,,,,,,,,,,,,,,,,99999,99999,99999,99999,99999,99999,99999,99999,99999,99999,99999,99999
31:12:40,1510521960,2017-11-12T21:26:02,0.787,1451.7,16.83,14.57,18.48,835.080,2076.290,115.883331,24.28,2.4922,355,23928,1.96046,3.87,42744,,,,,,,,,,,,,,,,,,99999,99999,99999,99999,99999,99999,99999,99999,99999,99999,99999,99999
31:13:10,1510521990,2017-11-12T21:26:32,0.786,1452.1,16.83,14.57,18.47,835.130,2076.290,116.283333,24.61,2.4922,355,23931,1.95862,3.87,42739,,,,,,,,,,,,,,,,,,99999,99999,99999,99999,99999,99999,99999,99999,99999,99999,99999,99999
31:13:40,1510522020,2017-11-12T21:27:02,0.787,1452.5,16.83,14.55,18.44,835.030,2076.290,115.849998,24.42,2.4922,355,23931,1.96046,3.87,42734,,,,,,,,,,,,,,,,,,99999,99999,99999,99999,99999,99999,99999,99999,99999,99999,99999,99999
31:14:10,1510522050,2017-11-12T21:27:32,0.786,1452.9,16.81,14.57,18.42,835.110,2076.250,115.766670,26.00,2.4922,355,23932,1.95954,3.87,42728,,,,,,,,,,,,,,,,,,99999,99999,99999,99999,99999,99999,99999,99999,99999,99999,99999,99999
31:14:40,1510522080,2017-11-12T21:28:02,0.786,1453.3,16.82,14.55,18.47,835.110,2076.250,116.716667,26.24,2.4921,355,23932,1.95770,3.87,42723,,,,,,,,,,,,,,,,,,99999,99999,99999,99999,99999,99999,99999,99999,99999,99999,99999,99999
31:15:10,1510522110,2017-11-12T21:28:32,0.789,1453.7,16.81,14.56,18.42,835.000,2076.250,118.216667,24.63,2.4923,355,23932,1.96657,3.87,42718,,,,,,,,,,,,,,,,,,99999,99999,99999,99999,99999,99999,99999,99999,99999,99999,99999,99999
31:15:40,1510522140,2017-11-12T21:29:02,0.790,1454.1,16.81,14.54,18.47,835.030,2076.250,119.199997,25.09,2.4923,355,23929,1.96933,3.87,42713,,,,,,,,,,,,,,,,,,99999,99999,99999,99999,99999,99999,99999,99999,99999,99999,99999,99999
31:16:10,1510522170,2017-11-12T21:29:32,0.787,1454.5,16.81,14.55,18.42,835.060,2076.250,118.800003,24.80,2.4923,355,23929,1.96260,3.87,42708,,,,,,,,,,,,,,,,,,99999,99999,99999,99999,99999,99999,99999,99999,99999,99999,99999,99999
31:16:40,1510522200,2017-11-12T21:30:02,0.790,1454.9,16.79,14.52,18.42,835.060,2076.190,117.016670,24.56,2.4924,355,23930,1.96780,3.87,42703,,,,,,,,,,,,,,,,,,99999,99999,99999,99999,99999,99999,99999,99999,99999,99999,99999,99999
31:17:10,1510522230,2017-11-12T21:30:32,0.786,1455.3,16.79,14.51,18.43,835.060,2076.190,117.283333,25.72,2.4923,355,23929,1.95923,3.87,42698,,,,,,,,,,,,,,,,,,99999,99999,99999,99999,99999,99999,99999,99999,99999,99999,99999,99999
31:17:40,1510522260,2017-11-12T21:31:02,0.788,1455.7,16.78,14.51,18.42,835.060,2076.120,116.766670,24.72,2.4924,355,23928,1.96474,3.87,42693,,,,,,,,,,,,,,,,,,99999,99999,99999,99999,99999,99999,99999,99999,99999,99999,99999,99999
31:18:10,1510522290,2017-11-12T21:31:32,0.786,1456.1,16.78,14.50,18.36,835.090,2076.120,115.866669,24.93,2.4924,355,23928,1.95985,3.87,42688,,,,,,,,,,,,,,,,,,99999,99999,99999,99999,99999,99999,99999,99999,99999,99999,99999,99999
31:18:40,1510522320,2017-11-12T21:32:02,0.786,1456.5,16.77,14.46,18.38,834.980,2076.120,118.333336,24.65,2.4925,355,23925,1.96015,3.87,42683,,,,,,,,,,,,,,,,,,99999,99999,99999,99999,99999,99999,99999,99999,99999,99999,99999,99999
31:19:10,1510522350,2017-11-12T21:32:32,0.789,1456.9,16.77,14.49,18.38,835.060,2076.120,118.633331,24.36,2.4926,355,23929,1.96749,3.87,42678,,,,,,,,,,,,,,,,,,99999,99999,99999,99999,99999,99999,99999,99999,99999,99999,99999,99999
31:19:40,1510522380,2017-11-12T21:33:02,0.791,1457.3,16.76,14.48,18.36,835.070,2076.060,117.616669,24.92,2.4925,355,23929,1.97270,3.87,42673,,,,,,,,,,,,,,,,,,99999,99999,99999,99999,99999,99999,99999,99999,99999,99999,99999,99999
31:20:10,1510522410,2017-11-12T21:33:32,0.791,1457.7,16.76,14.47,18.36,835.040,2076.060,118.083336,25.42,2.4925,355,23932,1.97087,3.87,42668,,,,,,,,,,,,,,,,,,99999,99999,99999,99999,99999,99999,99999,99999,99999,99999,99999,99999
31:20:40,1510522440,2017-11-12T21:34:02,0.786,1458.0,16.74,14.44,18.35,835.000,2075.960,116.583336,24.56,2.4926,355,23928,1.95923,3.87,42663,,,,,,,,,,,,,,,,,,99999,99999,99999,99999,99999,99999,99999,99999,99999,99999,99999,99999
31:21:10,1510522470,2017-11-12T21:34:32,0.789,1458.4,16.74,14.45,18.35,835.000,2075.960,118.300003,24.75,2.4926,355,23930,1.96749,3.87,42658,,,,,,,,,,,,,,,,,,99999,99999,99999,99999,99999,99999,99999,99999,99999,99999,99999,99999
31:21:40,1510522500,2017-11-12T21:35:02,0.787,1458.8,16.73,14.43,18.33,835.080,2075.960,116.883331,24.56,2.4927,355,23927,1.96198,3.87,42653,,,,,,,,,,,,,,,,,,99999,99999,99999,99999,99999,99999,99999,99999,99999,99999,99999,99999
31:22:10,1510522530,2017-11-12T21:35:32,0.790,1459.2,16.72,14.44,18.30,835.080,2075.900,116.416664,24.49,2.4927,355,23928,1.96810,3.87,42648,,,,,,,,,,,,,,,,,,99999,99999,99999,99999,99999,99999,99999,99999,99999,99999,99999,99999
31:22:40,1510522560,2017-11-12T21:36:02,0.786,1459.6,16.71,14.42,18.32,834.980,2075.830,115.133331,24.25,2.4927,355,23927,1.95954,3.87,42643,,,,,,,,,,,,,,,,,,99999,99999,99999,99999,99999,99999,99999,99999,99999,99999,99999,99999
31:23:10,1510522590,2017-11-12T21:36:32,0.786,1460.0,16.71,14.42,18.35,835.000,2075.830,117.733330,24.25,2.4927,355,23928,1.96046,3.87,42638,,,,,,,,,,,,,,,,,,99999,99999,99999,99999,99999,99999,99999,99999,99999,99999,99999,99999
31:23:40,1510522620,2017-11-12T21:37:02,0.786,1460.4,16.71,14.40,18.33,835.030,2075.830,115.833336,25.09,2.4927,355,23926,1.95954,3.87,42633,,,,,,,,,,,,,,,,,,99999,99999,99999,99999,99999,99999,99999,99999,99999,99999,99999,99999
31:24:10,1510522650,2017-11-12T21:37:32,0.791,1460.8,16.70,14.39,18.32,835.110,2075.830,117.533333,24.33,2.4928,355,23924,1.97240,3.87,42628,,,,,,,,,,,,,,,,,,99999,99999,99999,99999,99999,99999,99999,99999,99999,99999,99999,99999
31:24:40,1510522680,2017-11-12T21:38:02,0.790,1461.2,16.70,14.39,18.30,835.080,2075.830,116.150002,24.25,2.4928,355,23926,1.96964,3.87,42623,,,,,,,,,,,,,,,,,,99999,99999,99999,99999,99999,99999,99999,99999,99999,99999,99999,99999
31:25:10,1510522710,2017-11-12T21:38:32,0.787,1461.6,16.69,14.38,18.25,835.080,2075.790,117.650002,24.54,2.4928,355,23924,1.96198,3.87,42618,,,,,,,,,,,,,,,,,,99999,99999,99999,99999,99999,99999,99999,99999,99999,99999,99999,99999
31:25:40,1510522740,2017-11-12T21:39:02,0.790,1462.0,16.68,14.38,18.28,835.110,2075.790,118.183334,24.95,2.4929,355,23927,1.96994,3.87,42613,,,,,,,,,,,,,,,,,,99999,99999,99999,99999,99999,99999,99999,99999,99999,99999,99999,99999
31:26:10,1510522770,2017-11-12T21:39:32,0.791,1462.4,16.67,14.36,18.27,835.110,2075.730,117.650002,25.07,2.4929,355,23926,1.97209,3.87,42608,,,,,,,,,,,,,,,,,,99999,99999,99999,99999,99999,99999,99999,99999,99999,99999,99999,99999
31:26:40,1510522800,2017-11-12T21:40:02,0.786,1462.8,16.66,14.35,18.24,835.060,2075.730,115.716667,24.47,2.4930,355,23924,1.95862,3.87,42603,,,,,,,,,,,,,,,,,,99999,99999,99999,99999,99999,99999,99999,99999,99999,99999,99999,99999
31:27:10,1510522830,2017-11-12T21:40:32,0.789,1463.2,16.66,14.34,18.27,835.040,2075.730,116.016670,24.76,2.4930,355,23924,1.96780,3.87,42598,,,,,,,,,,,,,,,,,,99999,99999,99999,99999,99999,99999,99999,99999,99999,99999,99999,99999
31:27:40,1510522860,2017-11-12T21:41:02,0.790,1463.6,16.64,14.32,18.25,835.090,2075.670,117.366669,25.70,2.4930,355,23925,1.96933,3.87,42593,,,,,,,,,,,,,,,,,,99999,99999,99999,99999,99999,99999,99999,99999,99999,99999,99999,99999
31:28:10,1510522890,2017-11-12T21:41:32,0.786,1464.0,16.65,14.32,18.24,835.140,2075.670,115.383331,24.80,2.4930,355,23923,1.95893,3.87,42588,,,,,,,,,,,,,,,,,,99999,99999,99999,99999,99999,99999,99999,99999,99999,99999,99999,99999
31:28:40,1510522920,2017-11-12T21:42:02,0.785,1464.4,16.64,14.31,18.22,835.070,2075.670,117.066666,24.95,2.4931,355,23922,1.95801,3.87,42583,,,,,,,,,,,,,,,,,,99999,99999,99999,99999,99999,99999,99999,99999,99999,99999,99999,99999
31:29:10,1510522950,2017-11-12T21:42:32,0.785,1464.7,16.63,14.31,18.27,835.100,2075.600,115.650002,25.80,2.4930,355,23923,1.95709,3.87,42578,,,,,,,,,,,,,,,,,,99999,99999,99999,99999,99999,99999,99999,99999,99999,99999,99999,99999
31:29:40,1510522980,2017-11-12T21:43:02,0.791,1465.1,16.63,14.29,18.22,835.100,2075.600,117.099998,25.13,2.4931,355,23922,1.97117,3.87,42573,,,,,,,,,,,,,,,,,,99999,99999,99999,99999,99999,99999,99999,99999,99999,99999,99999,99999
31:30:10,1510523010,2017-11-12T21:43:32,0.785,1465.5,16.62,14.29,18.20,835.020,2075.600,116.816666,26.60,2.4930,355,23922,1.95679,3.87,42568,,,,,,,,,,,,,,,,,,99999,99999,99999,99999,99999,99999,99999,99999,99999,99999,99999,99999
31:30:40,1510523040,2017-11-12T21:44:02,0.787,1465.9,16.60,14.28,18.22,835.130,2075.500,117.300003,25.75,2.4932,355,23921,1.96260,3.87,42563,,,,,,,,,,,,,,,,,,99999,99999,99999,99999,99999,99999,99999,99999,99999,99999,99999,99999
31:31:10,1510523070,2017-11-12T21:44:32,0.791,1466.3,16.60,14.26,18.16,835.130,2075.500,117.000000,25.72,2.4932,355,23922,1.97301,3.87,42558,,,,,,,,,,,,,,,,,,99999,99999,99999,99999,99999,99999,99999,99999,99999,99999,99999,99999
31:31:40,1510523100,2017-11-12T21:45:02,0.786,1466.7,16.59,14.22,18.16,835.110,2075.430,116.083336,26.63,2.4931,355,23921,1.96015,3.87,42552,,,,,,,,,,,,,,,,,,99999,99999,99999,99999,99999,99999,99999,99999,99999,99999,99999,99999
31:32:10,1510523130,2017-11-12T21:45:32,0.789,1467.1,16.57,14.22,18.14,835.090,2075.370,116.283333,25.92,2.4933,355,23922,1.96657,3.87,42547,,,,,,,,,,,,,,,,,,99999,99999,99999,99999,99999,99999,99999,99999,99999,99999,99999,99999
31:32:40,1510523160,2017-11-12T21:46:02,0.791,1467.5,16.55,14.22,18.14,835.040,2075.330,118.000000,25.11,2.4935,355,23922,1.97209,3.87,42542,,,,,,,,,,,,,,,,,,99999,99999,99999,99999,99999,99999,99999,99999,99999,99999,99999,99999
31:33:10,1510523190,2017-11-12T21:46:32,0.787,1467.9,16.54,14.21,18.11,835.060,2075.330,115.566666,25.00,2.4936,355,23923,1.96290,3.87,42537,,,,,,,,,,,,,,,,,,99999,99999,99999,99999,99999,99999,99999,99999,99999,99999,99999,99999
31:33:40,1510523220,2017-11-12T21:47:02,0.785,1468.3,16.52,14.18,18.11,835.040,2075.200,116.116669,24.99,2.4936,355,23922,1.95862,3.87,42532,,,,,,,,,,,,,,,,,,99999,99999,99999,99999,99999,99999,99999,99999,99999,99999,99999,99999
31:34:10,1510523250,2017-11-12T21:47:32,0.785,1468.7,16.51,14.16,18.09,835.070,2075.200,116.033333,25.17,2.4936,355,23922,1.95832,3.87,42527,,,,,,,,,,,,,,,,,,99999,99999,99999,99999,99999,99999,99999,99999,99999,99999,99999,99999
31:34:40,1510523280,2017-11-12T21:48:02,0.785,1469.1,16.51,14.16,18.06,835.020,2075.200,116.650002,24.88,2.4937,355,23922,1.95740,3.87,42522,,,,,,,,,,,,,,,,,,99999,99999,99999,99999,99999,99999,99999,99999,99999,99999,99999,99999
31:35:10,1510523310,2017-11-12T21:48:32,0.789,1469.5,16.49,14.13,18.09,835.130,2075.140,115.566666,25.09,2.4938,355,23922,1.96749,3.87,42517,,,,,,,,,,,,,,,,,,99999,99999,99999,99999,99999,99999,99999,99999,99999,99999,99999,99999
31:35:40,1510523340,2017-11-12T21:49:02,0.790,1469.9,16.48,14.13,18.13,834.990,2075.040,118.050003,26.20,2.4936,355,23920,1.96872,3.87,42512,,,,,,,,,,,,,,,,,,99999,99999,99999,99999,99999,99999,99999,99999,99999,99999,99999,99999
31:36:10,1510523370,2017-11-12T21:49:32,0.785,1470.3,16.48,14.11,18.03,835.070,2075.040,116.650002,25.18,2.4937,355,23920,1.95770,3.87,42507,,,,,,,,,,,,,,,,,,99999,99999,99999,99999,99999,99999,99999,99999,99999,99999,99999,99999
31:36:40,1510523400,2017-11-12T21:50:02,0.790,1470.7,16.46,14.13,18.03,834.980,2074.980,117.366669,24.97,2.4938,355,23916,1.97117,3.87,42502,,,,,,,,,,,,,,,,,,99999,99999,99999,99999,99999,99999,99999,99999,99999,99999,99999,99999
31:37:10,1510523430,2017-11-12T21:50:32,0.789,1471.0,16.46,14.09,18.03,835.090,2074.980,117.633331,24.81,2.4939,355,23917,1.96780,3.87,42497,,,,,,,,,,,,,,,,,,99999,99999,99999,99999,99999,99999,99999,99999,99999,99999,99999,99999
31:37:40,1510523460,2017-11-12T21:51:02,0.789,1471.4,16.45,14.10,18.03,835.110,2074.980,118.833336,25.59,2.4939,355,23917,1.96810,3.87,42492,,,,,,,,,,,,,,,,,,99999,99999,99999,99999,99999,99999,99999,99999,99999,99999,99999,99999
31:38:10,1510523490,2017-11-12T21:51:32,0.784,1471.8,16.43,14.09,17.97,835.040,2074.920,115.733330,24.98,2.4940,355,23918,1.95618,3.87,42487,,,,,,,,,,,,,,,,,,99999,99999,99999,99999,99999,99999,99999,99999,99999,99999,99999,99999
31:38:40,1510523520,2017-11-12T21:52:02,0.789,1472.2,16.42,14.07,17.98,835.120,2074.870,117.333336,25.06,2.4940,355,23916,1.96719,3.87,42482,,,,,,,,,,,,,,,,,,99999,99999,99999,99999,99999,99999,99999,99999,99999,99999,99999,99999
31:39:10,1510523550,2017-11-12T21:52:32,0.783,1472.6,16.42,14.05,17.94,835.120,2074.870,115.866669,25.42,2.4940,355,23914,1.95190,3.87,42477,,,,,,,,,,,,,,,,,,99999,99999,99999,99999,99999,99999,99999,99999,99999,99999,99999,99999
31:39:40,1510523580,2017-11-12T21:53:02,0.784,1473.0,16.41,14.03,18.00,835.040,2074.870,115.566666,25.89,2.4941,355,23916,1.95435,3.87,42472,,,,,,,,,,,,,,,,,,99999,99999,99999,99999,99999,99999,99999,99999,99999,99999,99999,99999
31:40:10,1510523610,2017-11-12T21:53:32,0.786,1473.4,16.39,14.03,17.98,835.100,2074.810,116.050003,25.15,2.4942,355,23917,1.96107,3.87,42467,,,,,,,,,,,,,,,,,,99999,99999,99999,99999,99999,99999,99999,99999,99999,99999,99999,99999
31:40:40,1510523640,2017-11-12T21:54:02,0.790,1473.8,16.39,14.00,17.94,835.180,2074.810,116.900002,25.58,2.4942,355,23914,1.96933,3.87,42462,,,,,,,,,,,,,,,,,,99999,99999,99999,99999,99999,99999,99999,99999,99999,99999,99999,99999
31:41:10,1510523670,2017-11-12T21:54:32,0.788,1474.2,16.37,14.01,17.97,835.150,2074.750,116.566666,25.58,2.4943,355,23914,1.96474,3.87,42457,,,,,,,,,,,,,,,,,,99999,99999,99999,99999,99999,99999,99999,99999,99999,99999,99999,99999
31:41:40,1510523700,2017-11-12T21:55:02,0.788,1474.6,16.37,13.99,17.94,835.100,2074.750,116.283333,24.95,2.4943,355,23913,1.96474,3.87,42452,,,,,,,,,,,,,,,,,,99999,99999,99999,99999,99999,99999,99999,99999,99999,99999,99999,99999
31:42:10,1510523730,2017-11-12T21:55:32,0.784,1475.0,16.36,14.00,17.93,835.160,2074.680,116.783333,25.44,2.4943,355,23916,1.95587,3.87,42447,,,,,,,,,,,,,,,,,,99999,99999,99999,99999,99999,99999,99999,99999,99999,99999,99999,99999
31:42:40,1510523760,2017-11-12T21:56:02,0.787,1475.4,16.35,13.98,17.97,835.130,2074.580,115.816666,26.84,2.4942,355,23915,1.96413,3.87,42442,,,,,,,,,,,,,,,,,,99999,99999,99999,99999,99999,99999,99999,99999,99999,99999,99999,99999
31:43:10,1510523790,2017-11-12T21:56:32,0.788,1475.8,16.34,13.98,17.90,835.110,2074.580,117.599998,25.77,2.4943,355,23915,1.96596,3.87,42437,,,,,,,,,,,,,,,,,,99999,99999,99999,99999,99999,99999,99999,99999,99999,99999,99999,99999
31:43:40,1510523820,2017-11-12T21:57:02,0.788,1476.2,16.35,13.97,17.92,835.160,2074.580,115.516670,26.31,2.4942,355,23914,1.96627,3.87,42432,,,,,,,,,,,,,,,,,,99999,99999,99999,99999,99999,99999,99999,99999,99999,99999,99999,99999
31:44:10,1510523850,2017-11-12T21:57:32,0.783,1476.6,16.34,13.95,17.90,835.080,2074.580,115.133331,26.24,2.4943,355,23915,1.95221,3.87,42427,,,,,,,,,,,,,,,,,,99999,99999,99999,99999,99999,99999,99999,99999,99999,99999,99999,99999
31:44:40,1510523880,2017-11-12T21:58:02,0.790,1476.9,16.34,13.95,17.89,835.130,2074.580,116.716667,26.58,2.4943,355,23914,1.97025,3.87,42422,,,,,,,,,,,,,,,,,,99999,99999,99999,99999,99999,99999,99999,99999,99999,99999,99999,99999
31:45:10,1510523910,2017-11-12T21:58:32,0.785,1477.3,16.33,13.97,17.90,835.160,2074.520,116.966667,26.97,2.4943,355,23913,1.95679,3.87,42417,,,,,,,,,,,,,,,,,,99999,99999,99999,99999,99999,99999,99999,99999,99999,99999,99999,99999
31:45:40,1510523940,2017-11-12T21:59:02,0.789,1477.7,16.32,13.93,17.89,835.110,2074.520,116.033333,25.17,2.4945,355,23911,1.96903,3.87,42412,,,,,,,,,,,,,,,,,,99999,99999,99999,99999,99999,99999,99999,99999,99999,99999,99999,99999
31:46:10,1510523970,2017-11-12T21:59:32,0.789,1478.1,16.31,13.91,17.89,835.110,2074.450,116.816666,25.93,2.4944,355,23914,1.96872,3.87,42407,,,,,,,,,,,,,,,,,,99999,99999,99999,99999,99999,99999,99999,99999,99999,99999,99999,99999
31:46:40,1510524000,2017-11-12T22:00:02,0.783,1478.5,16.31,13.91,17.86,835.080,2074.450,114.766670,25.05,2.4945,355,23913,1.95404,3.87,42402,,,,,,,,,,,,,,,,,,99999,99999,99999,99999,99999,99999,99999,99999,99999,99999,99999,99999
31:47:10,1510524030,2017-11-12T22:00:32,0.785,1478.9,16.29,13.91,17.85,835.040,2074.410,115.266670,25.62,2.4946,355,23913,1.95862,3.87,42397,,,,,,,,,,,,,,,,,,99999,99999,99999,99999,99999,99999,99999,99999,99999,99999,99999,99999
31:47:40,1510524060,2017-11-12T22:01:02,0.787,1479.3,16.29,13.91,17.86,835.070,2074.410,116.400002,25.84,2.4946,355,23912,1.96413,3.87,42392,,,,,,,,,,,,,,,,,,99999,99999,99999,99999,99999,99999,99999,99999,99999,99999,99999,99999
31:48:10,1510524090,2017-11-12T22:01:32,0.785,1479.7,16.27,13.87,17.82,835.020,2074.350,116.300003,25.77,2.4947,355,23911,1.95832,3.87,42387,,,,,,,,,,,,,,,,,,99999,99999,99999,99999,99999,99999,99999,99999,99999,99999,99999,99999
31:48:40,1510524120,2017-11-12T22:02:02,0.789,1480.1,16.25,13.88,17.83,835.020,2074.290,116.599998,25.65,2.4948,355,23911,1.96933,3.87,42382,,,,,,,,,,,,,,,,,,99999,99999,99999,99999,99999,99999,99999,99999,99999,99999,99999,99999
31:49:10,1510524150,2017-11-12T22:02:32,0.785,1480.5,16.26,13.86,17.83,835.050,2074.350,115.416664,25.57,2.4948,355,23912,1.95923,3.87,42377,,,,,,,,,,,,,,,,,,99999,99999,99999,99999,99999,99999,99999,99999,99999,99999,99999,99999
31:49:40,1510524180,2017-11-12T22:03:02,0.783,1480.9,16.24,13.85,17.82,834.970,2074.290,114.783333,25.11,2.4949,355,23909,1.95465,3.87,42372,,,,,,,,,,,,,,,,,,99999,99999,99999,99999,99999,99999,99999,99999,99999,99999,99999,99999
31:50:10,1510524210,2017-11-12T22:03:32,0.786,1481.3,16.23,13.83,17.75,835.030,2074.230,114.866669,25.75,2.4949,355,23909,1.96076,3.87,42367,,,,,,,,,,,,,,,,,,99999,99999,99999,99999,99999,99999,99999,99999,99999,99999,99999,99999
31:50:40,1510524240,2017-11-12T22:04:02,0.787,1481.7,16.21,13.81,17.75,835.000,2074.120,116.583336,25.80,2.4949,355,23908,1.96321,3.87,42362,,,,,,,,,,,,,,,,,,99999,99999,99999,99999,99999,99999,99999,99999,99999,99999,99999,99999
31:51:10,1510524270,2017-11-12T22:04:32,0.786,1482.1,16.19,13.81,17.77,834.960,2074.060,115.650002,25.24,2.4951,355,23909,1.96107,3.87,42357,,,,,,,,,,,,,,,,,,99999,99999,99999,99999,99999,99999,99999,99999,99999,99999,99999,99999
31:51:40,1510524300,2017-11-12T22:05:02,0.783,1482.5,16.19,13.83,17.74,835.010,2074.060,115.300003,25.41,2.4951,355,23907,1.95252,3.87,42352,,,,,,,,,,,,,,,,,,99999,99999,99999,99999,99999,99999,99999,99999,99999,99999,99999,99999
31:52:10,1510524330,2017-11-12T22:05:32,0.789,1482.8,16.18,13.79,17.75,834.980,2074.000,117.750000,25.06,2.4951,355,23908,1.96749,3.87,42347,,,,,,,,,,,,,,,,,,99999,99999,99999,99999,99999,99999,99999,99999,99999,99999,99999,99999
31:52:40,1510524360,2017-11-12T22:06:02,0.783,1483.2,16.17,13.77,17.74,834.990,2074.000,116.766670,25.16,2.4952,355,23906,1.95496,3.87,42342,,,,,,,,,,,,,,,,,,99999,99999,99999,99999,99999,99999,99999,99999,99999,99999,99999,99999
31:53:10,1510524390,2017-11-12T22:06:32,0.787,1483.6,16.16,13.76,17.69,835.040,2073.950,117.633331,25.22,2.4952,355,23908,1.96321,3.87,42337,,,,,,,,,,,,,,,,,,99999,99999,99999,99999,99999,99999,99999,99999,99999,99999,99999,99999
31:53:40,1510524420,2017-11-12T22:07:02,0.788,1484.0,16.14,13.74,17.69,835.000,2073.890,117.500000,25.52,2.4953,355,23906,1.96566,3.87,42332,,,,,,,,,,,,,,,,,,99999,99999,99999,99999,99999,99999,99999,99999,99999,99999,99999,99999
31:54:10,1510524450,2017-11-12T22:07:32,0.788,1484.4,16.12,13.75,17.72,835.050,2073.830,116.750000,25.44,2.4954,355,23908,1.96566,3.87,42327,,,,,,,,,,,,,,,,,,99999,99999,99999,99999,99999,99999,99999,99999,99999,99999,99999,99999
31:54:40,1510524480,2017-11-12T22:08:02,0.788,1484.8,16.12,13.73,17.69,835.000,2073.830,117.733330,25.32,2.4954,355,23905,1.96627,3.87,42322,,,,,,,,,,,,,,,,,,99999,99999,99999,99999,99999,99999,99999,99999,99999,99999,99999,99999
31:55:10,1510524510,2017-11-12T22:08:32,0.789,1485.2,16.11,13.72,17.67,835.000,2073.830,116.650002,25.54,2.4955,355,23906,1.96841,3.87,42317,,,,,,,,,,,,,,,,,,99999,99999,99999,99999,99999,99999,99999,99999,99999,99999,99999,99999
31:55:40,1510524540,2017-11-12T22:09:02,0.785,1485.6,16.11,13.70,17.66,835.080,2073.830,117.050003,26.21,2.4954,355,23904,1.95954,3.87,42312,,,,,,,,,,,,,,,,,,99999,99999,99999,99999,99999,99999,99999,99999,99999,99999,99999,99999
31:56:10,1510524570,2017-11-12T22:09:32,0.782,1486.0,16.09,13.69,17.66,835.080,2073.760,114.566666,25.39,2.4956,355,23904,1.95252,3.87,42307,,,,,,,,,,,,,,,,,,99999,99999,99999,99999,99999,99999,99999,99999,99999,99999,99999,99999
31:56:40,1510524600,2017-11-12T22:10:02,0.787,1486.4,16.08,13.70,17.66,835.060,2073.660,115.983330,25.13,2.4956,355,23905,1.96382,3.87,42302,,,,,,,,,,,,,,,,,,99999,99999,99999,99999,99999,99999,99999,99999,99999,99999,99999,99999
31:57:10,1510524630,2017-11-12T22:10:32,0.788,1486.8,16.06,13.67,17.61,834.930,2073.600,116.633331,25.53,2.4956,355,23905,1.96657,3.86,42297,,,,,,,,,,,,,,,,,,99999,99999,99999,99999,99999,99999,99999,99999,99999,99999,99999,99999
31:57:40,1510524660,2017-11-12T22:11:02,0.786,1487.2,16.05,13.65,17.61,835.040,2073.530,117.050003,25.97,2.4956,355,23904,1.96137,3.86,42292,,,,,,,,,,,,,,,,,,99999,99999,99999,99999,99999,99999,99999,99999,99999,99999,99999,99999
31:58:10,1510524690,2017-11-12T22:11:32,0.782,1487.6,16.04,13.63,17.56,835.020,2073.530,114.683334,25.84,2.4957,355,23904,1.95190,3.86,42287,,,,,,,,,,,,,,,,,,99999,99999,99999,99999,99999,99999,99999,99999,99999,99999,99999,99999
31:58:40,1510524720,2017-11-12T22:12:02,0.787,1488.0,16.02,13.63,17.59,834.920,2073.490,116.733330,25.58,2.4958,355,23905,1.96505,3.86,42282,,,,,,,,,,,,,,,,,,99999,99999,99999,99999,99999,99999,99999,99999,99999,99999,99999,99999
31:59:10,1510524750,2017-11-12T22:12:32,0.782,1488.3,16.00,13.62,17.58,834.970,2073.430,115.883331,25.66,2.4959,355,23903,1.95221,3.86,42277,,,,,,,,,,,,,,,,,,99999,99999,99999,99999,99999,99999,99999,99999,99999,99999,99999,99999
31:59:40,1510524780,2017-11-12T22:13:02,0.782,1488.7,15.99,13.61,17.55,834.980,2073.370,114.716667,26.07,2.4959,355,23904,1.95130,3.86,42272,,,,,,,,,,,,,,,,,,99999,99999,99999,99999,99999,99999,99999,99999,99999,99999,99999,99999
32:00:10,1510524810,2017-11-12T22:13:32,0.787,1489.1,15.98,13.58,17.56,835.030,2073.370,116.383331,25.75,2.4960,355,23900,1.96413,3.86,42267,,,,,,,,,,,,,,,,,,99999,99999,99999,99999,99999,99999,99999,99999,99999,99999,99999,99999
32:00:40,1510524840,2017-11-12T22:14:02,0.786,1489.5,15.97,13.56,17.56,834.950,2073.310,116.949997,25.95,2.4960,355,23898,1.96168,3.86,42262,,,,,,,,,,,,,,,,,,99999,99999,99999,99999,99999,99999,99999,99999,99999,99999,99999,99999
32:01:10,1510524870,2017-11-12T22:14:32,0.786,1489.9,15.95,13.55,17.51,835.010,2073.200,115.816666,26.00,2.4961,355,23903,1.96168,3.86,42257,,,,,,,,,,,,,,,,,,99999,99999,99999,99999,99999,99999,99999,99999,99999,99999,99999,99999
32:01:40,1510524900,2017-11-12T22:15:02,0.781,1490.3,15.94,13.55,17.53,835.010,2073.200,114.750000,25.96,2.4962,355,23901,1.95038,3.86,42252,,,,,,,,,,,,,,,,,,99999,99999,99999,99999,99999,99999,99999,99999,99999,99999,99999,99999
32:02:10,1510524930,2017-11-12T22:15:32,0.787,1490.7,15.92,13.52,17.48,834.990,2073.140,116.633331,25.81,2.4963,355,23900,1.96505,3.86,42247,,,,,,,,,,,,,,,,,,99999,99999,99999,99999,99999,99999,99999,99999,99999,99999,99999,99999
32:02:40,1510524960,2017-11-12T22:16:02,0.784,1491.1,15.92,13.50,17.50,835.070,2073.140,114.983330,26.53,2.4962,355,23901,1.95679,3.86,42242,,,,,,,,,,,,,,,,,,99999,99999,99999,99999,99999,99999,99999,99999,99999,99999,99999,99999
32:03:10,1510524990,2017-11-12T22:16:32,0.785,1491.5,15.90,13.50,17.48,835.020,2073.100,115.666664,26.79,2.4963,355,23901,1.95893,3.86,42237,,,,,,,,,,,,,,,,,,99999,99999,99999,99999,99999,99999,99999,99999,99999,99999,99999,99999
32:03:40,1510525020,2017-11-12T22:17:02,0.784,1491.9,15.88,13.47,17.48,835.050,2073.030,114.016670,26.35,2.4965,355,23900,1.95709,3.86,42232,,,,,,,,,,,,,,,,,,99999,99999,99999,99999,99999,99999,99999,99999,99999,99999,99999,99999
32:04:10,1510525050,2017-11-12T22:17:32,0.781,1492.3,15.85,13.46,17.43,835.010,2072.910,115.050003,26.46,2.4966,355,23899,1.95069,3.86,42227,,,,,,,,,,,,,,,,,,99999,99999,99999,99999,99999,99999,99999,99999,99999,99999,99999,99999
32:04:40,1510525080,2017-11-12T22:18:02,0.786,1492.7,15.84,13.44,17.40,835.030,2072.850,115.766670,26.46,2.4966,355,23897,1.96290,3.86,42222,,,,,,,,,,,,,,,,,,99999,99999,99999,99999,99999,99999,99999,99999,99999,99999,99999,99999
32:05:10,1510525110,2017-11-12T22:18:32,0.780,1493.1,15.82,13.43,17.39,835.010,2072.740,115.233330,26.95,2.4966,355,23898,1.94733,3.86,42217,,,,,,,,,,,,,,,,,,99999,99999,99999,99999,99999,99999,99999,99999,99999,99999,99999,99999
32:05:40,1510525140,2017-11-12T22:19:02,0.783,1493.4,15.81,13.41,17.40,835.040,2072.740,114.000000,26.31,2.4967,355,23899,1.95465,3.86,42212,,,,,,,,,,,,,,,,,,99999,99999,99999,99999,99999,99999,99999,99999,99999,99999,99999,99999
32:06:10,1510525170,2017-11-12T22:19:32,0.782,1493.8,15.79,13.40,17.39,835.040,2072.680,116.199997,26.86,2.4968,355,23898,1.95252,3.86,42207,,,,,,,,,,,,,,,,,,99999,99999,99999,99999,99999,99999,99999,99999,99999,99999,99999,99999
32:06:40,1510525200,2017-11-12T22:20:02,0.781,1494.2,15.77,13.33,17.33,834.990,2072.640,114.966667,26.54,2.4969,355,23896,1.95069,3.86,42202,,,,,,,,,,,,,,,,,,99999,99999,99999,99999,99999,99999,99999,99999,99999,99999,99999,99999
32:07:10,1510525230,2017-11-12T22:20:32,0.781,1494.6,15.75,13.33,17.32,834.970,2072.580,115.316666,27.04,2.4970,355,23894,1.95130,3.86,42197,,,,,,,,,,,,,,,,,,99999,99999,99999,99999,99999,99999,99999,99999,99999,99999,99999,99999
32:07:40,1510525260,2017-11-12T22:21:02,0.784,1495.0,15.74,13.33,17.31,834.980,2072.510,117.016670,27.18,2.4970,355,23894,1.95801,3.86,42192,,,,,,,,,,,,,,,,,,99999,99999,99999,99999,99999,99999,99999,99999,99999,99999,99999,99999
32:08:10,1510525290,2017-11-12T22:21:32,0.786,1495.4,15.71,13.29,17.28,835.010,2072.450,115.283333,27.32,2.4972,355,23894,1.96290,3.86,42187,,,,,,,,,,,,,,,,,,99999,99999,99999,99999,99999,99999,99999,99999,99999,99999,99999,99999
32:08:40,1510525320,2017-11-12T22:22:02,0.785,1495.8,15.68,13.28,17.25,834.990,2072.280,115.633331,27.06,2.4972,355,23893,1.95954,3.86,42182,,,,,,,,,,,,,,,,,,99999,99999,99999,99999,99999,99999,99999,99999,99999,99999,99999,99999
32:09:10,1510525350,2017-11-12T22:22:32,0.782,1496.2,15.66,13.27,17.24,835.020,2072.220,115.633331,27.14,2.4973,355,23892,1.95404,3.86,42177,,,,,,,,,,,,,,,,,,99999,99999,99999,99999,99999,99999,99999,99999,99999,99999,99999,99999
32:09:40,1510525380,2017-11-12T22:23:02,0.784,1496.6,15.64,13.23,17.20,835.080,2072.180,115.416664,27.48,2.4974,355,23891,1.95709,3.86,42172,,,,,,,,,,,,,,,,,,99999,99999,99999,99999,99999,99999,99999,99999,99999,99999,99999,99999
32:10:10,1510525410,2017-11-12T22:23:32,0.785,1497.0,15.62,13.20,17.14,835.030,2072.110,114.933334,27.15,2.4976,355,23892,1.96107,3.86,42167,,,,,,,,,,,,,,,,,,99999,99999,99999,99999,99999,99999,99999,99999,99999,99999,99999,99999
32:10:40,1510525440,2017-11-12T22:24:02,0.783,1497.4,15.59,13.19,17.16,835.040,2071.990,115.666664,27.40,2.4977,355,23890,1.95587,3.86,42162,,,,,,,,,,,,,,,,,,99999,99999,99999,99999,99999,99999,99999,99999,99999,99999,99999,99999
32:11:10,1510525470,2017-11-12T22:24:32,0.784,1497.8,15.57,13.17,17.14,835.070,2071.950,116.349998,27.53,2.4978,355,23890,1.95862,3.86,42157,,,,,,,,,,,,,,,,,,99999,99999,99999,99999,99999,99999,99999,99999,99999,99999,99999,99999
32:11:40,1510525500,2017-11-12T22:25:02,0.782,1498.1,15.53,13.15,17.11,834.920,2071.760,115.550003,27.73,2.4979,355,23888,1.95252,3.86,42152,,,,,,,,,,,,,,,,,,99999,99999,99999,99999,99999,99999,99999,99999,99999,99999,99999,99999
32:12:10,1510525530,2017-11-12T22:25:32,0.783,1498.5,15.51,13.11,17.08,835.000,2071.720,115.883331,27.73,2.4980,355,23888,1.95496,3.86,42147,,,,,,,,,,,,,,,,,,99999,99999,99999,99999,99999,99999,99999,99999,99999,99999,99999,99999
32:12:40,1510525560,2017-11-12T22:26:02,0.785,1498.9,15.49,13.10,17.06,835.060,2071.660,116.750000,27.57,2.4981,355,23888,1.96107,3.86,42142,,,,,,,,,,,,,,,,,,99999,99999,99999,99999,99999,99999,99999,99999,99999,99999,99999,99999
32:13:10,1510525590,2017-11-12T22:26:32,0.782,1499.3,15.45,13.09,17.01,835.040,2071.530,114.250000,27.68,2.4983,355,23887,1.95282,3.86,42137,,,,,,,,,,,,,,,,,,99999,99999,99999,99999,99999,99999,99999,99999,99999,99999,99999,99999
32:13:40,1510525620,2017-11-12T22:27:02,0.783,1499.7,15.43,13.08,16.98,835.050,2071.490,115.699997,27.18,2.4985,355,23887,1.95557,3.86,42132,,,,,,,,,,,,,,,,,,99999,99999,99999,99999,99999,99999,99999,99999,99999,99999,99999,99999
32:14:10,1510525650,2017-11-12T22:27:32,0.780,1500.1,15.42,13.05,16.95,835.000,2071.360,116.900002,27.22,2.4984,355,23887,1.94977,3.86,42127,,,,,,,,,,,,,,,,,,99999,99999,99999,99999,99999,99999,99999,99999,99999,99999,99999,99999
32:14:40,1510525680,2017-11-12T22:28:02,0.780,1500.5,15.39,13.01,16.97,835.030,2071.320,114.900002,27.48,2.4986,355,23885,1.94947,3.86,42122,,,,,,,,,,,,,,,,,,99999,99999,99999,99999,99999,99999,99999,99999,99999,99999,99999,99999
32:15:10,1510525710,2017-11-12T22:28:32,0.779,1500.9,15.37,12.99,16.92,835.060,2071.200,113.083336,27.70,2.4986,355,23884,1.94642,3.86,42117,,,,,,,,,,,,,,,,,,99999,99999,99999,99999,99999,99999,99999,99999,99999,99999,99999,99999
32:15:40,1510525740,2017-11-12T22:29:02,0.784,1501.3,15.35,12.98,16.93,835.090,2071.140,115.266670,27.60,2.4987,355,23884,1.95862,3.86,42112,,,,,,,,,,,,,,,,,,99999,99999,99999,99999,99999,99999,99999,99999,99999,99999,99999,99999
32:16:10,1510525770,2017-11-12T22:29:32,0.778,1501.7,15.32,12.96,16.83,835.070,2071.090,113.333336,27.30,2.4990,355,23884,1.94490,3.86,42107,,,,,,,,,,,,,,,,,,99999,99999,99999,99999,99999,99999,99999,99999,99999,99999,99999,99999
32:16:40,1510525800,2017-11-12T22:30:02,0.778,1502.1,15.31,12.95,16.83,835.080,2071.030,114.683334,27.21,2.4990,355,23883,1.94429,3.86,42103,,,,,,,,,,,,,,,,,,99999,99999,99999,99999,99999,99999,99999,99999,99999,99999,99999,99999
32:17:10,1510525830,2017-11-12T22:30:32,0.779,1502.4,15.28,12.91,16.82,835.110,2070.910,114.916664,27.82,2.4991,355,23882,1.94673,3.86,42098,,,,,,,,,,,,,,,,,,99999,99999,99999,99999,99999,99999,99999,99999,99999,99999,99999,99999
32:17:40,1510525860,2017-11-12T22:31:02,0.781,1502.8,15.28,12.90,16.81,835.050,2070.910,114.133331,27.97,2.4990,355,23882,1.95130,3.86,42093,,,,,,,,,,,,,,,,,,99999,99999,99999,99999,99999,99999,99999,99999,99999,99999,99999,99999
32:18:10,1510525890,2017-11-12T22:31:32,0.784,1503.2,15.25,12.90,16.77,835.030,2070.800,115.633331,28.10,2.4992,355,23882,1.95923,3.86,42088,,,,,,,,,,,,,,,,,,99999,99999,99999,99999,99999,99999,99999,99999,99999,99999,99999,99999
32:18:40,1510525920,2017-11-12T22:32:02,0.780,1503.6,15.23,12.88,16.81,835.010,2070.740,115.433334,27.65,2.4993,355,23880,1.94825,3.86,42083,,,,,,,,,,,,,,,,,,99999,99999,99999,99999,99999,99999,99999,99999,99999,99999,99999,99999
32:19:10,1510525950,2017-11-12T22:32:32,0.781,1504.0,15.23,12.85,16.77,835.060,2070.740,113.983330,27.66,2.4993,355,23881,1.95190,3.86,42078,,,,,,,,,,,,,,,,,,99999,99999,99999,99999,99999,99999,99999,99999,99999,99999,99999,99999
32:19:40,1510525980,2017-11-12T22:33:02,0.777,1504.4,15.19,12.85,16.78,835.040,2070.640,113.766670,27.69,2.4995,355,23882,1.94216,3.86,42073,,,,,,,,,,,,,,,,,,99999,99999,99999,99999,99999,99999,99999,99999,99999,99999,99999,99999
32:20:10,1510526010,2017-11-12T22:33:32,0.778,1504.8,15.17,12.80,16.73,835.000,2070.570,114.266670,27.87,2.4996,355,23880,1.94520,3.86,42068,,,,,,,,,,,,,,,,,,99999,99999,99999,99999,99999,99999,99999,99999,99999,99999,99999,99999
32:20:40,1510526040,2017-11-12T22:34:02,0.777,1505.2,15.16,12.83,16.70,835.000,2070.440,113.433334,27.64,2.4996,355,23880,1.94155,3.86,42063,,,,,,,,,,,,,,,,,,99999,99999,99999,99999,99999,99999,99999,99999,99999,99999,99999,99999
32:21:10,1510526070,2017-11-12T22:34:32,0.782,1505.6,15.14,12.79,16.69,834.980,2070.410,114.133331,27.61,2.4997,355,23879,1.95374,3.86,42058,,,,,,,,,,,,,,,,,,99999,99999,99999,99999,99999,99999,99999,99999,99999,99999,99999,99999
32:21:40,1510526100,2017-11-12T22:35:02,0.783,1506.0,15.13,12.78,16.69,835.060,2070.410,114.033333,27.66,2.4998,355,23878,1.95648,3.86,42053,,,,,,,,,,,,,,,,,,99999,99999,99999,99999,99999,99999,99999,99999,99999,99999,99999,99999
32:22:10,1510526130,2017-11-12T22:35:32,0.779,1506.3,15.13,12.77,16.67,835.060,2070.410,113.483330,27.75,2.4998,355,23876,1.94825,3.86,42048,,,,,,,,,,,,,,,,,,99999,99999,99999,99999,99999,99999,99999,99999,99999,99999,99999,99999
32:22:40,1510526160,2017-11-12T22:36:02,0.777,1506.7,15.11,12.75,16.66,835.140,2070.340,113.500000,28.00,2.4998,355,23879,1.94246,3.86,42043,,,,,,,,,,,,,,,,,,99999,99999,99999,99999,99999,99999,99999,99999,99999,99999,99999,99999
32:23:10,1510526190,2017-11-12T22:36:32,0.781,1507.1,15.09,12.71,16.66,835.090,2070.280,113.750000,28.43,2.4999,355,23877,1.95252,3.86,42038,,,,,,,,,,,,,,,,,,99999,99999,99999,99999,99999,99999,99999,99999,99999,99999,99999,99999
32:23:40,1510526220,2017-11-12T22:37:02,0.780,1507.5,15.08,12.71,16.59,835.020,2070.240,114.666664,28.20,2.5000,355,23876,1.95069,3.86,42033,,,,,,,,,,,,,,,,,,99999,99999,99999,99999,99999,99999,99999,99999,99999,99999,99999,99999
32:24:10,1510526250,2017-11-12T22:37:32,0.783,1507.9,15.07,12.71,16.63,835.000,2070.240,114.583336,28.72,2.5000,355,23877,1.95862,3.86,42028,,,,,,,,,,,,,,,,,,99999,99999,99999,99999,99999,99999,99999,99999,99999,99999,99999,99999
32:24:40,1510526280,2017-11-12T22:38:02,0.782,1508.3,15.06,12.70,16.61,834.990,2070.170,115.033333,28.45,2.5000,355,23876,1.95435,3.86,42023,,,,,,,,,,,,,,,,,,99999,99999,99999,99999,99999,99999,99999,99999,99999,99999,99999,99999
32:25:10,1510526310,2017-11-12T22:38:32,0.784,1508.7,15.05,12.67,16.59,835.050,2070.110,115.000000,28.23,2.5001,355,23873,1.95893,3.86,42018,,,,,,,,,,,,,,,,,,99999,99999,99999,99999,99999,99999,99999,99999,99999,99999,99999,99999
32:25:40,1510526340,2017-11-12T22:39:02,0.777,1509.1,15.03,12.66,16.58,835.010,2070.010,112.599998,28.12,2.5001,355,23875,1.94216,3.86,42013,,,,,,,,,,,,,,,,,,99999,99999,99999,99999,99999,99999,99999,99999,99999,99999,99999,99999
32:26:10,1510526370,2017-11-12T22:39:32,0.781,1509.5,15.03,12.64,16.55,834.980,2070.010,114.166664,28.56,2.5001,355,23873,1.95374,3.86,42008,,,,,,,,,,,,,,,,,,99999,99999,99999,99999,99999,99999,99999,99999,99999,99999,99999,99999
32:26:40,1510526400,2017-11-12T22:40:02,0.780,1509.9,15.01,12.66,16.56,834.960,2069.940,114.449997,28.70,2.5002,355,23874,1.94947,3.86,42003,,,,,,,,,,,,,,,,,,99999,99999,99999,99999,99999,99999,99999,99999,99999,99999,99999,99999
32:27:10,1510526430,2017-11-12T22:40:32,0.783,1510.2,15.00,12.63,16.53,835.010,2069.940,113.966667,29.13,2.5002,355,23874,1.95709,3.86,41998,,,,,,,,,,,,,,,,,,99999,99999,99999,99999,99999,99999,99999,99999,99999,99999,99999,99999
32:27:40,1510526460,2017-11-12T22:41:02,0.779,1510.6,14.98,12.58,16.56,835.010,2069.890,112.500000,29.21,2.5004,355,23873,1.94855,3.86,41994,,,,,,,,,,,,,,,,,,99999,99999,99999,99999,99999,99999,99999,99999,99999,99999,99999,99999
32:28:10,1510526490,2017-11-12T22:41:32,0.778,1511.0,14.98,12.57,16.50,835.040,2069.890,113.083336,29.38,2.5003,355,23872,1.94551,3.86,41989,,,,,,,,,,,,,,,,,,99999,99999,99999,99999,99999,99999,99999,99999,99999,99999,99999,99999
32:28:40,1510526520,2017-11-12T22:42:02,0.782,1511.4,14.96,12.57,16.51,835.070,2069.820,115.666664,29.62,2.5004,355,23869,1.95618,3.86,41984,,,,,,,,,,,,,,,,,,99999,99999,99999,99999,99999,99999,99999,99999,99999,99999,99999,99999
32:29:10,1510526550,2017-11-12T22:42:32,0.782,1511.8,14.95,12.55,16.50,834.990,2069.780,115.133331,29.77,2.5004,355,23871,1.95465,3.86,41979,,,,,,,,,,,,,,,,,,99999,99999,99999,99999,99999,99999,99999,99999,99999,99999,99999,99999
32:29:40,1510526580,2017-11-12T22:43:02,0.782,1512.2,14.93,12.53,16.48,835.100,2069.720,114.566666,29.49,2.5006,355,23871,1.95435,3.86,41974,,,,,,,,,,,,,,,,,,99999,99999,99999,99999,99999,99999,99999,99999,99999,99999,99999,99999
32:30:10,1510526610,2017-11-12T22:43:32,0.781,1512.6,14.92,12.52,16.45,835.080,2069.720,115.716667,29.36,2.5007,355,23870,1.95404,3.86,41969,,,,,,,,,,,,,,,,,,99999,99999,99999,99999,99999,99999,99999,99999,99999,99999,99999,99999
32:30:40,1510526640,2017-11-12T22:44:02,0.782,1513.0,14.90,12.51,16.43,835.060,2069.650,113.449997,29.38,2.5008,355,23869,1.95465,3.86,41964,,,,,,,,,,,,,,,,,,99999,99999,99999,99999,99999,99999,99999,99999,99999,99999,99999,99999
32:31:10,1510526670,2017-11-12T22:44:32,0.776,1513.4,14.88,12.50,16.42,834.990,2069.490,113.633331,29.47,2.5007,355,23869,1.94033,3.86,41959,,,,,,,,,,,,,,,,,,99999,99999,99999,99999,99999,99999,99999,99999,99999,99999,99999,99999
32:31:40,1510526700,2017-11-12T22:45:02,0.780,1513.8,14.85,12.46,16.40,835.070,2069.420,113.983330,29.39,2.5009,355,23868,1.95190,3.86,41954,,,,,,,,,,,,,,,,,,99999,99999,99999,99999,99999,99999,99999,99999,99999,99999,99999,99999
32:32:10,1510526730,2017-11-12T22:45:32,0.776,1514.1,14.83,12.44,16.42,835.050,2069.380,113.699997,29.29,2.5011,355,23868,1.94125,3.86,41949,,,,,,,,,,,,,,,,,,99999,99999,99999,99999,99999,99999,99999,99999,99999,99999,99999,99999
32:32:40,1510526760,2017-11-12T22:46:02,0.779,1514.5,14.83,12.44,16.39,835.020,2069.380,115.583336,29.71,2.5010,355,23867,1.94916,3.86,41944,,,,,,,,,,,,,,,,,,99999,99999,99999,99999,99999,99999,99999,99999,99999,99999,99999,99999
32:33:10,1510526790,2017-11-12T22:46:32,0.776,1514.9,14.81,12.42,16.35,835.050,2069.320,113.116669,29.36,2.5012,355,23867,1.94094,3.86,41939,,,,,,,,,,,,,,,,,,99999,99999,99999,99999,99999,99999,99999,99999,99999,99999,99999,99999
32:33:40,1510526820,2017-11-12T22:47:02,0.781,1515.3,14.80,12.38,16.29,835.080,2069.260,115.383331,29.35,2.5012,355,23867,1.95465,3.86,41934,,,,,,,,,,,,,,,,,,99999,99999,99999,99999,99999,99999,99999,99999,99999,99999,99999,99999
32:34:10,1510526850,2017-11-12T22:47:32,0.783,1515.7,14.78,12.37,16.32,835.110,2069.190,115.683334,29.45,2.5013,355,23866,1.95770,3.86,41929,,,,,,,,,,,,,,,,,,99999,99999,99999,99999,99999,99999,99999,99999,99999,99999,99999,99999
32:34:40,1510526880,2017-11-12T22:48:02,0.782,1516.1,14.76,12.36,16.29,835.010,2069.090,115.083336,30.52,2.5012,355,23866,1.95526,3.86,41924,,,,,,,,,,,,,,,,,,99999,99999,99999,99999,99999,99999,99999,99999,99999,99999,99999,99999
32:35:10,1510526910,2017-11-12T22:48:32,0.775,1516.5,14.75,12.35,16.25,835.040,2069.090,113.183334,29.75,2.5014,355,23863,1.93942,3.86,41919,,,,,,,,,,,,,,,,,,99999,99999,99999,99999,99999,99999,99999,99999,99999,99999,99999,99999
32:35:40,1510526940,2017-11-12T22:49:02,0.776,1516.9,14.71,12.31,16.25,835.000,2068.920,112.866669,30.19,2.5015,355,23865,1.94186,3.86,41914,,,,,,,,,,,,,,,,,,99999,99999,99999,99999,99999,99999,99999,99999,99999,99999,99999,99999
32:36:10,1510526970,2017-11-12T22:49:32,0.780,1517.3,14.70,12.29,16.29,835.080,2068.920,115.349998,30.05,2.5016,355,23861,1.95099,3.86,41909,,,,,,,,,,,,,,,,,,99999,99999,99999,99999,99999,99999,99999,99999,99999,99999,99999,99999
32:36:40,1510527000,2017-11-12T22:50:02,0.779,1517.7,14.68,12.26,16.25,835.050,2068.860,115.400002,29.59,2.5017,355,23860,1.95008,3.86,41904,,,,,,,,,,,,,,,,,,99999,99999,99999,99999,99999,99999,99999,99999,99999,99999,99999,99999
32:37:10,1510527030,2017-11-12T22:50:32,0.782,1518.0,14.65,12.24,16.23,835.060,2068.760,114.199997,29.56,2.5019,355,23860,1.95526,3.86,41899,,,,,,,,,,,,,,,,,,99999,99999,99999,99999,99999,99999,99999,99999,99999,99999,99999,99999
32:37:40,1510527060,2017-11-12T22:51:02,0.775,1518.4,14.63,12.23,16.19,835.070,2068.630,113.116669,30.68,2.5018,355,23859,1.93851,3.86,41895,,,,,,,,,,,,,,,,,,99999,99999,99999,99999,99999,99999,99999,99999,99999,99999,99999,99999
32:38:10,1510527090,2017-11-12T22:51:32,0.776,1518.8,14.61,12.20,16.16,835.090,2068.570,113.650002,31.15,2.5019,355,23859,1.94064,3.86,41890,,,,,,,,,,,,,,,,,,99999,99999,99999,99999,99999,99999,99999,99999,99999,99999,99999,99999
32:38:40,1510527120,2017-11-12T22:52:02,0.781,1519.2,14.59,12.16,16.08,835.050,2068.520,115.216667,31.23,2.5020,355,23859,1.95313,3.86,41885,,,,,,,,,,,,,,,,,,99999,99999,99999,99999,99999,99999,99999,99999,99999,99999,99999,99999
32:39:10,1510527150,2017-11-12T22:52:32,0.781,1519.6,14.55,12.14,16.09,835.080,2068.400,115.616669,31.42,2.5022,355,23856,1.95404,3.86,41880,,,,,,,,,,,,,,,,,,99999,99999,99999,99999,99999,99999,99999,99999,99999,99999,99999,99999
32:39:40,1510527180,2017-11-12T22:53:02,0.777,1520.0,14.52,12.12,16.06,835.010,2068.300,113.266670,31.63,2.5023,355,23858,1.94307,3.86,41875,,,,,,,,,,,,,,,,,,99999,99999,99999,99999,99999,99999,99999,99999,99999,99999,99999,99999
32:40:10,1510527210,2017-11-12T22:53:32,0.780,1520.4,14.51,12.09,16.05,835.120,2068.300,115.000000,31.59,2.5024,355,23856,1.95282,3.86,41870,,,,,,,,,,,,,,,,,,99999,99999,99999,99999,99999,99999,99999,99999,99999,99999,99999,99999
32:40:40,1510527240,2017-11-12T22:54:02,0.778,1520.8,14.49,12.07,16.08,835.040,2068.170,112.900002,31.48,2.5024,355,23857,1.94581,3.86,41865,,,,,,,,,,,,,,,,,,99999,99999,99999,99999,99999,99999,99999,99999,99999,99999,99999,99999
32:41:10,1510527270,2017-11-12T22:54:32,0.778,1521.2,14.46,12.06,16.01,835.020,2068.070,115.449997,31.98,2.5025,355,23857,1.94642,3.86,41860,,,,,,,,,,,,,,,,,,99999,99999,99999,99999,99999,99999,99999,99999,99999,99999,99999,99999
32:41:40,1510527300,2017-11-12T22:55:02,0.774,1521.5,14.42,12.02,16.00,835.060,2067.940,113.983330,32.00,2.5027,355,23853,1.93760,3.86,41855,,,,,,,,,,,,,,,,,,99999,99999,99999,99999,99999,99999,99999,99999,99999,99999,99999,99999
32:42:10,1510527330,2017-11-12T22:55:32,0.780,1521.9,14.40,11.99,15.97,835.060,2067.880,114.750000,31.83,2.5029,355,23853,1.95252,3.86,41850,,,,,,,,,,,,,,,,,,99999,99999,99999,99999,99999,99999,99999,99999,99999,99999,99999,99999
32:42:40,1510527360,2017-11-12T22:56:02,0.774,1522.3,14.37,11.96,15.91,834.910,2067.710,113.533333,31.34,2.5029,355,23853,1.93699,3.86,41845,,,,,,,,,,,,,,,,,,99999,99999,99999,99999,99999,99999,99999,99999,99999,99999,99999,99999
32:43:10,1510527390,2017-11-12T22:56:32,0.774,1522.7,14.34,11.93,15.91,834.970,2067.670,112.516670,31.34,2.5032,355,23852,1.93699,3.86,41840,,,,,,,,,,,,,,,,,,99999,99999,99999,99999,99999,99999,99999,99999,99999,99999,99999,99999
32:43:40,1510527420,2017-11-12T22:57:02,0.773,1523.1,14.31,11.93,15.89,834.900,2067.550,112.349998,31.72,2.5033,355,23853,1.93547,3.86,41835,,,,,,,,,,,,,,,,,,99999,99999,99999,99999,99999,99999,99999,99999,99999,99999,99999,99999
32:44:10,1510527450,2017-11-12T22:57:32,0.775,1523.5,14.29,11.87,15.84,834.960,2067.480,113.316666,31.87,2.5033,355,23851,1.94094,3.86,41830,,,,,,,,,,,,,,,,,,99999,99999,99999,99999,99999,99999,99999,99999,99999,99999,99999,99999
32:44:40,1510527480,2017-11-12T22:58:02,0.775,1523.9,14.26,11.84,15.77,834.960,2067.380,111.983330,32.00,2.5035,355,23850,1.94003,3.86,41825,,,,,,,,,,,,,,,,,,99999,99999,99999,99999,99999,99999,99999,99999,99999,99999,99999,99999
32:45:10,1510527510,2017-11-12T22:58:32,0.775,1524.3,14.22,11.82,15.79,835.000,2067.210,113.500000,32.23,2.5036,355,23850,1.94064,3.86,41820,,,,,,,,,,,,,,,,,,99999,99999,99999,99999,99999,99999,99999,99999,99999,99999,99999,99999
32:45:40,1510527540,2017-11-12T22:59:02,0.773,1524.7,14.18,11.80,15.76,835.010,2067.090,112.233330,32.08,2.5038,355,23848,1.93456,3.86,41815,,,,,,,,,,,,,,,,,,99999,99999,99999,99999,99999,99999,99999,99999,99999,99999,99999,99999
32:46:10,1510527570,2017-11-12T22:59:32,0.778,1525.0,14.16,11.74,15.71,834.930,2067.050,114.383331,32.18,2.5039,355,23847,1.94886,3.86,41811,,,,,,,,,,,,,,,,,,99999,99999,99999,99999,99999,99999,99999,99999,99999,99999,99999,99999
32:46:40,1510527600,2017-11-12T23:00:02,0.780,1525.4,14.13,11.73,15.71,834.940,2066.980,113.400002,31.52,2.5042,355,23847,1.95252,3.86,41806,,,,,,,,,,,,,,,,,,99999,99999,99999,99999,99999,99999,99999,99999,99999,99999,99999,99999
32:47:10,1510527630,2017-11-12T23:00:32,0.777,1525.8,14.10,11.72,15.66,834.920,2066.820,113.616669,32.27,2.5042,355,23845,1.94642,3.86,41801,,,,,,,,,,,,,,,,,,99999,99999,99999,99999,99999,99999,99999,99999,99999,99999,99999,99999
32:47:40,1510527660,2017-11-12T23:01:02,0.774,1526.2,14.06,11.67,15.66,835.010,2066.690,113.616669,32.14,2.5044,355,23843,1.93730,3.86,41796,,,,,,,,,,,,,,,,,,99999,99999,99999,99999,99999,99999,99999,99999,99999,99999,99999,99999
32:48:10,1510527690,2017-11-12T23:01:32,0.772,1526.6,14.03,11.63,15.60,834.990,2066.580,113.566666,32.27,2.5045,355,23842,1.93426,3.86,41791,,,,,,,,,,,,,,,,,,99999,99999,99999,99999,99999,99999,99999,99999,99999,99999,99999,99999
32:48:40,1510527720,2017-11-12T23:02:02,0.773,1527.0,13.99,11.60,15.56,835.000,2066.420,114.033333,32.36,2.5047,355,23840,1.93638,3.86,41786,,,,,,,,,,,,,,,,,,99999,99999,99999,99999,99999,99999,99999,99999,99999,99999,99999,99999
32:49:10,1510527750,2017-11-12T23:02:32,0.773,1527.4,13.97,11.58,15.55,835.000,2066.350,111.699997,32.31,2.5048,355,23841,1.93578,3.86,41781,,,,,,,,,,,,,,,,,,99999,99999,99999,99999,99999,99999,99999,99999,99999,99999,99999,99999
32:49:40,1510527780,2017-11-12T23:03:02,0.774,1527.8,13.94,11.54,15.48,835.040,2066.250,111.816666,32.29,2.5049,355,23841,1.93882,3.86,41776,,,,,,,,,,,,,,,,,,99999,99999,99999,99999,99999,99999,99999,99999,99999,99999,99999,99999
32:50:10,1510527810,2017-11-12T23:03:32,0.771,1528.1,13.90,11.51,15.45,834.990,2066.130,112.033333,32.18,2.5051,355,23838,1.93244,3.86,41771,,,,,,,,,,,,,,,,,,99999,99999,99999,99999,99999,99999,99999,99999,99999,99999,99999,99999
32:50:40,1510527840,2017-11-12T23:04:02,0.777,1528.5,13.88,11.49,15.39,834.940,2066.070,113.416664,32.52,2.5052,355,23839,1.94764,3.86,41766,,,,,,,,,,,,,,,,,,99999,99999,99999,99999,99999,99999,99999,99999,99999,99999,99999,99999
32:51:10,1510527870,2017-11-12T23:04:32,0.775,1528.9,13.85,11.44,15.40,834.980,2065.960,113.500000,32.61,2.5053,355,23837,1.94186,3.86,41761,,,,,,,,,,,,,,,,,,99999,99999,99999,99999,99999,99999,99999,99999,99999,99999,99999,99999
32:51:40,1510527900,2017-11-12T23:05:02,0.777,1529.3,13.81,11.39,15.39,834.880,2065.790,114.666664,33.07,2.5055,355,23837,1.94642,3.86,41756,,,,,,,,,,,,,,,,,,99999,99999,99999,99999,99999,99999,99999,99999,99999,99999,99999,99999
32:52:10,1510527930,2017-11-12T23:05:32,0.774,1529.7,13.78,11.39,15.34,835.010,2065.730,111.583336,33.02,2.5057,355,23834,1.93942,3.86,41752,,,,,,,,,,,,,,,,,,99999,99999,99999,99999,99999,99999,99999,99999,99999,99999,99999,99999
32:52:40,1510527960,2017-11-12T23:06:02,0.773,1530.1,13.75,11.33,15.29,834.970,2065.630,111.449997,33.04,2.5058,355,23832,1.93699,3.86,41747,,,,,,,,,,,,,,,,,,99999,99999,99999,99999,99999,99999,99999,99999,99999,99999,99999,99999
32:53:10,1510527990,2017-11-12T23:06:32,0.776,1530.5,13.73,11.30,15.27,834.980,2065.500,113.783333,32.89,2.5058,355,23830,1.94338,3.86,41742,,,,,,,,,,,,,,,,,,99999,99999,99999,99999,99999,99999,99999,99999,99999,99999,99999,99999
32:53:40,1510528020,2017-11-12T23:07:02,0.773,1530.8,13.68,11.28,15.23,835.020,2065.400,112.833336,33.07,2.5061,355,23829,1.93608,3.86,41737,,,,,,,,,,,,,,,,,,99999,99999,99999,99999,99999,99999,99999,99999,99999,99999,99999,99999
32:54:10,1510528050,2017-11-12T23:07:32,0.773,1531.2,13.65,11.25,15.21,834.990,2065.270,113.250000,33.08,2.5063,355,23828,1.93638,3.86,41732,,,,,,,,,,,,,,,,,,99999,99999,99999,99999,99999,99999,99999,99999,99999,99999,99999,99999
32:54:40,1510528080,2017-11-12T23:08:02,0.773,1531.6,13.62,11.24,15.18,835.000,2065.170,111.966667,32.93,2.5064,355,23830,1.93760,3.86,41727,,,,,,,,,,,,,,,,,,99999,99999,99999,99999,99999,99999,99999,99999,99999,99999,99999,99999
32:55:10,1510528110,2017-11-12T23:08:32,0.775,1532.0,13.58,11.18,15.11,835.010,2065.000,113.533333,32.91,2.5066,355,23829,1.94368,3.86,41722,,,,,,,,,,,,,,,,,,99999,99999,99999,99999,99999,99999,99999,99999,99999,99999,99999,99999
32:55:40,1510528140,2017-11-12T23:09:02,0.770,1532.4,13.55,11.15,15.10,834.940,2064.940,111.083336,33.11,2.5067,355,23828,1.93032,3.86,41717,,,,,,,,,,,,,,,,,,99999,99999,99999,99999,99999,99999,99999,99999,99999,99999,99999,99999
32:56:10,1510528170,2017-11-12T23:09:32,0.775,1532.8,13.51,11.08,15.08,834.920,2064.770,112.650002,33.46,2.5069,355,23828,1.94307,3.86,41712,,,,,,,,,,,,,,,,,,99999,99999,99999,99999,99999,99999,99999,99999,99999,99999,99999,99999
32:56:40,1510528200,2017-11-12T23:10:02,0.773,1533.2,13.49,11.09,15.03,835.000,2064.710,111.599998,33.44,2.5070,355,23827,1.93730,3.85,41707,,,,,,,,,,,,,,,,,,99999,99999,99999,99999,99999,99999,99999,99999,99999,99999,99999,99999
32:57:10,1510528230,2017-11-12T23:10:32,0.775,1533.6,13.45,11.05,15.02,834.990,2064.540,113.066666,33.54,2.5071,355,23822,1.94398,3.86,41702,,,,,,,,,,,,,,,,,,99999,99999,99999,99999,99999,99999,99999,99999,99999,99999,99999,99999
32:57:40,1510528260,2017-11-12T23:11:02,0.775,1533.9,13.42,11.03,14.97,835.020,2064.480,113.783333,33.62,2.5073,355,23825,1.94307,3.85,41698,,,,,,,,,,,,,,,,,,99999,99999,99999,99999,99999,99999,99999,99999,99999,99999,99999,99999
32:58:10,1510528290,2017-11-12T23:11:32,0.774,1534.3,13.38,10.99,14.89,835.060,2064.380,112.366669,33.62,2.5075,355,23824,1.94064,3.86,41693,,,,,,,,,,,,,,,,,,99999,99999,99999,99999,99999,99999,99999,99999,99999,99999,99999,99999
32:58:40,1510528320,2017-11-12T23:12:02,0.768,1534.7,13.34,10.96,14.90,835.010,2064.150,111.050003,33.71,2.5076,355,23821,1.92638,3.85,41688,,,,,,,,,,,,,,,,,,99999,99999,99999,99999,99999,99999,99999,99999,99999,99999,99999,99999
32:59:10,1510528350,2017-11-12T23:12:32,0.771,1535.1,13.30,10.94,14.85,834.990,2064.020,110.883331,33.64,2.5078,355,23821,1.93274,3.85,41683,,,,,,,,,,,,,,,,,,99999,99999,99999,99999,99999,99999,99999,99999,99999,99999,99999,99999
32:59:40,1510528380,2017-11-12T23:13:02,0.768,1535.5,13.27,10.89,14.81,834.950,2063.980,111.199997,33.87,2.5080,355,23820,1.92577,3.85,41678,,,,,,,,,,,,,,,,,,99999,99999,99999,99999,99999,99999,99999,99999,99999,99999,99999,99999
33:00:10,1510528410,2017-11-12T23:13:32,0.773,1535.9,13.24,10.87,14.79,834.930,2063.850,112.266670,33.80,2.5081,355,23816,1.93912,3.85,41673,,,,,,,,,,,,,,,,,,99999,99999,99999,99999,99999,99999,99999,99999,99999,99999,99999,99999
33:00:40,1510528440,2017-11-12T23:14:02,0.775,1536.3,13.21,10.83,14.79,834.960,2063.680,112.566666,33.75,2.5082,355,23817,1.94338,3.85,41668,,,,,,,,,,,,,,,,,,99999,99999,99999,99999,99999,99999,99999,99999,99999,99999,99999,99999
33:01:10,1510528470,2017-11-12T23:14:32,0.768,1536.6,13.16,10.76,14.74,834.950,2063.580,112.900002,33.78,2.5085,355,23817,1.92607,3.85,41663,,,,,,,,,,,,,,,,,,99999,99999,99999,99999,99999,99999,99999,99999,99999,99999,99999,99999
33:01:40,1510528500,2017-11-12T23:15:02,0.772,1537.0,13.13,10.77,14.68,835.030,2063.460,112.033333,33.95,2.5086,355,23814,1.93699,3.85,41658,,,,,,,,,,,,,,,,,,99999,99999,99999,99999,99999,99999,99999,99999,99999,99999,99999,99999
33:02:10,1510528530,2017-11-12T23:15:32,0.772,1537.4,13.10,10.73,14.65,834.990,2063.390,111.733330,33.86,2.5088,355,23813,1.93790,3.85,41653,,,,,,,,,,,,,,,,,,99999,99999,99999,99999,99999,99999,99999,99999,99999,99999,99999,99999
33:02:40,1510528560,2017-11-12T23:16:02,0.771,1537.8,13.05,10.69,14.63,834.950,2063.180,112.550003,34.05,2.5090,355,23810,1.93547,3.85,41649,,,,,,,,,,,,,,,,,,99999,99999,99999,99999,99999,99999,99999,99999,99999,99999,99999,99999
33:03:10,1510528590,2017-11-12T23:16:32,0.769,1538.2,13.02,10.64,14.56,835.060,2063.060,112.250000,33.92,2.5091,355,23810,1.93032,3.85,41644,,,,,,,,,,,,,,,,,,99999,99999,99999,99999,99999,99999,99999,99999,99999,99999,99999,99999
33:03:40,1510528620,2017-11-12T23:17:02,0.770,1538.6,12.99,10.59,14.53,835.060,2063.000,112.550003,33.91,2.5093,355,23809,1.93274,3.85,41639,,,,,,,,,,,,,,,,,,99999,99999,99999,99999,99999,99999,99999,99999,99999,99999,99999,99999
33:04:10,1510528650,2017-11-12T23:17:32,0.773,1538.9,12.94,10.54,14.50,835.020,2062.790,112.366669,34.10,2.5095,355,23808,1.93942,3.85,41634,,,,,,,,,,,,,,,,,,99999,99999,99999,99999,99999,99999,99999,99999,99999,99999,99999,99999
33:04:40,1510528680,2017-11-12T23:18:02,0.766,1539.3,12.91,10.54,14.45,835.080,2062.660,111.616669,34.34,2.5096,355,23806,1.92275,3.85,41629,,,,,,,,,,,,,,,,,,99999,99999,99999,99999,99999,99999,99999,99999,99999,99999,99999,99999
33:05:10,1510528710,2017-11-12T23:18:32,0.766,1539.7,12.88,10.49,14.44,835.010,2062.600,110.283333,34.15,2.5098,355,23808,1.92365,3.85,41624,,,,,,,,,,,,,,,,,,99999,99999,99999,99999,99999,99999,99999,99999,99999,99999,99999,99999
33:05:40,1510528740,2017-11-12T23:19:02,0.771,1540.1,12.83,10.46,14.35,835.050,2062.430,112.116669,34.21,2.5100,355,23804,1.93578,3.85,41619,,,,,,,,,,,,,,,,,,99999,99999,99999,99999,99999,99999,99999,99999,99999,99999,99999,99999
33:06:10,1510528770,2017-11-12T23:19:32,0.772,1540.5,12.80,10.40,14.34,835.110,2062.330,112.616669,33.99,2.5102,355,23801,1.93790,3.85,41614,,,,,,,,,,,,,,,,,,99999,99999,99999,99999,99999,99999,99999,99999,99999,99999,99999,99999
33:06:40,1510528800,2017-11-12T23:20:02,0.771,1540.9,12.76,10.38,14.29,835.030,2062.160,111.683334,34.48,2.5103,355,23800,1.93638,3.85,41610,,,,,,,,,,,,,,,,,,99999,99999,99999,99999,99999,99999,99999,99999,99999,99999,99999,99999
33:07:10,1510528830,2017-11-12T23:20:32,0.773,1541.3,12.73,10.34,14.29,834.990,2062.100,111.216667,35.01,2.5105,355,23802,1.94064,3.85,41605,,,,,,,,,,,,,,,,,,99999,99999,99999,99999,99999,99999,99999,99999,99999,99999,99999,99999
33:07:40,1510528860,2017-11-12T23:21:02,0.767,1541.6,12.69,10.32,14.23,835.050,2061.990,110.000000,34.77,2.5107,355,23801,1.92456,3.85,41600,,,,,,,,,,,,,,,,,,99999,99999,99999,99999,99999,99999,99999,99999,99999,99999,99999,99999
33:08:10,1510528890,2017-11-12T23:21:32,0.765,1542.0,12.65,10.26,14.21,835.030,2061.810,111.016670,34.39,2.5109,355,23798,1.92184,3.85,41595,,,,,,,,,,,,,,,,,,99999,99999,99999,99999,99999,99999,99999,99999,99999,99999,99999,99999
33:08:40,1510528920,2017-11-12T23:22:02,0.771,1542.4,12.61,10.24,14.13,835.090,2061.640,111.266670,34.63,2.5110,355,23796,1.93547,3.85,41590,,,,,,,,,,,,,,,,,,99999,99999,99999,99999,99999,99999,99999,99999,99999,99999,99999,99999
33:09:10,1510528950,2017-11-12T23:22:32,0.770,1542.8,12.58,10.15,14.10,835.030,2061.600,112.216667,34.49,2.5112,355,23795,1.93244,3.85,41585,,,,,,,,,,,,,,,,,,99999,99999,99999,99999,99999,99999,99999,99999,99999,99999,99999,99999
33:09:40,1510528980,2017-11-12T23:23:02,0.768,1543.2,12.54,10.16,14.06,835.140,2061.410,110.750000,34.83,2.5113,355,23795,1.92789,3.85,41580,,,,,,,,,,,,,,,,,,99999,99999,99999,99999,99999,99999,99999,99999,99999,99999,99999,99999
33:10:10,1510529010,2017-11-12T23:23:32,0.770,1543.6,12.51,10.10,14.06,835.040,2061.310,112.099998,34.84,2.5115,355,23791,1.93396,3.85,41575,,,,,,,,,,,,,,,,,,99999,99999,99999,99999,99999,99999,99999,99999,99999,99999,99999,99999
33:10:40,1510529040,2017-11-12T23:24:02,0.770,1543.9,12.47,10.09,14.05,834.950,2061.200,111.616669,34.92,2.5117,355,23793,1.93487,3.85,41571,,,,,,,,,,,,,,,,,,99999,99999,99999,99999,99999,99999,99999,99999,99999,99999,99999,99999
33:11:10,1510529070,2017-11-12T23:24:32,0.763,1544.3,12.44,10.01,13.98,835.030,2061.080,109.599998,34.84,2.5118,355,23791,1.91549,3.85,41566,,,,,,,,,,,,,,,,,,99999,99999,99999,99999,99999,99999,99999,99999,99999,99999,99999,99999
33:11:40,1510529100,2017-11-12T23:25:02,0.765,1544.7,12.41,9.99,13.94,835.040,2060.970,111.066666,34.73,2.5120,355,23787,1.92123,3.85,41561,,,,,,,,,,,,,,,,,,99999,99999,99999,99999,99999,99999,99999,99999,99999,99999,99999,99999
33:12:10,1510529130,2017-11-12T23:25:32,0.763,1545.1,12.37,9.96,13.94,834.990,2060.850,110.383331,34.91,2.5122,355,23788,1.91670,3.85,41556,,,,,,,,,,,,,,,,,,99999,99999,99999,99999,99999,99999,99999,99999,99999,99999,99999,99999
33:12:40,1510529160,2017-11-12T23:26:02,0.768,1545.5,12.35,9.94,13.85,835.100,2060.740,110.566666,34.96,2.5122,355,23788,1.93062,3.85,41551,,,,,,,,,,,,,,,,,,99999,99999,99999,99999,99999,99999,99999,99999,99999,99999,99999,99999
33:13:10,1510529190,2017-11-12T23:26:32,0.765,1545.9,12.32,9.92,13.87,834.930,2060.680,109.466667,34.56,2.5124,355,23789,1.92305,3.85,41546,,,,,,,,,,,,,,,,,,99999,99999,99999,99999,99999,99999,99999,99999,99999,99999,99999,99999
33:13:40,1510529220,2017-11-12T23:27:02,0.769,1546.2,12.29,9.83,13.85,835.060,2060.510,111.766670,34.96,2.5125,355,23785,1.93183,3.85,41541,,,,,,,,,,,,,,,,,,99999,99999,99999,99999,99999,99999,99999,99999,99999,99999,99999,99999
33:14:10,1510529250,2017-11-12T23:27:32,0.768,1546.6,12.25,9.82,13.81,834.970,2060.410,110.283333,35.19,2.5127,355,23785,1.92850,3.85,41537,,,,,,,,,,,,,,,,,,99999,99999,99999,99999,99999,99999,99999,99999,99999,99999,99999,99999
33:14:40,1510529280,2017-11-12T23:28:02,0.762,1547.0,12.22,9.83,13.79,835.050,2060.290,110.000000,35.63,2.5128,355,23782,1.91368,3.85,41532,,,,,,,,,,,,,,,,,,99999,99999,99999,99999,99999,99999,99999,99999,99999,99999,99999,99999
33:15:10,1510529310,2017-11-12T23:28:32,0.763,1547.4,12.18,9.76,13.71,835.080,2060.180,109.216667,35.69,2.5130,355,23781,1.91821,3.85,41527,,,,,,,,,,,,,,,,,,99999,99999,99999,99999,99999,99999,99999,99999,99999,99999,99999,99999
33:15:40,1510529340,2017-11-12T23:29:02,0.761,1547.8,12.16,9.73,13.71,835.060,2060.060,109.800003,35.81,2.5130,355,23780,1.91217,3.85,41522,,,,,,,,,,,,,,,,,,99999,99999,99999,99999,99999,99999,99999,99999,99999,99999,99999,99999
33:16:10,1510529370,2017-11-12T23:29:32,0.769,1548.2,12.12,9.68,13.66,835.000,2059.950,110.599998,35.72,2.5133,355,23781,1.93153,3.85,41517,,,,,,,,,,,,,,,,,,99999,99999,99999,99999,99999,99999,99999,99999,99999,99999,99999,99999
33:16:40,1510529400,2017-11-12T23:30:02,0.767,1548.5,12.08,9.64,13.60,835.080,2059.840,112.000000,35.58,2.5135,355,23777,1.92880,3.85,41512,,,,,,,,,,,,,,,,,,99999,99999,99999,99999,99999,99999,99999,99999,99999,99999,99999,99999
33:17:10,1510529430,2017-11-12T23:30:32,0.766,1548.9,12.03,9.59,13.58,834.960,2059.620,110.883331,35.80,2.5136,355,23777,1.92638,3.85,41508,,,,,,,,,,,,,,,,,,99999,99999,99999,99999,99999,99999,99999,99999,99999,99999,99999,99999
33:17:40,1510529460,2017-11-12T23:31:02,0.768,1549.3,12.01,9.57,13.58,835.050,2059.560,111.333336,35.70,2.5138,355,23778,1.92971,3.85,41503,,,,,,,,,,,,,,,,,,99999,99999,99999,99999,99999,99999,99999,99999,99999,99999,99999,99999
33:18:10,1510529490,2017-11-12T23:31:32,0.760,1549.7,11.97,9.53,13.52,835.080,2059.450,109.483330,35.66,2.5140,355,23775,1.91157,3.85,41498,,,,,,,,,,,,,,,,,,99999,99999,99999,99999,99999,99999,99999,99999,99999,99999,99999,99999
33:18:40,1510529520,2017-11-12T23:32:02,0.766,1550.1,11.92,9.47,13.47,835.060,2059.260,109.800003,35.58,2.5142,355,23775,1.92547,3.85,41493,,,,,,,,,,,,,,,,,,99999,99999,99999,99999,99999,99999,99999,99999,99999,99999,99999,99999
33:19:10,1510529550,2017-11-12T23:32:32,0.765,1550.4,11.89,9.45,13.44,835.100,2059.160,110.016670,35.58,2.5144,355,23774,1.92365,3.85,41488,,,,,,,,,,,,,,,,,,99999,99999,99999,99999,99999,99999,99999,99999,99999,99999,99999,99999
33:19:40,1510529580,2017-11-12T23:33:02,0.760,1550.8,11.84,9.44,13.40,834.980,2058.990,108.366669,35.94,2.5146,355,23769,1.91097,3.85,41483,,,,,,,,,,,,,,,,,,99999,99999,99999,99999,99999,99999,99999,99999,99999,99999,99999,99999
33:20:10,1510529610,2017-11-12T23:33:32,0.766,1551.2,11.81,9.34,13.39,835.090,2058.930,110.916664,35.91,2.5148,355,23770,1.92638,3.85,41478,,,,,,,,,,,,,,,,,,99999,99999,99999,99999,99999,99999,99999,99999,99999,99999,99999,99999
33:20:40,1510529640,2017-11-12T23:34:02,0.766,1551.6,11.77,9.34,13.29,835.020,2058.700,109.699997,35.79,2.5149,355,23769,1.92577,3.85,41474,,,,,,,,,,,,,,,,,,99999,99999,99999,99999,99999,99999,99999,99999,99999,99999,99999,99999
33:21:10,1510529670,2017-11-12T23:34:32,0.764,1552.0,11.74,9.31,13.27,835.000,2058.660,110.650002,35.83,2.5151,355,23765,1.92093,3.85,41469,,,,,,,,,,,,,,,,,,99999,99999,99999,99999,99999,99999,99999,99999,99999,99999,99999,99999
33:21:40,1510529700,2017-11-12T23:35:02,0.766,1552.4,11.70,9.27,13.26,835.010,2058.530,110.833336,36.05,2.5153,355,23766,1.92668,3.85,41464,,,,,,,,,,,,,,,,,,99999,99999,99999,99999,99999,99999,99999,99999,99999,99999,99999,99999
33:22:10,1510529730,2017-11-12T23:35:32,0.758,1552.7,11.67,9.22,13.19,835.040,2058.430,109.400002,36.16,2.5154,355,23763,1.90705,3.85,41459,,,,,,,,,,,,,,,,,,99999,99999,99999,99999,99999,99999,99999,99999,99999,99999,99999,99999
33:22:40,1510529760,2017-11-12T23:36:02,0.761,1553.1,11.63,9.18,13.18,835.050,2058.260,109.533333,36.17,2.5156,355,23761,1.91519,3.85,41454,,,,,,,,,,,,,,,,,,99999,99999,99999,99999,99999,99999,99999,99999,99999,99999,99999,99999
33:23:10,1510529790,2017-11-12T23:36:32,0.766,1553.5,11.60,9.14,13.15,835.010,2058.140,110.016670,36.28,2.5157,355,23764,1.92819,3.85,41450,,,,,,,,,,,,,,,,,,99999,99999,99999,99999,99999,99999,99999,99999,99999,99999,99999,99999
33:23:40,1510529820,2017-11-12T23:37:02,0.761,1553.9,11.57,9.11,13.11,834.990,2058.090,109.583336,36.18,2.5159,355,23759,1.91428,3.85,41445,,,,,,,,,,,,,,,,,,99999,99999,99999,99999,99999,99999,99999,99999,99999,99999,99999,99999
33:24:10,1510529850,2017-11-12T23:37:32,0.764,1554.3,11.53,9.06,13.08,834.940,2057.920,110.300003,36.15,2.5160,355,23762,1.92275,3.85,41440,,,,,,,,,,,,,,,,,,99999,99999,99999,99999,99999,99999,99999,99999,99999,99999,99999,99999
33:24:40,1510529880,2017-11-12T23:38:02,0.765,1554.6,11.49,9.02,13.03,835.030,2057.760,110.366669,36.24,2.5162,355,23761,1.92395,3.85,41435,,,,,,,,,,,,,,,,,,99999,99999,99999,99999,99999,99999,99999,99999,99999,99999,99999,99999
33:25:10,1510529910,2017-11-12T23:38:32,0.762,1555.0,11.46,9.00,13.02,834.960,2057.700,108.900002,36.19,2.5164,355,23762,1.91821,3.85,41430,,,,,,,,,,,,,,,,,,99999,99999,99999,99999,99999,99999,99999,99999,99999,99999,99999,99999
33:25:40,1510529940,2017-11-12T23:39:02,0.762,1555.4,11.44,8.97,12.98,835.070,2057.640,109.983330,36.40,2.5165,355,23758,1.91700,3.85,41425,,,,,,,,,,,,,,,,,,99999,99999,99999,99999,99999,99999,99999,99999,99999,99999,99999,99999
33:26:10,1510529970,2017-11-12T23:39:32,0.763,1555.8,11.41,8.91,12.95,835.050,2057.530,111.050003,36.42,2.5166,355,23756,1.91942,3.85,41421,,,,,,,,,,,,,,,,,,99999,99999,99999,99999,99999,99999,99999,99999,99999,99999,99999,99999
33:26:40,1510530000,2017-11-12T23:40:02,0.760,1556.2,11.38,8.90,12.89,835.080,2057.370,107.633331,36.77,2.5167,355,23760,1.91187,3.85,41416,,,,,,,,,,,,,,,,,,99999,99999,99999,99999,99999,99999,99999,99999,99999,99999,99999,99999
33:27:10,1510530030,2017-11-12T23:40:32,0.757,1556.5,11.35,8.87,12.87,835.040,2057.300,107.933334,36.27,2.5169,355,23752,1.90645,3.85,41411,,,,,,,,,,,,,,,,,,99999,99999,99999,99999,99999,99999,99999,99999,99999,99999,99999,99999
33:27:40,1510530060,2017-11-12T23:41:02,0.761,1556.9,11.31,8.83,12.87,835.050,2057.170,108.983330,36.64,2.5171,355,23754,1.91670,3.85,41406,,,,,,,,,,,,,,,,,,99999,99999,99999,99999,99999,99999,99999,99999,99999,99999,99999,99999
33:28:10,1510530090,2017-11-12T23:41:32,0.760,1557.3,11.29,8.79,12.82,835.050,2057.130,109.283333,36.62,2.5172,355,23738,1.91217,3.85,41401,,,,,,,,,,,,,,,,,,99999,99999,99999,99999,99999,99999,99999,99999,99999,99999,99999,99999
33:28:40,1510530120,2017-11-12T23:42:02,0.762,1557.7,11.26,8.77,12.79,835.060,2057.010,110.033333,36.99,2.5173,355,23752,1.91821,3.85,41397,,,,,,,,,,,,,,,,,,99999,99999,99999,99999,99999,99999,99999,99999,99999,99999,99999,99999
33:29:10,1510530150,2017-11-12T23:42:32,0.764,1558.1,11.23,8.75,12.76,835.090,2056.840,110.000000,36.77,2.5174,355,23752,1.92335,3.85,41392,,,,,,,,,,,,,,,,,,99999,99999,99999,99999,99999,99999,99999,99999,99999,99999,99999,99999
33:29:40,1510530180,2017-11-12T23:43:02,0.757,1558.4,11.20,8.69,12.76,835.100,2056.800,108.800003,36.90,2.5176,355,23744,1.90615,3.85,41387,,,,,,,,,,,,,,,,,,99999,99999,99999,99999,99999,99999,99999,99999,99999,99999,99999,99999
33:30:10,1510530210,2017-11-12T23:43:32,0.759,1558.8,11.17,8.67,12.71,835.110,2056.670,109.550003,36.82,2.5177,355,23736,1.91067,3.85,41382,,,,,,,,,,,,,,,,,,99999,99999,99999,99999,99999,99999,99999,99999,99999,99999,99999,99999
33:30:40,1510530240,2017-11-12T23:44:02,0.756,1559.2,11.14,8.63,12.66,835.060,2056.610,107.583336,36.85,2.5179,355,23761,1.90314,3.85,41377,,,,,,,,,,,,,,,,,,99999,99999,99999,99999,99999,99999,99999,99999,99999,99999,99999,99999
33:31:10,1510530270,2017-11-12T23:44:32,0.756,1559.6,11.11,8.60,12.65,835.090,2056.450,108.166664,36.92,2.5180,355,23762,1.90254,3.85,41373,,,,,,,,,,,,,,,,,,99999,99999,99999,99999,99999,99999,99999,99999,99999,99999,99999,99999
33:31:40,1510530300,2017-11-12T23:45:02,0.760,1560.0,11.09,8.57,12.66,835.070,2056.400,107.316666,37.00,2.5181,355,23747,1.91338,3.85,41368,,,,,,,,,,,,,,,,,,99999,99999,99999,99999,99999,99999,99999,99999,99999,99999,99999,99999
33:32:10,1510530330,2017-11-12T23:45:32,0.756,1560.3,11.06,8.53,12.58,835.050,2056.280,108.750000,37.00,2.5182,355,23745,1.90314,3.85,41363,,,,,,,,,,,,,,,,,,99999,99999,99999,99999,99999,99999,99999,99999,99999,99999,99999,99999
33:32:40,1510530360,2017-11-12T23:46:02,0.757,1560.7,11.03,8.49,12.52,835.080,2056.240,107.150002,37.05,2.5184,355,23760,1.90585,3.85,41358,,,,,,,,,,,,,,,,,,99999,99999,99999,99999,99999,99999,99999,99999,99999,99999,99999,99999
33:33:10,1510530390,2017-11-12T23:46:32,0.758,1561.1,11.00,8.47,12.50,835.040,2056.110,109.383331,36.99,2.5185,355,23737,1.91006,3.85,41353,,,,,,,,,,,,,,,,,,99999,99999,99999,99999,99999,99999,99999,99999,99999,99999,99999,99999
33:33:40,1510530420,2017-11-12T23:47:02,0.760,1561.5,10.97,8.45,12.50,835.050,2055.950,109.233330,37.05,2.5186,355,23725,1.91338,3.85,41349,,,,,,,,,,,,,,,,,,99999,99999,99999,99999,99999,99999,99999,99999,99999,99999,99999,99999
33:34:10,1510530450,2017-11-12T23:47:32,0.761,1561.9,10.95,8.43,12.45,835.050,2055.880,108.616669,37.03,2.5187,355,23743,1.91610,3.85,41344,,,,,,,,,,,,,,,,,,99999,99999,99999,99999,99999,99999,99999,99999,99999,99999,99999,99999
33:34:40,1510530480,2017-11-12T23:48:02,0.757,1562.2,10.93,8.41,12.45,835.050,2055.840,109.300003,36.99,2.5188,355,23737,1.90795,3.85,41339,,,,,,,,,,,,,,,,,,99999,99999,99999,99999,99999,99999,99999,99999,99999,99999,99999,99999
33:35:10,1510530510,2017-11-12T23:48:32,0.761,1562.6,10.90,8.36,12.44,835.090,2055.780,108.466667,37.00,2.5190,355,23722,1.91670,3.85,41334,,,,,,,,,,,,,,,,,,99999,99999,99999,99999,99999,99999,99999,99999,99999,99999,99999,99999
33:35:40,1510530540,2017-11-12T23:49:02,0.762,1563.0,10.88,8.34,12.40,835.060,2055.720,108.866669,37.13,2.5191,355,23738,1.91851,3.85,41330,,,,,,,,,,,,,,,,,,99999,99999,99999,99999,99999,99999,99999,99999,99999,99999,99999,99999
33:36:10,1510530570,2017-11-12T23:49:32,0.755,1563.4,10.87,8.30,12.42,835.020,2055.670,106.916664,37.60,2.5191,355,23740,1.90133,3.85,41325,,,,,,,,,,,,,,,,,,99999,99999,99999,99999,99999,99999,99999,99999,99999,99999,99999,99999
33:36:40,1510530600,2017-11-12T23:50:02,0.754,1563.8,10.83,8.26,12.35,835.080,2055.500,107.300003,37.69,2.5193,355,23738,1.89833,3.85,41320,,,,,,,,,,,,,,,,,,99999,99999,99999,99999,99999,99999,99999,99999,99999,99999,99999,99999
33:37:10,1510530630,2017-11-12T23:50:32,0.761,1564.1,10.80,8.26,12.37,835.060,2055.380,109.066666,37.65,2.5194,355,23727,1.91730,3.85,41315,,,,,,,,,,,,,,,,,,99999,99999,99999,99999,99999,99999,99999,99999,99999,99999,99999,99999
33:37:40,1510530660,2017-11-12T23:51:02,0.761,1564.5,10.78,8.22,12.31,835.010,2055.320,109.016670,37.86,2.5195,355,23737,1.91700,3.85,41310,,,,,,,,,,,,,,,,,,99999,99999,99999,99999,99999,99999,99999,99999,99999,99999,99999,99999
33:38:10,1510530690,2017-11-12T23:51:32,0.759,1564.9,10.77,8.23,12.27,835.030,2055.320,110.816666,37.86,2.5196,355,23720,1.91248,3.85,41306,,,,,,,,,,,,,,,,,,99999,99999,99999,99999,99999,99999,99999,99999,99999,99999,99999,99999
33:38:40,1510530720,2017-11-12T23:52:02,0.761,1565.3,10.74,8.18,12.26,834.970,2055.220,109.133331,37.72,2.5197,355,23732,1.91700,3.85,41301,,,,,,,,,,,,,,,,,,99999,99999,99999,99999,99999,99999,99999,99999,99999,99999,99999,99999
33:39:10,1510530750,2017-11-12T23:52:32,0.759,1565.6,10.72,8.17,12.27,835.000,2055.110,108.233330,37.76,2.5198,355,23732,1.91278,3.85,41296,,,,,,,,,,,,,,,,,,99999,99999,99999,99999,99999,99999,99999,99999,99999,99999,99999,99999
33:39:40,1510530780,2017-11-12T23:53:02,0.756,1566.0,10.69,8.15,12.24,835.000,2054.980,106.483330,38.03,2.5199,355,23741,1.90524,3.85,41291,,,,,,,,,,,,,,,,,,99999,99999,99999,99999,99999,99999,99999,99999,99999,99999,99999,99999
33:40:10,1510530810,2017-11-12T23:53:32,0.756,1566.4,10.69,8.11,12.18,835.030,2054.980,107.550003,38.19,2.5199,355,23734,1.90494,3.85,41287,,,,,,,,,,,,,,,,,,99999,99999,99999,99999,99999,99999,99999,99999,99999,99999,99999,99999
33:40:40,1510530840,2017-11-12T23:54:02,0.753,1566.8,10.66,8.08,12.16,835.010,2054.950,107.033333,38.01,2.5201,355,23733,1.89773,3.85,41282,,,,,,,,,,,,,,,,,,99999,99999,99999,99999,99999,99999,99999,99999,99999,99999,99999,99999
33:41:10,1510530870,2017-11-12T23:54:32,0.754,1567.2,10.64,8.08,12.15,835.090,2054.880,107.050003,37.86,2.5202,355,23733,1.90103,3.85,41277,,,,,,,,,,,,,,,,,,99999,99999,99999,99999,99999,99999,99999,99999,99999,99999,99999,99999
33:41:40,1510530900,2017-11-12T23:55:02,0.753,1567.5,10.62,8.06,12.13,835.020,2054.820,106.750000,37.82,2.5203,355,23734,1.89863,3.85,41272,,,,,,,,,,,,,,,,,,99999,99999,99999,99999,99999,99999,99999,99999,99999,99999,99999,99999
33:42:10,1510530930,2017-11-12T23:55:32,0.753,1567.9,10.60,8.00,12.08,835.000,2054.710,106.783333,38.22,2.5204,355,23734,1.89893,3.85,41267,,,,,,,,,,,,,,,,,,99999,99999,99999,99999,99999,99999,99999,99999,99999,99999,99999,99999
33:42:40,1510530960,2017-11-12T23:56:02,0.760,1568.3,10.58,8.02,12.08,835.000,2054.590,110.033333,38.04,2.5204,355,23730,1.91519,3.85,41263,,,,,,,,,,,,,,,,,,99999,99999,99999,99999,99999,99999,99999,99999,99999,99999,99999,99999
33:43:10,1510530990,2017-11-12T23:56:32,0.758,1568.7,10.57,7.98,12.11,835.000,2054.590,107.800003,37.82,2.5205,355,23731,1.91097,3.85,41258,,,,,,,,,,,,,,,,,,99999,99999,99999,99999,99999,99999,99999,99999,99999,99999,99999,99999
33:43:40,1510531020,2017-11-12T23:57:02,0.759,1569.1,10.55,7.98,12.03,835.110,2054.550,109.150002,37.79,2.5206,355,23728,1.91428,3.85,41253,,,,,,,,,,,,,,,,,,99999,99999,99999,99999,99999,99999,99999,99999,99999,99999,99999,99999
33:44:10,1510531050,2017-11-12T23:57:32,0.753,1569.4,10.52,7.96,12.02,835.040,2054.420,107.500000,37.83,2.5207,355,23727,1.89923,3.85,41248,,,,,,,,,,,,,,,,,,99999,99999,99999,99999,99999,99999,99999,99999,99999,99999,99999,99999
33:44:40,1510531080,2017-11-12T23:58:02,0.754,1569.8,10.53,7.92,12.00,835.120,2054.480,107.050003,37.86,2.5207,355,23728,1.90013,3.85,41244,,,,,,,,,,,,,,,,,,99999,99999,99999,99999,99999,99999,99999,99999,99999,99999,99999,99999
33:45:10,1510531110,2017-11-12T23:58:32,0.754,1570.2,10.49,7.93,12.00,835.020,2054.380,107.800003,37.90,2.5210,355,23726,1.89983,3.85,41239,,,,,,,,,,,,,,,,,,99999,99999,99999,99999,99999,99999,99999,99999,99999,99999,99999,99999
33:45:40,1510531140,2017-11-12T23:59:02,0.753,1570.6,10.47,7.89,12.00,835.030,2054.250,106.816666,37.94,2.5210,355,23727,1.89713,3.85,41234,,,,,,,,,,,,,,,,,,99999,99999,99999,99999,99999,99999,99999,99999,99999,99999,99999,99999
33:46:10,1510531170,2017-11-12T23:59:32,0.752,1570.9,10.46,7.87,11.95,835.080,2054.190,106.616669,38.06,2.5210,355,23727,1.89653,3.85,41229,,,,,,,,,,,,,,,,,,99999,99999,99999,99999,99999,99999,99999,99999,99999,99999,99999,99999
33:46:40,1510531200,2017-11-13T00:00:02,0.760,1571.3,10.45,7.84,11.94,835.030,2054.150,108.849998,38.02,2.5210,355,23725,1.91489,3.85,41225,,,,,,,,,,,,,,,,,,99999,99999,99999,99999,99999,99999,99999,99999,99999,99999,99999,99999
33:47:10,1510531230,2017-11-13T00:00:32,0.754,1571.7,10.43,7.85,11.95,835.060,2054.090,108.099998,38.32,2.5211,355,23725,1.90073,3.85,41220,,,,,,,,,,,,,,,,,,99999,99999,99999,99999,99999,99999,99999,99999,99999,99999,99999,99999
33:47:40,1510531260,2017-11-13T00:01:02,0.758,1572.1,10.41,7.80,11.92,835.010,2054.030,108.433334,38.15,2.5212,355,23726,1.91217,3.85,41215,,,,,,,,,,,,,,,,,,99999,99999,99999,99999,99999,99999,99999,99999,99999,99999,99999,99999
33:48:10,1510531290,2017-11-13T00:01:32,0.758,1572.5,10.40,7.79,11.87,835.070,2054.030,108.750000,38.04,2.5213,355,23727,1.91097,3.85,41210,,,,,,,,,,,,,,,,,,99999,99999,99999,99999,99999,99999,99999,99999,99999,99999,99999,99999
33:48:40,1510531320,2017-11-13T00:02:02,0.758,1572.8,10.38,7.77,11.89,834.990,2053.980,108.066666,38.15,2.5215,355,23720,1.91067,3.85,41205,,,,,,,,,,,,,,,,,,99999,99999,99999,99999,99999,99999,99999,99999,99999,99999,99999,99999
33:49:10,1510531350,2017-11-13T00:02:32,0.759,1573.2,10.37,7.77,11.84,835.050,2053.920,108.333336,38.13,2.5215,355,23721,1.91338,3.85,41201,,,,,,,,,,,,,,,,,,99999,99999,99999,99999,99999,99999,99999,99999,99999,99999,99999,99999
33:49:40,1510531380,2017-11-13T00:03:02,0.757,1573.6,10.35,7.71,11.84,835.100,2053.820,106.849998,38.26,2.5215,355,23724,1.90795,3.85,41196,,,,,,,,,,,,,,,,,,99999,99999,99999,99999,99999,99999,99999,99999,99999,99999,99999,99999
33:50:10,1510531410,2017-11-13T00:03:32,0.759,1574.0,10.33,7.73,11.85,835.060,2053.750,108.333336,38.20,2.5216,355,23719,1.91459,3.85,41191,,,,,,,,,,,,,,,,,,99999,99999,99999,99999,99999,99999,99999,99999,99999,99999,99999,99999
33:50:40,1510531440,2017-11-13T00:04:02,0.756,1574.4,10.32,7.70,11.79,835.090,2053.690,107.616669,38.38,2.5216,355,23721,1.90645,3.85,41186,,,,,,,,,,,,,,,,,,99999,99999,99999,99999,99999,99999,99999,99999,99999,99999,99999,99999
33:51:10,1510531470,2017-11-13T00:04:32,0.756,1574.7,10.29,7.67,11.81,835.070,2053.650,107.216667,38.32,2.5219,355,23720,1.90675,3.85,41182,,,,,,,,,,,,,,,,,,99999,99999,99999,99999,99999,99999,99999,99999,99999,99999,99999,99999
33:51:40,1510531500,2017-11-13T00:05:02,0.754,1575.1,10.26,7.64,11.76,835.130,2053.530,107.750000,38.17,2.5220,355,23717,1.90133,3.85,41177,,,,,,,,,,,,,,,,,,99999,99999,99999,99999,99999,99999,99999,99999,99999,99999,99999,99999
33:52:10,1510531530,2017-11-13T00:05:32,0.753,1575.5,10.25,7.62,11.73,835.130,2053.530,106.416664,38.35,2.5221,355,23719,1.90013,3.85,41172,,,,,,,,,,,,,,,,,,99999,99999,99999,99999,99999,99999,99999,99999,99999,99999,99999,99999
33:52:40,1510531560,2017-11-13T00:06:02,0.756,1575.9,10.25,7.61,11.73,835.070,2053.530,107.983330,38.59,2.5220,355,23716,1.90615,3.85,41167,,,,,,,,,,,,,,,,,,99999,99999,99999,99999,99999,99999,99999,99999,99999,99999,99999,99999
33:53:10,1510531590,2017-11-13T00:06:32,0.751,1576.2,10.23,7.60,11.73,835.080,2053.360,106.866669,38.73,2.5220,355,23715,1.89442,3.85,41163,,,,,,,,,,,,,,,,,,99999,99999,99999,99999,99999,99999,99999,99999,99999,99999,99999,99999
33:53:40,1510531620,2017-11-13T00:07:02,0.751,1576.6,10.21,7.59,11.73,835.060,2053.360,106.900002,38.72,2.5222,355,23719,1.89382,3.85,41158,,,,,,,,,,,,,,,,,,99999,99999,99999,99999,99999,99999,99999,99999,99999,99999,99999,99999
33:54:10,1510531650,2017-11-13T00:07:32,0.753,1577.0,10.19,7.57,11.68,834.990,2053.250,105.983330,38.73,2.5222,355,23715,1.89983,3.84,41153,,,,,,,,,,,,,,,,,,99999,99999,99999,99999,99999,99999,99999,99999,99999,99999,99999,99999
33:54:40,1510531680,2017-11-13T00:08:02,0.752,1577.4,10.18,7.52,11.66,835.140,2053.250,106.449997,38.63,2.5223,355,23715,1.89623,3.84,41148,,,,,,,,,,,,,,,,,,99999,99999,99999,99999,99999,99999,99999,99999,99999,99999,99999,99999
33:55:10,1510531710,2017-11-13T00:08:32,0.753,1577.7,10.15,7.52,11.65,835.070,2053.130,107.400002,38.65,2.5225,355,23712,1.89833,3.84,41144,,,,,,,,,,,,,,,,,,99999,99999,99999,99999,99999,99999,99999,99999,99999,99999,99999,99999
33:55:40,1510531740,2017-11-13T00:09:02,0.751,1578.1,10.14,7.53,11.68,835.130,2053.130,107.349998,38.57,2.5226,355,23714,1.89413,3.84,41139,,,,,,,,,,,,,,,,,,99999,99999,99999,99999,99999,99999,99999,99999,99999,99999,99999,99999
33:56:10,1510531770,2017-11-13T00:09:32,0.757,1578.5,10.12,7.49,11.61,835.160,2053.090,107.699997,38.80,2.5227,355,23714,1.91067,3.84,41134,,,,,,,,,,,,,,,,,,99999,99999,99999,99999,99999,99999,99999,99999,99999,99999,99999,99999
33:56:40,1510531800,2017-11-13T00:10:02,0.755,1578.9,10.10,7.46,11.60,835.060,2053.030,106.650002,38.89,2.5228,355,23715,1.90494,3.84,41129,,,,,,,,,,,,,,,,,,99999,99999,99999,99999,99999,99999,99999,99999,99999,99999,99999,99999
33:57:10,1510531830,2017-11-13T00:10:32,0.755,1579.3,10.09,7.45,11.60,835.140,2052.920,107.316666,39.00,2.5227,355,23714,1.90555,3.84,41125,,,,,,,,,,,,,,,,,,99999,99999,99999,99999,99999,99999,99999,99999,99999,99999,99999,99999
33:57:40,1510531860,2017-11-13T00:11:02,0.756,1579.6,10.06,7.43,11.56,835.070,2052.800,108.816666,39.01,2.5228,355,23713,1.90645,3.84,41120,,,,,,,,,,,,,,,,,,99999,99999,99999,99999,99999,99999,99999,99999,99999,99999,99999,99999
33:58:10,1510531890,2017-11-13T00:11:32,0.756,1580.0,10.05,7.42,11.53,835.120,2052.800,108.383331,39.09,2.5229,355,23711,1.90735,3.84,41115,,,,,,,,,,,,,,,,,,99999,99999,99999,99999,99999,99999,99999,99999,99999,99999,99999,99999
33:58:40,1510531920,2017-11-13T00:12:02,0.749,1580.4,10.02,7.42,11.50,835.050,2052.690,106.099998,38.87,2.5231,355,23711,1.89053,3.84,41110,,,,,,,,,,,,,,,,,,99999,99999,99999,99999,99999,99999,99999,99999,99999,99999,99999,99999
33:59:10,1510531950,2017-11-13T00:12:32,0.757,1580.8,10.01,7.39,11.53,835.180,2052.690,108.433334,38.95,2.5232,355,23711,1.90976,3.84,41106,,,,,,,,,,,,,,,,,,99999,99999,99999,99999,99999,99999,99999,99999,99999,99999,99999,99999
33:59:40,1510531980,2017-11-13T00:13:02,0.753,1581.1,10.00,7.36,11.50,835.130,2052.630,107.283333,38.95,2.5232,355,23709,1.90103,3.84,41101,,,,,,,,,,,,,,,,,,99999,99999,99999,99999,99999,99999,99999,99999,99999,99999,99999,99999
34:00:10,1510532010,2017-11-13T00:13:32,0.754,1581.5,9.98,7.36,11.45,835.110,2052.560,107.266670,39.81,2.5232,355,23712,1.90374,3.84,41096,,,,,,,,,,,,,,,,,,99999,99999,99999,99999,99999,99999,99999,99999,99999,99999,99999,99999
34:00:40,1510532040,2017-11-13T00:14:02,0.757,1581.9,9.97,7.33,11.44,835.090,2052.560,108.166664,38.74,2.5234,355,23711,1.91036,3.84,41091,,,,,,,,,,,,,,,,,,99999,99999,99999,99999,99999,99999,99999,99999,99999,99999,99999,99999
34:01:10,1510532070,2017-11-13T00:14:32,0.750,1582.3,9.96,7.32,11.44,835.140,2052.460,106.349998,38.95,2.5233,355,23712,1.89143,3.84,41087,,,,,,,,,,,,,,,,,,99999,99999,99999,99999,99999,99999,99999,99999,99999,99999,99999,99999
34:01:40,1510532100,2017-11-13T00:15:02,0.755,1582.6,9.94,7.29,11.45,835.130,2052.360,106.666664,39.22,2.5234,355,23707,1.90464,3.84,41082,,,,,,,,,,,,,,,,,,99999,99999,99999,99999,99999,99999,99999,99999,99999,99999,99999,99999
34:02:10,1510532130,2017-11-13T00:15:32,0.754,1583.0,9.92,7.29,11.40,835.130,2052.360,107.266670,39.43,2.5236,355,23706,1.90314,3.84,41077,,,,,,,,,,,,,,,,,,99999,99999,99999,99999,99999,99999,99999,99999,99999,99999,99999,99999
34:02:40,1510532160,2017-11-13T00:16:02,0.750,1583.4,9.91,7.30,11.35,835.100,2052.300,104.699997,39.22,2.5236,355,23710,1.89263,3.84,41072,,,,,,,,,,,,,,,,,,99999,99999,99999,99999,99999,99999,99999,99999,99999,99999,99999,99999
34:03:10,1510532190,2017-11-13T00:16:32,0.754,1583.8,9.91,7.28,11.39,835.130,2052.300,105.883331,39.26,2.5236,355,23705,1.90193,3.84,41068,,,,,,,,,,,,,,,,,,99999,99999,99999,99999,99999,99999,99999,99999,99999,99999,99999,99999
34:03:40,1510532220,2017-11-13T00:17:02,0.750,1584.1,9.88,7.26,11.38,835.080,2052.230,106.650002,39.47,2.5238,355,23708,1.89173,3.84,41063,,,,,,,,,,,,,,,,,,99999,99999,99999,99999,99999,99999,99999,99999,99999,99999,99999,99999
34:04:10,1510532250,2017-11-13T00:17:32,0.752,1584.5,9.86,7.25,11.38,835.110,2052.130,105.833336,39.46,2.5238,355,23707,1.89713,3.84,41058,,,,,,,,,,,,,,,,,,99999,99999,99999,99999,99999,99999,99999,99999,99999,99999,99999,99999
34:04:40,1510532280,2017-11-13T00:18:02,0.754,1584.9,9.86,7.25,11.38,835.110,2052.130,107.266670,39.43,2.5238,355,23708,1.90374,3.84,41054,,,,,,,,,,,,,,,,,,99999,99999,99999,99999,99999,99999,99999,99999,99999,99999,99999,99999
34:05:10,1510532310,2017-11-13T00:18:32,0.749,1585.3,9.85,7.23,11.32,835.170,2052.130,106.000000,39.46,2.5239,355,23708,1.89143,3.84,41049,,,,,,,,,,,,,,,,,,99999,99999,99999,99999,99999,99999,99999,99999,99999,99999,99999,99999
34:05:40,1510532340,2017-11-13T00:19:02,0.751,1585.7,9.84,7.19,11.31,835.140,2052.130,106.750000,39.80,2.5240,355,23704,1.89653,3.84,41044,,,,,,,,,,,,,,,,,,99999,99999,99999,99999,99999,99999,99999,99999,99999,99999,99999,99999
34:06:10,1510532370,2017-11-13T00:19:32,0.753,1586.0,9.82,7.19,11.31,835.170,2052.020,107.616669,39.69,2.5240,355,23704,1.89953,3.84,41039,,,,,,,,,,,,,,,,,,99999,99999,99999,99999,99999,99999,99999,99999,99999,99999,99999,99999
34:06:40,1510532400,2017-11-13T00:20:02,0.752,1586.4,9.81,7.20,11.26,835.200,2051.960,106.316666,39.76,2.5240,355,23706,1.89833,3.84,41035,,,,,,,,,,,,,,,,,,99999,99999,99999,99999,99999,99999,99999,99999,99999,99999,99999,99999
34:07:10,1510532430,2017-11-13T00:20:32,0.752,1586.8,9.79,7.15,11.27,835.180,2051.900,107.433334,39.57,2.5242,355,23703,1.89833,3.84,41030,,,,,,,,,,,,,,,,,,99999,99999,99999,99999,99999,99999,99999,99999,99999,99999,99999,99999
34:07:40,1510532460,2017-11-13T00:21:02,0.755,1587.2,9.79,7.15,11.26,835.180,2051.900,107.033333,39.57,2.5242,355,23705,1.90464,3.84,41025,,,,,,,,,,,,,,,,,,99999,99999,99999,99999,99999,99999,99999,99999,99999,99999,99999,99999
34:08:10,1510532490,2017-11-13T00:21:32,0.750,1587.5,9.78,7.13,11.27,835.130,2051.860,105.033333,39.47,2.5242,355,23704,1.89382,3.84,41020,,,,,,,,,,,,,,,,,,99999,99999,99999,99999,99999,99999,99999,99999,99999,99999,99999,99999
34:08:40,1510532520,2017-11-13T00:22:02,0.748,1587.9,9.76,7.13,11.27,835.140,2051.790,105.933334,39.51,2.5243,355,23703,1.88783,3.84,41016,,,,,,,,,,,,,,,,,,99999,99999,99999,99999,99999,99999,99999,99999,99999,99999,99999,99999
34:09:10,1510532550,2017-11-13T00:22:32,0.749,1588.3,9.75,7.13,11.19,835.190,2051.790,105.683334,39.24,2.5244,355,23704,1.89023,3.84,41011,,,,,,,,,,,,,,,,,,99999,99999,99999,99999,99999,99999,99999,99999,99999,99999,99999,99999
34:09:40,1510532580,2017-11-13T00:23:02,0.754,1588.7,9.75,7.10,11.21,835.080,2051.790,107.083336,39.33,2.5244,355,23704,1.90314,3.84,41006,,,,,,,,,,,,,,,,,,99999,99999,99999,99999,99999,99999,99999,99999,99999,99999,99999,99999
34:10:10,1510532610,2017-11-13T00:23:32,0.752,1589.0,9.74,7.08,11.19,835.140,2051.730,107.400002,39.30,2.5244,355,23703,1.89743,3.84,41001,,,,,,,,,,,,,,,,,,99999,99999,99999,99999,99999,99999,99999,99999,99999,99999,99999,99999
34:10:40,1510532640,2017-11-13T00:24:02,0.755,1589.4,9.74,7.08,11.23,835.110,2051.730,108.516670,39.18,2.5244,355,23701,1.90645,3.84,40997,,,,,,,,,,,,,,,,,,99999,99999,99999,99999,99999,99999,99999,99999,99999,99999,99999,99999
34:11:10,1510532670,2017-11-13T00:24:32,0.754,1589.8,9.73,7.09,11.21,835.170,2051.670,106.766670,39.08,2.5244,355,23704,1.90404,3.84,40992,,,,,,,,,,,,,,,,,,99999,99999,99999,99999,99999,99999,99999,99999,99999,99999,99999,99999
34:11:40,1510532700,2017-11-13T00:25:02,0.748,1590.2,9.71,7.06,11.16,835.200,2051.670,105.533333,39.06,2.5246,355,23701,1.88963,3.84,40987,,,,,,,,,,,,,,,,,,99999,99999,99999,99999,99999,99999,99999,99999,99999,99999,99999,99999
34:12:10,1510532730,2017-11-13T00:25:32,0.753,1590.5,9.70,7.07,11.19,835.200,2051.560,107.983330,39.29,2.5246,355,23698,1.90133,3.84,40983,,,,,,,,,,,,,,,,,,99999,99999,99999,99999,99999,99999,99999,99999,99999,99999,99999,99999
34:12:40,1510532760,2017-11-13T00:26:02,0.750,1590.9,9.69,7.07,11.15,835.230,2051.500,106.199997,39.35,2.5246,355,23699,1.89322,3.84,40978,,,,,,,,,,,,,,,,,,99999,99999,99999,99999,99999,99999,99999,99999,99999,99999,99999,99999
34:13:10,1510532790,2017-11-13T00:26:32,0.748,1591.3,9.68,7.05,11.15,835.200,2051.500,106.599998,39.55,2.5247,355,23697,1.88933,3.84,40973,,,,,,,,,,,,,,,,,,99999,99999,99999,99999,99999,99999,99999,99999,99999,99999,99999,99999
34:13:40,1510532820,2017-11-13T00:27:02,0.755,1591.7,9.66,7.04,11.15,835.180,2051.460,107.533333,39.44,2.5248,355,23698,1.90555,3.84,40968,,,,,,,,,,,,,,,,,,99999,99999,99999,99999,99999,99999,99999,99999,99999,99999,99999,99999
34:14:10,1510532850,2017-11-13T00:27:32,0.754,1592.0,9.66,6.99,11.13,835.230,2051.460,106.349998,39.57,2.5248,355,23700,1.90314,3.84,40964,,,,,,,,,,,,,,,,,,99999,99999,99999,99999,99999,99999,99999,99999,99999,99999,99999,99999
34:14:40,1510532880,2017-11-13T00:28:02,0.752,1592.4,9.64,7.03,11.11,835.210,2051.400,106.516670,39.63,2.5249,355,23699,1.89833,3.84,40959,,,,,,,,,,,,,,,,,,99999,99999,99999,99999,99999,99999,99999,99999,99999,99999,99999,99999
34:15:10,1510532910,2017-11-13T00:28:32,0.749,1592.8,9.64,7.01,11.09,835.260,2051.400,105.750000,39.79,2.5249,355,23699,1.89083,3.84,40954,,,,,,,,,,,,,,,,,,99999,99999,99999,99999,99999,99999,99999,99999,99999,99999,99999,99999
34:15:40,1510532940,2017-11-13T00:29:02,0.749,1593.2,9.63,6.97,11.10,835.170,2051.330,106.633331,39.63,2.5249,355,23698,1.89173,3.84,40950,,,,,,,,,,,,,,,,,,99999,99999,99999,99999,99999,99999,99999,99999,99999,99999,99999,99999
34:16:10,1510532970,2017-11-13T00:29:32,0.754,1593.5,9.62,6.97,11.10,835.240,2051.330,106.583336,39.65,2.5250,355,23696,1.90344,3.84,40945,,,,,,,,,,,,,,,,,,99999,99999,99999,99999,99999,99999,99999,99999,99999,99999,99999,99999
34:16:40,1510533000,2017-11-13T00:30:02,0.749,1593.9,9.60,6.94,11.06,835.170,2051.290,106.883331,39.69,2.5251,355,23695,1.89143,3.84,40940,,,,,,,,,,,,,,,,,,99999,99999,99999,99999,99999,99999,99999,99999,99999,99999,99999,99999
34:17:10,1510533030,2017-11-13T00:30:32,0.752,1594.3,9.58,6.92,11.06,835.180,2051.230,107.199997,39.66,2.5252,355,23695,1.90013,3.84,40935,,,,,,,,,,,,,,,,,,99999,99999,99999,99999,99999,99999,99999,99999,99999,99999,99999,99999
34:17:40,1510533060,2017-11-13T00:31:02,0.749,1594.7,9.57,6.93,11.05,835.180,2051.130,106.983330,39.82,2.5252,355,23693,1.89113,3.84,40931,,,,,,,,,,,,,,,,,,99999,99999,99999,99999,99999,99999,99999,99999,99999,99999,99999,99999
34:18:10,1510533090,2017-11-13T00:31:32,0.747,1595.0,9.55,6.91,11.03,835.230,2051.060,106.383331,39.98,2.5253,355,23692,1.88753,3.84,40926,,,,,,,,,,,,,,,,,,99999,99999,99999,99999,99999,99999,99999,99999,99999,99999,99999,99999
34:18:40,1510533120,2017-11-13T00:32:02,0.751,1595.4,9.54,6.88,11.00,835.240,2051.000,105.650002,39.91,2.5253,355,23697,1.89653,3.84,40921,,,,,,,,,,,,,,,,,,99999,99999,99999,99999,99999,99999,99999,99999,99999,99999,99999,99999
34:19:10,1510533150,2017-11-13T00:32:32,0.749,1595.8,9.52,6.86,10.98,835.160,2050.960,105.816666,39.92,2.5254,355,23694,1.89083,3.84,40916,,,,,,,,,,,,,,,,,,99999,99999,99999,99999,99999,99999,99999,99999,99999,99999,99999,99999
34:19:40,1510533180,2017-11-13T00:33:02,0.749,1596.2,9.48,6.84,10.97,835.180,2050.830,105.783333,39.70,2.5256,355,23694,1.89173,3.84,40912,,,,,,,,,,,,,,,,,,99999,99999,99999,99999,99999,99999,99999,99999,99999,99999,99999,99999
34:20:10,1510533210,2017-11-13T00:33:32,0.748,1596.5,9.47,6.81,10.95,835.070,2050.830,105.866669,39.80,2.5257,355,23690,1.88933,3.84,40907,,,,,,,,,,,,,,,,,,99999,99999,99999,99999,99999,99999,99999,99999,99999,99999,99999,99999
34:20:40,1510533240,2017-11-13T00:34:02,0.751,1596.9,9.45,6.82,10.92,835.180,2050.770,107.433334,39.52,2.5259,355,23692,1.89683,3.84,40902,,,,,,,,,,,,,,,,,,99999,99999,99999,99999,99999,99999,99999,99999,99999,99999,99999,99999
34:21:10,1510533270,2017-11-13T00:34:32,0.747,1597.3,9.42,6.81,10.89,835.130,2050.610,105.966667,39.52,2.5259,355,23693,1.88574,3.84,40898,,,,,,,,,,,,,,,,,,99999,99999,99999,99999,99999,99999,99999,99999,99999,99999,99999,99999
34:21:40,1510533300,2017-11-13T00:35:02,0.752,1597.7,9.41,6.79,10.89,835.160,2050.560,106.333336,39.53,2.5260,355,23691,1.89923,3.84,40893,,,,,,,,,,,,,,,,,,99999,99999,99999,99999,99999,99999,99999,99999,99999,99999,99999,99999
34:22:10,1510533330,2017-11-13T00:35:32,0.746,1598.0,9.41,6.75,10.88,835.130,2050.560,105.283333,39.42,2.5260,355,23692,1.88394,3.84,40888,,,,,,,,,,,,,,,,,,99999,99999,99999,99999,99999,99999,99999,99999,99999,99999,99999,99999
34:22:40,1510533360,2017-11-13T00:36:02,0.751,1598.4,9.40,6.75,10.88,835.110,2050.500,107.316666,39.50,2.5260,355,23692,1.89623,3.84,40883,,,,,,,,,,,,,,,,,,99999,99999,99999,99999,99999,99999,99999,99999,99999,99999,99999,99999
34:23:10,1510533390,2017-11-13T00:36:32,0.746,1598.8,9.38,6.73,10.82,835.110,2050.500,105.000000,39.25,2.5262,355,23692,1.88334,3.84,40879,,,,,,,,,,,,,,,,,,99999,99999,99999,99999,99999,99999,99999,99999,99999,99999,99999,99999
34:23:40,1510533420,2017-11-13T00:37:02,0.750,1599.2,9.37,6.71,10.82,835.170,2050.440,105.666664,39.40,2.5262,355,23690,1.89382,3.84,40874,,,,,,,,,,,,,,,,,,99999,99999,99999,99999,99999,99999,99999,99999,99999,99999,99999,99999
34:24:10,1510533450,2017-11-13T00:37:32,0.752,1599.5,9.36,6.73,10.84,835.040,2050.400,107.516670,39.94,2.5262,355,23688,1.90043,3.84,40869,,,,,,,,,,,,,,,,,,99999,99999,99999,99999,99999,99999,99999,99999,99999,99999,99999,99999
34:24:40,1510533480,2017-11-13T00:38:02,0.750,1599.9,9.35,6.70,10.81,835.070,2050.400,105.599998,39.74,2.5263,355,23691,1.89532,3.84,40865,,,,,,,,,,,,,,,,,,99999,99999,99999,99999,99999,99999,99999,99999,99999,99999,99999,99999
34:25:10,1510533510,2017-11-13T00:38:32,0.746,1600.3,9.34,6.69,10.84,835.100,2050.400,105.433334,39.38,2.5264,355,23691,1.88514,3.84,40860,,,,,,,,,,,,,,,,,,99999,99999,99999,99999,99999,99999,99999,99999,99999,99999,99999,99999
34:25:40,1510533540,2017-11-13T00:39:02,0.745,1600.7,9.34,6.68,10.77,835.100,2050.400,105.466667,39.22,2.5264,355,23688,1.88185,3.84,40855,,,,,,,,,,,,,,,,,,99999,99999,99999,99999,99999,99999,99999,99999,99999,99999,99999,99999
34:26:10,1510533570,2017-11-13T00:39:32,0.753,1601.0,9.32,6.71,10.80,835.000,2050.330,106.800003,39.14,2.5265,355,23688,1.90344,3.84,40850,,,,,,,,,,,,,,,,,,99999,99999,99999,99999,99999,99999,99999,99999,99999,99999,99999,99999
34:26:40,1510533600,2017-11-13T00:40:02,0.747,1601.4,9.32,6.65,10.76,835.100,2050.330,106.516670,39.25,2.5265,355,23686,1.88693,3.84,40846,,,,,,,,,,,,,,,,,,99999,99999,99999,99999,99999,99999,99999,99999,99999,99999,99999,99999
34:27:10,1510533630,2017-11-13T00:40:32,0.745,1601.8,9.31,6.66,10.77,835.180,2050.230,105.266670,39.94,2.5264,355,23687,1.88245,3.84,40841,,,,,,,,,,,,,,,,,,99999,99999,99999,99999,99999,99999,99999,99999,99999,99999,99999,99999
34:27:40,1510533660,2017-11-13T00:41:02,0.753,1602.2,9.31,6.63,10.81,835.100,2050.230,107.199997,40.03,2.5264,355,23688,1.90344,3.84,40836,,,,,,,,,,,,,,,,,,99999,99999,99999,99999,99999,99999,99999,99999,99999,99999,99999,99999
34:28:10,1510533690,2017-11-13T00:41:32,0.752,1602.5,9.29,6.63,10.76,835.160,2050.160,106.616669,39.86,2.5265,355,23686,1.90103,3.84,40832,,,,,,,,,,,,,,,,,,99999,99999,99999,99999,99999,99999,99999,99999,99999,99999,99999,99999
34:28:40,1510533720,2017-11-13T00:42:02,0.751,1602.9,9.28,6.63,10.73,835.160,2050.110,107.133331,39.71,2.5266,355,23687,1.89773,3.84,40827,,,,,,,,,,,,,,,,,,99999,99999,99999,99999,99999,99999,99999,99999,99999,99999,99999,99999
34:29:10,1510533750,2017-11-13T00:42:32,0.750,1603.3,9.27,6.61,10.74,835.110,2050.110,105.966667,39.76,2.5267,355,23686,1.89532,3.84,40822,,,,,,,,,,,,,,,,,,99999,99999,99999,99999,99999,99999,99999,99999,99999,99999,99999,99999
34:29:40,1510533780,2017-11-13T00:43:02,0.749,1603.7,9.27,6.59,10.73,835.190,2050.110,106.099998,39.79,2.5267,355,23685,1.89233,3.84,40817,,,,,,,,,,,,,,,,,,99999,99999,99999,99999,99999,99999,99999,99999,99999,99999,99999,99999
34:30:10,1510533810,2017-11-13T00:43:32,0.752,1604.0,9.27,6.62,10.71,835.140,2050.110,108.833336,40.22,2.5266,355,23687,1.90043,3.84,40813,,,,,,,,,,,,,,,,,,99999,99999,99999,99999,99999,99999,99999,99999,99999,99999,99999,99999
34:30:40,1510533840,2017-11-13T00:44:02,0.746,1604.4,9.26,6.60,10.76,835.140,2050.060,104.633331,40.25,2.5267,355,23687,1.88364,3.84,40808,,,,,,,,,,,,,,,,,,99999,99999,99999,99999,99999,99999,99999,99999,99999,99999,99999,99999
34:31:10,1510533870,2017-11-13T00:44:32,0.746,1604.8,9.25,6.60,10.73,835.090,2050.060,106.349998,40.05,2.5268,355,23685,1.88514,3.84,40803,,,,,,,,,,,,,,,,,,99999,99999,99999,99999,99999,99999,99999,99999,99999,99999,99999,99999
34:31:40,1510533900,2017-11-13T00:45:02,0.745,1605.2,9.24,6.57,10.71,835.120,2050.000,105.833336,39.91,2.5268,355,23685,1.88215,3.84,40799,,,,,,,,,,,,,,,,,,99999,99999,99999,99999,99999,99999,99999,99999,99999,99999,99999,99999
34:32:10,1510533930,2017-11-13T00:45:32,0.750,1605.5,9.23,6.56,10.68,835.100,2049.940,105.566666,39.85,2.5268,355,23685,1.89563,3.84,40794,,,,,,,,,,,,,,,,,,99999,99999,99999,99999,99999,99999,99999,99999,99999,99999,99999,99999
34:32:40,1510533960,2017-11-13T00:46:02,0.746,1605.9,9.21,6.57,10.65,835.050,2049.940,106.116669,39.87,2.5270,355,23684,1.88454,3.84,40789,,,,,,,,,,,,,,,,,,99999,99999,99999,99999,99999,99999,99999,99999,99999,99999,99999,99999
34:33:10,1510533990,2017-11-13T00:46:32,0.751,1606.3,9.21,6.55,10.69,835.130,2049.940,107.916664,39.78,2.5270,355,23686,1.89863,3.84,40784,,,,,,,,,,,,,,,,,,99999,99999,99999,99999,99999,99999,99999,99999,99999,99999,99999,99999
34:33:40,1510534020,2017-11-13T00:47:02,0.750,1606.7,9.22,6.54,10.68,835.100,2049.940,106.016670,39.77,2.5269,355,23685,1.89473,3.84,40780,,,,,,,,,,,,,,,,,,99999,99999,99999,99999,99999,99999,99999,99999,99999,99999,99999,99999
34:34:10,1510534050,2017-11-13T00:47:32,0.746,1607.0,9.20,6.53,10.66,835.050,2049.890,104.533333,39.72,2.5270,355,23685,1.88394,3.84,40775,,,,,,,,,,,,,,,,,,99999,99999,99999,99999,99999,99999,99999,99999,99999,99999,99999,99999
34:34:40,1510534080,2017-11-13T00:48:02,0.746,1607.4,9.20,6.52,10.65,835.030,2049.890,105.266670,39.57,2.5270,355,23686,1.88424,3.84,40770,,,,,,,,,,,,,,,,,,99999,99999,99999,99999,99999,99999,99999,99999,99999,99999,99999,99999
34:35:10,1510534110,2017-11-13T00:48:32,0.746,1607.8,9.20,6.50,10.65,835.050,2049.890,105.300003,39.75,2.5270,355,23685,1.88424,3.84,40766,,,,,,,,,,,,,,,,,,99999,99999,99999,99999,99999,99999,99999,99999,99999,99999,99999,99999
34:35:40,1510534140,2017-11-13T00:49:02,0.746,1608.2,9.19,6.50,10.63,835.030,2049.770,104.949997,39.58,2.5270,355,23686,1.88574,3.84,40761,,,,,,,,,,,,,,,,,,99999,99999,99999,99999,99999,99999,99999,99999,99999,99999,99999,99999
34:36:10,1510534170,2017-11-13T00:49:32,0.752,1608.5,9.19,6.52,10.61,835.030,2049.770,106.383331,39.54,2.5270,355,23683,1.90133,3.84,40756,,,,,,,,,,,,,,,,,,99999,99999,99999,99999,99999,99999,99999,99999,99999,99999,99999,99999
34:36:40,1510534200,2017-11-13T00:50:02,0.746,1608.9,9.18,6.50,10.63,835.000,2049.770,106.400002,39.52,2.5271,355,23683,1.88544,3.84,40751,,,,,,,,,,,,,,,,,,99999,99999,99999,99999,99999,99999,99999,99999,99999,99999,99999,99999
34:37:10,1510534230,2017-11-13T00:50:32,0.747,1609.3,9.18,6.51,10.61,835.030,2049.770,104.966667,39.50,2.5271,355,23682,1.88723,3.84,40747,,,,,,,,,,,,,,,,,,99999,99999,99999,99999,99999,99999,99999,99999,99999,99999,99999,99999
34:37:40,1510534260,2017-11-13T00:51:02,0.752,1609.7,9.19,6.51,10.61,835.060,2049.770,107.250000,39.49,2.5270,355,23681,1.89983,3.84,40742,,,,,,,,,,,,,,,,,,99999,99999,99999,99999,99999,99999,99999,99999,99999,99999,99999,99999
34:38:10,1510534290,2017-11-13T00:51:32,0.748,1610.0,9.19,6.48,10.65,835.060,2049.770,106.449997,39.55,2.5270,355,23681,1.89023,3.84,40737,,,,,,,,,,,,,,,,,,99999,99999,99999,99999,99999,99999,99999,99999,99999,99999,99999,99999
34:38:40,1510534320,2017-11-13T00:52:02,0.751,1610.4,9.18,6.51,10.59,835.030,2049.770,107.366669,39.61,2.5271,355,23682,1.89893,3.84,40732,,,,,,,,,,,,,,,,,,99999,99999,99999,99999,99999,99999,99999,99999,99999,99999,99999,99999
34:39:10,1510534350,2017-11-13T00:52:32,0.750,1610.8,9.18,6.48,10.63,835.060,2049.770,105.983330,39.54,2.5271,355,23686,1.89593,3.84,40728,,,,,,,,,,,,,,,,,,99999,99999,99999,99999,99999,99999,99999,99999,99999,99999,99999,99999
34:39:40,1510534380,2017-11-13T00:53:02,0.745,1611.2,9.18,6.46,10.61,835.060,2049.770,105.633331,39.59,2.5271,355,23683,1.88245,3.84,40723,,,,,,,,,,,,,,,,,,99999,99999,99999,99999,99999,99999,99999,99999,99999,99999,99999,99999
34:40:10,1510534410,2017-11-13T00:53:32,0.752,1611.5,9.17,6.45,10.63,835.010,2049.730,106.766670,39.71,2.5271,355,23683,1.90073,3.84,40718,,,,,,,,,,,,,,,,,,99999,99999,99999,99999,99999,99999,99999,99999,99999,99999,99999,99999
34:40:40,1510534440,2017-11-13T00:54:02,0.749,1611.9,9.16,6.48,10.59,834.950,2049.730,105.533333,39.74,2.5272,355,23682,1.89382,3.84,40714,,,,,,,,,,,,,,,,,,99999,99999,99999,99999,99999,99999,99999,99999,99999,99999,99999,99999
34:41:10,1510534470,2017-11-13T00:54:32,0.746,1612.3,9.17,6.49,10.60,834.980,2049.730,104.616669,39.81,2.5271,355,23681,1.88604,3.84,40709,,,,,,,,,,,,,,,,,,99999,99999,99999,99999,99999,99999,99999,99999,99999,99999,99999,99999
34:41:40,1510534500,2017-11-13T00:55:02,0.745,1612.7,9.16,6.46,10.63,835.010,2049.730,105.166664,39.79,2.5272,355,23683,1.88245,3.84,40704,,,,,,,,,,,,,,,,,,99999,99999,99999,99999,99999,99999,99999,99999,99999,99999,99999,99999
34:42:10,1510534530,2017-11-13T00:55:32,0.745,1613.0,9.14,6.43,10.59,834.960,2049.660,105.816666,39.87,2.5273,355,23681,1.88304,3.84,40699,,,,,,,,,,,,,,,,,,99999,99999,99999,99999,99999,99999,99999,99999,99999,99999,99999,99999
34:42:40,1510534560,2017-11-13T00:56:02,0.745,1613.4,9.14,6.45,10.60,835.040,2049.660,104.783333,39.75,2.5273,355,23680,1.88394,3.84,40695,,,,,,,,,,,,,,,,,,99999,99999,99999,99999,99999,99999,99999,99999,99999,99999,99999,99999
34:43:10,1510534590,2017-11-13T00:56:32,0.744,1613.8,9.14,6.42,10.59,835.010,2049.660,104.449997,39.69,2.5273,355,23680,1.88155,3.84,40690,,,,,,,,,,,,,,,,,,99999,99999,99999,99999,99999,99999,99999,99999,99999,99999,99999,99999
34:43:40,1510534620,2017-11-13T00:57:02,0.744,1614.2,9.13,6.44,10.53,835.010,2049.610,104.250000,39.61,2.5273,355,23679,1.88155,3.84,40685,,,,,,,,,,,,,,,,,,99999,99999,99999,99999,99999,99999,99999,99999,99999,99999,99999,99999
34:44:10,1510534650,2017-11-13T00:57:32,0.746,1614.5,9.12,6.42,10.59,835.040,2049.610,105.216667,39.57,2.5274,355,23682,1.88544,3.84,40681,,,,,,,,,,,,,,,,,,99999,99999,99999,99999,99999,99999,99999,99999,99999,99999,99999,99999
34:44:40,1510534680,2017-11-13T00:58:02,0.747,1614.9,9.11,6.42,10.53,834.970,2049.540,105.449997,39.58,2.5274,355,23680,1.88903,3.84,40676,,,,,,,,,,,,,,,,,,99999,99999,99999,99999,99999,99999,99999,99999,99999,99999,99999,99999
34:45:10,1510534710,2017-11-13T00:58:32,0.744,1615.3,9.09,6.38,10.55,834.970,2049.500,104.066666,39.67,2.5276,355,23678,1.88035,3.84,40671,,,,,,,,,,,,,,,,,,99999,99999,99999,99999,99999,99999,99999,99999,99999,99999,99999,99999
34:45:40,1510534740,2017-11-13T00:59:02,0.748,1615.7,9.09,6.36,10.56,834.970,2049.500,105.383331,39.67,2.5276,355,23681,1.89143,3.84,40666,,,,,,,,,,,,,,,,,,99999,99999,99999,99999,99999,99999,99999,99999,99999,99999,99999,99999
34:46:10,1510534770,2017-11-13T00:59:32,0.749,1616.0,9.08,6.36,10.55,834.980,2049.500,106.550003,39.64,2.5276,355,23677,1.89382,3.84,40662,,,,,,,,,,,,,,,,,,99999,99999,99999,99999,99999,99999,99999,99999,99999,99999,99999,99999
34:46:40,1510534800,2017-11-13T01:00:02,0.749,1616.4,9.08,6.36,10.52,835.030,2049.500,105.449997,39.64,2.5276,355,23680,1.89203,3.84,40657,,,,,,,,,,,,,,,,,,99999,99999,99999,99999,99999,99999,99999,99999,99999,99999,99999,99999
34:47:10,1510534830,2017-11-13T01:00:32,0.744,1616.8,9.07,6.34,10.52,835.060,2049.440,104.366669,39.62,2.5277,355,23678,1.88006,3.84,40652,,,,,,,,,,,,,,,,,,99999,99999,99999,99999,99999,99999,99999,99999,99999,99999,99999,99999
34:47:40,1510534860,2017-11-13T01:01:02,0.744,1617.2,9.05,6.35,10.48,835.060,2049.330,104.250000,39.83,2.5277,355,23676,1.87976,3.84,40648,,,,,,,,,,,,,,,,,,99999,99999,99999,99999,99999,99999,99999,99999,99999,99999,99999,99999
34:48:10,1510534890,2017-11-13T01:01:32,0.743,1617.5,9.05,6.31,10.48,834.950,2049.330,104.633331,39.89,2.5277,355,23675,1.87707,3.83,40643,,,,,,,,,,,,,,,,,,99999,99999,99999,99999,99999,99999,99999,99999,99999,99999,99999,99999
34:48:40,1510534920,2017-11-13T01:02:02,0.749,1617.9,9.04,6.29,10.48,835.010,2049.270,105.199997,40.24,2.5277,355,23679,1.89322,3.84,40638,,,,,,,,,,,,,,,,,,99999,99999,99999,99999,99999,99999,99999,99999,99999,99999,99999,99999
34:49:10,1510534950,2017-11-13T01:02:32,0.744,1618.3,9.03,6.32,10.47,835.040,2049.270,103.383331,40.06,2.5278,355,23676,1.88185,3.84,40633,,,,,,,,,,,,,,,,,,99999,99999,99999,99999,99999,99999,99999,99999,99999,99999,99999,99999
34:49:40,1510534980,2017-11-13T01:03:02,0.743,1618.7,9.02,6.31,10.47,834.990,2049.210,104.533333,39.37,2.5278,355,23677,1.87797,3.84,40629,,,,,,,,,,,,,,,,,,99999,99999,99999,99999,99999,99999,99999,99999,99999,99999,99999,99999
34:50:10,1510535010,2017-11-13T01:03:32,0.746,1619.0,9.01,6.29,10.48,834.940,2049.210,104.583336,39.39,2.5279,355,23677,1.88663,3.84,40624,,,,,,,,,,,,,,,,,,99999,99999,99999,99999,99999,99999,99999,99999,99999,99999,99999,99999
34:50:40,1510535040,2017-11-13T01:04:02,0.745,1619.4,9.01,6.28,10.44,835.020,2049.210,104.716667,39.64,2.5279,355,23678,1.88304,3.84,40619,,,,,,,,,,,,,,,,,,99999,99999,99999,99999,99999,99999,99999,99999,99999,99999,99999,99999
34:51:10,1510535070,2017-11-13T01:04:32,0.743,1619.8,9.01,6.30,10.45,834.990,2049.210,104.316666,39.43,2.5279,355,23677,1.87886,3.84,40615,,,,,,,,,,,,,,,,,,99999,99999,99999,99999,99999,99999,99999,99999,99999,99999,99999,99999
34:51:40,1510535100,2017-11-13T01:05:02,0.743,1620.1,9.01,6.31,10.47,834.990,2049.210,104.416664,39.42,2.5279,355,23675,1.87797,3.83,40610,,,,,,,,,,,,,,,,,,99999,99999,99999,99999,99999,99999,99999,99999,99999,99999,99999,99999
34:52:10,1510535130,2017-11-13T01:05:32,0.748,1620.5,9.01,6.28,10.44,834.960,2049.210,105.550003,39.45,2.5279,355,23675,1.89173,3.83,40605,,,,,,,,,,,,,,,,,,99999,99999,99999,99999,99999,99999,99999,99999,99999,99999,99999,99999
34:52:40,1510535160,2017-11-13T01:06:02,0.750,1620.9,9.00,6.28,10.45,834.960,2049.160,106.666664,39.55,2.5280,355,23675,1.89532,3.83,40600,,,,,,,,,,,,,,,,,,99999,99999,99999,99999,99999,99999,99999,99999,99999,99999,99999,99999
34:53:10,1510535190,2017-11-13T01:06:32,0.745,1621.3,9.00,6.27,10.42,834.940,2049.160,105.416664,39.89,2.5279,355,23673,1.88275,3.83,40596,,,,,,,,,,,,,,,,,,99999,99999,99999,99999,99999,99999,99999,99999,99999,99999,99999,99999
34:53:40,1510535220,2017-11-13T01:07:02,0.744,1621.6,8.99,6.27,10.40,834.940,2049.160,104.533333,39.67,2.5280,355,23677,1.88155,3.83,40591,,,,,,,,,,,,,,,,,,99999,99999,99999,99999,99999,99999,99999,99999,99999,99999,99999,99999
34:54:10,1510535250,2017-11-13T01:07:32,0.750,1622.0,8.97,6.23,10.44,834.970,2049.100,106.099998,39.62,2.5282,355,23675,1.89563,3.83,40586,,,,,,,,,,,,,,,,,,99999,99999,99999,99999,99999,99999,99999,99999,99999,99999,99999,99999
34:54:40,1510535280,2017-11-13T01:08:02,0.750,1622.4,8.97,6.25,10.40,835.000,2049.100,106.283333,39.68,2.5281,355,23675,1.89653,3.83,40582,,,,,,,,,,,,,,,,,,99999,99999,99999,99999,99999,99999,99999,99999,99999,99999,99999,99999
34:55:10,1510535310,2017-11-13T01:08:32,0.748,1622.8,8.97,6.22,10.40,834.950,2049.100,106.699997,39.60,2.5282,355,23674,1.89113,3.83,40577,,,,,,,,,,,,,,,,,,99999,99999,99999,99999,99999,99999,99999,99999,99999,99999,99999,99999
34:55:40,1510535340,2017-11-13T01:09:02,0.749,1623.1,8.96,6.26,10.40,835.000,2049.040,105.050003,39.60,2.5282,355,23674,1.89292,3.83,40572,,,,,,,,,,,,,,,,,,99999,99999,99999,99999,99999,99999,99999,99999,99999,99999,99999,99999
34:56:10,1510535370,2017-11-13T01:09:32,0.743,1623.5,8.95,6.22,10.40,835.000,2049.040,103.816666,39.64,2.5283,355,23673,1.87797,3.83,40567,,,,,,,,,,,,,,,,,,99999,99999,99999,99999,99999,99999,99999,99999,99999,99999,99999,99999
34:56:40,1510535400,2017-11-13T01:10:02,0.750,1623.9,8.94,6.23,10.39,834.980,2048.870,107.516670,39.36,2.5282,355,23672,1.89683,3.83,40563,,,,,,,,,,,,,,,,,,99999,99999,99999,99999,99999,99999,99999,99999,99999,99999,99999,99999
34:57:10,1510535430,2017-11-13T01:10:32,0.751,1624.3,8.93,6.23,10.39,835.040,2048.870,106.333336,39.64,2.5282,355,23671,1.89833,3.83,40558,,,,,,,,,,,,,,,,,,99999,99999,99999,99999,99999,99999,99999,99999,99999,99999,99999,99999
34:57:40,1510535460,2017-11-13T01:11:02,0.745,1624.6,8.92,6.22,10.36,835.010,2048.870,105.949997,39.63,2.5283,355,23673,1.88484,3.83,40553,,,,,,,,,,,,,,,,,,99999,99999,99999,99999,99999,99999,99999,99999,99999,99999,99999,99999
34:58:10,1510535490,2017-11-13T01:11:32,0.749,1625.0,8.91,6.19,10.36,835.040,2048.830,105.533333,40.03,2.5283,355,23673,1.89292,3.83,40549,,,,,,,,,,,,,,,,,,99999,99999,99999,99999,99999,99999,99999,99999,99999,99999,99999,99999
34:58:40,1510535520,2017-11-13T01:12:02,0.744,1625.4,8.90,6.15,10.32,835.040,2048.770,105.250000,39.67,2.5284,355,23673,1.88065,3.83,40544,,,,,,,,,,,,,,,,,,99999,99999,99999,99999,99999,99999,99999,99999,99999,99999,99999,99999
34:59:10,1510535550,2017-11-13T01:12:32,0.743,1625.7,8.89,6.18,10.34,835.040,2048.770,103.666664,39.55,2.5285,355,23670,1.87826,3.83,40539,,,,,,,,,,,,,,,,,,99999,99999,99999,99999,99999,99999,99999,99999,99999,99999,99999,99999
34:59:40,1510535580,2017-11-13T01:13:02,0.750,1626.1,8.87,6.15,10.32,835.070,2048.710,106.316666,39.84,2.5286,355,23671,1.89532,3.83,40534,,,,,,,,,,,,,,,,,,99999,99999,99999,99999,99999,99999,99999,99999,99999,99999,99999,99999
35:00:10,1510535610,2017-11-13T01:13:32,0.743,1626.5,8.86,6.17,10.30,835.100,2048.660,104.916664,39.56,2.5286,355,23672,1.87797,3.83,40530,,,,,,,,,,,,,,,,,,99999,99999,99999,99999,99999,99999,99999,99999,99999,99999,99999,99999
35:00:40,1510535640,2017-11-13T01:14:02,0.749,1626.9,8.85,6.16,10.27,835.080,2048.660,106.366669,40.16,2.5287,355,23669,1.89353,3.83,40525,,,,,,,,,,,,,,,,,,99999,99999,99999,99999,99999,99999,99999,99999,99999,99999,99999,99999
35:01:10,1510535670,2017-11-13T01:14:32,0.750,1627.2,8.84,6.14,10.27,835.050,2048.660,107.116669,40.13,2.5288,355,23670,1.89563,3.83,40520,,,,,,,,,,,,,,,,,,99999,99999,99999,99999,99999,99999,99999,99999,99999,99999,99999,99999
35:01:40,1510535700,2017-11-13T01:15:02,0.743,1627.6,8.83,6.14,10.26,835.110,2048.600,104.516670,39.87,2.5288,355,23667,1.87797,3.83,40516,,,,,,,,,,,,,,,,,,99999,99999,99999,99999,99999,99999,99999,99999,99999,99999,99999,99999
35:02:10,1510535730,2017-11-13T01:15:32,0.749,1628.0,8.81,6.12,10.26,835.140,2048.540,106.083336,39.77,2.5289,355,23670,1.89532,3.83,40511,,,,,,,,,,,,,,,,,,99999,99999,99999,99999,99999,99999,99999,99999,99999,99999,99999,99999
35:02:40,1510535760,2017-11-13T01:16:02,0.748,1628.4,8.80,6.11,10.26,835.040,2048.440,105.083336,39.86,2.5289,355,23671,1.89203,3.83,40506,,,,,,,,,,,,,,,,,,99999,99999,99999,99999,99999,99999,99999,99999,99999,99999,99999,99999
35:03:10,1510535790,2017-11-13T01:16:32,0.749,1628.7,8.79,6.08,10.24,835.010,2048.440,106.333336,40.01,2.5290,355,23670,1.89442,3.83,40501,,,,,,,,,,,,,,,,,,99999,99999,99999,99999,99999,99999,99999,99999,99999,99999,99999,99999
35:03:40,1510535820,2017-11-13T01:17:02,0.746,1629.1,8.78,6.09,10.24,835.120,2048.370,103.933334,39.79,2.5290,355,23669,1.88544,3.83,40497,,,,,,,,,,,,,,,,,,99999,99999,99999,99999,99999,99999,99999,99999,99999,99999,99999,99999
35:04:10,1510535850,2017-11-13T01:17:32,0.742,1629.5,8.76,6.08,10.23,835.070,2048.330,103.699997,39.67,2.5291,355,23666,1.87647,3.83,40492,,,,,,,,,,,,,,,,,,99999,99999,99999,99999,99999,99999,99999,99999,99999,99999,99999,99999
35:04:40,1510535880,2017-11-13T01:18:02,0.749,1629.8,8.74,6.07,10.21,835.080,2048.270,106.266670,39.66,2.5292,355,23670,1.89353,3.83,40487,,,,,,,,,,,,,,,,,,99999,99999,99999,99999,99999,99999,99999,99999,99999,99999,99999,99999
35:05:10,1510535910,2017-11-13T01:18:32,0.742,1630.2,8.73,6.05,10.16,835.110,2048.210,104.183334,39.61,2.5292,355,23669,1.87767,3.83,40483,,,,,,,,,,,,,,,,,,99999,99999,99999,99999,99999,99999,99999,99999,99999,99999,99999,99999
35:05:40,1510535940,2017-11-13T01:19:02,0.742,1630.6,8.72,6.05,10.15,835.110,2048.210,103.466667,39.70,2.5293,355,23668,1.87767,3.83,40478,,,,,,,,,,,,,,,,,,99999,99999,99999,99999,99999,99999,99999,99999,99999,99999,99999,99999
35:06:10,1510535970,2017-11-13T01:19:32,0.747,1631.0,8.71,6.05,10.16,835.140,2048.210,105.533333,39.71,2.5294,355,23667,1.89023,3.83,40473,,,,,,,,,,,,,,,,,,99999,99999,99999,99999,99999,99999,99999,99999,99999,99999,99999,99999
35:06:40,1510536000,2017-11-13T01:20:02,0.743,1631.3,8.69,6.02,10.15,835.060,2048.100,105.483330,39.52,2.5295,355,23666,1.87946,3.83,40469,,,,,,,,,,,,,,,,,,99999,99999,99999,99999,99999,99999,99999,99999,99999,99999,99999,99999
35:07:10,1510536030,2017-11-13T01:20:32,0.749,1631.7,8.69,6.02,10.13,835.170,2048.100,106.199997,39.61,2.5295,355,23668,1.89382,3.83,40464,,,,,,,,,,,,,,,,,,99999,99999,99999,99999,99999,99999,99999,99999,99999,99999,99999,99999
35:07:40,1510536060,2017-11-13T01:21:02,0.749,1632.1,8.68,5.99,10.11,835.090,2048.100,105.400002,39.72,2.5296,355,23668,1.89563,3.83,40459,,,,,,,,,,,,,,,,,,99999,99999,99999,99999,99999,99999,99999,99999,99999,99999,99999,99999
35:08:10,1510536090,2017-11-13T01:21:32,0.748,1632.5,8.67,6.01,10.11,835.090,2047.980,104.699997,39.60,2.5295,355,23668,1.89083,3.83,40454,,,,,,,,,,,,,,,,,,99999,99999,99999,99999,99999,99999,99999,99999,99999,99999,99999,99999
35:08:40,1510536120,2017-11-13T01:22:02,0.747,1632.8,8.67,6.02,10.10,835.070,2047.980,104.983330,39.58,2.5295,355,23669,1.88843,3.83,40450,,,,,,,,,,,,,,,,,,99999,99999,99999,99999,99999,99999,99999,99999,99999,99999,99999,99999
35:09:10,1510536150,2017-11-13T01:22:32,0.750,1633.2,8.66,6.00,10.10,835.020,2047.980,106.199997,39.34,2.5296,355,23666,1.89623,3.83,40445,,,,,,,,,,,,,,,,,,99999,99999,99999,99999,99999,99999,99999,99999,99999,99999,99999,99999
35:09:40,1510536180,2017-11-13T01:23:02,0.742,1633.6,8.65,5.97,10.10,835.020,2047.940,104.133331,39.39,2.5296,355,23663,1.87618,3.83,40440,,,,,,,,,,,,,,,,,,99999,99999,99999,99999,99999,99999,99999,99999,99999,99999,99999,99999
35:10:10,1510536210,2017-11-13T01:23:32,0.746,1633.9,8.64,5.98,10.10,835.130,2047.940,104.949997,39.23,2.5297,355,23666,1.88753,3.83,40436,,,,,,,,,,,,,,,,,,99999,99999,99999,99999,99999,99999,99999,99999,99999,99999,99999,99999
35:10:40,1510536240,2017-11-13T01:24:02,0.743,1634.3,8.64,5.95,10.10,835.100,2047.940,104.650002,39.23,2.5297,355,23665,1.88006,3.83,40431,,,,,,,,,,,,,,,,,,99999,99999,99999,99999,99999,99999,99999,99999,99999,99999,99999,99999
35:11:10,1510536270,2017-11-13T01:24:32,0.747,1634.7,8.63,5.94,10.10,835.020,2047.870,104.966667,39.21,2.5298,355,23664,1.88993,3.83,40426,,,,,,,,,,,,,,,,,,99999,99999,99999,99999,99999,99999,99999,99999,99999,99999,99999,99999
35:11:40,1510536300,2017-11-13T01:25:02,0.741,1635.1,8.63,5.93,10.10,835.050,2047.870,103.733330,39.52,2.5297,355,23667,1.87528,3.83,40422,,,,,,,,,,,,,,,,,,99999,99999,99999,99999,99999,99999,99999,99999,99999,99999,99999,99999
35:12:10,1510536330,2017-11-13T01:25:32,0.749,1635.4,8.63,5.95,10.10,835.080,2047.870,105.783333,38.94,2.5298,355,23663,1.89532,3.83,40417,,,,,,,,,,,,,,,,,,99999,99999,99999,99999,99999,99999,99999,99999,99999,99999,99999,99999
35:12:40,1510536360,2017-11-13T01:26:02,0.747,1635.8,8.62,5.95,10.06,835.050,2047.870,105.116669,38.96,2.5299,355,23664,1.89023,3.83,40412,,,,,,,,,,,,,,,,,,99999,99999,99999,99999,99999,99999,99999,99999,99999,99999,99999,99999
35:13:10,1510536390,2017-11-13T01:26:32,0.746,1636.2,8.62,5.95,10.10,835.080,2047.870,105.000000,38.96,2.5299,355,23667,1.88663,3.83,40408,,,,,,,,,,,,,,,,,,99999,99999,99999,99999,99999,99999,99999,99999,99999,99999,99999,99999
35:13:40,1510536420,2017-11-13T01:27:02,0.748,1636.6,8.61,5.93,10.09,835.060,2047.810,104.633331,38.77,2.5299,355,23664,1.89143,3.83,40403,,,,,,,,,,,,,,,,,,99999,99999,99999,99999,99999,99999,99999,99999,99999,99999,99999,99999
35:14:10,1510536450,2017-11-13T01:27:32,0.749,1636.9,8.61,5.93,10.05,835.060,2047.810,105.849998,38.86,2.5299,355,23663,1.89382,3.83,40398,,,,,,,,,,,,,,,,,,99999,99999,99999,99999,99999,99999,99999,99999,99999,99999,99999,99999
35:14:40,1510536480,2017-11-13T01:28:02,0.742,1637.3,8.61,5.92,10.05,834.980,2047.810,104.266670,38.81,2.5299,355,23663,1.87647,3.83,40393,,,,,,,,,,,,,,,,,,99999,99999,99999,99999,99999,99999,99999,99999,99999,99999,99999,99999
35:15:10,1510536510,2017-11-13T01:28:32,0.747,1637.7,8.62,5.90,10.05,835.110,2047.870,105.933334,39.21,2.5298,355,23663,1.89083,3.83,40389,,,,,,,,,,,,,,,,,,99999,99999,99999,99999,99999,99999,99999,99999,99999,99999,99999,99999
35:15:40,1510536540,2017-11-13T01:29:02,0.743,1638.0,8.61,5.90,10.06,835.080,2047.810,104.666664,38.90,2.5299,355,23663,1.87976,3.83,40384,,,,,,,,,,,,,,,,,,99999,99999,99999,99999,99999,99999,99999,99999,99999,99999,99999,99999
35:16:10,1510536570,2017-11-13T01:29:32,0.745,1638.4,8.61,5.91,10.03,835.030,2047.810,104.866669,39.12,2.5299,355,23663,1.88364,3.83,40379,,,,,,,,,,,,,,,,,,99999,99999,99999,99999,99999,99999,99999,99999,99999,99999,99999,99999
35:16:40,1510536600,2017-11-13T01:30:02,0.746,1638.8,8.62,5.91,10.05,835.030,2047.870,105.916664,38.75,2.5299,355,23660,1.88783,3.83,40375,,,,,,,,,,,,,,,,,,99999,99999,99999,99999,99999,99999,99999,99999,99999,99999,99999,99999
35:17:10,1510536630,2017-11-13T01:30:32,0.747,1639.2,8.61,5.88,10.02,834.980,2047.810,105.066666,38.71,2.5299,355,23665,1.89053,3.83,40370,,,,,,,,,,,,,,,,,,99999,99999,99999,99999,99999,99999,99999,99999,99999,99999,99999,99999
35:17:40,1510536660,2017-11-13T01:31:02,0.743,1639.5,8.61,5.89,10.02,834.950,2047.810,103.800003,38.65,2.5299,355,23664,1.88035,3.83,40365,,,,,,,,,,,,,,,,,,99999,99999,99999,99999,99999,99999,99999,99999,99999,99999,99999,99999
35:18:10,1510536690,2017-11-13T01:31:32,0.742,1639.9,8.61,5.89,10.05,834.980,2047.810,104.849998,38.43,2.5299,355,23664,1.87677,3.83,40361,,,,,,,,,,,,,,,,,,99999,99999,99999,99999,99999,99999,99999,99999,99999,99999,99999,99999
35:18:40,1510536720,2017-11-13T01:32:02,0.747,1640.3,8.61,5.88,10.06,835.000,2047.810,105.983330,38.48,2.5299,355,23664,1.88933,3.83,40356,,,,,,,,,,,,,,,,,,99999,99999,99999,99999,99999,99999,99999,99999,99999,99999,99999,99999
35:19:10,1510536750,2017-11-13T01:32:32,0.749,1640.6,8.61,5.87,10.03,834.950,2047.810,106.983330,38.47,2.5299,355,23664,1.89382,3.83,40351,,,,,,,,,,,,,,,,,,99999,99999,99999,99999,99999,99999,99999,99999,99999,99999,99999,99999
35:19:40,1510536780,2017-11-13T01:33:02,0.741,1641.0,8.60,5.88,10.09,835.030,2047.810,104.849998,38.23,2.5300,355,23663,1.87588,3.83,40347,,,,,,,,,,,,,,,,,,99999,99999,99999,99999,99999,99999,99999,99999,99999,99999,99999,99999
35:20:10,1510536810,2017-11-13T01:33:32,0.742,1641.4,8.60,5.88,10.05,834.950,2047.810,104.050003,38.26,2.5300,355,23663,1.87618,3.83,40342,,,,,,,,,,,,,,,,,,99999,99999,99999,99999,99999,99999,99999,99999,99999,99999,99999,99999
35:20:40,1510536840,2017-11-13T01:34:02,0.743,1641.8,8.61,5.88,10.03,834.980,2047.810,103.966667,38.34,2.5299,355,23666,1.87946,3.83,40337,,,,,,,,,,,,,,,,,,99999,99999,99999,99999,99999,99999,99999,99999,99999,99999,99999,99999
35:21:10,1510536870,2017-11-13T01:34:32,0.743,1642.1,8.62,5.90,10.03,834.980,2047.870,104.116669,38.28,2.5299,355,23662,1.87856,3.83,40332,,,,,,,,,,,,,,,,,,99999,99999,99999,99999,99999,99999,99999,99999,99999,99999,99999,99999
35:21:40,1510536900,2017-11-13T01:35:02,0.741,1642.5,8.62,5.88,10.05,834.950,2047.870,104.633331,38.13,2.5299,355,23661,1.87588,3.83,40328,,,,,,,,,,,,,,,,,,99999,99999,99999,99999,99999,99999,99999,99999,99999,99999,99999,99999
35:22:10,1510536930,2017-11-13T01:35:32,0.747,1642.9,8.61,5.87,10.05,834.930,2047.810,106.816666,38.08,2.5299,355,23662,1.89083,3.83,40323,,,,,,,,,,,,,,,,,,99999,99999,99999,99999,99999,99999,99999,99999,99999,99999,99999,99999
35:22:40,1510536960,2017-11-13T01:36:02,0.748,1643.3,8.60,5.86,10.06,834.900,2047.810,106.733330,38.20,2.5300,355,23663,1.89263,3.83,40318,,,,,,,,,,,,,,,,,,99999,99999,99999,99999,99999,99999,99999,99999,99999,99999,99999,99999
35:23:10,1510536990,2017-11-13T01:36:32,0.749,1643.6,8.62,5.85,10.03,834.920,2047.870,104.783333,38.15,2.5299,355,23663,1.89382,3.83,40314,,,,,,,,,,,,,,,,,,99999,99999,99999,99999,99999,99999,99999,99999,99999,99999,99999,99999
35:23:40,1510537020,2017-11-13T01:37:02,0.745,1644.0,8.61,5.87,10.06,834.900,2047.810,104.333336,38.14,2.5299,355,23659,1.88544,3.83,40309,,,,,,,,,,,,,,,,,,99999,99999,99999,99999,99999,99999,99999,99999,99999,99999,99999,99999
35:24:10,1510537050,2017-11-13T01:37:32,0.746,1644.4,8.62,5.85,10.05,834.870,2047.870,105.666664,38.10,2.5299,355,23662,1.88634,3.83,40304,,,,,,,,,,,,,,,,,,99999,99999,99999,99999,99999,99999,99999,99999,99999,99999,99999,99999
35:24:40,1510537080,2017-11-13T01:38:02,0.741,1644.7,8.61,5.84,10.05,834.900,2047.810,104.333336,38.08,2.5299,355,23661,1.87498,3.83,40300,,,,,,,,,,,,,,,,,,99999,99999,99999,99999,99999,99999,99999,99999,99999,99999,99999,99999
35:25:10,1510537110,2017-11-13T01:38:32,0.742,1645.1,8.62,5.85,10.05,834.920,2047.870,103.833336,38.17,2.5299,355,23662,1.87677,3.83,40295,,,,,,,,,,,,,,,,,,99999,99999,99999,99999,99999,99999,99999,99999,99999,99999,99999,99999
35:25:40,1510537140,2017-11-13T01:39:02,0.743,1645.5,8.61,5.84,10.02,834.900,2047.810,104.133331,38.24,2.5299,355,23662,1.88035,3.83,40290,,,,,,,,,,,,,,,,,,99999,99999,99999,99999,99999,99999,99999,99999,99999,99999,99999,99999
35:26:10,1510537170,2017-11-13T01:39:32,0.746,1645.9,8.61,5.84,10.02,834.930,2047.810,103.716667,38.08,2.5299,355,23661,1.88843,3.83,40285,,,,,,,,,,,,,,,,,,99999,99999,99999,99999,99999,99999,99999,99999,99999,99999,99999,99999
35:26:40,1510537200,2017-11-13T01:40:02,0.749,1646.2,8.62,5.84,10.05,834.980,2047.870,106.300003,38.26,2.5299,355,23660,1.89473,3.83,40281,,,,,,,,,,,,,,,,,,99999,99999,99999,99999,99999,99999,99999,99999,99999,99999,99999,99999
35:27:10,1510537230,2017-11-13T01:40:32,0.749,1646.6,8.61,5.83,10.03,834.900,2047.810,106.400002,38.23,2.5299,355,23661,1.89382,3.83,40276,,,,,,,,,,,,,,,,,,99999,99999,99999,99999,99999,99999,99999,99999,99999,99999,99999,99999
35:27:40,1510537260,2017-11-13T01:41:02,0.748,1647.0,8.62,5.85,10.03,834.950,2047.870,105.366669,38.27,2.5299,355,23662,1.89203,3.83,40271,,,,,,,,,,,,,,,,,,99999,99999,99999,99999,99999,99999,99999,99999,99999,99999,99999,99999
35:28:10,1510537290,2017-11-13T01:41:32,0.741,1647.3,8.62,5.85,10.05,834.920,2047.870,104.849998,38.29,2.5299,355,23663,1.87558,3.83,40267,,,,,,,,,,,,,,,,,,99999,99999,99999,99999,99999,99999,99999,99999,99999,99999,99999,99999
35:28:40,1510537320,2017-11-13T01:42:02,0.743,1647.7,8.61,5.82,10.06,834.930,2047.810,103.466667,38.23,2.5299,355,23661,1.87976,3.83,40262,,,,,,,,,,,,,,,,,,99999,99999,99999,99999,99999,99999,99999,99999,99999,99999,99999,99999
35:29:10,1510537350,2017-11-13T01:42:32,0.749,1648.1,8.61,5.83,10.03,834.900,2047.810,106.016670,38.15,2.5299,355,23663,1.89442,3.83,40257,,,,,,,,,,,,,,,,,,99999,99999,99999,99999,99999,99999,99999,99999,99999,99999,99999,99999
35:29:40,1510537380,2017-11-13T01:43:02,0.743,1648.5,8.60,5.83,10.05,834.870,2047.810,105.883331,38.23,2.5300,355,23660,1.88095,3.83,40252,,,,,,,,,,,,,,,,,,99999,99999,99999,99999,99999,99999,99999,99999,99999,99999,99999,99999
35:30:10,1510537410,2017-11-13T01:43:32,0.747,1648.8,8.60,5.83,10.05,834.850,2047.810,105.166664,38.52,2.5300,355,23661,1.89053,3.83,40248,,,,,,,,,,,,,,,,,,99999,99999,99999,99999,99999,99999,99999,99999,99999,99999,99999,99999
35:30:40,1510537440,2017-11-13T01:44:02,0.741,1649.2,8.60,5.82,10.02,834.870,2047.810,103.383331,38.02,2.5300,355,23661,1.87528,3.83,40243,,,,,,,,,,,,,,,,,,99999,99999,99999,99999,99999,99999,99999,99999,99999,99999,99999,99999
35:31:10,1510537470,2017-11-13T01:44:32,0.746,1649.6,8.60,5.82,10.02,834.850,2047.810,106.033333,37.81,2.5300,355,23661,1.88753,3.83,40238,,,,,,,,,,,,,,,,,,99999,99999,99999,99999,99999,99999,99999,99999,99999,99999,99999,99999
35:31:40,1510537500,2017-11-13T01:45:02,0.749,1650.0,8.59,5.81,10.01,834.820,2047.770,105.400002,37.84,2.5301,355,23665,1.89593,3.83,40234,,,,,,,,,,,,,,,,,,99999,99999,99999,99999,99999,99999,99999,99999,99999,99999,99999,99999
35:32:10,1510537530,2017-11-13T01:45:32,0.749,1650.3,8.58,5.82,10.01,834.800,2047.770,105.949997,37.98,2.5301,355,23660,1.89413,3.83,40229,,,,,,,,,,,,,,,,,,99999,99999,99999,99999,99999,99999,99999,99999,99999,99999,99999,99999
35:32:40,1510537560,2017-11-13T01:46:02,0.740,1650.7,8.58,5.83,10.01,834.850,2047.770,104.583336,38.44,2.5301,355,23661,1.87200,3.83,40224,,,,,,,,,,,,,,,,,,99999,99999,99999,99999,99999,99999,99999,99999,99999,99999,99999,99999
35:33:10,1510537590,2017-11-13T01:46:32,0.748,1651.1,8.58,5.81,10.03,834.880,2047.770,105.716667,38.52,2.5301,355,23659,1.89233,3.83,40220,,,,,,,,,,,,,,,,,,99999,99999,99999,99999,99999,99999,99999,99999,99999,99999,99999,99999
35:33:40,1510537620,2017-11-13T01:47:02,0.746,1651.4,8.58,5.80,10.01,834.880,2047.770,103.650002,39.17,2.5301,355,23662,1.88634,3.83,40215,,,,,,,,,,,,,,,,,,99999,99999,99999,99999,99999,99999,99999,99999,99999,99999,99999,99999
35:34:10,1510537650,2017-11-13T01:47:32,0.741,1651.8,8.57,5.81,9.98,834.880,2047.710,104.966667,38.67,2.5301,355,23660,1.87588,3.83,40210,,,,,,,,,,,,,,,,,,99999,99999,99999,99999,99999,99999,99999,99999,99999,99999,99999,99999
35:34:40,1510537680,2017-11-13T01:48:02,0.749,1652.2,8.55,5.78,9.98,834.910,2047.640,105.566666,38.67,2.5302,355,23657,1.89502,3.83,40206,,,,,,,,,,,,,,,,,,99999,99999,99999,99999,99999,99999,99999,99999,99999,99999,99999,99999
35:35:10,1510537710,2017-11-13T01:48:32,0.743,1652.6,8.55,5.79,9.98,834.830,2047.640,105.500000,38.69,2.5302,355,23658,1.87886,3.83,40201,,,,,,,,,,,,,,,,,,99999,99999,99999,99999,99999,99999,99999,99999,99999,99999,99999,99999
35:35:40,1510537740,2017-11-13T01:49:02,0.742,1652.9,8.54,5.79,9.95,834.860,2047.540,103.650002,38.55,2.5302,355,23662,1.87767,3.83,40196,,,,,,,,,,,,,,,,,,99999,99999,99999,99999,99999,99999,99999,99999,99999,99999,99999,99999
35:36:10,1510537770,2017-11-13T01:49:32,0.749,1653.3,8.53,5.79,9.95,834.810,2047.540,105.849998,38.66,2.5303,355,23660,1.89413,3.83,40191,,,,,,,,,,,,,,,,,,99999,99999,99999,99999,99999,99999,99999,99999,99999,99999,99999,99999
35:36:40,1510537800,2017-11-13T01:50:02,0.741,1653.7,8.53,5.75,9.95,834.810,2047.540,103.866669,38.95,2.5303,355,23659,1.87588,3.83,40187,,,,,,,,,,,,,,,,,,99999,99999,99999,99999,99999,99999,99999,99999,99999,99999,99999,99999
35:37:10,1510537830,2017-11-13T01:50:32,0.748,1654.0,8.51,5.78,9.95,834.820,2047.480,106.316666,38.76,2.5304,355,23660,1.89203,3.83,40182,,,,,,,,,,,,,,,,,,99999,99999,99999,99999,99999,99999,99999,99999,99999,99999,99999,99999
35:37:40,1510537860,2017-11-13T01:51:02,0.740,1654.4,8.50,5.73,9.95,834.840,2047.440,104.550003,38.81,2.5304,355,23659,1.87170,3.83,40177,,,,,,,,,,,,,,,,,,99999,99999,99999,99999,99999,99999,99999,99999,99999,99999,99999,99999
35:38:10,1510537890,2017-11-13T01:51:32,0.747,1654.8,8.51,5.76,9.92,834.820,2047.480,106.050003,38.88,2.5304,355,23658,1.89053,3.83,40173,,,,,,,,,,,,,,,,,,99999,99999,99999,99999,99999,99999,99999,99999,99999,99999,99999,99999
35:38:40,1510537920,2017-11-13T01:52:02,0.748,1655.2,8.48,5.72,9.92,834.930,2047.370,106.000000,38.56,2.5305,355,23658,1.89353,3.83,40168,,,,,,,,,,,,,,,,,,99999,99999,99999,99999,99999,99999,99999,99999,99999,99999,99999,99999
35:39:10,1510537950,2017-11-13T01:52:32,0.741,1655.5,8.46,5.72,9.89,834.880,2047.310,104.416664,38.62,2.5306,355,23656,1.87409,3.83,40163,,,,,,,,,,,,,,,,,,99999,99999,99999,99999,99999,99999,99999,99999,99999,99999,99999,99999
35:39:40,1510537980,2017-11-13T01:53:02,0.745,1655.9,8.45,5.71,9.89,834.800,2047.310,105.349998,38.53,2.5307,355,23660,1.88604,3.83,40159,,,,,,,,,,,,,,,,,,99999,99999,99999,99999,99999,99999,99999,99999,99999,99999,99999,99999
35:40:10,1510538010,2017-11-13T01:53:32,0.747,1656.3,8.44,5.75,9.92,834.860,2047.210,105.883331,38.55,2.5307,355,23657,1.89143,3.83,40154,,,,,,,,,,,,,,,,,,99999,99999,99999,99999,99999,99999,99999,99999,99999,99999,99999,99999
35:40:40,1510538040,2017-11-13T01:54:02,0.748,1656.6,8.43,5.69,9.89,834.880,2047.210,105.366669,38.49,2.5308,355,23659,1.89413,3.83,40149,,,,,,,,,,,,,,,,,,99999,99999,99999,99999,99999,99999,99999,99999,99999,99999,99999,99999
35:41:10,1510538070,2017-11-13T01:54:32,0.742,1657.0,8.41,5.70,9.88,834.860,2047.100,104.783333,38.67,2.5308,355,23656,1.87886,3.83,40145,,,,,,,,,,,,,,,,,,99999,99999,99999,99999,99999,99999,99999,99999,99999,99999,99999,99999
35:41:40,1510538100,2017-11-13T01:55:02,0.747,1657.4,8.42,5.68,9.86,834.890,2047.210,104.533333,38.55,2.5309,355,23658,1.88933,3.83,40140,,,,,,,,,,,,,,,,,,99999,99999,99999,99999,99999,99999,99999,99999,99999,99999,99999,99999
35:42:10,1510538130,2017-11-13T01:55:32,0.741,1657.8,8.39,5.69,9.84,834.870,2047.040,103.500000,38.48,2.5310,355,23658,1.87468,3.83,40135,,,,,,,,,,,,,,,,,,99999,99999,99999,99999,99999,99999,99999,99999,99999,99999,99999,99999
35:42:40,1510538160,2017-11-13T01:56:02,0.742,1658.1,8.39,5.68,9.86,834.810,2047.040,103.383331,38.26,2.5310,355,23658,1.87856,3.83,40130,,,,,,,,,,,,,,,,,,99999,99999,99999,99999,99999,99999,99999,99999,99999,99999,99999,99999
35:43:10,1510538190,2017-11-13T01:56:32,0.748,1658.5,8.38,5.68,9.84,834.900,2047.040,105.483330,38.34,2.5311,355,23656,1.89233,3.83,40126,,,,,,,,,,,,,,,,,,99999,99999,99999,99999,99999,99999,99999,99999,99999,99999,99999,99999
35:43:40,1510538220,2017-11-13T01:57:02,0.742,1658.9,8.38,5.66,9.81,834.900,2047.040,104.283333,38.22,2.5311,355,23656,1.87886,3.83,40121,,,,,,,,,,,,,,,,,,99999,99999,99999,99999,99999,99999,99999,99999,99999,99999,99999,99999
35:44:10,1510538250,2017-11-13T01:57:32,0.747,1659.3,8.38,5.69,9.84,834.820,2047.040,105.716667,38.22,2.5311,355,23656,1.89173,3.83,40116,,,,,,,,,,,,,,,,,,99999,99999,99999,99999,99999,99999,99999,99999,99999,99999,99999,99999
35:44:40,1510538280,2017-11-13T01:58:02,0.746,1659.6,8.36,5.66,9.80,834.900,2046.940,105.833336,38.60,2.5311,355,23658,1.88723,3.83,40112,,,,,,,,,,,,,,,,,,99999,99999,99999,99999,99999,99999,99999,99999,99999,99999,99999,99999
35:45:10,1510538310,2017-11-13T01:58:32,0.740,1660.0,8.37,5.67,9.82,834.900,2046.970,103.900002,39.31,2.5310,355,23657,1.87290,3.83,40107,,,,,,,,,,,,,,,,,,99999,99999,99999,99999,99999,99999,99999,99999,99999,99999,99999,99999
35:45:40,1510538340,2017-11-13T01:59:02,0.748,1660.4,8.37,5.68,9.82,834.820,2046.970,105.816666,39.38,2.5310,355,23658,1.89263,3.83,40102,,,,,,,,,,,,,,,,,,99999,99999,99999,99999,99999,99999,99999,99999,99999,99999,99999,99999
35:46:10,1510538370,2017-11-13T01:59:32,0.743,1660.7,8.37,5.68,9.84,834.930,2046.970,104.283333,39.17,2.5310,355,23660,1.88006,3.83,40098,,,,,,,,,,,,,,,,,,99999,99999,99999,99999,99999,99999,99999,99999,99999,99999,99999,99999
35:46:40,1510538400,2017-11-13T02:00:02,0.741,1661.1,8.37,5.68,9.76,834.900,2046.970,104.233330,39.48,2.5310,355,23656,1.87438,3.83,40093,,,,,,,,,,,,,,,,,,99999,99999,99999,99999,99999,99999,99999,99999,99999,99999,99999,99999
35:47:10,1510538430,2017-11-13T02:00:32,0.746,1661.5,8.36,5.67,9.82,834.900,2046.940,106.633331,40.25,2.5310,355,23658,1.88933,3.83,40088,,,,,,,,,,,,,,,,,,99999,99999,99999,99999,99999,99999,99999,99999,99999,99999,99999,99999
35:47:40,1510538460,2017-11-13T02:01:02,0.747,1661.9,8.35,5.66,9.81,834.960,2046.940,104.333336,40.03,2.5311,355,23659,1.89113,3.83,40084,,,,,,,,,,,,,,,,,,99999,99999,99999,99999,99999,99999,99999,99999,99999,99999,99999,99999
35:48:10,1510538490,2017-11-13T02:01:32,0.749,1662.2,8.34,5.67,9.81,834.880,2046.940,104.016670,38.74,2.5313,355,23660,1.89532,3.83,40079,,,,,,,,,,,,,,,,,,99999,99999,99999,99999,99999,99999,99999,99999,99999,99999,99999,99999
35:48:40,1510538520,2017-11-13T02:02:02,0.740,1662.6,8.34,5.64,9.80,834.960,2046.940,103.199997,38.74,2.5313,355,23656,1.87409,3.83,40074,,,,,,,,,,,,,,,,,,99999,99999,99999,99999,99999,99999,99999,99999,99999,99999,99999,99999
35:49:10,1510538550,2017-11-13T02:02:32,0.743,1663.0,8.36,5.65,9.76,835.010,2046.940,107.199997,39.16,2.5311,355,23655,1.88035,3.83,40070,,,,,,,,,,,,,,,,,,99999,99999,99999,99999,99999,99999,99999,99999,99999,99999,99999,99999
35:49:40,1510538580,2017-11-13T02:03:02,0.743,1663.3,8.34,5.66,9.81,834.930,2046.940,104.650002,39.40,2.5312,355,23656,1.88185,3.83,40065,,,,,,,,,,,,,,,,,,99999,99999,99999,99999,99999,99999,99999,99999,99999,99999,99999,99999
35:50:10,1510538610,2017-11-13T02:03:32,0.744,1663.7,8.34,5.65,9.77,834.960,2046.940,104.583336,38.96,2.5313,355,23656,1.88304,3.83,40060,,,,,,,,,,,,,,,,,,99999,99999,99999,99999,99999,99999,99999,99999,99999,99999,99999,99999
35:50:40,1510538640,2017-11-13T02:04:02,0.741,1664.1,8.34,5.66,9.77,834.910,2046.940,104.533333,38.76,2.5313,355,23657,1.87558,3.83,40055,,,,,,,,,,,,,,,,,,99999,99999,99999,99999,99999,99999,99999,99999,99999,99999,99999,99999
35:51:10,1510538670,2017-11-13T02:04:32,0.741,1664.5,8.34,5.64,9.76,834.990,2046.940,104.050003,38.81,2.5313,355,23657,1.87558,3.83,40051,,,,,,,,,,,,,,,,,,99999,99999,99999,99999,99999,99999,99999,99999,99999,99999,99999,99999
35:51:40,1510538700,2017-11-13T02:05:02,0.747,1664.8,8.34,5.66,9.76,834.960,2046.940,105.583336,38.91,2.5313,355,23652,1.89053,3.82,40046,,,,,,,,,,,,,,,,,,99999,99999,99999,99999,99999,99999,99999,99999,99999,99999,99999,99999
35:52:10,1510538730,2017-11-13T02:05:32,0.747,1665.2,8.34,5.67,9.77,834.960,2046.940,105.666664,38.79,2.5313,355,23656,1.89023,3.83,40041,,,,,,,,,,,,,,,,,,99999,99999,99999,99999,99999,99999,99999,99999,99999,99999,99999,99999
35:52:40,1510538760,2017-11-13T02:06:02,0.747,1665.6,8.33,5.63,9.77,834.960,2046.870,104.933334,38.57,2.5313,355,23655,1.88963,3.82,40037,,,,,,,,,,,,,,,,,,99999,99999,99999,99999,99999,99999,99999,99999,99999,99999,99999,99999
35:53:10,1510538790,2017-11-13T02:06:32,0.742,1665.9,8.33,5.67,9.77,834.880,2046.870,103.949997,38.76,2.5313,355,23653,1.87797,3.82,40032,,,,,,,,,,,,,,,,,,99999,99999,99999,99999,99999,99999,99999,99999,99999,99999,99999,99999
35:53:40,1510538820,2017-11-13T02:07:02,0.740,1666.3,8.32,5.66,9.74,834.860,2046.810,103.966667,39.01,2.5313,355,23653,1.87409,3.82,40027,,,,,,,,,,,,,,,,,,99999,99999,99999,99999,99999,99999,99999,99999,99999,99999,99999,99999
35:54:10,1510538850,2017-11-13T02:07:32,0.747,1666.7,8.32,5.64,9.77,834.910,2046.810,105.766670,39.02,2.5313,355,23658,1.89143,3.82,40023,,,,,,,,,,,,,,,,,,99999,99999,99999,99999,99999,99999,99999,99999,99999,99999,99999,99999
35:54:40,1510538880,2017-11-13T02:08:02,0.740,1667.1,8.32,5.63,9.74,834.810,2046.810,103.550003,39.03,2.5313,355,23657,1.87200,3.82,40018,,,,,,,,,,,,,,,,,,99999,99999,99999,99999,99999,99999,99999,99999,99999,99999,99999,99999
35:55:10,1510538910,2017-11-13T02:08:32,0.746,1667.4,8.32,5.63,9.77,834.860,2046.810,105.933334,39.04,2.5313,355,23657,1.88933,3.82,40013,,,,,,,,,,,,,,,,,,99999,99999,99999,99999,99999,99999,99999,99999,99999,99999,99999,99999
35:55:40,1510538940,2017-11-13T02:09:02,0.744,1667.8,8.32,5.63,9.73,834.830,2046.810,104.616669,39.21,2.5313,355,23656,1.88245,3.82,40009,,,,,,,,,,,,,,,,,,99999,99999,99999,99999,99999,99999,99999,99999,99999,99999,99999,99999
35:56:10,1510538970,2017-11-13T02:09:32,0.744,1668.2,8.32,5.59,9.73,834.810,2046.810,105.449997,39.47,2.5313,355,23657,1.88275,3.82,40004,,,,,,,,,,,,,,,,,,99999,99999,99999,99999,99999,99999,99999,99999,99999,99999,99999,99999
35:56:40,1510539000,2017-11-13T02:10:02,0.739,1668.5,8.30,5.63,9.74,834.780,2046.770,104.166664,39.16,2.5314,355,23656,1.87170,3.82,39999,,,,,,,,,,,,,,,,,,99999,99999,99999,99999,99999,99999,99999,99999,99999,99999,99999,99999
35:57:10,1510539030,2017-11-13T02:10:32,0.747,1668.9,8.30,5.60,9.73,834.890,2046.770,105.433334,39.00,2.5314,355,23658,1.89083,3.82,39995,,,,,,,,,,,,,,,,,,99999,99999,99999,99999,99999,99999,99999,99999,99999,99999,99999,99999
35:57:40,1510539060,2017-11-13T02:11:02,0.744,1669.3,8.29,5.59,9.73,834.720,2046.770,105.516670,38.92,2.5315,355,23654,1.88334,3.82,39990,,,,,,,,,,,,,,,,,,99999,99999,99999,99999,99999,99999,99999,99999,99999,99999,99999,99999
35:58:10,1510539090,2017-11-13T02:11:32,0.740,1669.7,8.29,5.61,9.74,834.790,2046.770,104.083336,38.92,2.5315,355,23653,1.87319,3.82,39985,,,,,,,,,,,,,,,,,,99999,99999,99999,99999,99999,99999,99999,99999,99999,99999,99999,99999
35:58:40,1510539120,2017-11-13T02:12:02,0.747,1670.0,8.29,5.60,9.76,834.790,2046.770,105.466667,38.89,2.5315,355,23652,1.89083,3.82,39980,,,,,,,,,,,,,,,,,,99999,99999,99999,99999,99999,99999,99999,99999,99999,99999,99999,99999
35:59:10,1510539150,2017-11-13T02:12:32,0.741,1670.4,8.29,5.61,9.72,834.810,2046.770,103.849998,39.07,2.5315,355,23655,1.87588,3.82,39976,,,,,,,,,,,,,,,,,,99999,99999,99999,99999,99999,99999,99999,99999,99999,99999,99999,99999
35:59:40,1510539180,2017-11-13T02:13:02,0.743,1670.8,8.28,5.59,9.72,834.760,2046.640,105.133331,39.24,2.5314,355,23651,1.88155,3.82,39971,,,,,,,,,,,,,,,,,,99999,99999,99999,99999,99999,99999,99999,99999,99999,99999,99999,99999
36:00:10,1510539210,2017-11-13T02:13:32,0.744,1671.1,8.28,5.62,9.72,834.720,2046.640,105.616669,39.02,2.5314,355,23652,1.88245,3.82,39966,,,,,,,,,,,,,,,,,,99999,99999,99999,99999,99999,99999,99999,99999,99999,99999,99999,99999
36:00:40,1510539240,2017-11-13T02:14:02,0.746,1671.5,8.28,5.59,9.72,834.760,2046.640,105.333336,39.21,2.5314,355,23653,1.88933,3.82,39962,,,,,,,,,,,,,,,,,,99999,99999,99999,99999,99999,99999,99999,99999,99999,99999,99999,99999
36:01:10,1510539270,2017-11-13T02:14:32,0.748,1671.9,8.28,5.59,9.73,834.840,2046.640,105.116669,39.12,2.5314,355,23656,1.89292,3.82,39957,,,,,,,,,,,,,,,,,,99999,99999,99999,99999,99999,99999,99999,99999,99999,99999,99999,99999
36:01:40,1510539300,2017-11-13T02:15:02,0.746,1672.3,8.27,5.61,9.69,834.760,2046.640,105.650002,39.34,2.5315,355,23654,1.88933,3.82,39952,,,,,,,,,,,,,,,,,,99999,99999,99999,99999,99999,99999,99999,99999,99999,99999,99999,99999
36:02:10,1510539330,2017-11-13T02:15:32,0.747,1672.6,8.28,5.61,9.69,834.810,2046.640,105.183334,39.64,2.5314,355,23655,1.88993,3.82,39948,,,,,,,,,,,,,,,,,,99999,99999,99999,99999,99999,99999,99999,99999,99999,99999,99999,99999
36:02:40,1510539360,2017-11-13T02:16:02,0.742,1673.0,8.27,5.58,9.73,834.760,2046.640,104.733330,39.65,2.5315,355,23654,1.87946,3.82,39943,,,,,,,,,,,,,,,,,,99999,99999,99999,99999,99999,99999,99999,99999,99999,99999,99999,99999
36:03:10,1510539390,2017-11-13T02:16:32,0.741,1673.4,8.27,5.58,9.72,834.760,2046.640,104.316666,39.61,2.5315,355,23653,1.87558,3.82,39938,,,,,,,,,,,,,,,,,,99999,99999,99999,99999,99999,99999,99999,99999,99999,99999,99999,99999
36:03:40,1510539420,2017-11-13T02:17:02,0.747,1673.8,8.26,5.59,9.69,834.790,2046.600,105.833336,39.83,2.5315,355,23654,1.88993,3.82,39934,,,,,,,,,,,,,,,,,,99999,99999,99999,99999,99999,99999,99999,99999,99999,99999,99999,99999
36:04:10,1510539450,2017-11-13T02:17:32,0.745,1674.1,8.25,5.59,9.72,834.870,2046.600,104.733330,39.87,2.5316,355,23654,1.88604,3.82,39929,,,,,,,,,,,,,,,,,,99999,99999,99999,99999,99999,99999,99999,99999,99999,99999,99999,99999
36:04:40,1510539480,2017-11-13T02:18:02,0.746,1674.5,8.25,5.57,9.69,834.820,2046.600,105.083336,39.67,2.5316,355,23654,1.88783,3.82,39924,,,,,,,,,,,,,,,,,,99999,99999,99999,99999,99999,99999,99999,99999,99999,99999,99999,99999
36:05:10,1510539510,2017-11-13T02:18:32,0.738,1674.9,8.25,5.58,9.68,834.820,2046.600,102.900002,39.51,2.5316,355,23654,1.86932,3.82,39919,,,,,,,,,,,,,,,,,,99999,99999,99999,99999,99999,99999,99999,99999,99999,99999,99999,99999
36:05:40,1510539540,2017-11-13T02:19:02,0.747,1675.2,8.23,5.57,9.69,834.710,2046.470,105.300003,39.36,2.5317,355,23654,1.89023,3.82,39915,,,,,,,,,,,,,,,,,,99999,99999,99999,99999,99999,99999,99999,99999,99999,99999,99999,99999
36:06:10,1510539570,2017-11-13T02:19:32,0.740,1675.6,8.24,5.58,9.69,834.820,2046.540,102.900002,39.37,2.5317,355,23655,1.87319,3.82,39910,,,,,,,,,,,,,,,,,,99999,99999,99999,99999,99999,99999,99999,99999,99999,99999,99999,99999
36:06:40,1510539600,2017-11-13T02:20:02,0.744,1676.0,8.24,5.55,9.68,834.790,2046.540,104.833336,39.40,2.5317,355,23652,1.88364,3.82,39905,,,,,,,,,,,,,,,,,,99999,99999,99999,99999,99999,99999,99999,99999,99999,99999,99999,99999
36:07:10,1510539630,2017-11-13T02:20:32,0.742,1676.4,8.23,5.55,9.68,834.780,2046.470,102.816666,39.37,2.5317,355,23654,1.87826,3.82,39901,,,,,,,,,,,,,,,,,,99999,99999,99999,99999,99999,99999,99999,99999,99999,99999,99999,99999
36:07:40,1510539660,2017-11-13T02:21:02,0.745,1676.7,8.23,5.57,9.68,834.780,2046.470,106.133331,39.40,2.5317,355,23652,1.88544,3.82,39896,,,,,,,,,,,,,,,,,,99999,99999,99999,99999,99999,99999,99999,99999,99999,99999,99999,99999
36:08:10,1510539690,2017-11-13T02:21:32,0.747,1677.1,8.23,5.55,9.68,834.800,2046.470,105.099998,39.38,2.5317,355,23657,1.89053,3.82,39891,,,,,,,,,,,,,,,,,,99999,99999,99999,99999,99999,99999,99999,99999,99999,99999,99999,99999
36:08:40,1510539720,2017-11-13T02:22:02,0.744,1677.5,8.24,5.54,9.69,834.790,2046.540,104.166664,39.40,2.5317,355,23654,1.88304,3.82,39887,,,,,,,,,,,,,,,,,,99999,99999,99999,99999,99999,99999,99999,99999,99999,99999,99999,99999
36:09:10,1510539750,2017-11-13T02:22:32,0.745,1677.8,8.23,5.57,9.68,834.710,2046.470,104.550003,39.16,2.5317,355,23657,1.88604,3.82,39882,,,,,,,,,,,,,,,,,,99999,99999,99999,99999,99999,99999,99999,99999,99999,99999,99999,99999
36:09:40,1510539780,2017-11-13T02:23:02,0.747,1678.2,8.24,5.55,9.65,834.770,2046.540,104.983330,39.19,2.5317,355,23654,1.89053,3.82,39877,,,,,,,,,,,,,,,,,,99999,99999,99999,99999,99999,99999,99999,99999,99999,99999,99999,99999
36:10:10,1510539810,2017-11-13T02:23:32,0.741,1678.6,8.24,5.55,9.68,834.770,2046.540,103.900002,39.19,2.5317,355,23657,1.87528,3.82,39873,,,,,,,,,,,,,,,,,,99999,99999,99999,99999,99999,99999,99999,99999,99999,99999,99999,99999
36:10:40,1510539840,2017-11-13T02:24:02,0.742,1679.0,8.26,5.56,9.68,834.820,2046.600,104.216667,39.00,2.5316,355,23651,1.87856,3.82,39868,,,,,,,,,,,,,,,,,,99999,99999,99999,99999,99999,99999,99999,99999,99999,99999,99999,99999
36:11:10,1510539870,2017-11-13T02:24:32,0.745,1679.3,8.26,5.57,9.69,834.700,2046.600,105.433334,38.92,2.5316,355,23655,1.88544,3.82,39863,,,,,,,,,,,,,,,,,,99999,99999,99999,99999,99999,99999,99999,99999,99999,99999,99999,99999
36:11:40,1510539900,2017-11-13T02:25:02,0.741,1679.7,8.27,5.57,9.69,834.790,2046.640,104.833336,40.71,2.5314,355,23652,1.87677,3.82,39859,,,,,,,,,,,,,,,,,,99999,99999,99999,99999,99999,99999,99999,99999,99999,99999,99999,99999
36:12:10,1510539930,2017-11-13T02:25:32,0.742,1680.1,8.27,5.57,9.69,834.730,2046.640,103.150002,39.70,2.5315,355,23653,1.87767,3.82,39854,,,,,,,,,,,,,,,,,,99999,99999,99999,99999,99999,99999,99999,99999,99999,99999,99999,99999
36:12:40,1510539960,2017-11-13T02:26:02,0.742,1680.4,8.27,5.57,9.69,834.790,2046.640,103.116669,39.58,2.5315,355,23654,1.87916,3.82,39849,,,,,,,,,,,,,,,,,,99999,99999,99999,99999,99999,99999,99999,99999,99999,99999,99999,99999
36:13:10,1510539990,2017-11-13T02:26:32,0.745,1680.8,8.28,5.58,9.72,834.790,2046.640,106.233330,40.01,2.5314,355,23654,1.88514,3.82,39844,,,,,,,,,,,,,,,,,,99999,99999,99999,99999,99999,99999,99999,99999,99999,99999,99999,99999
36:13:40,1510540020,2017-11-13T02:27:02,0.745,1681.2,8.27,5.57,9.73,834.820,2046.640,105.116669,39.30,2.5315,355,23651,1.88514,3.82,39840,,,,,,,,,,,,,,,,,,99999,99999,99999,99999,99999,99999,99999,99999,99999,99999,99999,99999
36:14:10,1510540050,2017-11-13T02:27:32,0.748,1681.6,8.28,5.57,9.69,834.810,2046.640,104.050003,39.21,2.5314,355,23654,1.89442,3.82,39835,,,,,,,,,,,,,,,,,,99999,99999,99999,99999,99999,99999,99999,99999,99999,99999,99999,99999
36:14:40,1510540080,2017-11-13T02:28:02,0.745,1681.9,8.28,5.58,9.74,834.810,2046.640,104.733330,39.53,2.5314,355,23654,1.88574,3.82,39830,,,,,,,,,,,,,,,,,,99999,99999,99999,99999,99999,99999,99999,99999,99999,99999,99999,99999
36:15:10,1510540110,2017-11-13T02:28:32,0.739,1682.3,8.29,5.57,9.68,834.720,2046.770,103.816666,39.46,2.5315,355,23654,1.87170,3.82,39826,,,,,,,,,,,,,,,,,,99999,99999,99999,99999,99999,99999,99999,99999,99999,99999,99999,99999
36:15:40,1510540140,2017-11-13T02:29:02,0.746,1682.7,8.29,5.60,9.72,834.810,2046.770,105.866669,39.30,2.5315,355,23654,1.88723,3.82,39821,,,,,,,,,,,,,,,,,,99999,99999,99999,99999,99999,99999,99999,99999,99999,99999,99999,99999
36:16:10,1510540170,2017-11-13T02:29:32,0.739,1683.0,8.29,5.57,9.73,834.810,2046.770,103.050003,39.58,2.5315,355,23656,1.87200,3.82,39816,,,,,,,,,,,,,,,,,,99999,99999,99999,99999,99999,99999,99999,99999,99999,99999,99999,99999
36:16:40,1510540200,2017-11-13T02:30:02,0.744,1683.4,8.29,5.58,9.72,834.810,2046.770,105.233330,39.47,2.5315,355,23655,1.88424,3.82,39812,,,,,,,,,,,,,,,,,,99999,99999,99999,99999,99999,99999,99999,99999,99999,99999,99999,99999
36:17:10,1510540230,2017-11-13T02:30:32,0.746,1683.8,8.30,5.56,9.72,834.760,2046.770,105.283333,40.09,2.5314,355,23654,1.88843,3.82,39807,,,,,,,,,,,,,,,,,,99999,99999,99999,99999,99999,99999,99999,99999,99999,99999,99999,99999
36:17:40,1510540260,2017-11-13T02:31:02,0.742,1684.2,8.30,5.60,9.73,834.890,2046.770,104.116669,39.72,2.5314,355,23655,1.87886,3.82,39802,,,,,,,,,,,,,,,,,,99999,99999,99999,99999,99999,99999,99999,99999,99999,99999,99999,99999
36:18:10,1510540290,2017-11-13T02:31:32,0.740,1684.5,8.30,5.57,9.73,834.840,2046.770,104.033333,39.66,2.5314,355,23653,1.87230,3.82,39798,,,,,,,,,,,,,,,,,,99999,99999,99999,99999,99999,99999,99999,99999,99999,99999,99999,99999
36:18:40,1510540320,2017-11-13T02:32:02,0.744,1684.9,8.30,5.56,9.76,834.810,2046.770,105.883331,40.02,2.5314,355,23652,1.88454,3.82,39793,,,,,,,,,,,,,,,,,,99999,99999,99999,99999,99999,99999,99999,99999,99999,99999,99999,99999
36:19:10,1510540350,2017-11-13T02:32:32,0.746,1685.3,8.30,5.59,9.74,834.840,2046.770,105.000000,40.36,2.5313,355,23653,1.88753,3.82,39788,,,,,,,,,,,,,,,,,,99999,99999,99999,99999,99999,99999,99999,99999,99999,99999,99999,99999
36:19:40,1510540380,2017-11-13T02:33:02,0.745,1685.6,8.30,5.58,9.74,834.780,2046.770,104.733330,40.26,2.5313,355,23654,1.88663,3.82,39783,,,,,,,,,,,,,,,,,,99999,99999,99999,99999,99999,99999,99999,99999,99999,99999,99999,99999
36:20:10,1510540410,2017-11-13T02:33:32,0.742,1686.0,8.30,5.58,9.72,834.890,2046.770,106.199997,39.97,2.5314,355,23653,1.87826,3.82,39779,,,,,,,,,,,,,,,,,,99999,99999,99999,99999,99999,99999,99999,99999,99999,99999,99999,99999
36:20:40,1510540440,2017-11-13T02:34:02,0.740,1686.4,8.29,5.57,9.74,834.760,2046.770,103.416664,39.91,2.5315,355,23653,1.87319,3.82,39774,,,,,,,,,,,,,,,,,,99999,99999,99999,99999,99999,99999,99999,99999,99999,99999,99999,99999
36:21:10,1510540470,2017-11-13T02:34:32,0.746,1686.8,8.27,5.57,9.72,834.840,2046.640,105.233330,39.92,2.5315,355,23653,1.88963,3.82,39769,,,,,,,,,,,,,,,,,,99999,99999,99999,99999,99999,99999,99999,99999,99999,99999,99999,99999
36:21:40,1510540500,2017-11-13T02:35:02,0.746,1687.1,8.28,5.56,9.72,834.810,2046.640,105.983330,39.93,2.5314,355,23650,1.88783,3.82,39765,,,,,,,,,,,,,,,,,,99999,99999,99999,99999,99999,99999,99999,99999,99999,99999,99999,99999
36:22:10,1510540530,2017-11-13T02:35:32,0.746,1687.5,8.26,5.56,9.72,834.820,2046.600,105.449997,39.88,2.5315,355,23652,1.88813,3.82,39760,,,,,,,,,,,,,,,,,,99999,99999,99999,99999,99999,99999,99999,99999,99999,99999,99999,99999
36:22:40,1510540560,2017-11-13T02:36:02,0.738,1687.9,8.27,5.54,9.68,834.790,2046.640,104.099998,39.97,2.5315,355,23655,1.86813,3.82,39755,,,,,,,,,,,,,,,,,,99999,99999,99999,99999,99999,99999,99999,99999,99999,99999,99999,99999
36:23:10,1510540590,2017-11-13T02:36:32,0.747,1688.2,8.26,5.54,9.69,834.730,2046.600,105.783333,40.02,2.5315,355,23652,1.88993,3.82,39751,,,,,,,,,,,,,,,,,,99999,99999,99999,99999,99999,99999,99999,99999,99999,99999,99999,99999
36:23:40,1510540620,2017-11-13T02:37:02,0.739,1688.6,8.25,5.55,9.68,834.770,2046.600,103.650002,40.27,2.5316,355,23655,1.87200,3.82,39746,,,,,,,,,,,,,,,,,,99999,99999,99999,99999,99999,99999,99999,99999,99999,99999,99999,99999
36:24:10,1510540650,2017-11-13T02:37:32,0.745,1689.0,8.25,5.54,9.68,834.770,2046.600,104.699997,40.19,2.5316,355,23654,1.88574,3.82,39741,,,,,,,,,,,,,,,,,,99999,99999,99999,99999,99999,99999,99999,99999,99999,99999,99999,99999
36:24:40,1510540680,2017-11-13T02:38:02,0.745,1689.4,8.25,5.53,9.69,834.730,2046.600,104.466667,40.08,2.5316,355,23655,1.88484,3.82,39737,,,,,,,,,,,,,,,,,,99999,99999,99999,99999,99999,99999,99999,99999,99999,99999,99999,99999
36:25:10,1510540710,2017-11-13T02:38:32,0.746,1689.7,8.24,5.54,9.68,834.770,2046.540,106.099998,39.76,2.5316,355,23656,1.88813,3.82,39732,,,,,,,,,,,,,,,,,,99999,99999,99999,99999,99999,99999,99999,99999,99999,99999,99999,99999
36:25:40,1510540740,2017-11-13T02:39:02,0.744,1690.1,8.22,5.52,9.65,834.780,2046.470,105.250000,39.75,2.5317,355,23651,1.88334,3.82,39727,,,,,,,,,,,,,,,,,,99999,99999,99999,99999,99999,99999,99999,99999,99999,99999,99999,99999
36:26:10,1510540770,2017-11-13T02:39:32,0.739,1690.5,8.23,5.51,9.66,834.710,2046.470,104.683334,39.79,2.5316,355,23652,1.86992,3.82,39722,,,,,,,,,,,,,,,,,,99999,99999,99999,99999,99999,99999,99999,99999,99999,99999,99999,99999
36:26:40,1510540800,2017-11-13T02:40:02,0.739,1690.8,8.22,5.53,9.63,834.850,2046.470,102.900002,39.75,2.5317,355,23653,1.87021,3.82,39718,,,,,,,,,,,,,,,,,,99999,99999,99999,99999,99999,99999,99999,99999,99999,99999,99999,99999
36:27:10,1510540830,2017-11-13T02:40:32,0.747,1691.2,8.23,5.56,9.65,834.710,2046.470,105.500000,39.85,2.5316,355,23651,1.89023,3.82,39713,,,,,,,,,,,,,,,,,,99999,99999,99999,99999,99999,99999,99999,99999,99999,99999,99999,99999
36:27:40,1510540860,2017-11-13T02:41:02,0.738,1691.6,8.21,5.52,9.66,834.700,2046.470,104.166664,39.76,2.5318,355,23652,1.86902,3.82,39708,,,,,,,,,,,,,,,,,,99999,99999,99999,99999,99999,99999,99999,99999,99999,99999,99999,99999
36:28:10,1510540890,2017-11-13T02:41:32,0.745,1692.0,8.21,5.52,9.65,834.720,2046.470,105.599998,39.86,2.5318,355,23651,1.88663,3.82,39704,,,,,,,,,,,,,,,,,,99999,99999,99999,99999,99999,99999,99999,99999,99999,99999,99999,99999
36:28:40,1510540920,2017-11-13T02:42:02,0.739,1692.3,8.21,5.53,9.68,834.720,2046.470,103.216667,40.12,2.5318,355,23650,1.86992,3.82,39699,,,,,,,,,,,,,,,,,,99999,99999,99999,99999,99999,99999,99999,99999,99999,99999,99999,99999
36:29:10,1510540950,2017-11-13T02:42:32,0.742,1692.7,8.21,5.52,9.63,834.700,2046.470,105.466667,40.10,2.5318,355,23652,1.87886,3.82,39694,,,,,,,,,,,,,,,,,,99999,99999,99999,99999,99999,99999,99999,99999,99999,99999,99999,99999
36:29:40,1510540980,2017-11-13T02:43:02,0.746,1693.1,8.20,5.51,9.65,834.680,2046.430,106.066666,40.13,2.5318,355,23650,1.88783,3.82,39690,,,,,,,,,,,,,,,,,,99999,99999,99999,99999,99999,99999,99999,99999,99999,99999,99999,99999
36:30:10,1510541010,2017-11-13T02:43:32,0.745,1693.4,8.21,5.49,9.63,834.700,2046.470,105.183334,40.32,2.5318,355,23649,1.88514,3.82,39685,,,,,,,,,,,,,,,,,,99999,99999,99999,99999,99999,99999,99999,99999,99999,99999,99999,99999
36:30:40,1510541040,2017-11-13T02:44:02,0.744,1693.8,8.19,5.47,9.65,834.680,2046.370,105.800003,40.38,2.5319,355,23649,1.88484,3.82,39680,,,,,,,,,,,,,,,,,,99999,99999,99999,99999,99999,99999,99999,99999,99999,99999,99999,99999
36:31:10,1510541070,2017-11-13T02:44:32,0.747,1694.2,8.19,5.50,9.65,834.680,2046.370,105.650002,40.21,2.5319,355,23651,1.89023,3.82,39675,,,,,,,,,,,,,,,,,,99999,99999,99999,99999,99999,99999,99999,99999,99999,99999,99999,99999
36:31:40,1510541100,2017-11-13T02:45:02,0.743,1694.6,8.19,5.49,9.66,834.660,2046.370,105.633331,40.12,2.5319,355,23652,1.88035,3.82,39671,,,,,,,,,,,,,,,,,,99999,99999,99999,99999,99999,99999,99999,99999,99999,99999,99999,99999
36:32:10,1510541130,2017-11-13T02:45:32,0.739,1694.9,8.20,5.51,9.63,834.700,2046.430,103.550003,40.08,2.5319,355,23650,1.87140,3.82,39666,,,,,,,,,,,,,,,,,,99999,99999,99999,99999,99999,99999,99999,99999,99999,99999,99999,99999
36:32:40,1510541160,2017-11-13T02:46:02,0.742,1695.3,8.18,5.49,9.68,834.720,2046.370,104.949997,40.48,2.5319,355,23649,1.87946,3.82,39661,,,,,,,,,,,,,,,,,,99999,99999,99999,99999,99999,99999,99999,99999,99999,99999,99999,99999
36:33:10,1510541190,2017-11-13T02:46:32,0.746,1695.7,8.18,5.48,9.63,834.720,2046.370,105.099998,40.38,2.5319,355,23651,1.88933,3.82,39657,,,,,,,,,,,,,,,,,,99999,99999,99999,99999,99999,99999,99999,99999,99999,99999,99999,99999
36:33:40,1510541220,2017-11-13T02:47:02,0.742,1696.0,8.17,5.48,9.65,834.760,2046.310,104.316666,40.29,2.5320,355,23649,1.87826,3.82,39652,,,,,,,,,,,,,,,,,,99999,99999,99999,99999,99999,99999,99999,99999,99999,99999,99999,99999
36:34:10,1510541250,2017-11-13T02:47:32,0.743,1696.4,8.16,5.47,9.63,834.790,2046.310,104.500000,40.41,2.5321,355,23649,1.88006,3.82,39647,,,,,,,,,,,,,,,,,,99999,99999,99999,99999,99999,99999,99999,99999,99999,99999,99999,99999
36:34:40,1510541280,2017-11-13T02:48:02,0.745,1696.8,8.16,5.46,9.63,834.730,2046.310,105.516670,40.38,2.5321,355,23651,1.88723,3.82,39643,,,,,,,,,,,,,,,,,,99999,99999,99999,99999,99999,99999,99999,99999,99999,99999,99999,99999
36:35:10,1510541310,2017-11-13T02:48:32,0.743,1697.2,8.15,5.48,9.61,834.700,2046.200,104.949997,40.54,2.5320,355,23649,1.88035,3.82,39638,,,,,,,,,,,,,,,,,,99999,99999,99999,99999,99999,99999,99999,99999,99999,99999,99999,99999
36:35:40,1510541340,2017-11-13T02:49:02,0.738,1697.5,8.15,5.47,9.59,834.730,2046.200,103.333336,40.66,2.5320,355,23650,1.86932,3.82,39633,,,,,,,,,,,,,,,,,,99999,99999,99999,99999,99999,99999,99999,99999,99999,99999,99999,99999
36:36:10,1510541370,2017-11-13T02:49:32,0.746,1697.9,8.14,5.46,9.61,834.790,2046.200,105.383331,40.50,2.5321,355,23648,1.88933,3.82,39628,,,,,,,,,,,,,,,,,,99999,99999,99999,99999,99999,99999,99999,99999,99999,99999,99999,99999
36:36:40,1510541400,2017-11-13T02:50:02,0.743,1698.3,8.13,5.44,9.59,834.700,2046.140,104.266670,40.37,2.5321,355,23649,1.88215,3.82,39624,,,,,,,,,,,,,,,,,,99999,99999,99999,99999,99999,99999,99999,99999,99999,99999,99999,99999
36:37:10,1510541430,2017-11-13T02:50:32,0.742,1698.6,8.13,5.45,9.59,834.770,2046.140,103.900002,40.80,2.5321,355,23650,1.87916,3.82,39619,,,,,,,,,,,,,,,,,,99999,99999,99999,99999,99999,99999,99999,99999,99999,99999,99999,99999
36:37:40,1510541460,2017-11-13T02:51:02,0.740,1699.0,8.12,5.43,9.59,834.770,2046.140,102.933334,40.61,2.5322,355,23649,1.87319,3.82,39614,,,,,,,,,,,,,,,,,,99999,99999,99999,99999,99999,99999,99999,99999,99999,99999,99999,99999
36:38:10,1510541490,2017-11-13T02:51:32,0.738,1699.4,8.12,5.42,9.57,834.690,2046.140,103.316666,40.80,2.5322,355,23651,1.86843,3.82,39610,,,,,,,,,,,,,,,,,,99999,99999,99999,99999,99999,99999,99999,99999,99999,99999,99999,99999
36:38:40,1510541520,2017-11-13T02:52:02,0.746,1699.8,8.11,5.42,9.53,834.720,2046.100,104.300003,40.70,2.5322,355,23648,1.88873,3.82,39605,,,,,,,,,,,,,,,,,,99999,99999,99999,99999,99999,99999,99999,99999,99999,99999,99999,99999
36:39:10,1510541550,2017-11-13T02:52:32,0.744,1700.1,8.11,5.42,9.53,834.720,2046.100,104.683334,40.38,2.5322,355,23652,1.88484,3.82,39600,,,,,,,,,,,,,,,,,,99999,99999,99999,99999,99999,99999,99999,99999,99999,99999,99999,99999
36:39:40,1510541580,2017-11-13T02:53:02,0.743,1700.5,8.11,5.43,9.57,834.720,2046.100,104.566666,40.85,2.5322,355,23649,1.88125,3.82,39596,,,,,,,,,,,,,,,,,,99999,99999,99999,99999,99999,99999,99999,99999,99999,99999,99999,99999
36:40:10,1510541610,2017-11-13T02:53:32,0.745,1700.9,8.09,5.43,9.55,834.720,2046.040,104.166664,41.12,2.5323,355,23650,1.88723,3.82,39591,,,,,,,,,,,,,,,,,,99999,99999,99999,99999,99999,99999,99999,99999,99999,99999,99999,99999
36:40:40,1510541640,2017-11-13T02:54:02,0.747,1701.2,8.09,5.41,9.57,834.700,2046.040,104.033333,41.20,2.5323,355,23648,1.89083,3.82,39586,,,,,,,,,,,,,,,,,,99999,99999,99999,99999,99999,99999,99999,99999,99999,99999,99999,99999
36:41:10,1510541670,2017-11-13T02:54:32,0.746,1701.6,8.08,5.39,9.55,834.700,2046.040,104.966667,40.89,2.5324,355,23648,1.88903,3.82,39582,,,,,,,,,,,,,,,,,,99999,99999,99999,99999,99999,99999,99999,99999,99999,99999,99999,99999
36:41:40,1510541700,2017-11-13T02:55:02,0.747,1702.0,8.08,5.40,9.55,834.780,2046.040,104.500000,40.98,2.5324,355,23649,1.89143,3.82,39577,,,,,,,,,,,,,,,,,,99999,99999,99999,99999,99999,99999,99999,99999,99999,99999,99999,99999
36:42:10,1510541730,2017-11-13T02:55:32,0.742,1702.4,8.07,5.39,9.53,834.790,2045.970,105.016670,41.07,2.5324,355,23646,1.87886,3.82,39572,,,,,,,,,,,,,,,,,,99999,99999,99999,99999,99999,99999,99999,99999,99999,99999,99999,99999
36:42:40,1510541760,2017-11-13T02:56:02,0.745,1702.7,8.07,5.37,9.52,834.790,2045.970,104.400002,41.08,2.5324,355,23650,1.88604,3.82,39567,,,,,,,,,,,,,,,,,,99999,99999,99999,99999,99999,99999,99999,99999,99999,99999,99999,99999
36:43:10,1510541790,2017-11-13T02:56:32,0.738,1703.1,8.06,5.38,9.48,834.790,2045.930,104.666664,41.48,2.5324,355,23646,1.86932,3.82,39563,,,,,,,,,,,,,,,,,,99999,99999,99999,99999,99999,99999,99999,99999,99999,99999,99999,99999
36:43:40,1510541820,2017-11-13T02:57:02,0.737,1703.5,8.05,5.41,9.48,834.700,2045.910,104.233330,41.55,2.5325,355,23648,1.86604,3.82,39558,,,,,,,,,,,,,,,,,,99999,99999,99999,99999,99999,99999,99999,99999,99999,99999,99999,99999
36:44:10,1510541850,2017-11-13T02:57:32,0.744,1703.8,8.04,5.39,9.48,834.790,2045.870,105.933334,41.69,2.5325,355,23646,1.88334,3.82,39553,,,,,,,,,,,,,,,,,,99999,99999,99999,99999,99999,99999,99999,99999,99999,99999,99999,99999
36:44:40,1510541880,2017-11-13T02:58:02,0.742,1704.2,8.03,5.37,9.51,834.710,2045.870,103.883331,41.53,2.5326,355,23648,1.87976,3.82,39549,,,,,,,,,,,,,,,,,,99999,99999,99999,99999,99999,99999,99999,99999,99999,99999,99999,99999
36:45:10,1510541910,2017-11-13T02:58:32,0.739,1704.6,8.03,5.38,9.51,834.770,2045.870,103.633331,41.81,2.5326,355,23647,1.87081,3.82,39544,,,,,,,,,,,,,,,,,,99999,99999,99999,99999,99999,99999,99999,99999,99999,99999,99999,99999
36:45:40,1510541940,2017-11-13T02:59:02,0.744,1705.0,8.01,5.35,9.48,834.850,2045.770,104.616669,41.70,2.5327,355,23650,1.88364,3.82,39539,,,,,,,,,,,,,,,,,,99999,99999,99999,99999,99999,99999,99999,99999,99999,99999,99999,99999
36:46:10,1510541970,2017-11-13T02:59:32,0.742,1705.3,7.99,5.34,9.47,834.880,2045.700,104.616669,41.60,2.5328,355,23645,1.87946,3.82,39535,,,,,,,,,,,,,,,,,,99999,99999,99999,99999,99999,99999,99999,99999,99999,99999,99999,99999
36:46:40,1510542000,2017-11-13T03:00:02,0.746,1705.7,7.97,5.32,9.44,834.860,2045.640,104.599998,41.60,2.5329,355,23647,1.88843,3.82,39530,,,,,,,,,,,,,,,,,,99999,99999,99999,99999,99999,99999,99999,99999,99999,99999,99999,99999
36:47:10,1510542030,2017-11-13T03:00:32,0.743,1706.1,7.96,5.31,9.44,834.720,2045.580,105.833336,41.36,2.5329,355,23643,1.88155,3.82,39525,,,,,,,,,,,,,,,,,,99999,99999,99999,99999,99999,99999,99999,99999,99999,99999,99999,99999
36:47:40,1510542060,2017-11-13T03:01:02,0.744,1706.4,7.95,5.30,9.43,834.720,2045.540,104.783333,41.34,2.5330,355,23646,1.88364,3.82,39521,,,,,,,,,,,,,,,,,,99999,99999,99999,99999,99999,99999,99999,99999,99999,99999,99999,99999
36:48:10,1510542090,2017-11-13T03:01:32,0.742,1706.8,7.93,5.28,9.40,834.760,2045.470,104.816666,40.85,2.5331,355,23647,1.87946,3.82,39516,,,,,,,,,,,,,,,,,,99999,99999,99999,99999,99999,99999,99999,99999,99999,99999,99999,99999
36:48:40,1510542120,2017-11-13T03:02:02,0.738,1707.2,7.91,5.30,9.39,834.820,2045.410,102.933334,40.54,2.5332,355,23644,1.86872,3.82,39511,,,,,,,,,,,,,,,,,,99999,99999,99999,99999,99999,99999,99999,99999,99999,99999,99999,99999
36:49:10,1510542150,2017-11-13T03:02:32,0.744,1707.6,7.91,5.27,9.38,834.790,2045.410,105.616669,40.67,2.5332,355,23645,1.88484,3.82,39507,,,,,,,,,,,,,,,,,,99999,99999,99999,99999,99999,99999,99999,99999,99999,99999,99999,99999
36:49:40,1510542180,2017-11-13T03:03:02,0.738,1707.9,7.89,5.27,9.38,834.800,2045.310,103.750000,40.57,2.5333,355,23643,1.86872,3.82,39502,,,,,,,,,,,,,,,,,,99999,99999,99999,99999,99999,99999,99999,99999,99999,99999,99999,99999
36:50:10,1510542210,2017-11-13T03:03:32,0.745,1708.3,7.89,5.25,9.38,834.770,2045.310,105.116669,40.57,2.5333,355,23645,1.88753,3.81,39497,,,,,,,,,,,,,,,,,,99999,99999,99999,99999,99999,99999,99999,99999,99999,99999,99999,99999
36:50:40,1510542240,2017-11-13T03:04:02,0.744,1708.7,7.88,5.26,9.36,834.850,2045.310,104.816666,40.73,2.5334,355,23643,1.88364,3.81,39492,,,,,,,,,,,,,,,,,,99999,99999,99999,99999,99999,99999,99999,99999,99999,99999,99999,99999
36:51:10,1510542270,2017-11-13T03:04:32,0.744,1709.0,7.89,5.25,9.39,834.820,2045.310,105.183334,40.81,2.5333,355,23643,1.88484,3.82,39488,,,,,,,,,,,,,,,,,,99999,99999,99999,99999,99999,99999,99999,99999,99999,99999,99999,99999
36:51:40,1510542300,2017-11-13T03:05:02,0.744,1709.4,7.88,5.25,9.36,834.780,2045.310,104.550003,40.66,2.5334,355,23644,1.88574,3.81,39483,,,,,,,,,,,,,,,,,,99999,99999,99999,99999,99999,99999,99999,99999,99999,99999,99999,99999
36:52:10,1510542330,2017-11-13T03:05:32,0.739,1709.8,7.88,5.25,9.34,834.750,2045.310,103.099998,40.92,2.5333,355,23643,1.87170,3.81,39478,,,,,,,,,,,,,,,,,,99999,99999,99999,99999,99999,99999,99999,99999,99999,99999,99999,99999
36:52:40,1510542360,2017-11-13T03:06:02,0.737,1710.2,7.88,5.28,9.32,834.780,2045.310,103.800003,41.38,2.5333,355,23644,1.86753,3.81,39474,,,,,,,,,,,,,,,,,,99999,99999,99999,99999,99999,99999,99999,99999,99999,99999,99999,99999
36:53:10,1510542390,2017-11-13T03:06:32,0.745,1710.5,7.87,5.26,9.32,834.830,2045.240,104.383331,41.64,2.5333,355,23643,1.88693,3.81,39469,,,,,,,,,,,,,,,,,,99999,99999,99999,99999,99999,99999,99999,99999,99999,99999,99999,99999
36:53:40,1510542420,2017-11-13T03:07:02,0.745,1710.9,7.88,5.25,9.34,834.830,2045.310,104.300003,42.05,2.5333,355,23645,1.88753,3.81,39464,,,,,,,,,,,,,,,,,,99999,99999,99999,99999,99999,99999,99999,99999,99999,99999,99999,99999
36:54:10,1510542450,2017-11-13T03:07:32,0.739,1711.3,7.88,5.26,9.34,834.830,2045.310,102.766670,42.34,2.5333,355,23644,1.87260,3.81,39460,,,,,,,,,,,,,,,,,,99999,99999,99999,99999,99999,99999,99999,99999,99999,99999,99999,99999
36:54:40,1510542480,2017-11-13T03:08:02,0.736,1711.6,7.88,5.26,9.32,834.800,2045.310,103.949997,42.16,2.5333,355,23644,1.86545,3.81,39455,,,,,,,,,,,,,,,,,,99999,99999,99999,99999,99999,99999,99999,99999,99999,99999,99999,99999
36:55:10,1510542510,2017-11-13T03:08:32,0.744,1712.0,7.87,5.25,9.34,834.850,2045.240,104.216667,41.92,2.5333,355,23644,1.88364,3.81,39450,,,,,,,,,,,,,,,,,,99999,99999,99999,99999,99999,99999,99999,99999,99999,99999,99999,99999
36:55:40,1510542540,2017-11-13T03:09:02,0.743,1712.4,7.87,5.27,9.32,834.880,2045.240,105.616669,41.71,2.5333,355,23644,1.88334,3.81,39446,,,,,,,,,,,,,,,,,,99999,99999,99999,99999,99999,99999,99999,99999,99999,99999,99999,99999
36:56:10,1510542570,2017-11-13T03:09:32,0.745,1712.7,7.87,5.26,9.31,834.780,2045.240,103.866669,41.84,2.5333,355,23645,1.88634,3.81,39441,,,,,,,,,,,,,,,,,,99999,99999,99999,99999,99999,99999,99999,99999,99999,99999,99999,99999
36:56:40,1510542600,2017-11-13T03:10:02,0.737,1713.1,7.86,5.27,9.31,834.780,2045.240,103.666664,41.78,2.5334,355,23642,1.86604,3.81,39436,,,,,,,,,,,,,,,,,,99999,99999,99999,99999,99999,99999,99999,99999,99999,99999,99999,99999
36:57:10,1510542630,2017-11-13T03:10:32,0.742,1713.5,7.86,5.26,9.30,834.780,2045.240,105.500000,41.49,2.5334,355,23645,1.88065,3.81,39432,,,,,,,,,,,,,,,,,,99999,99999,99999,99999,99999,99999,99999,99999,99999,99999,99999,99999
36:57:40,1510542660,2017-11-13T03:11:02,0.738,1713.9,7.86,5.23,9.31,834.860,2045.240,103.166664,41.00,2.5334,355,23643,1.86932,3.81,39427,,,,,,,,,,,,,,,,,,99999,99999,99999,99999,99999,99999,99999,99999,99999,99999,99999,99999
36:58:10,1510542690,2017-11-13T03:11:32,0.743,1714.2,7.86,5.25,9.31,834.800,2045.240,104.166664,41.07,2.5334,355,23644,1.88155,3.81,39422,,,,,,,,,,,,,,,,,,99999,99999,99999,99999,99999,99999,99999,99999,99999,99999,99999,99999
36:58:40,1510542720,2017-11-13T03:12:02,0.744,1714.6,7.86,5.23,9.32,834.830,2045.240,105.533333,40.96,2.5334,355,23646,1.88454,3.81,39417,,,,,,,,,,,,,,,,,,99999,99999,99999,99999,99999,99999,99999,99999,99999,99999,99999,99999
36:59:10,1510542750,2017-11-13T03:12:32,0.737,1715.0,7.85,5.24,9.32,834.760,2045.200,104.066666,40.70,2.5335,355,23640,1.86783,3.81,39413,,,,,,,,,,,,,,,,,,99999,99999,99999,99999,99999,99999,99999,99999,99999,99999,99999,99999
36:59:40,1510542780,2017-11-13T03:13:02,0.743,1715.3,7.86,5.26,9.31,834.860,2045.240,104.333336,40.72,2.5335,355,23644,1.88215,3.81,39408,,,,,,,,,,,,,,,,,,99999,99999,99999,99999,99999,99999,99999,99999,99999,99999,99999,99999
37:00:10,1510542810,2017-11-13T03:13:32,0.737,1715.7,7.86,5.24,9.31,834.780,2045.240,102.833336,41.12,2.5334,355,23642,1.86634,3.81,39403,,,,,,,,,,,,,,,,,,99999,99999,99999,99999,99999,99999,99999,99999,99999,99999,99999,99999
37:00:40,1510542840,2017-11-13T03:14:02,0.741,1716.1,7.85,5.25,9.30,834.760,2045.200,104.866669,41.30,2.5335,355,23643,1.87797,3.81,39399,,,,,,,,,,,,,,,,,,99999,99999,99999,99999,99999,99999,99999,99999,99999,99999,99999,99999
37:01:10,1510542870,2017-11-13T03:14:32,0.741,1716.5,7.86,5.23,9.34,834.830,2045.240,102.966667,41.35,2.5334,355,23645,1.87826,3.81,39394,,,,,,,,,,,,,,,,,,99999,99999,99999,99999,99999,99999,99999,99999,99999,99999,99999,99999
37:01:40,1510542900,2017-11-13T03:15:02,0.736,1716.8,7.86,5.24,9.31,834.750,2045.240,102.750000,41.09,2.5334,355,23644,1.86575,3.81,39389,,,,,,,,,,,,,,,,,,99999,99999,99999,99999,99999,99999,99999,99999,99999,99999,99999,99999
37:02:10,1510542930,2017-11-13T03:15:32,0.738,1717.2,7.87,5.23,9.30,834.750,2045.240,103.849998,40.84,2.5334,355,23645,1.86932,3.81,39385,,,,,,,,,,,,,,,,,,99999,99999,99999,99999,99999,99999,99999,99999,99999,99999,99999,99999
37:02:40,1510542960,2017-11-13T03:16:02,0.741,1717.6,7.86,5.24,9.31,834.700,2045.240,105.316666,40.70,2.5335,355,23644,1.87677,3.81,39380,,,,,,,,,,,,,,,,,,99999,99999,99999,99999,99999,99999,99999,99999,99999,99999,99999,99999
37:03:10,1510542990,2017-11-13T03:16:32,0.743,1717.9,7.86,5.27,9.31,834.720,2045.240,104.099998,40.84,2.5334,355,23642,1.88215,3.81,39375,,,,,,,,,,,,,,,,,,99999,99999,99999,99999,99999,99999,99999,99999,99999,99999,99999,99999
37:03:40,1510543020,2017-11-13T03:17:02,0.743,1718.3,7.86,5.26,9.31,834.620,2045.240,105.283333,40.85,2.5334,355,23645,1.88155,3.81,39371,,,,,,,,,,,,,,,,,,99999,99999,99999,99999,99999,99999,99999,99999,99999,99999,99999,99999
37:04:10,1510543050,2017-11-13T03:17:32,0.743,1718.7,7.87,5.25,9.34,834.750,2045.240,105.699997,40.93,2.5334,355,23646,1.88245,3.81,39366,,,,,,,,,,,,,,,,,,99999,99999,99999,99999,99999,99999,99999,99999,99999,99999,99999,99999
37:04:40,1510543080,2017-11-13T03:18:02,0.744,1719.1,7.88,5.29,9.31,834.670,2045.310,104.633331,41.14,2.5333,355,23645,1.88364,3.81,39361,,,,,,,,,,,,,,,,,,99999,99999,99999,99999,99999,99999,99999,99999,99999,99999,99999,99999
37:05:10,1510543110,2017-11-13T03:18:32,0.743,1719.4,7.88,5.25,9.32,834.640,2045.310,105.433334,41.23,2.5333,355,23643,1.88304,3.81,39357,,,,,,,,,,,,,,,,,,99999,99999,99999,99999,99999,99999,99999,99999,99999,99999,99999,99999
37:05:40,1510543140,2017-11-13T03:19:02,0.743,1719.8,7.89,5.29,9.32,834.710,2045.310,105.183334,41.18,2.5332,355,23646,1.88155,3.81,39352,,,,,,,,,,,,,,,,,,99999,99999,99999,99999,99999,99999,99999,99999,99999,99999,99999,99999
37:06:10,1510543170,2017-11-13T03:19:32,0.740,1720.2,7.90,5.27,9.32,834.710,2045.410,102.050003,41.19,2.5333,355,23646,1.87588,3.81,39347,,,,,,,,,,,,,,,,,,99999,99999,99999,99999,99999,99999,99999,99999,99999,99999,99999,99999
37:06:40,1510543200,2017-11-13T03:20:02,0.744,1720.5,7.90,5.29,9.36,834.710,2045.410,105.183334,41.16,2.5333,355,23645,1.88484,3.81,39343,,,,,,,,,,,,,,,,,,99999,99999,99999,99999,99999,99999,99999,99999,99999,99999,99999,99999
37:07:10,1510543230,2017-11-13T03:20:32,0.740,1720.9,7.91,5.31,9.36,834.690,2045.410,103.733330,41.09,2.5332,355,23645,1.87438,3.81,39338,,,,,,,,,,,,,,,,,,99999,99999,99999,99999,99999,99999,99999,99999,99999,99999,99999,99999
37:07:40,1510543260,2017-11-13T03:21:02,0.742,1721.3,7.92,5.30,9.36,834.710,2045.470,104.800003,41.10,2.5332,355,23645,1.88006,3.81,39333,,,,,,,,,,,,,,,,,,99999,99999,99999,99999,99999,99999,99999,99999,99999,99999,99999,99999
37:08:10,1510543290,2017-11-13T03:21:32,0.745,1721.6,7.93,5.33,9.34,834.790,2045.470,105.000000,41.35,2.5331,355,23644,1.88723,3.81,39328,,,,,,,,,,,,,,,,,,99999,99999,99999,99999,99999,99999,99999,99999,99999,99999,99999,99999
37:08:40,1510543320,2017-11-13T03:22:02,0.740,1722.0,7.95,5.32,9.40,834.760,2045.540,103.833336,41.24,2.5330,355,23647,1.87438,3.81,39324,,,,,,,,,,,,,,,,,,99999,99999,99999,99999,99999,99999,99999,99999,99999,99999,99999,99999
37:09:10,1510543350,2017-11-13T03:22:32,0.738,1722.4,7.94,5.33,9.40,834.700,2045.540,103.916664,41.49,2.5331,355,23646,1.86932,3.81,39319,,,,,,,,,,,,,,,,,,99999,99999,99999,99999,99999,99999,99999,99999,99999,99999,99999,99999
37:09:40,1510543380,2017-11-13T03:23:02,0.745,1722.8,7.95,5.32,9.40,834.760,2045.540,105.400002,41.31,2.5330,355,23645,1.88813,3.81,39314,,,,,,,,,,,,,,,,,,99999,99999,99999,99999,99999,99999,99999,99999,99999,99999,99999,99999
37:10:10,1510543410,2017-11-13T03:23:32,0.737,1723.1,7.96,5.33,9.40,834.790,2045.580,102.966667,41.50,2.5329,355,23644,1.86783,3.81,39310,,,,,,,,,,,,,,,,,,99999,99999,99999,99999,99999,99999,99999,99999,99999,99999,99999,99999
37:10:40,1510543440,2017-11-13T03:24:02,0.743,1723.5,7.96,5.33,9.39,834.680,2045.580,104.800003,41.74,2.5329,355,23645,1.88275,3.81,39305,,,,,,,,,,,,,,,,,,99999,99999,99999,99999,99999,99999,99999,99999,99999,99999,99999,99999
37:11:10,1510543470,2017-11-13T03:24:32,0.745,1723.9,7.97,5.35,9.43,834.810,2045.640,104.650002,41.75,2.5329,355,23644,1.88813,3.81,39300,,,,,,,,,,,,,,,,,,99999,99999,99999,99999,99999,99999,99999,99999,99999,99999,99999,99999
37:11:40,1510543500,2017-11-13T03:25:02,0.740,1724.2,7.97,5.32,9.39,834.830,2045.640,104.316666,41.83,2.5329,355,23645,1.87498,3.81,39296,,,,,,,,,,,,,,,,,,99999,99999,99999,99999,99999,99999,99999,99999,99999,99999,99999,99999
37:12:10,1510543530,2017-11-13T03:25:32,0.738,1724.6,7.98,5.37,9.43,834.830,2045.640,103.983330,42.16,2.5328,355,23645,1.86843,3.81,39291,,,,,,,,,,,,,,,,,,99999,99999,99999,99999,99999,99999,99999,99999,99999,99999,99999,99999
37:12:40,1510543560,2017-11-13T03:26:02,0.738,1725.0,7.98,5.33,9.45,834.770,2045.640,102.733330,41.83,2.5328,355,23647,1.86902,3.81,39286,,,,,,,,,,,,,,,,,,99999,99999,99999,99999,99999,99999,99999,99999,99999,99999,99999,99999
37:13:10,1510543590,2017-11-13T03:26:32,0.738,1725.4,7.98,5.35,9.43,834.800,2045.640,104.316666,41.69,2.5328,355,23645,1.86932,3.81,39282,,,,,,,,,,,,,,,,,,99999,99999,99999,99999,99999,99999,99999,99999,99999,99999,99999,99999
37:13:40,1510543620,2017-11-13T03:27:02,0.741,1725.7,7.97,5.35,9.40,834.670,2045.640,105.699997,41.69,2.5329,355,23647,1.87647,3.81,39277,,,,,,,,,,,,,,,,,,99999,99999,99999,99999,99999,99999,99999,99999,99999,99999,99999,99999
37:14:10,1510543650,2017-11-13T03:27:32,0.745,1726.1,7.97,5.36,9.43,834.780,2045.640,104.866669,41.97,2.5329,355,23648,1.88634,3.81,39272,,,,,,,,,,,,,,,,,,99999,99999,99999,99999,99999,99999,99999,99999,99999,99999,99999,99999
37:14:40,1510543680,2017-11-13T03:28:02,0.743,1726.5,7.98,5.33,9.40,834.800,2045.640,105.033333,41.95,2.5328,355,23647,1.88245,3.81,39268,,,,,,,,,,,,,,,,,,99999,99999,99999,99999,99999,99999,99999,99999,99999,99999,99999,99999
37:15:10,1510543710,2017-11-13T03:28:32,0.738,1726.8,7.96,5.33,9.44,834.790,2045.580,104.533333,41.79,2.5329,355,23645,1.87021,3.81,39263,,,,,,,,,,,,,,,,,,99999,99999,99999,99999,99999,99999,99999,99999,99999,99999,99999,99999
37:15:40,1510543740,2017-11-13T03:29:02,0.738,1727.2,7.96,5.31,9.38,834.790,2045.580,102.266670,41.97,2.5329,355,23643,1.87021,3.81,39258,,,,,,,,,,,,,,,,,,99999,99999,99999,99999,99999,99999,99999,99999,99999,99999,99999,99999
37:16:10,1510543770,2017-11-13T03:29:32,0.739,1727.6,7.94,5.31,9.39,834.820,2045.540,102.750000,41.85,2.5330,355,23646,1.87081,3.81,39254,,,,,,,,,,,,,,,,,,99999,99999,99999,99999,99999,99999,99999,99999,99999,99999,99999,99999
37:16:40,1510543800,2017-11-13T03:30:02,0.744,1728.0,7.93,5.32,9.38,834.730,2045.470,105.449997,41.83,2.5330,355,23643,1.88484,3.81,39249,,,,,,,,,,,,,,,,,,99999,99999,99999,99999,99999,99999,99999,99999,99999,99999,99999,99999
37:17:10,1510543830,2017-11-13T03:30:32,0.737,1728.3,7.94,5.29,9.36,834.790,2045.540,104.300003,41.76,2.5330,355,23643,1.86604,3.81,39244,,,,,,,,,,,,,,,,,,99999,99999,99999,99999,99999,99999,99999,99999,99999,99999,99999,99999
37:17:40,1510543860,2017-11-13T03:31:02,0.737,1728.7,7.92,5.29,9.38,834.730,2045.470,103.216667,41.83,2.5331,355,23645,1.86753,3.81,39239,,,,,,,,,,,,,,,,,,99999,99999,99999,99999,99999,99999,99999,99999,99999,99999,99999,99999
37:18:10,1510543890,2017-11-13T03:31:32,0.744,1729.1,7.91,5.29,9.39,834.820,2045.410,105.083336,41.89,2.5331,355,23644,1.88364,3.81,39235,,,,,,,,,,,,,,,,,,99999,99999,99999,99999,99999,99999,99999,99999,99999,99999,99999,99999
37:18:40,1510543920,2017-11-13T03:32:02,0.744,1729.4,7.90,5.28,9.34,834.820,2045.410,105.316666,41.96,2.5332,355,23644,1.88364,3.81,39230,,,,,,,,,,,,,,,,,,99999,99999,99999,99999,99999,99999,99999,99999,99999,99999,99999,99999
37:19:10,1510543950,2017-11-13T03:32:32,0.736,1729.8,7.90,5.27,9.34,834.770,2045.410,103.150002,41.93,2.5332,355,23643,1.86545,3.81,39225,,,,,,,,,,,,,,,,,,99999,99999,99999,99999,99999,99999,99999,99999,99999,99999,99999,99999
37:19:40,1510543980,2017-11-13T03:33:02,0.744,1730.2,7.89,5.27,9.40,834.710,2045.310,105.566666,41.90,2.5332,355,23643,1.88364,3.81,39221,,,,,,,,,,,,,,,,,,99999,99999,99999,99999,99999,99999,99999,99999,99999,99999,99999,99999
37:20:10,1510544010,2017-11-13T03:33:32,0.737,1730.5,7.88,5.28,9.34,834.750,2045.310,104.016670,41.73,2.5333,355,23642,1.86783,3.81,39216,,,,,,,,,,,,,,,,,,99999,99999,99999,99999,99999,99999,99999,99999,99999,99999,99999,99999
37:20:40,1510544040,2017-11-13T03:34:02,0.743,1730.9,7.87,5.27,9.32,834.830,2045.240,105.050003,41.73,2.5333,355,23641,1.88245,3.81,39211,,,,,,,,,,,,,,,,,,99999,99999,99999,99999,99999,99999,99999,99999,99999,99999,99999,99999
37:21:10,1510544070,2017-11-13T03:34:32,0.737,1731.3,7.87,5.23,9.32,834.800,2045.240,103.066666,41.59,2.5333,355,23643,1.86634,3.81,39207,,,,,,,,,,,,,,,,,,99999,99999,99999,99999,99999,99999,99999,99999,99999,99999,99999,99999
37:21:40,1510544100,2017-11-13T03:35:02,0.745,1731.7,7.87,5.26,9.32,834.800,2045.240,104.833336,41.88,2.5333,355,23642,1.88663,3.81,39202,,,,,,,,,,,,,,,,,,99999,99999,99999,99999,99999,99999,99999,99999,99999,99999,99999,99999
37:22:10,1510544130,2017-11-13T03:35:32,0.741,1732.0,7.86,5.23,9.31,834.830,2045.240,104.099998,41.83,2.5334,355,23642,1.87707,3.81,39197,,,,,,,,,,,,,,,,,,99999,99999,99999,99999,99999,99999,99999,99999,99999,99999,99999,99999
37:22:40,1510544160,2017-11-13T03:36:02,0.737,1732.4,7.87,5.25,9.31,834.710,2045.240,102.683334,41.93,2.5333,355,23641,1.86783,3.81,39193,,,,,,,,,,,,,,,,,,99999,99999,99999,99999,99999,99999,99999,99999,99999,99999,99999,99999
37:23:10,1510544190,2017-11-13T03:36:32,0.740,1732.8,7.86,5.23,9.31,834.750,2045.240,104.733330,41.88,2.5334,355,23640,1.87379,3.81,39188,,,,,,,,,,,,,,,,,,99999,99999,99999,99999,99999,99999,99999,99999,99999,99999,99999,99999
37:23:40,1510544220,2017-11-13T03:37:02,0.744,1733.1,7.86,5.23,9.30,834.830,2045.240,104.766670,41.77,2.5334,355,23643,1.88424,3.81,39183,,,,,,,,,,,,,,,,,,99999,99999,99999,99999,99999,99999,99999,99999,99999,99999,99999,99999
37:24:10,1510544250,2017-11-13T03:37:32,0.744,1733.5,7.85,5.23,9.30,834.680,2045.200,104.583336,41.97,2.5334,355,23642,1.88454,3.81,39179,,,,,,,,,,,,,,,,,,99999,99999,99999,99999,99999,99999,99999,99999,99999,99999,99999,99999
37:24:40,1510544280,2017-11-13T03:38:02,0.743,1733.9,7.85,5.21,9.31,834.680,2045.200,105.516670,42.21,2.5334,355,23641,1.88155,3.81,39174,,,,,,,,,,,,,,,,,,99999,99999,99999,99999,99999,99999,99999,99999,99999,99999,99999,99999
37:25:10,1510544310,2017-11-13T03:38:32,0.736,1734.3,7.85,5.19,9.28,834.720,2045.200,103.033333,41.82,2.5334,355,23640,1.86545,3.81,39169,,,,,,,,,,,,,,,,,,99999,99999,99999,99999,99999,99999,99999,99999,99999,99999,99999,99999
37:25:40,1510544340,2017-11-13T03:39:02,0.744,1734.6,7.85,5.22,9.26,834.680,2045.200,104.716667,42.56,2.5334,355,23641,1.88484,3.81,39165,,,,,,,,,,,,,,,,,,99999,99999,99999,99999,99999,99999,99999,99999,99999,99999,99999,99999
37:26:10,1510544370,2017-11-13T03:39:32,0.736,1735.0,7.85,5.22,9.30,834.700,2045.200,103.033333,42.30,2.5334,355,23643,1.86515,3.81,39160,,,,,,,,,,,,,,,,,,99999,99999,99999,99999,99999,99999,99999,99999,99999,99999,99999,99999
37:26:40,1510544400,2017-11-13T03:40:02,0.743,1735.4,7.85,5.20,9.24,834.720,2045.200,103.133331,42.35,2.5334,355,23643,1.88125,3.81,39155,,,,,,,,,,,,,,,,,,99999,99999,99999,99999,99999,99999,99999,99999,99999,99999,99999,99999
37:27:10,1510544430,2017-11-13T03:40:32,0.744,1735.7,7.84,5.21,9.31,834.780,2045.140,105.233330,42.61,2.5334,355,23640,1.88484,3.81,39150,,,,,,,,,,,,,,,,,,99999,99999,99999,99999,99999,99999,99999,99999,99999,99999,99999,99999
37:27:40,1510544460,2017-11-13T03:41:02,0.743,1736.1,7.83,5.22,9.28,834.690,2045.140,105.016670,42.23,2.5335,355,23639,1.88155,3.81,39146,,,,,,,,,,,,,,,,,,99999,99999,99999,99999,99999,99999,99999,99999,99999,99999,99999,99999
37:28:10,1510544490,2017-11-13T03:41:32,0.744,1736.5,7.82,5.20,9.26,834.660,2045.080,105.233330,42.27,2.5335,355,23643,1.88424,3.81,39141,,,,,,,,,,,,,,,,,,99999,99999,99999,99999,99999,99999,99999,99999,99999,99999,99999,99999
37:28:40,1510544520,2017-11-13T03:42:02,0.741,1736.9,7.83,5.18,9.26,834.700,2045.140,105.766670,42.24,2.5335,355,23639,1.87797,3.81,39136,,,,,,,,,,,,,,,,,,99999,99999,99999,99999,99999,99999,99999,99999,99999,99999,99999,99999
37:29:10,1510544550,2017-11-13T03:42:32,0.741,1737.2,7.82,5.20,9.26,834.660,2045.080,104.500000,42.40,2.5335,355,23640,1.87647,3.81,39132,,,,,,,,,,,,,,,,,,99999,99999,99999,99999,99999,99999,99999,99999,99999,99999,99999,99999
37:29:40,1510544580,2017-11-13T03:43:02,0.735,1737.6,7.83,5.20,9.24,834.730,2045.140,103.633331,42.39,2.5335,355,23638,1.86248,3.81,39127,,,,,,,,,,,,,,,,,,99999,99999,99999,99999,99999,99999,99999,99999,99999,99999,99999,99999
37:30:10,1510544610,2017-11-13T03:43:32,0.740,1738.0,7.82,5.17,9.26,834.760,2045.080,105.000000,42.42,2.5335,355,23640,1.87409,3.81,39122,,,,,,,,,,,,,,,,,,99999,99999,99999,99999,99999,99999,99999,99999,99999,99999,99999,99999
37:30:40,1510544640,2017-11-13T03:44:02,0.743,1738.3,7.82,5.19,9.26,834.630,2045.080,105.449997,42.44,2.5335,355,23641,1.88215,3.81,39118,,,,,,,,,,,,,,,,,,99999,99999,99999,99999,99999,99999,99999,99999,99999,99999,99999,99999
37:31:10,1510544670,2017-11-13T03:44:32,0.743,1738.7,7.82,5.18,9.26,834.680,2045.080,103.916664,42.76,2.5335,355,23641,1.88245,3.81,39113,,,,,,,,,,,,,,,,,,99999,99999,99999,99999,99999,99999,99999,99999,99999,99999,99999,99999
37:31:40,1510544700,2017-11-13T03:45:02,0.742,1739.1,7.80,5.20,9.24,834.660,2045.040,105.083336,42.55,2.5337,355,23640,1.87916,3.81,39108,,,,,,,,,,,,,,,,,,99999,99999,99999,99999,99999,99999,99999,99999,99999,99999,99999,99999
37:32:10,1510544730,2017-11-13T03:45:32,0.739,1739.4,7.82,5.17,9.26,834.700,2045.080,103.050003,42.78,2.5335,355,23640,1.87230,3.81,39104,,,,,,,,,,,,,,,,,,99999,99999,99999,99999,99999,99999,99999,99999,99999,99999,99999,99999
37:32:40,1510544760,2017-11-13T03:46:02,0.742,1739.8,7.82,5.18,9.26,834.700,2045.080,105.199997,42.78,2.5335,355,23639,1.87916,3.81,39099,,,,,,,,,,,,,,,,,,99999,99999,99999,99999,99999,99999,99999,99999,99999,99999,99999,99999
37:33:10,1510544790,2017-11-13T03:46:32,0.738,1740.2,7.82,5.21,9.24,834.820,2045.080,102.816666,42.47,2.5335,355,23638,1.86962,3.81,39094,,,,,,,,,,,,,,,,,,99999,99999,99999,99999,99999,99999,99999,99999,99999,99999,99999,99999
37:33:40,1510544820,2017-11-13T03:47:02,0.744,1740.6,7.82,5.20,9.24,834.700,2045.080,105.516670,42.47,2.5335,355,23641,1.88394,3.81,39090,,,,,,,,,,,,,,,,,,99999,99999,99999,99999,99999,99999,99999,99999,99999,99999,99999,99999
37:34:10,1510544850,2017-11-13T03:47:32,0.736,1740.9,7.82,5.22,9.30,834.730,2045.080,103.216667,42.43,2.5335,355,23642,1.86456,3.81,39085,,,,,,,,,,,,,,,,,,99999,99999,99999,99999,99999,99999,99999,99999,99999,99999,99999,99999
37:34:40,1510544880,2017-11-13T03:48:02,0.742,1741.3,7.83,5.21,9.30,834.700,2045.140,104.133331,42.35,2.5335,355,23641,1.88035,3.81,39080,,,,,,,,,,,,,,,,,,99999,99999,99999,99999,99999,99999,99999,99999,99999,99999,99999,99999
37:35:10,1510544910,2017-11-13T03:48:32,0.744,1741.7,7.84,5.21,9.24,834.700,2045.140,105.050003,42.56,2.5334,355,23641,1.88364,3.81,39076,,,,,,,,,,,,,,,,,,99999,99999,99999,99999,99999,99999,99999,99999,99999,99999,99999,99999
37:35:40,1510544940,2017-11-13T03:49:02,0.743,1742.0,7.83,5.21,9.26,834.700,2045.140,104.400002,43.06,2.5335,355,23642,1.88275,3.81,39071,,,,,,,,,,,,,,,,,,99999,99999,99999,99999,99999,99999,99999,99999,99999,99999,99999,99999
37:36:10,1510544970,2017-11-13T03:49:32,0.736,1742.4,7.83,5.21,9.28,834.660,2045.140,103.483330,42.76,2.5335,355,23642,1.86486,3.81,39066,,,,,,,,,,,,,,,,,,99999,99999,99999,99999,99999,99999,99999,99999,99999,99999,99999,99999
37:36:40,1510545000,2017-11-13T03:50:02,0.738,1742.8,7.83,5.22,9.30,834.690,2045.140,103.683334,42.88,2.5335,355,23642,1.87021,3.81,39061,,,,,,,,,,,,,,,,,,99999,99999,99999,99999,99999,99999,99999,99999,99999,99999,99999,99999
37:37:10,1510545030,2017-11-13T03:50:32,0.741,1743.1,7.83,5.21,9.31,834.700,2045.140,104.066666,42.99,2.5335,355,23642,1.87797,3.81,39057,,,,,,,,,,,,,,,,,,99999,99999,99999,99999,99999,99999,99999,99999,99999,99999,99999,99999
37:37:40,1510545060,2017-11-13T03:51:02,0.744,1743.5,7.83,5.22,9.26,834.690,2045.140,105.183334,43.02,2.5335,355,23642,1.88514,3.81,39052,,,,,,,,,,,,,,,,,,99999,99999,99999,99999,99999,99999,99999,99999,99999,99999,99999,99999
37:38:10,1510545090,2017-11-13T03:51:32,0.743,1743.9,7.82,5.20,9.26,834.630,2045.080,105.033333,42.84,2.5335,355,23642,1.88155,3.81,39047,,,,,,,,,,,,,,,,,,99999,99999,99999,99999,99999,99999,99999,99999,99999,99999,99999,99999
37:38:40,1510545120,2017-11-13T03:52:02,0.743,1744.3,7.82,5.19,9.26,834.680,2045.080,105.066666,42.64,2.5335,355,23643,1.88364,3.81,39043,,,,,,,,,,,,,,,,,,99999,99999,99999,99999,99999,99999,99999,99999,99999,99999,99999,99999
37:39:10,1510545150,2017-11-13T03:52:32,0.737,1744.6,7.82,5.21,9.24,834.630,2045.080,103.233330,42.52,2.5335,355,23642,1.86843,3.81,39038,,,,,,,,,,,,,,,,,,99999,99999,99999,99999,99999,99999,99999,99999,99999,99999,99999,99999
37:39:40,1510545180,2017-11-13T03:53:02,0.743,1745.0,7.82,5.16,9.26,834.660,2045.080,105.133331,42.27,2.5335,355,23642,1.88215,3.81,39033,,,,,,,,,,,,,,,,,,99999,99999,99999,99999,99999,99999,99999,99999,99999,99999,99999,99999
37:40:10,1510545210,2017-11-13T03:53:32,0.737,1745.4,7.82,5.21,9.26,834.660,2045.080,102.833336,42.00,2.5336,355,23639,1.86634,3.81,39029,,,,,,,,,,,,,,,,,,99999,99999,99999,99999,99999,99999,99999,99999,99999,99999,99999,99999
37:40:40,1510545240,2017-11-13T03:54:02,0.743,1745.7,7.82,5.19,9.24,834.700,2045.080,105.166664,41.92,2.5336,355,23641,1.88334,3.81,39024,,,,,,,,,,,,,,,,,,99999,99999,99999,99999,99999,99999,99999,99999,99999,99999,99999,99999
37:41:10,1510545270,2017-11-13T03:54:32,0.745,1746.1,7.82,5.20,9.26,834.760,2045.080,104.683334,41.87,2.5336,355,23640,1.88663,3.81,39019,,,,,,,,,,,,,,,,,,99999,99999,99999,99999,99999,99999,99999,99999,99999,99999,99999,99999
37:41:40,1510545300,2017-11-13T03:55:02,0.744,1746.5,7.80,5.21,9.26,834.690,2045.040,104.966667,42.18,2.5337,355,23641,1.88604,3.81,39015,,,,,,,,,,,,,,,,,,99999,99999,99999,99999,99999,99999,99999,99999,99999,99999,99999,99999
37:42:10,1510545330,2017-11-13T03:55:32,0.744,1746.9,7.83,5.17,9.26,834.690,2045.140,105.183334,41.83,2.5335,355,23641,1.88454,3.81,39010,,,,,,,,,,,,,,,,,,99999,99999,99999,99999,99999,99999,99999,99999,99999,99999,99999,99999
37:42:40,1510545360,2017-11-13T03:56:02,0.741,1747.2,7.82,5.17,9.28,834.700,2045.080,103.500000,42.40,2.5335,355,23644,1.87618,3.81,39005,,,,,,,,,,,,,,,,,,99999,99999,99999,99999,99999,99999,99999,99999,99999,99999,99999,99999
37:43:10,1510545390,2017-11-13T03:56:32,0.736,1747.6,7.81,5.18,9.23,834.640,2045.080,103.449997,41.60,2.5337,355,23640,1.86456,3.81,39001,,,,,,,,,,,,,,,,,,99999,99999,99999,99999,99999,99999,99999,99999,99999,99999,99999,99999
37:43:40,1510545420,2017-11-13T03:57:02,0.736,1748.0,7.83,5.20,9.26,834.690,2045.140,103.166664,41.57,2.5336,355,23640,1.86515,3.81,38996,,,,,,,,,,,,,,,,,,99999,99999,99999,99999,99999,99999,99999,99999,99999,99999,99999,99999
37:44:10,1510545450,2017-11-13T03:57:32,0.741,1748.3,7.83,5.18,9.24,834.690,2045.140,104.716667,41.53,2.5336,355,23640,1.87797,3.81,38991,,,,,,,,,,,,,,,,,,99999,99999,99999,99999,99999,99999,99999,99999,99999,99999,99999,99999
37:44:40,1510545480,2017-11-13T03:58:02,0.743,1748.7,7.84,5.19,9.28,834.720,2045.140,104.699997,41.56,2.5335,355,23643,1.88155,3.81,38986,,,,,,,,,,,,,,,,,,99999,99999,99999,99999,99999,99999,99999,99999,99999,99999,99999,99999
37:45:10,1510545510,2017-11-13T03:58:32,0.742,1749.1,7.85,5.20,9.26,834.680,2045.200,104.433334,41.57,2.5335,355,23638,1.88095,3.81,38982,,,,,,,,,,,,,,,,,,99999,99999,99999,99999,99999,99999,99999,99999,99999,99999,99999,99999
37:45:40,1510545540,2017-11-13T03:59:02,0.740,1749.4,7.85,5.18,9.26,834.760,2045.200,103.599998,41.79,2.5334,355,23643,1.87498,3.81,38977,,,,,,,,,,,,,,,,,,99999,99999,99999,99999,99999,99999,99999,99999,99999,99999,99999,99999
37:46:10,1510545570,2017-11-13T03:59:32,0.736,1749.8,7.84,5.19,9.24,834.700,2045.140,103.016670,41.61,2.5335,355,23641,1.86515,3.81,38972,,,,,,,,,,,,,,,,,,99999,99999,99999,99999,99999,99999,99999,99999,99999,99999,99999,99999
37:46:40,1510545600,2017-11-13T04:00:02,0.739,1750.2,7.85,5.18,9.28,834.650,2045.200,104.150002,41.28,2.5335,355,23640,1.87200,3.81,38968,,,,,,,,,,,,,,,,,,99999,99999,99999,99999,99999,99999,99999,99999,99999,99999,99999,99999
37:47:10,1510545630,2017-11-13T04:00:32,0.741,1750.6,7.86,5.18,9.28,834.700,2045.240,103.699997,41.26,2.5334,355,23642,1.87677,3.81,38963,,,,,,,,,,,,,,,,,,99999,99999,99999,99999,99999,99999,99999,99999,99999,99999,99999,99999
37:47:40,1510545660,2017-11-13T04:01:02,0.744,1750.9,7.86,5.19,9.30,834.720,2045.240,105.116669,41.23,2.5334,355,23642,1.88544,3.81,38958,,,,,,,,,,,,,,,,,,99999,99999,99999,99999,99999,99999,99999,99999,99999,99999,99999,99999
37:48:10,1510545690,2017-11-13T04:01:32,0.741,1751.3,7.86,5.17,9.30,834.650,2045.240,104.833336,41.31,2.5334,355,23641,1.87707,3.80,38954,,,,,,,,,,,,,,,,,,99999,99999,99999,99999,99999,99999,99999,99999,99999,99999,99999,99999
37:48:40,1510545720,2017-11-13T04:02:02,0.739,1751.7,7.87,5.16,9.26,834.750,2045.240,103.900002,41.33,2.5333,355,23642,1.87290,3.80,38949,,,,,,,,,,,,,,,,,,99999,99999,99999,99999,99999,99999,99999,99999,99999,99999,99999,99999
37:49:10,1510545750,2017-11-13T04:02:32,0.736,1752.0,7.86,5.18,9.28,834.620,2045.240,103.349998,41.28,2.5334,355,23642,1.86486,3.80,38944,,,,,,,,,,,,,,,,,,99999,99999,99999,99999,99999,99999,99999,99999,99999,99999,99999,99999
37:49:40,1510545780,2017-11-13T04:03:02,0.743,1752.4,7.86,5.15,9.32,834.720,2045.240,105.099998,41.24,2.5334,355,23641,1.88215,3.80,38940,,,,,,,,,,,,,,,,,,99999,99999,99999,99999,99999,99999,99999,99999,99999,99999,99999,99999
37:50:10,1510545810,2017-11-13T04:03:32,0.736,1752.8,7.88,5.18,9.31,834.670,2045.310,103.016670,41.21,2.5333,355,23644,1.86337,3.80,38935,,,,,,,,,,,,,,,,,,99999,99999,99999,99999,99999,99999,99999,99999,99999,99999,99999,99999
37:50:40,1510545840,2017-11-13T04:04:02,0.741,1753.1,7.87,5.20,9.30,834.560,2045.240,104.616669,41.19,2.5333,355,23641,1.87767,3.80,38930,,,,,,,,,,,,,,,,,,99999,99999,99999,99999,99999,99999,99999,99999,99999,99999,99999,99999
37:51:10,1510545870,2017-11-13T04:04:32,0.744,1753.5,7.88,5.16,9.28,834.620,2045.310,105.150002,41.19,2.5333,355,23641,1.88514,3.80,38925,,,,,,,,,,,,,,,,,,99999,99999,99999,99999,99999,99999,99999,99999,99999,99999,99999,99999
37:51:40,1510545900,2017-11-13T04:05:02,0.743,1753.9,7.88,5.17,9.32,834.670,2045.310,104.266670,41.28,2.5333,355,23642,1.88125,3.80,38921,,,,,,,,,,,,,,,,,,99999,99999,99999,99999,99999,99999,99999,99999,99999,99999,99999,99999
37:52:10,1510545930,2017-11-13T04:05:32,0.742,1754.3,7.89,5.19,9.31,834.640,2045.310,104.000000,41.28,2.5332,355,23643,1.87976,3.80,38916,,,,,,,,,,,,,,,,,,99999,99999,99999,99999,99999,99999,99999,99999,99999,99999,99999,99999
37:52:40,1510545960,2017-11-13T04:06:02,0.742,1754.6,7.88,5.17,9.31,834.590,2045.310,103.316666,41.30,2.5333,355,23643,1.88065,3.80,38911,,,,,,,,,,,,,,,,,,99999,99999,99999,99999,99999,99999,99999,99999,99999,99999,99999,99999
37:53:10,1510545990,2017-11-13T04:06:32,0.742,1755.0,7.88,5.17,9.31,834.560,2045.310,104.883331,41.23,2.5333,355,23640,1.88006,3.80,38907,,,,,,,,,,,,,,,,,,99999,99999,99999,99999,99999,99999,99999,99999,99999,99999,99999,99999
37:53:40,1510546020,2017-11-13T04:07:02,0.736,1755.4,7.88,5.18,9.32,834.640,2045.310,102.849998,41.21,2.5333,355,23639,1.86545,3.80,38902,,,,,,,,,,,,,,,,,,99999,99999,99999,99999,99999,99999,99999,99999,99999,99999,99999,99999
37:54:10,1510546050,2017-11-13T04:07:32,0.743,1755.7,7.88,5.18,9.31,834.640,2045.310,105.816666,41.22,2.5333,355,23641,1.88185,3.80,38897,,,,,,,,,,,,,,,,,,99999,99999,99999,99999,99999,99999,99999,99999,99999,99999,99999,99999
37:54:40,1510546080,2017-11-13T04:08:02,0.746,1756.1,7.89,5.15,9.31,834.670,2045.310,103.816666,41.42,2.5332,355,23642,1.88963,3.80,38893,,,,,,,,,,,,,,,,,,99999,99999,99999,99999,99999,99999,99999,99999,99999,99999,99999,99999
37:55:10,1510546110,2017-11-13T04:08:32,0.745,1756.5,7.89,5.17,9.30,834.690,2045.310,104.349998,41.41,2.5332,355,23639,1.88813,3.80,38888,,,,,,,,,,,,,,,,,,99999,99999,99999,99999,99999,99999,99999,99999,99999,99999,99999,99999
37:55:40,1510546140,2017-11-13T04:09:02,0.744,1756.9,7.88,5.16,9.31,834.620,2045.310,105.566666,41.35,2.5333,355,23640,1.88604,3.80,38883,,,,,,,,,,,,,,,,,,99999,99999,99999,99999,99999,99999,99999,99999,99999,99999,99999,99999
37:56:10,1510546170,2017-11-13T04:09:32,0.744,1757.2,7.87,5.16,9.30,834.640,2045.240,105.349998,41.73,2.5333,355,23642,1.88484,3.80,38878,,,,,,,,,,,,,,,,,,99999,99999,99999,99999,99999,99999,99999,99999,99999,99999,99999,99999
37:56:40,1510546200,2017-11-13T04:10:02,0.739,1757.6,7.88,5.17,9.30,834.590,2045.310,103.633331,41.44,2.5333,355,23641,1.87111,3.80,38874,,,,,,,,,,,,,,,,,,99999,99999,99999,99999,99999,99999,99999,99999,99999,99999,99999,99999
37:57:10,1510546230,2017-11-13T04:10:32,0.739,1758.0,7.88,5.18,9.34,834.620,2045.310,104.983330,41.32,2.5333,355,23641,1.87140,3.80,38869,,,,,,,,,,,,,,,,,,99999,99999,99999,99999,99999,99999,99999,99999,99999,99999,99999,99999
37:57:40,1510546260,2017-11-13T04:11:02,0.737,1758.3,7.88,5.17,9.31,834.670,2045.310,103.849998,41.36,2.5333,355,23642,1.86753,3.80,38864,,,,,,,,,,,,,,,,,,99999,99999,99999,99999,99999,99999,99999,99999,99999,99999,99999,99999
37:58:10,1510546290,2017-11-13T04:11:32,0.737,1758.7,7.87,5.15,9.31,834.700,2045.240,103.066666,41.33,2.5333,355,23641,1.86664,3.80,38860,,,,,,,,,,,,,,,,,,99999,99999,99999,99999,99999,99999,99999,99999,99999,99999,99999,99999
37:58:40,1510546320,2017-11-13T04:12:02,0.740,1759.1,7.88,5.16,9.31,834.640,2045.310,103.449997,41.52,2.5333,355,23644,1.87379,3.80,38855,,,,,,,,,,,,,,,,,,99999,99999,99999,99999,99999,99999,99999,99999,99999,99999,99999,99999
37:59:10,1510546350,2017-11-13T04:12:32,0.744,1759.5,7.88,5.19,9.31,834.590,2045.310,105.316666,41.34,2.5333,355,23643,1.88484,3.80,38850,,,,,,,,,,,,,,,,,,99999,99999,99999,99999,99999,99999,99999,99999,99999,99999,99999,99999
37:59:40,1510546380,2017-11-13T04:13:02,0.739,1759.8,7.86,5.18,9.26,834.650,2045.240,104.366669,41.23,2.5334,355,23642,1.87140,3.80,38846,,,,,,,,,,,,,,,,,,99999,99999,99999,99999,99999,99999,99999,99999,99999,99999,99999,99999
38:00:10,1510546410,2017-11-13T04:13:32,0.735,1760.2,7.88,5.17,9.30,834.700,2045.310,103.300003,41.32,2.5333,355,23642,1.86307,3.80,38841,,,,,,,,,,,,,,,,,,99999,99999,99999,99999,99999,99999,99999,99999,99999,99999,99999,99999
38:00:40,1510546440,2017-11-13T04:14:02,0.736,1760.6,7.87,5.18,9.32,834.700,2045.240,103.400002,41.54,2.5333,355,23640,1.86515,3.80,38836,,,,,,,,,,,,,,,,,,99999,99999,99999,99999,99999,99999,99999,99999,99999,99999,99999,99999
38:01:10,1510546470,2017-11-13T04:14:32,0.736,1760.9,7.87,5.16,9.30,834.670,2045.240,102.966667,41.40,2.5333,355,23642,1.86367,3.80,38831,,,,,,,,,,,,,,,,,,99999,99999,99999,99999,99999,99999,99999,99999,99999,99999,99999,99999
38:01:40,1510546500,2017-11-13T04:15:02,0.738,1761.3,7.87,5.17,9.31,834.670,2045.240,103.050003,41.28,2.5333,355,23639,1.86932,3.80,38827,,,,,,,,,,,,,,,,,,99999,99999,99999,99999,99999,99999,99999,99999,99999,99999,99999,99999
38:02:10,1510546530,2017-11-13T04:15:32,0.738,1761.7,7.87,5.13,9.31,834.590,2045.240,103.216667,41.66,2.5333,355,23640,1.86872,3.80,38822,,,,,,,,,,,,,,,,,,99999,99999,99999,99999,99999,99999,99999,99999,99999,99999,99999,99999
38:02:40,1510546560,2017-11-13T04:16:02,0.740,1762.0,7.87,5.17,9.30,834.540,2045.240,103.533333,41.49,2.5333,355,23641,1.87379,3.80,38817,,,,,,,,,,,,,,,,,,99999,99999,99999,99999,99999,99999,99999,99999,99999,99999,99999,99999
38:03:10,1510546590,2017-11-13T04:16:32,0.736,1762.4,7.87,5.17,9.32,834.620,2045.240,103.116669,41.41,2.5333,355,23641,1.86575,3.80,38813,,,,,,,,,,,,,,,,,,99999,99999,99999,99999,99999,99999,99999,99999,99999,99999,99999,99999
38:03:40,1510546620,2017-11-13T04:17:02,0.737,1762.8,7.86,5.17,9.26,834.590,2045.240,104.216667,41.49,2.5334,355,23640,1.86634,3.80,38808,,,,,,,,,,,,,,,,,,99999,99999,99999,99999,99999,99999,99999,99999,99999,99999,99999,99999
38:04:10,1510546650,2017-11-13T04:17:32,0.738,1763.2,7.86,5.17,9.28,834.560,2045.240,104.533333,41.37,2.5334,355,23641,1.87081,3.80,38803,,,,,,,,,,,,,,,,,,99999,99999,99999,99999,99999,99999,99999,99999,99999,99999,99999,99999
38:04:40,1510546680,2017-11-13T04:18:02,0.739,1763.5,7.87,5.18,9.30,834.540,2045.240,104.349998,41.38,2.5333,355,23643,1.87111,3.80,38799,,,,,,,,,,,,,,,,,,99999,99999,99999,99999,99999,99999,99999,99999,99999,99999,99999,99999
38:05:10,1510546710,2017-11-13T04:18:32,0.738,1763.9,7.86,5.15,9.32,834.560,2045.240,104.750000,41.48,2.5334,355,23642,1.86962,3.80,38794,,,,,,,,,,,,,,,,,,99999,99999,99999,99999,99999,99999,99999,99999,99999,99999,99999,99999
38:05:40,1510546740,2017-11-13T04:19:02,0.736,1764.3,7.87,5.16,9.31,834.640,2045.240,103.933334,41.38,2.5333,355,23643,1.86367,3.80,38789,,,,,,,,,,,,,,,,,,99999,99999,99999,99999,99999,99999,99999,99999,99999,99999,99999,99999
38:06:10,1510546770,2017-11-13T04:19:32,0.737,1764.6,7.86,5.18,9.30,834.560,2045.240,103.800003,41.41,2.5334,355,23640,1.86694,3.80,38784,,,,,,,,,,,,,,,,,,99999,99999,99999,99999,99999,99999,99999,99999,99999,99999,99999,99999
38:06:40,1510546800,2017-11-13T04:20:02,0.738,1765.0,7.87,5.16,9.30,834.640,2045.240,104.366669,41.32,2.5333,355,23641,1.86872,3.80,38780,,,,,,,,,,,,,,,,,,99999,99999,99999,99999,99999,99999,99999,99999,99999,99999,99999,99999
38:07:10,1510546830,2017-11-13T04:20:32,0.742,1765.4,7.87,5.17,9.26,834.480,2045.240,104.550003,41.29,2.5333,355,23640,1.87976,3.80,38775,,,,,,,,,,,,,,,,,,99999,99999,99999,99999,99999,99999,99999,99999,99999,99999,99999,99999
38:07:40,1510546860,2017-11-13T04:21:02,0.743,1765.7,7.87,5.15,9.28,834.620,2045.240,104.566666,41.29,2.5333,355,23643,1.88334,3.80,38770,,,,,,,,,,,,,,,,,,99999,99999,99999,99999,99999,99999,99999,99999,99999,99999,99999,99999
38:08:10,1510546890,2017-11-13T04:21:32,0.739,1766.1,7.87,5.15,9.31,834.590,2045.240,103.550003,41.26,2.5333,355,23642,1.87319,3.80,38766,,,,,,,,,,,,,,,,,,99999,99999,99999,99999,99999,99999,99999,99999,99999,99999,99999,99999
38:08:40,1510546920,2017-11-13T04:22:02,0.737,1766.5,7.87,5.17,9.31,834.590,2045.240,103.050003,41.32,2.5333,355,23640,1.86783,3.80,38761,,,,,,,,,,,,,,,,,,99999,99999,99999,99999,99999,99999,99999,99999,99999,99999,99999,99999
38:09:10,1510546950,2017-11-13T04:22:32,0.738,1766.9,7.87,5.16,9.32,834.560,2045.240,103.533333,41.33,2.5333,355,23643,1.86843,3.80,38756,,,,,,,,,,,,,,,,,,99999,99999,99999,99999,99999,99999,99999,99999,99999,99999,99999,99999
38:09:40,1510546980,2017-11-13T04:23:02,0.742,1767.2,7.87,5.16,9.28,834.590,2045.240,105.266670,41.33,2.5333,355,23641,1.87916,3.80,38752,,,,,,,,,,,,,,,,,,99999,99999,99999,99999,99999,99999,99999,99999,99999,99999,99999,99999
38:10:10,1510547010,2017-11-13T04:23:32,0.744,1767.6,7.86,5.18,9.30,834.480,2045.240,105.016670,41.43,2.5334,355,23643,1.88394,3.80,38747,,,,,,,,,,,,,,,,,,99999,99999,99999,99999,99999,99999,99999,99999,99999,99999,99999,99999
38:10:40,1510547040,2017-11-13T04:24:02,0.741,1768.0,7.87,5.16,9.28,834.590,2045.240,104.133331,41.37,2.5333,355,23643,1.87677,3.80,38742,,,,,,,,,,,,,,,,,,99999,99999,99999,99999,99999,99999,99999,99999,99999,99999,99999,99999
38:11:10,1510547070,2017-11-13T04:24:32,0.737,1768.3,7.87,5.17,9.30,834.620,2045.240,102.833336,41.41,2.5333,355,23642,1.86783,3.80,38738,,,,,,,,,,,,,,,,,,99999,99999,99999,99999,99999,99999,99999,99999,99999,99999,99999,99999
38:11:40,1510547100,2017-11-13T04:25:02,0.736,1768.7,7.86,5.15,9.30,834.590,2045.240,102.783333,41.37,2.5334,355,23642,1.86426,3.80,38733,,,,,,,,,,,,,,,,,,99999,99999,99999,99999,99999,99999,99999,99999,99999,99999,99999,99999
38:12:10,1510547130,2017-11-13T04:25:32,0.736,1769.1,7.86,5.18,9.26,834.590,2045.240,103.716667,41.41,2.5334,355,23640,1.86575,3.80,38728,,,,,,,,,,,,,,,,,,99999,99999,99999,99999,99999,99999,99999,99999,99999,99999,99999,99999
38:12:40,1510547160,2017-11-13T04:26:02,0.742,1769.5,7.87,5.16,9.30,834.590,2045.240,104.433334,41.35,2.5333,355,23638,1.87856,3.80,38723,,,,,,,,,,,,,,,,,,99999,99999,99999,99999,99999,99999,99999,99999,99999,99999,99999,99999
38:13:10,1510547190,2017-11-13T04:26:32,0.745,1769.8,7.86,5.17,9.30,834.540,2045.240,104.883331,41.34,2.5334,355,23641,1.88634,3.80,38719,,,,,,,,,,,,,,,,,,99999,99999,99999,99999,99999,99999,99999,99999,99999,99999,99999,99999
38:13:40,1510547220,2017-11-13T04:27:02,0.744,1770.2,7.86,5.17,9.28,834.540,2045.240,105.866669,41.31,2.5334,355,23638,1.88454,3.80,38714,,,,,,,,,,,,,,,,,,99999,99999,99999,99999,99999,99999,99999,99999,99999,99999,99999,99999
38:14:10,1510547250,2017-11-13T04:27:32,0.736,1770.6,7.86,5.16,9.31,834.520,2045.240,103.216667,41.46,2.5334,355,23642,1.86545,3.80,38709,,,,,,,,,,,,,,,,,,99999,99999,99999,99999,99999,99999,99999,99999,99999,99999,99999,99999
38:14:40,1510547280,2017-11-13T04:28:02,0.743,1770.9,7.86,5.16,9.28,834.520,2045.240,105.050003,41.48,2.5334,355,23640,1.88215,3.80,38705,,,,,,,,,,,,,,,,,,99999,99999,99999,99999,99999,99999,99999,99999,99999,99999,99999,99999
38:15:10,1510547310,2017-11-13T04:28:32,0.741,1771.3,7.86,5.17,9.28,834.460,2045.240,105.683334,41.17,2.5334,355,23639,1.87826,3.80,38700,,,,,,,,,,,,,,,,,,99999,99999,99999,99999,99999,99999,99999,99999,99999,99999,99999,99999
38:15:40,1510547340,2017-11-13T04:29:02,0.737,1771.7,7.86,5.16,9.31,834.520,2045.240,103.266670,41.62,2.5334,355,23641,1.86753,3.80,38695,,,,,,,,,,,,,,,,,,99999,99999,99999,99999,99999,99999,99999,99999,99999,99999,99999,99999
38:16:10,1510547370,2017-11-13T04:29:32,0.744,1772.0,7.87,5.18,9.30,834.480,2045.240,104.666664,41.85,2.5333,355,23640,1.88544,3.80,38691,,,,,,,,,,,,,,,,,,99999,99999,99999,99999,99999,99999,99999,99999,99999,99999,99999,99999
38:16:40,1510547400,2017-11-13T04:30:02,0.739,1772.4,7.86,5.17,9.28,834.480,2045.240,104.133331,41.37,2.5334,355,23640,1.87111,3.80,38686,,,,,,,,,,,,,,,,,,99999,99999,99999,99999,99999,99999,99999,99999,99999,99999,99999,99999
38:17:10,1510547430,2017-11-13T04:30:32,0.744,1772.8,7.87,5.17,9.31,834.480,2045.240,105.216667,41.73,2.5333,355,23641,1.88514,3.80,38681,,,,,,,,,,,,,,,,,,99999,99999,99999,99999,99999,99999,99999,99999,99999,99999,99999,99999
38:17:40,1510547460,2017-11-13T04:31:02,0.736,1773.2,7.88,5.19,9.30,834.540,2045.310,103.083336,41.64,2.5333,355,23641,1.86575,3.80,38676,,,,,,,,,,,,,,,,,,99999,99999,99999,99999,99999,99999,99999,99999,99999,99999,99999,99999
38:18:10,1510547490,2017-11-13T04:31:32,0.743,1773.5,7.88,5.20,9.28,834.480,2045.310,104.983330,41.70,2.5333,355,23643,1.88245,3.80,38672,,,,,,,,,,,,,,,,,,99999,99999,99999,99999,99999,99999,99999,99999,99999,99999,99999,99999
38:18:40,1510547520,2017-11-13T04:32:02,0.738,1773.9,7.86,5.20,9.30,834.460,2045.240,103.199997,41.65,2.5334,355,23641,1.86843,3.80,38667,,,,,,,,,,,,,,,,,,99999,99999,99999,99999,99999,99999,99999,99999,99999,99999,99999,99999
38:19:10,1510547550,2017-11-13T04:32:32,0.736,1774.3,7.88,5.17,9.31,834.510,2045.310,103.466667,41.60,2.5333,355,23641,1.86426,3.80,38662,,,,,,,,,,,,,,,,,,99999,99999,99999,99999,99999,99999,99999,99999,99999,99999,99999,99999
38:19:40,1510547580,2017-11-13T04:33:02,0.737,1774.6,7.88,5.20,9.31,834.540,2045.310,103.833336,41.64,2.5333,355,23640,1.86813,3.80,38658,,,,,,,,,,,,,,,,,,99999,99999,99999,99999,99999,99999,99999,99999,99999,99999,99999,99999
38:20:10,1510547610,2017-11-13T04:33:32,0.741,1775.0,7.89,5.22,9.31,834.530,2045.310,103.933334,41.80,2.5332,355,23641,1.87588,3.80,38653,,,,,,,,,,,,,,,,,,99999,99999,99999,99999,99999,99999,99999,99999,99999,99999,99999,99999
38:20:40,1510547640,2017-11-13T04:34:02,0.744,1775.4,7.87,5.20,9.30,834.480,2045.240,105.050003,41.78,2.5333,355,23644,1.88544,3.80,38648,,,,,,,,,,,,,,,,,,99999,99999,99999,99999,99999,99999,99999,99999,99999,99999,99999,99999
38:21:10,1510547670,2017-11-13T04:34:32,0.737,1775.8,7.88,5.21,9.31,834.540,2045.310,103.616669,41.63,2.5333,355,23641,1.86664,3.80,38644,,,,,,,,,,,,,,,,,,99999,99999,99999,99999,99999,99999,99999,99999,99999,99999,99999,99999
38:21:40,1510547700,2017-11-13T04:35:02,0.743,1776.1,7.88,5.20,9.32,834.560,2045.310,104.633331,41.55,2.5333,355,23643,1.88304,3.80,38639,,,,,,,,,,,,,,,,,,99999,99999,99999,99999,99999,99999,99999,99999,99999,99999,99999,99999
38:22:10,1510547730,2017-11-13T04:35:32,0.744,1776.5,7.87,5.20,9.28,834.540,2045.240,105.333336,41.56,2.5333,355,23643,1.88364,3.80,38634,,,,,,,,,,,,,,,,,,99999,99999,99999,99999,99999,99999,99999,99999,99999,99999,99999,99999
38:22:40,1510547760,2017-11-13T04:36:02,0.745,1776.9,7.86,5.20,9.32,834.520,2045.240,105.416664,41.70,2.5334,355,23644,1.88693,3.80,38629,,,,,,,,,,,,,,,,,,99999,99999,99999,99999,99999,99999,99999,99999,99999,99999,99999,99999
38:23:10,1510547790,2017-11-13T04:36:32,0.737,1777.2,7.86,5.20,9.34,834.520,2045.240,104.066666,41.65,2.5334,355,23643,1.86723,3.80,38625,,,,,,,,,,,,,,,,,,99999,99999,99999,99999,99999,99999,99999,99999,99999,99999,99999,99999
38:23:40,1510547820,2017-11-13T04:37:02,0.736,1777.6,7.87,5.23,9.28,834.540,2045.240,103.283333,41.63,2.5333,355,23643,1.86367,3.80,38620,,,,,,,,,,,,,,,,,,99999,99999,99999,99999,99999,99999,99999,99999,99999,99999,99999,99999
38:24:10,1510547850,2017-11-13T04:37:32,0.737,1778.0,7.86,5.21,9.26,834.520,2045.240,104.250000,41.59,2.5334,355,23640,1.86753,3.80,38615,,,,,,,,,,,,,,,,,,99999,99999,99999,99999,99999,99999,99999,99999,99999,99999,99999,99999
38:24:40,1510547880,2017-11-13T04:38:02,0.744,1778.3,7.86,5.21,9.30,834.460,2045.240,105.116669,41.70,2.5334,355,23643,1.88604,3.80,38611,,,,,,,,,,,,,,,,,,99999,99999,99999,99999,99999,99999,99999,99999,99999,99999,99999,99999
38:25:10,1510547910,2017-11-13T04:38:32,0.736,1778.7,7.85,5.18,9.31,834.480,2045.200,102.866669,41.74,2.5334,355,23641,1.86515,3.80,38606,,,,,,,,,,,,,,,,,,99999,99999,99999,99999,99999,99999,99999,99999,99999,99999,99999,99999
38:25:40,1510547940,2017-11-13T04:39:02,0.739,1779.1,7.85,5.19,9.31,834.440,2045.200,103.516670,41.57,2.5335,355,23642,1.87319,3.80,38601,,,,,,,,,,,,,,,,,,99999,99999,99999,99999,99999,99999,99999,99999,99999,99999,99999,99999
38:26:10,1510547970,2017-11-13T04:39:32,0.737,1779.5,7.84,5.18,9.26,834.560,2045.140,102.866669,41.60,2.5335,355,23643,1.86783,3.80,38596,,,,,,,,,,,,,,,,,,99999,99999,99999,99999,99999,99999,99999,99999,99999,99999,99999,99999
38:26:40,1510548000,2017-11-13T04:40:02,0.737,1779.8,7.83,5.16,9.28,834.490,2045.140,102.833336,41.39,2.5336,355,23640,1.86604,3.80,38592,,,,,,,,,,,,,,,,,,99999,99999,99999,99999,99999,99999,99999,99999,99999,99999,99999,99999
38:27:10,1510548030,2017-11-13T04:40:32,0.736,1780.2,7.82,5.17,9.26,834.490,2045.080,103.933334,41.65,2.5336,355,23641,1.86456,3.80,38587,,,,,,,,,,,,,,,,,,99999,99999,99999,99999,99999,99999,99999,99999,99999,99999,99999,99999
38:27:40,1510548060,2017-11-13T04:41:02,0.736,1780.6,7.82,5.17,9.28,834.530,2045.080,102.433334,41.58,2.5336,355,23642,1.86426,3.80,38582,,,,,,,,,,,,,,,,,,99999,99999,99999,99999,99999,99999,99999,99999,99999,99999,99999,99999
38:28:10,1510548090,2017-11-13T04:41:32,0.744,1780.9,7.82,5.15,9.28,834.530,2045.080,103.533333,42.11,2.5336,355,23642,1.88484,3.80,38578,,,,,,,,,,,,,,,,,,99999,99999,99999,99999,99999,99999,99999,99999,99999,99999,99999,99999
38:28:40,1510548120,2017-11-13T04:42:02,0.737,1781.3,7.79,5.17,9.19,834.470,2045.040,102.433334,42.25,2.5338,355,23642,1.86783,3.80,38573,,,,,,,,,,,,,,,,,,99999,99999,99999,99999,99999,99999,99999,99999,99999,99999,99999,99999
38:29:10,1510548150,2017-11-13T04:42:32,0.740,1781.7,7.79,5.16,9.22,834.460,2045.040,105.533333,41.96,2.5338,355,23639,1.87528,3.80,38568,,,,,,,,,,,,,,,,,,99999,99999,99999,99999,99999,99999,99999,99999,99999,99999,99999,99999
38:29:40,1510548180,2017-11-13T04:43:02,0.743,1782.0,7.77,5.13,9.26,834.480,2044.970,105.316666,42.18,2.5339,355,23641,1.88155,3.80,38564,,,,,,,,,,,,,,,,,,99999,99999,99999,99999,99999,99999,99999,99999,99999,99999,99999,99999
38:30:10,1510548210,2017-11-13T04:43:32,0.740,1782.4,7.77,5.11,9.23,834.510,2044.970,104.349998,42.24,2.5339,355,23641,1.87588,3.80,38559,,,,,,,,,,,,,,,,,,99999,99999,99999,99999,99999,99999,99999,99999,99999,99999,99999,99999
38:30:40,1510548240,2017-11-13T04:44:02,0.739,1782.8,7.76,5.16,9.22,834.430,2044.870,104.300003,42.21,2.5338,355,23641,1.87200,3.80,38554,,,,,,,,,,,,,,,,,,99999,99999,99999,99999,99999,99999,99999,99999,99999,99999,99999,99999
38:31:10,1510548270,2017-11-13T04:44:32,0.737,1783.1,7.76,5.11,9.22,834.550,2044.870,103.099998,42.26,2.5338,355,23641,1.86723,3.80,38549,,,,,,,,,,,,,,,,,,99999,99999,99999,99999,99999,99999,99999,99999,99999,99999,99999,99999
38:31:40,1510548300,2017-11-13T04:45:02,0.735,1783.5,7.75,5.14,9.18,834.460,2044.870,103.199997,42.23,2.5339,355,23641,1.86367,3.80,38545,,,,,,,,,,,,,,,,,,99999,99999,99999,99999,99999,99999,99999,99999,99999,99999,99999,99999
38:32:10,1510548330,2017-11-13T04:45:32,0.737,1783.9,7.74,5.12,9.18,834.560,2044.810,103.366669,42.36,2.5339,355,23637,1.86634,3.80,38540,,,,,,,,,,,,,,,,,,99999,99999,99999,99999,99999,99999,99999,99999,99999,99999,99999,99999
38:32:40,1510548360,2017-11-13T04:46:02,0.740,1784.3,7.72,5.12,9.18,834.520,2044.740,103.150002,42.18,2.5340,355,23641,1.87438,3.80,38535,,,,,,,,,,,,,,,,,,99999,99999,99999,99999,99999,99999,99999,99999,99999,99999,99999,99999
38:33:10,1510548390,2017-11-13T04:46:32,0.744,1784.6,7.72,5.10,9.15,834.440,2044.740,105.233330,42.58,2.5340,355,23637,1.88514,3.80,38531,,,,,,,,,,,,,,,,,,99999,99999,99999,99999,99999,99999,99999,99999,99999,99999,99999,99999
38:33:40,1510548420,2017-11-13T04:47:02,0.735,1785.0,7.71,5.09,9.16,834.490,2044.700,103.683334,42.58,2.5341,355,23639,1.86278,3.80,38526,,,,,,,,,,,,,,,,,,99999,99999,99999,99999,99999,99999,99999,99999,99999,99999,99999,99999
38:34:10,1510548450,2017-11-13T04:47:32,0.737,1785.4,7.70,5.10,9.14,834.410,2044.700,103.599998,42.65,2.5342,355,23640,1.86872,3.80,38521,,,,,,,,,,,,,,,,,,99999,99999,99999,99999,99999,99999,99999,99999,99999,99999,99999,99999
38:34:40,1510548480,2017-11-13T04:48:02,0.743,1785.7,7.70,5.09,9.15,834.460,2044.700,105.516670,42.75,2.5341,355,23640,1.88185,3.80,38517,,,,,,,,,,,,,,,,,,99999,99999,99999,99999,99999,99999,99999,99999,99999,99999,99999,99999
38:35:10,1510548510,2017-11-13T04:48:32,0.737,1786.1,7.69,5.10,9.16,834.450,2044.640,103.550003,43.07,2.5342,355,23640,1.86723,3.80,38512,,,,,,,,,,,,,,,,,,99999,99999,99999,99999,99999,99999,99999,99999,99999,99999,99999,99999
38:35:40,1510548540,2017-11-13T04:49:02,0.742,1786.5,7.68,5.06,9.10,834.430,2044.640,105.000000,42.72,2.5343,355,23638,1.88095,3.80,38507,,,,,,,,,,,,,,,,,,99999,99999,99999,99999,99999,99999,99999,99999,99999,99999,99999,99999
38:36:10,1510548570,2017-11-13T04:49:32,0.735,1786.8,7.68,5.06,9.15,834.380,2044.640,103.483330,42.72,2.5343,355,23638,1.86367,3.80,38503,,,,,,,,,,,,,,,,,,99999,99999,99999,99999,99999,99999,99999,99999,99999,99999,99999,99999
38:36:40,1510548600,2017-11-13T04:50:02,0.740,1787.2,7.66,5.07,9.11,834.430,2044.580,104.099998,42.56,2.5344,355,23638,1.87498,3.80,38498,,,,,,,,,,,,,,,,,,99999,99999,99999,99999,99999,99999,99999,99999,99999,99999,99999,99999
38:37:10,1510548630,2017-11-13T04:50:32,0.738,1787.6,7.66,5.06,9.10,834.430,2044.580,104.150002,42.38,2.5344,355,23635,1.87051,3.80,38493,,,,,,,,,,,,,,,,,,99999,99999,99999,99999,99999,99999,99999,99999,99999,99999,99999,99999
38:37:40,1510548660,2017-11-13T04:51:02,0.743,1788.0,7.64,5.04,9.11,834.460,2044.540,105.550003,42.28,2.5345,355,23638,1.88304,3.80,38488,,,,,,,,,,,,,,,,,,99999,99999,99999,99999,99999,99999,99999,99999,99999,99999,99999,99999
38:38:10,1510548690,2017-11-13T04:51:32,0.742,1788.3,7.64,5.03,9.11,834.380,2044.540,103.550003,42.14,2.5345,355,23636,1.88006,3.80,38484,,,,,,,,,,,,,,,,,,99999,99999,99999,99999,99999,99999,99999,99999,99999,99999,99999,99999
38:38:40,1510548720,2017-11-13T04:52:02,0.741,1788.7,7.64,5.04,9.10,834.400,2044.540,104.866669,42.11,2.5345,355,23636,1.87886,3.80,38479,,,,,,,,,,,,,,,,,,99999,99999,99999,99999,99999,99999,99999,99999,99999,99999,99999,99999
38:39:10,1510548750,2017-11-13T04:52:32,0.736,1789.1,7.64,5.06,9.11,834.400,2044.540,102.916664,42.20,2.5345,355,23639,1.86456,3.80,38474,,,,,,,,,,,,,,,,,,99999,99999,99999,99999,99999,99999,99999,99999,99999,99999,99999,99999
38:39:40,1510548780,2017-11-13T04:53:02,0.740,1789.4,7.65,5.04,9.11,834.400,2044.540,105.800003,41.97,2.5344,355,23636,1.87588,3.80,38470,,,,,,,,,,,,,,,,,,99999,99999,99999,99999,99999,99999,99999,99999,99999,99999,99999,99999
38:40:10,1510548810,2017-11-13T04:53:32,0.743,1789.8,7.65,5.04,9.07,834.430,2044.540,105.750000,41.89,2.5345,355,23638,1.88215,3.80,38465,,,,,,,,,,,,,,,,,,99999,99999,99999,99999,99999,99999,99999,99999,99999,99999,99999,99999
38:40:40,1510548840,2017-11-13T04:54:02,0.740,1790.2,7.66,5.06,9.10,834.430,2044.580,104.183334,42.22,2.5344,355,23636,1.87468,3.80,38460,,,,,,,,,,,,,,,,,,99999,99999,99999,99999,99999,99999,99999,99999,99999,99999,99999,99999
38:41:10,1510548870,2017-11-13T04:54:32,0.742,1790.5,7.67,5.07,9.11,834.390,2044.580,104.516670,42.24,2.5343,355,23638,1.88155,3.80,38456,,,,,,,,,,,,,,,,,,99999,99999,99999,99999,99999,99999,99999,99999,99999,99999,99999,99999
38:41:40,1510548900,2017-11-13T04:55:02,0.736,1790.9,7.67,5.06,9.14,834.350,2044.580,103.599998,43.04,2.5343,355,23639,1.86486,3.80,38451,,,,,,,,,,,,,,,,,,99999,99999,99999,99999,99999,99999,99999,99999,99999,99999,99999,99999
38:42:10,1510548930,2017-11-13T04:55:32,0.735,1791.3,7.68,5.09,9.14,834.350,2044.640,103.500000,42.79,2.5343,355,23640,1.86367,3.79,38446,,,,,,,,,,,,,,,,,,99999,99999,99999,99999,99999,99999,99999,99999,99999,99999,99999,99999
38:42:40,1510548960,2017-11-13T04:56:02,0.736,1791.6,7.69,5.08,9.14,834.410,2044.640,104.216667,43.39,2.5341,355,23637,1.86545,3.80,38442,,,,,,,,,,,,,,,,,,99999,99999,99999,99999,99999,99999,99999,99999,99999,99999,99999,99999
38:43:10,1510548990,2017-11-13T04:56:32,0.736,1792.0,7.68,5.09,9.14,834.310,2044.640,103.116669,43.21,2.5342,355,23639,1.86575,3.80,38437,,,,,,,,,,,,,,,,,,99999,99999,99999,99999,99999,99999,99999,99999,99999,99999,99999,99999
38:43:40,1510549020,2017-11-13T04:57:02,0.735,1792.4,7.69,5.08,9.11,834.370,2044.640,102.766670,43.05,2.5342,355,23639,1.86278,3.80,38432,,,,,,,,,,,,,,,,,,99999,99999,99999,99999,99999,99999,99999,99999,99999,99999,99999,99999
38:44:10,1510549050,2017-11-13T04:57:32,0.737,1792.7,7.69,5.06,9.11,834.390,2044.640,102.733330,42.80,2.5342,355,23640,1.86694,3.80,38427,,,,,,,,,,,,,,,,,,99999,99999,99999,99999,99999,99999,99999,99999,99999,99999,99999,99999
38:44:40,1510549080,2017-11-13T04:58:02,0.741,1793.1,7.70,5.09,9.14,834.330,2044.700,102.683334,42.67,2.5342,355,23639,1.87677,3.80,38423,,,,,,,,,,,,,,,,,,99999,99999,99999,99999,99999,99999,99999,99999,99999,99999,99999,99999
38:45:10,1510549110,2017-11-13T04:58:32,0.743,1793.5,7.69,5.10,9.11,834.330,2044.640,104.000000,42.47,2.5342,355,23637,1.88245,3.80,38418,,,,,,,,,,,,,,,,,,99999,99999,99999,99999,99999,99999,99999,99999,99999,99999,99999,99999
38:45:40,1510549140,2017-11-13T04:59:02,0.740,1793.9,7.70,5.09,9.14,834.330,2044.700,103.633331,42.49,2.5342,355,23639,1.87528,3.80,38413,,,,,,,,,,,,,,,,,,99999,99999,99999,99999,99999,99999,99999,99999,99999,99999,99999,99999
38:46:10,1510549170,2017-11-13T04:59:32,0.735,1794.2,7.69,5.10,9.15,834.370,2044.640,103.716667,42.50,2.5342,355,23636,1.86188,3.79,38409,,,,,,,,,,,,,,,,,,99999,99999,99999,99999,99999,99999,99999,99999,99999,99999,99999,99999
38:46:40,1510549200,2017-11-13T05:00:02,0.741,1794.6,7.69,5.08,9.15,834.330,2044.640,104.833336,42.53,2.5342,355,23637,1.87797,3.79,38404,,,,,,,,,,,,,,,,,,99999,99999,99999,99999,99999,99999,99999,99999,99999,99999,99999,99999
38:47:10,1510549230,2017-11-13T05:00:32,0.740,1795.0,7.70,5.10,9.15,834.330,2044.700,103.916664,42.41,2.5342,355,23641,1.87558,3.79,38399,,,,,,,,,,,,,,,,,,99999,99999,99999,99999,99999,99999,99999,99999,99999,99999,99999,99999
38:47:40,1510549260,2017-11-13T05:01:02,0.737,1795.3,7.70,5.10,9.11,834.250,2044.700,103.866669,41.95,2.5342,355,23639,1.86813,3.79,38395,,,,,,,,,,,,,,,,,,99999,99999,99999,99999,99999,99999,99999,99999,99999,99999,99999,99999
38:48:10,1510549290,2017-11-13T05:01:32,0.743,1795.7,7.71,5.14,9.16,834.250,2044.700,105.716667,42.64,2.5341,355,23641,1.88394,3.79,38390,,,,,,,,,,,,,,,,,,99999,99999,99999,99999,99999,99999,99999,99999,99999,99999,99999,99999
38:48:40,1510549320,2017-11-13T05:02:02,0.737,1796.1,7.72,5.13,9.18,834.300,2044.740,102.983330,43.20,2.5340,355,23639,1.86634,3.79,38385,,,,,,,,,,,,,,,,,,99999,99999,99999,99999,99999,99999,99999,99999,99999,99999,99999,99999
38:49:10,1510549350,2017-11-13T05:02:32,0.743,1796.4,7.71,5.12,9.18,834.290,2044.700,105.983330,43.14,2.5340,355,23641,1.88185,3.79,38380,,,,,,,,,,,,,,,,,,99999,99999,99999,99999,99999,99999,99999,99999,99999,99999,99999,99999
38:49:40,1510549380,2017-11-13T05:03:02,0.737,1796.8,7.72,5.12,9.18,834.220,2044.740,103.466667,43.33,2.5340,355,23639,1.86723,3.79,38376,,,,,,,,,,,,,,,,,,99999,99999,99999,99999,99999,99999,99999,99999,99999,99999,99999,99999
38:50:10,1510549410,2017-11-13T05:03:32,0.741,1797.2,7.73,5.12,9.16,834.300,2044.810,105.150002,42.91,2.5340,355,23639,1.87737,3.79,38371,,,,,,,,,,,,,,,,,,99999,99999,99999,99999,99999,99999,99999,99999,99999,99999,99999,99999
38:50:40,1510549440,2017-11-13T05:04:02,0.737,1797.6,7.73,5.15,9.18,834.250,2044.810,104.099998,42.57,2.5340,355,23642,1.86783,3.79,38366,,,,,,,,,,,,,,,,,,99999,99999,99999,99999,99999,99999,99999,99999,99999,99999,99999,99999
38:51:10,1510549470,2017-11-13T05:04:32,0.740,1797.9,7.73,5.16,9.16,834.210,2044.810,104.883331,42.46,2.5340,355,23639,1.87438,3.79,38362,,,,,,,,,,,,,,,,,,99999,99999,99999,99999,99999,99999,99999,99999,99999,99999,99999,99999
38:51:40,1510549500,2017-11-13T05:05:02,0.743,1798.3,7.73,5.14,9.19,834.210,2044.810,104.550003,42.33,2.5340,355,23640,1.88185,3.79,38357,,,,,,,,,,,,,,,,,,99999,99999,99999,99999,99999,99999,99999,99999,99999,99999,99999,99999
38:52:10,1510549530,2017-11-13T05:05:32,0.736,1798.7,7.74,5.16,9.23,834.210,2044.810,102.883331,42.31,2.5339,355,23641,1.86396,3.79,38352,,,,,,,,,,,,,,,,,,99999,99999,99999,99999,99999,99999,99999,99999,99999,99999,99999,99999
38:52:40,1510549560,2017-11-13T05:06:02,0.737,1799.0,7.73,5.14,9.18,834.170,2044.810,104.366669,42.30,2.5340,355,23642,1.86694,3.79,38348,,,,,,,,,,,,,,,,,,99999,99999,99999,99999,99999,99999,99999,99999,99999,99999,99999,99999
38:53:10,1510549590,2017-11-13T05:06:32,0.741,1799.4,7.75,5.14,9.22,834.200,2044.870,105.233330,42.29,2.5339,355,23638,1.87677,3.79,38343,,,,,,,,,,,,,,,,,,99999,99999,99999,99999,99999,99999,99999,99999,99999,99999,99999,99999
38:53:40,1510549620,2017-11-13T05:07:02,0.739,1799.8,7.74,5.20,9.18,834.220,2044.810,104.699997,42.21,2.5339,355,23638,1.87319,3.79,38338,,,,,,,,,,,,,,,,,,99999,99999,99999,99999,99999,99999,99999,99999,99999,99999,99999,99999
38:54:10,1510549650,2017-11-13T05:07:32,0.738,1800.1,7.75,5.16,9.22,834.140,2044.870,104.533333,42.32,2.5339,355,23638,1.86992,3.79,38334,,,,,,,,,,,,,,,,,,99999,99999,99999,99999,99999,99999,99999,99999,99999,99999,99999,99999
38:54:40,1510549680,2017-11-13T05:08:02,0.737,1800.5,7.76,5.19,9.22,834.200,2044.870,104.416664,42.33,2.5338,355,23638,1.86723,3.79,38329,,,,,,,,,,,,,,,,,,99999,99999,99999,99999,99999,99999,99999,99999,99999,99999,99999,99999
38:55:10,1510549710,2017-11-13T05:08:32,0.736,1800.9,7.77,5.19,9.22,834.200,2044.970,104.533333,42.39,2.5339,355,23638,1.86545,3.79,38324,,,,,,,,,,,,,,,,,,99999,99999,99999,99999,99999,99999,99999,99999,99999,99999,99999,99999
38:55:40,1510549740,2017-11-13T05:09:02,0.738,1801.2,7.77,5.20,9.19,834.240,2044.970,104.633331,42.22,2.5339,355,23639,1.86992,3.79,38319,,,,,,,,,,,,,,,,,,99999,99999,99999,99999,99999,99999,99999,99999,99999,99999,99999,99999
38:56:10,1510549770,2017-11-13T05:09:32,0.735,1801.6,7.77,5.19,9.19,834.200,2044.970,103.166664,42.15,2.5339,355,23641,1.86337,3.79,38315,,,,,,,,,,,,,,,,,,99999,99999,99999,99999,99999,99999,99999,99999,99999,99999,99999,99999
38:56:40,1510549800,2017-11-13T05:10:02,0.742,1802.0,7.79,5.20,9.28,834.220,2045.040,105.050003,42.36,2.5338,355,23640,1.88125,3.79,38310,,,,,,,,,,,,,,,,,,99999,99999,99999,99999,99999,99999,99999,99999,99999,99999,99999,99999
38:57:10,1510549830,2017-11-13T05:10:32,0.742,1802.4,7.79,5.22,9.24,834.190,2045.040,105.199997,42.23,2.5338,355,23641,1.88035,3.79,38305,,,,,,,,,,,,,,,,,,99999,99999,99999,99999,99999,99999,99999,99999,99999,99999,99999,99999
38:57:40,1510549860,2017-11-13T05:11:02,0.735,1802.7,7.81,5.23,9.30,834.220,2045.080,103.233330,42.19,2.5336,355,23640,1.86218,3.79,38301,,,,,,,,,,,,,,,,,,99999,99999,99999,99999,99999,99999,99999,99999,99999,99999,99999,99999
38:58:10,1510549890,2017-11-13T05:11:32,0.741,1803.1,7.83,5.23,9.26,834.230,2045.140,104.833336,41.86,2.5335,355,23642,1.87856,3.79,38296,,,,,,,,,,,,,,,,,,99999,99999,99999,99999,99999,99999,99999,99999,99999,99999,99999,99999
38:58:40,1510549920,2017-11-13T05:12:02,0.735,1803.5,7.83,5.24,9.28,834.210,2045.140,103.400002,41.77,2.5336,355,23642,1.86337,3.79,38291,,,,,,,,,,,,,,,,,,99999,99999,99999,99999,99999,99999,99999,99999,99999,99999,99999,99999
38:59:10,1510549950,2017-11-13T05:12:32,0.739,1803.8,7.84,5.25,9.30,834.200,2045.140,103.366669,41.68,2.5335,355,23644,1.87170,3.79,38286,,,,,,,,,,,,,,,,,,99999,99999,99999,99999,99999,99999,99999,99999,99999,99999,99999,99999
38:59:40,1510549980,2017-11-13T05:13:02,0.744,1804.2,7.85,5.25,9.31,834.200,2045.200,105.433334,41.54,2.5335,355,23644,1.88484,3.79,38282,,,,,,,,,,,,,,,,,,99999,99999,99999,99999,99999,99999,99999,99999,99999,99999,99999,99999
39:00:10,1510550010,2017-11-13T05:13:32,0.738,1804.6,7.87,5.27,9.31,834.240,2045.240,103.949997,41.77,2.5333,355,23645,1.86992,3.79,38277,,,,,,,,,,,,,,,,,,99999,99999,99999,99999,99999,99999,99999,99999,99999,99999,99999,99999
39:00:40,1510550040,2017-11-13T05:14:02,0.741,1804.9,7.90,5.30,9.38,834.160,2045.410,104.633331,41.43,2.5333,355,23645,1.87677,3.79,38272,,,,,,,,,,,,,,,,,,99999,99999,99999,99999,99999,99999,99999,99999,99999,99999,99999,99999
39:01:10,1510550070,2017-11-13T05:14:32,0.743,1805.3,7.91,5.29,9.32,834.220,2045.410,105.349998,41.28,2.5332,355,23640,1.88245,3.79,38268,,,,,,,,,,,,,,,,,,99999,99999,99999,99999,99999,99999,99999,99999,99999,99999,99999,99999
39:01:40,1510550100,2017-11-13T05:15:02,0.737,1805.7,7.94,5.30,9.40,834.190,2045.540,103.166664,42.31,2.5330,355,23645,1.86753,3.79,38263,,,,,,,,,,,,,,,,,,99999,99999,99999,99999,99999,99999,99999,99999,99999,99999,99999,99999
39:02:10,1510550130,2017-11-13T05:15:32,0.737,1806.1,7.95,5.35,9.40,834.210,2045.540,103.833336,42.53,2.5329,355,23646,1.86723,3.79,38258,,,,,,,,,,,,,,,,,,99999,99999,99999,99999,99999,99999,99999,99999,99999,99999,99999,99999
39:02:40,1510550160,2017-11-13T05:16:02,0.737,1806.4,7.97,5.35,9.44,834.200,2045.640,103.966667,41.79,2.5329,355,23647,1.86575,3.79,38253,,,,,,,,,,,,,,,,,,99999,99999,99999,99999,99999,99999,99999,99999,99999,99999,99999,99999
39:03:10,1510550190,2017-11-13T05:16:32,0.746,1806.8,7.99,5.37,9.43,834.240,2045.700,104.900002,42.51,2.5327,355,23646,1.88933,3.79,38249,,,,,,,,,,,,,,,,,,99999,99999,99999,99999,99999,99999,99999,99999,99999,99999,99999,99999
39:03:40,1510550220,2017-11-13T05:17:02,0.740,1807.2,7.99,5.37,9.45,834.200,2045.700,105.250000,42.47,2.5327,355,23646,1.87409,3.79,38244,,,,,,,,,,,,,,,,,,99999,99999,99999,99999,99999,99999,99999,99999,99999,99999,99999,99999
39:04:10,1510550250,2017-11-13T05:17:32,0.740,1807.5,8.02,5.37,9.45,834.190,2045.770,105.416664,42.53,2.5326,355,23646,1.87409,3.79,38239,,,,,,,,,,,,,,,,,,99999,99999,99999,99999,99999,99999,99999,99999,99999,99999,99999,99999
39:04:40,1510550280,2017-11-13T05:18:02,0.739,1807.9,8.03,5.40,9.51,834.110,2045.870,103.699997,42.47,2.5326,355,23648,1.87140,3.79,38235,,,,,,,,,,,,,,,,,,99999,99999,99999,99999,99999,99999,99999,99999,99999,99999,99999,99999
39:05:10,1510550310,2017-11-13T05:18:32,0.738,1808.3,8.03,5.41,9.51,834.150,2045.870,104.466667,42.59,2.5326,355,23647,1.86843,3.79,38230,,,,,,,,,,,,,,,,,,99999,99999,99999,99999,99999,99999,99999,99999,99999,99999,99999,99999
39:05:40,1510550340,2017-11-13T05:19:02,0.739,1808.7,8.05,5.44,9.51,834.190,2045.910,104.983330,41.72,2.5325,355,23646,1.87081,3.79,38225,,,,,,,,,,,,,,,,,,99999,99999,99999,99999,99999,99999,99999,99999,99999,99999,99999,99999
39:06:10,1510550370,2017-11-13T05:19:32,0.744,1809.0,8.05,5.43,9.48,834.150,2045.910,104.866669,41.23,2.5325,355,23647,1.88484,3.79,38220,,,,,,,,,,,,,,,,,,99999,99999,99999,99999,99999,99999,99999,99999,99999,99999,99999,99999
39:06:40,1510550400,2017-11-13T05:20:02,0.743,1809.4,8.06,5.42,9.48,834.130,2045.930,104.699997,42.09,2.5324,355,23648,1.88215,3.79,38216,,,,,,,,,,,,,,,,,,99999,99999,99999,99999,99999,99999,99999,99999,99999,99999,99999,99999
39:07:10,1510550430,2017-11-13T05:20:32,0.737,1809.8,8.08,5.41,9.51,834.170,2046.040,103.650002,41.31,2.5324,355,23648,1.86664,3.79,38211,,,,,,,,,,,,,,,,,,99999,99999,99999,99999,99999,99999,99999,99999,99999,99999,99999,99999
39:07:40,1510550460,2017-11-13T05:21:02,0.740,1810.1,8.08,5.43,9.55,834.170,2046.040,104.883331,41.80,2.5324,355,23648,1.87290,3.79,38206,,,,,,,,,,,,,,,,,,99999,99999,99999,99999,99999,99999,99999,99999,99999,99999,99999,99999
39:08:10,1510550490,2017-11-13T05:21:32,0.738,1810.5,8.09,5.44,9.53,834.140,2046.040,103.833336,41.49,2.5323,355,23651,1.86932,3.79,38202,,,,,,,,,,,,,,,,,,99999,99999,99999,99999,99999,99999,99999,99999,99999,99999,99999,99999
39:08:40,1510550520,2017-11-13T05:22:02,0.739,1810.9,8.09,5.45,9.55,834.140,2046.040,102.550003,41.94,2.5323,355,23647,1.87111,3.79,38197,,,,,,,,,,,,,,,,,,99999,99999,99999,99999,99999,99999,99999,99999,99999,99999,99999,99999
39:09:10,1510550550,2017-11-13T05:22:32,0.743,1811.3,8.11,5.45,9.55,834.120,2046.100,104.316666,41.39,2.5322,355,23647,1.88185,3.79,38192,,,,,,,,,,,,,,,,,,99999,99999,99999,99999,99999,99999,99999,99999,99999,99999,99999,99999
39:09:40,1510550580,2017-11-13T05:23:02,0.746,1811.6,8.12,5.48,9.59,834.160,2046.140,106.199997,41.04,2.5322,355,23648,1.89023,3.79,38187,,,,,,,,,,,,,,,,,,99999,99999,99999,99999,99999,99999,99999,99999,99999,99999,99999,99999
39:10:10,1510550610,2017-11-13T05:23:32,0.740,1812.0,8.13,5.48,9.60,834.140,2046.140,103.516670,41.13,2.5321,355,23652,1.87438,3.79,38183,,,,,,,,,,,,,,,,,,99999,99999,99999,99999,99999,99999,99999,99999,99999,99999,99999,99999
39:10:40,1510550640,2017-11-13T05:24:02,0.741,1812.4,8.15,5.49,9.55,834.020,2046.200,105.733330,41.31,2.5320,355,23650,1.87677,3.79,38178,,,,,,,,,,,,,,,,,,99999,99999,99999,99999,99999,99999,99999,99999,99999,99999,99999,99999
39:11:10,1510550670,2017-11-13T05:24:32,0.742,1812.7,8.15,5.50,9.61,834.150,2046.200,105.199997,41.07,2.5320,355,23650,1.87826,3.79,38173,,,,,,,,,,,,,,,,,,99999,99999,99999,99999,99999,99999,99999,99999,99999,99999,99999,99999
39:11:40,1510550700,2017-11-13T05:25:02,0.745,1813.1,8.17,5.51,9.61,834.170,2046.310,106.050003,41.42,2.5319,355,23651,1.88604,3.79,38169,,,,,,,,,,,,,,,,,,99999,99999,99999,99999,99999,99999,99999,99999,99999,99999,99999,99999
39:12:10,1510550730,2017-11-13T05:25:32,0.744,1813.5,8.20,5.52,9.60,834.170,2046.430,105.366669,41.50,2.5318,355,23651,1.88454,3.79,38164,,,,,,,,,,,,,,,,,,99999,99999,99999,99999,99999,99999,99999,99999,99999,99999,99999,99999
39:12:40,1510550760,2017-11-13T05:26:02,0.745,1813.9,8.21,5.53,9.61,834.200,2046.470,106.550003,41.81,2.5317,355,23652,1.88723,3.79,38159,,,,,,,,,,,,,,,,,,99999,99999,99999,99999,99999,99999,99999,99999,99999,99999,99999,99999
39:13:10,1510550790,2017-11-13T05:26:32,0.743,1814.2,8.22,5.53,9.60,834.160,2046.470,105.133331,41.72,2.5316,355,23654,1.87976,3.79,38154,,,,,,,,,,,,,,,,,,99999,99999,99999,99999,99999,99999,99999,99999,99999,99999,99999,99999
39:13:40,1510550820,2017-11-13T05:27:02,0.742,1814.6,8.21,5.56,9.63,834.120,2046.470,105.633331,41.65,2.5317,355,23651,1.87946,3.79,38150,,,,,,,,,,,,,,,,,,99999,99999,99999,99999,99999,99999,99999,99999,99999,99999,99999,99999
39:14:10,1510550850,2017-11-13T05:27:32,0.741,1815.0,8.22,5.55,9.69,834.140,2046.470,104.599998,41.96,2.5316,355,23653,1.87528,3.79,38145,,,,,,,,,,,,,,,,,,99999,99999,99999,99999,99999,99999,99999,99999,99999,99999,99999,99999
39:14:40,1510550880,2017-11-13T05:28:02,0.745,1815.3,8.24,5.60,9.66,834.190,2046.540,106.066666,41.23,2.5316,355,23655,1.88693,3.79,38140,,,,,,,,,,,,,,,,,,99999,99999,99999,99999,99999,99999,99999,99999,99999,99999,99999,99999
39:15:10,1510550910,2017-11-13T05:28:32,0.742,1815.7,8.24,5.57,9.66,834.140,2046.540,104.900002,41.30,2.5316,355,23653,1.87737,3.79,38135,,,,,,,,,,,,,,,,,,99999,99999,99999,99999,99999,99999,99999,99999,99999,99999,99999,99999
39:15:40,1510550940,2017-11-13T05:29:02,0.742,1816.1,8.26,5.59,9.69,834.070,2046.600,106.083336,41.44,2.5314,355,23650,1.87826,3.79,38131,,,,,,,,,,,,,,,,,,99999,99999,99999,99999,99999,99999,99999,99999,99999,99999,99999,99999
39:16:10,1510550970,2017-11-13T05:29:32,0.738,1816.5,8.26,5.59,9.72,834.020,2046.600,104.750000,41.36,2.5314,355,23654,1.86872,3.79,38126,,,,,,,,,,,,,,,,,,99999,99999,99999,99999,99999,99999,99999,99999,99999,99999,99999,99999
39:16:40,1510551000,2017-11-13T05:30:02,0.740,1816.8,8.27,5.63,9.73,834.020,2046.640,106.099998,41.79,2.5314,355,23651,1.87409,3.79,38121,,,,,,,,,,,,,,,,,,99999,99999,99999,99999,99999,99999,99999,99999,99999,99999,99999,99999
39:17:10,1510551030,2017-11-13T05:30:32,0.740,1817.2,8.27,5.63,9.73,834.040,2046.640,104.566666,41.80,2.5314,355,23654,1.87409,3.79,38117,,,,,,,,,,,,,,,,,,99999,99999,99999,99999,99999,99999,99999,99999,99999,99999,99999,99999
39:17:40,1510551060,2017-11-13T05:31:02,0.747,1817.6,8.28,5.61,9.72,834.130,2046.640,105.683334,41.08,2.5313,355,23654,1.88993,3.79,38112,,,,,,,,,,,,,,,,,,99999,99999,99999,99999,99999,99999,99999,99999,99999,99999,99999,99999
39:18:10,1510551090,2017-11-13T05:31:32,0.739,1817.9,8.28,5.63,9.72,834.040,2046.640,105.483330,41.06,2.5313,355,23654,1.86992,3.79,38107,,,,,,,,,,,,,,,,,,99999,99999,99999,99999,99999,99999,99999,99999,99999,99999,99999,99999
39:18:40,1510551120,2017-11-13T05:32:02,0.744,1818.3,8.29,5.63,9.73,834.040,2046.770,105.966667,41.12,2.5314,355,23655,1.88245,3.79,38102,,,,,,,,,,,,,,,,,,99999,99999,99999,99999,99999,99999,99999,99999,99999,99999,99999,99999
39:19:10,1510551150,2017-11-13T05:32:32,0.741,1818.7,8.28,5.62,9.72,834.040,2046.640,104.650002,40.79,2.5313,355,23654,1.87528,3.79,38098,,,,,,,,,,,,,,,,,,99999,99999,99999,99999,99999,99999,99999,99999,99999,99999,99999,99999
39:19:40,1510551180,2017-11-13T05:33:02,0.746,1819.1,8.29,5.60,9.72,834.040,2046.770,106.283333,41.02,2.5314,355,23656,1.88783,3.79,38093,,,,,,,,,,,,,,,,,,99999,99999,99999,99999,99999,99999,99999,99999,99999,99999,99999,99999
39:20:10,1510551210,2017-11-13T05:33:32,0.741,1819.4,8.29,5.64,9.73,833.960,2046.770,104.116669,40.95,2.5314,355,23656,1.87558,3.79,38088,,,,,,,,,,,,,,,,,,99999,99999,99999,99999,99999,99999,99999,99999,99999,99999,99999,99999
39:20:40,1510551240,2017-11-13T05:34:02,0.741,1819.8,8.28,5.63,9.74,834.020,2046.640,104.250000,40.79,2.5313,355,23655,1.87588,3.79,38084,,,,,,,,,,,,,,,,,,99999,99999,99999,99999,99999,99999,99999,99999,99999,99999,99999,99999
39:21:10,1510551270,2017-11-13T05:34:32,0.746,1820.2,8.30,5.65,9.72,834.040,2046.770,105.416664,40.85,2.5313,355,23657,1.88873,3.79,38079,,,,,,,,,,,,,,,,,,99999,99999,99999,99999,99999,99999,99999,99999,99999,99999,99999,99999
39:21:40,1510551300,2017-11-13T05:35:02,0.739,1820.5,8.30,5.64,9.73,834.040,2046.770,104.583336,40.64,2.5313,355,23654,1.86962,3.79,38074,,,,,,,,,,,,,,,,,,99999,99999,99999,99999,99999,99999,99999,99999,99999,99999,99999,99999
39:22:10,1510551330,2017-11-13T05:35:32,0.745,1820.9,8.30,5.63,9.74,833.960,2046.770,105.466667,40.43,2.5313,355,23659,1.88663,3.79,38069,,,,,,,,,,,,,,,,,,99999,99999,99999,99999,99999,99999,99999,99999,99999,99999,99999,99999
39:22:40,1510551360,2017-11-13T05:36:02,0.748,1821.3,8.31,5.63,9.76,833.960,2046.810,106.616669,40.42,2.5313,355,23658,1.89233,3.79,38065,,,,,,,,,,,,,,,,,,99999,99999,99999,99999,99999,99999,99999,99999,99999,99999,99999,99999
39:23:10,1510551390,2017-11-13T05:36:32,0.741,1821.7,8.32,5.66,9.76,834.010,2046.810,104.500000,40.43,2.5312,355,23655,1.87528,3.79,38060,,,,,,,,,,,,,,,,,,99999,99999,99999,99999,99999,99999,99999,99999,99999,99999,99999,99999
39:23:40,1510551420,2017-11-13T05:37:02,0.747,1822.0,8.32,5.66,9.73,833.980,2046.810,106.766670,40.37,2.5312,355,23658,1.88993,3.79,38055,,,,,,,,,,,,,,,,,,99999,99999,99999,99999,99999,99999,99999,99999,99999,99999,99999,99999
39:24:10,1510551450,2017-11-13T05:37:32,0.745,1822.4,8.32,5.67,9.76,833.980,2046.810,106.483330,40.37,2.5312,355,23655,1.88693,3.79,38050,,,,,,,,,,,,,,,,,,99999,99999,99999,99999,99999,99999,99999,99999,99999,99999,99999,99999
39:24:40,1510551480,2017-11-13T05:38:02,0.746,1822.8,8.33,5.67,9.77,833.900,2046.870,106.433334,40.27,2.5312,355,23657,1.88813,3.79,38046,,,,,,,,,,,,,,,,,,99999,99999,99999,99999,99999,99999,99999,99999,99999,99999,99999,99999
39:25:10,1510551510,2017-11-13T05:38:32,0.739,1823.1,8.34,5.66,9.80,834.000,2046.940,103.900002,40.20,2.5312,355,23657,1.87170,3.79,38041,,,,,,,,,,,,,,,,,,99999,99999,99999,99999,99999,99999,99999,99999,99999,99999,99999,99999
39:25:40,1510551540,2017-11-13T05:39:02,0.739,1823.5,8.34,5.69,9.81,833.930,2046.940,104.066666,40.17,2.5312,355,23657,1.87170,3.79,38036,,,,,,,,,,,,,,,,,,99999,99999,99999,99999,99999,99999,99999,99999,99999,99999,99999,99999
39:26:10,1510551570,2017-11-13T05:39:32,0.747,1823.9,8.35,5.69,9.80,833.920,2046.940,106.066666,40.07,2.5311,355,23657,1.88963,3.79,38031,,,,,,,,,,,,,,,,,,99999,99999,99999,99999,99999,99999,99999,99999,99999,99999,99999,99999
39:26:40,1510551600,2017-11-13T05:40:02,0.746,1824.3,8.35,5.69,9.80,833.950,2046.940,105.433334,40.19,2.5311,355,23659,1.88933,3.79,38027,,,,,,,,,,,,,,,,,,99999,99999,99999,99999,99999,99999,99999,99999,99999,99999,99999,99999
39:27:10,1510551630,2017-11-13T05:40:32,0.742,1824.6,8.38,5.71,9.81,834.050,2047.040,105.466667,40.06,2.5310,355,23657,1.87856,3.79,38022,,,,,,,,,,,,,,,,,,99999,99999,99999,99999,99999,99999,99999,99999,99999,99999,99999,99999
39:27:40,1510551660,2017-11-13T05:41:02,0.745,1825.0,8.39,5.72,9.84,834.040,2047.040,106.099998,40.02,2.5309,355,23660,1.88604,3.79,38017,,,,,,,,,,,,,,,,,,99999,99999,99999,99999,99999,99999,99999,99999,99999,99999,99999,99999
39:28:10,1510551690,2017-11-13T05:41:32,0.747,1825.4,8.40,5.71,9.81,834.020,2047.040,105.800003,40.27,2.5308,355,23658,1.89173,3.79,38013,,,,,,,,,,,,,,,,,,99999,99999,99999,99999,99999,99999,99999,99999,99999,99999,99999,99999
39:28:40,1510551720,2017-11-13T05:42:02,0.740,1825.7,8.39,5.73,9.84,833.960,2047.040,105.300003,39.92,2.5309,355,23660,1.87290,3.79,38008,,,,,,,,,,,,,,,,,,99999,99999,99999,99999,99999,99999,99999,99999,99999,99999,99999,99999
39:29:10,1510551750,2017-11-13T05:42:32,0.740,1826.1,8.42,5.72,9.81,834.040,2047.210,104.833336,40.48,2.5308,355,23660,1.87260,3.79,38003,,,,,,,,,,,,,,,,,,99999,99999,99999,99999,99999,99999,99999,99999,99999,99999,99999,99999
39:29:40,1510551780,2017-11-13T05:43:02,0.740,1826.5,8.43,5.73,9.86,834.010,2047.210,103.550003,40.81,2.5307,355,23661,1.87349,3.79,37998,,,,,,,,,,,,,,,,,,99999,99999,99999,99999,99999,99999,99999,99999,99999,99999,99999,99999
39:30:10,1510551810,2017-11-13T05:43:32,0.739,1826.9,8.43,5.71,9.86,834.060,2047.210,102.883331,40.38,2.5307,355,23660,1.87111,3.79,37994,,,,,,,,,,,,,,,,,,99999,99999,99999,99999,99999,99999,99999,99999,99999,99999,99999,99999
39:30:40,1510551840,2017-11-13T05:44:02,0.741,1827.2,8.44,5.78,9.88,834.030,2047.210,104.383331,40.47,2.5306,355,23661,1.87528,3.79,37989,,,,,,,,,,,,,,,,,,99999,99999,99999,99999,99999,99999,99999,99999,99999,99999,99999,99999
39:31:10,1510551870,2017-11-13T05:44:32,0.739,1827.6,8.45,5.73,9.89,834.030,2047.310,105.216667,40.63,2.5306,355,23659,1.87021,3.79,37984,,,,,,,,,,,,,,,,,,99999,99999,99999,99999,99999,99999,99999,99999,99999,99999,99999,99999
39:31:40,1510551900,2017-11-13T05:45:02,0.746,1828.0,8.45,5.77,9.84,834.030,2047.310,106.900002,40.65,2.5306,355,23658,1.88903,3.79,37979,,,,,,,,,,,,,,,,,,99999,99999,99999,99999,99999,99999,99999,99999,99999,99999,99999,99999
39:32:10,1510551930,2017-11-13T05:45:32,0.741,1828.3,8.44,5.73,9.90,833.980,2047.210,104.849998,40.54,2.5306,355,23662,1.87528,3.79,37975,,,,,,,,,,,,,,,,,,99999,99999,99999,99999,99999,99999,99999,99999,99999,99999,99999,99999
39:32:40,1510551960,2017-11-13T05:46:02,0.745,1828.7,8.45,5.76,9.90,833.950,2047.310,105.933334,40.11,2.5307,355,23662,1.88484,3.79,37970,,,,,,,,,,,,,,,,,,99999,99999,99999,99999,99999,99999,99999,99999,99999,99999,99999,99999
39:33:10,1510551990,2017-11-13T05:46:32,0.747,1829.1,8.45,5.78,9.89,833.980,2047.310,106.683334,40.01,2.5307,355,23660,1.89083,3.79,37965,,,,,,,,,,,,,,,,,,99999,99999,99999,99999,99999,99999,99999,99999,99999,99999,99999,99999
39:33:40,1510552020,2017-11-13T05:47:02,0.743,1829.5,8.45,5.77,9.90,833.980,2047.310,106.366669,40.09,2.5307,355,23662,1.88095,3.79,37960,,,,,,,,,,,,,,,,,,99999,99999,99999,99999,99999,99999,99999,99999,99999,99999,99999,99999
39:34:10,1510552050,2017-11-13T05:47:32,0.742,1829.8,8.45,5.77,9.89,833.820,2047.310,106.050003,40.34,2.5306,355,23658,1.87647,3.79,37956,,,,,,,,,,,,,,,,,,99999,99999,99999,99999,99999,99999,99999,99999,99999,99999,99999,99999
39:34:40,1510552080,2017-11-13T05:48:02,0.738,1830.2,8.46,5.75,9.90,833.890,2047.310,105.533333,40.39,2.5305,355,23660,1.86872,3.79,37951,,,,,,,,,,,,,,,,,,99999,99999,99999,99999,99999,99999,99999,99999,99999,99999,99999,99999
39:35:10,1510552110,2017-11-13T05:48:32,0.741,1830.6,8.46,5.74,9.90,833.870,2047.310,105.166664,40.39,2.5305,355,23660,1.87438,3.79,37946,,,,,,,,,,,,,,,,,,99999,99999,99999,99999,99999,99999,99999,99999,99999,99999,99999,99999
39:35:40,1510552140,2017-11-13T05:49:02,0.743,1830.9,8.46,5.78,9.95,833.840,2047.310,105.349998,40.31,2.5306,355,23662,1.88125,3.79,37941,,,,,,,,,,,,,,,,,,99999,99999,99999,99999,99999,99999,99999,99999,99999,99999,99999,99999
39:36:10,1510552170,2017-11-13T05:49:32,0.746,1831.3,8.46,5.75,9.89,833.890,2047.310,106.133331,40.01,2.5306,355,23662,1.88843,3.79,37937,,,,,,,,,,,,,,,,,,99999,99999,99999,99999,99999,99999,99999,99999,99999,99999,99999,99999
39:36:40,1510552200,2017-11-13T05:50:02,0.747,1831.7,8.46,5.76,9.89,833.920,2047.310,107.016670,40.43,2.5305,355,23664,1.88963,3.79,37932,,,,,,,,,,,,,,,,,,99999,99999,99999,99999,99999,99999,99999,99999,99999,99999,99999,99999
39:37:10,1510552230,2017-11-13T05:50:32,0.743,1832.1,8.45,5.74,9.88,833.870,2047.310,105.199997,40.44,2.5306,355,23661,1.87946,3.79,37927,,,,,,,,,,,,,,,,,,99999,99999,99999,99999,99999,99999,99999,99999,99999,99999,99999,99999
39:37:40,1510552260,2017-11-13T05:51:02,0.742,1832.4,8.45,5.75,9.90,833.850,2047.310,104.599998,40.92,2.5306,355,23662,1.87826,3.79,37922,,,,,,,,,,,,,,,,,,99999,99999,99999,99999,99999,99999,99999,99999,99999,99999,99999,99999
39:38:10,1510552290,2017-11-13T05:51:32,0.745,1832.8,8.45,5.75,9.90,833.920,2047.310,106.250000,40.66,2.5306,355,23660,1.88454,3.79,37918,,,,,,,,,,,,,,,,,,99999,99999,99999,99999,99999,99999,99999,99999,99999,99999,99999,99999
39:38:40,1510552320,2017-11-13T05:52:02,0.744,1833.2,8.44,5.75,9.82,833.850,2047.210,106.433334,41.07,2.5306,355,23661,1.88334,3.78,37913,,,,,,,,,,,,,,,,,,99999,99999,99999,99999,99999,99999,99999,99999,99999,99999,99999,99999
39:39:10,1510552350,2017-11-13T05:52:32,0.746,1833.5,8.42,5.72,9.89,833.800,2047.210,105.383331,40.55,2.5308,355,23660,1.88723,3.79,37908,,,,,,,,,,,,,,,,,,99999,99999,99999,99999,99999,99999,99999,99999,99999,99999,99999,99999
39:39:40,1510552380,2017-11-13T05:53:02,0.747,1833.9,8.41,5.70,9.84,833.850,2047.100,107.083336,40.31,2.5307,355,23659,1.89113,3.79,37903,,,,,,,,,,,,,,,,,,99999,99999,99999,99999,99999,99999,99999,99999,99999,99999,99999,99999
39:40:10,1510552410,2017-11-13T05:53:32,0.745,1834.3,8.40,5.70,9.84,833.860,2047.040,106.666664,40.27,2.5308,355,23658,1.88514,3.78,37899,,,,,,,,,,,,,,,,,,99999,99999,99999,99999,99999,99999,99999,99999,99999,99999,99999,99999
39:40:40,1510552440,2017-11-13T05:54:02,0.739,1834.7,8.38,5.70,9.82,833.840,2047.040,104.516670,40.19,2.5310,355,23657,1.87140,3.78,37894,,,,,,,,,,,,,,,,,,99999,99999,99999,99999,99999,99999,99999,99999,99999,99999,99999,99999
39:41:10,1510552470,2017-11-13T05:54:32,0.747,1835.0,8.37,5.67,9.86,833.860,2046.970,106.366669,40.19,2.5310,355,23655,1.88963,3.78,37889,,,,,,,,,,,,,,,,,,99999,99999,99999,99999,99999,99999,99999,99999,99999,99999,99999,99999
39:41:40,1510552500,2017-11-13T05:55:02,0.742,1835.4,8.37,5.68,9.82,833.920,2046.970,105.866669,40.30,2.5310,355,23656,1.87677,3.78,37884,,,,,,,,,,,,,,,,,,99999,99999,99999,99999,99999,99999,99999,99999,99999,99999,99999,99999
39:42:10,1510552530,2017-11-13T05:55:32,0.745,1835.8,8.36,5.67,9.81,833.840,2046.940,103.633331,40.76,2.5310,355,23658,1.88544,3.78,37880,,,,,,,,,,,,,,,,,,99999,99999,99999,99999,99999,99999,99999,99999,99999,99999,99999,99999
39:42:40,1510552560,2017-11-13T05:56:02,0.746,1836.2,8.35,5.68,9.77,833.870,2046.940,105.733330,40.65,2.5311,355,23659,1.88813,3.78,37875,,,,,,,,,,,,,,,,,,99999,99999,99999,99999,99999,99999,99999,99999,99999,99999,99999,99999
39:43:10,1510552590,2017-11-13T05:56:32,0.745,1836.5,8.34,5.66,9.80,833.870,2046.940,106.833336,40.61,2.5312,355,23656,1.88544,3.78,37870,,,,,,,,,,,,,,,,,,99999,99999,99999,99999,99999,99999,99999,99999,99999,99999,99999,99999
39:43:40,1510552620,2017-11-13T05:57:02,0.742,1836.9,8.33,5.67,9.77,833.870,2046.870,105.166664,41.13,2.5312,355,23657,1.87886,3.78,37865,,,,,,,,,,,,,,,,,,99999,99999,99999,99999,99999,99999,99999,99999,99999,99999,99999,99999
39:44:10,1510552650,2017-11-13T05:57:32,0.738,1837.3,8.33,5.66,9.77,833.930,2046.870,104.916664,40.68,2.5312,355,23658,1.86843,3.78,37861,,,,,,,,,,,,,,,,,,99999,99999,99999,99999,99999,99999,99999,99999,99999,99999,99999,99999
39:44:40,1510552680,2017-11-13T05:58:02,0.742,1837.6,8.32,5.60,9.76,833.900,2046.810,104.583336,40.61,2.5312,355,23653,1.87916,3.78,37856,,,,,,,,,,,,,,,,,,99999,99999,99999,99999,99999,99999,99999,99999,99999,99999,99999,99999
39:45:10,1510552710,2017-11-13T05:58:32,0.748,1838.0,8.30,5.65,9.80,833.960,2046.770,104.833336,40.85,2.5313,355,23655,1.89233,3.78,37851,,,,,,,,,,,,,,,,,,99999,99999,99999,99999,99999,99999,99999,99999,99999,99999,99999,99999
39:45:40,1510552740,2017-11-13T05:59:02,0.739,1838.4,8.31,5.65,9.76,833.850,2046.810,105.199997,40.88,2.5313,355,23655,1.87021,3.78,37847,,,,,,,,,,,,,,,,,,99999,99999,99999,99999,99999,99999,99999,99999,99999,99999,99999,99999
39:46:10,1510552770,2017-11-13T05:59:32,0.744,1838.8,8.30,5.63,9.76,833.910,2046.770,105.166664,40.77,2.5313,355,23657,1.88215,3.78,37842,,,,,,,,,,,,,,,,,,99999,99999,99999,99999,99999,99999,99999,99999,99999,99999,99999,99999
39:46:40,1510552800,2017-11-13T06:00:02,0.744,1839.1,8.29,5.59,9.77,833.880,2046.770,106.283333,41.00,2.5314,355,23653,1.88424,3.78,37837,,,,,,,,,,,,,,,,,,99999,99999,99999,99999,99999,99999,99999,99999,99999,99999,99999,99999
39:47:10,1510552830,2017-11-13T06:00:32,0.740,1839.5,8.29,5.63,9.72,833.860,2046.770,104.116669,40.84,2.5314,355,23655,1.87200,3.78,37832,,,,,,,,,,,,,,,,,,99999,99999,99999,99999,99999,99999,99999,99999,99999,99999,99999,99999
39:47:40,1510552860,2017-11-13T06:01:02,0.743,1839.9,8.29,5.60,9.76,833.830,2046.770,105.750000,40.73,2.5314,355,23654,1.88006,3.78,37828,,,,,,,,,,,,,,,,,,99999,99999,99999,99999,99999,99999,99999,99999,99999,99999,99999,99999
39:48:10,1510552890,2017-11-13T06:01:32,0.744,1840.2,8.27,5.61,9.74,833.830,2046.640,105.983330,40.74,2.5314,355,23656,1.88394,3.78,37823,,,,,,,,,,,,,,,,,,99999,99999,99999,99999,99999,99999,99999,99999,99999,99999,99999,99999
39:48:40,1510552920,2017-11-13T06:02:02,0.739,1840.6,8.27,5.63,9.74,833.860,2046.640,104.633331,40.92,2.5314,355,23656,1.87111,3.78,37818,,,,,,,,,,,,,,,,,,99999,99999,99999,99999,99999,99999,99999,99999,99999,99999,99999,99999
39:49:10,1510552950,2017-11-13T06:02:32,0.746,1841.0,8.26,5.59,9.73,833.830,2046.600,105.433334,40.84,2.5315,355,23654,1.88963,3.78,37813,,,,,,,,,,,,,,,,,,99999,99999,99999,99999,99999,99999,99999,99999,99999,99999,99999,99999
39:49:40,1510552980,2017-11-13T06:03:02,0.739,1841.4,8.26,5.58,9.74,833.860,2046.600,104.449997,41.18,2.5315,355,23654,1.86962,3.78,37809,,,,,,,,,,,,,,,,,,99999,99999,99999,99999,99999,99999,99999,99999,99999,99999,99999,99999
39:50:10,1510553010,2017-11-13T06:03:32,0.739,1841.7,8.25,5.57,9.73,833.940,2046.600,104.449997,40.63,2.5316,355,23657,1.87170,3.78,37804,,,,,,,,,,,,,,,,,,99999,99999,99999,99999,99999,99999,99999,99999,99999,99999,99999,99999
39:50:40,1510553040,2017-11-13T06:04:02,0.745,1842.1,8.24,5.56,9.69,833.890,2046.540,106.250000,40.73,2.5316,355,23656,1.88634,3.78,37799,,,,,,,,,,,,,,,,,,99999,99999,99999,99999,99999,99999,99999,99999,99999,99999,99999,99999
39:51:10,1510553070,2017-11-13T06:04:32,0.742,1842.5,8.23,5.57,9.72,833.900,2046.470,105.733330,40.82,2.5316,355,23654,1.87946,3.78,37794,,,,,,,,,,,,,,,,,,99999,99999,99999,99999,99999,99999,99999,99999,99999,99999,99999,99999
39:51:40,1510553100,2017-11-13T06:05:02,0.738,1842.8,8.22,5.55,9.68,833.870,2046.470,104.566666,40.86,2.5317,355,23653,1.86872,3.78,37790,,,,,,,,,,,,,,,,,,99999,99999,99999,99999,99999,99999,99999,99999,99999,99999,99999,99999
39:52:10,1510553130,2017-11-13T06:05:32,0.745,1843.2,8.22,5.56,9.68,833.900,2046.470,106.250000,41.13,2.5317,355,23655,1.88693,3.78,37785,,,,,,,,,,,,,,,,,,99999,99999,99999,99999,99999,99999,99999,99999,99999,99999,99999,99999
39:52:40,1510553160,2017-11-13T06:06:02,0.740,1843.6,8.22,5.53,9.68,833.950,2046.470,105.583336,40.70,2.5317,355,23651,1.87438,3.78,37780,,,,,,,,,,,,,,,,,,99999,99999,99999,99999,99999,99999,99999,99999,99999,99999,99999,99999
39:53:10,1510553190,2017-11-13T06:06:32,0.743,1844.0,8.21,5.53,9.68,833.960,2046.470,105.116669,41.17,2.5318,355,23652,1.88185,3.78,37775,,,,,,,,,,,,,,,,,,99999,99999,99999,99999,99999,99999,99999,99999,99999,99999,99999,99999
39:53:40,1510553220,2017-11-13T06:07:02,0.743,1844.3,8.19,5.54,9.66,833.940,2046.370,106.466667,41.48,2.5318,355,23650,1.88006,3.78,37771,,,,,,,,,,,,,,,,,,99999,99999,99999,99999,99999,99999,99999,99999,99999,99999,99999,99999
39:54:10,1510553250,2017-11-13T06:07:32,0.737,1844.7,8.18,5.53,9.63,834.010,2046.370,103.933334,41.42,2.5319,355,23651,1.86486,3.78,37766,,,,,,,,,,,,,,,,,,99999,99999,99999,99999,99999,99999,99999,99999,99999,99999,99999,99999
39:54:40,1510553280,2017-11-13T06:08:02,0.741,1845.1,8.17,5.53,9.63,833.960,2046.310,105.066666,41.02,2.5319,355,23652,1.87558,3.78,37761,,,,,,,,,,,,,,,,,,99999,99999,99999,99999,99999,99999,99999,99999,99999,99999,99999,99999
39:55:10,1510553310,2017-11-13T06:08:32,0.744,1845.4,8.15,5.51,9.61,833.840,2046.200,107.283333,40.81,2.5320,355,23653,1.88424,3.78,37756,,,,,,,,,,,,,,,,,,99999,99999,99999,99999,99999,99999,99999,99999,99999,99999,99999,99999
39:55:40,1510553340,2017-11-13T06:09:02,0.737,1845.8,8.13,5.51,9.61,833.840,2046.140,104.783333,40.94,2.5321,355,23651,1.86515,3.78,37752,,,,,,,,,,,,,,,,,,99999,99999,99999,99999,99999,99999,99999,99999,99999,99999,99999,99999
39:56:10,1510553370,2017-11-13T06:09:32,0.740,1846.2,8.13,5.49,9.63,833.890,2046.140,103.699997,41.18,2.5321,355,23650,1.87260,3.78,37747,,,,,,,,,,,,,,,,,,99999,99999,99999,99999,99999,99999,99999,99999,99999,99999,99999,99999
39:56:40,1510553400,2017-11-13T06:10:02,0.740,1846.5,8.10,5.49,9.55,833.750,2046.100,104.199997,41.29,2.5323,355,23651,1.87438,3.78,37742,,,,,,,,,,,,,,,,,,99999,99999,99999,99999,99999,99999,99999,99999,99999,99999,99999,99999
39:57:10,1510553430,2017-11-13T06:10:32,0.744,1846.9,8.08,5.47,9.59,833.770,2046.040,105.900002,41.20,2.5324,355,23650,1.88394,3.78,37738,,,,,,,,,,,,,,,,,,99999,99999,99999,99999,99999,99999,99999,99999,99999,99999,99999,99999
39:57:40,1510553460,2017-11-13T06:11:02,0.744,1847.3,8.07,5.44,9.55,833.830,2045.970,105.816666,41.08,2.5324,355,23652,1.88364,3.78,37733,,,,,,,,,,,,,,,,,,99999,99999,99999,99999,99999,99999,99999,99999,99999,99999,99999,99999
39:58:10,1510553490,2017-11-13T06:11:32,0.741,1847.7,8.06,5.48,9.59,833.810,2045.930,104.550003,41.10,2.5325,355,23651,1.87767,3.78,37728,,,,,,,,,,,,,,,,,,99999,99999,99999,99999,99999,99999,99999,99999,99999,99999,99999,99999
39:58:40,1510553520,2017-11-13T06:12:02,0.743,1848.0,8.05,5.44,9.51,833.830,2045.910,103.766670,41.14,2.5325,355,23648,1.88155,3.78,37723,,,,,,,,,,,,,,,,,,99999,99999,99999,99999,99999,99999,99999,99999,99999,99999,99999,99999
39:59:10,1510553550,2017-11-13T06:12:32,0.745,1848.4,8.04,5.44,9.52,833.810,2045.870,105.116669,41.16,2.5326,355,23646,1.88783,3.78,37719,,,,,,,,,,,,,,,,,,99999,99999,99999,99999,99999,99999,99999,99999,99999,99999,99999,99999
39:59:40,1510553580,2017-11-13T06:13:02,0.741,1848.8,8.02,5.41,9.51,833.870,2045.770,103.500000,41.26,2.5326,355,23649,1.87558,3.78,37714,,,,,,,,,,,,,,,,,,99999,99999,99999,99999,99999,99999,99999,99999,99999,99999,99999,99999
40:00:10,1510553610,2017-11-13T06:13:32,0.740,1849.1,8.01,5.43,9.48,833.870,2045.770,103.000000,41.03,2.5327,355,23650,1.87528,3.78,37709,,,,,,,,,,,,,,,,,,99999,99999,99999,99999,99999,99999,99999,99999,99999,99999,99999,99999
40:00:40,1510553640,2017-11-13T06:14:02,0.744,1849.5,8.01,5.41,9.48,833.870,2045.770,105.800003,41.07,2.5327,355,23651,1.88514,3.78,37704,,,,,,,,,,,,,,,,,,99999,99999,99999,99999,99999,99999,99999,99999,99999,99999,99999,99999
40:01:10,1510553670,2017-11-13T06:14:32,0.745,1849.9,8.00,5.43,9.48,833.760,2045.700,105.300003,41.17,2.5327,355,23648,1.88604,3.78,37700,,,,,,,,,,,,,,,,,,99999,99999,99999,99999,99999,99999,99999,99999,99999,99999,99999,99999
40:01:40,1510553700,2017-11-13T06:15:02,0.738,1850.3,8.00,5.42,9.51,833.870,2045.700,104.583336,41.45,2.5327,355,23647,1.86992,3.78,37695,,,,,,,,,,,,,,,,,,99999,99999,99999,99999,99999,99999,99999,99999,99999,99999,99999,99999
40:02:10,1510553730,2017-11-13T06:15:32,0.742,1850.6,8.00,5.41,9.48,833.870,2045.700,105.050003,41.27,2.5327,355,23649,1.87856,3.78,37690,,,,,,,,,,,,,,,,,,99999,99999,99999,99999,99999,99999,99999,99999,99999,99999,99999,99999
40:02:40,1510553760,2017-11-13T06:16:02,0.738,1851.0,7.99,5.41,9.45,833.850,2045.700,105.000000,41.09,2.5328,355,23647,1.86872,3.78,37685,,,,,,,,,,,,,,,,,,99999,99999,99999,99999,99999,99999,99999,99999,99999,99999,99999,99999
40:03:10,1510553790,2017-11-13T06:16:32,0.744,1851.4,7.99,5.38,9.47,833.850,2045.700,104.933334,41.20,2.5328,355,23647,1.88424,3.78,37681,,,,,,,,,,,,,,,,,,99999,99999,99999,99999,99999,99999,99999,99999,99999,99999,99999,99999
40:03:40,1510553820,2017-11-13T06:17:02,0.744,1851.7,7.99,5.39,9.44,833.870,2045.700,105.199997,40.99,2.5328,355,23649,1.88514,3.78,37676,,,,,,,,,,,,,,,,,,99999,99999,99999,99999,99999,99999,99999,99999,99999,99999,99999,99999
40:04:10,1510553850,2017-11-13T06:17:32,0.742,1852.1,7.97,5.40,9.47,833.800,2045.640,104.183334,40.72,2.5329,355,23648,1.87946,3.78,37671,,,,,,,,,,,,,,,,,,99999,99999,99999,99999,99999,99999,99999,99999,99999,99999,99999,99999
40:04:40,1510553880,2017-11-13T06:18:02,0.745,1852.5,7.99,5.41,9.47,833.770,2045.700,106.133331,41.02,2.5328,355,23647,1.88604,3.78,37667,,,,,,,,,,,,,,,,,,99999,99999,99999,99999,99999,99999,99999,99999,99999,99999,99999,99999
40:05:10,1510553910,2017-11-13T06:18:32,0.743,1852.9,8.00,5.41,9.48,833.820,2045.700,105.416664,41.02,2.5327,355,23649,1.88245,3.78,37662,,,,,,,,,,,,,,,,,,99999,99999,99999,99999,99999,99999,99999,99999,99999,99999,99999,99999
40:05:40,1510553940,2017-11-13T06:19:02,0.742,1853.2,7.99,5.40,9.48,833.740,2045.700,105.633331,41.29,2.5328,355,23651,1.87946,3.78,37657,,,,,,,,,,,,,,,,,,99999,99999,99999,99999,99999,99999,99999,99999,99999,99999,99999,99999
40:06:10,1510553970,2017-11-13T06:19:32,0.741,1853.6,8.00,5.41,9.44,833.820,2045.700,104.833336,41.18,2.5327,355,23650,1.87797,3.78,37652,,,,,,,,,,,,,,,,,,99999,99999,99999,99999,99999,99999,99999,99999,99999,99999,99999,99999
40:06:40,1510554000,2017-11-13T06:20:02,0.743,1854.0,8.01,5.41,9.47,833.790,2045.770,105.666664,41.21,2.5327,355,23651,1.88215,3.78,37648,,,,,,,,,,,,,,,,,,99999,99999,99999,99999,99999,99999,99999,99999,99999,99999,99999,99999
40:07:10,1510554030,2017-11-13T06:20:32,0.739,1854.3,8.01,5.42,9.45,833.760,2045.770,105.800003,41.99,2.5327,355,23648,1.87230,3.78,37643,,,,,,,,,,,,,,,,,,99999,99999,99999,99999,99999,99999,99999,99999,99999,99999,99999,99999
40:07:40,1510554060,2017-11-13T06:21:02,0.741,1854.7,8.01,5.44,9.47,833.760,2045.770,104.966667,41.53,2.5327,355,23648,1.87558,3.78,37638,,,,,,,,,,,,,,,,,,99999,99999,99999,99999,99999,99999,99999,99999,99999,99999,99999,99999
40:08:10,1510554090,2017-11-13T06:21:32,0.741,1855.1,8.01,5.41,9.52,833.740,2045.770,105.900002,41.29,2.5327,355,23648,1.87558,3.78,37633,,,,,,,,,,,,,,,,,,99999,99999,99999,99999,99999,99999,99999,99999,99999,99999,99999,99999
40:08:40,1510554120,2017-11-13T06:22:02,0.736,1855.5,8.01,5.42,9.48,833.740,2045.770,104.166664,41.04,2.5327,355,23648,1.86515,3.78,37629,,,,,,,,,,,,,,,,,,99999,99999,99999,99999,99999,99999,99999,99999,99999,99999,99999,99999
40:09:10,1510554150,2017-11-13T06:22:32,0.744,1855.8,8.00,5.41,9.51,833.710,2045.700,106.033333,40.83,2.5327,355,23650,1.88334,3.78,37624,,,,,,,,,,,,,,,,,,99999,99999,99999,99999,99999,99999,99999,99999,99999,99999,99999,99999
40:09:40,1510554180,2017-11-13T06:23:02,0.737,1856.2,8.00,5.43,9.48,833.660,2045.700,103.866669,40.93,2.5327,355,23651,1.86694,3.78,37619,,,,,,,,,,,,,,,,,,99999,99999,99999,99999,99999,99999,99999,99999,99999,99999,99999,99999
40:10:10,1510554210,2017-11-13T06:23:32,0.744,1856.6,8.02,5.43,9.48,833.680,2045.770,105.699997,40.96,2.5326,355,23649,1.88304,3.78,37615,,,,,,,,,,,,,,,,,,99999,99999,99999,99999,99999,99999,99999,99999,99999,99999,99999,99999
40:10:40,1510554240,2017-11-13T06:24:02,0.744,1856.9,8.01,5.43,9.51,833.660,2045.770,106.150002,40.92,2.5327,355,23651,1.88334,3.78,37610,,,,,,,,,,,,,,,,,,99999,99999,99999,99999,99999,99999,99999,99999,99999,99999,99999,99999
40:11:10,1510554270,2017-11-13T06:24:32,0.742,1857.3,8.02,5.43,9.51,833.710,2045.770,106.083336,41.15,2.5326,355,23648,1.88035,3.78,37605,,,,,,,,,,,,,,,,,,99999,99999,99999,99999,99999,99999,99999,99999,99999,99999,99999,99999
40:11:40,1510554300,2017-11-13T06:25:02,0.741,1857.7,8.03,5.42,9.51,833.680,2045.870,105.849998,40.94,2.5327,355,23648,1.87618,3.78,37600,,,,,,,,,,,,,,,,,,99999,99999,99999,99999,99999,99999,99999,99999,99999,99999,99999,99999
40:12:10,1510554330,2017-11-13T06:25:32,0.737,1858.0,8.03,5.41,9.52,833.760,2045.870,104.466667,41.04,2.5327,355,23651,1.86753,3.78,37596,,,,,,,,,,,,,,,,,,99999,99999,99999,99999,99999,99999,99999,99999,99999,99999,99999,99999
40:12:40,1510554360,2017-11-13T06:26:02,0.740,1858.4,8.04,5.45,9.48,833.780,2045.870,105.533333,41.10,2.5326,355,23647,1.87319,3.78,37591,,,,,,,,,,,,,,,,,,99999,99999,99999,99999,99999,99999,99999,99999,99999,99999,99999,99999
40:13:10,1510554390,2017-11-13T06:26:32,0.743,1858.8,8.04,5.41,9.48,833.760,2045.870,106.516670,40.99,2.5326,355,23649,1.88215,3.78,37586,,,,,,,,,,,,,,,,,,99999,99999,99999,99999,99999,99999,99999,99999,99999,99999,99999,99999
40:13:40,1510554420,2017-11-13T06:27:02,0.744,1859.2,8.05,5.44,9.53,833.700,2045.910,106.599998,41.04,2.5325,355,23645,1.88304,3.78,37581,,,,,,,,,,,,,,,,,,99999,99999,99999,99999,99999,99999,99999,99999,99999,99999,99999,99999
40:14:10,1510554450,2017-11-13T06:27:32,0.744,1859.5,8.04,5.44,9.51,833.760,2045.870,105.883331,40.93,2.5326,355,23650,1.88544,3.78,37577,,,,,,,,,,,,,,,,,,99999,99999,99999,99999,99999,99999,99999,99999,99999,99999,99999,99999
40:14:40,1510554480,2017-11-13T06:28:02,0.738,1859.9,8.06,5.43,9.53,833.750,2045.930,104.583336,41.36,2.5324,355,23653,1.86932,3.78,37572,,,,,,,,,,,,,,,,,,99999,99999,99999,99999,99999,99999,99999,99999,99999,99999,99999,99999
40:15:10,1510554510,2017-11-13T06:28:32,0.740,1860.3,8.05,5.48,9.53,833.760,2045.910,106.650002,41.57,2.5325,355,23648,1.87468,3.78,37567,,,,,,,,,,,,,,,,,,99999,99999,99999,99999,99999,99999,99999,99999,99999,99999,99999,99999
40:15:40,1510554540,2017-11-13T06:29:02,0.744,1860.6,8.06,5.48,9.55,833.750,2045.930,106.500000,41.37,2.5324,355,23651,1.88454,3.78,37562,,,,,,,,,,,,,,,,,,99999,99999,99999,99999,99999,99999,99999,99999,99999,99999,99999,99999
40:16:10,1510554570,2017-11-13T06:29:32,0.745,1861.0,8.06,5.46,9.52,833.750,2045.930,106.566666,41.49,2.5324,355,23648,1.88604,3.78,37558,,,,,,,,,,,,,,,,,,99999,99999,99999,99999,99999,99999,99999,99999,99999,99999,99999,99999
40:16:40,1510554600,2017-11-13T06:30:02,0.745,1861.4,8.07,5.47,9.55,833.730,2045.970,106.300003,41.27,2.5324,355,23649,1.88753,3.78,37553,,,,,,,,,,,,,,,,,,99999,99999,99999,99999,99999,99999,99999,99999,99999,99999,99999,99999
40:17:10,1510554630,2017-11-13T06:30:32,0.741,1861.8,8.07,5.48,9.53,833.700,2045.970,104.599998,41.87,2.5324,355,23650,1.87588,3.78,37548,,,,,,,,,,,,,,,,,,99999,99999,99999,99999,99999,99999,99999,99999,99999,99999,99999,99999
40:17:40,1510554660,2017-11-13T06:31:02,0.737,1862.1,8.07,5.47,9.53,833.730,2045.970,105.183334,42.18,2.5324,355,23651,1.86575,3.78,37544,,,,,,,,,,,,,,,,,,99999,99999,99999,99999,99999,99999,99999,99999,99999,99999,99999,99999
40:18:10,1510554690,2017-11-13T06:31:32,0.746,1862.5,8.07,5.48,9.52,833.750,2045.970,106.233330,41.35,2.5324,355,23650,1.88813,3.78,37539,,,,,,,,,,,,,,,,,,99999,99999,99999,99999,99999,99999,99999,99999,99999,99999,99999,99999
40:18:40,1510554720,2017-11-13T06:32:02,0.741,1862.9,8.07,5.49,9.51,833.670,2045.970,105.449997,40.82,2.5324,355,23649,1.87677,3.78,37534,,,,,,,,,,,,,,,,,,99999,99999,99999,99999,99999,99999,99999,99999,99999,99999,99999,99999
40:19:10,1510554750,2017-11-13T06:32:32,0.738,1863.2,8.08,5.49,9.55,833.560,2046.040,104.349998,41.62,2.5324,355,23650,1.86962,3.78,37529,,,,,,,,,,,,,,,,,,99999,99999,99999,99999,99999,99999,99999,99999,99999,99999,99999,99999
40:19:40,1510554780,2017-11-13T06:33:02,0.737,1863.6,8.07,5.49,9.55,833.700,2045.970,104.116669,41.48,2.5324,355,23653,1.86575,3.78,37525,,,,,,,,,,,,,,,,,,99999,99999,99999,99999,99999,99999,99999,99999,99999,99999,99999,99999
40:20:10,1510554810,2017-11-13T06:33:32,0.736,1864.0,8.08,5.50,9.57,833.640,2046.040,104.583336,41.60,2.5324,355,23653,1.86456,3.78,37520,,,,,,,,,,,,,,,,,,99999,99999,99999,99999,99999,99999,99999,99999,99999,99999,99999,99999
40:20:40,1510554840,2017-11-13T06:34:02,0.737,1864.4,8.08,5.49,9.55,833.700,2046.040,104.916664,41.09,2.5324,355,23651,1.86604,3.78,37515,,,,,,,,,,,,,,,,,,99999,99999,99999,99999,99999,99999,99999,99999,99999,99999,99999,99999
40:21:10,1510554870,2017-11-13T06:34:32,0.740,1864.7,8.08,5.53,9.53,833.590,2046.040,105.000000,41.09,2.5324,355,23651,1.87409,3.78,37510,,,,,,,,,,,,,,,,,,99999,99999,99999,99999,99999,99999,99999,99999,99999,99999,99999,99999
40:21:40,1510554900,2017-11-13T06:35:02,0.745,1865.1,8.07,5.50,9.53,833.620,2045.970,106.750000,40.60,2.5324,355,23650,1.88723,3.78,37506,,,,,,,,,,,,,,,,,,99999,99999,99999,99999,99999,99999,99999,99999,99999,99999,99999,99999
40:22:10,1510554930,2017-11-13T06:35:32,0.743,1865.5,8.08,5.53,9.55,833.670,2046.040,105.516670,42.03,2.5324,355,23654,1.88095,3.78,37501,,,,,,,,,,,,,,,,,,99999,99999,99999,99999,99999,99999,99999,99999,99999,99999,99999,99999
40:22:40,1510554960,2017-11-13T06:36:02,0.739,1865.8,8.09,5.52,9.57,833.700,2046.040,104.849998,42.68,2.5322,355,23651,1.87200,3.78,37496,,,,,,,,,,,,,,,,,,99999,99999,99999,99999,99999,99999,99999,99999,99999,99999,99999,99999
40:23:10,1510554990,2017-11-13T06:36:32,0.740,1866.2,8.09,5.52,9.60,833.670,2046.040,104.666664,42.81,2.5322,355,23650,1.87438,3.78,37491,,,,,,,,,,,,,,,,,,99999,99999,99999,99999,99999,99999,99999,99999,99999,99999,99999,99999
40:23:40,1510555020,2017-11-13T06:37:02,0.740,1866.6,8.09,5.55,9.59,833.540,2046.040,104.616669,41.65,2.5323,355,23653,1.87468,3.78,37487,,,,,,,,,,,,,,,,,,99999,99999,99999,99999,99999,99999,99999,99999,99999,99999,99999,99999
40:24:10,1510555050,2017-11-13T06:37:32,0.738,1866.9,8.11,5.53,9.60,833.540,2046.100,105.099998,41.23,2.5322,355,23652,1.86962,3.78,37482,,,,,,,,,,,,,,,,,,99999,99999,99999,99999,99999,99999,99999,99999,99999,99999,99999,99999
40:24:40,1510555080,2017-11-13T06:38:02,0.738,1867.3,8.11,5.55,9.55,833.610,2046.100,104.800003,41.09,2.5322,355,23653,1.86902,3.78,37477,,,,,,,,,,,,,,,,,,99999,99999,99999,99999,99999,99999,99999,99999,99999,99999,99999,99999
40:25:10,1510555110,2017-11-13T06:38:32,0.739,1867.7,8.11,5.53,9.60,833.670,2046.100,104.849998,40.71,2.5322,355,23655,1.87111,3.78,37473,,,,,,,,,,,,,,,,,,99999,99999,99999,99999,99999,99999,99999,99999,99999,99999,99999,99999
40:25:40,1510555140,2017-11-13T06:39:02,0.738,1868.1,8.13,5.56,9.59,833.550,2046.140,104.349998,39.83,2.5321,355,23655,1.86992,3.78,37468,,,,,,,,,,,,,,,,,,99999,99999,99999,99999,99999,99999,99999,99999,99999,99999,99999,99999
40:26:10,1510555170,2017-11-13T06:39:32,0.746,1868.4,8.13,5.56,9.57,833.600,2046.140,105.883331,40.89,2.5321,355,23654,1.88963,3.78,37463,,,,,,,,,,,,,,,,,,99999,99999,99999,99999,99999,99999,99999,99999,99999,99999,99999,99999
40:26:40,1510555200,2017-11-13T06:40:02,0.738,1868.8,8.14,5.59,9.60,833.520,2046.200,104.750000,41.16,2.5321,355,23653,1.86962,3.78,37458,,,,,,,,,,,,,,,,,,99999,99999,99999,99999,99999,99999,99999,99999,99999,99999,99999,99999
40:27:10,1510555230,2017-11-13T06:40:32,0.743,1869.2,8.16,5.60,9.60,833.550,2046.310,105.766670,41.54,2.5320,355,23655,1.88125,3.78,37454,,,,,,,,,,,,,,,,,,99999,99999,99999,99999,99999,99999,99999,99999,99999,99999,99999,99999
40:27:40,1510555260,2017-11-13T06:41:02,0.742,1869.5,8.17,5.60,9.61,833.540,2046.310,106.083336,41.81,2.5319,355,23652,1.87976,3.78,37449,,,,,,,,,,,,,,,,,,99999,99999,99999,99999,99999,99999,99999,99999,99999,99999,99999,99999
40:28:10,1510555290,2017-11-13T06:41:32,0.738,1869.9,8.18,5.63,9.66,833.620,2046.370,104.033333,41.45,2.5319,355,23655,1.86843,3.78,37444,,,,,,,,,,,,,,,,,,99999,99999,99999,99999,99999,99999,99999,99999,99999,99999,99999,99999
40:28:40,1510555320,2017-11-13T06:42:02,0.744,1870.3,8.19,5.63,9.68,833.620,2046.370,106.183334,41.15,2.5318,355,23657,1.88454,3.78,37439,,,,,,,,,,,,,,,,,,99999,99999,99999,99999,99999,99999,99999,99999,99999,99999,99999,99999
40:29:10,1510555350,2017-11-13T06:42:32,0.744,1870.7,8.21,5.66,9.66,833.640,2046.470,106.666664,40.64,2.5318,355,23656,1.88424,3.78,37435,,,,,,,,,,,,,,,,,,99999,99999,99999,99999,99999,99999,99999,99999,99999,99999,99999,99999
40:29:40,1510555380,2017-11-13T06:43:02,0.737,1871.0,8.23,5.66,9.66,833.690,2046.470,104.849998,40.57,2.5316,355,23656,1.86634,3.78,37430,,,,,,,,,,,,,,,,,,99999,99999,99999,99999,99999,99999,99999,99999,99999,99999,99999,99999
40:30:10,1510555410,2017-11-13T06:43:32,0.737,1871.4,8.24,5.68,9.66,833.680,2046.540,104.483330,41.09,2.5316,355,23654,1.86634,3.78,37425,,,,,,,,,,,,,,,,,,99999,99999,99999,99999,99999,99999,99999,99999,99999,99999,99999,99999
40:30:40,1510555440,2017-11-13T06:44:02,0.744,1871.8,8.25,5.68,9.72,833.660,2046.600,106.233330,40.76,2.5316,355,23657,1.88364,3.78,37420,,,,,,,,,,,,,,,,,,99999,99999,99999,99999,99999,99999,99999,99999,99999,99999,99999,99999
40:31:10,1510555470,2017-11-13T06:44:32,0.746,1872.1,8.26,5.70,9.72,833.680,2046.600,106.966667,40.10,2.5315,355,23660,1.88813,3.78,37416,,,,,,,,,,,,,,,,,,99999,99999,99999,99999,99999,99999,99999,99999,99999,99999,99999,99999
40:31:40,1510555500,2017-11-13T06:45:02,0.743,1872.5,8.28,5.71,9.73,833.650,2046.640,105.616669,40.02,2.5314,355,23657,1.88035,3.78,37411,,,,,,,,,,,,,,,,,,99999,99999,99999,99999,99999,99999,99999,99999,99999,99999,99999,99999
40:32:10,1510555530,2017-11-13T06:45:32,0.740,1872.9,8.30,5.75,9.74,833.700,2046.770,105.966667,40.02,2.5314,355,23655,1.87349,3.78,37406,,,,,,,,,,,,,,,,,,99999,99999,99999,99999,99999,99999,99999,99999,99999,99999,99999,99999
40:32:40,1510555560,2017-11-13T06:46:02,0.741,1873.3,8.30,5.74,9.76,833.720,2046.770,104.599998,40.10,2.5314,355,23662,1.87618,3.77,37401,,,,,,,,,,,,,,,,,,99999,99999,99999,99999,99999,99999,99999,99999,99999,99999,99999,99999
40:33:10,1510555590,2017-11-13T06:46:32,0.745,1873.6,8.33,5.80,9.81,833.660,2046.870,105.783333,40.70,2.5312,355,23662,1.88454,3.78,37397,,,,,,,,,,,,,,,,,,99999,99999,99999,99999,99999,99999,99999,99999,99999,99999,99999,99999
40:33:40,1510555620,2017-11-13T06:47:02,0.740,1874.0,8.35,5.78,9.80,833.710,2046.940,105.849998,40.79,2.5311,355,23673,1.87349,3.77,37392,,,,,,,,,,,,,,,,,,99999,99999,99999,99999,99999,99999,99999,99999,99999,99999,99999,99999
40:34:10,1510555650,2017-11-13T06:47:32,0.746,1874.4,8.36,5.79,9.81,833.710,2046.940,107.416664,41.32,2.5310,355,23644,1.88843,3.77,37387,,,,,,,,,,,,,,,,,,99999,99999,99999,99999,99999,99999,99999,99999,99999,99999,99999,99999
40:34:40,1510555680,2017-11-13T06:48:02,0.746,1874.7,8.37,5.80,9.82,833.680,2046.970,107.166664,41.50,2.5309,355,23658,1.88753,3.77,37382,,,,,,,,,,,,,,,,,,99999,99999,99999,99999,99999,99999,99999,99999,99999,99999,99999,99999
40:35:10,1510555710,2017-11-13T06:48:32,0.739,1875.1,8.39,5.83,9.86,833.750,2047.040,104.966667,41.17,2.5308,355,23660,1.87111,3.77,37378,,,,,,,,,,,,,,,,,,99999,99999,99999,99999,99999,99999,99999,99999,99999,99999,99999,99999
40:35:40,1510555740,2017-11-13T06:49:02,0.746,1875.5,8.40,5.83,9.84,833.650,2047.040,106.066666,40.55,2.5308,355,23661,1.88783,3.77,37373,,,,,,,,,,,,,,,,,,99999,99999,99999,99999,99999,99999,99999,99999,99999,99999,99999,99999
40:36:10,1510555770,2017-11-13T06:49:32,0.748,1875.9,8.41,5.86,9.88,833.720,2047.100,106.133331,40.82,2.5307,355,23649,1.89173,3.77,37368,,,,,,,,,,,,,,,,,,99999,99999,99999,99999,99999,99999,99999,99999,99999,99999,99999,99999
40:36:40,1510555800,2017-11-13T06:50:02,0.746,1876.2,8.42,5.84,9.86,833.620,2047.210,106.116669,40.66,2.5308,355,23645,1.88873,3.77,37363,,,,,,,,,,,,,,,,,,99999,99999,99999,99999,99999,99999,99999,99999,99999,99999,99999,99999
40:37:10,1510555830,2017-11-13T06:50:32,0.745,1876.6,8.44,5.86,9.88,833.670,2047.210,105.516670,40.45,2.5306,355,23662,1.88544,3.77,37359,,,,,,,,,,,,,,,,,,99999,99999,99999,99999,99999,99999,99999,99999,99999,99999,99999,99999
40:37:40,1510555860,2017-11-13T06:51:02,0.747,1877.0,8.44,5.88,9.90,833.610,2047.210,107.400002,40.37,2.5306,355,23658,1.88963,3.77,37354,,,,,,,,,,,,,,,,,,99999,99999,99999,99999,99999,99999,99999,99999,99999,99999,99999,99999
40:38:10,1510555890,2017-11-13T06:51:32,0.743,1877.3,8.47,5.89,9.94,833.660,2047.370,105.533333,40.55,2.5305,355,23671,1.87916,3.77,37349,,,,,,,,,,,,,,,,,,99999,99999,99999,99999,99999,99999,99999,99999,99999,99999,99999,99999
40:38:40,1510555920,2017-11-13T06:52:02,0.746,1877.7,8.49,5.90,9.92,833.660,2047.440,106.216667,40.23,2.5304,355,23657,1.88813,3.77,37344,,,,,,,,,,,,,,,,,,99999,99999,99999,99999,99999,99999,99999,99999,99999,99999,99999,99999
40:39:10,1510555950,2017-11-13T06:52:32,0.740,1878.1,8.49,5.91,9.94,833.600,2047.440,105.966667,40.26,2.5304,355,23678,1.87170,3.77,37340,,,,,,,,,,,,,,,,,,99999,99999,99999,99999,99999,99999,99999,99999,99999,99999,99999,99999
40:39:40,1510555980,2017-11-13T06:53:02,0.744,1878.5,8.50,5.91,9.95,833.620,2047.440,106.333336,39.94,2.5304,355,23661,1.88215,3.77,37335,,,,,,,,,,,,,,,,,,99999,99999,99999,99999,99999,99999,99999,99999,99999,99999,99999,99999
40:40:10,1510556010,2017-11-13T06:53:32,0.742,1878.8,8.51,5.93,9.97,833.680,2047.480,106.083336,39.82,2.5303,355,23661,1.87677,3.77,37330,,,,,,,,,,,,,,,,,,99999,99999,99999,99999,99999,99999,99999,99999,99999,99999,99999,99999
40:40:40,1510556040,2017-11-13T06:54:02,0.742,1879.2,8.53,5.94,9.98,833.670,2047.540,106.133331,39.87,2.5302,355,23659,1.87707,3.77,37325,,,,,,,,,,,,,,,,,,99999,99999,99999,99999,99999,99999,99999,99999,99999,99999,99999,99999
40:41:10,1510556070,2017-11-13T06:54:32,0.741,1879.6,8.54,5.95,9.97,833.690,2047.540,105.633331,39.93,2.5301,355,23659,1.87558,3.77,37320,,,,,,,,,,,,,,,,,,99999,99999,99999,99999,99999,99999,99999,99999,99999,99999,99999,99999
40:41:40,1510556100,2017-11-13T06:55:02,0.746,1879.9,8.55,5.97,10.02,833.690,2047.640,106.516670,39.71,2.5302,355,23647,1.88813,3.77,37316,,,,,,,,,,,,,,,,,,99999,99999,99999,99999,99999,99999,99999,99999,99999,99999,99999,99999
40:42:10,1510556130,2017-11-13T06:55:32,0.747,1880.3,8.57,5.99,10.01,833.710,2047.710,106.283333,40.06,2.5301,355,23663,1.89083,3.77,37311,,,,,,,,,,,,,,,,,,99999,99999,99999,99999,99999,99999,99999,99999,99999,99999,99999,99999
40:42:40,1510556160,2017-11-13T06:56:02,0.747,1880.7,8.57,6.02,10.05,833.740,2047.710,107.516670,40.58,2.5300,355,23662,1.89083,3.77,37306,,,,,,,,,,,,,,,,,,99999,99999,99999,99999,99999,99999,99999,99999,99999,99999,99999,99999
40:43:10,1510556190,2017-11-13T06:56:32,0.740,1881.1,8.59,6.00,10.03,833.790,2047.770,104.500000,39.73,2.5300,355,23664,1.87260,3.77,37301,,,,,,,,,,,,,,,,,,99999,99999,99999,99999,99999,99999,99999,99999,99999,99999,99999,99999
40:43:40,1510556220,2017-11-13T06:57:02,0.748,1881.4,8.61,6.02,10.05,833.730,2047.810,106.233330,39.96,2.5298,355,23661,1.89322,3.77,37297,,,,,,,,,,,,,,,,,,99999,99999,99999,99999,99999,99999,99999,99999,99999,99999,99999,99999
40:44:10,1510556250,2017-11-13T06:57:32,0.746,1881.8,8.62,6.03,10.09,833.760,2047.870,107.633331,40.04,2.5298,355,23653,1.88723,3.77,37292,,,,,,,,,,,,,,,,,,99999,99999,99999,99999,99999,99999,99999,99999,99999,99999,99999,99999
40:44:40,1510556280,2017-11-13T06:58:02,0.744,1882.2,8.63,6.05,10.09,833.730,2047.870,105.300003,40.17,2.5297,355,23666,1.88304,3.77,37287,,,,,,,,,,,,,,,,,,99999,99999,99999,99999,99999,99999,99999,99999,99999,99999,99999,99999
40:45:10,1510556310,2017-11-13T06:58:32,0.747,1882.6,8.64,6.06,10.06,833.700,2047.940,107.500000,40.05,2.5297,355,23655,1.88933,3.77,37282,,,,,,,,,,,,,,,,,,99999,99999,99999,99999,99999,99999,99999,99999,99999,99999,99999,99999
40:45:40,1510556340,2017-11-13T06:59:02,0.747,1882.9,8.65,6.06,10.11,833.590,2047.940,107.383331,40.37,2.5296,355,23666,1.89083,3.77,37278,,,,,,,,,,,,,,,,,,99999,99999,99999,99999,99999,99999,99999,99999,99999,99999,99999,99999
40:46:10,1510556370,2017-11-13T06:59:32,0.747,1883.3,8.66,6.05,10.11,833.700,2047.980,106.333336,40.45,2.5295,355,23668,1.88993,3.77,37273,,,,,,,,,,,,,,,,,,99999,99999,99999,99999,99999,99999,99999,99999,99999,99999,99999,99999
40:46:40,1510556400,2017-11-13T07:00:02,0.741,1883.7,8.67,6.09,10.13,833.690,2047.980,104.400002,40.16,2.5295,355,23682,1.87468,3.77,37268,,,,,,,,,,,,,,,,,,99999,99999,99999,99999,99999,99999,99999,99999,99999,99999,99999,99999
40:47:10,1510556430,2017-11-13T07:00:32,0.747,1884.0,8.68,6.10,10.13,833.680,2048.100,108.300003,39.95,2.5295,355,23666,1.88993,3.77,37263,,,,,,,,,,,,,,,,,,99999,99999,99999,99999,99999,99999,99999,99999,99999,99999,99999,99999
40:47:40,1510556460,2017-11-13T07:01:02,0.749,1884.4,8.69,6.11,10.13,833.710,2048.100,106.333336,40.20,2.5294,355,23668,1.89413,3.77,37259,,,,,,,,,,,,,,,,,,99999,99999,99999,99999,99999,99999,99999,99999,99999,99999,99999,99999
40:48:10,1510556490,2017-11-13T07:01:32,0.748,1884.8,8.69,6.11,10.15,833.660,2048.100,107.300003,40.57,2.5294,355,23668,1.89203,3.77,37254,,,,,,,,,,,,,,,,,,99999,99999,99999,99999,99999,99999,99999,99999,99999,99999,99999,99999
40:48:40,1510556520,2017-11-13T07:02:02,0.741,1885.2,8.70,6.11,10.18,833.600,2048.140,104.783333,40.67,2.5294,355,23669,1.87349,3.77,37249,,,,,,,,,,,,,,,,,,99999,99999,99999,99999,99999,99999,99999,99999,99999,99999,99999,99999
40:49:10,1510556550,2017-11-13T07:02:32,0.742,1885.5,8.71,6.12,10.21,833.630,2048.210,106.116669,40.50,2.5294,355,23671,1.87647,3.77,37244,,,,,,,,,,,,,,,,,,99999,99999,99999,99999,99999,99999,99999,99999,99999,99999,99999,99999
40:49:40,1510556580,2017-11-13T07:03:02,0.747,1885.9,8.71,6.12,10.16,833.550,2048.210,107.833336,40.13,2.5294,355,23668,1.88993,3.77,37239,,,,,,,,,,,,,,,,,,99999,99999,99999,99999,99999,99999,99999,99999,99999,99999,99999,99999
40:50:10,1510556610,2017-11-13T07:03:32,0.748,1886.3,8.72,6.12,10.19,833.550,2048.210,107.616669,39.84,2.5293,355,23667,1.89233,3.77,37235,,,,,,,,,,,,,,,,,,99999,99999,99999,99999,99999,99999,99999,99999,99999,99999,99999,99999
40:50:40,1510556640,2017-11-13T07:04:02,0.743,1886.6,8.71,6.14,10.18,833.550,2048.210,105.833336,39.85,2.5294,355,23653,1.87916,3.77,37230,,,,,,,,,,,,,,,,,,99999,99999,99999,99999,99999,99999,99999,99999,99999,99999,99999,99999
40:51:10,1510556670,2017-11-13T07:04:32,0.747,1887.0,8.72,6.15,10.16,833.600,2048.210,108.000000,40.13,2.5293,355,23668,1.88903,3.77,37225,,,,,,,,,,,,,,,,,,99999,99999,99999,99999,99999,99999,99999,99999,99999,99999,99999,99999
40:51:40,1510556700,2017-11-13T07:05:02,0.748,1887.4,8.72,6.14,10.18,833.600,2048.210,107.883331,40.42,2.5293,355,23668,1.89203,3.77,37220,,,,,,,,,,,,,,,,,,99999,99999,99999,99999,99999,99999,99999,99999,99999,99999,99999,99999
40:52:10,1510556730,2017-11-13T07:05:32,0.746,1887.8,8.73,6.16,10.21,833.620,2048.210,107.400002,40.41,2.5292,355,23666,1.88723,3.77,37216,,,,,,,,,,,,,,,,,,99999,99999,99999,99999,99999,99999,99999,99999,99999,99999,99999,99999
40:52:40,1510556760,2017-11-13T07:06:02,0.746,1888.1,8.74,6.16,10.23,833.620,2048.270,107.683334,40.30,2.5292,355,23667,1.88753,3.77,37211,,,,,,,,,,,,,,,,,,99999,99999,99999,99999,99999,99999,99999,99999,99999,99999,99999,99999
40:53:10,1510556790,2017-11-13T07:06:32,0.748,1888.5,8.74,6.17,10.19,833.570,2048.270,107.400002,40.29,2.5292,355,23669,1.89233,3.77,37206,,,,,,,,,,,,,,,,,,99999,99999,99999,99999,99999,99999,99999,99999,99999,99999,99999,99999
40:53:40,1510556820,2017-11-13T07:07:02,0.742,1888.9,8.74,6.17,10.19,833.600,2048.270,105.033333,40.63,2.5292,355,23669,1.87588,3.77,37201,,,,,,,,,,,,,,,,,,99999,99999,99999,99999,99999,99999,99999,99999,99999,99999,99999,99999
40:54:10,1510556850,2017-11-13T07:07:32,0.743,1889.2,8.74,6.17,10.21,833.570,2048.270,106.966667,40.21,2.5292,355,23665,1.87976,3.77,37196,,,,,,,,,,,,,,,,,,99999,99999,99999,99999,99999,99999,99999,99999,99999,99999,99999,99999
40:54:40,1510556880,2017-11-13T07:08:02,0.747,1889.6,8.75,6.18,10.23,833.490,2048.330,106.916664,40.14,2.5292,355,23669,1.89023,3.77,37192,,,,,,,,,,,,,,,,,,99999,99999,99999,99999,99999,99999,99999,99999,99999,99999,99999,99999
40:55:10,1510556910,2017-11-13T07:08:32,0.741,1890.0,8.76,6.18,10.23,833.590,2048.330,104.949997,40.19,2.5291,355,23671,1.87438,3.77,37187,,,,,,,,,,,,,,,,,,99999,99999,99999,99999,99999,99999,99999,99999,99999,99999,99999,99999
40:55:40,1510556940,2017-11-13T07:09:02,0.744,1890.4,8.76,6.18,10.21,833.540,2048.330,106.733330,39.99,2.5291,355,23668,1.88275,3.77,37182,,,,,,,,,,,,,,,,,,99999,99999,99999,99999,99999,99999,99999,99999,99999,99999,99999,99999
40:56:10,1510556970,2017-11-13T07:09:32,0.748,1890.7,8.77,6.20,10.23,833.540,2048.370,107.699997,40.09,2.5290,355,23670,1.89173,3.77,37177,,,,,,,,,,,,,,,,,,99999,99999,99999,99999,99999,99999,99999,99999,99999,99999,99999,99999
40:56:40,1510557000,2017-11-13T07:10:02,0.741,1891.1,8.77,6.20,10.23,833.590,2048.370,105.983330,40.20,2.5290,355,23667,1.87409,3.77,37172,,,,,,,,,,,,,,,,,,99999,99999,99999,99999,99999,99999,99999,99999,99999,99999,99999,99999
40:57:10,1510557030,2017-11-13T07:10:32,0.747,1891.5,8.78,6.22,10.26,833.590,2048.370,106.416664,40.27,2.5289,355,23670,1.88903,3.77,37168,,,,,,,,,,,,,,,,,,99999,99999,99999,99999,99999,99999,99999,99999,99999,99999,99999,99999
40:57:40,1510557060,2017-11-13T07:11:02,0.747,1891.9,8.79,6.22,10.24,833.660,2048.440,109.000000,40.12,2.5289,355,23671,1.88993,3.77,37163,,,,,,,,,,,,,,,,,,99999,99999,99999,99999,99999,99999,99999,99999,99999,99999,99999,99999
40:58:10,1510557090,2017-11-13T07:11:32,0.742,1892.2,8.78,6.21,10.26,833.610,2048.370,107.016670,40.16,2.5290,355,23667,1.87707,3.77,37158,,,,,,,,,,,,,,,,,,99999,99999,99999,99999,99999,99999,99999,99999,99999,99999,99999,99999
40:58:40,1510557120,2017-11-13T07:12:02,0.743,1892.6,8.79,6.21,10.26,833.660,2048.440,107.433334,40.13,2.5289,355,23674,1.87916,3.77,37153,,,,,,,,,,,,,,,,,,99999,99999,99999,99999,99999,99999,99999,99999,99999,99999,99999,99999
40:59:10,1510557150,2017-11-13T07:12:32,0.746,1893.0,8.80,6.23,10.26,833.640,2048.440,105.983330,40.63,2.5288,355,23673,1.88723,3.77,37149,,,,,,,,,,,,,,,,,,99999,99999,99999,99999,99999,99999,99999,99999,99999,99999,99999,99999
40:59:40,1510557180,2017-11-13T07:13:02,0.742,1893.3,8.81,6.27,10.24,833.680,2048.540,107.116669,40.13,2.5289,355,23671,1.87558,3.77,37144,,,,,,,,,,,,,,,,,,99999,99999,99999,99999,99999,99999,99999,99999,99999,99999,99999,99999
41:00:10,1510557210,2017-11-13T07:13:32,0.745,1893.7,8.82,6.25,10.31,833.680,2048.600,108.949997,39.93,2.5289,355,23671,1.88454,3.77,37139,,,,,,,,,,,,,,,,,,99999,99999,99999,99999,99999,99999,99999,99999,99999,99999,99999,99999
41:00:40,1510557240,2017-11-13T07:14:02,0.747,1894.1,8.83,6.24,10.27,833.680,2048.600,106.300003,40.11,2.5288,355,23672,1.88843,3.77,37134,,,,,,,,,,,,,,,,,,99999,99999,99999,99999,99999,99999,99999,99999,99999,99999,99999,99999
41:01:10,1510557270,2017-11-13T07:14:32,0.746,1894.5,8.83,6.29,10.31,833.680,2048.600,107.566666,39.93,2.5288,355,23672,1.88753,3.77,37129,,,,,,,,,,,,,,,,,,99999,99999,99999,99999,99999,99999,99999,99999,99999,99999,99999,99999
41:01:40,1510557300,2017-11-13T07:15:02,0.740,1894.8,8.85,6.28,10.30,833.730,2048.660,106.650002,39.74,2.5287,355,23671,1.87140,3.77,37125,,,,,,,,,,,,,,,,,,99999,99999,99999,99999,99999,99999,99999,99999,99999,99999,99999,99999
41:02:10,1510557330,2017-11-13T07:15:32,0.742,1895.2,8.84,6.28,10.32,833.730,2048.660,106.566666,39.69,2.5288,355,23673,1.87528,3.77,37120,,,,,,,,,,,,,,,,,,99999,99999,99999,99999,99999,99999,99999,99999,99999,99999,99999,99999
41:02:40,1510557360,2017-11-13T07:16:02,0.748,1895.6,8.87,6.31,10.32,833.750,2048.710,107.883331,39.93,2.5286,355,23677,1.89113,3.77,37115,,,,,,,,,,,,,,,,,,99999,99999,99999,99999,99999,99999,99999,99999,99999,99999,99999,99999
41:03:10,1510557390,2017-11-13T07:16:32,0.750,1895.9,8.86,6.30,10.32,833.650,2048.660,107.250000,39.72,2.5286,355,23675,1.89563,3.77,37110,,,,,,,,,,,,,,,,,,99999,99999,99999,99999,99999,99999,99999,99999,99999,99999,99999,99999
41:03:40,1510557420,2017-11-13T07:17:02,0.748,1896.3,8.87,6.32,10.34,833.750,2048.710,105.716667,39.88,2.5286,355,23676,1.89113,3.77,37106,,,,,,,,,,,,,,,,,,99999,99999,99999,99999,99999,99999,99999,99999,99999,99999,99999,99999
41:04:10,1510557450,2017-11-13T07:17:32,0.750,1896.7,8.89,6.35,10.36,833.770,2048.770,106.550003,39.63,2.5285,355,23676,1.89743,3.77,37101,,,,,,,,,,,,,,,,,,99999,99999,99999,99999,99999,99999,99999,99999,99999,99999,99999,99999
41:04:40,1510557480,2017-11-13T07:18:02,0.749,1897.1,8.89,6.33,10.34,833.720,2048.770,106.966667,39.62,2.5285,355,23677,1.89353,3.77,37096,,,,,,,,,,,,,,,,,,99999,99999,99999,99999,99999,99999,99999,99999,99999,99999,99999,99999
41:05:10,1510557510,2017-11-13T07:18:32,0.748,1897.4,8.91,6.34,10.38,833.720,2048.830,106.883331,39.90,2.5284,355,23675,1.89053,3.77,37091,,,,,,,,,,,,,,,,,,99999,99999,99999,99999,99999,99999,99999,99999,99999,99999,99999,99999
41:05:40,1510557540,2017-11-13T07:19:02,0.743,1897.8,8.91,6.35,10.40,833.690,2048.830,105.033333,39.60,2.5284,355,23676,1.87797,3.77,37086,,,,,,,,,,,,,,,,,,99999,99999,99999,99999,99999,99999,99999,99999,99999,99999,99999,99999
41:06:10,1510557570,2017-11-13T07:19:32,0.742,1898.2,8.92,6.37,10.36,833.760,2048.870,105.683334,39.54,2.5283,355,23677,1.87618,3.77,37082,,,,,,,,,,,,,,,,,,99999,99999,99999,99999,99999,99999,99999,99999,99999,99999,99999,99999
41:06:40,1510557600,2017-11-13T07:20:02,0.745,1898.6,8.94,6.36,10.40,833.550,2048.870,107.366669,39.37,2.5282,355,23676,1.88245,3.77,37077,,,,,,,,,,,,,,,,,,99999,99999,99999,99999,99999,99999,99999,99999,99999,99999,99999,99999
41:07:10,1510557630,2017-11-13T07:20:32,0.749,1898.9,8.95,6.39,10.45,833.730,2049.040,108.283333,39.59,2.5283,355,23676,1.89442,3.77,37072,,,,,,,,,,,,,,,,,,99999,99999,99999,99999,99999,99999,99999,99999,99999,99999,99999,99999
41:07:40,1510557660,2017-11-13T07:21:02,0.744,1899.3,8.95,6.40,10.40,833.620,2049.040,107.316666,39.83,2.5282,355,23676,1.88125,3.77,37067,,,,,,,,,,,,,,,,,,99999,99999,99999,99999,99999,99999,99999,99999,99999,99999,99999,99999
41:08:10,1510557690,2017-11-13T07:21:32,0.744,1899.7,8.97,6.39,10.40,833.650,2049.100,105.500000,39.80,2.5281,355,23677,1.87976,3.77,37063,,,,,,,,,,,,,,,,,,99999,99999,99999,99999,99999,99999,99999,99999,99999,99999,99999,99999
41:08:40,1510557720,2017-11-13T07:22:02,0.749,1900.0,8.99,6.42,10.44,833.590,2049.160,108.316666,39.19,2.5281,355,23676,1.89292,3.77,37058,,,,,,,,,,,,,,,,,,99999,99999,99999,99999,99999,99999,99999,99999,99999,99999,99999,99999
41:09:10,1510557750,2017-11-13T07:22:32,0.746,1900.4,8.98,6.42,10.47,833.620,2049.100,106.866669,39.33,2.5281,355,23678,1.88663,3.77,37053,,,,,,,,,,,,,,,,,,99999,99999,99999,99999,99999,99999,99999,99999,99999,99999,99999,99999
41:09:40,1510557780,2017-11-13T07:23:02,0.742,1900.8,8.99,6.44,10.44,833.590,2049.160,106.050003,39.69,2.5280,355,23677,1.87647,3.77,37048,,,,,,,,,,,,,,,,,,99999,99999,99999,99999,99999,99999,99999,99999,99999,99999,99999,99999
41:10:10,1510557810,2017-11-13T07:23:32,0.745,1901.2,9.00,6.45,10.47,833.530,2049.160,107.183334,39.62,2.5280,355,23677,1.88334,3.77,37043,,,,,,,,,,,,,,,,,,99999,99999,99999,99999,99999,99999,99999,99999,99999,99999,99999,99999
41:10:40,1510557840,2017-11-13T07:24:02,0.744,1901.5,8.99,6.45,10.48,833.590,2049.160,106.533333,39.58,2.5280,355,23679,1.88035,3.77,37039,,,,,,,,,,,,,,,,,,99999,99999,99999,99999,99999,99999,99999,99999,99999,99999,99999,99999
41:11:10,1510557870,2017-11-13T07:24:32,0.750,1901.9,9.01,6.47,10.48,833.510,2049.210,108.133331,39.14,2.5279,355,23677,1.89502,3.77,37034,,,,,,,,,,,,,,,,,,99999,99999,99999,99999,99999,99999,99999,99999,99999,99999,99999,99999
41:11:40,1510557900,2017-11-13T07:25:02,0.745,1902.3,9.02,6.46,10.51,833.510,2049.210,107.116669,38.86,2.5279,355,23677,1.88364,3.77,37029,,,,,,,,,,,,,,,,,,99999,99999,99999,99999,99999,99999,99999,99999,99999,99999,99999,99999
41:12:10,1510557930,2017-11-13T07:25:32,0.745,1902.7,9.03,6.45,10.52,833.550,2049.270,105.483330,39.25,2.5278,355,23678,1.88215,3.77,37024,,,,,,,,,,,,,,,,,,99999,99999,99999,99999,99999,99999,99999,99999,99999,99999,99999,99999
41:12:40,1510557960,2017-11-13T07:26:02,0.749,1903.0,9.04,6.49,10.51,833.470,2049.270,107.083336,39.13,2.5278,355,23681,1.89233,3.77,37019,,,,,,,,,,,,,,,,,,99999,99999,99999,99999,99999,99999,99999,99999,99999,99999,99999,99999
41:13:10,1510557990,2017-11-13T07:26:32,0.748,1903.4,9.05,6.50,10.53,833.520,2049.330,108.666664,38.96,2.5277,355,23679,1.89173,3.77,37015,,,,,,,,,,,,,,,,,,99999,99999,99999,99999,99999,99999,99999,99999,99999,99999,99999,99999
41:13:40,1510558020,2017-11-13T07:27:02,0.747,1903.8,9.07,6.51,10.53,833.490,2049.440,106.516670,38.80,2.5277,355,23680,1.88723,3.77,37010,,,,,,,,,,,,,,,,,,99999,99999,99999,99999,99999,99999,99999,99999,99999,99999,99999,99999
41:14:10,1510558050,2017-11-13T07:27:32,0.743,1904.1,9.07,6.51,10.51,833.550,2049.440,106.349998,38.98,2.5277,355,23679,1.87916,3.77,37005,,,,,,,,,,,,,,,,,,99999,99999,99999,99999,99999,99999,99999,99999,99999,99999,99999,99999
41:14:40,1510558080,2017-11-13T07:28:02,0.748,1904.5,9.08,6.53,10.56,833.490,2049.500,107.099998,40.13,2.5276,355,23679,1.89113,3.77,37000,,,,,,,,,,,,,,,,,,99999,99999,99999,99999,99999,99999,99999,99999,99999,99999,99999,99999
41:15:10,1510558110,2017-11-13T07:28:32,0.749,1904.9,9.08,6.52,10.53,833.550,2049.500,107.599998,39.98,2.5276,355,23679,1.89413,3.77,36995,,,,,,,,,,,,,,,,,,99999,99999,99999,99999,99999,99999,99999,99999,99999,99999,99999,99999
41:15:40,1510558140,2017-11-13T07:29:02,0.749,1905.3,9.09,6.54,10.55,833.540,2049.500,107.699997,39.44,2.5276,355,23679,1.89413,3.77,36991,,,,,,,,,,,,,,,,,,99999,99999,99999,99999,99999,99999,99999,99999,99999,99999,99999,99999
41:16:10,1510558170,2017-11-13T07:29:32,0.749,1905.6,9.11,6.53,10.55,833.540,2049.540,108.233330,38.96,2.5275,355,23679,1.89233,3.77,36986,,,,,,,,,,,,,,,,,,99999,99999,99999,99999,99999,99999,99999,99999,99999,99999,99999,99999
41:16:40,1510558200,2017-11-13T07:30:02,0.750,1906.0,9.10,6.55,10.56,833.620,2049.540,107.683334,39.08,2.5275,355,23680,1.89683,3.77,36981,,,,,,,,,,,,,,,,,,99999,99999,99999,99999,99999,99999,99999,99999,99999,99999,99999,99999
41:17:10,1510558230,2017-11-13T07:30:32,0.751,1906.4,9.11,6.55,10.61,833.510,2049.540,107.083336,38.72,2.5275,355,23679,1.89743,3.77,36976,,,,,,,,,,,,,,,,,,99999,99999,99999,99999,99999,99999,99999,99999,99999,99999,99999,99999
41:17:40,1510558260,2017-11-13T07:31:02,0.749,1906.8,9.12,6.58,10.60,833.560,2049.610,107.849998,38.72,2.5275,355,23682,1.89413,3.77,36971,,,,,,,,,,,,,,,,,,99999,99999,99999,99999,99999,99999,99999,99999,99999,99999,99999,99999
41:18:10,1510558290,2017-11-13T07:31:32,0.751,1907.1,9.13,6.56,10.60,833.530,2049.610,108.233330,39.13,2.5274,355,23680,1.89713,3.77,36967,,,,,,,,,,,,,,,,,,99999,99999,99999,99999,99999,99999,99999,99999,99999,99999,99999,99999
41:18:40,1510558320,2017-11-13T07:32:02,0.743,1907.5,9.14,6.57,10.59,833.580,2049.660,105.333336,38.93,2.5273,355,23680,1.87856,3.77,36962,,,,,,,,,,,,,,,,,,99999,99999,99999,99999,99999,99999,99999,99999,99999,99999,99999,99999
41:19:10,1510558350,2017-11-13T07:32:32,0.743,1907.9,9.14,6.57,10.59,833.530,2049.660,105.083336,38.92,2.5273,355,23679,1.87767,3.77,36957,,,,,,,,,,,,,,,,,,99999,99999,99999,99999,99999,99999,99999,99999,99999,99999,99999,99999
41:19:40,1510558380,2017-11-13T07:33:02,0.745,1908.2,9.15,6.61,10.61,833.480,2049.660,105.066666,39.40,2.5272,355,23682,1.88304,3.77,36952,,,,,,,,,,,,,,,,,,99999,99999,99999,99999,99999,99999,99999,99999,99999,99999,99999,99999
41:20:10,1510558410,2017-11-13T07:33:32,0.751,1908.6,9.16,6.62,10.65,833.600,2049.730,107.800003,39.13,2.5272,355,23683,1.89833,3.77,36947,,,,,,,,,,,,,,,,,,99999,99999,99999,99999,99999,99999,99999,99999,99999,99999,99999,99999
41:20:40,1510558440,2017-11-13T07:34:02,0.751,1909.0,9.17,6.62,10.66,833.550,2049.730,106.533333,39.10,2.5271,355,23680,1.89893,3.77,36943,,,,,,,,,,,,,,,,,,99999,99999,99999,99999,99999,99999,99999,99999,99999,99999,99999,99999
41:21:10,1510558470,2017-11-13T07:34:32,0.745,1909.4,9.20,6.66,10.66,833.520,2049.890,105.500000,39.33,2.5271,355,23682,1.88334,3.77,36938,,,,,,,,,,,,,,,,,,99999,99999,99999,99999,99999,99999,99999,99999,99999,99999,99999,99999
41:21:40,1510558500,2017-11-13T07:35:02,0.748,1909.7,9.20,6.61,10.65,833.520,2049.890,105.750000,38.95,2.5271,355,23683,1.89143,3.77,36933,,,,,,,,,,,,,,,,,,99999,99999,99999,99999,99999,99999,99999,99999,99999,99999,99999,99999
41:22:10,1510558530,2017-11-13T07:35:32,0.748,1910.1,9.20,6.66,10.65,833.570,2049.890,108.083336,38.91,2.5271,355,23681,1.88993,3.77,36928,,,,,,,,,,,,,,,,,,99999,99999,99999,99999,99999,99999,99999,99999,99999,99999,99999,99999
41:22:40,1510558560,2017-11-13T07:36:02,0.744,1910.5,9.22,6.64,10.66,833.590,2049.940,105.699997,39.09,2.5269,355,23684,1.87946,3.77,36924,,,,,,,,,,,,,,,,,,99999,99999,99999,99999,99999,99999,99999,99999,99999,99999,99999,99999
41:23:10,1510558590,2017-11-13T07:36:32,0.749,1910.9,9.23,6.65,10.73,833.570,2049.940,108.433334,39.14,2.5268,355,23683,1.89233,3.77,36919,,,,,,,,,,,,,,,,,,99999,99999,99999,99999,99999,99999,99999,99999,99999,99999,99999,99999
41:23:40,1510558620,2017-11-13T07:37:02,0.750,1911.2,9.24,6.66,10.71,833.510,2050.000,109.050003,39.22,2.5268,355,23683,1.89593,3.77,36914,,,,,,,,,,,,,,,,,,99999,99999,99999,99999,99999,99999,99999,99999,99999,99999,99999,99999
41:24:10,1510558650,2017-11-13T07:37:32,0.750,1911.6,9.24,6.69,10.68,833.480,2050.000,108.300003,40.30,2.5268,355,23682,1.89532,3.77,36909,,,,,,,,,,,,,,,,,,99999,99999,99999,99999,99999,99999,99999,99999,99999,99999,99999,99999
41:24:40,1510558680,2017-11-13T07:38:02,0.746,1912.0,9.25,6.69,10.73,833.480,2050.060,107.933334,39.70,2.5268,355,23685,1.88574,3.77,36904,,,,,,,,,,,,,,,,,,99999,99999,99999,99999,99999,99999,99999,99999,99999,99999,99999,99999
41:25:10,1510558710,2017-11-13T07:38:32,0.752,1912.4,9.26,6.69,10.69,833.450,2050.060,108.166664,39.25,2.5267,355,23682,1.90133,3.77,36900,,,,,,,,,,,,,,,,,,99999,99999,99999,99999,99999,99999,99999,99999,99999,99999,99999,99999
41:25:40,1510558740,2017-11-13T07:39:02,0.749,1912.7,9.27,6.70,10.73,833.470,2050.110,108.716667,39.33,2.5267,355,23687,1.89233,3.77,36895,,,,,,,,,,,,,,,,,,99999,99999,99999,99999,99999,99999,99999,99999,99999,99999,99999,99999
41:26:10,1510558770,2017-11-13T07:39:32,0.751,1913.1,9.27,6.71,10.73,833.440,2050.110,108.449997,38.87,2.5267,355,23684,1.89803,3.77,36890,,,,,,,,,,,,,,,,,,99999,99999,99999,99999,99999,99999,99999,99999,99999,99999,99999,99999
41:26:40,1510558800,2017-11-13T07:40:02,0.745,1913.5,9.28,6.71,10.73,833.420,2050.110,107.216667,38.37,2.5266,355,23685,1.88304,3.77,36885,,,,,,,,,,,,,,,,,,99999,99999,99999,99999,99999,99999,99999,99999,99999,99999,99999,99999
41:27:10,1510558830,2017-11-13T07:40:32,0.751,1913.9,9.28,6.71,10.77,833.390,2050.110,108.366669,38.48,2.5266,355,23682,1.89713,3.76,36880,,,,,,,,,,,,,,,,,,99999,99999,99999,99999,99999,99999,99999,99999,99999,99999,99999,99999
41:27:40,1510558860,2017-11-13T07:41:02,0.742,1914.2,9.30,6.72,10.73,833.360,2050.160,106.683334,38.36,2.5265,355,23684,1.87588,3.77,36875,,,,,,,,,,,,,,,,,,99999,99999,99999,99999,99999,99999,99999,99999,99999,99999,99999,99999
41:28:10,1510558890,2017-11-13T07:41:32,0.748,1914.6,9.31,6.74,10.77,833.410,2050.230,107.349998,37.79,2.5266,355,23685,1.88963,3.77,36871,,,,,,,,,,,,,,,,,,99999,99999,99999,99999,99999,99999,99999,99999,99999,99999,99999,99999
41:28:40,1510558920,2017-11-13T07:42:02,0.751,1915.0,9.30,6.74,10.74,833.360,2050.160,107.599998,37.59,2.5266,355,23685,1.89623,3.76,36866,,,,,,,,,,,,,,,,,,99999,99999,99999,99999,99999,99999,99999,99999,99999,99999,99999,99999
41:29:10,1510558950,2017-11-13T07:42:32,0.751,1915.4,9.32,6.74,10.81,833.380,2050.330,108.216667,38.83,2.5265,355,23687,1.89833,3.76,36861,,,,,,,,,,,,,,,,,,99999,99999,99999,99999,99999,99999,99999,99999,99999,99999,99999,99999
41:29:40,1510558980,2017-11-13T07:43:02,0.751,1915.7,9.33,6.74,10.77,833.360,2050.330,108.583336,39.19,2.5264,355,23688,1.89833,3.76,36856,,,,,,,,,,,,,,,,,,99999,99999,99999,99999,99999,99999,99999,99999,99999,99999,99999,99999
41:30:10,1510559010,2017-11-13T07:43:32,0.752,1916.1,9.33,6.75,10.82,833.430,2050.330,108.583336,37.79,2.5265,355,23685,1.89893,3.76,36851,,,,,,,,,,,,,,,,,,99999,99999,99999,99999,99999,99999,99999,99999,99999,99999,99999,99999
41:30:40,1510559040,2017-11-13T07:44:02,0.745,1916.5,9.35,6.75,10.81,833.380,2050.400,106.033333,38.54,2.5264,355,23687,1.88125,3.76,36847,,,,,,,,,,,,,,,,,,99999,99999,99999,99999,99999,99999,99999,99999,99999,99999,99999,99999
41:31:10,1510559070,2017-11-13T07:44:32,0.750,1916.8,9.35,6.78,10.80,833.350,2050.400,108.099998,39.48,2.5263,355,23687,1.89473,3.76,36842,,,,,,,,,,,,,,,,,,99999,99999,99999,99999,99999,99999,99999,99999,99999,99999,99999,99999
41:31:40,1510559100,2017-11-13T07:45:02,0.743,1917.2,9.35,6.77,10.82,833.380,2050.400,106.516670,40.01,2.5263,355,23686,1.87588,3.76,36837,,,,,,,,,,,,,,,,,,99999,99999,99999,99999,99999,99999,99999,99999,99999,99999,99999,99999
41:32:10,1510559130,2017-11-13T07:45:32,0.743,1917.6,9.36,6.80,10.82,833.330,2050.400,107.750000,38.63,2.5263,355,23690,1.87618,3.76,36832,,,,,,,,,,,,,,,,,,99999,99999,99999,99999,99999,99999,99999,99999,99999,99999,99999,99999
41:32:40,1510559160,2017-11-13T07:46:02,0.744,1918.0,9.36,6.78,10.84,833.350,2050.400,106.599998,38.21,2.5263,355,23689,1.87856,3.76,36827,,,,,,,,,,,,,,,,,,99999,99999,99999,99999,99999,99999,99999,99999,99999,99999,99999,99999
41:33:10,1510559190,2017-11-13T07:46:32,0.751,1918.3,9.37,6.79,10.85,833.340,2050.440,107.550003,38.92,2.5262,355,23687,1.89713,3.76,36823,,,,,,,,,,,,,,,,,,99999,99999,99999,99999,99999,99999,99999,99999,99999,99999,99999,99999
41:33:40,1510559220,2017-11-13T07:47:02,0.742,1918.7,9.36,6.80,10.84,833.270,2050.400,106.616669,38.45,2.5263,355,23688,1.87528,3.76,36818,,,,,,,,,,,,,,,,,,99999,99999,99999,99999,99999,99999,99999,99999,99999,99999,99999,99999
41:34:10,1510559250,2017-11-13T07:47:32,0.751,1919.1,9.37,6.79,10.84,833.290,2050.440,108.483330,38.38,2.5262,355,23690,1.89743,3.76,36813,,,,,,,,,,,,,,,,,,99999,99999,99999,99999,99999,99999,99999,99999,99999,99999,99999,99999
41:34:40,1510559280,2017-11-13T07:48:02,0.749,1919.5,9.37,6.80,10.82,833.370,2050.440,106.016670,38.53,2.5262,355,23690,1.89233,3.76,36808,,,,,,,,,,,,,,,,,,99999,99999,99999,99999,99999,99999,99999,99999,99999,99999,99999,99999
41:35:10,1510559310,2017-11-13T07:48:32,0.744,1919.8,9.37,6.80,10.82,833.290,2050.440,105.633331,38.46,2.5262,355,23690,1.87886,3.76,36803,,,,,,,,,,,,,,,,,,99999,99999,99999,99999,99999,99999,99999,99999,99999,99999,99999,99999
41:35:40,1510559340,2017-11-13T07:49:02,0.748,1920.2,9.37,6.79,10.82,833.290,2050.440,106.366669,37.99,2.5263,355,23688,1.88963,3.76,36799,,,,,,,,,,,,,,,,,,99999,99999,99999,99999,99999,99999,99999,99999,99999,99999,99999,99999
41:36:10,1510559370,2017-11-13T07:49:32,0.749,1920.6,9.37,6.80,10.88,833.290,2050.440,108.216667,38.16,2.5262,355,23689,1.89263,3.76,36794,,,,,,,,,,,,,,,,,,99999,99999,99999,99999,99999,99999,99999,99999,99999,99999,99999,99999
41:36:40,1510559400,2017-11-13T07:50:02,0.746,1921.0,9.38,6.82,10.84,833.310,2050.500,105.883331,37.99,2.5262,355,23689,1.88484,3.76,36789,,,,,,,,,,,,,,,,,,99999,99999,99999,99999,99999,99999,99999,99999,99999,99999,99999,99999
41:37:10,1510559430,2017-11-13T07:50:32,0.748,1921.3,9.39,6.82,10.85,833.290,2050.500,106.800003,38.34,2.5261,355,23689,1.88993,3.76,36784,,,,,,,,,,,,,,,,,,99999,99999,99999,99999,99999,99999,99999,99999,99999,99999,99999,99999
41:37:40,1510559460,2017-11-13T07:51:02,0.752,1921.7,9.38,6.82,10.85,833.260,2050.500,107.933334,38.36,2.5262,355,23690,1.89983,3.76,36779,,,,,,,,,,,,,,,,,,99999,99999,99999,99999,99999,99999,99999,99999,99999,99999,99999,99999
41:38:10,1510559490,2017-11-13T07:51:32,0.743,1922.1,9.40,6.83,10.85,833.310,2050.500,106.533333,38.48,2.5260,355,23688,1.87767,3.76,36774,,,,,,,,,,,,,,,,,,99999,99999,99999,99999,99999,99999,99999,99999,99999,99999,99999,99999
41:38:40,1510559520,2017-11-13T07:52:02,0.747,1922.5,9.40,6.83,10.88,833.370,2050.500,107.666664,38.30,2.5260,355,23692,1.88783,3.76,36770,,,,,,,,,,,,,,,,,,99999,99999,99999,99999,99999,99999,99999,99999,99999,99999,99999,99999
41:39:10,1510559550,2017-11-13T07:52:32,0.751,1922.8,9.41,6.83,10.85,833.280,2050.560,109.016670,38.65,2.5260,355,23690,1.89803,3.76,36765,,,,,,,,,,,,,,,,,,99999,99999,99999,99999,99999,99999,99999,99999,99999,99999,99999,99999
41:39:40,1510559580,2017-11-13T07:53:02,0.751,1923.2,9.41,6.84,10.89,833.230,2050.560,108.133331,38.82,2.5260,355,23687,1.89803,3.76,36760,,,,,,,,,,,,,,,,,,99999,99999,99999,99999,99999,99999,99999,99999,99999,99999,99999,99999
41:40:10,1510559610,2017-11-13T07:53:32,0.747,1923.6,9.43,6.85,10.90,833.250,2050.630,106.616669,38.63,2.5259,355,23690,1.88753,3.76,36755,,,,,,,,,,,,,,,,,,99999,99999,99999,99999,99999,99999,99999,99999,99999,99999,99999,99999
41:40:40,1510559640,2017-11-13T07:54:02,0.745,1924.0,9.41,6.85,10.89,833.180,2050.560,105.533333,38.81,2.5260,355,23687,1.88185,3.76,36750,,,,,,,,,,,,,,,,,,99999,99999,99999,99999,99999,99999,99999,99999,99999,99999,99999,99999
41:41:10,1510559670,2017-11-13T07:54:32,0.752,1924.3,9.43,6.87,10.88,833.310,2050.630,108.633331,38.65,2.5259,355,23689,1.90043,3.76,36746,,,,,,,,,,,,,,,,,,99999,99999,99999,99999,99999,99999,99999,99999,99999,99999,99999,99999
41:41:40,1510559700,2017-11-13T07:55:01,0.747,1924.7,9.43,6.87,10.88,833.230,2050.630,107.633331,38.47,2.5259,355,23687,1.88753,3.76,36741,,,,,,,,,,,,,,,,,,99999,99999,99999,99999,99999,99999,99999,99999,99999,99999,99999,99999
41:42:10,1510559730,2017-11-13T07:55:31,0.743,1925.1,9.43,6.86,10.89,833.200,2050.630,106.783333,38.22,2.5259,355,23688,1.87767,3.76,36736,,,,,,,,,,,,,,,,,,99999,99999,99999,99999,99999,99999,99999,99999,99999,99999,99999,99999
41:42:40,1510559760,2017-11-13T07:56:01,0.743,1925.5,9.43,6.85,10.92,833.120,2050.630,106.849998,38.04,2.5259,355,23687,1.87677,3.76,36731,,,,,,,,,,,,,,,,,,99999,99999,99999,99999,99999,99999,99999,99999,99999,99999,99999,99999
41:43:10,1510559790,2017-11-13T07:56:31,0.744,1925.8,9.44,6.88,10.92,833.230,2050.630,106.333336,38.32,2.5258,355,23689,1.87946,3.76,36726,,,,,,,,,,,,,,,,,,99999,99999,99999,99999,99999,99999,99999,99999,99999,99999,99999,99999
41:43:40,1510559820,2017-11-13T07:57:01,0.744,1926.2,9.44,6.88,10.90,833.180,2050.630,105.866669,38.76,2.5258,355,23688,1.87886,3.76,36722,,,,,,,,,,,,,,,,,,99999,99999,99999,99999,99999,99999,99999,99999,99999,99999,99999,99999
41:44:10,1510559850,2017-11-13T07:57:31,0.744,1926.6,9.45,6.87,10.90,833.220,2050.770,107.500000,38.82,2.5259,355,23691,1.87976,3.76,36717,,,,,,,,,,,,,,,,,,99999,99999,99999,99999,99999,99999,99999,99999,99999,99999,99999,99999
41:44:40,1510559880,2017-11-13T07:58:01,0.749,1926.9,9.46,6.90,10.92,833.270,2050.790,108.400002,38.67,2.5258,355,23691,1.89292,3.76,36712,,,,,,,,,,,,,,,,,,99999,99999,99999,99999,99999,99999,99999,99999,99999,99999,99999,99999
41:45:10,1510559910,2017-11-13T07:58:31,0.745,1927.3,9.45,6.88,10.94,833.170,2050.770,106.650002,38.53,2.5259,355,23690,1.88215,3.76,36707,,,,,,,,,,,,,,,,,,99999,99999,99999,99999,99999,99999,99999,99999,99999,99999,99999,99999
41:45:40,1510559940,2017-11-13T07:59:01,0.748,1927.7,9.46,6.90,10.92,833.190,2050.790,107.816666,38.35,2.5259,355,23691,1.88993,3.76,36702,,,,,,,,,,,,,,,,,,99999,99999,99999,99999,99999,99999,99999,99999,99999,99999,99999,99999
41:46:10,1510559970,2017-11-13T07:59:31,0.752,1928.1,9.45,6.88,10.94,833.220,2050.770,108.000000,38.30,2.5259,355,23693,1.89983,3.76,36697,,,,,,,,,,,,,,,,,,99999,99999,99999,99999,99999,99999,99999,99999,99999,99999,99999,99999
41:46:40,1510560000,2017-11-13T08:00:01,0.747,1928.4,9.46,6.91,10.95,833.320,2050.790,107.316666,38.36,2.5259,355,23689,1.88753,3.76,36693,,,,,,,,,,,,,,,,,,99999,99999,99999,99999,99999,99999,99999,99999,99999,99999,99999,99999
41:47:10,1510560030,2017-11-13T08:00:31,0.746,1928.8,9.47,6.91,10.92,833.300,2050.830,105.633331,38.39,2.5258,355,23691,1.88514,3.76,36688,,,,,,,,,,,,,,,,,,99999,99999,99999,99999,99999,99999,99999,99999,99999,99999,99999,99999
41:47:40,1510560060,2017-11-13T08:01:01,0.752,1929.2,9.47,6.92,10.95,833.330,2050.830,108.000000,38.06,2.5258,355,23692,1.90043,3.76,36683,,,,,,,,,,,,,,,,,,99999,99999,99999,99999,99999,99999,99999,99999,99999,99999,99999,99999
41:48:10,1510560090,2017-11-13T08:01:31,0.744,1929.6,9.47,6.92,10.94,833.350,2050.830,106.033333,38.17,2.5258,355,23691,1.87916,3.76,36678,,,,,,,,,,,,,,,,,,99999,99999,99999,99999,99999,99999,99999,99999,99999,99999,99999,99999
41:48:40,1510560120,2017-11-13T08:02:01,0.752,1929.9,9.49,6.93,10.97,833.240,2050.900,108.500000,38.22,2.5257,355,23693,1.89923,3.76,36673,,,,,,,,,,,,,,,,,,99999,99999,99999,99999,99999,99999,99999,99999,99999,99999,99999,99999
41:49:10,1510560150,2017-11-13T08:02:31,0.744,1930.3,9.51,6.92,10.97,833.360,2050.960,106.900002,38.68,2.5256,355,23693,1.87916,3.76,36669,,,,,,,,,,,,,,,,,,99999,99999,99999,99999,99999,99999,99999,99999,99999,99999,99999,99999
41:49:40,1510560180,2017-11-13T08:03:01,0.752,1930.7,9.51,6.94,10.98,833.280,2050.960,109.283333,38.33,2.5256,355,23694,1.89953,3.76,36664,,,,,,,,,,,,,,,,,,99999,99999,99999,99999,99999,99999,99999,99999,99999,99999,99999,99999
41:50:10,1510560210,2017-11-13T08:03:31,0.744,1931.1,9.50,6.95,10.98,833.210,2050.900,106.466667,38.33,2.5256,355,23694,1.87826,3.76,36659,,,,,,,,,,,,,,,,,,99999,99999,99999,99999,99999,99999,99999,99999,99999,99999,99999,99999
41:50:40,1510560240,2017-11-13T08:04:01,0.751,1931.4,9.52,6.95,10.97,833.200,2050.960,108.683334,38.53,2.5255,355,23694,1.89743,3.76,36654,,,,,,,,,,,,,,,,,,99999,99999,99999,99999,99999,99999,99999,99999,99999,99999,99999,99999
41:51:10,1510560270,2017-11-13T08:04:31,0.753,1931.8,9.53,6.96,10.97,833.230,2051.000,108.783333,38.82,2.5254,355,23695,1.90193,3.76,36649,,,,,,,,,,,,,,,,,,99999,99999,99999,99999,99999,99999,99999,99999,99999,99999,99999,99999
41:51:40,1510560300,2017-11-13T08:05:01,0.748,1932.2,9.53,6.97,11.00,833.200,2051.000,107.599998,39.35,2.5254,355,23693,1.88813,3.76,36644,,,,,,,,,,,,,,,,,,99999,99999,99999,99999,99999,99999,99999,99999,99999,99999,99999,99999
41:52:10,1510560330,2017-11-13T08:05:31,0.746,1932.6,9.53,6.97,11.02,833.150,2051.000,107.050003,39.24,2.5254,355,23696,1.88304,3.76,36640,,,,,,,,,,,,,,,,,,99999,99999,99999,99999,99999,99999,99999,99999,99999,99999,99999,99999
41:52:40,1510560360,2017-11-13T08:06:01,0.748,1932.9,9.52,6.98,10.97,833.200,2050.960,107.033333,38.76,2.5255,355,23694,1.88963,3.76,36635,,,,,,,,,,,,,,,,,,99999,99999,99999,99999,99999,99999,99999,99999,99999,99999,99999,99999
41:53:10,1510560390,2017-11-13T08:06:31,0.748,1933.3,9.53,6.95,10.98,833.200,2051.000,108.416664,38.59,2.5255,355,23693,1.88903,3.76,36630,,,,,,,,,,,,,,,,,,99999,99999,99999,99999,99999,99999,99999,99999,99999,99999,99999,99999
41:53:40,1510560420,2017-11-13T08:07:01,0.751,1933.7,9.52,6.96,10.98,833.200,2050.960,107.933334,38.00,2.5255,355,23697,1.89623,3.76,36625,,,,,,,,,,,,,,,,,,99999,99999,99999,99999,99999,99999,99999,99999,99999,99999,99999,99999
41:54:10,1510560450,2017-11-13T08:07:31,0.749,1934.1,9.52,6.94,10.98,833.130,2050.960,108.816666,37.92,2.5255,355,23691,1.89233,3.76,36620,,,,,,,,,,,,,,,,,,99999,99999,99999,99999,99999,99999,99999,99999,99999,99999,99999,99999
41:54:40,1510560480,2017-11-13T08:08:01,0.744,1934.4,9.51,6.98,11.00,833.020,2050.960,107.166664,37.53,2.5257,355,23693,1.87916,3.76,36616,,,,,,,,,,,,,,,,,,99999,99999,99999,99999,99999,99999,99999,99999,99999,99999,99999,99999
41:55:10,1510560510,2017-11-13T08:08:31,0.752,1934.8,9.53,6.97,11.02,833.120,2051.000,107.599998,37.71,2.5255,355,23691,1.89923,3.76,36611,,,,,,,,,,,,,,,,,,99999,99999,99999,99999,99999,99999,99999,99999,99999,99999,99999,99999
41:55:40,1510560540,2017-11-13T08:09:01,0.749,1935.2,9.53,6.98,10.97,833.120,2051.000,108.150002,38.24,2.5255,355,23694,1.89083,3.76,36606,,,,,,,,,,,,,,,,,,99999,99999,99999,99999,99999,99999,99999,99999,99999,99999,99999,99999
41:56:10,1510560570,2017-11-13T08:09:31,0.749,1935.6,9.53,6.97,11.02,833.150,2051.000,106.766670,38.15,2.5255,355,23692,1.89233,3.76,36601,,,,,,,,,,,,,,,,,,99999,99999,99999,99999,99999,99999,99999,99999,99999,99999,99999,99999
41:56:40,1510560600,2017-11-13T08:10:01,0.746,1935.9,9.53,6.98,11.00,833.120,2051.000,107.316666,37.27,2.5255,355,23694,1.88364,3.76,36596,,,,,,,,,,,,,,,,,,99999,99999,99999,99999,99999,99999,99999,99999,99999,99999,99999,99999
41:57:10,1510560630,2017-11-13T08:10:31,0.752,1936.3,9.53,7.00,11.03,833.020,2051.000,108.050003,37.73,2.5255,355,23695,1.89953,3.76,36591,,,,,,,,,,,,,,,,,,99999,99999,99999,99999,99999,99999,99999,99999,99999,99999,99999,99999
41:57:40,1510560660,2017-11-13T08:11:01,0.744,1936.7,9.53,6.98,11.02,833.070,2051.000,106.916664,38.87,2.5254,355,23694,1.87946,3.76,36587,,,,,,,,,,,,,,,,,,99999,99999,99999,99999,99999,99999,99999,99999,99999,99999,99999,99999
41:58:10,1510560690,2017-11-13T08:11:31,0.746,1937.1,9.54,6.98,10.98,833.120,2051.000,107.316666,38.77,2.5254,355,23694,1.88364,3.76,36582,,,,,,,,,,,,,,,,,,99999,99999,99999,99999,99999,99999,99999,99999,99999,99999,99999,99999
41:58:40,1510560720,2017-11-13T08:12:01,0.754,1937.4,9.54,6.99,11.00,833.100,2051.000,108.333336,38.27,2.5254,355,23695,1.90374,3.76,36577,,,,,,,,,,,,,,,,,,99999,99999,99999,99999,99999,99999,99999,99999,99999,99999,99999,99999
41:59:10,1510560750,2017-11-13T08:12:31,0.751,1937.8,9.55,6.99,10.98,833.170,2051.060,108.616669,38.70,2.5253,355,23693,1.89683,3.76,36572,,,,,,,,,,,,,,,,,,99999,99999,99999,99999,99999,99999,99999,99999,99999,99999,99999,99999
41:59:40,1510560780,2017-11-13T08:13:01,0.750,1938.2,9.54,6.99,10.98,833.150,2051.000,107.533333,37.89,2.5254,355,23694,1.89442,3.76,36567,,,,,,,,,,,,,,,,,,99999,99999,99999,99999,99999,99999,99999,99999,99999,99999,99999,99999
42:00:10,1510560810,2017-11-13T08:13:31,0.744,1938.6,9.54,6.99,11.02,833.170,2051.000,107.683334,38.00,2.5254,355,23694,1.88006,3.76,36562,,,,,,,,,,,,,,,,,,99999,99999,99999,99999,99999,99999,99999,99999,99999,99999,99999,99999
42:00:40,1510560840,2017-11-13T08:14:01,0.745,1938.9,9.56,6.99,11.03,833.170,2051.060,105.816666,37.65,2.5253,355,23694,1.88065,3.76,36558,,,,,,,,,,,,,,,,,,99999,99999,99999,99999,99999,99999,99999,99999,99999,99999,99999,99999
42:01:10,1510560870,2017-11-13T08:14:31,0.746,1939.3,9.56,7.00,11.02,833.170,2051.060,105.516670,37.50,2.5253,355,23697,1.88454,3.76,36553,,,,,,,,,,,,,,,,,,99999,99999,99999,99999,99999,99999,99999,99999,99999,99999,99999,99999
42:01:40,1510560900,2017-11-13T08:15:01,0.747,1939.7,9.56,6.99,11.05,833.120,2051.060,106.949997,37.56,2.5253,355,23696,1.88663,3.76,36548,,,,,,,,,,,,,,,,,,99999,99999,99999,99999,99999,99999,99999,99999,99999,99999,99999,99999
42:02:10,1510560930,2017-11-13T08:15:31,0.748,1940.1,9.57,7.01,11.02,833.090,2051.130,107.000000,37.57,2.5253,355,23697,1.88993,3.76,36543,,,,,,,,,,,,,,,,,,99999,99999,99999,99999,99999,99999,99999,99999,99999,99999,99999,99999
42:02:40,1510560960,2017-11-13T08:16:01,0.748,1940.4,9.58,7.03,11.03,833.140,2051.230,106.833336,37.65,2.5253,355,23700,1.88783,3.76,36538,,,,,,,,,,,,,,,,,,99999,99999,99999,99999,99999,99999,99999,99999,99999,99999,99999,99999
42:03:10,1510560990,2017-11-13T08:16:31,0.745,1940.8,9.58,7.01,11.06,833.110,2051.230,107.800003,37.28,2.5254,355,23695,1.88035,3.76,36534,,,,,,,,,,,,,,,,,,99999,99999,99999,99999,99999,99999,99999,99999,99999,99999,99999,99999
42:03:40,1510561020,2017-11-13T08:17:01,0.752,1941.2,9.59,7.04,11.00,833.140,2051.230,108.800003,37.39,2.5253,355,23696,1.89863,3.76,36529,,,,,,,,,,,,,,,,,,99999,99999,99999,99999,99999,99999,99999,99999,99999,99999,99999,99999
42:04:10,1510561050,2017-11-13T08:17:31,0.752,1941.6,9.59,7.06,11.02,833.190,2051.230,108.116669,37.90,2.5252,355,23698,1.89833,3.76,36524,,,,,,,,,,,,,,,,,,99999,99999,99999,99999,99999,99999,99999,99999,99999,99999,99999,99999
42:04:40,1510561080,2017-11-13T08:18:01,0.745,1941.9,9.59,7.05,11.09,833.220,2051.230,107.550003,37.33,2.5253,355,23696,1.88155,3.76,36519,,,,,,,,,,,,,,,,,,99999,99999,99999,99999,99999,99999,99999,99999,99999,99999,99999,99999
42:05:10,1510561110,2017-11-13T08:18:31,0.751,1942.3,9.60,7.05,11.06,833.220,2051.290,108.483330,37.97,2.5252,355,23698,1.89743,3.76,36514,,,,,,,,,,,,,,,,,,99999,99999,99999,99999,99999,99999,99999,99999,99999,99999,99999,99999
42:05:40,1510561140,2017-11-13T08:19:01,0.752,1942.7,9.60,7.07,11.11,833.160,2051.290,110.000000,37.40,2.5252,355,23697,1.89983,3.76,36509,,,,,,,,,,,,,,,,,,99999,99999,99999,99999,99999,99999,99999,99999,99999,99999,99999,99999
42:06:10,1510561170,2017-11-13T08:19:31,0.753,1943.1,9.61,7.08,11.10,833.240,2051.290,109.000000,37.36,2.5252,355,23698,1.90223,3.76,36505,,,,,,,,,,,,,,,,,,99999,99999,99999,99999,99999,99999,99999,99999,99999,99999,99999,99999
42:06:40,1510561200,2017-11-13T08:20:01,0.750,1943.4,9.61,7.09,11.10,833.160,2051.290,108.083336,37.12,2.5252,355,23698,1.89502,3.76,36500,,,,,,,,,,,,,,,,,,99999,99999,99999,99999,99999,99999,99999,99999,99999,99999,99999,99999
42:07:10,1510561230,2017-11-13T08:20:31,0.746,1943.8,9.62,7.08,11.10,833.260,2051.330,108.716667,36.79,2.5252,355,23700,1.88484,3.76,36495,,,,,,,,,,,,,,,,,,99999,99999,99999,99999,99999,99999,99999,99999,99999,99999,99999,99999
42:07:40,1510561260,2017-11-13T08:21:01,0.752,1944.2,9.63,7.10,11.10,833.180,2051.330,108.250000,37.41,2.5250,355,23699,1.89773,3.76,36490,,,,,,,,,,,,,,,,,,99999,99999,99999,99999,99999,99999,99999,99999,99999,99999,99999,99999
42:08:10,1510561290,2017-11-13T08:21:31,0.751,1944.6,9.63,7.11,11.10,833.130,2051.330,109.383331,37.70,2.5250,355,23698,1.89743,3.76,36485,,,,,,,,,,,,,,,,,,99999,99999,99999,99999,99999,99999,99999,99999,99999,99999,99999,99999
42:08:40,1510561320,2017-11-13T08:22:01,0.751,1944.9,9.63,7.10,11.10,833.130,2051.330,108.516670,37.24,2.5250,355,23699,1.89683,3.76,36481,,,,,,,,,,,,,,,,,,99999,99999,99999,99999,99999,99999,99999,99999,99999,99999,99999,99999
42:09:10,1510561350,2017-11-13T08:22:31,0.749,1945.3,9.65,7.10,11.10,833.200,2051.400,107.400002,37.14,2.5249,355,23697,1.89023,3.76,36476,,,,,,,,,,,,,,,,,,99999,99999,99999,99999,99999,99999,99999,99999,99999,99999,99999,99999
42:09:40,1510561380,2017-11-13T08:23:01,0.748,1945.7,9.65,7.12,11.11,833.150,2051.400,107.500000,36.95,2.5250,355,23697,1.88903,3.76,36471,,,,,,,,,,,,,,,,,,99999,99999,99999,99999,99999,99999,99999,99999,99999,99999,99999,99999
42:10:10,1510561410,2017-11-13T08:23:31,0.748,1946.1,9.65,7.13,11.10,833.170,2051.400,107.066666,36.87,2.5250,355,23701,1.88843,3.76,36466,,,,,,,,,,,,,,,,,,99999,99999,99999,99999,99999,99999,99999,99999,99999,99999,99999,99999
42:10:40,1510561440,2017-11-13T08:24:01,0.748,1946.4,9.65,7.13,11.11,833.170,2051.400,107.083336,36.90,2.5250,355,23700,1.88993,3.76,36461,,,,,,,,,,,,,,,,,,99999,99999,99999,99999,99999,99999,99999,99999,99999,99999,99999,99999
42:11:10,1510561470,2017-11-13T08:24:31,0.752,1946.8,9.67,7.14,11.10,833.140,2051.460,108.466667,36.88,2.5249,355,23699,1.89773,3.76,36456,,,,,,,,,,,,,,,,,,99999,99999,99999,99999,99999,99999,99999,99999,99999,99999,99999,99999
42:11:40,1510561500,2017-11-13T08:25:01,0.745,1947.2,9.68,7.12,11.15,833.110,2051.500,106.800003,36.73,2.5248,355,23697,1.88185,3.76,36452,,,,,,,,,,,,,,,,,,99999,99999,99999,99999,99999,99999,99999,99999,99999,99999,99999,99999
42:12:10,1510561530,2017-11-13T08:25:31,0.753,1947.6,9.68,7.15,11.15,833.140,2051.500,109.150002,36.54,2.5248,355,23699,1.90013,3.76,36447,,,,,,,,,,,,,,,,,,99999,99999,99999,99999,99999,99999,99999,99999,99999,99999,99999,99999
42:12:40,1510561560,2017-11-13T08:26:01,0.752,1947.9,9.69,7.15,11.13,833.170,2051.500,108.016670,36.66,2.5247,355,23701,1.89833,3.76,36442,,,,,,,,,,,,,,,,,,99999,99999,99999,99999,99999,99999,99999,99999,99999,99999,99999,99999
42:13:10,1510561590,2017-11-13T08:26:31,0.746,1948.3,9.68,7.13,11.15,833.170,2051.500,106.716667,36.68,2.5248,355,23696,1.88245,3.76,36437,,,,,,,,,,,,,,,,,,99999,99999,99999,99999,99999,99999,99999,99999,99999,99999,99999,99999
42:13:40,1510561620,2017-11-13T08:27:01,0.754,1948.7,9.69,7.14,11.15,833.110,2051.500,108.983330,37.10,2.5247,355,23700,1.90254,3.76,36432,,,,,,,,,,,,,,,,,,99999,99999,99999,99999,99999,99999,99999,99999,99999,99999,99999,99999
42:14:10,1510561650,2017-11-13T08:27:31,0.745,1949.1,9.69,7.15,11.18,833.140,2051.500,106.433334,37.02,2.5247,355,23699,1.88185,3.76,36427,,,,,,,,,,,,,,,,,,99999,99999,99999,99999,99999,99999,99999,99999,99999,99999,99999,99999
42:14:40,1510561680,2017-11-13T08:28:01,0.752,1949.4,9.70,7.16,11.16,833.110,2051.560,109.266670,37.09,2.5247,355,23699,1.89893,3.76,36423,,,,,,,,,,,,,,,,,,99999,99999,99999,99999,99999,99999,99999,99999,99999,99999,99999,99999
42:15:10,1510561710,2017-11-13T08:28:31,0.746,1949.8,9.70,7.16,11.21,833.220,2051.560,107.616669,36.92,2.5247,355,23698,1.88424,3.76,36418,,,,,,,,,,,,,,,,,,99999,99999,99999,99999,99999,99999,99999,99999,99999,99999,99999,99999
42:15:40,1510561740,2017-11-13T08:29:01,0.752,1950.2,9.71,7.16,11.19,833.240,2051.670,107.800003,37.07,2.5247,355,23701,1.89923,3.76,36413,,,,,,,,,,,,,,,,,,99999,99999,99999,99999,99999,99999,99999,99999,99999,99999,99999,99999
42:16:10,1510561770,2017-11-13T08:29:31,0.750,1950.6,9.71,7.17,11.18,833.110,2051.670,109.033333,37.01,2.5247,355,23698,1.89382,3.76,36408,,,,,,,,,,,,,,,,,,99999,99999,99999,99999,99999,99999,99999,99999,99999,99999,99999,99999
42:16:40,1510561800,2017-11-13T08:30:01,0.748,1950.9,9.71,7.16,11.16,833.140,2051.670,108.433334,37.02,2.5247,355,23700,1.88963,3.76,36403,,,,,,,,,,,,,,,,,,99999,99999,99999,99999,99999,99999,99999,99999,99999,99999,99999,99999
42:17:10,1510561830,2017-11-13T08:30:31,0.747,1951.3,9.72,7.17,11.21,833.160,2051.670,106.849998,37.23,2.5246,355,23704,1.88544,3.76,36398,,,,,,,,,,,,,,,,,,99999,99999,99999,99999,99999,99999,99999,99999,99999,99999,99999,99999
42:17:40,1510561860,2017-11-13T08:31:01,0.752,1951.7,9.73,7.18,11.23,833.240,2051.670,109.733330,37.12,2.5246,355,23699,1.89953,3.76,36394,,,,,,,,,,,,,,,,,,99999,99999,99999,99999,99999,99999,99999,99999,99999,99999,99999,99999
42:18:10,1510561890,2017-11-13T08:31:31,0.746,1952.1,9.73,7.18,11.19,833.210,2051.670,108.083336,37.25,2.5245,355,23700,1.88245,3.76,36389,,,,,,,,,,,,,,,,,,99999,99999,99999,99999,99999,99999,99999,99999,99999,99999,99999,99999
42:18:40,1510561920,2017-11-13T08:32:01,0.752,1952.4,9.74,7.20,11.19,833.240,2051.730,107.349998,37.51,2.5245,355,23704,1.89803,3.75,36384,,,,,,,,,,,,,,,,,,99999,99999,99999,99999,99999,99999,99999,99999,99999,99999,99999,99999
42:19:10,1510561950,2017-11-13T08:32:31,0.753,1952.8,9.73,7.18,11.24,833.110,2051.670,107.849998,37.73,2.5245,355,23704,1.90073,3.75,36379,,,,,,,,,,,,,,,,,,99999,99999,99999,99999,99999,99999,99999,99999,99999,99999,99999,99999
42:19:40,1510561980,2017-11-13T08:33:01,0.754,1953.2,9.75,7.18,11.21,833.150,2051.790,108.800003,37.83,2.5245,355,23703,1.90223,3.75,36374,,,,,,,,,,,,,,,,,,99999,99999,99999,99999,99999,99999,99999,99999,99999,99999,99999,99999
42:20:10,1510562010,2017-11-13T08:33:31,0.750,1953.6,9.74,7.20,11.23,833.130,2051.730,109.333336,37.17,2.5245,355,23702,1.89353,3.75,36369,,,,,,,,,,,,,,,,,,99999,99999,99999,99999,99999,99999,99999,99999,99999,99999,99999,99999
42:20:40,1510562040,2017-11-13T08:34:01,0.754,1953.9,9.74,7.18,11.23,833.180,2051.730,108.866669,37.02,2.5245,355,23701,1.90284,3.75,36365,,,,,,,,,,,,,,,,,,99999,99999,99999,99999,99999,99999,99999,99999,99999,99999,99999,99999
42:21:10,1510562070,2017-11-13T08:34:31,0.752,1954.3,9.74,7.20,11.21,833.240,2051.730,108.750000,37.08,2.5245,355,23701,1.89833,3.75,36360,,,,,,,,,,,,,,,,,,99999,99999,99999,99999,99999,99999,99999,99999,99999,99999,99999,99999
42:21:40,1510562100,2017-11-13T08:35:01,0.745,1954.7,9.74,7.21,11.23,833.130,2051.730,108.183334,37.10,2.5245,355,23698,1.88065,3.75,36355,,,,,,,,,,,,,,,,,,99999,99999,99999,99999,99999,99999,99999,99999,99999,99999,99999,99999
42:22:10,1510562130,2017-11-13T08:35:31,0.751,1955.1,9.74,7.19,11.21,833.240,2051.730,107.316666,36.83,2.5246,355,23701,1.89653,3.75,36350,,,,,,,,,,,,,,,,,,99999,99999,99999,99999,99999,99999,99999,99999,99999,99999,99999,99999
42:22:40,1510562160,2017-11-13T08:36:01,0.747,1955.4,9.74,7.19,11.21,833.240,2051.730,106.783333,36.62,2.5246,355,23702,1.88544,3.75,36345,,,,,,,,,,,,,,,,,,99999,99999,99999,99999,99999,99999,99999,99999,99999,99999,99999,99999
42:23:10,1510562190,2017-11-13T08:36:31,0.747,1955.8,9.73,7.22,11.24,833.160,2051.670,106.516670,37.04,2.5246,355,23701,1.88604,3.75,36340,,,,,,,,,,,,,,,,,,99999,99999,99999,99999,99999,99999,99999,99999,99999,99999,99999,99999
42:23:40,1510562220,2017-11-13T08:37:01,0.748,1956.2,9.74,7.19,11.21,833.240,2051.730,108.116669,37.18,2.5245,355,23702,1.88813,3.75,36335,,,,,,,,,,,,,,,,,,99999,99999,99999,99999,99999,99999,99999,99999,99999,99999,99999,99999
42:24:10,1510562250,2017-11-13T08:37:31,0.753,1956.6,9.73,7.20,11.19,833.130,2051.670,109.900002,37.59,2.5245,355,23700,1.90193,3.75,36331,,,,,,,,,,,,,,,,,,99999,99999,99999,99999,99999,99999,99999,99999,99999,99999,99999,99999
42:24:40,1510562280,2017-11-13T08:38:01,0.748,1956.9,9.74,7.20,11.21,833.370,2051.730,107.166664,37.78,2.5245,355,23699,1.88723,3.75,36326,,,,,,,,,,,,,,,,,,99999,99999,99999,99999,99999,99999,99999,99999,99999,99999,99999,99999
42:25:10,1510562310,2017-11-13T08:38:31,0.746,1957.3,9.73,7.18,11.18,833.260,2051.670,108.500000,37.53,2.5245,355,23700,1.88424,3.75,36321,,,,,,,,,,,,,,,,,,99999,99999,99999,99999,99999,99999,99999,99999,99999,99999,99999,99999
42:25:40,1510562340,2017-11-13T08:39:01,0.748,1957.7,9.74,7.20,11.19,833.390,2051.730,107.716667,37.47,2.5245,355,23700,1.88933,3.75,36316,,,,,,,,,,,,,,,,,,99999,99999,99999,99999,99999,99999,99999,99999,99999,99999,99999,99999
42:26:10,1510562370,2017-11-13T08:39:31,0.751,1958.1,9.72,7.20,11.21,833.320,2051.670,109.516670,36.78,2.5247,355,23700,1.89532,3.75,36311,,,,,,,,,,,,,,,,,,99999,99999,99999,99999,99999,99999,99999,99999,99999,99999,99999,99999
42:26:40,1510562400,2017-11-13T08:40:01,0.752,1958.4,9.73,7.20,11.19,833.370,2051.670,109.666664,36.57,2.5246,355,23699,1.89863,3.75,36306,,,,,,,,,,,,,,,,,,99999,99999,99999,99999,99999,99999,99999,99999,99999,99999,99999,99999
42:27:10,1510562430,2017-11-13T08:40:31,0.751,1958.8,9.73,7.20,11.18,833.370,2051.670,108.300003,36.94,2.5246,355,23698,1.89532,3.75,36302,,,,,,,,,,,,,,,,,,99999,99999,99999,99999,99999,99999,99999,99999,99999,99999,99999,99999
42:27:40,1510562460,2017-11-13T08:41:01,0.750,1959.2,9.74,7.21,11.21,833.310,2051.730,108.716667,37.41,2.5245,355,23700,1.89233,3.75,36297,,,,,,,,,,,,,,,,,,99999,99999,99999,99999,99999,99999,99999,99999,99999,99999,99999,99999
42:28:10,1510562490,2017-11-13T08:41:31,0.747,1959.6,9.73,7.20,11.21,833.320,2051.670,108.283333,37.88,2.5245,355,23699,1.88544,3.75,36292,,,,,,,,,,,,,,,,,,99999,99999,99999,99999,99999,99999,99999,99999,99999,99999,99999,99999
42:28:40,1510562520,2017-11-13T08:42:01,0.747,1959.9,9.74,7.21,11.23,833.370,2051.730,107.750000,37.88,2.5245,355,23703,1.88544,3.75,36287,,,,,,,,,,,,,,,,,,99999,99999,99999,99999,99999,99999,99999,99999,99999,99999,99999,99999
42:29:10,1510562550,2017-11-13T08:42:31,0.748,1960.3,9.74,7.20,11.15,833.370,2051.730,107.016670,37.53,2.5245,355,23700,1.88783,3.75,36282,,,,,,,,,,,,,,,,,,99999,99999,99999,99999,99999,99999,99999,99999,99999,99999,99999,99999
42:29:40,1510562580,2017-11-13T08:43:01,0.746,1960.7,9.74,7.22,11.24,833.310,2051.730,107.316666,37.69,2.5245,355,23701,1.88215,3.75,36277,,,,,,,,,,,,,,,,,,99999,99999,99999,99999,99999,99999,99999,99999,99999,99999,99999,99999
42:30:10,1510562610,2017-11-13T08:43:31,0.755,1961.1,9.75,7.23,11.18,833.390,2051.790,108.716667,37.50,2.5245,355,23702,1.90585,3.75,36273,,,,,,,,,,,,,,,,,,99999,99999,99999,99999,99999,99999,99999,99999,99999,99999,99999,99999
42:30:40,1510562640,2017-11-13T08:44:01,0.747,1961.4,9.75,7.21,11.24,833.340,2051.790,106.599998,37.55,2.5245,355,23704,1.88484,3.75,36268,,,,,,,,,,,,,,,,,,99999,99999,99999,99999,99999,99999,99999,99999,99999,99999,99999,99999
42:31:10,1510562670,2017-11-13T08:44:31,0.746,1961.8,9.75,7.22,11.19,833.340,2051.790,106.283333,37.40,2.5245,355,23701,1.88424,3.75,36263,,,,,,,,,,,,,,,,,,99999,99999,99999,99999,99999,99999,99999,99999,99999,99999,99999,99999
42:31:40,1510562700,2017-11-13T08:45:01,0.749,1962.2,9.75,7.20,11.24,833.390,2051.790,107.066666,38.04,2.5245,355,23703,1.89053,3.75,36258,,,,,,,,,,,,,,,,,,99999,99999,99999,99999,99999,99999,99999,99999,99999,99999,99999,99999
42:32:10,1510562730,2017-11-13T08:45:31,0.754,1962.6,9.75,7.21,11.21,833.280,2051.790,108.966667,37.30,2.5245,355,23704,1.90434,3.75,36253,,,,,,,,,,,,,,,,,,99999,99999,99999,99999,99999,99999,99999,99999,99999,99999,99999,99999
42:32:40,1510562760,2017-11-13T08:46:01,0.750,1962.9,9.76,7.22,11.23,833.280,2051.790,108.883331,35.97,2.5245,355,23701,1.89233,3.75,36248,,,,,,,,,,,,,,,,,,99999,99999,99999,99999,99999,99999,99999,99999,99999,99999,99999,99999
42:33:10,1510562790,2017-11-13T08:46:31,0.749,1963.3,9.76,7.23,11.23,833.280,2051.790,106.633331,35.82,2.5245,355,23700,1.89113,3.75,36243,,,,,,,,,,,,,,,,,,99999,99999,99999,99999,99999,99999,99999,99999,99999,99999,99999,99999
42:33:40,1510562820,2017-11-13T08:47:01,0.754,1963.7,9.77,7.23,11.24,833.250,2051.860,108.250000,36.15,2.5245,355,23703,1.90284,3.75,36239,,,,,,,,,,,,,,,,,,99999,99999,99999,99999,99999,99999,99999,99999,99999,99999,99999,99999
42:34:10,1510562850,2017-11-13T08:47:31,0.749,1964.1,9.76,7.23,11.24,833.260,2051.790,107.449997,37.27,2.5244,355,23704,1.88963,3.75,36234,,,,,,,,,,,,,,,,,,99999,99999,99999,99999,99999,99999,99999,99999,99999,99999,99999,99999
42:34:40,1510562880,2017-11-13T08:48:01,0.751,1964.5,9.78,7.26,11.29,833.230,2051.860,109.000000,37.06,2.5243,355,23700,1.89563,3.75,36229,,,,,,,,,,,,,,,,,,99999,99999,99999,99999,99999,99999,99999,99999,99999,99999,99999,99999
42:35:10,1510562910,2017-11-13T08:48:31,0.750,1964.8,9.78,7.25,11.26,833.230,2051.860,108.199997,37.43,2.5243,355,23702,1.89353,3.75,36224,,,,,,,,,,,,,,,,,,99999,99999,99999,99999,99999,99999,99999,99999,99999,99999,99999,99999
42:35:40,1510562940,2017-11-13T08:49:01,0.755,1965.2,9.78,7.26,11.26,833.280,2051.860,109.233330,37.67,2.5243,355,23704,1.90585,3.75,36219,,,,,,,,,,,,,,,,,,99999,99999,99999,99999,99999,99999,99999,99999,99999,99999,99999,99999
42:36:10,1510562970,2017-11-13T08:49:31,0.754,1965.6,9.79,7.28,11.27,833.320,2051.900,109.449997,37.38,2.5243,355,23703,1.90314,3.75,36214,,,,,,,,,,,,,,,,,,99999,99999,99999,99999,99999,99999,99999,99999,99999,99999,99999,99999
42:36:40,1510563000,2017-11-13T08:50:01,0.753,1966.0,9.79,7.27,11.27,833.300,2051.900,109.083336,37.63,2.5243,355,23704,1.90133,3.75,36210,,,,,,,,,,,,,,,,,,99999,99999,99999,99999,99999,99999,99999,99999,99999,99999,99999,99999
42:37:10,1510563030,2017-11-13T08:50:31,0.752,1966.3,9.79,7.28,11.29,833.320,2051.900,109.533333,38.07,2.5242,355,23702,1.89923,3.75,36205,,,,,,,,,,,,,,,,,,99999,99999,99999,99999,99999,99999,99999,99999,99999,99999,99999,99999
42:37:40,1510563060,2017-11-13T08:51:01,0.754,1966.7,9.79,7.28,11.27,833.300,2051.900,109.766670,37.70,2.5243,355,23703,1.90434,3.75,36200,,,,,,,,,,,,,,,,,,99999,99999,99999,99999,99999,99999,99999,99999,99999,99999,99999,99999
42:38:10,1510563090,2017-11-13T08:51:31,0.752,1967.1,9.80,7.27,11.29,833.380,2051.900,109.800003,37.51,2.5242,355,23700,1.89833,3.75,36195,,,,,,,,,,,,,,,,,,99999,99999,99999,99999,99999,99999,99999,99999,99999,99999,99999,99999
42:38:40,1510563120,2017-11-13T08:52:01,0.747,1967.5,9.79,7.26,11.27,833.380,2051.900,108.183334,37.67,2.5243,355,23700,1.88663,3.75,36190,,,,,,,,,,,,,,,,,,99999,99999,99999,99999,99999,99999,99999,99999,99999,99999,99999,99999
42:39:10,1510563150,2017-11-13T08:52:31,0.747,1967.8,9.79,7.26,11.29,833.380,2051.900,107.199997,37.37,2.5243,355,23705,1.88604,3.75,36185,,,,,,,,,,,,,,,,,,99999,99999,99999,99999,99999,99999,99999,99999,99999,99999,99999,99999
42:39:40,1510563180,2017-11-13T08:53:01,0.747,1968.2,9.79,7.27,11.29,833.320,2051.900,108.066666,37.33,2.5243,355,23703,1.88663,3.75,36180,,,,,,,,,,,,,,,,,,99999,99999,99999,99999,99999,99999,99999,99999,99999,99999,99999,99999
42:40:10,1510563210,2017-11-13T08:53:31,0.752,1968.6,9.78,7.26,11.27,833.330,2051.860,109.383331,36.72,2.5244,355,23701,1.89773,3.75,36176,,,,,,,,,,,,,,,,,,99999,99999,99999,99999,99999,99999,99999,99999,99999,99999,99999,99999
42:40:40,1510563240,2017-11-13T08:54:01,0.752,1969.0,9.79,7.23,11.29,833.400,2051.900,109.316666,36.84,2.5243,355,23702,1.89773,3.75,36171,,,,,,,,,,,,,,,,,,99999,99999,99999,99999,99999,99999,99999,99999,99999,99999,99999,99999
42:41:10,1510563270,2017-11-13T08:54:31,0.755,1969.3,9.80,7.25,11.29,833.350,2051.900,108.699997,36.67,2.5242,355,23704,1.90615,3.75,36166,,,,,,,,,,,,,,,,,,99999,99999,99999,99999,99999,99999,99999,99999,99999,99999,99999,99999
42:41:40,1510563300,2017-11-13T08:55:01,0.755,1969.7,9.78,7.27,11.27,833.280,2051.860,108.699997,36.29,2.5244,355,23702,1.90645,3.75,36161,,,,,,,,,,,,,,,,,,99999,99999,99999,99999,99999,99999,99999,99999,99999,99999,99999,99999
42:42:10,1510563330,2017-11-13T08:55:31,0.756,1970.1,9.78,7.26,11.29,833.330,2051.860,108.383331,36.97,2.5243,355,23702,1.90735,3.75,36156,,,,,,,,,,,,,,,,,,99999,99999,99999,99999,99999,99999,99999,99999,99999,99999,99999,99999
42:42:40,1510563360,2017-11-13T08:56:01,0.751,1970.5,9.79,7.28,11.31,833.320,2051.900,107.616669,37.40,2.5243,355,23703,1.89563,3.75,36151,,,,,,,,,,,,,,,,,,99999,99999,99999,99999,99999,99999,99999,99999,99999,99999,99999,99999
42:43:10,1510563390,2017-11-13T08:56:31,0.750,1970.8,9.79,7.28,11.31,833.320,2051.900,105.583336,37.01,2.5243,355,23700,1.89203,3.75,36146,,,,,,,,,,,,,,,,,,99999,99999,99999,99999,99999,99999,99999,99999,99999,99999,99999,99999
42:43:40,1510563420,2017-11-13T08:57:01,0.753,1971.2,9.80,7.26,11.27,833.380,2051.900,108.816666,38.11,2.5241,355,23701,1.90133,3.75,36142,,,,,,,,,,,,,,,,,,99999,99999,99999,99999,99999,99999,99999,99999,99999,99999,99999,99999
42:44:10,1510563450,2017-11-13T08:57:31,0.753,1971.6,9.81,7.28,11.27,833.430,2051.960,109.766670,37.97,2.5241,355,23701,1.90193,3.75,36137,,,,,,,,,,,,,,,,,,99999,99999,99999,99999,99999,99999,99999,99999,99999,99999,99999,99999
42:44:40,1510563480,2017-11-13T08:58:01,0.753,1972.0,9.80,7.26,11.27,833.320,2051.900,108.666664,36.80,2.5242,355,23703,1.90103,3.75,36132,,,,,,,,,,,,,,,,,,99999,99999,99999,99999,99999,99999,99999,99999,99999,99999,99999,99999
42:45:10,1510563510,2017-11-13T08:58:31,0.749,1972.3,9.80,7.28,11.31,833.270,2051.900,107.916664,36.83,2.5242,355,23706,1.88993,3.75,36127,,,,,,,,,,,,,,,,,,99999,99999,99999,99999,99999,99999,99999,99999,99999,99999,99999,99999
42:45:40,1510563540,2017-11-13T08:59:01,0.748,1972.7,9.80,7.28,11.29,833.220,2051.900,108.766670,37.55,2.5242,355,23703,1.88783,3.75,36122,,,,,,,,,,,,,,,,,,99999,99999,99999,99999,99999,99999,99999,99999,99999,99999,99999,99999
42:46:10,1510563570,2017-11-13T08:59:31,0.753,1973.1,9.81,7.28,11.29,833.270,2051.960,108.550003,37.52,2.5242,355,23705,1.90193,3.75,36117,,,,,,,,,,,,,,,,,,99999,99999,99999,99999,99999,99999,99999,99999,99999,99999,99999,99999
42:46:40,1510563600,2017-11-13T09:00:01,0.749,1973.5,9.80,7.29,11.29,833.220,2051.900,108.616669,37.55,2.5242,355,23702,1.89053,3.75,36112,,,,,,,,,,,,,,,,,,99999,99999,99999,99999,99999,99999,99999,99999,99999,99999,99999,99999
42:47:10,1510563630,2017-11-13T09:00:31,0.752,1973.8,9.81,7.28,11.31,833.290,2051.960,108.900002,37.97,2.5241,355,23705,1.89773,3.75,36108,,,,,,,,,,,,,,,,,,99999,99999,99999,99999,99999,99999,99999,99999,99999,99999,99999,99999
42:47:40,1510563660,2017-11-13T09:01:01,0.753,1974.2,9.81,7.30,11.31,833.220,2051.960,109.566666,38.22,2.5241,355,23703,1.90133,3.75,36103,,,,,,,,,,,,,,,,,,99999,99999,99999,99999,99999,99999,99999,99999,99999,99999,99999,99999
42:48:10,1510563690,2017-11-13T09:01:31,0.754,1974.6,9.82,7.30,11.31,833.320,2052.020,109.566666,37.81,2.5241,355,23704,1.90314,3.75,36098,,,,,,,,,,,,,,,,,,99999,99999,99999,99999,99999,99999,99999,99999,99999,99999,99999,99999
42:48:40,1510563720,2017-11-13T09:02:01,0.754,1975.0,9.81,7.32,11.31,833.270,2051.960,109.616669,37.86,2.5241,355,23703,1.90344,3.75,36093,,,,,,,,,,,,,,,,,,99999,99999,99999,99999,99999,99999,99999,99999,99999,99999,99999,99999
42:49:10,1510563750,2017-11-13T09:02:31,0.749,1975.3,9.81,7.31,11.31,833.270,2051.960,107.916664,37.62,2.5242,355,23703,1.89053,3.75,36088,,,,,,,,,,,,,,,,,,99999,99999,99999,99999,99999,99999,99999,99999,99999,99999,99999,99999
42:49:40,1510563780,2017-11-13T09:03:01,0.746,1975.7,9.82,7.30,11.31,833.190,2052.020,108.483330,37.34,2.5242,355,23700,1.88215,3.75,36083,,,,,,,,,,,,,,,,,,99999,99999,99999,99999,99999,99999,99999,99999,99999,99999,99999,99999
42:50:10,1510563810,2017-11-13T09:03:31,0.750,1976.1,9.80,7.31,11.31,833.190,2051.900,109.416664,37.31,2.5242,355,23701,1.89263,3.75,36078,,,,,,,,,,,,,,,,,,99999,99999,99999,99999,99999,99999,99999,99999,99999,99999,99999,99999
42:50:40,1510563840,2017-11-13T09:04:01,0.754,1976.5,9.80,7.31,11.29,833.220,2051.900,109.433334,37.11,2.5242,355,23703,1.90344,3.75,36074,,,,,,,,,,,,,,,,,,99999,99999,99999,99999,99999,99999,99999,99999,99999,99999,99999,99999
42:51:10,1510563870,2017-11-13T09:04:31,0.750,1976.8,9.81,7.30,11.31,833.190,2051.960,108.150002,37.39,2.5242,355,23702,1.89353,3.75,36069,,,,,,,,,,,,,,,,,,99999,99999,99999,99999,99999,99999,99999,99999,99999,99999,99999,99999
42:51:40,1510563900,2017-11-13T09:05:01,0.753,1977.2,9.81,7.31,11.27,833.220,2051.960,109.033333,37.51,2.5242,355,23703,1.89953,3.75,36064,,,,,,,,,,,,,,,,,,99999,99999,99999,99999,99999,99999,99999,99999,99999,99999,99999,99999
42:52:10,1510563930,2017-11-13T09:05:31,0.752,1977.6,9.81,7.29,11.34,833.160,2051.960,109.500000,37.84,2.5241,355,23706,1.89833,3.75,36059,,,,,,,,,,,,,,,,,,99999,99999,99999,99999,99999,99999,99999,99999,99999,99999,99999,99999
42:52:40,1510563960,2017-11-13T09:06:01,0.749,1978.0,9.81,7.28,11.31,833.220,2051.960,108.699997,37.91,2.5241,355,23702,1.89083,3.75,36054,,,,,,,,,,,,,,,,,,99999,99999,99999,99999,99999,99999,99999,99999,99999,99999,99999,99999
42:53:10,1510563990,2017-11-13T09:06:31,0.751,1978.3,9.81,7.31,11.31,833.140,2051.960,108.316666,38.79,2.5241,355,23706,1.89563,3.75,36049,,,,,,,,,,,,,,,,,,99999,99999,99999,99999,99999,99999,99999,99999,99999,99999,99999,99999
42:53:40,1510564020,2017-11-13T09:07:01,0.749,1978.7,9.81,7.31,11.29,833.140,2051.960,108.866669,38.19,2.5241,355,23704,1.89023,3.75,36044,,,,,,,,,,,,,,,,,,99999,99999,99999,99999,99999,99999,99999,99999,99999,99999,99999,99999
42:54:10,1510564050,2017-11-13T09:07:31,0.754,1979.1,9.81,7.29,11.35,833.160,2051.960,108.800003,38.46,2.5241,355,23704,1.90193,3.75,36040,,,,,,,,,,,,,,,,,,99999,99999,99999,99999,99999,99999,99999,99999,99999,99999,99999,99999
42:54:40,1510564080,2017-11-13T09:08:01,0.746,1979.5,9.80,7.31,11.31,833.190,2051.900,107.616669,39.29,2.5241,355,23705,1.88245,3.75,36035,,,,,,,,,,,,,,,,,,99999,99999,99999,99999,99999,99999,99999,99999,99999,99999,99999,99999
42:55:10,1510564110,2017-11-13T09:08:31,0.745,1979.8,9.79,7.31,11.31,833.220,2051.900,109.066666,39.16,2.5242,355,23703,1.88155,3.75,36030,,,,,,,,,,,,,,,,,,99999,99999,99999,99999,99999,99999,99999,99999,99999,99999,99999,99999
42:55:40,1510564140,2017-11-13T09:09:01,0.751,1980.2,9.79,7.29,11.32,833.190,2051.900,108.883331,39.10,2.5242,355,23702,1.89532,3.75,36025,,,,,,,,,,,,,,,,,,99999,99999,99999,99999,99999,99999,99999,99999,99999,99999,99999,99999
42:56:10,1510564170,2017-11-13T09:09:31,0.755,1980.6,9.79,7.29,11.29,833.250,2051.900,108.650002,38.81,2.5242,355,23706,1.90615,3.75,36020,,,,,,,,,,,,,,,,,,99999,99999,99999,99999,99999,99999,99999,99999,99999,99999,99999,99999
42:56:40,1510564200,2017-11-13T09:10:01,0.749,1981.0,9.77,7.28,11.27,833.280,2051.860,106.816666,38.22,2.5244,355,23705,1.88993,3.75,36015,,,,,,,,,,,,,,,,,,99999,99999,99999,99999,99999,99999,99999,99999,99999,99999,99999,99999
42:57:10,1510564230,2017-11-13T09:10:31,0.746,1981.3,9.77,7.28,11.29,833.280,2051.860,107.150002,38.32,2.5244,355,23704,1.88424,3.75,36010,,,,,,,,,,,,,,,,,,99999,99999,99999,99999,99999,99999,99999,99999,99999,99999,99999,99999
42:57:40,1510564260,2017-11-13T09:11:01,0.751,1981.7,9.75,7.27,11.29,833.260,2051.790,108.983330,37.90,2.5245,355,23701,1.89593,3.75,36006,,,,,,,,,,,,,,,,,,99999,99999,99999,99999,99999,99999,99999,99999,99999,99999,99999,99999
42:58:10,1510564290,2017-11-13T09:11:31,0.748,1982.1,9.75,7.27,11.23,833.180,2051.790,108.683334,38.23,2.5245,355,23703,1.88723,3.75,36001,,,,,,,,,,,,,,,,,,99999,99999,99999,99999,99999,99999,99999,99999,99999,99999,99999,99999
42:58:40,1510564320,2017-11-13T09:12:01,0.745,1982.5,9.75,7.25,11.23,833.180,2051.790,107.583336,38.31,2.5245,355,23702,1.88035,3.75,35996,,,,,,,,,,,,,,,,,,99999,99999,99999,99999,99999,99999,99999,99999,99999,99999,99999,99999
42:59:10,1510564350,2017-11-13T09:12:31,0.749,1982.8,9.75,7.24,11.26,833.230,2051.790,107.199997,38.29,2.5245,355,23702,1.89023,3.75,35991,,,,,,,,,,,,,,,,,,99999,99999,99999,99999,99999,99999,99999,99999,99999,99999,99999,99999
42:59:40,1510564380,2017-11-13T09:13:01,0.754,1983.2,9.73,7.25,11.24,833.110,2051.670,109.216667,38.59,2.5245,355,23703,1.90434,3.75,35986,,,,,,,,,,,,,,,,,,99999,99999,99999,99999,99999,99999,99999,99999,99999,99999,99999,99999
43:00:10,1510564410,2017-11-13T09:13:31,0.745,1983.6,9.73,7.26,11.23,833.160,2051.670,108.133331,38.39,2.5245,355,23699,1.88095,3.75,35981,,,,,,,,,,,,,,,,,,99999,99999,99999,99999,99999,99999,99999,99999,99999,99999,99999,99999
43:00:40,1510564440,2017-11-13T09:14:01,0.753,1984.0,9.72,7.25,11.21,833.110,2051.670,109.716667,38.02,2.5246,355,23699,1.90223,3.75,35976,,,,,,,,,,,,,,,,,,99999,99999,99999,99999,99999,99999,99999,99999,99999,99999,99999,99999
43:01:10,1510564470,2017-11-13T09:14:31,0.750,1984.3,9.71,7.22,11.21,833.160,2051.670,106.816666,37.82,2.5247,355,23701,1.89322,3.75,35972,,,,,,,,,,,,,,,,,,99999,99999,99999,99999,99999,99999,99999,99999,99999,99999,99999,99999
43:01:40,1510564500,2017-11-13T09:15:01,0.746,1984.7,9.71,7.23,11.23,833.080,2051.670,108.166664,37.97,2.5247,355,23700,1.88245,3.75,35967,,,,,,,,,,,,,,,,,,99999,99999,99999,99999,99999,99999,99999,99999,99999,99999,99999,99999
43:02:10,1510564530,2017-11-13T09:15:31,0.751,1985.1,9.70,7.24,11.21,833.140,2051.560,107.566666,38.32,2.5246,355,23700,1.89713,3.75,35962,,,,,,,,,,,,,,,,,,99999,99999,99999,99999,99999,99999,99999,99999,99999,99999,99999,99999
43:02:40,1510564560,2017-11-13T09:16:01,0.749,1985.5,9.71,7.23,11.23,833.140,2051.670,107.199997,38.07,2.5247,355,23700,1.89083,3.75,35957,,,,,,,,,,,,,,,,,,99999,99999,99999,99999,99999,99999,99999,99999,99999,99999,99999,99999
43:03:10,1510564590,2017-11-13T09:16:31,0.749,1985.8,9.68,7.22,11.21,833.110,2051.500,106.949997,37.95,2.5248,355,23698,1.89143,3.75,35952,,,,,,,,,,,,,,,,,,99999,99999,99999,99999,99999,99999,99999,99999,99999,99999,99999,99999
43:03:40,1510564620,2017-11-13T09:17:01,0.751,1986.2,9.70,7.22,11.21,833.140,2051.560,107.300003,37.61,2.5247,355,23702,1.89623,3.75,35947,,,,,,,,,,,,,,,,,,99999,99999,99999,99999,99999,99999,99999,99999,99999,99999,99999,99999
43:04:10,1510564650,2017-11-13T09:17:31,0.753,1986.6,9.69,7.22,11.19,833.090,2051.500,110.133331,37.75,2.5247,355,23699,1.90043,3.75,35942,,,,,,,,,,,,,,,,,,99999,99999,99999,99999,99999,99999,99999,99999,99999,99999,99999,99999
43:04:40,1510564680,2017-11-13T09:18:01,0.746,1987.0,9.69,7.22,11.18,833.090,2051.500,108.266670,37.79,2.5247,355,23702,1.88275,3.75,35938,,,,,,,,,,,,,,,,,,99999,99999,99999,99999,99999,99999,99999,99999,99999,99999,99999,99999
43:05:10,1510564710,2017-11-13T09:18:31,0.755,1987.3,9.69,7.20,11.18,833.060,2051.500,108.516670,37.66,2.5247,355,23699,1.90494,3.75,35933,,,,,,,,,,,,,,,,,,99999,99999,99999,99999,99999,99999,99999,99999,99999,99999,99999,99999
43:05:40,1510564740,2017-11-13T09:19:01,0.750,1987.7,9.69,7.23,11.16,833.090,2051.500,108.000000,38.73,2.5246,355,23700,1.89382,3.75,35928,,,,,,,,,,,,,,,,,,99999,99999,99999,99999,99999,99999,99999,99999,99999,99999,99999,99999
43:06:10,1510564770,2017-11-13T09:19:31,0.745,1988.1,9.69,7.21,11.18,833.090,2051.500,107.516670,38.94,2.5246,355,23701,1.88125,3.75,35923,,,,,,,,,,,,,,,,,,99999,99999,99999,99999,99999,99999,99999,99999,99999,99999,99999,99999
43:06:40,1510564800,2017-11-13T09:20:01,0.745,1988.5,9.68,7.21,11.18,833.010,2051.500,107.150002,39.35,2.5247,355,23700,1.88035,3.75,35918,,,,,,,,,,,,,,,,,,99999,99999,99999,99999,99999,99999,99999,99999,99999,99999,99999,99999
43:07:10,1510564830,2017-11-13T09:20:31,0.746,1988.8,9.68,7.20,11.18,833.090,2051.500,107.716667,39.01,2.5247,355,23700,1.88364,3.74,35913,,,,,,,,,,,,,,,,,,99999,99999,99999,99999,99999,99999,99999,99999,99999,99999,99999,99999
43:07:40,1510564860,2017-11-13T09:21:01,0.749,1989.2,9.68,7.20,11.23,833.060,2051.500,108.583336,39.06,2.5247,355,23698,1.89203,3.74,35908,,,,,,,,,,,,,,,,,,99999,99999,99999,99999,99999,99999,99999,99999,99999,99999,99999,99999
43:08:10,1510564890,2017-11-13T09:21:31,0.752,1989.6,9.67,7.22,11.16,833.090,2051.460,109.183334,38.66,2.5248,355,23700,1.89893,3.74,35904,,,,,,,,,,,,,,,,,,99999,99999,99999,99999,99999,99999,99999,99999,99999,99999,99999,99999
43:08:40,1510564920,2017-11-13T09:22:01,0.748,1990.0,9.68,7.20,11.16,833.190,2051.500,109.300003,39.50,2.5247,355,23700,1.88783,3.74,35899,,,,,,,,,,,,,,,,,,99999,99999,99999,99999,99999,99999,99999,99999,99999,99999,99999,99999
43:09:10,1510564950,2017-11-13T09:22:31,0.749,1990.3,9.66,7.20,11.16,833.220,2051.460,106.666664,38.62,2.5248,355,23701,1.89173,3.74,35894,,,,,,,,,,,,,,,,,,99999,99999,99999,99999,99999,99999,99999,99999,99999,99999,99999,99999
43:09:40,1510564980,2017-11-13T09:23:01,0.753,1990.7,9.65,7.19,11.19,833.120,2051.400,108.250000,38.57,2.5249,355,23700,1.90193,3.74,35889,,,,,,,,,,,,,,,,,,99999,99999,99999,99999,99999,99999,99999,99999,99999,99999,99999,99999
43:10:10,1510565010,2017-11-13T09:23:31,0.752,1991.1,9.65,7.21,11.16,833.120,2051.400,108.416664,38.96,2.5248,355,23701,1.89833,3.74,35884,,,,,,,,,,,,,,,,,,99999,99999,99999,99999,99999,99999,99999,99999,99999,99999,99999,99999
43:10:40,1510565040,2017-11-13T09:24:01,0.744,1991.5,9.65,7.19,11.16,833.040,2051.400,107.483330,38.61,2.5249,355,23701,1.87886,3.74,35879,,,,,,,,,,,,,,,,,,99999,99999,99999,99999,99999,99999,99999,99999,99999,99999,99999,99999
43:11:10,1510565070,2017-11-13T09:24:31,0.750,1991.8,9.64,7.20,11.16,833.250,2051.400,110.233330,38.49,2.5250,355,23700,1.89413,3.74,35874,,,,,,,,,,,,,,,,,,99999,99999,99999,99999,99999,99999,99999,99999,99999,99999,99999,99999
43:11:40,1510565100,2017-11-13T09:25:01,0.752,1992.2,9.65,7.19,11.15,833.230,2051.400,109.066666,38.00,2.5249,355,23699,1.89833,3.74,35870,,,,,,,,,,,,,,,,,,99999,99999,99999,99999,99999,99999,99999,99999,99999,99999,99999,99999
43:12:10,1510565130,2017-11-13T09:25:31,0.749,1992.6,9.65,7.19,11.13,833.170,2051.400,106.783333,38.34,2.5249,355,23701,1.89143,3.74,35865,,,,,,,,,,,,,,,,,,99999,99999,99999,99999,99999,99999,99999,99999,99999,99999,99999,99999
43:12:40,1510565160,2017-11-13T09:26:01,0.748,1993.0,9.64,7.20,11.18,833.230,2051.400,105.916664,38.39,2.5250,355,23700,1.88813,3.74,35860,,,,,,,,,,,,,,,,,,99999,99999,99999,99999,99999,99999,99999,99999,99999,99999,99999,99999
43:13:10,1510565190,2017-11-13T09:26:31,0.745,1993.3,9.65,7.20,11.16,833.300,2051.400,106.816666,37.89,2.5249,355,23699,1.88155,3.74,35855,,,,,,,,,,,,,,,,,,99999,99999,99999,99999,99999,99999,99999,99999,99999,99999,99999,99999
43:13:40,1510565220,2017-11-13T09:27:01,0.745,1993.7,9.65,7.19,11.16,833.250,2051.400,108.566666,37.71,2.5249,355,23698,1.88006,3.74,35850,,,,,,,,,,,,,,,,,,99999,99999,99999,99999,99999,99999,99999,99999,99999,99999,99999,99999
43:14:10,1510565250,2017-11-13T09:27:31,0.747,1994.1,9.65,7.18,11.18,833.360,2051.400,107.616669,37.97,2.5249,355,23700,1.88514,3.74,35845,,,,,,,,,,,,,,,,,,99999,99999,99999,99999,99999,99999,99999,99999,99999,99999,99999,99999
43:14:40,1510565280,2017-11-13T09:28:01,0.745,1994.5,9.64,7.21,11.16,833.300,2051.400,106.933334,37.36,2.5250,355,23699,1.88095,3.74,35840,,,,,,,,,,,,,,,,,,99999,99999,99999,99999,99999,99999,99999,99999,99999,99999,99999,99999
43:15:10,1510565310,2017-11-13T09:28:31,0.749,1994.8,9.66,7.20,11.15,833.220,2051.460,109.116669,38.05,2.5249,355,23700,1.89143,3.74,35836,,,,,,,,,,,,,,,,,,99999,99999,99999,99999,99999,99999,99999,99999,99999,99999,99999,99999
43:15:40,1510565340,2017-11-13T09:29:01,0.753,1995.2,9.66,7.23,11.15,833.220,2051.460,108.500000,37.26,2.5249,355,23701,1.90133,3.74,35831,,,,,,,,,,,,,,,,,,99999,99999,99999,99999,99999,99999,99999,99999,99999,99999,99999,99999
43:16:10,1510565370,2017-11-13T09:29:31,0.744,1995.6,9.66,7.22,11.16,833.120,2051.460,107.366669,37.40,2.5249,355,23700,1.87826,3.74,35826,,,,,,,,,,,,,,,,,,99999,99999,99999,99999,99999,99999,99999,99999,99999,99999,99999,99999
43:16:40,1510565400,2017-11-13T09:30:01,0.754,1996.0,9.68,7.21,11.18,833.250,2051.500,109.133331,37.41,2.5248,355,23701,1.90254,3.74,35821,,,,,,,,,,,,,,,,,,99999,99999,99999,99999,99999,99999,99999,99999,99999,99999,99999,99999
43:17:10,1510565430,2017-11-13T09:30:31,0.745,1996.3,9.68,7.25,11.18,833.140,2051.500,107.333336,37.92,2.5248,355,23703,1.88155,3.74,35816,,,,,,,,,,,,,,,,,,99999,99999,99999,99999,99999,99999,99999,99999,99999,99999,99999,99999
43:17:40,1510565460,2017-11-13T09:31:01,0.753,1996.7,9.70,7.22,11.19,833.190,2051.560,110.083336,38.83,2.5246,355,23701,1.90013,3.74,35811,,,,,,,,,,,,,,,,,,99999,99999,99999,99999,99999,99999,99999,99999,99999,99999,99999,99999
43:18:10,1510565490,2017-11-13T09:31:31,0.745,1997.1,9.70,7.23,11.18,833.140,2051.560,107.699997,37.70,2.5247,355,23704,1.88185,3.74,35806,,,,,,,,,,,,,,,,,,99999,99999,99999,99999,99999,99999,99999,99999,99999,99999,99999,99999
43:18:40,1510565520,2017-11-13T09:32:01,0.752,1997.5,9.72,7.26,11.21,833.110,2051.670,108.933334,37.84,2.5246,355,23703,1.89803,3.74,35802,,,,,,,,,,,,,,,,,,99999,99999,99999,99999,99999,99999,99999,99999,99999,99999,99999,99999
43:19:10,1510565550,2017-11-13T09:32:31,0.752,1997.8,9.72,7.28,11.24,833.110,2051.670,109.533333,37.95,2.5246,355,23702,1.89893,3.74,35797,,,,,,,,,,,,,,,,,,99999,99999,99999,99999,99999,99999,99999,99999,99999,99999,99999,99999
43:19:40,1510565580,2017-11-13T09:33:01,0.749,1998.2,9.73,7.27,11.21,833.110,2051.670,107.033333,37.53,2.5245,355,23701,1.88963,3.74,35792,,,,,,,,,,,,,,,,,,99999,99999,99999,99999,99999,99999,99999,99999,99999,99999,99999,99999
43:20:10,1510565610,2017-11-13T09:33:31,0.754,1998.6,9.74,7.27,11.26,833.050,2051.730,109.016670,37.23,2.5245,355,23705,1.90314,3.74,35787,,,,,,,,,,,,,,,,,,99999,99999,99999,99999,99999,99999,99999,99999,99999,99999,99999,99999
43:20:40,1510565640,2017-11-13T09:34:01,0.751,1999.0,9.75,7.29,11.24,833.020,2051.790,109.583336,38.36,2.5245,355,23706,1.89593,3.74,35782,,,,,,,,,,,,,,,,,,99999,99999,99999,99999,99999,99999,99999,99999,99999,99999,99999,99999
43:21:10,1510565670,2017-11-13T09:34:31,0.752,1999.3,9.77,7.32,11.27,833.040,2051.860,109.433334,38.57,2.5243,355,23704,1.89863,3.74,35777,,,,,,,,,,,,,,,,,,99999,99999,99999,99999,99999,99999,99999,99999,99999,99999,99999,99999
43:21:40,1510565700,2017-11-13T09:35:01,0.752,1999.7,9.78,7.29,11.27,833.040,2051.860,109.900002,38.75,2.5242,355,23705,1.89773,3.74,35772,,,,,,,,,,,,,,,,,,99999,99999,99999,99999,99999,99999,99999,99999,99999,99999,99999,99999
43:22:10,1510565730,2017-11-13T09:35:31,0.747,2000.1,9.77,7.33,11.29,833.070,2051.860,107.349998,37.77,2.5244,355,23704,1.88454,3.74,35768,,,,,,,,,,,,,,,,,,99999,99999,99999,99999,99999,99999,99999,99999,99999,99999,99999,99999
43:22:40,1510565760,2017-11-13T09:36:01,0.750,2000.5,9.78,7.32,11.26,832.940,2051.860,107.116669,38.10,2.5243,355,23706,1.89263,3.74,35763,,,,,,,,,,,,,,,,,,99999,99999,99999,99999,99999,99999,99999,99999,99999,99999,99999,99999
43:23:10,1510565790,2017-11-13T09:36:31,0.754,2000.8,9.79,7.33,11.31,832.960,2051.900,108.000000,37.13,2.5243,355,23703,1.90344,3.74,35758,,,,,,,,,,,,,,,,,,99999,99999,99999,99999,99999,99999,99999,99999,99999,99999,99999,99999
43:23:40,1510565820,2017-11-13T09:37:01,0.747,2001.2,9.80,7.37,11.34,832.960,2051.900,106.466667,36.92,2.5242,355,23704,1.88574,3.74,35753,,,,,,,,,,,,,,,,,,99999,99999,99999,99999,99999,99999,99999,99999,99999,99999,99999,99999
43:24:10,1510565850,2017-11-13T09:37:31,0.753,2001.6,9.82,7.34,11.32,832.930,2052.020,108.433334,37.24,2.5242,355,23705,1.90133,3.74,35748,,,,,,,,,,,,,,,,,,99999,99999,99999,99999,99999,99999,99999,99999,99999,99999,99999,99999
43:24:40,1510565880,2017-11-13T09:38:01,0.753,2002.0,9.83,7.37,11.29,833.000,2052.020,107.583336,37.29,2.5241,355,23708,1.90013,3.74,35743,,,,,,,,,,,,,,,,,,99999,99999,99999,99999,99999,99999,99999,99999,99999,99999,99999,99999
43:25:10,1510565910,2017-11-13T09:38:31,0.746,2002.3,9.85,7.36,11.34,832.970,2052.130,106.783333,37.76,2.5240,355,23707,1.88334,3.74,35738,,,,,,,,,,,,,,,,,,99999,99999,99999,99999,99999,99999,99999,99999,99999,99999,99999,99999
43:25:40,1510565940,2017-11-13T09:39:01,0.749,2002.7,9.86,7.36,11.35,832.890,2052.130,108.583336,37.66,2.5239,355,23706,1.88963,3.74,35733,,,,,,,,,,,,,,,,,,99999,99999,99999,99999,99999,99999,99999,99999,99999,99999,99999,99999
43:26:10,1510565970,2017-11-13T09:39:31,0.746,2003.1,9.87,7.40,11.38,833.020,2052.190,107.849998,37.63,2.5239,355,23706,1.88364,3.74,35729,,,,,,,,,,,,,,,,,,99999,99999,99999,99999,99999,99999,99999,99999,99999,99999,99999,99999
43:26:40,1510566000,2017-11-13T09:40:01,0.753,2003.5,9.88,7.40,11.38,833.020,2052.230,109.433334,37.27,2.5239,355,23705,1.90163,3.74,35724,,,,,,,,,,,,,,,,,,99999,99999,99999,99999,99999,99999,99999,99999,99999,99999,99999,99999
43:27:10,1510566030,2017-11-13T09:40:31,0.752,2003.8,9.90,7.40,11.40,833.020,2052.230,109.750000,37.42,2.5237,355,23708,1.89803,3.74,35719,,,,,,,,,,,,,,,,,,99999,99999,99999,99999,99999,99999,99999,99999,99999,99999,99999,99999
43:27:40,1510566060,2017-11-13T09:41:01,0.752,2004.2,9.91,7.41,11.42,833.010,2052.300,108.550003,37.02,2.5237,355,23710,1.89713,3.74,35714,,,,,,,,,,,,,,,,,,99999,99999,99999,99999,99999,99999,99999,99999,99999,99999,99999,99999
43:28:10,1510566090,2017-11-13T09:41:31,0.754,2004.6,9.92,7.43,11.44,833.040,2052.360,110.516670,37.10,2.5237,355,23707,1.90314,3.74,35709,,,,,,,,,,,,,,,,,,99999,99999,99999,99999,99999,99999,99999,99999,99999,99999,99999,99999
43:28:40,1510566120,2017-11-13T09:42:01,0.754,2005.0,9.93,7.45,11.45,833.010,2052.360,109.033333,36.72,2.5236,355,23707,1.90404,3.74,35704,,,,,,,,,,,,,,,,,,99999,99999,99999,99999,99999,99999,99999,99999,99999,99999,99999,99999
43:29:10,1510566150,2017-11-13T09:42:31,0.753,2005.4,9.95,7.46,11.44,833.050,2052.460,108.800003,37.68,2.5235,355,23710,1.89923,3.74,35699,,,,,,,,,,,,,,,,,,99999,99999,99999,99999,99999,99999,99999,99999,99999,99999,99999,99999
43:29:40,1510566180,2017-11-13T09:43:01,0.747,2005.7,9.96,7.47,11.47,833.020,2052.460,108.433334,38.55,2.5234,355,23706,1.88484,3.74,35694,,,,,,,,,,,,,,,,,,99999,99999,99999,99999,99999,99999,99999,99999,99999,99999,99999,99999
43:30:10,1510566210,2017-11-13T09:43:31,0.748,2006.1,9.96,7.48,11.45,833.020,2052.460,107.449997,39.24,2.5233,355,23709,1.88634,3.74,35690,,,,,,,,,,,,,,,,,,99999,99999,99999,99999,99999,99999,99999,99999,99999,99999,99999,99999
43:30:40,1510566240,2017-11-13T09:44:01,0.750,2006.5,9.98,7.49,11.47,832.950,2052.560,109.699997,38.95,2.5233,355,23708,1.89143,3.74,35685,,,,,,,,,,,,,,,,,,99999,99999,99999,99999,99999,99999,99999,99999,99999,99999,99999,99999
43:31:10,1510566270,2017-11-13T09:44:31,0.752,2006.9,9.98,7.51,11.48,832.920,2052.560,108.816666,39.50,2.5232,355,23705,1.89833,3.74,35680,,,,,,,,,,,,,,,,,,99999,99999,99999,99999,99999,99999,99999,99999,99999,99999,99999,99999
43:31:40,1510566300,2017-11-13T09:45:01,0.754,2007.2,10.00,7.49,11.48,832.990,2052.630,109.583336,39.64,2.5231,355,23709,1.90284,3.74,35675,,,,,,,,,,,,,,,,,,99999,99999,99999,99999,99999,99999,99999,99999,99999,99999,99999,99999
43:32:10,1510566330,2017-11-13T09:45:31,0.753,2007.6,9.99,7.48,11.48,833.040,2052.630,110.083336,39.17,2.5233,355,23712,1.90043,3.74,35670,,,,,,,,,,,,,,,,,,99999,99999,99999,99999,99999,99999,99999,99999,99999,99999,99999,99999
43:32:40,1510566360,2017-11-13T09:46:01,0.747,2008.0,10.00,7.49,11.47,832.960,2052.630,108.083336,38.94,2.5232,355,23712,1.88394,3.74,35665,,,,,,,,,,,,,,,,,,99999,99999,99999,99999,99999,99999,99999,99999,99999,99999,99999,99999
43:33:10,1510566390,2017-11-13T09:46:31,0.747,2008.4,10.00,7.51,11.52,832.940,2052.630,107.500000,37.75,2.5233,355,23711,1.88394,3.74,35660,,,,,,,,,,,,,,,,,,99999,99999,99999,99999,99999,99999,99999,99999,99999,99999,99999,99999
43:33:40,1510566420,2017-11-13T09:47:01,0.747,2008.7,10.00,7.52,11.45,832.960,2052.630,107.416664,38.20,2.5232,355,23709,1.88364,3.74,35655,,,,,,,,,,,,,,,,,,99999,99999,99999,99999,99999,99999,99999,99999,99999,99999,99999,99999
43:34:10,1510566450,2017-11-13T09:47:31,0.747,2009.1,10.01,7.52,11.50,832.990,2052.690,107.866669,38.02,2.5232,355,23711,1.88514,3.74,35651,,,,,,,,,,,,,,,,,,99999,99999,99999,99999,99999,99999,99999,99999,99999,99999,99999,99999
43:34:40,1510566480,2017-11-13T09:48:01,0.750,2009.5,10.01,7.52,11.50,832.990,2052.690,109.416664,38.16,2.5232,355,23713,1.89353,3.74,35646,,,,,,,,,,,,,,,,,,99999,99999,99999,99999,99999,99999,99999,99999,99999,99999,99999,99999
43:35:10,1510566510,2017-11-13T09:48:31,0.755,2009.9,10.01,7.52,11.52,833.010,2052.690,109.449997,37.84,2.5232,355,23710,1.90494,3.74,35641,,,,,,,,,,,,,,,,,,99999,99999,99999,99999,99999,99999,99999,99999,99999,99999,99999,99999
43:35:40,1510566540,2017-11-13T09:49:01,0.755,2010.2,10.01,7.52,11.52,832.880,2052.690,108.033333,37.18,2.5233,355,23708,1.90524,3.74,35636,,,,,,,,,,,,,,,,,,99999,99999,99999,99999,99999,99999,99999,99999,99999,99999,99999,99999
43:36:10,1510566570,2017-11-13T09:49:31,0.748,2010.6,10.01,7.50,11.52,832.990,2052.690,109.233330,37.20,2.5233,355,23713,1.88783,3.74,35631,,,,,,,,,,,,,,,,,,99999,99999,99999,99999,99999,99999,99999,99999,99999,99999,99999,99999
43:36:40,1510566600,2017-11-13T09:50:01,0.756,2011.0,10.01,7.54,11.52,832.990,2052.690,109.516670,37.41,2.5233,355,23710,1.90675,3.74,35626,,,,,,,,,,,,,,,,,,99999,99999,99999,99999,99999,99999,99999,99999,99999,99999,99999,99999
43:37:10,1510566630,2017-11-13T09:50:31,0.748,2011.4,10.00,7.54,11.50,832.940,2052.630,106.883331,37.50,2.5233,355,23711,1.88634,3.74,35621,,,,,,,,,,,,,,,,,,99999,99999,99999,99999,99999,99999,99999,99999,99999,99999,99999,99999
43:37:40,1510566660,2017-11-13T09:51:01,0.755,2011.7,10.01,7.56,11.53,832.910,2052.690,109.800003,37.22,2.5233,355,23712,1.90464,3.74,35616,,,,,,,,,,,,,,,,,,99999,99999,99999,99999,99999,99999,99999,99999,99999,99999,99999,99999
43:38:10,1510566690,2017-11-13T09:51:31,0.750,2012.1,10.02,7.54,11.50,832.860,2052.690,108.966667,36.75,2.5232,355,23712,1.89292,3.74,35611,,,,,,,,,,,,,,,,,,99999,99999,99999,99999,99999,99999,99999,99999,99999,99999,99999,99999
43:38:40,1510566720,2017-11-13T09:52:01,0.750,2012.5,10.01,7.54,11.52,832.960,2052.690,107.316666,36.57,2.5233,355,23711,1.89173,3.74,35607,,,,,,,,,,,,,,,,,,99999,99999,99999,99999,99999,99999,99999,99999,99999,99999,99999,99999
43:39:10,1510566750,2017-11-13T09:52:31,0.754,2012.9,10.03,7.55,11.53,832.900,2052.750,109.916664,36.56,2.5232,355,23713,1.90374,3.74,35602,,,,,,,,,,,,,,,,,,99999,99999,99999,99999,99999,99999,99999,99999,99999,99999,99999,99999
43:39:40,1510566780,2017-11-13T09:53:01,0.751,2013.2,10.02,7.56,11.53,832.860,2052.690,109.733330,36.25,2.5232,355,23711,1.89563,3.74,35597,,,,,,,,,,,,,,,,,,99999,99999,99999,99999,99999,99999,99999,99999,99999,99999,99999,99999
43:40:10,1510566810,2017-11-13T09:53:31,0.750,2013.6,10.03,7.56,11.52,832.900,2052.750,108.599998,35.99,2.5232,355,23712,1.89143,3.74,35592,,,,,,,,,,,,,,,,,,99999,99999,99999,99999,99999,99999,99999,99999,99999,99999,99999,99999
43:40:40,1510566840,2017-11-13T09:54:01,0.751,2014.0,10.04,7.60,11.52,832.880,2052.750,109.650002,36.60,2.5231,355,23712,1.89593,3.74,35587,,,,,,,,,,,,,,,,,,99999,99999,99999,99999,99999,99999,99999,99999,99999,99999,99999,99999
43:41:10,1510566870,2017-11-13T09:54:31,0.753,2014.4,10.06,7.58,11.55,832.850,2052.800,109.199997,36.13,2.5230,355,23712,1.90013,3.74,35582,,,,,,,,,,,,,,,,,,99999,99999,99999,99999,99999,99999,99999,99999,99999,99999,99999,99999
43:41:40,1510566900,2017-11-13T09:55:01,0.749,2014.7,10.06,7.57,11.58,832.850,2052.800,108.750000,36.37,2.5230,355,23712,1.88873,3.74,35577,,,,,,,,,,,,,,,,,,99999,99999,99999,99999,99999,99999,99999,99999,99999,99999,99999,99999
43:42:10,1510566930,2017-11-13T09:55:31,0.752,2015.1,10.07,7.61,11.56,832.790,2052.860,108.283333,36.88,2.5230,355,23716,1.89743,3.74,35572,,,,,,,,,,,,,,,,,,99999,99999,99999,99999,99999,99999,99999,99999,99999,99999,99999,99999
43:42:40,1510566960,2017-11-13T09:56:01,0.756,2015.5,10.08,7.60,11.55,832.790,2052.920,110.016670,36.44,2.5230,355,23714,1.90675,3.74,35568,,,,,,,,,,,,,,,,,,99999,99999,99999,99999,99999,99999,99999,99999,99999,99999,99999,99999
43:43:10,1510566990,2017-11-13T09:56:31,0.756,2015.9,10.08,7.62,11.58,832.730,2052.920,110.716667,36.49,2.5230,355,23713,1.90615,3.74,35563,,,,,,,,,,,,,,,,,,99999,99999,99999,99999,99999,99999,99999,99999,99999,99999,99999,99999
43:43:40,1510567020,2017-11-13T09:57:01,0.750,2016.2,10.11,7.62,11.58,832.730,2053.030,108.933334,36.92,2.5228,355,23714,1.89143,3.74,35558,,,,,,,,,,,,,,,,,,99999,99999,99999,99999,99999,99999,99999,99999,99999,99999,99999,99999
43:44:10,1510567050,2017-11-13T09:57:31,0.752,2016.6,10.12,7.63,11.60,832.830,2053.090,107.650002,37.16,2.5228,355,23712,1.89803,3.74,35553,,,,,,,,,,,,,,,,,,99999,99999,99999,99999,99999,99999,99999,99999,99999,99999,99999,99999
43:44:40,1510567080,2017-11-13T09:58:01,0.748,2017.0,10.12,7.64,11.60,832.830,2053.090,106.949997,36.53,2.5228,355,23713,1.88723,3.74,35548,,,,,,,,,,,,,,,,,,99999,99999,99999,99999,99999,99999,99999,99999,99999,99999,99999,99999
43:45:10,1510567110,2017-11-13T09:58:31,0.756,2017.4,10.13,7.66,11.61,832.780,2053.090,109.199997,36.09,2.5227,355,23714,1.90675,3.74,35543,,,,,,,,,,,,,,,,,,99999,99999,99999,99999,99999,99999,99999,99999,99999,99999,99999,99999
43:45:40,1510567140,2017-11-13T09:59:01,0.754,2017.7,10.14,7.67,11.65,832.770,2053.130,108.966667,35.96,2.5227,355,23713,1.90103,3.74,35538,,,,,,,,,,,,,,,,,,99999,99999,99999,99999,99999,99999,99999,99999,99999,99999,99999,99999
43:46:10,1510567170,2017-11-13T09:59:31,0.748,2018.1,10.14,7.69,11.63,832.770,2053.130,107.400002,35.74,2.5227,355,23715,1.88574,3.74,35533,,,,,,,,,,,,,,,,,,99999,99999,99999,99999,99999,99999,99999,99999,99999,99999,99999,99999
43:46:40,1510567200,2017-11-13T10:00:01,0.755,2018.5,10.17,7.68,11.63,832.770,2053.190,110.349998,35.91,2.5225,355,23713,1.90555,3.74,35528,,,,,,,,,,,,,,,,,,99999,99999,99999,99999,99999,99999,99999,99999,99999,99999,99999,99999
43:47:10,1510567230,2017-11-13T10:00:31,0.749,2018.9,10.18,7.68,11.65,832.790,2053.250,108.683334,35.34,2.5225,355,23712,1.88843,3.74,35524,,,,,,,,,,,,,,,,,,99999,99999,99999,99999,99999,99999,99999,99999,99999,99999,99999,99999
43:47:40,1510567260,2017-11-13T10:01:01,0.751,2019.2,10.18,7.70,11.66,832.740,2053.250,108.300003,35.18,2.5225,355,23716,1.89532,3.74,35519,,,,,,,,,,,,,,,,,,99999,99999,99999,99999,99999,99999,99999,99999,99999,99999,99999,99999
43:48:10,1510567290,2017-11-13T10:01:31,0.756,2019.6,10.19,7.74,11.69,832.680,2053.250,109.800003,35.88,2.5224,355,23715,1.90765,3.74,35514,,,,,,,,,,,,,,,,,,99999,99999,99999,99999,99999,99999,99999,99999,99999,99999,99999,99999
43:48:40,1510567320,2017-11-13T10:02:01,0.754,2020.0,10.21,7.74,11.68,832.680,2053.360,108.833336,36.41,2.5223,355,23713,1.90133,3.74,35509,,,,,,,,,,,,,,,,,,99999,99999,99999,99999,99999,99999,99999,99999,99999,99999,99999,99999
43:49:10,1510567350,2017-11-13T10:02:31,0.749,2020.4,10.22,7.73,11.68,832.780,2053.360,107.550003,36.57,2.5222,355,23719,1.88903,3.74,35504,,,,,,,,,,,,,,,,,,99999,99999,99999,99999,99999,99999,99999,99999,99999,99999,99999,99999
43:49:40,1510567380,2017-11-13T10:03:01,0.757,2020.8,10.22,7.75,11.73,832.780,2053.360,109.349998,35.79,2.5223,355,23718,1.90826,3.74,35499,,,,,,,,,,,,,,,,,,99999,99999,99999,99999,99999,99999,99999,99999,99999,99999,99999,99999
43:50:10,1510567410,2017-11-13T10:03:31,0.749,2021.1,10.23,7.76,11.71,832.750,2053.360,107.366669,35.85,2.5222,355,23718,1.88813,3.74,35494,,,,,,,,,,,,,,,,,,99999,99999,99999,99999,99999,99999,99999,99999,99999,99999,99999,99999
43:50:40,1510567440,2017-11-13T10:04:01,0.756,2021.5,10.25,7.74,11.73,832.880,2053.530,110.416664,35.97,2.5222,355,23718,1.90705,3.74,35489,,,,,,,,,,,,,,,,,,99999,99999,99999,99999,99999,99999,99999,99999,99999,99999,99999,99999
43:51:10,1510567470,2017-11-13T10:04:31,0.754,2021.9,10.25,7.80,11.74,832.880,2053.530,109.449997,36.44,2.5222,355,23719,1.90284,3.74,35484,,,,,,,,,,,,,,,,,,99999,99999,99999,99999,99999,99999,99999,99999,99999,99999,99999,99999
43:51:40,1510567500,2017-11-13T10:05:01,0.755,2022.3,10.26,7.81,11.74,832.850,2053.530,109.150002,36.93,2.5221,355,23719,1.90524,3.74,35479,,,,,,,,,,,,,,,,,,99999,99999,99999,99999,99999,99999,99999,99999,99999,99999,99999,99999
43:52:10,1510567530,2017-11-13T10:05:31,0.755,2022.6,10.28,7.80,11.76,832.950,2053.590,110.683334,36.39,2.5220,355,23716,1.90284,3.74,35475,,,,,,,,,,,,,,,,,,99999,99999,99999,99999,99999,99999,99999,99999,99999,99999,99999,99999
43:52:40,1510567560,2017-11-13T10:06:01,0.757,2023.0,10.29,7.79,11.79,832.870,2053.650,109.666664,35.88,2.5220,355,23718,1.90795,3.74,35470,,,,,,,,,,,,,,,,,,99999,99999,99999,99999,99999,99999,99999,99999,99999,99999,99999,99999
43:53:10,1510567590,2017-11-13T10:06:31,0.752,2023.4,10.30,7.81,11.81,832.740,2053.650,108.800003,35.45,2.5219,355,23721,1.89773,3.73,35465,,,,,,,,,,,,,,,,,,99999,99999,99999,99999,99999,99999,99999,99999,99999,99999,99999,99999
43:53:40,1510567620,2017-11-13T10:07:01,0.748,2023.8,10.30,7.82,11.81,832.840,2053.650,109.683334,36.37,2.5219,355,23722,1.88544,3.73,35460,,,,,,,,,,,,,,,,,,99999,99999,99999,99999,99999,99999,99999,99999,99999,99999,99999,99999
43:54:10,1510567650,2017-11-13T10:07:31,0.750,2024.1,10.31,7.82,11.79,832.810,2053.690,111.133331,37.09,2.5218,355,23721,1.89173,3.73,35455,,,,,,,,,,,,,,,,,,99999,99999,99999,99999,99999,99999,99999,99999,99999,99999,99999,99999
43:54:40,1510567680,2017-11-13T10:08:01,0.756,2024.5,10.31,7.83,11.81,832.810,2053.690,109.133331,37.89,2.5217,355,23720,1.90645,3.73,35450,,,,,,,,,,,,,,,,,,99999,99999,99999,99999,99999,99999,99999,99999,99999,99999,99999,99999
43:55:10,1510567710,2017-11-13T10:08:31,0.749,2024.9,10.31,7.84,11.82,832.790,2053.690,108.666664,38.08,2.5217,355,23720,1.88873,3.73,35445,,,,,,,,,,,,,,,,,,99999,99999,99999,99999,99999,99999,99999,99999,99999,99999,99999,99999
43:55:40,1510567740,2017-11-13T10:09:01,0.750,2025.3,10.31,7.83,11.81,832.730,2053.690,109.233330,37.79,2.5218,355,23719,1.89233,3.73,35440,,,,,,,,,,,,,,,,,,99999,99999,99999,99999,99999,99999,99999,99999,99999,99999,99999,99999
43:56:10,1510567770,2017-11-13T10:09:31,0.748,2025.6,10.31,7.82,11.82,832.730,2053.690,108.250000,37.20,2.5218,355,23721,1.88693,3.73,35435,,,,,,,,,,,,,,,,,,99999,99999,99999,99999,99999,99999,99999,99999,99999,99999,99999,99999
43:56:40,1510567800,2017-11-13T10:10:01,0.757,2026.0,10.31,7.83,11.79,832.810,2053.690,108.949997,37.42,2.5218,355,23721,1.90886,3.73,35430,,,,,,,,,,,,,,,,,,99999,99999,99999,99999,99999,99999,99999,99999,99999,99999,99999,99999
43:57:10,1510567830,2017-11-13T10:10:31,0.752,2026.4,10.31,7.82,11.81,832.840,2053.690,107.566666,36.38,2.5218,355,23719,1.89593,3.73,35426,,,,,,,,,,,,,,,,,,99999,99999,99999,99999,99999,99999,99999,99999,99999,99999,99999,99999
43:57:40,1510567860,2017-11-13T10:11:01,0.755,2026.8,10.31,7.79,11.82,832.840,2053.690,107.966667,36.84,2.5218,355,23719,1.90344,3.73,35421,,,,,,,,,,,,,,,,,,99999,99999,99999,99999,99999,99999,99999,99999,99999,99999,99999,99999
43:58:10,1510567890,2017-11-13T10:11:31,0.755,2027.1,10.30,7.82,11.81,832.660,2053.650,110.800003,37.12,2.5218,355,23717,1.90374,3.73,35416,,,,,,,,,,,,,,,,,,99999,99999,99999,99999,99999,99999,99999,99999,99999,99999,99999,99999
43:58:40,1510567920,2017-11-13T10:12:01,0.749,2027.5,10.30,7.82,11.82,832.710,2053.650,108.733330,37.24,2.5218,355,23720,1.88963,3.73,35411,,,,,,,,,,,,,,,,,,99999,99999,99999,99999,99999,99999,99999,99999,99999,99999,99999,99999
43:59:10,1510567950,2017-11-13T10:12:31,0.749,2027.9,10.29,7.81,11.79,832.760,2053.650,108.000000,37.40,2.5219,355,23720,1.88873,3.73,35406,,,,,,,,,,,,,,,,,,99999,99999,99999,99999,99999,99999,99999,99999,99999,99999,99999,99999
43:59:40,1510567980,2017-11-13T10:13:01,0.756,2028.3,10.30,7.84,11.79,832.740,2053.650,109.566666,37.61,2.5218,355,23720,1.90735,3.73,35401,,,,,,,,,,,,,,,,,,99999,99999,99999,99999,99999,99999,99999,99999,99999,99999,99999,99999
44:00:10,1510568010,2017-11-13T10:13:31,0.757,2028.6,10.31,7.81,11.84,832.760,2053.690,109.300003,37.03,2.5218,355,23720,1.90856,3.73,35396,,,,,,,,,,,,,,,,,,99999,99999,99999,99999,99999,99999,99999,99999,99999,99999,99999,99999
44:00:40,1510568040,2017-11-13T10:14:01,0.756,2029.0,10.30,7.84,11.81,832.710,2053.650,109.433334,36.83,2.5218,355,23719,1.90615,3.73,35391,,,,,,,,,,,,,,,,,,99999,99999,99999,99999,99999,99999,99999,99999,99999,99999,99999,99999
44:01:10,1510568070,2017-11-13T10:14:31,0.749,2029.4,10.31,7.83,11.81,832.730,2053.690,107.966667,36.91,2.5218,355,23720,1.88783,3.73,35386,,,,,,,,,,,,,,,,,,99999,99999,99999,99999,99999,99999,99999,99999,99999,99999,99999,99999
44:01:40,1510568100,2017-11-13T10:15:01,0.756,2029.8,10.31,7.83,11.79,832.790,2053.690,110.216667,36.05,2.5219,355,23721,1.90585,3.73,35382,,,,,,,,,,,,,,,,,,99999,99999,99999,99999,99999,99999,99999,99999,99999,99999,99999,99999
44:02:10,1510568130,2017-11-13T10:15:31,0.749,2030.2,10.30,7.83,11.82,832.710,2053.650,110.466667,36.34,2.5219,355,23719,1.88993,3.73,35377,,,,,,,,,,,,,,,,,,99999,99999,99999,99999,99999,99999,99999,99999,99999,99999,99999,99999
44:02:40,1510568160,2017-11-13T10:16:01,0.754,2030.5,10.30,7.84,11.84,832.690,2053.650,109.849998,36.87,2.5218,355,23719,1.90103,3.73,35372,,,,,,,,,,,,,,,,,,99999,99999,99999,99999,99999,99999,99999,99999,99999,99999,99999,99999
44:03:10,1510568190,2017-11-13T10:16:31,0.754,2030.9,10.30,7.85,11.81,832.630,2053.650,110.116669,36.30,2.5219,355,23720,1.90193,3.73,35367,,,,,,,,,,,,,,,,,,99999,99999,99999,99999,99999,99999,99999,99999,99999,99999,99999,99999
44:03:40,1510568220,2017-11-13T10:17:01,0.755,2031.3,10.31,7.86,11.79,832.650,2053.690,109.900002,35.76,2.5219,355,23719,1.90314,3.73,35362,,,,,,,,,,,,,,,,,,99999,99999,99999,99999,99999,99999,99999,99999,99999,99999,99999,99999
44:04:10,1510568250,2017-11-13T10:17:31,0.757,2031.7,10.30,7.84,11.81,832.610,2053.650,109.216667,35.03,2.5220,355,23718,1.90886,3.73,35357,,,,,,,,,,,,,,,,,,99999,99999,99999,99999,99999,99999,99999,99999,99999,99999,99999,99999
44:04:40,1510568280,2017-11-13T10:18:01,0.756,2032.0,10.30,7.85,11.85,832.690,2053.650,110.666664,35.44,2.5219,355,23721,1.90645,3.73,35352,,,,,,,,,,,,,,,,,,99999,99999,99999,99999,99999,99999,99999,99999,99999,99999,99999,99999
44:05:10,1510568310,2017-11-13T10:18:31,0.757,2032.4,10.31,7.85,11.84,832.600,2053.690,110.816666,36.25,2.5218,355,23721,1.90795,3.73,35347,,,,,,,,,,,,,,,,,,99999,99999,99999,99999,99999,99999,99999,99999,99999,99999,99999,99999
44:05:40,1510568340,2017-11-13T10:19:01,0.755,2032.8,10.31,7.85,11.81,832.580,2053.690,110.050003,36.29,2.5218,355,23720,1.90464,3.73,35342,,,,,,,,,,,,,,,,,,99999,99999,99999,99999,99999,99999,99999,99999,99999,99999,99999,99999
44:06:10,1510568370,2017-11-13T10:19:31,0.752,2033.2,10.31,7.86,11.81,832.630,2053.690,108.599998,36.56,2.5218,355,23719,1.89532,3.73,35337,,,,,,,,,,,,,,,,,,99999,99999,99999,99999,99999,99999,99999,99999,99999,99999,99999,99999
44:06:40,1510568400,2017-11-13T10:20:01,0.749,2033.5,10.32,7.86,11.79,832.710,2053.690,107.933334,35.32,2.5218,355,23720,1.88903,3.73,35332,,,,,,,,,,,,,,,,,,99999,99999,99999,99999,99999,99999,99999,99999,99999,99999,99999,99999
44:07:10,1510568430,2017-11-13T10:20:31,0.758,2033.9,10.32,7.86,11.82,832.650,2053.690,108.766670,36.55,2.5217,355,23719,1.91187,3.73,35328,,,,,,,,,,,,,,,,,,99999,99999,99999,99999,99999,99999,99999,99999,99999,99999,99999,99999
44:07:40,1510568460,2017-11-13T10:21:01,0.749,2034.3,10.32,7.86,11.85,832.600,2053.690,109.783333,36.47,2.5217,355,23720,1.88903,3.73,35323,,,,,,,,,,,,,,,,,,99999,99999,99999,99999,99999,99999,99999,99999,99999,99999,99999,99999
44:08:10,1510568490,2017-11-13T10:21:31,0.752,2034.7,10.32,7.87,11.84,832.600,2053.690,108.283333,36.25,2.5217,355,23722,1.89623,3.73,35318,,,,,,,,,,,,,,,,,,99999,99999,99999,99999,99999,99999,99999,99999,99999,99999,99999,99999
44:08:40,1510568520,2017-11-13T10:22:01,0.753,2035.0,10.32,7.88,11.85,832.600,2053.690,109.783333,36.33,2.5217,355,23719,1.89863,3.73,35313,,,,,,,,,,,,,,,,,,99999,99999,99999,99999,99999,99999,99999,99999,99999,99999,99999,99999
44:09:10,1510568550,2017-11-13T10:22:31,0.749,2035.4,10.32,7.87,11.81,832.550,2053.690,107.866669,35.94,2.5218,355,23722,1.88933,3.73,35308,,,,,,,,,,,,,,,,,,99999,99999,99999,99999,99999,99999,99999,99999,99999,99999,99999,99999
44:09:40,1510568580,2017-11-13T10:23:01,0.755,2035.8,10.32,7.85,11.82,832.600,2053.690,109.099998,36.14,2.5218,355,23719,1.90434,3.73,35303,,,,,,,,,,,,,,,,,,99999,99999,99999,99999,99999,99999,99999,99999,99999,99999,99999,99999
44:10:10,1510568610,2017-11-13T10:23:31,0.756,2036.2,10.32,7.90,11.82,832.580,2053.690,109.966667,36.44,2.5217,355,23722,1.90735,3.73,35298,,,,,,,,,,,,,,,,,,99999,99999,99999,99999,99999,99999,99999,99999,99999,99999,99999,99999
44:10:40,1510568640,2017-11-13T10:24:01,0.749,2036.5,10.34,7.87,11.81,832.650,2053.820,108.550003,36.18,2.5217,355,23722,1.88843,3.73,35293,,,,,,,,,,,,,,,,,,99999,99999,99999,99999,99999,99999,99999,99999,99999,99999,99999,99999
44:11:10,1510568670,2017-11-13T10:24:31,0.750,2036.9,10.32,7.86,11.84,832.580,2053.690,108.033333,36.01,2.5218,355,23719,1.89023,3.73,35288,,,,,,,,,,,,,,,,,,99999,99999,99999,99999,99999,99999,99999,99999,99999,99999,99999,99999
44:11:40,1510568700,2017-11-13T10:25:01,0.753,2037.3,10.32,7.89,11.85,832.550,2053.690,108.316666,36.16,2.5218,355,23721,1.89983,3.73,35283,,,,,,,,,,,,,,,,,,99999,99999,99999,99999,99999,99999,99999,99999,99999,99999,99999,99999
44:12:10,1510568730,2017-11-13T10:25:31,0.752,2037.7,10.32,7.89,11.84,832.650,2053.690,108.216667,36.44,2.5217,355,23722,1.89683,3.73,35279,,,,,,,,,,,,,,,,,,99999,99999,99999,99999,99999,99999,99999,99999,99999,99999,99999,99999
44:12:40,1510568760,2017-11-13T10:26:01,0.750,2038.0,10.32,7.89,11.82,832.550,2053.690,107.483330,36.93,2.5217,355,23720,1.89053,3.73,35274,,,,,,,,,,,,,,,,,,99999,99999,99999,99999,99999,99999,99999,99999,99999,99999,99999,99999
44:13:10,1510568790,2017-11-13T10:26:31,0.748,2038.4,10.32,7.88,11.85,832.580,2053.690,108.683334,37.75,2.5217,355,23721,1.88634,3.73,35269,,,,,,,,,,,,,,,,,,99999,99999,99999,99999,99999,99999,99999,99999,99999,99999,99999,99999
44:13:40,1510568820,2017-11-13T10:27:01,0.749,2038.8,10.32,7.87,11.84,832.650,2053.690,107.816666,37.54,2.5217,355,23721,1.88813,3.73,35264,,,,,,,,,,,,,,,,,,99999,99999,99999,99999,99999,99999,99999,99999,99999,99999,99999,99999
44:14:10,1510568850,2017-11-13T10:27:31,0.755,2039.2,10.30,7.86,11.81,832.710,2053.650,109.733330,36.42,2.5219,355,23720,1.90404,3.73,35259,,,,,,,,,,,,,,,,,,99999,99999,99999,99999,99999,99999,99999,99999,99999,99999,99999,99999
44:14:40,1510568880,2017-11-13T10:28:01,0.750,2039.5,10.30,7.85,11.84,832.760,2053.650,108.199997,36.46,2.5219,355,23722,1.89203,3.73,35254,,,,,,,,,,,,,,,,,,99999,99999,99999,99999,99999,99999,99999,99999,99999,99999,99999,99999
44:15:10,1510568910,2017-11-13T10:28:31,0.757,2039.9,10.29,7.85,11.81,832.760,2053.650,109.650002,36.58,2.5220,355,23719,1.90916,3.73,35249,,,,,,,,,,,,,,,,,,99999,99999,99999,99999,99999,99999,99999,99999,99999,99999,99999,99999
44:15:40,1510568940,2017-11-13T10:29:01,0.749,2040.3,10.28,7.86,11.81,832.690,2053.590,108.133331,36.37,2.5220,355,23721,1.88903,3.73,35244,,,,,,,,,,,,,,,,,,99999,99999,99999,99999,99999,99999,99999,99999,99999,99999,99999,99999
44:16:10,1510568970,2017-11-13T10:29:31,0.751,2040.7,10.28,7.81,11.81,832.740,2053.590,109.233330,37.18,2.5219,355,23719,1.89382,3.73,35239,,,,,,,,,,,,,,,,,,99999,99999,99999,99999,99999,99999,99999,99999,99999,99999,99999,99999
44:16:40,1510569000,2017-11-13T10:30:01,0.751,2041.1,10.27,7.85,11.81,832.770,2053.590,109.849998,36.67,2.5221,355,23719,1.89502,3.73,35234,,,,,,,,,,,,,,,,,,99999,99999,99999,99999,99999,99999,99999,99999,99999,99999,99999,99999
44:17:10,1510569030,2017-11-13T10:30:31,0.754,2041.4,10.26,7.81,11.77,832.850,2053.530,109.216667,36.24,2.5221,355,23716,1.90193,3.73,35230,,,,,,,,,,,,,,,,,,99999,99999,99999,99999,99999,99999,99999,99999,99999,99999,99999,99999
44:17:40,1510569060,2017-11-13T10:31:01,0.753,2041.8,10.27,7.83,11.76,832.820,2053.590,109.500000,36.25,2.5221,355,23719,1.89863,3.73,35225,,,,,,,,,,,,,,,,,,99999,99999,99999,99999,99999,99999,99999,99999,99999,99999,99999,99999
44:18:10,1510569090,2017-11-13T10:31:31,0.749,2042.2,10.25,7.82,11.79,832.960,2053.530,109.050003,36.39,2.5222,355,23718,1.88873,3.73,35220,,,,,,,,,,,,,,,,,,99999,99999,99999,99999,99999,99999,99999,99999,99999,99999,99999,99999
44:18:40,1510569120,2017-11-13T10:32:01,0.749,2042.6,10.25,7.83,11.77,833.010,2053.530,107.550003,36.14,2.5222,355,23719,1.88843,3.73,35215,,,,,,,,,,,,,,,,,,99999,99999,99999,99999,99999,99999,99999,99999,99999,99999,99999,99999
44:19:10,1510569150,2017-11-13T10:32:31,0.753,2042.9,10.26,7.83,11.77,832.900,2053.530,108.333336,36.08,2.5221,355,23718,1.89923,3.73,35210,,,,,,,,,,,,,,,,,,99999,99999,99999,99999,99999,99999,99999,99999,99999,99999,99999,99999
44:19:40,1510569180,2017-11-13T10:33:01,0.756,2043.3,10.25,7.82,11.76,832.930,2053.530,111.699997,36.28,2.5222,355,23717,1.90705,3.73,35205,,,,,,,,,,,,,,,,,,99999,99999,99999,99999,99999,99999,99999,99999,99999,99999,99999,99999
44:20:10,1510569210,2017-11-13T10:33:31,0.750,2043.7,10.24,7.82,11.79,832.880,2053.480,108.166664,36.76,2.5222,355,23720,1.89113,3.73,35200,,,,,,,,,,,,,,,,,,99999,99999,99999,99999,99999,99999,99999,99999,99999,99999,99999,99999
44:20:40,1510569240,2017-11-13T10:34:01,0.751,2044.1,10.24,7.82,11.73,832.930,2053.480,108.883331,36.28,2.5222,355,23720,1.89473,3.73,35195,,,,,,,,,,,,,,,,,,99999,99999,99999,99999,99999,99999,99999,99999,99999,99999,99999,99999
44:21:10,1510569270,2017-11-13T10:34:31,0.754,2044.4,10.23,7.81,11.74,832.880,2053.360,108.666664,36.49,2.5221,355,23717,1.90223,3.73,35190,,,,,,,,,,,,,,,,,,99999,99999,99999,99999,99999,99999,99999,99999,99999,99999,99999,99999
44:21:40,1510569300,2017-11-13T10:35:01,0.749,2044.8,10.24,7.83,11.74,832.990,2053.480,108.449997,36.20,2.5222,355,23720,1.88933,3.73,35185,,,,,,,,,,,,,,,,,,99999,99999,99999,99999,99999,99999,99999,99999,99999,99999,99999,99999
44:22:10,1510569330,2017-11-13T10:35:31,0.751,2045.2,10.24,7.81,11.74,832.910,2053.480,109.983330,36.38,2.5222,355,23720,1.89532,3.73,35181,,,,,,,,,,,,,,,,,,99999,99999,99999,99999,99999,99999,99999,99999,99999,99999,99999,99999
44:22:40,1510569360,2017-11-13T10:36:01,0.755,2045.6,10.23,7.81,11.76,832.910,2053.360,110.150002,36.39,2.5221,355,23718,1.90524,3.73,35176,,,,,,,,,,,,,,,,,,99999,99999,99999,99999,99999,99999,99999,99999,99999,99999,99999,99999
44:23:10,1510569390,2017-11-13T10:36:31,0.755,2045.9,10.23,7.81,11.76,832.910,2053.360,109.883331,36.76,2.5221,355,23719,1.90494,3.73,35171,,,,,,,,,,,,,,,,,,99999,99999,99999,99999,99999,99999,99999,99999,99999,99999,99999,99999
44:23:40,1510569420,2017-11-13T10:37:01,0.754,2046.3,10.23,7.80,11.74,832.960,2053.360,110.250000,37.02,2.5221,355,23718,1.90284,3.73,35166,,,,,,,,,,,,,,,,,,99999,99999,99999,99999,99999,99999,99999,99999,99999,99999,99999,99999
44:24:10,1510569450,2017-11-13T10:37:31,0.756,2046.7,10.22,7.81,11.74,832.940,2053.360,109.883331,36.68,2.5222,355,23720,1.90765,3.73,35161,,,,,,,,,,,,,,,,,,99999,99999,99999,99999,99999,99999,99999,99999,99999,99999,99999,99999
44:24:40,1510569480,2017-11-13T10:38:01,0.751,2047.1,10.22,7.83,11.74,832.960,2053.360,108.400002,36.28,2.5222,355,23719,1.89382,3.73,35156,,,,,,,,,,,,,,,,,,99999,99999,99999,99999,99999,99999,99999,99999,99999,99999,99999,99999
44:25:10,1510569510,2017-11-13T10:38:31,0.749,2047.4,10.23,7.81,11.71,832.960,2053.360,107.083336,36.35,2.5222,355,23719,1.88993,3.73,35151,,,,,,,,,,,,,,,,,,99999,99999,99999,99999,99999,99999,99999,99999,99999,99999,99999,99999
44:25:40,1510569540,2017-11-13T10:39:01,0.747,2047.8,10.22,7.81,11.73,832.860,2053.360,107.550003,36.53,2.5222,355,23719,1.88484,3.73,35146,,,,,,,,,,,,,,,,,,99999,99999,99999,99999,99999,99999,99999,99999,99999,99999,99999,99999
44:26:10,1510569570,2017-11-13T10:39:31,0.747,2048.2,10.21,7.79,11.71,832.840,2053.360,109.016670,36.41,2.5223,355,23719,1.88514,3.73,35141,,,,,,,,,,,,,,,,,,99999,99999,99999,99999,99999,99999,99999,99999,99999,99999,99999,99999
44:26:40,1510569600,2017-11-13T10:40:01,0.750,2048.6,10.22,7.81,11.76,832.780,2053.360,108.650002,36.42,2.5222,355,23718,1.89053,3.73,35136,,,,,,,,,,,,,,,,,,99999,99999,99999,99999,99999,99999,99999,99999,99999,99999,99999,99999
44:27:10,1510569630,2017-11-13T10:40:31,0.755,2048.9,10.21,7.80,11.71,832.710,2053.360,110.083336,36.35,2.5223,355,23719,1.90434,3.73,35132,,,,,,,,,,,,,,,,,,99999,99999,99999,99999,99999,99999,99999,99999,99999,99999,99999,99999
44:27:40,1510569660,2017-11-13T10:41:01,0.756,2049.3,10.22,7.80,11.74,832.750,2053.360,110.866669,36.46,2.5222,355,23718,1.90615,3.73,35127,,,,,,,,,,,,,,,,,,99999,99999,99999,99999,99999,99999,99999,99999,99999,99999,99999,99999
44:28:10,1510569690,2017-11-13T10:41:31,0.754,2049.7,10.23,7.80,11.73,832.810,2053.360,109.216667,36.13,2.5222,355,23719,1.90223,3.73,35122,,,,,,,,,,,,,,,,,,99999,99999,99999,99999,99999,99999,99999,99999,99999,99999,99999,99999
44:28:40,1510569720,2017-11-13T10:42:01,0.750,2050.1,10.22,7.79,11.73,832.810,2053.360,108.449997,36.48,2.5222,355,23719,1.89143,3.73,35117,,,,,,,,,,,,,,,,,,99999,99999,99999,99999,99999,99999,99999,99999,99999,99999,99999,99999
44:29:10,1510569750,2017-11-13T10:42:31,0.748,2050.5,10.23,7.80,11.73,832.730,2053.360,107.583336,36.32,2.5222,355,23716,1.88604,3.73,35112,,,,,,,,,,,,,,,,,,99999,99999,99999,99999,99999,99999,99999,99999,99999,99999,99999,99999
44:29:40,1510569780,2017-11-13T10:43:01,0.748,2050.8,10.23,7.83,11.74,832.810,2053.360,109.150002,36.46,2.5221,355,23716,1.88544,3.73,35107,,,,,,,,,,,,,,,,,,99999,99999,99999,99999,99999,99999,99999,99999,99999,99999,99999,99999
44:30:10,1510569810,2017-11-13T10:43:31,0.754,2051.2,10.23,7.85,11.71,832.700,2053.360,110.550003,36.47,2.5221,355,23717,1.90223,3.73,35102,,,,,,,,,,,,,,,,,,99999,99999,99999,99999,99999,99999,99999,99999,99999,99999,99999,99999
44:30:40,1510569840,2017-11-13T10:44:01,0.755,2051.6,10.24,7.83,11.73,832.750,2053.480,111.300003,35.27,2.5223,355,23717,1.90374,3.73,35097,,,,,,,,,,,,,,,,,,99999,99999,99999,99999,99999,99999,99999,99999,99999,99999,99999,99999
44:31:10,1510569870,2017-11-13T10:44:31,0.752,2052.0,10.23,7.81,11.74,832.700,2053.360,108.900002,35.62,2.5222,355,23717,1.89593,3.73,35092,,,,,,,,,,,,,,,,,,99999,99999,99999,99999,99999,99999,99999,99999,99999,99999,99999,99999
44:31:40,1510569900,2017-11-13T10:45:01,0.750,2052.3,10.24,7.82,11.76,832.700,2053.480,109.016670,35.63,2.5223,355,23721,1.89233,3.73,35087,,,,,,,,,,,,,,,,,,99999,99999,99999,99999,99999,99999,99999,99999,99999,99999,99999,99999
44:32:10,1510569930,2017-11-13T10:45:31,0.753,2052.7,10.25,7.81,11.74,832.690,2053.530,109.716667,35.77,2.5222,355,23721,1.90043,3.73,35082,,,,,,,,,,,,,,,,,,99999,99999,99999,99999,99999,99999,99999,99999,99999,99999,99999,99999
44:32:40,1510569960,2017-11-13T10:46:01,0.754,2053.1,10.25,7.85,11.76,832.720,2053.530,109.716667,35.58,2.5222,355,23720,1.90073,3.73,35078,,,,,,,,,,,,,,,,,,99999,99999,99999,99999,99999,99999,99999,99999,99999,99999,99999,99999
44:33:10,1510569990,2017-11-13T10:46:31,0.751,2053.5,10.26,7.83,11.76,832.720,2053.530,108.966667,35.46,2.5221,355,23718,1.89322,3.73,35073,,,,,,,,,,,,,,,,,,99999,99999,99999,99999,99999,99999,99999,99999,99999,99999,99999,99999
44:33:40,1510570020,2017-11-13T10:47:01,0.755,2053.8,10.27,7.86,11.79,832.610,2053.590,110.733330,35.74,2.5221,355,23719,1.90464,3.73,35068,,,,,,,,,,,,,,,,,,99999,99999,99999,99999,99999,99999,99999,99999,99999,99999,99999,99999
44:34:10,1510570050,2017-11-13T10:47:31,0.755,2054.2,10.28,7.86,11.81,832.640,2053.590,110.650002,36.08,2.5220,355,23720,1.90404,3.73,35063,,,,,,,,,,,,,,,,,,99999,99999,99999,99999,99999,99999,99999,99999,99999,99999,99999,99999
44:34:40,1510570080,2017-11-13T10:48:01,0.750,2054.6,10.29,7.86,11.79,832.630,2053.650,109.616669,36.80,2.5219,355,23720,1.89053,3.73,35058,,,,,,,,,,,,,,,,,,99999,99999,99999,99999,99999,99999,99999,99999,99999,99999,99999,99999
44:35:10,1510570110,2017-11-13T10:48:31,0.750,2055.0,10.30,7.86,11.82,832.580,2053.650,110.316666,36.74,2.5219,355,23719,1.89113,3.73,35053,,,,,,,,,,,,,,,,,,99999,99999,99999,99999,99999,99999,99999,99999,99999,99999,99999,99999
44:35:40,1510570140,2017-11-13T10:49:01,0.749,2055.3,10.30,7.89,11.82,832.580,2053.650,107.916664,36.42,2.5219,355,23719,1.88783,3.73,35048,,,,,,,,,,,,,,,,,,99999,99999,99999,99999,99999,99999,99999,99999,99999,99999,99999,99999
44:36:10,1510570170,2017-11-13T10:49:31,0.748,2055.7,10.31,7.89,11.81,832.630,2053.690,109.283333,35.89,2.5219,355,23722,1.88574,3.73,35043,,,,,,,,,,,,,,,,,,99999,99999,99999,99999,99999,99999,99999,99999,99999,99999,99999,99999
44:36:40,1510570200,2017-11-13T10:50:01,0.756,2056.1,10.32,7.89,11.81,832.600,2053.690,109.866669,35.46,2.5218,355,23720,1.90524,3.73,35038,,,,,,,,,,,,,,,,,,99999,99999,99999,99999,99999,99999,99999,99999,99999,99999,99999,99999
44:37:10,1510570230,2017-11-13T10:50:31,0.751,2056.5,10.32,7.90,11.82,832.580,2053.690,108.066666,35.75,2.5218,355,23722,1.89442,3.73,35033,,,,,,,,,,,,,,,,,,99999,99999,99999,99999,99999,99999,99999,99999,99999,99999,99999,99999
44:37:40,1510570260,2017-11-13T10:51:01,0.752,2056.8,10.33,7.93,11.82,832.520,2053.750,110.933334,36.37,2.5217,355,23721,1.89743,3.73,35028,,,,,,,,,,,,,,,,,,99999,99999,99999,99999,99999,99999,99999,99999,99999,99999,99999,99999
44:38:10,1510570290,2017-11-13T10:51:31,0.757,2057.2,10.34,7.89,11.81,832.570,2053.820,109.733330,36.20,2.5217,355,23723,1.90886,3.73,35024,,,,,,,,,,,,,,,,,,99999,99999,99999,99999,99999,99999,99999,99999,99999,99999,99999,99999
44:38:40,1510570320,2017-11-13T10:52:01,0.749,2057.6,10.34,7.89,11.84,832.520,2053.820,107.650002,36.34,2.5217,355,23723,1.88843,3.73,35019,,,,,,,,,,,,,,,,,,99999,99999,99999,99999,99999,99999,99999,99999,99999,99999,99999,99999
44:39:10,1510570350,2017-11-13T10:52:31,0.756,2058.0,10.34,7.93,11.82,832.550,2053.820,110.433334,36.63,2.5217,355,23722,1.90735,3.73,35014,,,,,,,,,,,,,,,,,,99999,99999,99999,99999,99999,99999,99999,99999,99999,99999,99999,99999
44:39:40,1510570380,2017-11-13T10:53:01,0.752,2058.3,10.34,7.94,11.84,832.570,2053.820,109.766670,35.98,2.5217,355,23720,1.89593,3.73,35009,,,,,,,,,,,,,,,,,,99999,99999,99999,99999,99999,99999,99999,99999,99999,99999,99999,99999
44:40:10,1510570410,2017-11-13T10:53:31,0.749,2058.7,10.36,7.92,11.87,832.560,2053.920,109.400002,35.80,2.5217,355,23724,1.88963,3.73,35004,,,,,,,,,,,,,,,,,,99999,99999,99999,99999,99999,99999,99999,99999,99999,99999,99999,99999
44:40:40,1510570440,2017-11-13T10:54:01,0.751,2059.1,10.35,7.93,11.82,832.560,2053.820,109.500000,35.42,2.5217,355,23724,1.89353,3.73,34999,,,,,,,,,,,,,,,,,,99999,99999,99999,99999,99999,99999,99999,99999,99999,99999,99999,99999
44:41:10,1510570470,2017-11-13T10:54:31,0.754,2059.5,10.35,7.92,11.84,832.540,2053.820,110.833336,35.20,2.5217,355,23722,1.90223,3.72,34994,,,,,,,,,,,,,,,,,,99999,99999,99999,99999,99999,99999,99999,99999,99999,99999,99999,99999
44:41:40,1510570500,2017-11-13T10:55:01,0.756,2059.8,10.36,7.93,11.87,832.640,2053.920,110.766670,36.65,2.5216,355,23724,1.90555,3.72,34989,,,,,,,,,,,,,,,,,,99999,99999,99999,99999,99999,99999,99999,99999,99999,99999,99999,99999
44:42:10,1510570530,2017-11-13T10:55:31,0.757,2060.2,10.36,7.92,11.87,832.590,2053.920,109.983330,37.60,2.5216,355,23722,1.90856,3.72,34984,,,,,,,,,,,,,,,,,,99999,99999,99999,99999,99999,99999,99999,99999,99999,99999,99999,99999
44:42:40,1510570560,2017-11-13T10:56:01,0.750,2060.6,10.36,7.92,11.85,832.590,2053.920,108.349998,36.70,2.5216,355,23721,1.89023,3.72,34979,,,,,,,,,,,,,,,,,,99999,99999,99999,99999,99999,99999,99999,99999,99999,99999,99999,99999
44:43:10,1510570590,2017-11-13T10:56:31,0.750,2061.0,10.36,7.91,11.85,832.670,2053.920,109.266670,36.98,2.5216,355,23722,1.89053,3.72,34974,,,,,,,,,,,,,,,,,,99999,99999,99999,99999,99999,99999,99999,99999,99999,99999,99999,99999
44:43:40,1510570620,2017-11-13T10:57:01,0.755,2061.4,10.37,7.93,11.82,832.590,2053.920,109.766670,36.95,2.5215,355,23723,1.90434,3.72,34970,,,,,,,,,,,,,,,,,,99999,99999,99999,99999,99999,99999,99999,99999,99999,99999,99999,99999
44:44:10,1510570650,2017-11-13T10:57:31,0.752,2061.7,10.36,7.93,11.87,832.640,2053.920,109.750000,36.70,2.5216,355,23722,1.89623,3.72,34965,,,,,,,,,,,,,,,,,,99999,99999,99999,99999,99999,99999,99999,99999,99999,99999,99999,99999
44:44:40,1510570680,2017-11-13T10:58:01,0.753,2062.1,10.34,7.91,11.84,832.570,2053.820,109.449997,36.63,2.5217,355,23722,1.89863,3.72,34960,,,,,,,,,,,,,,,,,,99999,99999,99999,99999,99999,99999,99999,99999,99999,99999,99999,99999
44:45:10,1510570710,2017-11-13T10:58:31,0.753,2062.5,10.34,7.90,11.85,832.550,2053.820,110.316666,36.69,2.5217,355,23718,1.89983,3.72,34955,,,,,,,,,,,,,,,,,,99999,99999,99999,99999,99999,99999,99999,99999,99999,99999,99999,99999
44:45:40,1510570740,2017-11-13T10:59:01,0.756,2062.9,10.34,7.86,11.84,832.600,2053.820,109.366669,36.79,2.5217,355,23720,1.90615,3.72,34950,,,,,,,,,,,,,,,,,,99999,99999,99999,99999,99999,99999,99999,99999,99999,99999,99999,99999
44:46:10,1510570770,2017-11-13T10:59:31,0.755,2063.2,10.34,7.92,11.85,832.550,2053.820,111.083336,36.43,2.5217,355,23721,1.90494,3.72,34945,,,,,,,,,,,,,,,,,,99999,99999,99999,99999,99999,99999,99999,99999,99999,99999,99999,99999
44:46:40,1510570800,2017-11-13T11:00:01,0.756,2063.6,10.33,7.89,11.82,832.650,2053.750,111.400002,36.91,2.5217,355,23722,1.90765,3.72,34940,,,,,,,,,,,,,,,,,,99999,99999,99999,99999,99999,99999,99999,99999,99999,99999,99999,99999
44:47:10,1510570830,2017-11-13T11:00:31,0.754,2064.0,10.33,7.87,11.81,832.600,2053.750,110.416664,36.54,2.5217,355,23721,1.90133,3.72,34935,,,,,,,,,,,,,,,,,,99999,99999,99999,99999,99999,99999,99999,99999,99999,99999,99999,99999
44:47:40,1510570860,2017-11-13T11:01:01,0.755,2064.4,10.32,7.89,11.82,832.580,2053.690,110.400002,36.13,2.5218,355,23720,1.90314,3.72,34930,,,,,,,,,,,,,,,,,,99999,99999,99999,99999,99999,99999,99999,99999,99999,99999,99999,99999
44:48:10,1510570890,2017-11-13T11:01:31,0.754,2064.7,10.32,7.87,11.84,832.600,2053.690,110.666664,36.59,2.5217,355,23720,1.90163,3.72,34925,,,,,,,,,,,,,,,,,,99999,99999,99999,99999,99999,99999,99999,99999,99999,99999,99999,99999
44:48:40,1510570920,2017-11-13T11:02:01,0.750,2065.1,10.32,7.88,11.81,832.580,2053.690,109.266670,36.53,2.5217,355,23721,1.89053,3.72,34920,,,,,,,,,,,,,,,,,,99999,99999,99999,99999,99999,99999,99999,99999,99999,99999,99999,99999
44:49:10,1510570950,2017-11-13T11:02:31,0.748,2065.5,10.32,7.90,11.82,832.650,2053.690,108.133331,35.85,2.5218,355,23721,1.88544,3.72,34916,,,,,,,,,,,,,,,,,,99999,99999,99999,99999,99999,99999,99999,99999,99999,99999,99999,99999
44:49:40,1510570980,2017-11-13T11:03:01,0.751,2065.9,10.32,7.85,11.82,832.630,2053.690,108.166664,35.99,2.5218,355,23721,1.89502,3.72,34911,,,,,,,,,,,,,,,,,,99999,99999,99999,99999,99999,99999,99999,99999,99999,99999,99999,99999
44:50:10,1510571010,2017-11-13T11:03:31,0.757,2066.2,10.32,7.85,11.84,832.650,2053.690,109.266670,35.93,2.5218,355,23725,1.91006,3.72,34906,,,,,,,,,,,,,,,,,,99999,99999,99999,99999,99999,99999,99999,99999,99999,99999,99999,99999
44:50:40,1510571040,2017-11-13T11:04:01,0.750,2066.6,10.32,7.87,11.84,832.630,2053.690,108.500000,36.07,2.5218,355,23722,1.89203,3.72,34901,,,,,,,,,,,,,,,,,,99999,99999,99999,99999,99999,99999,99999,99999,99999,99999,99999,99999
44:51:10,1510571070,2017-11-13T11:04:31,0.753,2067.0,10.33,7.87,11.81,832.650,2053.750,108.716667,36.05,2.5217,355,23720,1.89893,3.72,34896,,,,,,,,,,,,,,,,,,99999,99999,99999,99999,99999,99999,99999,99999,99999,99999,99999,99999
44:51:40,1510571100,2017-11-13T11:05:01,0.753,2067.4,10.33,7.90,11.79,832.630,2053.750,110.916664,35.69,2.5218,355,23718,1.89953,3.72,34891,,,,,,,,,,,,,,,,,,99999,99999,99999,99999,99999,99999,99999,99999,99999,99999,99999,99999
44:52:10,1510571130,2017-11-13T11:05:31,0.752,2067.8,10.33,7.89,11.84,832.730,2053.750,109.800003,35.88,2.5218,355,23719,1.89593,3.72,34886,,,,,,,,,,,,,,,,,,99999,99999,99999,99999,99999,99999,99999,99999,99999,99999,99999,99999
44:52:40,1510571160,2017-11-13T11:06:01,0.748,2068.1,10.34,7.87,11.84,832.680,2053.820,108.183334,36.43,2.5217,355,23720,1.88544,3.72,34881,,,,,,,,,,,,,,,,,,99999,99999,99999,99999,99999,99999,99999,99999,99999,99999,99999,99999
44:53:10,1510571190,2017-11-13T11:06:31,0.756,2068.5,10.34,7.85,11.84,832.700,2053.820,110.066666,36.76,2.5217,355,23721,1.90675,3.72,34876,,,,,,,,,,,,,,,,,,99999,99999,99999,99999,99999,99999,99999,99999,99999,99999,99999,99999
44:53:40,1510571220,2017-11-13T11:07:01,0.757,2068.9,10.35,7.89,11.84,832.780,2053.820,110.000000,36.34,2.5216,355,23724,1.90765,3.72,34871,,,,,,,,,,,,,,,,,,99999,99999,99999,99999,99999,99999,99999,99999,99999,99999,99999,99999
44:54:10,1510571250,2017-11-13T11:07:31,0.751,2069.3,10.36,7.90,11.82,832.740,2053.920,108.933334,36.43,2.5217,355,23720,1.89473,3.72,34866,,,,,,,,,,,,,,,,,,99999,99999,99999,99999,99999,99999,99999,99999,99999,99999,99999,99999
44:54:40,1510571280,2017-11-13T11:08:01,0.748,2069.6,10.34,7.90,11.82,832.810,2053.820,109.483330,36.28,2.5217,355,23721,1.88574,3.72,34861,,,,,,,,,,,,,,,,,,99999,99999,99999,99999,99999,99999,99999,99999,99999,99999,99999,99999
44:55:10,1510571310,2017-11-13T11:08:31,0.749,2070.0,10.34,7.91,11.85,832.860,2053.820,108.683334,36.49,2.5217,355,23720,1.88963,3.72,34857,,,,,,,,,,,,,,,,,,99999,99999,99999,99999,99999,99999,99999,99999,99999,99999,99999,99999
44:55:40,1510571340,2017-11-13T11:09:01,0.752,2070.4,10.35,7.90,11.84,833.060,2053.820,109.333336,36.58,2.5216,355,23720,1.89502,3.72,34852,,,,,,,,,,,,,,,,,,99999,99999,99999,99999,99999,99999,99999,99999,99999,99999,99999,99999
44:56:10,1510571370,2017-11-13T11:09:31,0.754,2070.8,10.36,7.91,11.85,833.060,2053.920,107.483330,36.23,2.5217,355,23721,1.90223,3.72,34847,,,,,,,,,,,,,,,,,,99999,99999,99999,99999,99999,99999,99999,99999,99999,99999,99999,99999
44:56:40,1510571400,2017-11-13T11:10:01,0.753,2071.1,10.36,7.87,11.85,833.170,2053.920,110.633331,36.24,2.5217,355,23722,1.89953,3.72,34842,,,,,,,,,,,,,,,,,,99999,99999,99999,99999,99999,99999,99999,99999,99999,99999,99999,99999
44:57:10,1510571430,2017-11-13T11:10:31,0.752,2071.5,10.34,7.87,11.89,833.100,2053.820,107.166664,35.87,2.5218,355,23719,1.89593,3.72,34837,,,,,,,,,,,,,,,,,,99999,99999,99999,99999,99999,99999,99999,99999,99999,99999,99999,99999
44:57:40,1510571460,2017-11-13T11:11:01,0.752,2071.9,10.35,7.86,11.87,833.090,2053.820,108.416664,36.14,2.5216,355,23723,1.89593,3.72,34832,,,,,,,,,,,,,,,,,,99999,99999,99999,99999,99999,99999,99999,99999,99999,99999,99999,99999
44:58:10,1510571490,2017-11-13T11:11:31,0.756,2072.3,10.34,7.85,11.85,833.070,2053.820,111.316666,36.47,2.5217,355,23722,1.90765,3.72,34827,,,,,,,,,,,,,,,,,,99999,99999,99999,99999,99999,99999,99999,99999,99999,99999,99999,99999
44:58:40,1510571520,2017-11-13T11:12:01,0.756,2072.6,10.33,7.86,11.89,832.970,2053.750,110.349998,35.65,2.5218,355,23720,1.90735,3.72,34822,,,,,,,,,,,,,,,,,,99999,99999,99999,99999,99999,99999,99999,99999,99999,99999,99999,99999
44:59:10,1510571550,2017-11-13T11:12:31,0.749,2073.0,10.32,7.84,11.85,832.890,2053.690,107.650002,36.77,2.5217,355,23720,1.88753,3.72,34817,,,,,,,,,,,,,,,,,,99999,99999,99999,99999,99999,99999,99999,99999,99999,99999,99999,99999
44:59:40,1510571580,2017-11-13T11:13:01,0.748,2073.4,10.31,7.85,11.84,832.920,2053.690,108.633331,36.72,2.5218,355,23718,1.88604,3.72,34812,,,,,,,,,,,,,,,,,,99999,99999,99999,99999,99999,99999,99999,99999,99999,99999,99999,99999
45:00:10,1510571610,2017-11-13T11:13:31,0.749,2073.8,10.30,7.84,11.85,832.900,2053.650,108.233330,36.77,2.5219,355,23720,1.88993,3.72,34807,,,,,,,,,,,,,,,,,,99999,99999,99999,99999,99999,99999,99999,99999,99999,99999,99999,99999
45:00:40,1510571640,2017-11-13T11:14:01,0.753,2074.1,10.30,7.83,11.81,832.980,2053.650,108.366669,37.07,2.5218,355,23721,1.89833,3.72,34803,,,,,,,,,,,,,,,,,,99999,99999,99999,99999,99999,99999,99999,99999,99999,99999,99999,99999
45:01:10,1510571670,2017-11-13T11:14:31,0.752,2074.5,10.29,7.81,11.81,833.030,2053.650,108.833336,36.98,2.5219,355,23721,1.89713,3.72,34798,,,,,,,,,,,,,,,,,,99999,99999,99999,99999,99999,99999,99999,99999,99999,99999,99999,99999
45:01:40,1510571700,2017-11-13T11:15:01,0.752,2074.9,10.29,7.82,11.82,833.000,2053.650,108.216667,37.04,2.5219,355,23719,1.89623,3.72,34793,,,,,,,,,,,,,,,,,,99999,99999,99999,99999,99999,99999,99999,99999,99999,99999,99999,99999
45:02:10,1510571730,2017-11-13T11:15:31,0.749,2075.3,10.29,7.83,11.81,833.110,2053.650,108.483330,37.17,2.5219,355,23718,1.88933,3.72,34788,,,,,,,,,,,,,,,,,,99999,99999,99999,99999,99999,99999,99999,99999,99999,99999,99999,99999
45:02:40,1510571760,2017-11-13T11:16:01,0.755,2075.7,10.27,7.81,11.77,833.080,2053.590,110.383331,37.24,2.5220,355,23718,1.90404,3.72,34783,,,,,,,,,,,,,,,,,,99999,99999,99999,99999,99999,99999,99999,99999,99999,99999,99999,99999
45:03:10,1510571790,2017-11-13T11:16:31,0.748,2076.0,10.27,7.83,11.74,833.110,2053.590,108.066666,37.17,2.5220,355,23720,1.88604,3.72,34778,,,,,,,,,,,,,,,,,,99999,99999,99999,99999,99999,99999,99999,99999,99999,99999,99999,99999
45:03:40,1510571820,2017-11-13T11:17:01,0.758,2076.4,10.26,7.80,11.81,833.060,2053.530,109.733330,37.17,2.5220,355,23719,1.91097,3.72,34773,,,,,,,,,,,,,,,,,,99999,99999,99999,99999,99999,99999,99999,99999,99999,99999,99999,99999
45:04:10,1510571850,2017-11-13T11:17:31,0.749,2076.8,10.24,7.80,11.77,833.170,2053.480,106.816666,36.65,2.5222,355,23716,1.88903,3.72,34768,,,,,,,,,,,,,,,,,,99999,99999,99999,99999,99999,99999,99999,99999,99999,99999,99999,99999
45:04:40,1510571880,2017-11-13T11:18:01,0.752,2077.2,10.23,7.79,11.74,833.090,2053.360,109.983330,36.63,2.5221,355,23717,1.89743,3.72,34763,,,,,,,,,,,,,,,,,,99999,99999,99999,99999,99999,99999,99999,99999,99999,99999,99999,99999
45:05:10,1510571910,2017-11-13T11:18:31,0.754,2077.5,10.23,7.77,11.77,833.020,2053.360,110.300003,36.90,2.5221,355,23720,1.90043,3.72,34758,,,,,,,,,,,,,,,,,,99999,99999,99999,99999,99999,99999,99999,99999,99999,99999,99999,99999
45:05:40,1510571940,2017-11-13T11:19:01,0.747,2077.9,10.22,7.78,11.73,833.070,2053.360,108.866669,37.54,2.5222,355,23719,1.88514,3.72,34754,,,,,,,,,,,,,,,,,,99999,99999,99999,99999,99999,99999,99999,99999,99999,99999,99999,99999
45:06:10,1510571970,2017-11-13T11:19:31,0.749,2078.3,10.21,7.76,11.76,832.950,2053.360,108.083336,37.06,2.5223,355,23716,1.89023,3.72,34749,,,,,,,,,,,,,,,,,,99999,99999,99999,99999,99999,99999,99999,99999,99999,99999,99999,99999
45:06:40,1510572000,2017-11-13T11:20:01,0.755,2078.7,10.20,7.72,11.71,832.970,2053.300,110.633331,37.46,2.5223,355,23717,1.90344,3.72,34744,,,,,,,,,,,,,,,,,,99999,99999,99999,99999,99999,99999,99999,99999,99999,99999,99999,99999
45:07:10,1510572030,2017-11-13T11:20:31,0.752,2079.0,10.20,7.73,11.71,832.970,2053.300,107.566666,37.00,2.5223,355,23717,1.89773,3.72,34739,,,,,,,,,,,,,,,,,,99999,99999,99999,99999,99999,99999,99999,99999,99999,99999,99999,99999
45:07:40,1510572060,2017-11-13T11:21:01,0.754,2079.4,10.19,7.72,11.69,832.920,2053.250,110.216667,36.96,2.5223,355,23715,1.90284,3.72,34734,,,,,,,,,,,,,,,,,,99999,99999,99999,99999,99999,99999,99999,99999,99999,99999,99999,99999
45:08:10,1510572090,2017-11-13T11:21:31,0.749,2079.8,10.16,7.71,11.69,832.930,2053.190,107.483330,36.73,2.5226,355,23715,1.88843,3.72,34729,,,,,,,,,,,,,,,,,,99999,99999,99999,99999,99999,99999,99999,99999,99999,99999,99999,99999
45:08:40,1510572120,2017-11-13T11:22:01,0.747,2080.2,10.17,7.71,11.68,832.950,2053.190,107.933334,36.78,2.5225,355,23716,1.88544,3.72,34724,,,,,,,,,,,,,,,,,,99999,99999,99999,99999,99999,99999,99999,99999,99999,99999,99999,99999
45:09:10,1510572150,2017-11-13T11:22:31,0.753,2080.5,10.16,7.70,11.65,833.010,2053.190,111.833336,37.36,2.5225,355,23715,1.90013,3.72,34719,,,,,,,,,,,,,,,,,,99999,99999,99999,99999,99999,99999,99999,99999,99999,99999,99999,99999
45:09:40,1510572180,2017-11-13T11:23:01,0.754,2080.9,10.15,7.71,11.66,832.930,2053.130,109.766670,38.37,2.5225,355,23716,1.90223,3.72,34714,,,,,,,,,,,,,,,,,,99999,99999,99999,99999,99999,99999,99999,99999,99999,99999,99999,99999
45:10:10,1510572210,2017-11-13T11:23:31,0.754,2081.3,10.13,7.67,11.65,832.990,2053.090,109.633331,38.04,2.5226,355,23713,1.90133,3.72,34709,,,,,,,,,,,,,,,,,,99999,99999,99999,99999,99999,99999,99999,99999,99999,99999,99999,99999
45:10:40,1510572240,2017-11-13T11:24:01,0.747,2081.7,10.12,7.65,11.63,832.990,2053.090,108.783333,37.77,2.5227,355,23711,1.88514,3.72,34704,,,,,,,,,,,,,,,,,,99999,99999,99999,99999,99999,99999,99999,99999,99999,99999,99999,99999
45:11:10,1510572270,2017-11-13T11:24:31,0.751,2082.0,10.09,7.63,11.61,832.970,2052.920,108.050003,37.95,2.5228,355,23714,1.89353,3.72,34700,,,,,,,,,,,,,,,,,,99999,99999,99999,99999,99999,99999,99999,99999,99999,99999,99999,99999
45:11:40,1510572300,2017-11-13T11:25:01,0.749,2082.4,10.07,7.60,11.61,833.100,2052.860,109.333336,38.24,2.5229,355,23712,1.88993,3.72,34695,,,,,,,,,,,,,,,,,,99999,99999,99999,99999,99999,99999,99999,99999,99999,99999,99999,99999
45:12:10,1510572330,2017-11-13T11:25:31,0.747,2082.8,10.03,7.57,11.55,833.060,2052.750,107.800003,38.40,2.5231,355,23713,1.88424,3.72,34690,,,,,,,,,,,,,,,,,,99999,99999,99999,99999,99999,99999,99999,99999,99999,99999,99999,99999
45:12:40,1510572360,2017-11-13T11:26:01,0.748,2083.2,10.00,7.54,11.56,833.200,2052.630,107.683334,38.42,2.5232,355,23710,1.88843,3.72,34685,,,,,,,,,,,,,,,,,,99999,99999,99999,99999,99999,99999,99999,99999,99999,99999,99999,99999
45:13:10,1510572390,2017-11-13T11:26:31,0.755,2083.5,9.98,7.51,11.53,833.240,2052.560,110.199997,38.67,2.5233,355,23711,1.90555,3.72,34680,,,,,,,,,,,,,,,,,,99999,99999,99999,99999,99999,99999,99999,99999,99999,99999,99999,99999
45:13:40,1510572420,2017-11-13T11:27:01,0.753,2083.9,9.94,7.45,11.47,833.170,2052.360,109.666664,39.01,2.5234,355,23708,1.90013,3.72,34675,,,,,,,,,,,,,,,,,,99999,99999,99999,99999,99999,99999,99999,99999,99999,99999,99999,99999
45:14:10,1510572450,2017-11-13T11:27:31,0.747,2084.3,9.89,7.40,11.44,833.200,2052.230,108.033333,38.89,2.5237,355,23707,1.88424,3.72,34670,,,,,,,,,,,,,,,,,,99999,99999,99999,99999,99999,99999,99999,99999,99999,99999,99999,99999
45:14:40,1510572480,2017-11-13T11:28:01,0.749,2084.7,9.85,7.37,11.39,833.260,2052.130,107.666664,39.09,2.5239,355,23704,1.89053,3.72,34665,,,,,,,,,,,,,,,,,,99999,99999,99999,99999,99999,99999,99999,99999,99999,99999,99999,99999
45:15:10,1510572510,2017-11-13T11:28:31,0.751,2085.0,9.80,7.32,11.38,833.250,2051.900,108.416664,39.11,2.5241,355,23704,1.89593,3.72,34660,,,,,,,,,,,,,,,,,,99999,99999,99999,99999,99999,99999,99999,99999,99999,99999,99999,99999
45:15:40,1510572540,2017-11-13T11:29:01,0.747,2085.4,9.76,7.30,11.31,833.130,2051.790,106.750000,39.20,2.5243,355,23703,1.88454,3.72,34655,,,,,,,,,,,,,,,,,,99999,99999,99999,99999,99999,99999,99999,99999,99999,99999,99999,99999
45:16:10,1510572570,2017-11-13T11:29:31,0.754,2085.8,9.71,7.23,11.29,833.270,2051.670,108.116669,39.16,2.5246,355,23703,1.90254,3.72,34651,,,,,,,,,,,,,,,,,,99999,99999,99999,99999,99999,99999,99999,99999,99999,99999,99999,99999
45:16:40,1510572600,2017-11-13T11:30:01,0.754,2086.2,9.67,7.20,11.19,833.200,2051.460,109.300003,39.33,2.5247,355,23701,1.90314,3.72,34646,,,,,,,,,,,,,,,,,,99999,99999,99999,99999,99999,99999,99999,99999,99999,99999,99999,99999
45:17:10,1510572630,2017-11-13T11:30:31,0.748,2086.5,9.63,7.17,11.19,833.180,2051.330,108.416664,39.40,2.5249,355,23702,1.88813,3.72,34641,,,,,,,,,,,,,,,,,,99999,99999,99999,99999,99999,99999,99999,99999,99999,99999,99999,99999
45:17:40,1510572660,2017-11-13T11:31:01,0.754,2086.9,9.59,7.15,11.18,833.240,2051.230,107.316666,39.53,2.5251,355,23699,1.90284,3.72,34636,,,,,,,,,,,,,,,,,,99999,99999,99999,99999,99999,99999,99999,99999,99999,99999,99999,99999
45:18:10,1510572690,2017-11-13T11:31:31,0.752,2087.3,9.56,7.13,11.11,833.200,2051.060,109.300003,39.36,2.5252,355,23698,1.89833,3.72,34631,,,,,,,,,,,,,,,,,,99999,99999,99999,99999,99999,99999,99999,99999,99999,99999,99999,99999
45:18:40,1510572720,2017-11-13T11:32:01,0.750,2087.6,9.52,7.10,11.09,833.260,2050.960,109.116669,39.67,2.5254,355,23696,1.89353,3.72,34626,,,,,,,,,,,,,,,,,,99999,99999,99999,99999,99999,99999,99999,99999,99999,99999,99999,99999
45:19:10,1510572750,2017-11-13T11:32:31,0.747,2088.0,9.47,7.06,11.03,833.140,2050.830,107.583336,39.83,2.5257,355,23695,1.88783,3.72,34621,,,,,,,,,,,,,,,,,,99999,99999,99999,99999,99999,99999,99999,99999,99999,99999,99999,99999
45:19:40,1510572780,2017-11-13T11:33:01,0.743,2088.4,9.45,7.05,11.05,833.170,2050.770,108.050003,39.61,2.5258,355,23694,1.87797,3.72,34616,,,,,,,,,,,,,,,,,,99999,99999,99999,99999,99999,99999,99999,99999,99999,99999,99999,99999
45:20:10,1510572810,2017-11-13T11:33:31,0.744,2088.8,9.41,7.02,11.00,833.130,2050.560,107.800003,39.52,2.5260,355,23693,1.87916,3.72,34611,,,,,,,,,,,,,,,,,,99999,99999,99999,99999,99999,99999,99999,99999,99999,99999,99999,99999
45:20:40,1510572840,2017-11-13T11:34:01,0.744,2089.1,9.38,6.99,10.97,833.160,2050.500,106.449997,39.78,2.5261,355,23695,1.87916,3.72,34607,,,,,,,,,,,,,,,,,,99999,99999,99999,99999,99999,99999,99999,99999,99999,99999,99999,99999
45:21:10,1510572870,2017-11-13T11:34:31,0.750,2089.5,9.34,6.95,10.92,833.150,2050.400,108.916664,40.02,2.5264,355,23693,1.89532,3.72,34602,,,,,,,,,,,,,,,,,,99999,99999,99999,99999,99999,99999,99999,99999,99999,99999,99999,99999
45:21:40,1510572900,2017-11-13T11:35:01,0.749,2089.9,9.32,6.92,10.90,833.120,2050.330,108.349998,39.92,2.5265,355,23695,1.89322,3.72,34597,,,,,,,,,,,,,,,,,,99999,99999,99999,99999,99999,99999,99999,99999,99999,99999,99999,99999
45:22:10,1510572930,2017-11-13T11:35:31,0.749,2090.3,9.29,6.93,10.85,833.100,2050.160,108.599998,40.18,2.5265,355,23692,1.89203,3.72,34592,,,,,,,,,,,,,,,,,,99999,99999,99999,99999,99999,99999,99999,99999,99999,99999,99999,99999
45:22:40,1510572960,2017-11-13T11:36:01,0.743,2090.6,9.28,6.90,10.85,833.100,2050.110,107.099998,40.32,2.5265,355,23693,1.87707,3.72,34587,,,,,,,,,,,,,,,,,,99999,99999,99999,99999,99999,99999,99999,99999,99999,99999,99999,99999
45:23:10,1510572990,2017-11-13T11:36:31,0.748,2091.0,9.25,6.87,10.84,833.110,2050.060,108.666664,40.25,2.5268,355,23690,1.89113,3.72,34582,,,,,,,,,,,,,,,,,,99999,99999,99999,99999,99999,99999,99999,99999,99999,99999,99999,99999
45:23:40,1510573020,2017-11-13T11:37:01,0.744,2091.4,9.23,6.86,10.82,833.070,2049.940,107.983330,40.30,2.5268,355,23695,1.87976,3.72,34577,,,,,,,,,,,,,,,,,,99999,99999,99999,99999,99999,99999,99999,99999,99999,99999,99999,99999
45:24:10,1510573050,2017-11-13T11:37:31,0.744,2091.8,9.20,6.83,10.80,832.990,2049.890,106.716667,40.11,2.5270,355,23692,1.88035,3.72,34573,,,,,,,,,,,,,,,,,,99999,99999,99999,99999,99999,99999,99999,99999,99999,99999,99999,99999
45:24:40,1510573080,2017-11-13T11:38:01,0.748,2092.1,9.18,6.83,10.71,832.910,2049.770,109.650002,39.71,2.5271,355,23691,1.89143,3.71,34568,,,,,,,,,,,,,,,,,,99999,99999,99999,99999,99999,99999,99999,99999,99999,99999,99999,99999
45:25:10,1510573110,2017-11-13T11:38:31,0.742,2092.5,9.17,6.81,10.74,833.000,2049.730,106.216667,39.93,2.5271,355,23692,1.87498,3.71,34563,,,,,,,,,,,,,,,,,,99999,99999,99999,99999,99999,99999,99999,99999,99999,99999,99999,99999
45:25:40,1510573140,2017-11-13T11:39:01,0.743,2092.9,9.14,6.80,10.69,833.060,2049.660,105.583336,39.47,2.5273,355,23689,1.87797,3.71,34558,,,,,,,,,,,,,,,,,,99999,99999,99999,99999,99999,99999,99999,99999,99999,99999,99999,99999
45:26:10,1510573170,2017-11-13T11:39:31,0.742,2093.2,9.13,6.78,10.68,833.030,2049.610,106.283333,39.28,2.5273,355,23689,1.87468,3.71,34553,,,,,,,,,,,,,,,,,,99999,99999,99999,99999,99999,99999,99999,99999,99999,99999,99999,99999
45:26:40,1510573200,2017-11-13T11:40:01,0.748,2093.6,9.12,6.77,10.66,833.060,2049.610,107.099998,39.16,2.5274,355,23687,1.88963,3.71,34548,,,,,,,,,,,,,,,,,,99999,99999,99999,99999,99999,99999,99999,99999,99999,99999,99999,99999
45:27:10,1510573230,2017-11-13T11:40:31,0.742,2094.0,9.10,6.75,10.66,833.010,2049.540,106.633331,38.58,2.5276,355,23688,1.87618,3.71,34543,,,,,,,,,,,,,,,,,,99999,99999,99999,99999,99999,99999,99999,99999,99999,99999,99999,99999
45:27:40,1510573260,2017-11-13T11:41:01,0.742,2094.4,9.09,6.73,10.65,833.010,2049.500,106.550003,38.48,2.5276,355,23690,1.87528,3.71,34538,,,,,,,,,,,,,,,,,,99999,99999,99999,99999,99999,99999,99999,99999,99999,99999,99999,99999
45:28:10,1510573290,2017-11-13T11:41:31,0.743,2094.7,9.09,6.72,10.63,833.040,2049.500,104.416664,39.11,2.5276,355,23686,1.87707,3.71,34534,,,,,,,,,,,,,,,,,,99999,99999,99999,99999,99999,99999,99999,99999,99999,99999,99999,99999
45:28:40,1510573320,2017-11-13T11:42:01,0.743,2095.1,9.10,6.74,10.65,833.010,2049.540,106.616669,39.41,2.5275,355,23685,1.87677,3.71,34529,,,,,,,,,,,,,,,,,,99999,99999,99999,99999,99999,99999,99999,99999,99999,99999,99999,99999
45:29:10,1510573350,2017-11-13T11:42:31,0.741,2095.5,9.10,6.73,10.61,832.960,2049.540,107.400002,38.93,2.5275,355,23689,1.87230,3.71,34524,,,,,,,,,,,,,,,,,,99999,99999,99999,99999,99999,99999,99999,99999,99999,99999,99999,99999
45:29:40,1510573380,2017-11-13T11:43:01,0.749,2095.9,9.11,6.73,10.65,832.880,2049.540,108.900002,39.18,2.5274,355,23686,1.89382,3.71,34519,,,,,,,,,,,,,,,,,,99999,99999,99999,99999,99999,99999,99999,99999,99999,99999,99999,99999
45:30:10,1510573410,2017-11-13T11:43:31,0.743,2096.2,9.10,6.73,10.65,832.910,2049.540,106.216667,39.33,2.5275,355,23687,1.87677,3.71,34514,,,,,,,,,,,,,,,,,,99999,99999,99999,99999,99999,99999,99999,99999,99999,99999,99999,99999
45:30:40,1510573440,2017-11-13T11:44:01,0.743,2096.6,9.11,6.74,10.65,832.910,2049.540,106.750000,39.70,2.5274,355,23686,1.87856,3.71,34509,,,,,,,,,,,,,,,,,,99999,99999,99999,99999,99999,99999,99999,99999,99999,99999,99999,99999
45:31:10,1510573470,2017-11-13T11:44:31,0.743,2097.0,9.11,6.73,10.66,832.850,2049.540,106.366669,39.89,2.5274,355,23689,1.87797,3.71,34504,,,,,,,,,,,,,,,,,,99999,99999,99999,99999,99999,99999,99999,99999,99999,99999,99999,99999
45:31:40,1510573500,2017-11-13T11:45:01,0.741,2097.4,9.12,6.73,10.66,832.880,2049.610,107.349998,39.90,2.5274,355,23689,1.87349,3.71,34499,,,,,,,,,,,,,,,,,,99999,99999,99999,99999,99999,99999,99999,99999,99999,99999,99999,99999
45:32:10,1510573530,2017-11-13T11:45:31,0.749,2097.7,9.12,6.75,10.65,832.880,2049.610,108.483330,39.76,2.5274,355,23689,1.89233,3.71,34495,,,,,,,,,,,,,,,,,,99999,99999,99999,99999,99999,99999,99999,99999,99999,99999,99999,99999
45:32:40,1510573560,2017-11-13T11:46:01,0.741,2098.1,9.12,6.73,10.66,832.880,2049.610,106.400002,39.23,2.5274,355,23685,1.87319,3.71,34490,,,,,,,,,,,,,,,,,,99999,99999,99999,99999,99999,99999,99999,99999,99999,99999,99999,99999
45:33:10,1510573590,2017-11-13T11:46:31,0.750,2098.5,9.12,6.73,10.63,832.880,2049.610,108.099998,39.02,2.5274,355,23688,1.89473,3.71,34485,,,,,,,,,,,,,,,,,,99999,99999,99999,99999,99999,99999,99999,99999,99999,99999,99999,99999
45:33:40,1510573620,2017-11-13T11:47:01,0.741,2098.9,9.11,6.73,10.65,832.910,2049.540,106.333336,39.04,2.5275,355,23686,1.87349,3.71,34480,,,,,,,,,,,,,,,,,,99999,99999,99999,99999,99999,99999,99999,99999,99999,99999,99999,99999
45:34:10,1510573650,2017-11-13T11:47:31,0.750,2099.2,9.11,6.73,10.61,832.830,2049.540,108.300003,38.95,2.5275,355,23686,1.89502,3.71,34475,,,,,,,,,,,,,,,,,,99999,99999,99999,99999,99999,99999,99999,99999,99999,99999,99999,99999
45:34:40,1510573680,2017-11-13T11:48:01,0.745,2099.6,9.11,6.70,10.66,832.880,2049.540,108.066666,38.58,2.5275,355,23686,1.88364,3.71,34470,,,,,,,,,,,,,,,,,,99999,99999,99999,99999,99999,99999,99999,99999,99999,99999,99999,99999
45:35:10,1510573710,2017-11-13T11:48:31,0.743,2100.0,9.12,6.72,10.65,832.930,2049.610,105.166664,38.74,2.5275,355,23685,1.87856,3.71,34465,,,,,,,,,,,,,,,,,,99999,99999,99999,99999,99999,99999,99999,99999,99999,99999,99999,99999
45:35:40,1510573740,2017-11-13T11:49:01,0.749,2100.3,9.11,6.70,10.61,832.930,2049.540,107.000000,38.71,2.5275,355,23684,1.89292,3.71,34460,,,,,,,,,,,,,,,,,,99999,99999,99999,99999,99999,99999,99999,99999,99999,99999,99999,99999
45:36:10,1510573770,2017-11-13T11:49:31,0.751,2100.7,9.10,6.71,10.61,832.960,2049.540,107.633331,38.81,2.5276,355,23686,1.89713,3.71,34456,,,,,,,,,,,,,,,,,,99999,99999,99999,99999,99999,99999,99999,99999,99999,99999,99999,99999
45:36:40,1510573800,2017-11-13T11:50:01,0.750,2101.1,9.11,6.70,10.65,833.010,2049.540,107.733330,39.30,2.5274,355,23685,1.89563,3.71,34451,,,,,,,,,,,,,,,,,,99999,99999,99999,99999,99999,99999,99999,99999,99999,99999,99999,99999
45:37:10,1510573830,2017-11-13T11:50:31,0.746,2101.5,9.10,6.71,10.61,832.990,2049.540,108.183334,38.88,2.5276,355,23686,1.88634,3.71,34446,,,,,,,,,,,,,,,,,,99999,99999,99999,99999,99999,99999,99999,99999,99999,99999,99999,99999
45:37:40,1510573860,2017-11-13T11:51:01,0.749,2101.8,9.11,6.69,10.61,833.010,2049.540,108.550003,39.80,2.5274,355,23684,1.89263,3.71,34441,,,,,,,,,,,,,,,,,,99999,99999,99999,99999,99999,99999,99999,99999,99999,99999,99999,99999
45:38:10,1510573890,2017-11-13T11:51:31,0.743,2102.2,9.10,6.67,10.63,833.010,2049.540,107.266670,39.06,2.5275,355,23686,1.87826,3.71,34436,,,,,,,,,,,,,,,,,,99999,99999,99999,99999,99999,99999,99999,99999,99999,99999,99999,99999
45:38:40,1510573920,2017-11-13T11:52:01,0.744,2102.6,9.11,6.69,10.61,832.990,2049.540,106.466667,38.96,2.5275,355,23685,1.88155,3.71,34431,,,,,,,,,,,,,,,,,,99999,99999,99999,99999,99999,99999,99999,99999,99999,99999,99999,99999
45:39:10,1510573950,2017-11-13T11:52:31,0.747,2103.0,9.10,6.65,10.60,833.040,2049.540,108.316666,38.31,2.5276,355,23683,1.88723,3.71,34426,,,,,,,,,,,,,,,,,,99999,99999,99999,99999,99999,99999,99999,99999,99999,99999,99999,99999
45:39:40,1510573980,2017-11-13T11:53:01,0.741,2103.3,9.10,6.66,10.63,833.010,2049.540,106.483330,37.77,2.5276,355,23684,1.87349,3.71,34422,,,,,,,,,,,,,,,,,,99999,99999,99999,99999,99999,99999,99999,99999,99999,99999,99999,99999
45:40:10,1510574010,2017-11-13T11:53:31,0.748,2103.7,9.10,6.64,10.61,832.990,2049.540,108.616669,38.27,2.5276,355,23683,1.88963,3.71,34417,,,,,,,,,,,,,,,,,,99999,99999,99999,99999,99999,99999,99999,99999,99999,99999,99999,99999
45:40:40,1510574040,2017-11-13T11:54:01,0.746,2104.1,9.10,6.65,10.61,832.960,2049.540,107.533333,37.93,2.5276,355,23683,1.88484,3.71,34412,,,,,,,,,,,,,,,,,,99999,99999,99999,99999,99999,99999,99999,99999,99999,99999,99999,99999
45:41:10,1510574070,2017-11-13T11:54:31,0.745,2104.5,9.10,6.66,10.63,832.910,2049.540,107.400002,38.02,2.5276,355,23685,1.88394,3.71,34407,,,,,,,,,,,,,,,,,,99999,99999,99999,99999,99999,99999,99999,99999,99999,99999,99999,99999
45:41:40,1510574100,2017-11-13T11:55:01,0.745,2104.8,9.11,6.64,10.61,832.960,2049.540,107.816666,38.23,2.5275,355,23679,1.88394,3.71,34402,,,,,,,,,,,,,,,,,,99999,99999,99999,99999,99999,99999,99999,99999,99999,99999,99999,99999
45:42:10,1510574130,2017-11-13T11:55:31,0.748,2105.2,9.11,6.63,10.65,832.960,2049.540,109.183334,38.81,2.5275,355,23684,1.88963,3.71,34397,,,,,,,,,,,,,,,,,,99999,99999,99999,99999,99999,99999,99999,99999,99999,99999,99999,99999
45:42:40,1510574160,2017-11-13T11:56:01,0.750,2105.6,9.12,6.66,10.63,833.090,2049.610,107.716667,38.23,2.5275,355,23684,1.89623,3.71,34392,,,,,,,,,,,,,,,,,,99999,99999,99999,99999,99999,99999,99999,99999,99999,99999,99999,99999
45:43:10,1510574190,2017-11-13T11:56:31,0.748,2105.9,9.12,6.66,10.65,833.060,2049.610,108.383331,37.96,2.5275,355,23683,1.89143,3.71,34387,,,,,,,,,,,,,,,,,,99999,99999,99999,99999,99999,99999,99999,99999,99999,99999,99999,99999
45:43:40,1510574220,2017-11-13T11:57:01,0.742,2106.3,9.13,6.64,10.66,833.060,2049.610,106.150002,37.78,2.5274,355,23685,1.87498,3.71,34383,,,,,,,,,,,,,,,,,,99999,99999,99999,99999,99999,99999,99999,99999,99999,99999,99999,99999
45:44:10,1510574250,2017-11-13T11:57:31,0.747,2106.7,9.13,6.65,10.63,833.080,2049.610,106.966667,37.95,2.5274,355,23683,1.88723,3.71,34378,,,,,,,,,,,,,,,,,,99999,99999,99999,99999,99999,99999,99999,99999,99999,99999,99999,99999
45:44:40,1510574280,2017-11-13T11:58:01,0.749,2107.1,9.14,6.67,10.65,833.060,2049.660,107.650002,38.70,2.5273,355,23682,1.89233,3.71,34373,,,,,,,,,,,,,,,,,,99999,99999,99999,99999,99999,99999,99999,99999,99999,99999,99999,99999
45:45:10,1510574310,2017-11-13T11:58:31,0.749,2107.4,9.14,6.67,10.66,833.060,2049.660,107.800003,38.56,2.5274,355,23684,1.89353,3.71,34368,,,,,,,,,,,,,,,,,,99999,99999,99999,99999,99999,99999,99999,99999,99999,99999,99999,99999
45:45:40,1510574340,2017-11-13T11:59:01,0.750,2107.8,9.15,6.68,10.65,833.060,2049.660,107.916664,38.38,2.5273,355,23684,1.89563,3.71,34363,,,,,,,,,,,,,,,,,,99999,99999,99999,99999,99999,99999,99999,99999,99999,99999,99999,99999
45:46:10,1510574370,2017-11-13T11:59:31,0.749,2108.2,9.16,6.68,10.65,833.100,2049.730,107.099998,37.95,2.5273,355,23685,1.89413,3.71,34358,,,,,,,,,,,,,,,,,,99999,99999,99999,99999,99999,99999,99999,99999,99999,99999,99999,99999
45:46:40,1510574400,2017-11-13T12:00:01,0.745,2108.6,9.16,6.69,10.63,833.100,2049.730,107.083336,38.83,2.5272,355,23684,1.88155,3.71,34353,,,,,,,,,,,,,,,,,,99999,99999,99999,99999,99999,99999,99999,99999,99999,99999,99999,99999
45:47:10,1510574430,2017-11-13T12:00:31,0.745,2108.9,9.17,6.68,10.68,833.160,2049.730,106.300003,38.81,2.5272,355,23681,1.88155,3.71,34348,,,,,,,,,,,,,,,,,,99999,99999,99999,99999,99999,99999,99999,99999,99999,99999,99999,99999
45:47:40,1510574460,2017-11-13T12:01:01,0.747,2109.3,9.17,6.67,10.65,833.130,2049.730,108.066666,38.60,2.5272,355,23684,1.88663,3.71,34344,,,,,,,,,,,,,,,,,,99999,99999,99999,99999,99999,99999,99999,99999,99999,99999,99999,99999
45:48:10,1510574490,2017-11-13T12:01:31,0.746,2109.7,9.16,6.68,10.66,833.080,2049.730,107.283333,38.60,2.5273,355,23685,1.88454,3.71,34339,,,,,,,,,,,,,,,,,,99999,99999,99999,99999,99999,99999,99999,99999,99999,99999,99999,99999
45:48:40,1510574520,2017-11-13T12:02:01,0.743,2110.1,9.16,6.68,10.66,833.100,2049.730,106.416664,38.52,2.5273,355,23683,1.87677,3.71,34334,,,,,,,,,,,,,,,,,,99999,99999,99999,99999,99999,99999,99999,99999,99999,99999,99999,99999
45:49:10,1510574550,2017-11-13T12:02:31,0.743,2110.4,9.17,6.68,10.68,833.100,2049.730,107.083336,38.56,2.5272,355,23686,1.87886,3.71,34329,,,,,,,,,,,,,,,,,,99999,99999,99999,99999,99999,99999,99999,99999,99999,99999,99999,99999
45:49:40,1510574580,2017-11-13T12:03:01,0.750,2110.8,9.17,6.68,10.66,833.100,2049.730,108.116669,38.17,2.5272,355,23685,1.89563,3.71,34324,,,,,,,,,,,,,,,,,,99999,99999,99999,99999,99999,99999,99999,99999,99999,99999,99999,99999
45:50:10,1510574610,2017-11-13T12:03:31,0.745,2111.2,9.17,6.68,10.65,833.160,2049.730,106.683334,38.25,2.5272,355,23685,1.88304,3.71,34319,,,,,,,,,,,,,,,,,,99999,99999,99999,99999,99999,99999,99999,99999,99999,99999,99999,99999
45:50:40,1510574640,2017-11-13T12:04:01,0.747,2111.6,9.16,6.64,10.66,833.210,2049.730,106.150002,37.95,2.5273,355,23687,1.88813,3.71,34314,,,,,,,,,,,,,,,,,,99999,99999,99999,99999,99999,99999,99999,99999,99999,99999,99999,99999
45:51:10,1510574670,2017-11-13T12:04:31,0.744,2111.9,9.17,6.67,10.68,833.180,2049.730,108.599998,37.87,2.5272,355,23684,1.88125,3.71,34309,,,,,,,,,,,,,,,,,,99999,99999,99999,99999,99999,99999,99999,99999,99999,99999,99999,99999
45:51:40,1510574700,2017-11-13T12:05:01,0.742,2112.3,9.17,6.67,10.69,833.160,2049.730,106.883331,38.12,2.5272,355,23688,1.87468,3.71,34305,,,,,,,,,,,,,,,,,,99999,99999,99999,99999,99999,99999,99999,99999,99999,99999,99999,99999
45:52:10,1510574730,2017-11-13T12:05:31,0.748,2112.7,9.18,6.63,10.66,833.200,2049.770,108.116669,38.75,2.5271,355,23685,1.89083,3.71,34300,,,,,,,,,,,,,,,,,,99999,99999,99999,99999,99999,99999,99999,99999,99999,99999,99999,99999
45:52:40,1510574760,2017-11-13T12:06:01,0.744,2113.0,9.18,6.65,10.66,833.200,2049.770,107.766670,39.01,2.5271,355,23685,1.88095,3.71,34295,,,,,,,,,,,,,,,,,,99999,99999,99999,99999,99999,99999,99999,99999,99999,99999,99999,99999
45:53:10,1510574790,2017-11-13T12:06:31,0.748,2113.4,9.18,6.65,10.71,833.180,2049.770,106.733330,39.10,2.5271,355,23685,1.88993,3.71,34290,,,,,,,,,,,,,,,,,,99999,99999,99999,99999,99999,99999,99999,99999,99999,99999,99999,99999
45:53:40,1510574820,2017-11-13T12:07:01,0.743,2113.8,9.18,6.64,10.65,833.230,2049.770,107.083336,38.77,2.5271,355,23682,1.87826,3.71,34285,,,,,,,,,,,,,,,,,,99999,99999,99999,99999,99999,99999,99999,99999,99999,99999,99999,99999
45:54:10,1510574850,2017-11-13T12:07:31,0.746,2114.2,9.17,6.62,10.66,833.160,2049.730,107.849998,38.78,2.5272,355,23683,1.88604,3.71,34280,,,,,,,,,,,,,,,,,,99999,99999,99999,99999,99999,99999,99999,99999,99999,99999,99999,99999
45:54:40,1510574880,2017-11-13T12:08:01,0.749,2114.5,9.16,6.63,10.65,833.210,2049.730,108.883331,38.36,2.5273,355,23682,1.89322,3.71,34275,,,,,,,,,,,,,,,,,,99999,99999,99999,99999,99999,99999,99999,99999,99999,99999,99999,99999
45:55:10,1510574910,2017-11-13T12:08:31,0.741,2114.9,9.14,6.61,10.66,833.190,2049.660,106.433334,38.54,2.5274,355,23680,1.87379,3.71,34270,,,,,,,,,,,,,,,,,,99999,99999,99999,99999,99999,99999,99999,99999,99999,99999,99999,99999
45:55:40,1510574940,2017-11-13T12:09:01,0.745,2115.3,9.13,6.60,10.65,833.240,2049.610,105.849998,38.68,2.5274,355,23680,1.88275,3.71,34265,,,,,,,,,,,,,,,,,,99999,99999,99999,99999,99999,99999,99999,99999,99999,99999,99999,99999
45:56:10,1510574970,2017-11-13T12:09:31,0.743,2115.7,9.12,6.60,10.61,833.190,2049.610,106.849998,38.54,2.5275,355,23684,1.87856,3.71,34261,,,,,,,,,,,,,,,,,,99999,99999,99999,99999,99999,99999,99999,99999,99999,99999,99999,99999
45:56:40,1510575000,2017-11-13T12:10:01,0.742,2116.0,9.11,6.59,10.61,833.250,2049.540,106.050003,38.42,2.5275,355,23681,1.87558,3.71,34256,,,,,,,,,,,,,,,,,,99999,99999,99999,99999,99999,99999,99999,99999,99999,99999,99999,99999
45:57:10,1510575030,2017-11-13T12:10:31,0.749,2116.4,9.09,6.58,10.59,833.140,2049.500,107.866669,39.22,2.5276,355,23682,1.89413,3.71,34251,,,,,,,,,,,,,,,,,,99999,99999,99999,99999,99999,99999,99999,99999,99999,99999,99999,99999
45:57:40,1510575060,2017-11-13T12:11:01,0.745,2116.8,9.09,6.58,10.60,833.170,2049.500,106.699997,38.44,2.5276,355,23681,1.88185,3.71,34246,,,,,,,,,,,,,,,,,,99999,99999,99999,99999,99999,99999,99999,99999,99999,99999,99999,99999
45:58:10,1510575090,2017-11-13T12:11:31,0.742,2117.2,9.09,6.55,10.56,833.250,2049.500,105.349998,38.13,2.5276,355,23679,1.87588,3.71,34241,,,,,,,,,,,,,,,,,,99999,99999,99999,99999,99999,99999,99999,99999,99999,99999,99999,99999
45:58:40,1510575120,2017-11-13T12:12:01,0.743,2117.5,9.08,6.54,10.60,833.100,2049.500,105.566666,38.00,2.5277,355,23678,1.87856,3.71,34236,,,,,,,,,,,,,,,,,,99999,99999,99999,99999,99999,99999,99999,99999,99999,99999,99999,99999
45:59:10,1510575150,2017-11-13T12:12:31,0.750,2117.9,9.07,6.55,10.55,833.150,2049.440,108.050003,37.77,2.5278,355,23680,1.89593,3.71,34231,,,,,,,,,,,,,,,,,,99999,99999,99999,99999,99999,99999,99999,99999,99999,99999,99999,99999
45:59:40,1510575180,2017-11-13T12:13:01,0.745,2118.3,9.06,6.55,10.53,833.100,2049.330,106.083336,38.15,2.5277,355,23679,1.88394,3.71,34226,,,,,,,,,,,,,,,,,,99999,99999,99999,99999,99999,99999,99999,99999,99999,99999,99999,99999
46:00:10,1510575210,2017-11-13T12:13:31,0.741,2118.6,9.06,6.55,10.55,833.050,2049.330,107.366669,38.29,2.5277,355,23679,1.87379,3.71,34222,,,,,,,,,,,,,,,,,,99999,99999,99999,99999,99999,99999,99999,99999,99999,99999,99999,99999
46:00:40,1510575240,2017-11-13T12:14:01,0.749,2119.0,9.05,6.51,10.59,833.100,2049.330,108.500000,38.73,2.5278,355,23683,1.89292,3.71,34217,,,,,,,,,,,,,,,,,,99999,99999,99999,99999,99999,99999,99999,99999,99999,99999,99999,99999
46:01:10,1510575270,2017-11-13T12:14:31,0.749,2119.4,9.04,6.52,10.55,833.050,2049.270,108.683334,38.72,2.5278,355,23682,1.89263,3.71,34212,,,,,,,,,,,,,,,,,,99999,99999,99999,99999,99999,99999,99999,99999,99999,99999,99999,99999
46:01:40,1510575300,2017-11-13T12:15:01,0.750,2119.8,9.04,6.54,10.52,833.050,2049.270,108.016670,38.48,2.5278,355,23680,1.89502,3.71,34207,,,,,,,,,,,,,,,,,,99999,99999,99999,99999,99999,99999,99999,99999,99999,99999,99999,99999
46:02:10,1510575330,2017-11-13T12:15:31,0.741,2120.1,9.04,6.52,10.51,833.130,2049.270,106.666664,38.29,2.5278,355,23682,1.87409,3.71,34202,,,,,,,,,,,,,,,,,,99999,99999,99999,99999,99999,99999,99999,99999,99999,99999,99999,99999
46:02:40,1510575360,2017-11-13T12:16:01,0.743,2120.5,9.02,6.50,10.53,833.140,2049.210,106.000000,38.29,2.5279,355,23682,1.87767,3.71,34197,,,,,,,,,,,,,,,,,,99999,99999,99999,99999,99999,99999,99999,99999,99999,99999,99999,99999
46:03:10,1510575390,2017-11-13T12:16:31,0.743,2120.9,9.03,6.51,10.53,833.030,2049.270,105.550003,38.29,2.5279,355,23681,1.87707,3.71,34192,,,,,,,,,,,,,,,,,,99999,99999,99999,99999,99999,99999,99999,99999,99999,99999,99999,99999
46:03:40,1510575420,2017-11-13T12:17:01,0.743,2121.3,9.02,6.50,10.55,833.140,2049.210,106.849998,38.24,2.5279,355,23678,1.87886,3.70,34187,,,,,,,,,,,,,,,,,,99999,99999,99999,99999,99999,99999,99999,99999,99999,99999,99999,99999
46:04:10,1510575450,2017-11-13T12:17:31,0.749,2121.6,9.03,6.52,10.52,833.080,2049.270,108.083336,38.28,2.5279,355,23679,1.89413,3.70,34183,,,,,,,,,,,,,,,,,,99999,99999,99999,99999,99999,99999,99999,99999,99999,99999,99999,99999
46:04:40,1510575480,2017-11-13T12:18:01,0.744,2122.0,9.02,6.50,10.53,833.140,2049.210,106.449997,38.59,2.5279,355,23681,1.88125,3.70,34178,,,,,,,,,,,,,,,,,,99999,99999,99999,99999,99999,99999,99999,99999,99999,99999,99999,99999
46:05:10,1510575510,2017-11-13T12:18:31,0.743,2122.4,9.02,6.51,10.52,833.140,2049.210,106.783333,38.78,2.5279,355,23679,1.87886,3.70,34173,,,,,,,,,,,,,,,,,,99999,99999,99999,99999,99999,99999,99999,99999,99999,99999,99999,99999
46:05:40,1510575540,2017-11-13T12:19:01,0.746,2122.8,9.03,6.51,10.53,833.160,2049.270,107.816666,38.38,2.5279,355,23680,1.88574,3.70,34168,,,,,,,,,,,,,,,,,,99999,99999,99999,99999,99999,99999,99999,99999,99999,99999,99999,99999
46:06:10,1510575570,2017-11-13T12:19:31,0.747,2123.1,9.02,6.49,10.52,833.110,2049.210,107.550003,38.48,2.5279,355,23678,1.88873,3.70,34163,,,,,,,,,,,,,,,,,,99999,99999,99999,99999,99999,99999,99999,99999,99999,99999,99999,99999
46:06:40,1510575600,2017-11-13T12:20:01,0.747,2123.5,9.02,6.51,10.51,833.080,2049.210,107.500000,38.76,2.5279,355,23680,1.88903,3.70,34158,,,,,,,,,,,,,,,,,,99999,99999,99999,99999,99999,99999,99999,99999,99999,99999,99999,99999
46:07:10,1510575630,2017-11-13T12:20:31,0.741,2123.9,9.02,6.49,10.53,833.060,2049.210,106.166664,38.69,2.5279,355,23677,1.87409,3.70,34153,,,,,,,,,,,,,,,,,,99999,99999,99999,99999,99999,99999,99999,99999,99999,99999,99999,99999
46:07:40,1510575660,2017-11-13T12:21:01,0.748,2124.3,9.02,6.48,10.52,833.030,2049.210,108.316666,38.56,2.5279,355,23679,1.89203,3.70,34148,,,,,,,,,,,,,,,,,,99999,99999,99999,99999,99999,99999,99999,99999,99999,99999,99999,99999
46:08:10,1510575690,2017-11-13T12:21:31,0.742,2124.6,9.00,6.50,10.52,833.010,2049.160,106.166664,38.62,2.5280,355,23677,1.87558,3.70,34144,,,,,,,,,,,,,,,,,,99999,99999,99999,99999,99999,99999,99999,99999,99999,99999,99999,99999
46:08:40,1510575720,2017-11-13T12:22:01,0.750,2125.0,9.00,6.51,10.48,833.040,2049.160,108.483330,38.37,2.5280,355,23679,1.89563,3.70,34139,,,,,,,,,,,,,,,,,,99999,99999,99999,99999,99999,99999,99999,99999,99999,99999,99999,99999
46:09:10,1510575750,2017-11-13T12:22:31,0.745,2125.4,9.01,6.49,10.51,832.980,2049.210,106.566666,38.99,2.5280,355,23678,1.88215,3.70,34134,,,,,,,,,,,,,,,,,,99999,99999,99999,99999,99999,99999,99999,99999,99999,99999,99999,99999
46:09:40,1510575780,2017-11-13T12:23:01,0.740,2125.7,9.00,6.47,10.48,833.010,2049.160,106.199997,38.56,2.5280,355,23680,1.86962,3.70,34129,,,,,,,,,,,,,,,,,,99999,99999,99999,99999,99999,99999,99999,99999,99999,99999,99999,99999
46:10:10,1510575810,2017-11-13T12:23:31,0.749,2126.1,9.00,6.46,10.48,832.960,2049.160,107.416664,38.59,2.5280,355,23679,1.89322,3.70,34124,,,,,,,,,,,,,,,,,,99999,99999,99999,99999,99999,99999,99999,99999,99999,99999,99999,99999
46:10:40,1510575840,2017-11-13T12:24:01,0.742,2126.5,8.99,6.45,10.48,833.040,2049.160,104.949997,37.95,2.5281,355,23679,1.87498,3.70,34119,,,,,,,,,,,,,,,,,,99999,99999,99999,99999,99999,99999,99999,99999,99999,99999,99999,99999
46:11:10,1510575870,2017-11-13T12:24:31,0.743,2126.9,8.98,6.44,10.51,832.940,2049.100,104.800003,38.07,2.5281,355,23680,1.87916,3.70,34114,,,,,,,,,,,,,,,,,,99999,99999,99999,99999,99999,99999,99999,99999,99999,99999,99999,99999
46:11:40,1510575900,2017-11-13T12:25:01,0.749,2127.2,8.99,6.46,10.45,833.040,2049.160,107.833336,38.38,2.5281,355,23679,1.89382,3.70,34109,,,,,,,,,,,,,,,,,,99999,99999,99999,99999,99999,99999,99999,99999,99999,99999,99999,99999
46:12:10,1510575930,2017-11-13T12:25:31,0.741,2127.6,8.98,6.46,10.44,832.960,2049.100,106.833336,38.66,2.5281,355,23678,1.87379,3.70,34105,,,,,,,,,,,,,,,,,,99999,99999,99999,99999,99999,99999,99999,99999,99999,99999,99999,99999
46:12:40,1510575960,2017-11-13T12:26:01,0.748,2128.0,8.99,6.45,10.48,833.010,2049.160,107.383331,38.99,2.5281,355,23679,1.89023,3.70,34100,,,,,,,,,,,,,,,,,,99999,99999,99999,99999,99999,99999,99999,99999,99999,99999,99999,99999
46:13:10,1510575990,2017-11-13T12:26:31,0.740,2128.4,8.97,6.44,10.45,833.040,2049.100,106.666664,38.90,2.5282,355,23679,1.87200,3.70,34095,,,,,,,,,,,,,,,,,,99999,99999,99999,99999,99999,99999,99999,99999,99999,99999,99999,99999
46:13:40,1510576020,2017-11-13T12:27:01,0.748,2128.7,8.98,6.43,10.48,833.100,2049.100,107.266670,38.91,2.5281,355,23678,1.89143,3.70,34090,,,,,,,,,,,,,,,,,,99999,99999,99999,99999,99999,99999,99999,99999,99999,99999,99999,99999
46:14:10,1510576050,2017-11-13T12:27:31,0.747,2129.1,8.97,6.45,10.45,833.070,2049.100,108.216667,38.94,2.5282,355,23678,1.88963,3.70,34085,,,,,,,,,,,,,,,,,,99999,99999,99999,99999,99999,99999,99999,99999,99999,99999,99999,99999
46:14:40,1510576080,2017-11-13T12:28:01,0.745,2129.5,8.97,6.43,10.52,833.120,2049.100,106.166664,39.09,2.5282,355,23678,1.88334,3.70,34080,,,,,,,,,,,,,,,,,,99999,99999,99999,99999,99999,99999,99999,99999,99999,99999,99999,99999
46:15:10,1510576110,2017-11-13T12:28:31,0.744,2129.9,8.97,6.42,10.47,833.070,2049.100,107.083336,38.89,2.5282,355,23678,1.88155,3.70,34075,,,,,,,,,,,,,,,,,,99999,99999,99999,99999,99999,99999,99999,99999,99999,99999,99999,99999
46:15:40,1510576140,2017-11-13T12:29:01,0.748,2130.2,8.97,6.42,10.48,833.100,2049.100,107.716667,38.82,2.5282,355,23681,1.89083,3.70,34070,,,,,,,,,,,,,,,,,,99999,99999,99999,99999,99999,99999,99999,99999,99999,99999,99999,99999
46:16:10,1510576170,2017-11-13T12:29:31,0.740,2130.6,8.96,6.40,10.45,833.170,2049.040,106.400002,38.82,2.5282,355,23680,1.87200,3.70,34066,,,,,,,,,,,,,,,,,,99999,99999,99999,99999,99999,99999,99999,99999,99999,99999,99999,99999
46:16:40,1510576200,2017-11-13T12:30:01,0.749,2131.0,8.95,6.43,10.44,833.070,2049.040,108.500000,38.64,2.5283,355,23679,1.89413,3.70,34061,,,,,,,,,,,,,,,,,,99999,99999,99999,99999,99999,99999,99999,99999,99999,99999,99999,99999
46:17:10,1510576230,2017-11-13T12:30:31,0.739,2131.3,8.95,6.38,10.45,833.130,2049.040,106.433334,38.48,2.5283,355,23677,1.86962,3.70,34056,,,,,,,,,,,,,,,,,,99999,99999,99999,99999,99999,99999,99999,99999,99999,99999,99999,99999
46:17:40,1510576260,2017-11-13T12:31:01,0.740,2131.7,8.94,6.41,10.45,833.060,2048.870,106.633331,38.85,2.5282,355,23677,1.87200,3.70,34051,,,,,,,,,,,,,,,,,,99999,99999,99999,99999,99999,99999,99999,99999,99999,99999,99999,99999
46:18:10,1510576290,2017-11-13T12:31:31,0.740,2132.1,8.95,6.38,10.44,833.100,2049.040,107.800003,39.36,2.5283,355,23678,1.87051,3.70,34046,,,,,,,,,,,,,,,,,,99999,99999,99999,99999,99999,99999,99999,99999,99999,99999,99999,99999
46:18:40,1510576320,2017-11-13T12:32:01,0.744,2132.5,8.94,6.37,10.42,833.160,2048.870,106.666664,39.09,2.5282,355,23675,1.88125,3.70,34041,,,,,,,,,,,,,,,,,,99999,99999,99999,99999,99999,99999,99999,99999,99999,99999,99999,99999
46:19:10,1510576350,2017-11-13T12:32:31,0.747,2132.8,8.93,6.39,10.42,833.130,2048.870,108.566666,38.89,2.5283,355,23676,1.88933,3.70,34036,,,,,,,,,,,,,,,,,,99999,99999,99999,99999,99999,99999,99999,99999,99999,99999,99999,99999
46:19:40,1510576380,2017-11-13T12:33:01,0.749,2133.2,8.90,6.36,10.42,833.170,2048.770,108.599998,38.88,2.5284,355,23677,1.89292,3.70,34031,,,,,,,,,,,,,,,,,,99999,99999,99999,99999,99999,99999,99999,99999,99999,99999,99999,99999
46:20:10,1510576410,2017-11-13T12:33:31,0.741,2133.6,8.89,6.32,10.42,833.170,2048.770,105.266670,38.59,2.5285,355,23674,1.87349,3.70,34026,,,,,,,,,,,,,,,,,,99999,99999,99999,99999,99999,99999,99999,99999,99999,99999,99999,99999
46:20:40,1510576440,2017-11-13T12:34:01,0.750,2134.0,8.87,6.33,10.36,833.250,2048.710,106.833336,38.42,2.5286,355,23673,1.89623,3.70,34022,,,,,,,,,,,,,,,,,,99999,99999,99999,99999,99999,99999,99999,99999,99999,99999,99999,99999
46:21:10,1510576470,2017-11-13T12:34:31,0.744,2134.3,8.85,6.30,10.38,833.310,2048.660,106.199997,38.59,2.5288,355,23672,1.88035,3.70,34017,,,,,,,,,,,,,,,,,,99999,99999,99999,99999,99999,99999,99999,99999,99999,99999,99999,99999
46:21:40,1510576500,2017-11-13T12:35:01,0.748,2134.7,8.84,6.27,10.34,833.260,2048.660,105.183334,39.14,2.5288,355,23675,1.89113,3.70,34012,,,,,,,,,,,,,,,,,,99999,99999,99999,99999,99999,99999,99999,99999,99999,99999,99999,99999
46:22:10,1510576530,2017-11-13T12:35:31,0.741,2135.1,8.80,6.25,10.32,833.220,2048.440,105.283333,39.38,2.5289,355,23672,1.87379,3.70,34007,,,,,,,,,,,,,,,,,,99999,99999,99999,99999,99999,99999,99999,99999,99999,99999,99999,99999
46:22:40,1510576560,2017-11-13T12:36:01,0.746,2135.5,8.79,6.24,10.30,833.240,2048.440,106.800003,39.51,2.5290,355,23672,1.88544,3.70,34002,,,,,,,,,,,,,,,,,,99999,99999,99999,99999,99999,99999,99999,99999,99999,99999,99999,99999
46:23:10,1510576590,2017-11-13T12:36:31,0.743,2135.8,8.76,6.21,10.30,833.120,2048.330,107.133331,39.52,2.5291,355,23672,1.87856,3.70,33997,,,,,,,,,,,,,,,,,,99999,99999,99999,99999,99999,99999,99999,99999,99999,99999,99999,99999
46:23:40,1510576620,2017-11-13T12:37:01,0.746,2136.2,8.74,6.19,10.24,833.200,2048.270,107.516670,39.38,2.5292,355,23671,1.88574,3.70,33992,,,,,,,,,,,,,,,,,,99999,99999,99999,99999,99999,99999,99999,99999,99999,99999,99999,99999
46:24:10,1510576650,2017-11-13T12:37:31,0.742,2136.6,8.72,6.20,10.23,833.130,2048.210,106.033333,39.13,2.5294,355,23669,1.87618,3.70,33987,,,,,,,,,,,,,,,,,,99999,99999,99999,99999,99999,99999,99999,99999,99999,99999,99999,99999
46:24:40,1510576680,2017-11-13T12:38:01,0.740,2136.9,8.71,6.16,10.21,833.160,2048.210,106.500000,39.36,2.5294,355,23671,1.87170,3.70,33983,,,,,,,,,,,,,,,,,,99999,99999,99999,99999,99999,99999,99999,99999,99999,99999,99999,99999
46:25:10,1510576710,2017-11-13T12:38:31,0.744,2137.3,8.69,6.16,10.18,833.190,2048.100,107.466667,39.63,2.5295,355,23669,1.88185,3.70,33978,,,,,,,,,,,,,,,,,,99999,99999,99999,99999,99999,99999,99999,99999,99999,99999,99999,99999
46:25:40,1510576740,2017-11-13T12:39:01,0.739,2137.7,8.67,6.15,10.16,833.190,2047.980,105.150002,39.87,2.5295,355,23671,1.86843,3.70,33973,,,,,,,,,,,,,,,,,,99999,99999,99999,99999,99999,99999,99999,99999,99999,99999,99999,99999
46:26:10,1510576770,2017-11-13T12:39:31,0.745,2138.1,8.66,6.14,10.16,833.150,2047.980,107.849998,39.58,2.5296,355,23669,1.88484,3.70,33968,,,,,,,,,,,,,,,,,,99999,99999,99999,99999,99999,99999,99999,99999,99999,99999,99999,99999
46:26:40,1510576800,2017-11-13T12:40:01,0.746,2138.4,8.64,6.11,10.16,833.100,2047.940,107.099998,39.41,2.5297,355,23668,1.88813,3.70,33963,,,,,,,,,,,,,,,,,,99999,99999,99999,99999,99999,99999,99999,99999,99999,99999,99999,99999
46:27:10,1510576830,2017-11-13T12:40:31,0.744,2138.8,8.63,6.13,10.15,833.170,2047.870,106.333336,39.22,2.5298,355,23668,1.88155,3.70,33958,,,,,,,,,,,,,,,,,,99999,99999,99999,99999,99999,99999,99999,99999,99999,99999,99999,99999
46:27:40,1510576860,2017-11-13T12:41:01,0.744,2139.2,8.61,6.09,10.10,833.160,2047.810,107.550003,39.21,2.5299,355,23668,1.88334,3.70,33953,,,,,,,,,,,,,,,,,,99999,99999,99999,99999,99999,99999,99999,99999,99999,99999,99999,99999
46:28:10,1510576890,2017-11-13T12:41:31,0.745,2139.5,8.60,6.09,10.11,833.160,2047.810,107.500000,39.88,2.5299,355,23669,1.88454,3.70,33949,,,,,,,,,,,,,,,,,,99999,99999,99999,99999,99999,99999,99999,99999,99999,99999,99999,99999
46:28:40,1510576920,2017-11-13T12:42:01,0.744,2139.9,8.58,6.08,10.06,833.110,2047.770,106.366669,39.90,2.5300,355,23669,1.88275,3.70,33944,,,,,,,,,,,,,,,,,,99999,99999,99999,99999,99999,99999,99999,99999,99999,99999,99999,99999
46:29:10,1510576950,2017-11-13T12:42:31,0.745,2140.3,8.58,6.07,10.09,833.210,2047.770,107.916664,39.79,2.5301,355,23667,1.88574,3.70,33939,,,,,,,,,,,,,,,,,,99999,99999,99999,99999,99999,99999,99999,99999,99999,99999,99999,99999
46:29:40,1510576980,2017-11-13T12:43:01,0.740,2140.7,8.57,6.06,10.06,833.190,2047.710,105.133331,39.99,2.5301,355,23668,1.87200,3.70,33934,,,,,,,,,,,,,,,,,,99999,99999,99999,99999,99999,99999,99999,99999,99999,99999,99999,99999
46:30:10,1510577010,2017-11-13T12:43:31,0.746,2141.0,8.55,6.03,10.05,833.090,2047.640,107.466667,39.97,2.5302,355,23666,1.88753,3.70,33929,,,,,,,,,,,,,,,,,,99999,99999,99999,99999,99999,99999,99999,99999,99999,99999,99999,99999
46:30:40,1510577040,2017-11-13T12:44:01,0.746,2141.4,8.54,6.01,10.05,833.140,2047.540,107.183334,39.99,2.5301,355,23668,1.88723,3.70,33924,,,,,,,,,,,,,,,,,,99999,99999,99999,99999,99999,99999,99999,99999,99999,99999,99999,99999
46:31:10,1510577070,2017-11-13T12:44:31,0.739,2141.8,8.53,6.03,10.05,833.100,2047.540,105.933334,40.07,2.5302,355,23668,1.86992,3.70,33919,,,,,,,,,,,,,,,,,,99999,99999,99999,99999,99999,99999,99999,99999,99999,99999,99999,99999
46:31:40,1510577100,2017-11-13T12:45:01,0.737,2142.1,8.50,6.03,10.02,833.050,2047.440,105.933334,40.13,2.5304,355,23664,1.86545,3.70,33915,,,,,,,,,,,,,,,,,,99999,99999,99999,99999,99999,99999,99999,99999,99999,99999,99999,99999
46:32:10,1510577130,2017-11-13T12:45:31,0.746,2142.5,8.49,5.97,10.03,832.950,2047.440,106.866669,40.05,2.5305,355,23666,1.88753,3.70,33910,,,,,,,,,,,,,,,,,,99999,99999,99999,99999,99999,99999,99999,99999,99999,99999,99999,99999
46:32:40,1510577160,2017-11-13T12:46:01,0.746,2142.9,8.48,5.96,10.01,832.950,2047.370,107.483330,39.72,2.5305,355,23667,1.88843,3.70,33905,,,,,,,,,,,,,,,,,,99999,99999,99999,99999,99999,99999,99999,99999,99999,99999,99999,99999
46:33:10,1510577190,2017-11-13T12:46:31,0.738,2143.3,8.45,5.94,9.97,832.930,2047.310,105.233330,39.66,2.5307,355,23663,1.86783,3.70,33900,,,,,,,,,,,,,,,,,,99999,99999,99999,99999,99999,99999,99999,99999,99999,99999,99999,99999
46:33:40,1510577220,2017-11-13T12:47:01,0.742,2143.6,8.43,5.90,9.95,832.960,2047.210,105.166664,39.80,2.5307,355,23661,1.87677,3.70,33895,,,,,,,,,,,,,,,,,,99999,99999,99999,99999,99999,99999,99999,99999,99999,99999,99999,99999
46:34:10,1510577250,2017-11-13T12:47:31,0.743,2144.0,8.41,5.91,9.94,833.090,2047.100,106.449997,39.92,2.5308,355,23661,1.88095,3.70,33890,,,,,,,,,,,,,,,,,,99999,99999,99999,99999,99999,99999,99999,99999,99999,99999,99999,99999
46:34:40,1510577280,2017-11-13T12:48:01,0.737,2144.4,8.38,5.87,9.90,833.030,2047.040,105.216667,39.56,2.5310,355,23663,1.86456,3.70,33885,,,,,,,,,,,,,,,,,,99999,99999,99999,99999,99999,99999,99999,99999,99999,99999,99999,99999
46:35:10,1510577310,2017-11-13T12:48:31,0.745,2144.7,8.38,5.86,9.89,833.000,2047.040,106.966667,40.00,2.5310,355,23660,1.88544,3.70,33881,,,,,,,,,,,,,,,,,,99999,99999,99999,99999,99999,99999,99999,99999,99999,99999,99999,99999
46:35:40,1510577340,2017-11-13T12:49:01,0.737,2145.1,8.36,5.85,9.89,832.980,2046.940,106.933334,39.92,2.5310,355,23660,1.86426,3.70,33876,,,,,,,,,,,,,,,,,,99999,99999,99999,99999,99999,99999,99999,99999,99999,99999,99999,99999
46:36:10,1510577370,2017-11-13T12:49:31,0.735,2145.5,8.34,5.83,9.86,833.030,2046.940,105.500000,39.98,2.5312,355,23656,1.86158,3.70,33871,,,,,,,,,,,,,,,,,,99999,99999,99999,99999,99999,99999,99999,99999,99999,99999,99999,99999
46:36:40,1510577400,2017-11-13T12:50:01,0.737,2145.9,8.32,5.83,9.84,833.010,2046.810,105.300003,39.72,2.5312,355,23659,1.86545,3.70,33866,,,,,,,,,,,,,,,,,,99999,99999,99999,99999,99999,99999,99999,99999,99999,99999,99999,99999
46:37:10,1510577430,2017-11-13T12:50:31,0.737,2146.2,8.31,5.80,9.81,833.040,2046.810,106.050003,39.68,2.5313,355,23657,1.86545,3.70,33861,,,,,,,,,,,,,,,,,,99999,99999,99999,99999,99999,99999,99999,99999,99999,99999,99999,99999
46:37:40,1510577460,2017-11-13T12:51:01,0.742,2146.6,8.29,5.77,9.81,833.040,2046.770,106.366669,39.63,2.5315,355,23658,1.87737,3.70,33856,,,,,,,,,,,,,,,,,,99999,99999,99999,99999,99999,99999,99999,99999,99999,99999,99999,99999
46:38:10,1510577490,2017-11-13T12:51:31,0.739,2147.0,8.28,5.75,9.77,833.020,2046.640,105.016670,39.80,2.5314,355,23659,1.86992,3.70,33851,,,,,,,,,,,,,,,,,,99999,99999,99999,99999,99999,99999,99999,99999,99999,99999,99999,99999
46:38:40,1510577520,2017-11-13T12:52:01,0.735,2147.3,8.26,5.76,9.74,833.100,2046.600,105.733330,39.65,2.5315,355,23659,1.86070,3.70,33847,,,,,,,,,,,,,,,,,,99999,99999,99999,99999,99999,99999,99999,99999,99999,99999,99999,99999
46:39:10,1510577550,2017-11-13T12:52:31,0.741,2147.7,8.24,5.75,9.74,833.080,2046.540,105.233330,39.82,2.5316,355,23659,1.87618,3.70,33842,,,,,,,,,,,,,,,,,,99999,99999,99999,99999,99999,99999,99999,99999,99999,99999,99999,99999
46:39:40,1510577580,2017-11-13T12:53:01,0.745,2148.1,8.24,5.73,9.74,833.080,2046.540,105.766670,39.72,2.5316,355,23657,1.88574,3.70,33837,,,,,,,,,,,,,,,,,,99999,99999,99999,99999,99999,99999,99999,99999,99999,99999,99999,99999
46:40:10,1510577610,2017-11-13T12:53:31,0.741,2148.4,8.23,5.73,9.73,833.010,2046.470,104.666664,39.62,2.5316,355,23658,1.87528,3.70,33832,,,,,,,,,,,,,,,,,,99999,99999,99999,99999,99999,99999,99999,99999,99999,99999,99999,99999
46:40:40,1510577640,2017-11-13T12:54:01,0.738,2148.8,8.22,5.73,9.72,833.010,2046.470,104.599998,39.88,2.5317,355,23657,1.86783,3.70,33827,,,,,,,,,,,,,,,,,,99999,99999,99999,99999,99999,99999,99999,99999,99999,99999,99999,99999
46:41:10,1510577670,2017-11-13T12:54:31,0.741,2149.2,8.21,5.72,9.73,833.010,2046.470,105.216667,39.84,2.5318,355,23655,1.87647,3.70,33822,,,,,,,,,,,,,,,,,,99999,99999,99999,99999,99999,99999,99999,99999,99999,99999,99999,99999
46:41:40,1510577700,2017-11-13T12:55:01,0.740,2149.6,8.19,5.71,9.69,833.040,2046.370,106.050003,40.24,2.5319,355,23658,1.87409,3.70,33817,,,,,,,,,,,,,,,,,,99999,99999,99999,99999,99999,99999,99999,99999,99999,99999,99999,99999
46:42:10,1510577730,2017-11-13T12:55:31,0.743,2149.9,8.19,5.70,9.68,833.070,2046.370,106.633331,39.94,2.5319,355,23654,1.88185,3.70,33813,,,,,,,,,,,,,,,,,,99999,99999,99999,99999,99999,99999,99999,99999,99999,99999,99999,99999
46:42:40,1510577760,2017-11-13T12:56:01,0.740,2150.3,8.19,5.69,9.73,833.150,2046.370,105.833336,39.52,2.5319,355,23654,1.87379,3.70,33808,,,,,,,,,,,,,,,,,,99999,99999,99999,99999,99999,99999,99999,99999,99999,99999,99999,99999
46:43:10,1510577790,2017-11-13T12:56:31,0.740,2150.7,8.18,5.67,9.72,833.150,2046.370,105.833336,39.79,2.5320,355,23656,1.87379,3.70,33803,,,,,,,,,,,,,,,,,,99999,99999,99999,99999,99999,99999,99999,99999,99999,99999,99999,99999
46:43:40,1510577820,2017-11-13T12:57:01,0.738,2151.0,8.18,5.69,9.68,833.200,2046.370,106.016670,40.04,2.5320,355,23657,1.86932,3.70,33798,,,,,,,,,,,,,,,,,,99999,99999,99999,99999,99999,99999,99999,99999,99999,99999,99999,99999
46:44:10,1510577850,2017-11-13T12:57:31,0.743,2151.4,8.17,5.66,9.66,833.150,2046.310,108.099998,40.14,2.5320,355,23653,1.88035,3.70,33793,,,,,,,,,,,,,,,,,,99999,99999,99999,99999,99999,99999,99999,99999,99999,99999,99999,99999
46:44:40,1510577880,2017-11-13T12:58:01,0.738,2151.8,8.16,5.65,9.72,833.180,2046.310,106.250000,39.89,2.5321,355,23653,1.86992,3.69,33788,,,,,,,,,,,,,,,,,,99999,99999,99999,99999,99999,99999,99999,99999,99999,99999,99999,99999
46:45:10,1510577910,2017-11-13T12:58:31,0.739,2152.1,8.16,5.66,9.63,833.130,2046.310,105.349998,40.11,2.5321,355,23652,1.87170,3.69,33783,,,,,,,,,,,,,,,,,,99999,99999,99999,99999,99999,99999,99999,99999,99999,99999,99999,99999
46:45:40,1510577940,2017-11-13T12:59:01,0.740,2152.5,8.14,5.64,9.72,833.160,2046.200,105.699997,40.56,2.5321,355,23652,1.87319,3.69,33779,,,,,,,,,,,,,,,,,,99999,99999,99999,99999,99999,99999,99999,99999,99999,99999,99999,99999
46:46:10,1510577970,2017-11-13T12:59:31,0.737,2152.9,8.14,5.64,9.63,833.160,2046.200,105.466667,40.17,2.5321,355,23653,1.86664,3.69,33774,,,,,,,,,,,,,,,,,,99999,99999,99999,99999,99999,99999,99999,99999,99999,99999,99999,99999
46:46:40,1510578000,2017-11-13T13:00:01,0.735,2153.3,8.14,5.65,9.65,833.230,2046.200,105.116669,40.37,2.5321,355,23652,1.86129,3.69,33769,,,,,,,,,,,,,,,,,,99999,99999,99999,99999,99999,99999,99999,99999,99999,99999,99999,99999
46:47:10,1510578030,2017-11-13T13:00:31,0.736,2153.6,8.12,5.62,9.61,833.340,2046.140,105.800003,40.31,2.5322,355,23652,1.86396,3.69,33764,,,,,,,,,,,,,,,,,,99999,99999,99999,99999,99999,99999,99999,99999,99999,99999,99999,99999
46:47:40,1510578060,2017-11-13T13:01:01,0.737,2154.0,8.11,5.63,9.60,833.330,2046.100,106.699997,40.29,2.5323,355,23651,1.86723,3.69,33759,,,,,,,,,,,,,,,,,,99999,99999,99999,99999,99999,99999,99999,99999,99999,99999,99999,99999
46:48:10,1510578090,2017-11-13T13:01:31,0.739,2154.3,8.11,5.60,9.63,833.330,2046.100,105.650002,40.33,2.5323,355,23648,1.87021,3.69,33754,,,,,,,,,,,,,,,,,,99999,99999,99999,99999,99999,99999,99999,99999,99999,99999,99999,99999
46:48:40,1510578120,2017-11-13T13:02:01,0.740,2154.7,8.11,5.58,9.60,833.300,2046.100,107.616669,40.72,2.5322,355,23650,1.87409,3.69,33749,,,,,,,,,,,,,,,,,,99999,99999,99999,99999,99999,99999,99999,99999,99999,99999,99999,99999
46:49:10,1510578150,2017-11-13T13:02:31,0.743,2155.1,8.08,5.57,9.63,833.300,2046.040,107.783333,40.57,2.5324,355,23646,1.88065,3.69,33745,,,,,,,,,,,,,,,,,,99999,99999,99999,99999,99999,99999,99999,99999,99999,99999,99999,99999
46:49:40,1510578180,2017-11-13T13:03:01,0.738,2155.5,8.07,5.57,9.60,833.230,2045.970,107.000000,40.51,2.5324,355,23651,1.86992,3.69,33740,,,,,,,,,,,,,,,,,,99999,99999,99999,99999,99999,99999,99999,99999,99999,99999,99999,99999
46:50:10,1510578210,2017-11-13T13:03:31,0.739,2155.8,8.06,5.54,9.57,833.330,2045.930,104.500000,40.59,2.5325,355,23649,1.87081,3.69,33735,,,,,,,,,,,,,,,,,,99999,99999,99999,99999,99999,99999,99999,99999,99999,99999,99999,99999
46:50:40,1510578240,2017-11-13T13:04:01,0.735,2156.2,8.05,5.54,9.59,833.280,2045.910,105.449997,40.69,2.5325,355,23647,1.86248,3.69,33730,,,,,,,,,,,,,,,,,,99999,99999,99999,99999,99999,99999,99999,99999,99999,99999,99999,99999
46:51:10,1510578270,2017-11-13T13:04:31,0.739,2156.6,8.03,5.50,9.57,833.310,2045.870,104.966667,40.58,2.5327,355,23649,1.87260,3.69,33725,,,,,,,,,,,,,,,,,,99999,99999,99999,99999,99999,99999,99999,99999,99999,99999,99999,99999
46:51:40,1510578300,2017-11-13T13:05:01,0.737,2156.9,8.02,5.53,9.55,833.290,2045.770,104.033333,40.51,2.5327,355,23650,1.86545,3.69,33720,,,,,,,,,,,,,,,,,,99999,99999,99999,99999,99999,99999,99999,99999,99999,99999,99999,99999
46:52:10,1510578330,2017-11-13T13:05:31,0.736,2157.3,8.02,5.52,9.53,833.240,2045.770,104.733330,40.55,2.5327,355,23648,1.86515,3.69,33715,,,,,,,,,,,,,,,,,,99999,99999,99999,99999,99999,99999,99999,99999,99999,99999,99999,99999
46:52:40,1510578360,2017-11-13T13:06:01,0.743,2157.7,8.00,5.50,9.53,833.190,2045.700,106.583336,40.47,2.5328,355,23650,1.88125,3.69,33711,,,,,,,,,,,,,,,,,,99999,99999,99999,99999,99999,99999,99999,99999,99999,99999,99999,99999
46:53:10,1510578390,2017-11-13T13:06:31,0.736,2158.0,7.99,5.50,9.52,833.220,2045.700,103.916664,40.74,2.5328,355,23646,1.86337,3.69,33706,,,,,,,,,,,,,,,,,,99999,99999,99999,99999,99999,99999,99999,99999,99999,99999,99999,99999
46:53:40,1510578420,2017-11-13T13:07:01,0.739,2158.4,7.99,5.50,9.52,833.240,2045.700,106.916664,40.60,2.5328,355,23645,1.87230,3.69,33701,,,,,,,,,,,,,,,,,,99999,99999,99999,99999,99999,99999,99999,99999,99999,99999,99999,99999
46:54:10,1510578450,2017-11-13T13:07:31,0.743,2158.8,7.99,5.49,9.51,833.220,2045.700,105.949997,40.61,2.5328,355,23645,1.88275,3.69,33696,,,,,,,,,,,,,,,,,,99999,99999,99999,99999,99999,99999,99999,99999,99999,99999,99999,99999
46:54:40,1510578480,2017-11-13T13:08:01,0.740,2159.2,7.98,5.47,9.51,833.350,2045.640,105.433334,40.33,2.5329,355,23647,1.87319,3.69,33691,,,,,,,,,,,,,,,,,,99999,99999,99999,99999,99999,99999,99999,99999,99999,99999,99999,99999
46:55:10,1510578510,2017-11-13T13:08:31,0.743,2159.5,7.98,5.48,9.48,833.370,2045.640,106.033333,40.32,2.5329,355,23645,1.88304,3.69,33686,,,,,,,,,,,,,,,,,,99999,99999,99999,99999,99999,99999,99999,99999,99999,99999,99999,99999
46:55:40,1510578540,2017-11-13T13:09:01,0.742,2159.9,7.96,5.46,9.48,833.330,2045.580,107.133331,40.73,2.5330,355,23646,1.87856,3.69,33681,,,,,,,,,,,,,,,,,,99999,99999,99999,99999,99999,99999,99999,99999,99999,99999,99999,99999
46:56:10,1510578570,2017-11-13T13:09:31,0.741,2160.3,7.96,5.45,9.48,833.330,2045.580,106.750000,40.77,2.5330,355,23645,1.87588,3.69,33677,,,,,,,,,,,,,,,,,,99999,99999,99999,99999,99999,99999,99999,99999,99999,99999,99999,99999
46:56:40,1510578600,2017-11-13T13:10:01,0.742,2160.6,7.96,5.46,9.47,833.330,2045.580,105.866669,40.81,2.5330,355,23646,1.87916,3.69,33672,,,,,,,,,,,,,,,,,,99999,99999,99999,99999,99999,99999,99999,99999,99999,99999,99999,99999
46:57:10,1510578630,2017-11-13T13:10:31,0.737,2161.0,7.96,5.45,9.47,833.360,2045.580,106.116669,40.84,2.5330,355,23646,1.86783,3.69,33667,,,,,,,,,,,,,,,,,,99999,99999,99999,99999,99999,99999,99999,99999,99999,99999,99999,99999
46:57:40,1510578660,2017-11-13T13:11:01,0.736,2161.4,7.95,5.43,9.43,833.360,2045.540,104.633331,41.10,2.5330,355,23648,1.86515,3.69,33662,,,,,,,,,,,,,,,,,,99999,99999,99999,99999,99999,99999,99999,99999,99999,99999,99999,99999
46:58:10,1510578690,2017-11-13T13:11:31,0.743,2161.7,7.95,5.42,9.45,833.330,2045.540,106.333336,40.75,2.5330,355,23647,1.88095,3.69,33657,,,,,,,,,,,,,,,,,,99999,99999,99999,99999,99999,99999,99999,99999,99999,99999,99999,99999
46:58:40,1510578720,2017-11-13T13:12:01,0.734,2162.1,7.93,5.44,9.45,833.390,2045.470,105.150002,40.88,2.5331,355,23649,1.86040,3.69,33652,,,,,,,,,,,,,,,,,,99999,99999,99999,99999,99999,99999,99999,99999,99999,99999,99999,99999
46:59:10,1510578750,2017-11-13T13:12:31,0.742,2162.5,7.93,5.42,9.45,833.360,2045.470,106.416664,40.52,2.5331,355,23647,1.87946,3.69,33647,,,,,,,,,,,,,,,,,,99999,99999,99999,99999,99999,99999,99999,99999,99999,99999,99999,99999
46:59:40,1510578780,2017-11-13T13:13:01,0.734,2162.9,7.92,5.41,9.40,833.290,2045.470,104.783333,40.63,2.5332,355,23646,1.85951,3.69,33643,,,,,,,,,,,,,,,,,,99999,99999,99999,99999,99999,99999,99999,99999,99999,99999,99999,99999
47:00:10,1510578810,2017-11-13T13:13:31,0.740,2163.2,7.92,5.40,9.45,833.450,2045.470,106.633331,41.11,2.5332,355,23645,1.87558,3.69,33638,,,,,,,,,,,,,,,,,,99999,99999,99999,99999,99999,99999,99999,99999,99999,99999,99999,99999
47:00:40,1510578840,2017-11-13T13:14:01,0.742,2163.6,7.91,5.41,9.39,833.370,2045.410,106.800003,41.12,2.5332,355,23646,1.87976,3.69,33633,,,,,,,,,,,,,,,,,,99999,99999,99999,99999,99999,99999,99999,99999,99999,99999,99999,99999
47:01:10,1510578870,2017-11-13T13:14:31,0.743,2164.0,7.91,5.39,9.40,833.370,2045.410,106.483330,41.07,2.5332,355,23648,1.88095,3.69,33628,,,,,,,,,,,,,,,,,,99999,99999,99999,99999,99999,99999,99999,99999,99999,99999,99999,99999
47:01:40,1510578900,2017-11-13T13:15:01,0.742,2164.3,7.90,5.37,9.39,833.470,2045.410,106.566666,40.74,2.5333,355,23643,1.88035,3.69,33623,,,,,,,,,,,,,,,,,,99999,99999,99999,99999,99999,99999,99999,99999,99999,99999,99999,99999
47:02:10,1510578930,2017-11-13T13:15:31,0.739,2164.7,7.88,5.38,9.40,833.450,2045.310,106.349998,40.71,2.5334,355,23641,1.87200,3.69,33618,,,,,,,,,,,,,,,,,,99999,99999,99999,99999,99999,99999,99999,99999,99999,99999,99999,99999
47:02:40,1510578960,2017-11-13T13:16:01,0.735,2165.1,7.87,5.35,9.39,833.510,2045.240,104.283333,40.82,2.5334,355,23643,1.86129,3.69,33613,,,,,,,,,,,,,,,,,,99999,99999,99999,99999,99999,99999,99999,99999,99999,99999,99999,99999
47:03:10,1510578990,2017-11-13T13:16:31,0.742,2165.4,7.86,5.35,9.38,833.510,2045.240,105.716667,40.89,2.5334,355,23642,1.88006,3.69,33609,,,,,,,,,,,,,,,,,,99999,99999,99999,99999,99999,99999,99999,99999,99999,99999,99999,99999
47:03:40,1510579020,2017-11-13T13:17:01,0.742,2165.8,7.84,5.31,9.36,833.430,2045.140,105.116669,40.79,2.5335,355,23643,1.88065,3.69,33604,,,,,,,,,,,,,,,,,,99999,99999,99999,99999,99999,99999,99999,99999,99999,99999,99999,99999
47:04:10,1510579050,2017-11-13T13:17:31,0.737,2166.2,7.82,5.30,9.31,833.520,2045.080,104.300003,40.83,2.5336,355,23644,1.86843,3.69,33599,,,,,,,,,,,,,,,,,,99999,99999,99999,99999,99999,99999,99999,99999,99999,99999,99999,99999
47:04:40,1510579080,2017-11-13T13:18:01,0.734,2166.5,7.80,5.26,9.30,833.500,2045.040,104.699997,40.81,2.5337,355,23643,1.86040,3.69,33594,,,,,,,,,,,,,,,,,,99999,99999,99999,99999,99999,99999,99999,99999,99999,99999,99999,99999
47:05:10,1510579110,2017-11-13T13:18:31,0.742,2166.9,7.79,5.26,9.30,833.480,2045.040,106.383331,40.75,2.5338,355,23643,1.87886,3.69,33589,,,,,,,,,,,,,,,,,,99999,99999,99999,99999,99999,99999,99999,99999,99999,99999,99999,99999
47:05:40,1510579140,2017-11-13T13:19:01,0.740,2167.3,7.78,5.25,9.26,833.550,2044.970,106.816666,40.71,2.5339,355,23643,1.87558,3.69,33584,,,,,,,,,,,,,,,,,,99999,99999,99999,99999,99999,99999,99999,99999,99999,99999,99999,99999
47:06:10,1510579170,2017-11-13T13:19:31,0.737,2167.6,7.76,5.25,9.26,833.500,2044.870,104.466667,40.81,2.5339,355,23641,1.86783,3.69,33580,,,,,,,,,,,,,,,,,,99999,99999,99999,99999,99999,99999,99999,99999,99999,99999,99999,99999
47:06:40,1510579200,2017-11-13T13:20:01,0.734,2168.0,7.75,5.21,9.24,833.540,2044.870,104.516670,40.80,2.5340,355,23640,1.86010,3.69,33575,,,,,,,,,,,,,,,,,,99999,99999,99999,99999,99999,99999,99999,99999,99999,99999,99999,99999
47:07:10,1510579230,2017-11-13T13:20:31,0.739,2168.4,7.73,5.23,9.26,833.430,2044.810,105.400002,40.83,2.5341,355,23637,1.87170,3.69,33570,,,,,,,,,,,,,,,,,,99999,99999,99999,99999,99999,99999,99999,99999,99999,99999,99999,99999
47:07:40,1510579260,2017-11-13T13:21:01,0.741,2168.8,7.73,5.22,9.23,833.510,2044.810,106.033333,40.74,2.5341,355,23642,1.87767,3.69,33565,,,,,,,,,,,,,,,,,,99999,99999,99999,99999,99999,99999,99999,99999,99999,99999,99999,99999
47:08:10,1510579290,2017-11-13T13:21:31,0.737,2169.1,7.71,5.20,9.19,833.440,2044.700,105.516670,40.98,2.5341,355,23639,1.86813,3.69,33560,,,,,,,,,,,,,,,,,,99999,99999,99999,99999,99999,99999,99999,99999,99999,99999,99999,99999
47:08:40,1510579320,2017-11-13T13:22:01,0.740,2169.5,7.71,5.19,9.22,833.490,2044.700,105.916664,41.08,2.5341,355,23641,1.87588,3.69,33555,,,,,,,,,,,,,,,,,,99999,99999,99999,99999,99999,99999,99999,99999,99999,99999,99999,99999
47:09:10,1510579350,2017-11-13T13:22:31,0.734,2169.9,7.69,5.15,9.19,833.490,2044.640,104.516670,41.06,2.5342,355,23637,1.85980,3.69,33550,,,,,,,,,,,,,,,,,,99999,99999,99999,99999,99999,99999,99999,99999,99999,99999,99999,99999
47:09:40,1510579380,2017-11-13T13:23:01,0.736,2170.2,7.68,5.17,9.18,833.470,2044.640,103.449997,41.05,2.5343,355,23637,1.86575,3.69,33546,,,,,,,,,,,,,,,,,,99999,99999,99999,99999,99999,99999,99999,99999,99999,99999,99999,99999
47:10:10,1510579410,2017-11-13T13:23:31,0.736,2170.6,7.66,5.16,9.15,833.510,2044.580,103.250000,41.06,2.5344,355,23638,1.86426,3.69,33541,,,,,,,,,,,,,,,,,,99999,99999,99999,99999,99999,99999,99999,99999,99999,99999,99999,99999
47:10:40,1510579440,2017-11-13T13:24:01,0.739,2171.0,7.65,5.16,9.15,833.430,2044.540,103.349998,41.20,2.5345,355,23638,1.87379,3.69,33536,,,,,,,,,,,,,,,,,,99999,99999,99999,99999,99999,99999,99999,99999,99999,99999,99999,99999
47:11:10,1510579470,2017-11-13T13:24:31,0.734,2171.3,7.65,5.13,9.15,833.480,2044.540,104.000000,41.35,2.5345,355,23636,1.86070,3.69,33531,,,,,,,,,,,,,,,,,,99999,99999,99999,99999,99999,99999,99999,99999,99999,99999,99999,99999
47:11:40,1510579500,2017-11-13T13:25:01,0.740,2171.7,7.63,5.11,9.14,833.410,2044.410,106.183334,40.75,2.5345,355,23639,1.87438,3.69,33526,,,,,,,,,,,,,,,,,,99999,99999,99999,99999,99999,99999,99999,99999,99999,99999,99999,99999
47:12:10,1510579530,2017-11-13T13:25:31,0.734,2172.1,7.62,5.12,9.14,833.430,2044.410,102.449997,40.88,2.5346,355,23635,1.86010,3.69,33521,,,,,,,,,,,,,,,,,,99999,99999,99999,99999,99999,99999,99999,99999,99999,99999,99999,99999
47:12:40,1510579560,2017-11-13T13:26:01,0.734,2172.4,7.62,5.09,9.14,833.380,2044.410,102.933334,41.38,2.5346,355,23637,1.85921,3.69,33517,,,,,,,,,,,,,,,,,,99999,99999,99999,99999,99999,99999,99999,99999,99999,99999,99999,99999
47:13:10,1510579590,2017-11-13T13:26:31,0.738,2172.8,7.61,5.10,9.14,833.330,2044.370,104.733330,41.47,2.5346,355,23639,1.87140,3.69,33512,,,,,,,,,,,,,,,,,,99999,99999,99999,99999,99999,99999,99999,99999,99999,99999,99999,99999
47:13:40,1510579620,2017-11-13T13:27:01,0.740,2173.2,7.61,5.09,9.11,833.310,2044.370,106.033333,41.25,2.5346,355,23637,1.87528,3.69,33507,,,,,,,,,,,,,,,,,,99999,99999,99999,99999,99999,99999,99999,99999,99999,99999,99999,99999
47:14:10,1510579650,2017-11-13T13:27:31,0.741,2173.5,7.61,5.09,9.11,833.330,2044.370,105.949997,41.10,2.5346,355,23635,1.87797,3.69,33502,,,,,,,,,,,,,,,,,,99999,99999,99999,99999,99999,99999,99999,99999,99999,99999,99999,99999
47:14:40,1510579680,2017-11-13T13:28:01,0.737,2173.9,7.60,5.10,9.09,833.330,2044.300,104.699997,40.96,2.5347,355,23633,1.86723,3.69,33497,,,,,,,,,,,,,,,,,,99999,99999,99999,99999,99999,99999,99999,99999,99999,99999,99999,99999
47:15:10,1510579710,2017-11-13T13:28:31,0.733,2174.3,7.60,5.10,9.11,833.280,2044.300,103.300003,41.07,2.5347,355,23636,1.85802,3.69,33492,,,,,,,,,,,,,,,,,,99999,99999,99999,99999,99999,99999,99999,99999,99999,99999,99999,99999
47:15:40,1510579740,2017-11-13T13:29:01,0.733,2174.6,7.59,5.08,9.09,833.260,2044.300,103.716667,40.72,2.5348,355,23636,1.85891,3.69,33488,,,,,,,,,,,,,,,,,,99999,99999,99999,99999,99999,99999,99999,99999,99999,99999,99999,99999
47:16:10,1510579770,2017-11-13T13:29:31,0.737,2175.0,7.60,5.09,9.09,833.360,2044.300,105.033333,40.68,2.5347,355,23637,1.86932,3.69,33483,,,,,,,,,,,,,,,,,,99999,99999,99999,99999,99999,99999,99999,99999,99999,99999,99999,99999
47:16:40,1510579800,2017-11-13T13:30:01,0.741,2175.4,7.60,5.07,9.05,833.280,2044.300,106.349998,41.23,2.5346,355,23632,1.87826,3.69,33478,,,,,,,,,,,,,,,,,,99999,99999,99999,99999,99999,99999,99999,99999,99999,99999,99999,99999
47:17:10,1510579830,2017-11-13T13:30:31,0.732,2175.8,7.61,5.08,9.09,833.250,2044.370,104.750000,41.25,2.5346,355,23635,1.85624,3.69,33473,,,,,,,,,,,,,,,,,,99999,99999,99999,99999,99999,99999,99999,99999,99999,99999,99999,99999
47:17:40,1510579860,2017-11-13T13:31:01,0.735,2176.1,7.61,5.07,9.07,833.250,2044.370,104.383331,40.75,2.5347,355,23636,1.86248,3.69,33468,,,,,,,,,,,,,,,,,,99999,99999,99999,99999,99999,99999,99999,99999,99999,99999,99999,99999
47:18:10,1510579890,2017-11-13T13:31:31,0.733,2176.5,7.61,5.10,9.11,833.280,2044.370,103.949997,40.79,2.5347,355,23637,1.85684,3.69,33463,,,,,,,,,,,,,,,,,,99999,99999,99999,99999,99999,99999,99999,99999,99999,99999,99999,99999
47:18:40,1510579920,2017-11-13T13:32:01,0.741,2176.9,7.59,5.09,9.07,833.260,2044.300,106.383331,41.10,2.5347,355,23635,1.87856,3.69,33459,,,,,,,,,,,,,,,,,,99999,99999,99999,99999,99999,99999,99999,99999,99999,99999,99999,99999
47:19:10,1510579950,2017-11-13T13:32:31,0.739,2177.2,7.58,5.06,9.09,833.310,2044.240,105.433334,40.89,2.5348,355,23636,1.87260,3.69,33454,,,,,,,,,,,,,,,,,,99999,99999,99999,99999,99999,99999,99999,99999,99999,99999,99999,99999
47:19:40,1510579980,2017-11-13T13:33:01,0.737,2177.6,7.57,5.04,9.07,833.210,2044.240,104.500000,40.70,2.5349,355,23637,1.86813,3.69,33449,,,,,,,,,,,,,,,,,,99999,99999,99999,99999,99999,99999,99999,99999,99999,99999,99999,99999
47:20:10,1510580010,2017-11-13T13:33:31,0.737,2178.0,7.57,5.06,9.05,833.310,2044.240,105.133331,41.01,2.5349,355,23637,1.86813,3.69,33444,,,,,,,,,,,,,,,,,,99999,99999,99999,99999,99999,99999,99999,99999,99999,99999,99999,99999
47:20:40,1510580040,2017-11-13T13:34:01,0.737,2178.3,7.56,5.04,9.05,833.290,2044.200,104.650002,41.21,2.5349,355,23635,1.86783,3.69,33439,,,,,,,,,,,,,,,,,,99999,99999,99999,99999,99999,99999,99999,99999,99999,99999,99999,99999
47:21:10,1510580070,2017-11-13T13:34:31,0.732,2178.7,7.56,5.03,9.07,833.340,2044.200,105.400002,41.46,2.5349,355,23635,1.85654,3.69,33434,,,,,,,,,,,,,,,,,,99999,99999,99999,99999,99999,99999,99999,99999,99999,99999,99999,99999
47:21:40,1510580100,2017-11-13T13:35:01,0.740,2179.1,7.56,5.04,9.02,833.450,2044.200,106.650002,41.67,2.5349,355,23637,1.87468,3.69,33429,,,,,,,,,,,,,,,,,,99999,99999,99999,99999,99999,99999,99999,99999,99999,99999,99999,99999
47:22:10,1510580130,2017-11-13T13:35:31,0.733,2179.4,7.55,5.01,9.03,833.400,2044.200,104.933334,41.39,2.5350,355,23634,1.85773,3.69,33425,,,,,,,,,,,,,,,,,,99999,99999,99999,99999,99999,99999,99999,99999,99999,99999,99999,99999
47:22:40,1510580160,2017-11-13T13:36:01,0.737,2179.8,7.54,5.03,9.03,833.450,2044.140,105.099998,41.00,2.5350,355,23633,1.86932,3.69,33420,,,,,,,,,,,,,,,,,,99999,99999,99999,99999,99999,99999,99999,99999,99999,99999,99999,99999
47:23:10,1510580190,2017-11-13T13:36:31,0.740,2180.2,7.52,4.99,8.99,833.430,2044.080,105.233330,41.13,2.5351,355,23633,1.87647,3.69,33415,,,,,,,,,,,,,,,,,,99999,99999,99999,99999,99999,99999,99999,99999,99999,99999,99999,99999
47:23:40,1510580220,2017-11-13T13:37:01,0.733,2180.5,7.51,5.00,9.02,833.410,2044.080,105.099998,41.51,2.5352,355,23635,1.85773,3.69,33410,,,,,,,,,,,,,,,,,,99999,99999,99999,99999,99999,99999,99999,99999,99999,99999,99999,99999
47:24:10,1510580250,2017-11-13T13:37:31,0.736,2180.9,7.50,5.00,8.97,833.440,2043.970,105.349998,41.35,2.5351,355,23633,1.86604,3.69,33405,,,,,,,,,,,,,,,,,,99999,99999,99999,99999,99999,99999,99999,99999,99999,99999,99999,99999
47:24:40,1510580280,2017-11-13T13:38:01,0.737,2181.3,7.49,5.02,8.99,833.380,2043.970,103.966667,40.66,2.5353,355,23633,1.86723,3.68,33400,,,,,,,,,,,,,,,,,,99999,99999,99999,99999,99999,99999,99999,99999,99999,99999,99999,99999
47:25:10,1510580310,2017-11-13T13:38:31,0.739,2181.6,7.47,4.97,8.95,833.420,2043.870,105.150002,40.64,2.5353,355,23633,1.87409,3.68,33396,,,,,,,,,,,,,,,,,,99999,99999,99999,99999,99999,99999,99999,99999,99999,99999,99999,99999
47:25:40,1510580340,2017-11-13T13:39:01,0.733,2182.0,7.47,4.99,8.97,833.420,2043.870,102.199997,41.16,2.5353,355,23635,1.85921,3.68,33391,,,,,,,,,,,,,,,,,,99999,99999,99999,99999,99999,99999,99999,99999,99999,99999,99999,99999
47:26:10,1510580370,2017-11-13T13:39:31,0.733,2182.4,7.44,4.97,8.94,833.470,2043.800,102.199997,41.01,2.5355,355,23634,1.85862,3.68,33386,,,,,,,,,,,,,,,,,,99999,99999,99999,99999,99999,99999,99999,99999,99999,99999,99999,99999
47:26:40,1510580400,2017-11-13T13:40:01,0.736,2182.7,7.44,4.95,8.95,833.500,2043.800,104.516670,41.23,2.5355,355,23634,1.86575,3.68,33381,,,,,,,,,,,,,,,,,,99999,99999,99999,99999,99999,99999,99999,99999,99999,99999,99999,99999
47:27:10,1510580430,2017-11-13T13:40:31,0.739,2183.1,7.43,4.97,8.93,833.420,2043.740,105.166664,41.70,2.5355,355,23634,1.87498,3.68,33376,,,,,,,,,,,,,,,,,,99999,99999,99999,99999,99999,99999,99999,99999,99999,99999,99999,99999
47:27:40,1510580460,2017-11-13T13:41:01,0.733,2183.5,7.43,4.96,8.89,833.450,2043.740,103.633331,41.81,2.5355,355,23631,1.85832,3.68,33371,,,,,,,,,,,,,,,,,,99999,99999,99999,99999,99999,99999,99999,99999,99999,99999,99999,99999
47:28:10,1510580490,2017-11-13T13:41:31,0.734,2183.8,7.42,4.96,8.89,833.430,2043.740,105.133331,41.90,2.5356,355,23631,1.86158,3.68,33367,,,,,,,,,,,,,,,,,,99999,99999,99999,99999,99999,99999,99999,99999,99999,99999,99999,99999
47:28:40,1510580520,2017-11-13T13:42:01,0.739,2184.2,7.42,4.97,8.94,833.450,2043.740,106.000000,41.82,2.5356,355,23632,1.87409,3.68,33362,,,,,,,,,,,,,,,,,,99999,99999,99999,99999,99999,99999,99999,99999,99999,99999,99999,99999
47:29:10,1510580550,2017-11-13T13:42:31,0.731,2184.6,7.41,4.97,8.90,833.360,2043.700,103.583336,41.89,2.5356,355,23634,1.85328,3.68,33357,,,,,,,,,,,,,,,,,,99999,99999,99999,99999,99999,99999,99999,99999,99999,99999,99999,99999
47:29:40,1510580580,2017-11-13T13:43:01,0.737,2184.9,7.42,4.97,8.90,833.430,2043.740,106.050003,42.05,2.5356,355,23636,1.86843,3.68,33352,,,,,,,,,,,,,,,,,,99999,99999,99999,99999,99999,99999,99999,99999,99999,99999,99999,99999
47:30:10,1510580610,2017-11-13T13:43:31,0.735,2185.3,7.40,4.97,8.88,833.350,2043.700,104.183334,42.18,2.5357,355,23634,1.86396,3.68,33347,,,,,,,,,,,,,,,,,,99999,99999,99999,99999,99999,99999,99999,99999,99999,99999,99999,99999
47:30:40,1510580640,2017-11-13T13:44:01,0.738,2185.7,7.41,4.97,8.89,833.360,2043.700,106.333336,42.14,2.5356,355,23634,1.87230,3.68,33342,,,,,,,,,,,,,,,,,,99999,99999,99999,99999,99999,99999,99999,99999,99999,99999,99999,99999
47:31:10,1510580670,2017-11-13T13:44:31,0.731,2186.0,7.40,4.99,8.88,833.300,2043.700,103.883331,41.96,2.5357,355,23633,1.85358,3.68,33337,,,,,,,,,,,,,,,,,,99999,99999,99999,99999,99999,99999,99999,99999,99999,99999,99999,99999
47:31:40,1510580700,2017-11-13T13:45:01,0.736,2186.4,7.39,4.96,8.90,833.310,2043.640,104.066666,41.94,2.5357,355,23633,1.86515,3.68,33333,,,,,,,,,,,,,,,,,,99999,99999,99999,99999,99999,99999,99999,99999,99999,99999,99999,99999
47:32:10,1510580730,2017-11-13T13:45:31,0.739,2186.8,7.39,4.97,8.89,833.310,2043.640,105.150002,42.08,2.5357,355,23635,1.87438,3.68,33328,,,,,,,,,,,,,,,,,,99999,99999,99999,99999,99999,99999,99999,99999,99999,99999,99999,99999
47:32:40,1510580760,2017-11-13T13:46:01,0.739,2187.1,7.39,4.98,8.90,833.390,2043.640,105.349998,41.73,2.5357,355,23633,1.87290,3.68,33323,,,,,,,,,,,,,,,,,,99999,99999,99999,99999,99999,99999,99999,99999,99999,99999,99999,99999
47:33:10,1510580790,2017-11-13T13:46:31,0.736,2187.5,7.38,4.96,8.86,833.330,2043.640,103.883331,41.86,2.5358,355,23633,1.86575,3.68,33318,,,,,,,,,,,,,,,,,,99999,99999,99999,99999,99999,99999,99999,99999,99999,99999,99999,99999
47:33:40,1510580820,2017-11-13T13:47:01,0.732,2187.9,7.38,4.99,8.88,833.390,2043.640,103.683334,41.67,2.5358,355,23633,1.85536,3.68,33313,,,,,,,,,,,,,,,,,,99999,99999,99999,99999,99999,99999,99999,99999,99999,99999,99999,99999
47:34:10,1510580850,2017-11-13T13:47:31,0.734,2188.2,7.38,5.02,8.89,833.330,2043.640,105.816666,42.04,2.5358,355,23634,1.86070,3.68,33308,,,,,,,,,,,,,,,,,,99999,99999,99999,99999,99999,99999,99999,99999,99999,99999,99999,99999
47:34:40,1510580880,2017-11-13T13:48:01,0.738,2188.6,7.39,4.97,8.89,833.390,2043.640,105.783333,42.19,2.5357,355,23635,1.87230,3.68,33304,,,,,,,,,,,,,,,,,,99999,99999,99999,99999,99999,99999,99999,99999,99999,99999,99999,99999
47:35:10,1510580910,2017-11-13T13:48:31,0.732,2189.0,7.39,5.01,8.88,833.410,2043.640,104.050003,42.32,2.5357,355,23636,1.85595,3.68,33299,,,,,,,,,,,,,,,,,,99999,99999,99999,99999,99999,99999,99999,99999,99999,99999,99999,99999
47:35:40,1510580940,2017-11-13T13:49:01,0.739,2189.3,7.39,5.01,8.88,833.390,2043.640,105.983330,42.44,2.5357,355,23634,1.87498,3.68,33294,,,,,,,,,,,,,,,,,,99999,99999,99999,99999,99999,99999,99999,99999,99999,99999,99999,99999
47:36:10,1510580970,2017-11-13T13:49:31,0.731,2189.7,7.38,5.01,8.88,833.440,2043.640,104.500000,42.38,2.5358,355,23635,1.85476,3.68,33289,,,,,,,,,,,,,,,,,,99999,99999,99999,99999,99999,99999,99999,99999,99999,99999,99999,99999
47:36:40,1510581000,2017-11-13T13:50:01,0.736,2190.1,7.38,4.97,8.88,833.410,2043.640,104.533333,42.04,2.5358,355,23634,1.86515,3.68,33284,,,,,,,,,,,,,,,,,,99999,99999,99999,99999,99999,99999,99999,99999,99999,99999,99999,99999
47:37:10,1510581030,2017-11-13T13:50:31,0.737,2190.4,7.37,4.99,8.88,833.390,2043.540,104.833336,41.76,2.5358,355,23634,1.86843,3.68,33279,,,,,,,,,,,,,,,,,,99999,99999,99999,99999,99999,99999,99999,99999,99999,99999,99999,99999
47:37:40,1510581060,2017-11-13T13:51:01,0.734,2190.8,7.36,4.99,8.88,833.470,2043.470,103.783333,41.66,2.5358,355,23636,1.86129,3.68,33274,,,,,,,,,,,,,,,,,,99999,99999,99999,99999,99999,99999,99999,99999,99999,99999,99999,99999
47:38:10,1510581090,2017-11-13T13:51:31,0.734,2191.2,7.37,5.01,8.90,833.420,2043.540,104.633331,41.64,2.5358,355,23632,1.86188,3.68,33270,,,,,,,,,,,,,,,,,,99999,99999,99999,99999,99999,99999,99999,99999,99999,99999,99999,99999
47:38:40,1510581120,2017-11-13T13:52:01,0.739,2191.5,7.35,4.95,8.81,833.420,2043.470,106.199997,41.42,2.5359,355,23635,1.87379,3.68,33265,,,,,,,,,,,,,,,,,,99999,99999,99999,99999,99999,99999,99999,99999,99999,99999,99999,99999
47:39:10,1510581150,2017-11-13T13:52:31,0.736,2191.9,7.35,4.96,8.86,833.470,2043.470,104.716667,41.48,2.5359,355,23635,1.86753,3.68,33260,,,,,,,,,,,,,,,,,,99999,99999,99999,99999,99999,99999,99999,99999,99999,99999,99999,99999
47:39:40,1510581180,2017-11-13T13:53:01,0.733,2192.3,7.34,4.97,8.82,833.470,2043.410,103.333336,41.40,2.5359,355,23635,1.85951,3.68,33255,,,,,,,,,,,,,,,,,,99999,99999,99999,99999,99999,99999,99999,99999,99999,99999,99999,99999
47:40:10,1510581210,2017-11-13T13:53:31,0.735,2192.6,7.34,4.96,8.86,833.500,2043.410,103.500000,41.49,2.5359,355,23633,1.86278,3.68,33250,,,,,,,,,,,,,,,,,,99999,99999,99999,99999,99999,99999,99999,99999,99999,99999,99999,99999
47:40:40,1510581240,2017-11-13T13:54:01,0.736,2193.0,7.34,4.95,8.81,833.450,2043.410,104.449997,41.50,2.5359,355,23634,1.86753,3.68,33246,,,,,,,,,,,,,,,,,,99999,99999,99999,99999,99999,99999,99999,99999,99999,99999,99999,99999
47:41:10,1510581270,2017-11-13T13:54:31,0.739,2193.4,7.34,4.96,8.82,833.420,2043.410,105.400002,41.50,2.5359,355,23635,1.87498,3.68,33241,,,,,,,,,,,,,,,,,,99999,99999,99999,99999,99999,99999,99999,99999,99999,99999,99999,99999
47:41:40,1510581300,2017-11-13T13:55:01,0.739,2193.7,7.33,4.95,8.80,833.400,2043.410,105.150002,41.27,2.5360,355,23635,1.87379,3.68,33236,,,,,,,,,,,,,,,,,,99999,99999,99999,99999,99999,99999,99999,99999,99999,99999,99999,99999
47:42:10,1510581330,2017-11-13T13:55:31,0.738,2194.1,7.34,4.93,8.81,833.370,2043.410,106.183334,41.29,2.5359,355,23632,1.87200,3.68,33231,,,,,,,,,,,,,,,,,,99999,99999,99999,99999,99999,99999,99999,99999,99999,99999,99999,99999
47:42:40,1510581360,2017-11-13T13:56:01,0.736,2194.5,7.33,4.95,8.80,833.420,2043.410,105.883331,41.34,2.5360,355,23634,1.86664,3.68,33226,,,,,,,,,,,,,,,,,,99999,99999,99999,99999,99999,99999,99999,99999,99999,99999,99999,99999
47:43:10,1510581390,2017-11-13T13:56:31,0.732,2194.8,7.34,4.97,8.82,833.390,2043.410,104.500000,41.58,2.5359,355,23633,1.85536,3.68,33221,,,,,,,,,,,,,,,,,,99999,99999,99999,99999,99999,99999,99999,99999,99999,99999,99999,99999
47:43:40,1510581420,2017-11-13T13:57:01,0.734,2195.2,7.35,4.96,8.86,833.390,2043.470,103.699997,41.76,2.5359,355,23636,1.86070,3.68,33217,,,,,,,,,,,,,,,,,,99999,99999,99999,99999,99999,99999,99999,99999,99999,99999,99999,99999
47:44:10,1510581450,2017-11-13T13:57:31,0.740,2195.6,7.35,4.96,8.82,833.370,2043.470,104.550003,41.80,2.5359,355,23635,1.87618,3.68,33212,,,,,,,,,,,,,,,,,,99999,99999,99999,99999,99999,99999,99999,99999,99999,99999,99999,99999
47:44:40,1510581480,2017-11-13T13:58:01,0.734,2195.9,7.35,4.99,8.81,833.370,2043.470,102.699997,42.19,2.5359,355,23633,1.86040,3.68,33207,,,,,,,,,,,,,,,,,,99999,99999,99999,99999,99999,99999,99999,99999,99999,99999,99999,99999
47:45:10,1510581510,2017-11-13T13:58:32,0.737,2196.3,7.36,4.98,8.86,833.390,2043.470,104.733330,42.20,2.5358,355,23634,1.86962,3.68,33202,19.421196,88.292978,115.525896,0.989515,0.287557,2.545825,33.289482,26.293840,-53.823837,0.002194,0.002188,0.002188,0.002194,-0.012863,-0.045002,-0.115521,-0.200604,99999,99999,99999,99999,99999,99999,99999,99999,99999,99999,99999,99999
47:45:40,1510581540,2017-11-13T13:59:02,0.737,2196.7,7.38,5.01,8.85,833.440,2043.640,104.250000,42.21,2.5358,355,23634,1.86783,3.68,33197,19.035192,88.213164,115.608356,0.989515,0.642407,2.494266,52.192963,-40.274376,-53.823837,0.002188,0.002188,0.002188,0.002206,-0.012864,-0.045004,-0.115527,-0.200616,99999,99999,99999,99999,99999,99999,99999,99999,99999,99999,99999,99999
47:46:10,1510581570,2017-11-13T13:59:32,0.735,2197.0,7.38,4.99,8.88,833.440,2043.640,105.533333,42.37,2.5358,355,23633,1.86307,3.68,33193,18.660726,88.133200,115.690886,0.989515,0.778840,2.566866,8.444987,-3.796512,-53.823837,0.002188,0.002188,0.002188,0.002194,-0.012864,-0.045004,-0.115527,-0.200616,99999,99999,99999,99999,99999,99999,99999,99999,99999,99999,99999,99999
47:46:40,1510581600,2017-11-13T14:00:02,0.734,2197.4,7.38,4.98,8.86,833.360,2043.640,104.266670,42.39,2.5358,355,23633,1.86158,3.68,33188,18.297546,88.053120,115.773490,0.989515,0.824872,2.585664,6.553509,0.892434,-53.823837,0.002188,0.002188,0.002188,0.002194,-0.012863,-0.045000,-0.115518,-0.200597,99999,99999,99999,99999,99999,99999,99999,99999,99999,99999,99999,99999
47:47:10,1510581630,2017-11-13T14:00:32,0.740,2197.8,7.38,5.01,8.88,833.460,2043.540,105.616669,42.09,2.5358,355,23636,1.87558,3.68,33183,17.945015,87.972870,115.856153,0.989515,0.803871,2.556764,1.667223,-2.700644,-53.823837,0.002188,0.002188,0.002188,0.002200,-0.012864,-0.045004,-0.115530,-0.200621,99999,99999,99999,99999,99999,99999,99999,99999,99999,99999,99999,99999
47:47:40,1510581660,2017-11-13T14:01:02,0.737,2198.1,7.38,5.01,8.85,833.520,2043.640,105.599998,41.99,2.5358,355,23633,1.86932,3.68,33178,17.603065,87.892523,115.938874,0.989515,0.781852,2.527877,21.098986,7.120113,-53.823837,0.002194,0.002188,0.002188,0.002188,-0.012865,-0.045007,-0.115537,-0.200635,99999,99999,99999,99999,99999,99999,99999,99999,99999,99999,99999,99999
47:48:10,1510581690,2017-11-13T14:01:32,0.731,2198.5,7.38,5.01,8.89,833.410,2043.640,103.616669,41.95,2.5358,355,23636,1.85417,3.68,33174,17.271472,87.812119,116.021661,0.989515,0.757267,2.498485,6.648312,13.344028,-53.823837,0.002194,0.002188,0.002188,0.002206,-0.012863,-0.045002,-0.115524,-0.200609,99999,99999,99999,99999,99999,99999,99999,99999,99999,99999,99999,99999
47:48:40,1510581720,2017-11-13T14:02:02,0.733,2198.9,7.39,5.02,8.89,833.360,2043.640,103.866669,41.94,2.5358,355,23635,1.85802,3.68,33169,16.949624,87.731598,116.104519,0.989515,0.735583,2.470948,2.196930,9.155896,-53.823837,0.002188,0.002188,0.002194,0.002188,-0.012863,-0.045000,-0.115518,-0.200597,99999,99999,99999,99999,99999,99999,99999,99999,99999,99999,99999,99999
47:49:10,1510581750,2017-11-13T14:02:32,0.734,2199.2,7.39,5.01,8.88,833.440,2043.640,103.816666,41.73,2.5357,355,23635,1.86010,3.68,33164,16.637076,87.650936,116.187444,0.989515,0.712252,2.445104,-5.208177,18.825401,-53.823837,0.002188,0.002188,0.002188,0.002213,-0.012864,-0.045004,-0.115527,-0.200616,99999,99999,99999,99999,99999,99999,99999,99999,99999,99999,99999,99999
47:49:40,1510581780,2017-11-13T14:03:02,0.736,2199.6,7.39,5.01,8.90,833.460,2043.640,103.866669,41.60,2.5357,355,23639,1.86515,3.68,33159,16.333752,87.570201,116.270418,0.989515,0.695616,2.425574,45.409176,10.183810,-53.823837,0.002200,0.002188,0.002188,0.002206,-0.012864,-0.045004,-0.115530,-0.200621,99999,99999,99999,99999,99999,99999,99999,99999,99999,99999,99999,99999
47:50:10,1510581810,2017-11-13T14:03:32,0.733,2200.0,7.40,5.03,8.86,833.490,2043.640,103.099998,41.52,2.5357,355,23635,1.85862,3.68,33154,16.039400,87.489417,116.353475,0.989515,0.679833,2.404820,8.921325,-3.945039,-53.823837,0.002188,0.002188,0.002188,0.002206,-0.012865,-0.045006,-0.115533,-0.200628,99999,99999,99999,99999,99999,99999,99999,99999,99999,99999,99999,99999
47:50:40,1510581840,2017-11-13T14:04:02,0.733,2200.3,7.41,5.03,8.89,833.490,2043.700,104.183334,41.73,2.5357,355,23637,1.85832,3.68,33150,15.753580,87.408552,116.436610,0.989515,0.663470,2.384965,47.108776,29.399214,-53.823837,0.002200,0.002188,0.002194,0.002213,-0.012865,-0.045006,-0.115533,-0.200628,99999,99999,99999,99999,99999,99999,99999,99999,99999,99999,99999,99999
47:51:10,1510581870,2017-11-13T14:04:32,0.735,2200.7,7.40,5.03,8.90,833.430,2043.700,103.633331,41.68,2.5357,355,23636,1.86307,3.68,33145,15.476040,87.327622,116.519793,0.989515,0.655668,2.377877,27.835041,-6.149090,-53.823837,0.002188,0.002188,0.002188,0.002206,-0.012864,-0.045003,-0.115526,-0.200614,99999,99999,99999,99999,99999,99999,99999,99999,99999,99999,99999,99999
47:51:40,1510581900,2017-11-13T14:05:02,0.735,2201.1,7.40,5.04,8.89,833.350,2043.700,103.866669,41.69,2.5356,355,23634,1.86486,3.68,33140,15.206457,87.246623,116.603059,0.989514,0.636338,2.354322,82.722832,30.847488,-53.823837,0.002188,0.002188,0.002188,0.002194,-0.012863,-0.045000,-0.115517,-0.200595,99999,99999,99999,99999,99999,99999,99999,99999,99999,99999,99999,99999
47:52:10,1510581930,2017-11-13T14:05:32,0.738,2201.4,7.42,5.06,8.93,833.450,2043.740,105.183334,42.39,2.5355,355,23637,1.87111,3.68,33135,14.944488,87.165535,116.686392,0.989514,0.626951,2.344452,75.226379,62.529140,-53.823837,0.002188,0.002188,0.002188,0.002188,-0.012864,-0.045004,-0.115529,-0.200619,99999,99999,99999,99999,99999,99999,99999,99999,99999,99999,99999,99999
47:52:40,1510581960,2017-11-13T14:06:02,0.739,2201.8,7.42,5.05,8.93,833.480,2043.740,106.199997,42.27,2.5355,355,23637,1.87438,3.68,33131,14.690035,87.084416,116.769789,0.989514,0.615928,2.330556,28.847759,17.234121,-53.823837,0.002200,0.002188,0.002188,0.002194,-0.012864,-0.045005,-0.115532,-0.200626,99999,99999,99999,99999,99999,99999,99999,99999,99999,99999,99999,99999
47:53:10,1510581990,2017-11-13T14:06:32,0.736,2202.2,7.43,5.04,8.89,833.370,2043.740,105.833336,42.07,2.5356,355,23635,1.86545,3.68,33126,14.442883,87.003284,116.853248,0.989514,0.614424,2.329911,8.248823,11.543376,-53.823837,0.002188,0.002188,0.002188,0.002200,-0.012863,-0.045001,-0.115519,-0.200599,99999,99999,99999,99999,99999,99999,99999,99999,99999,99999,99999,99999
47:53:40,1510582020,2017-11-13T14:07:02,0.732,2202.5,7.43,5.07,8.90,833.420,2043.740,103.900002,41.97,2.5355,355,23636,1.85536,3.68,33122,14.202528,86.922060,116.936790,0.989514,0.609950,2.324511,21.844778,-3.171462,-53.823837,0.002188,0.002188,0.002188,0.002194,-0.012864,-0.045003,-0.115525,-0.200611,99999,99999,99999,99999,99999,99999,99999,99999,99999,99999,99999,99999
47:54:10,1510582050,2017-11-13T14:07:32,0.732,2202.9,7.43,5.07,8.88,833.400,2043.740,104.766670,42.10,2.5355,355,23636,1.85624,3.69,33118,13.968917,86.840810,117.020402,0.989514,0.596627,2.309000,4.914665,9.968724,-53.823837,0.002188,0.002188,0.002188,0.002188,-0.012863,-0.045002,-0.115523,-0.200607,99999,99999,99999,99999,99999,99999,99999,99999,99999,99999,99999,99999
47:54:40,1510582080,2017-11-13T14:08:02,0.735,2203.3,7.43,5.06,8.90,833.420,2043.740,105.233330,42.15,2.5355,355,23639,1.86248,3.69,33115,13.741804,86.759532,117.104072,0.989514,0.592708,2.307321,45.628014,21.537640,-53.823837,0.002188,0.002188,0.002188,0.002188,-0.012864,-0.045003,-0.115525,-0.200611,99999,99999,99999,99999,99999,99999,99999,99999,99999,99999,99999,99999
47:55:10,1510582110,2017-11-13T14:08:32,0.740,2203.6,7.44,5.07,8.90,833.400,2043.800,105.466667,42.18,2.5354,355,23639,1.87498,3.69,33111,13.520990,86.678239,117.187810,0.989514,0.588520,2.301540,3.789561,0.444933,-53.823837,0.002188,0.002188,0.002188,0.002194,-0.012863,-0.045002,-0.115523,-0.200607,99999,99999,99999,99999,99999,99999,99999,99999,99999,99999,99999,99999
47:55:40,1510582140,2017-11-13T14:09:02,0.739,2204.0,7.43,5.11,8.93,833.370,2043.740,105.916664,41.99,2.5355,355,23640,1.87319,3.69,33108,13.306136,86.596888,117.271645,0.989514,0.587074,2.299292,5.858250,-0.186357,-53.823837,0.002188,0.002188,0.002188,0.002188,-0.012863,-0.045001,-0.115519,-0.200599,99999,99999,99999,99999,99999,99999,99999,99999,99999,99999,99999,99999
47:56:10,1510582170,2017-11-13T14:09:32,0.733,2204.4,7.45,5.13,8.95,833.390,2043.800,103.800003,41.91,2.5355,355,23641,1.85773,3.68,33104,13.097123,86.515516,117.355530,0.989514,0.584125,2.296020,35.130447,12.054704,-53.823837,0.002188,0.002188,0.002188,0.002206,-0.012863,-0.045002,-0.115521,-0.200604,99999,99999,99999,99999,99999,99999,99999,99999,99999,99999,99999,99999
47:56:40,1510582200,2017-11-13T14:10:02,0.740,2204.7,7.45,5.11,8.94,833.370,2043.800,106.183334,41.04,2.5354,355,23641,1.87558,3.68,33099,12.893804,86.434146,117.439480,0.989514,0.581710,2.293048,10.739448,3.549166,-53.823837,0.002188,0.002188,0.002194,0.002188,-0.012863,-0.045001,-0.115519,-0.200599,99999,99999,99999,99999,99999,99999,99999,99999,99999,99999,99999,99999
47:57:10,1510582230,2017-11-13T14:10:32,0.739,2205.1,7.47,5.11,8.97,833.390,2043.870,105.466667,41.22,2.5354,355,23639,1.87260,3.69,33095,12.695953,86.352769,117.523513,0.989514,0.576315,2.285689,6.414346,8.228512,-53.823837,0.002188,0.002188,0.002188,0.002188,-0.012863,-0.045002,-0.115521,-0.200604,99999,99999,99999,99999,99999,99999,99999,99999,99999,99999,99999,99999
47:57:40,1510582260,2017-11-13T14:11:02,0.736,2205.5,7.49,5.14,8.99,833.360,2043.910,103.349998,41.21,2.5353,355,23643,1.86634,3.70,33092,12.503340,86.271369,117.607623,0.989514,0.579178,2.295773,8.430769,3.696203,-53.823837,0.003269,0.002188,0.002188,0.002063,0.552688,-0.045000,-0.115518,-0.200597,99999,99999,99999,99999,99999,99999,99999,99999,99999,99999,99999,99999
47:58:10,1510582290,2017-11-13T14:11:32,0.740,2205.8,7.50,5.19,8.97,833.410,2043.970,106.733330,41.33,2.5351,355,23644,1.87707,3.71,33091,12.315786,86.189949,117.691801,0.989513,0.571667,2.292316,20.587248,9.371660,-53.823837,0.005306,0.002188,0.002188,0.002113,0.472097,-0.045002,-0.115524,-0.200609,99999,99999,99999,99999,99999,99999,99999,99999,99999,99999,99999,99999
47:58:40,1510582320,2017-11-13T14:12:02,0.740,2206.2,7.52,5.24,8.99,833.300,2044.080,105.916664,41.54,2.5351,355,23647,1.87528,3.72,33090,12.133231,86.108560,117.776039,0.989513,0.567787,2.293912,4.991284,6.886700,-53.823837,0.006519,0.002188,0.002188,0.002125,0.451856,-0.044998,-0.115510,-0.200583,99999,99999,99999,99999,99999,99999,99999,99999,99999,99999,99999,99999
47:59:10,1510582350,2017-11-13T14:12:32,0.735,2206.6,7.55,5.33,9.05,833.420,2044.200,104.216667,41.53,2.5349,355,23652,1.86337,3.72,33090,11.955350,86.027133,117.860378,0.989513,0.564129,2.293733,19.946035,-7.627732,-53.823837,0.006800,0.002188,0.002188,0.002113,0.453432,-0.045003,-0.115525,-0.200611,99999,99999,99999,99999,99999,99999,99999,99999,99999,99999,99999,99999
47:59:40,1510582380,2017-11-13T14:13:02,0.741,2206.9,7.58,5.41,9.11,833.340,2044.240,105.933334,41.48,2.5347,355,23652,1.87916,3.72,33090,11.782103,85.945726,117.944775,0.989513,0.559066,2.291808,-0.342960,-0.865294,-53.823837,0.006831,0.002188,0.002188,0.002113,0.459709,-0.045000,-0.115515,-0.200592,99999,99999,99999,99999,99999,99999,99999,99999,99999,99999,99999,99999
48:00:10,1510582410,2017-11-13T14:13:32,0.741,2207.3,7.62,5.51,9.15,833.380,2044.410,106.699997,41.56,2.5345,355,23655,1.87916,3.72,33089,11.613275,85.864312,118.029229,0.989513,0.557812,2.286664,8.432178,1.475475,-53.823837,0.006950,0.002188,0.002188,0.002119,0.464375,-0.045001,-0.115520,-0.200602,99999,99999,99999,99999,99999,99999,99999,99999,99999,99999,99999,99999
48:00:40,1510582440,2017-11-13T14:14:02,0.735,2207.7,7.68,5.58,9.19,833.400,2044.640,104.816666,41.87,2.5343,355,23654,1.86337,3.68,33085,11.448736,85.782901,118.113752,0.989513,0.551632,2.288559,22.287485,17.544790,-53.823837,0.006950,0.002188,0.002188,0.002125,0.471233,-0.045002,-0.115523,-0.200607,99999,99999,99999,99999,99999,99999,99999,99999,99999,99999,99999,99999
48:01:10,1510582470,2017-11-13T14:14:32,0.739,2208.0,7.73,5.64,9.26,833.380,2044.810,106.933334,41.89,2.5341,355,23655,1.87230,3.68,33080,11.288385,85.701515,118.198375,0.989513,0.546496,2.285737,7.655162,-8.331150,-53.823837,0.006850,0.002188,0.002188,0.002106,0.480015,-0.045001,-0.115520,-0.200602,99999,99999,99999,99999,99999,99999,99999,99999,99999,99999,99999,99999
48:01:40,1510582500,2017-11-13T14:15:02,0.737,2208.4,7.79,5.70,9.34,833.320,2044.970,104.733330,41.30,2.5338,355,23660,1.86843,3.72,33079,11.132093,85.620163,118.283070,0.989513,0.541511,2.282286,7.613796,11.109526,-53.823837,0.006944,0.002188,0.002188,0.002125,0.485123,-0.044999,-0.115513,-0.200587,99999,99999,99999,99999,99999,99999,99999,99999,99999,99999,99999,99999
48:02:10,1510582530,2017-11-13T14:15:32,0.735,2208.8,7.86,5.74,9.40,833.380,2045.240,105.199997,42.57,2.5334,355,23662,1.86218,3.72,33079,10.979658,85.538811,118.367830,0.989513,0.539454,2.281130,24.622932,23.676676,-53.823837,0.006994,0.002188,0.002188,0.002119,0.491071,-0.045001,-0.115520,-0.200602,99999,99999,99999,99999,99999,99999,99999,99999,99999,99999,99999,99999
48:02:40,1510582560,2017-11-13T14:16:02,0.736,2209.2,7.93,5.81,9.53,833.390,2045.470,105.116669,42.08,2.5330,355,23664,1.86456,3.72,33079,10.830978,85.457473,118.452663,0.989513,0.536051,2.283209,9.039258,-4.152686,-53.823837,0.007125,0.002188,0.002188,0.002125,0.495469,-0.045002,-0.115521,-0.200604,99999,99999,99999,99999,99999,99999,99999,99999,99999,99999,99999,99999
48:03:10,1510582590,2017-11-13T14:16:32,0.741,2209.5,8.01,5.85,9.59,833.370,2045.700,106.150002,41.94,2.5327,355,23665,1.87707,3.72,33079,10.685990,85.376183,118.537578,0.989513,0.530807,2.279196,11.101196,14.942727,-53.823837,0.007281,0.002188,0.002194,0.002125,0.499414,-0.045001,-0.115519,-0.200599,99999,99999,99999,99999,99999,99999,99999,99999,99999,99999,99999,99999
48:03:40,1510582620,2017-11-13T14:17:02,0.744,2209.9,8.08,5.91,9.69,833.410,2046.040,106.766670,41.06,2.5324,355,23667,1.88364,3.73,33080,10.544469,85.294883,118.622582,0.989513,0.519303,2.268765,4.312032,2.099858,-53.823837,0.007506,0.002188,0.002188,0.002125,0.502140,-0.045002,-0.115524,-0.200609,99999,99999,99999,99999,99999,99999,99999,99999,99999,99999,99999,99999
48:04:10,1510582650,2017-11-13T14:17:32,0.737,2210.3,8.17,5.97,9.80,833.330,2046.310,105.949997,40.72,2.5319,355,23667,1.86515,3.73,33080,10.406340,85.213596,118.707639,0.989513,0.508812,2.256255,78.386406,3.548240,-53.823837,0.007519,0.002188,0.002188,0.002125,0.508749,-0.044999,-0.115514,-0.200590,99999,99999,99999,99999,99999,99999,99999,99999,99999,99999,99999,99999
48:04:40,1510582680,2017-11-13T14:18:02,0.737,2210.6,8.27,6.07,9.89,833.410,2046.600,105.516670,40.87,2.5315,355,23671,1.86664,3.73,33081,10.271459,85.132300,118.792784,0.989512,0.501012,2.250122,9.558363,1.622458,-53.823837,0.007581,0.002188,0.002194,0.002125,0.514449,-0.045002,-0.115524,-0.200609,99999,99999,99999,99999,99999,99999,99999,99999,99999,99999,99999,99999
48:05:10,1510582710,2017-11-13T14:18:32,0.740,2211.0,8.34,6.13,9.98,833.320,2046.940,106.050003,39.89,2.5312,355,23673,1.87230,3.73,33082,10.139808,85.051050,118.878030,0.989512,0.494693,2.243069,4.608109,6.045454,-53.823837,0.007619,0.002188,0.002188,0.002125,0.520606,-0.044999,-0.115513,-0.200587,99999,99999,99999,99999,99999,99999,99999,99999,99999,99999,99999,99999
48:05:40,1510582740,2017-11-13T14:19:02,0.746,2211.4,8.44,6.17,10.09,833.380,2047.210,107.716667,40.04,2.5306,355,23676,1.88873,3.73,33082,10.011264,84.969834,118.963333,0.989512,0.482018,2.231446,10.983165,11.360337,-53.823837,0.007656,0.002188,0.002188,0.002119,0.526759,-0.045001,-0.115520,-0.200602,99999,99999,99999,99999,99999,99999,99999,99999,99999,99999,99999,99999
48:06:10,1510582770,2017-11-13T14:19:32,0.741,2211.7,8.54,6.25,10.23,833.350,2047.540,106.083336,40.32,2.5302,355,23678,1.87468,3.73,33083,9.885705,84.888639,119.048712,0.989512,0.475181,2.225872,1.687235,-3.260954,-53.823837,0.007763,0.002188,0.002194,0.002125,0.531645,-0.045000,-0.115517,-0.200595,99999,99999,99999,99999,99999,99999,99999,99999,99999,99999,99999,99999
48:06:40,1510582800,2017-11-13T14:20:02,0.748,2212.1,8.64,6.35,10.32,833.410,2047.870,108.099998,40.62,2.5297,355,23677,1.89143,3.73,33084,9.763065,84.807481,119.134150,0.989512,0.468575,2.221917,29.723177,16.660418,-53.823837,0.007856,0.002188,0.002188,0.002125,0.536756,-0.045002,-0.115524,-0.200609,99999,99999,99999,99999,99999,99999,99999,99999,99999,99999,99999,99999
48:07:10,1510582830,2017-11-13T14:20:32,0.745,2212.5,8.72,6.44,10.42,833.520,2048.210,108.949997,40.44,2.5293,355,23682,1.88544,3.73,33085,9.643192,84.726323,119.219682,0.989512,0.463616,2.217939,25.396111,17.586327,-53.823837,0.007988,0.002188,0.002188,0.002125,0.541187,-0.045007,-0.115537,-0.200635,99999,99999,99999,99999,99999,99999,99999,99999,99999,99999,99999,99999
48:07:40,1510582860,2017-11-13T14:21:02,0.749,2212.9,8.84,6.57,10.51,833.420,2048.660,108.000000,39.97,2.5288,355,23690,1.89442,3.74,33086,9.526140,84.645261,119.305307,0.989512,0.454399,2.210324,16.103659,9.947219,-53.823837,0.008037,0.002188,0.002188,0.002125,0.547086,-0.045003,-0.115525,-0.200611,99999,99999,99999,99999,99999,99999,99999,99999,99999,99999,99999,99999
48:08:10,1510582890,2017-11-13T14:21:32,0.744,2213.2,8.95,6.68,10.63,833.390,2049.040,107.599998,39.27,2.5283,355,23684,1.88215,3.68,33085,9.411690,84.564204,119.391000,0.989512,0.451910,2.198840,10.313944,12.178381,-53.823837,0.008106,0.002188,0.002188,0.002125,0.552641,-0.045002,-0.115521,-0.200604,99999,99999,99999,99999,99999,99999,99999,99999,99999,99999,99999,99999
48:08:40,1510582920,2017-11-13T14:22:02,0.751,2213.6,9.05,6.74,10.77,833.470,2049.330,108.166664,39.09,2.5277,355,23695,1.89923,3.74,33086,9.299757,84.483147,119.476785,0.989512,0.462154,2.167433,0.363119,5.364294,-53.823837,0.008069,0.002188,0.002188,0.002125,0.560137,-0.045005,-0.115531,-0.200623,99999,99999,99999,99999,99999,99999,99999,99999,99999,99999,99999,99999
48:09:10,1510582950,2017-11-13T14:22:32,0.751,2214.0,9.17,6.80,10.92,833.390,2049.730,108.733330,38.35,2.5273,355,23694,1.89833,3.74,33088,9.190372,84.402172,119.562633,0.989512,0.518948,2.106145,87.506485,-10.098248,-53.823837,0.007981,0.002188,0.002188,0.002125,0.568606,-0.045002,-0.115521,-0.200604,99999,99999,99999,99999,99999,99999,99999,99999,99999,99999,99999,99999
48:09:40,1510582980,2017-11-13T14:23:02,0.751,2214.4,9.27,6.87,11.02,833.390,2050.110,109.066666,37.77,2.5268,355,23695,1.89863,3.74,33089,9.083389,84.321227,119.648557,0.989512,0.601212,2.022369,54.578850,-3.104702,-53.823837,0.008200,0.002188,0.002188,0.002125,0.571331,-0.045002,-0.115521,-0.200604,99999,99999,99999,99999,99999,99999,99999,99999,99999,99999,99999,99999
48:10:10,1510583010,2017-11-13T14:23:32,0.751,2214.7,9.38,6.94,11.13,833.390,2050.500,107.416664,37.30,2.5263,355,23699,1.89773,3.74,33091,8.978731,84.240309,119.734562,0.989512,0.694980,1.908769,-1.111874,3.493162,-53.823837,0.008313,0.002188,0.002188,0.002125,0.576055,-0.045002,-0.115521,-0.200604,99999,99999,99999,99999,99999,99999,99999,99999,99999,99999,99999,99999
48:10:40,1510583040,2017-11-13T14:24:02,0.746,2215.1,9.52,7.02,11.26,833.420,2050.960,105.550003,37.20,2.5256,355,23699,1.88394,3.74,33092,8.876378,84.159458,119.820638,0.989512,0.716825,1.831998,20.000763,14.301078,-53.823837,0.008219,0.002188,0.002188,0.002125,0.584601,-0.045003,-0.115525,-0.200611,99999,99999,99999,99999,99999,99999,99999,99999,99999,99999,99999,99999
48:11:10,1510583070,2017-11-13T14:24:32,0.750,2215.5,9.63,7.08,11.39,833.470,2051.330,108.000000,36.71,2.5252,355,23704,1.89502,3.74,33094,8.776205,84.078630,119.906800,0.989511,0.805004,1.739714,49.333813,26.177889,-53.823837,0.008375,0.002188,0.002188,0.002125,0.588475,-0.045005,-0.115531,-0.200623,99999,99999,99999,99999,99999,99999,99999,99999,99999,99999,99999,99999
48:11:40,1510583100,2017-11-13T14:25:02,0.753,2215.9,9.74,7.16,11.50,833.340,2051.730,108.916664,36.33,2.5246,355,23704,1.90103,3.74,33095,8.678169,83.997842,119.993059,0.989511,0.879197,1.631529,8.705742,3.383791,-53.823837,0.008431,0.002188,0.002188,0.002125,0.594217,-0.045000,-0.115515,-0.200592,99999,99999,99999,99999,99999,99999,99999,99999,99999,99999,99999,99999
48:12:10,1510583130,2017-11-13T14:25:32,0.752,2216.2,9.84,7.20,11.66,833.400,2052.130,108.833336,35.90,2.5242,355,23707,1.89833,3.74,33097,8.582183,83.917074,120.079402,0.989511,0.896571,1.561639,2.406388,5.593211,-53.823837,0.008475,0.002188,0.002188,0.002119,0.600184,-0.045002,-0.115523,-0.200607,99999,99999,99999,99999,99999,99999,99999,99999,99999,99999,99999,99999
48:12:40,1510583160,2017-11-13T14:26:02,0.747,2216.6,9.97,7.31,11.79,833.500,2052.560,108.166664,35.76,2.5236,355,23709,1.88484,3.74,33099,8.488216,83.836351,120.165820,0.989511,0.971959,1.480732,8.487773,-4.172124,-53.823837,0.008581,0.002188,0.002188,0.002125,0.604975,-0.045006,-0.115535,-0.200631,99999,99999,99999,99999,99999,99999,99999,99999,99999,99999,99999,99999
48:13:10,1510583190,2017-11-13T14:26:32,0.748,2217.0,10.07,7.38,11.90,833.450,2052.920,108.683334,35.75,2.5230,355,23712,1.88663,3.74,33100,8.396195,83.755660,120.252326,0.989511,0.984491,1.402240,0.030396,2.841825,-53.823837,0.008650,0.002188,0.002188,0.002125,0.610461,-0.045004,-0.115529,-0.200619,99999,99999,99999,99999,99999,99999,99999,99999,99999,99999,99999,99999
48:13:40,1510583220,2017-11-13T14:27:02,0.750,2217.4,10.20,7.45,11.98,833.550,2053.250,108.833336,36.84,2.5223,355,23716,1.89053,3.74,33102,8.306109,83.675041,120.338898,0.989511,0.920631,1.393701,27.182405,26.314537,-53.823837,0.008781,0.002188,0.002194,0.002125,0.614776,-0.045008,-0.115541,-0.200643,99999,99999,99999,99999,99999,99999,99999,99999,99999,99999,99999,99999
48:14:10,1510583250,2017-11-13T14:27:32,0.756,2217.7,10.31,7.54,12.13,833.450,2053.690,110.949997,36.08,2.5218,355,23718,1.90675,3.75,33104,8.217904,83.594500,120.425557,0.989511,0.922262,1.410098,16.405184,17.615931,-53.823837,0.008906,0.002188,0.002188,0.002125,0.619207,-0.045004,-0.115529,-0.200619,99999,99999,99999,99999,99999,99999,99999,99999,99999,99999,99999,99999
48:14:40,1510583280,2017-11-13T14:28:02,0.758,2218.1,10.43,7.61,12.27,833.420,2054.090,111.316666,36.95,2.5212,355,23722,1.91067,3.75,33106,8.131483,83.513994,120.512299,0.989511,0.880491,1.408098,36.650452,24.445194,-53.823837,0.008944,0.002188,0.002188,0.002125,0.625234,-0.045003,-0.115525,-0.200611,99999,99999,99999,99999,99999,99999,99999,99999,99999,99999,99999,99999
